<?xml version='1.0' encoding='UTF-8'?><gpx version="1.1" creator="JPX - https://github.com/jenetics/jpx" xmlns="http://www.topografix.com/GPX/1/1"><trk><trkseg><trkpt lat="36.72283207531341" lon="-4.536468475994454"><ele>25.0</ele><time>2026-03-28T10:00:01Z</time></trkpt><trkpt lat="36.72292755765732" lon="-4.5365758166873436"><ele>25.0</ele><time>2026-03-28T10:00:03Z</time></trkpt><trkpt lat="36.722971971995406" lon="-4.536643111152909"><ele>25.0</ele><time>2026-03-28T10:00:04Z</time></trkpt><trkpt lat="36.72303122237383" lon="-4.536727244719017"><ele>25.0</ele><time>2026-03-28T10:00:05Z</time></trkpt><trkpt lat="36.72309601731777" lon="-4.53681185524907"><ele>25.0</ele><time>2026-03-28T10:00:06Z</time></trkpt><trkpt lat="36.72315508384528" lon="-4.53689152550341"><ele>25.0</ele><time>2026-03-28T10:00:07Z</time></trkpt><trkpt lat="36.72321686342312" lon="-4.536982658699832"><ele>25.0</ele><time>2026-03-28T10:00:08Z</time></trkpt><trkpt lat="36.72328462307692" lon="-4.537066296550013"><ele>25.0</ele><time>2026-03-28T10:00:09Z</time></trkpt><trkpt lat="36.72335648901037" lon="-4.5371538746510165"><ele>25.0</ele><time>2026-03-28T10:00:10Z</time></trkpt><trkpt lat="36.72341901831366" lon="-4.537242132980348"><ele>25.0</ele><time>2026-03-28T10:00:11Z</time></trkpt><trkpt lat="36.72347146136856" lon="-4.537324194044908"><ele>24.833333333333336</ele><time>2026-03-28T10:00:12Z</time></trkpt><trkpt lat="36.72353585751401" lon="-4.537388359393361"><ele>24.666666666666668</ele><time>2026-03-28T10:00:13Z</time></trkpt><trkpt lat="36.723587082497964" lon="-4.537455671811376"><ele>24.5</ele><time>2026-03-28T10:00:14Z</time></trkpt><trkpt lat="36.72363571970902" lon="-4.537519583756096"><ele>24.333333333333336</ele><time>2026-03-28T10:00:15Z</time></trkpt><trkpt lat="36.72368504292999" lon="-4.537584397153533"><ele>24.166666666666668</ele><time>2026-03-28T10:00:16Z</time></trkpt><trkpt lat="36.723712510219165" lon="-4.5376741390866675"><ele>24.0</ele><time>2026-03-28T10:00:17Z</time></trkpt><trkpt lat="36.72376705857306" lon="-4.537747792736879"><ele>23.833333333333332</ele><time>2026-03-28T10:00:18Z</time></trkpt><trkpt lat="36.72382193384872" lon="-4.537817706361673"><ele>23.666666666666668</ele><time>2026-03-28T10:00:19Z</time></trkpt><trkpt lat="36.72388038688297" lon="-4.5379005720809795"><ele>23.5</ele><time>2026-03-28T10:00:20Z</time></trkpt><trkpt lat="36.72393710840648" lon="-4.537961267861024"><ele>23.333333333333336</ele><time>2026-03-28T10:00:21Z</time></trkpt><trkpt lat="36.72398588629013" lon="-4.538034588376165"><ele>23.166666666666668</ele><time>2026-03-28T10:00:21.999Z</time></trkpt><trkpt lat="36.72403385519376" lon="-4.538094857112138"><ele>23.0</ele><time>2026-03-28T10:00:22.999Z</time></trkpt><trkpt lat="36.72411404867207" lon="-4.538202258826072"><ele>23.333333333333336</ele><time>2026-03-28T10:00:24.999Z</time></trkpt><trkpt lat="36.724186738979725" lon="-4.538296153859147"><ele>23.666666666666668</ele><time>2026-03-28T10:00:26.999Z</time></trkpt><trkpt lat="36.72419491811116" lon="-4.538446486061697"><ele>24.0</ele><time>2026-03-28T10:00:28.999Z</time></trkpt><trkpt lat="36.724168548259264" lon="-4.53853022777167"><ele>24.333333333333336</ele><time>2026-03-28T10:00:30.999Z</time></trkpt><trkpt lat="36.72417201763424" lon="-4.538625707750081"><ele>24.666666666666668</ele><time>2026-03-28T10:01:20Z</time></trkpt><trkpt lat="36.724151349013376" lon="-4.538710705195964"><ele>25.0</ele><time>2026-03-28T10:01:24Z</time></trkpt><trkpt lat="36.72413037350956" lon="-4.53882353157716"><ele>25.0</ele><time>2026-03-28T10:01:27Z</time></trkpt><trkpt lat="36.72408697199537" lon="-4.538909069230101"><ele>25.0</ele><time>2026-03-28T10:01:29Z</time></trkpt><trkpt lat="36.724062418857486" lon="-4.5390134109575175"><ele>25.0</ele><time>2026-03-28T10:01:31Z</time></trkpt><trkpt lat="36.72414439366004" lon="-4.539084075846873"><ele>25.0</ele><time>2026-03-28T10:01:33Z</time></trkpt><trkpt lat="36.724235767674095" lon="-4.53920267113798"><ele>25.0</ele><time>2026-03-28T10:01:35Z</time></trkpt><trkpt lat="36.72428969791142" lon="-4.539274848694308"><ele>25.000000000000004</ele><time>2026-03-28T10:01:36Z</time></trkpt><trkpt lat="36.724344813054955" lon="-4.539352327777986"><ele>25.0</ele><time>2026-03-28T10:01:37Z</time></trkpt><trkpt lat="36.72440122374892" lon="-4.539433701328701"><ele>25.0</ele><time>2026-03-28T10:01:38Z</time></trkpt><trkpt lat="36.724454252659584" lon="-4.539510979267723"><ele>25.0</ele><time>2026-03-28T10:01:39Z</time></trkpt><trkpt lat="36.72450922554136" lon="-4.539592942729068"><ele>25.000000000000004</ele><time>2026-03-28T10:01:40Z</time></trkpt><trkpt lat="36.724566284832136" lon="-4.539678016987119"><ele>25.0</ele><time>2026-03-28T10:01:41Z</time></trkpt><trkpt lat="36.72462193867677" lon="-4.5397609957524585"><ele>25.166666666666668</ele><time>2026-03-28T10:01:42Z</time></trkpt><trkpt lat="36.7246741338587" lon="-4.5398388177212174"><ele>25.333333333333336</ele><time>2026-03-28T10:01:43Z</time></trkpt><trkpt lat="36.724725858234635" lon="-4.539915937722758"><ele>25.5</ele><time>2026-03-28T10:01:44Z</time></trkpt><trkpt lat="36.72477545354208" lon="-4.5399898833250925"><ele>25.666666666666664</ele><time>2026-03-28T10:01:45Z</time></trkpt><trkpt lat="36.72482626409912" lon="-4.540065640833044"><ele>25.833333333333332</ele><time>2026-03-28T10:01:46Z</time></trkpt><trkpt lat="36.72486930239395" lon="-4.540125616548964"><ele>26.0</ele><time>2026-03-28T10:01:47Z</time></trkpt><trkpt lat="36.724913781169484" lon="-4.540187776451642"><ele>25.999999999999996</ele><time>2026-03-28T10:01:48Z</time></trkpt><trkpt lat="36.724962081909126" lon="-4.540253884238949"><ele>26.0</ele><time>2026-03-28T10:01:49Z</time></trkpt><trkpt lat="36.725010398068456" lon="-4.540320013125707"><ele>26.0</ele><time>2026-03-28T10:01:50Z</time></trkpt><trkpt lat="36.725060262751235" lon="-4.540388261439064"><ele>26.0</ele><time>2026-03-28T10:01:51Z</time></trkpt><trkpt lat="36.72511769041923" lon="-4.540469821405519"><ele>25.999999999999996</ele><time>2026-03-28T10:01:52Z</time></trkpt><trkpt lat="36.725174875753275" lon="-4.5405503827341755"><ele>26.0</ele><time>2026-03-28T10:01:53Z</time></trkpt><trkpt lat="36.72522879278216" lon="-4.540629916768503"><ele>25.999999999999996</ele><time>2026-03-28T10:01:54Z</time></trkpt><trkpt lat="36.7252840512735" lon="-4.540711429621642"><ele>26.0</ele><time>2026-03-28T10:01:55Z</time></trkpt><trkpt lat="36.72534033282971" lon="-4.540794451612846"><ele>26.0</ele><time>2026-03-28T10:01:56Z</time></trkpt><trkpt lat="36.725413130092576" lon="-4.540901933648858"><ele>26.0</ele><time>2026-03-28T10:01:57Z</time></trkpt><trkpt lat="36.725454367191524" lon="-4.54096284753388"><ele>25.999999999999996</ele><time>2026-03-28T10:01:58Z</time></trkpt><trkpt lat="36.725512394753" lon="-4.541048563649354"><ele>26.0</ele><time>2026-03-28T10:01:59Z</time></trkpt><trkpt lat="36.72556947643327" lon="-4.541132882547898"><ele>25.999999999999996</ele><time>2026-03-28T10:02:00Z</time></trkpt><trkpt lat="36.72562276493645" lon="-4.541210838071681"><ele>26.0</ele><time>2026-03-28T10:02:01Z</time></trkpt><trkpt lat="36.72567916586082" lon="-4.541292695357452"><ele>26.0</ele><time>2026-03-28T10:02:02Z</time></trkpt><trkpt lat="36.72573570612696" lon="-4.541374754877126"><ele>26.0</ele><time>2026-03-28T10:02:03Z</time></trkpt><trkpt lat="36.72578924164266" lon="-4.541451530465022"><ele>25.999999999999996</ele><time>2026-03-28T10:02:04Z</time></trkpt><trkpt lat="36.72584600450939" lon="-4.541532533871421"><ele>26.0</ele><time>2026-03-28T10:02:05Z</time></trkpt><trkpt lat="36.72590379501964" lon="-4.541615003778957"><ele>26.166666666666664</ele><time>2026-03-28T10:02:06Z</time></trkpt><trkpt lat="36.72596159047853" lon="-4.541697786368646"><ele>26.333333333333332</ele><time>2026-03-28T10:02:07Z</time></trkpt><trkpt lat="36.72601906047303" lon="-4.541780181632685"><ele>26.5</ele><time>2026-03-28T10:02:08Z</time></trkpt><trkpt lat="36.72607250282923" lon="-4.541856802437274"><ele>26.666666666666664</ele><time>2026-03-28T10:02:09Z</time></trkpt><trkpt lat="36.72612609906759" lon="-4.541933643864968"><ele>26.833333333333332</ele><time>2026-03-28T10:02:10Z</time></trkpt><trkpt lat="36.726182190762984" lon="-4.54201406303735"><ele>27.0</ele><time>2026-03-28T10:02:11Z</time></trkpt><trkpt lat="36.726236774905864" lon="-4.542093498917011"><ele>27.833333333333332</ele><time>2026-03-28T10:02:12Z</time></trkpt><trkpt lat="36.726293282816165" lon="-4.542175391633752"><ele>28.666666666666664</ele><time>2026-03-28T10:02:13Z</time></trkpt><trkpt lat="36.72633511338469" lon="-4.542262641357025"><ele>29.5</ele><time>2026-03-28T10:02:14Z</time></trkpt><trkpt lat="36.72639139345783" lon="-4.542340774169728"><ele>30.333333333333332</ele><time>2026-03-28T10:02:15Z</time></trkpt><trkpt lat="36.72645824942957" lon="-4.5424144654886005"><ele>31.166666666666664</ele><time>2026-03-28T10:02:16Z</time></trkpt><trkpt lat="36.72651299635809" lon="-4.542493806143402"><ele>32.0</ele><time>2026-03-28T10:02:17Z</time></trkpt><trkpt lat="36.72655949422814" lon="-4.542561192049102"><ele>32.0</ele><time>2026-03-28T10:02:18Z</time></trkpt><trkpt lat="36.72660347902054" lon="-4.5426249359370505"><ele>32.0</ele><time>2026-03-28T10:02:19Z</time></trkpt><trkpt lat="36.72666598983761" lon="-4.542743059614064"><ele>32.0</ele><time>2026-03-28T10:02:21Z</time></trkpt><trkpt lat="36.72674977447959" lon="-4.542839740672524"><ele>32.0</ele><time>2026-03-28T10:02:23Z</time></trkpt><trkpt lat="36.72682181891075" lon="-4.542947332982501"><ele>32.0</ele><time>2026-03-28T10:02:25Z</time></trkpt><trkpt lat="36.7268843577172" lon="-4.543042136248802"><ele>32.2</ele><time>2026-03-28T10:02:27Z</time></trkpt><trkpt lat="36.72693417520236" lon="-4.543150053362956"><ele>32.400000000000006</ele><time>2026-03-28T10:02:29Z</time></trkpt><trkpt lat="36.727001882530026" lon="-4.543220618826594"><ele>32.599999999999994</ele><time>2026-03-28T10:02:30.999Z</time></trkpt><trkpt lat="36.72706797026309" lon="-4.543320984943024"><ele>32.8</ele><time>2026-03-28T10:02:32.999Z</time></trkpt><trkpt lat="36.72712622474851" lon="-4.543410723895032"><ele>33.0</ele><time>2026-03-28T10:02:34.999Z</time></trkpt><trkpt lat="36.72719319378208" lon="-4.543514846736379"><ele>33.0</ele><time>2026-03-28T10:02:36.999Z</time></trkpt><trkpt lat="36.72726845587147" lon="-4.543631863542487"><ele>33.0</ele><time>2026-03-28T10:02:38.999Z</time></trkpt><trkpt lat="36.72731260894868" lon="-4.543700512340229"><ele>33.0</ele><time>2026-03-28T10:02:39.999Z</time></trkpt><trkpt lat="36.72736023397938" lon="-4.543776529952452"><ele>33.0</ele><time>2026-03-28T10:02:40.999Z</time></trkpt><trkpt lat="36.72741029308289" lon="-4.5438556704606"><ele>33.0</ele><time>2026-03-28T10:02:41.999Z</time></trkpt><trkpt lat="36.72746063330505" lon="-4.543937594385739"><ele>33.0</ele><time>2026-03-28T10:02:42.999Z</time></trkpt><trkpt lat="36.72750802128808" lon="-4.544015447333415"><ele>33.166666666666664</ele><time>2026-03-28T10:02:43.999Z</time></trkpt><trkpt lat="36.727574944231414" lon="-4.54412773738884"><ele>33.333333333333336</ele><time>2026-03-28T10:02:45.999Z</time></trkpt><trkpt lat="36.727618075875355" lon="-4.54420060246473"><ele>33.5</ele><time>2026-03-28T10:02:47.999Z</time></trkpt><trkpt lat="36.727659138867516" lon="-4.544270157775895"><ele>33.66666666666667</ele><time>2026-03-28T10:03:24Z</time></trkpt><trkpt lat="36.72771122926107" lon="-4.544358392070953"><ele>33.833333333333336</ele><time>2026-03-28T10:03:26Z</time></trkpt><trkpt lat="36.7277528404005" lon="-4.544428875871175"><ele>34.0</ele><time>2026-03-28T10:03:27Z</time></trkpt><trkpt lat="36.72778864979208" lon="-4.544511956498001"><ele>34.333333333333336</ele><time>2026-03-28T10:03:28Z</time></trkpt><trkpt lat="36.72783703731938" lon="-4.5446017889721375"><ele>34.66666666666667</ele><time>2026-03-28T10:03:29Z</time></trkpt><trkpt lat="36.72788404945108" lon="-4.544685134868716"><ele>35.0</ele><time>2026-03-28T10:03:30Z</time></trkpt><trkpt lat="36.727933742605714" lon="-4.544768432705617"><ele>35.333333333333336</ele><time>2026-03-28T10:03:31Z</time></trkpt><trkpt lat="36.72798495549222" lon="-4.544851005668373"><ele>35.666666666666664</ele><time>2026-03-28T10:03:32Z</time></trkpt><trkpt lat="36.72805288471936" lon="-4.544917693021496"><ele>36.0</ele><time>2026-03-28T10:03:33Z</time></trkpt><trkpt lat="36.72810678386766" lon="-4.545003155135244"><ele>36.0</ele><time>2026-03-28T10:03:34Z</time></trkpt><trkpt lat="36.728161740062056" lon="-4.545091373993375"><ele>36.0</ele><time>2026-03-28T10:03:35Z</time></trkpt><trkpt lat="36.72821820501355" lon="-4.54518323441956"><ele>36.0</ele><time>2026-03-28T10:03:36Z</time></trkpt><trkpt lat="36.72827615604503" lon="-4.545278676612635"><ele>36.0</ele><time>2026-03-28T10:03:37Z</time></trkpt><trkpt lat="36.728316339718205" lon="-4.545388747472103"><ele>36.0</ele><time>2026-03-28T10:03:38Z</time></trkpt><trkpt lat="36.72836776870247" lon="-4.545488957971142"><ele>36.6</ele><time>2026-03-28T10:03:39Z</time></trkpt><trkpt lat="36.72842286855148" lon="-4.545586163318964"><ele>37.2</ele><time>2026-03-28T10:03:40Z</time></trkpt><trkpt lat="36.728478251838574" lon="-4.545682730172133"><ele>37.8</ele><time>2026-03-28T10:03:41Z</time></trkpt><trkpt lat="36.72853030370405" lon="-4.5457784184147005"><ele>38.4</ele><time>2026-03-28T10:03:42Z</time></trkpt><trkpt lat="36.72858194120669" lon="-4.545873327129091"><ele>39.0</ele><time>2026-03-28T10:03:43Z</time></trkpt><trkpt lat="36.728631360517134" lon="-4.5459645847687"><ele>39.0</ele><time>2026-03-28T10:03:44Z</time></trkpt><trkpt lat="36.72867357188265" lon="-4.546047367254058"><ele>39.0</ele><time>2026-03-28T10:03:45Z</time></trkpt><trkpt lat="36.72871080444774" lon="-4.546123566079303"><ele>39.0</ele><time>2026-03-28T10:03:46Z</time></trkpt><trkpt lat="36.72877543821324" lon="-4.54625516870349"><ele>39.0</ele><time>2026-03-28T10:03:48Z</time></trkpt><trkpt lat="36.72880895340981" lon="-4.546334872559429"><ele>39.0</ele><time>2026-03-28T10:03:49Z</time></trkpt><trkpt lat="36.728867950668906" lon="-4.546388385896994"><ele>39.0</ele><time>2026-03-28T10:03:50Z</time></trkpt><trkpt lat="36.72888717462601" lon="-4.546482851857052"><ele>39.666666666666664</ele><time>2026-03-28T10:03:51Z</time></trkpt><trkpt lat="36.72892491927962" lon="-4.5465674880988445"><ele>40.333333333333336</ele><time>2026-03-28T10:03:52Z</time></trkpt><trkpt lat="36.72896433295351" lon="-4.546658701349183"><ele>41.0</ele><time>2026-03-28T10:03:53Z</time></trkpt><trkpt lat="36.72901116088202" lon="-4.546753997394786"><ele>41.66666666666667</ele><time>2026-03-28T10:03:54Z</time></trkpt><trkpt lat="36.72905824000223" lon="-4.5468457082410305"><ele>42.333333333333336</ele><time>2026-03-28T10:03:55Z</time></trkpt><trkpt lat="36.72910113450511" lon="-4.546943798878216"><ele>43.0</ele><time>2026-03-28T10:03:56Z</time></trkpt><trkpt lat="36.72914557862003" lon="-4.547039120237099"><ele>43.66666666666667</ele><time>2026-03-28T10:03:57Z</time></trkpt><trkpt lat="36.72920056187679" lon="-4.547127616037406"><ele>44.333333333333336</ele><time>2026-03-28T10:03:58Z</time></trkpt><trkpt lat="36.729251028191996" lon="-4.547221822099658"><ele>45.0</ele><time>2026-03-28T10:03:59Z</time></trkpt><trkpt lat="36.72931851155986" lon="-4.54730118799548"><ele>45.666666666666664</ele><time>2026-03-28T10:04:00Z</time></trkpt><trkpt lat="36.72936204411755" lon="-4.547390927270411"><ele>46.33333333333333</ele><time>2026-03-28T10:04:01Z</time></trkpt><trkpt lat="36.729387532151556" lon="-4.547485753910193"><ele>47.0</ele><time>2026-03-28T10:04:02Z</time></trkpt><trkpt lat="36.72942600241172" lon="-4.547562378376142"><ele>47.0</ele><time>2026-03-28T10:04:03Z</time></trkpt><trkpt lat="36.72946517145465" lon="-4.547637302860559"><ele>47.0</ele><time>2026-03-28T10:04:04Z</time></trkpt><trkpt lat="36.72950640146603" lon="-4.547713843697101"><ele>47.0</ele><time>2026-03-28T10:04:05Z</time></trkpt><trkpt lat="36.72955002281046" lon="-4.547796912793455"><ele>47.0</ele><time>2026-03-28T10:04:06Z</time></trkpt><trkpt lat="36.729600225763065" lon="-4.547880175761442"><ele>47.0</ele><time>2026-03-28T10:04:07Z</time></trkpt><trkpt lat="36.72964689858666" lon="-4.54797704219489"><ele>47.0</ele><time>2026-03-28T10:04:08Z</time></trkpt><trkpt lat="36.729690100864914" lon="-4.548074266820952"><ele>47.166666666666664</ele><time>2026-03-28T10:04:09Z</time></trkpt><trkpt lat="36.729734965775535" lon="-4.548172922904745"><ele>47.33333333333333</ele><time>2026-03-28T10:04:10Z</time></trkpt><trkpt lat="36.729780803800004" lon="-4.548262908771267"><ele>47.5</ele><time>2026-03-28T10:04:11Z</time></trkpt><trkpt lat="36.72982804923837" lon="-4.548356939537663"><ele>47.666666666666664</ele><time>2026-03-28T10:04:12Z</time></trkpt><trkpt lat="36.72989643667984" lon="-4.548428537840853"><ele>47.833333333333336</ele><time>2026-03-28T10:04:13Z</time></trkpt><trkpt lat="36.72994309703862" lon="-4.548519637722909"><ele>48.0</ele><time>2026-03-28T10:04:14Z</time></trkpt><trkpt lat="36.72999053701779" lon="-4.548610832761202"><ele>48.0</ele><time>2026-03-28T10:04:15Z</time></trkpt><trkpt lat="36.73003926634581" lon="-4.548704506343817"><ele>48.0</ele><time>2026-03-28T10:04:16Z</time></trkpt><trkpt lat="36.73008843652104" lon="-4.548799027378323"><ele>48.0</ele><time>2026-03-28T10:04:17Z</time></trkpt><trkpt lat="36.730142193206404" lon="-4.5488920329639875"><ele>48.0</ele><time>2026-03-28T10:04:18Z</time></trkpt><trkpt lat="36.730195342819" lon="-4.548982980575837"><ele>48.0</ele><time>2026-03-28T10:04:19Z</time></trkpt><trkpt lat="36.73025305750026" lon="-4.549078532813293"><ele>46.8</ele><time>2026-03-28T10:04:20Z</time></trkpt><trkpt lat="36.730313645921974" lon="-4.549179692212059"><ele>45.599999999999994</ele><time>2026-03-28T10:04:21Z</time></trkpt><trkpt lat="36.730372597556986" lon="-4.5492777338044"><ele>44.400000000000006</ele><time>2026-03-28T10:04:22Z</time></trkpt><trkpt lat="36.73042188186104" lon="-4.549386252376715"><ele>43.2</ele><time>2026-03-28T10:04:23Z</time></trkpt><trkpt lat="36.73048541446616" lon="-4.5494827573265875"><ele>42.0</ele><time>2026-03-28T10:04:24Z</time></trkpt><trkpt lat="36.730547039887554" lon="-4.549572834490694"><ele>42.0</ele><time>2026-03-28T10:04:25Z</time></trkpt><trkpt lat="36.73060670517017" lon="-4.549662959633981"><ele>42.0</ele><time>2026-03-28T10:04:26Z</time></trkpt><trkpt lat="36.73067108189283" lon="-4.549754920692177"><ele>42.0</ele><time>2026-03-28T10:04:27Z</time></trkpt><trkpt lat="36.730736828844684" lon="-4.549844471795323"><ele>42.0</ele><time>2026-03-28T10:04:28Z</time></trkpt><trkpt lat="36.7307983402553" lon="-4.549928905536791"><ele>42.0</ele><time>2026-03-28T10:04:29Z</time></trkpt><trkpt lat="36.7308532013367" lon="-4.550012398903173"><ele>42.0</ele><time>2026-03-28T10:04:30Z</time></trkpt><trkpt lat="36.73090934593404" lon="-4.550088566351503"><ele>42.0</ele><time>2026-03-28T10:04:31Z</time></trkpt><trkpt lat="36.730971711466424" lon="-4.550155620603739"><ele>42.0</ele><time>2026-03-28T10:04:32Z</time></trkpt><trkpt lat="36.731041216931985" lon="-4.550203066350476"><ele>42.0</ele><time>2026-03-28T10:04:34Z</time></trkpt><trkpt lat="36.73111709131022" lon="-4.550232414669595"><ele>42.0</ele><time>2026-03-28T10:04:36Z</time></trkpt><trkpt lat="36.73124488255518" lon="-4.550274612339278"><ele>42.833333333333336</ele><time>2026-03-28T10:04:38Z</time></trkpt><trkpt lat="36.731314527229195" lon="-4.550324337714495"><ele>43.666666666666664</ele><time>2026-03-28T10:04:39Z</time></trkpt><trkpt lat="36.73137456970397" lon="-4.550397195475058"><ele>44.5</ele><time>2026-03-28T10:04:40Z</time></trkpt><trkpt lat="36.731420436012876" lon="-4.5504861652889845"><ele>45.33333333333333</ele><time>2026-03-28T10:04:41Z</time></trkpt><trkpt lat="36.73143728435201" lon="-4.5505906389803235"><ele>46.166666666666664</ele><time>2026-03-28T10:04:42Z</time></trkpt><trkpt lat="36.73142174404375" lon="-4.55069759940009"><ele>47.0</ele><time>2026-03-28T10:04:42.999Z</time></trkpt><trkpt lat="36.73139313917323" lon="-4.5508024955094175"><ele>47.0</ele><time>2026-03-28T10:04:43.999Z</time></trkpt><trkpt lat="36.7313720230027" lon="-4.550906211075987"><ele>47.0</ele><time>2026-03-28T10:04:44.999Z</time></trkpt><trkpt lat="36.73138448684909" lon="-4.551013677075744"><ele>47.0</ele><time>2026-03-28T10:04:45.999Z</time></trkpt><trkpt lat="36.73143671253302" lon="-4.551111751015262"><ele>47.0</ele><time>2026-03-28T10:04:46.999Z</time></trkpt><trkpt lat="36.73149632338357" lon="-4.551229695389572"><ele>47.0</ele><time>2026-03-28T10:04:47.999Z</time></trkpt><trkpt lat="36.73155246202805" lon="-4.55137167144947"><ele>46.5</ele><time>2026-03-28T10:04:48.999Z</time></trkpt><trkpt lat="36.73162231950009" lon="-4.551505776173529"><ele>46.0</ele><time>2026-03-28T10:04:49.999Z</time></trkpt><trkpt lat="36.73168830803872" lon="-4.551646544418765"><ele>45.5</ele><time>2026-03-28T10:04:50.999Z</time></trkpt><trkpt lat="36.731756828536284" lon="-4.551800670480775"><ele>45.0</ele><time>2026-03-28T10:04:51.999Z</time></trkpt><trkpt lat="36.731844519878855" lon="-4.55195309537973"><ele>46.0</ele><time>2026-03-28T10:04:52.999Z</time></trkpt><trkpt lat="36.73191480619843" lon="-4.5521085282306375"><ele>47.0</ele><time>2026-03-28T10:04:53.999Z</time></trkpt><trkpt lat="36.73198274213218" lon="-4.552268553438174"><ele>48.0</ele><time>2026-03-28T10:04:54.999Z</time></trkpt><trkpt lat="36.73205016674181" lon="-4.552430884244392"><ele>49.0</ele><time>2026-03-28T10:04:55.999Z</time></trkpt><trkpt lat="36.732114120476616" lon="-4.552595866709504"><ele>49.0</ele><time>2026-03-28T10:04:56.999Z</time></trkpt><trkpt lat="36.73217331348276" lon="-4.552764044486026"><ele>49.0</ele><time>2026-03-28T10:04:57.999Z</time></trkpt><trkpt lat="36.73223068409182" lon="-4.552939624816417"><ele>49.0</ele><time>2026-03-28T10:04:58.999Z</time></trkpt><trkpt lat="36.73228487704603" lon="-4.553117993789295"><ele>48.0</ele><time>2026-03-28T10:04:59.999Z</time></trkpt><trkpt lat="36.73233752875724" lon="-4.553299959089025"><ele>47.0</ele><time>2026-03-28T10:05:00.999Z</time></trkpt><trkpt lat="36.732386769577566" lon="-4.553486222322604"><ele>46.0</ele><time>2026-03-28T10:05:01.999Z</time></trkpt><trkpt lat="36.73243383221344" lon="-4.553680498404618"><ele>44.66666666666667</ele><time>2026-03-28T10:05:02.999Z</time></trkpt><trkpt lat="36.732476534037254" lon="-4.55387785065374"><ele>43.333333333333336</ele><time>2026-03-28T10:05:03.999Z</time></trkpt><trkpt lat="36.73251365168022" lon="-4.554081592248956"><ele>42.0</ele><time>2026-03-28T10:05:04.999Z</time></trkpt><trkpt lat="36.73254532086734" lon="-4.554292598007092"><ele>42.0</ele><time>2026-03-28T10:05:05.999Z</time></trkpt><trkpt lat="36.73257165906576" lon="-4.55450894410345"><ele>42.0</ele><time>2026-03-28T10:05:06.999Z</time></trkpt><trkpt lat="36.73259209656852" lon="-4.554722283729476"><ele>42.0</ele><time>2026-03-28T10:05:07.999Z</time></trkpt><trkpt lat="36.73260966530538" lon="-4.554941410080259"><ele>42.0</ele><time>2026-03-28T10:05:08.999Z</time></trkpt><trkpt lat="36.732621488559126" lon="-4.555160286912182"><ele>42.0</ele><time>2026-03-28T10:05:09.999Z</time></trkpt><trkpt lat="36.732614084325014" lon="-4.555378729909302"><ele>42.0</ele><time>2026-03-28T10:05:10.999Z</time></trkpt><trkpt lat="36.73262132350588" lon="-4.555593773097138"><ele>43.0</ele><time>2026-03-28T10:05:11.999Z</time></trkpt><trkpt lat="36.73262759490404" lon="-4.555807136593388"><ele>44.0</ele><time>2026-03-28T10:05:12.999Z</time></trkpt><trkpt lat="36.73262980509112" lon="-4.556015552456451"><ele>45.0</ele><time>2026-03-28T10:05:13.999Z</time></trkpt><trkpt lat="36.73262958581108" lon="-4.556222582593867"><ele>45.333333333333336</ele><time>2026-03-28T10:05:14.999Z</time></trkpt><trkpt lat="36.732628699505575" lon="-4.5564283776421455"><ele>45.66666666666667</ele><time>2026-03-28T10:05:15.999Z</time></trkpt><trkpt lat="36.73262710929546" lon="-4.556636103439474"><ele>46.0</ele><time>2026-03-28T10:05:16.999Z</time></trkpt><trkpt lat="36.73262721733008" lon="-4.556843471852402"><ele>46.333333333333336</ele><time>2026-03-28T10:05:17.999Z</time></trkpt><trkpt lat="36.73262761337218" lon="-4.557050027809665"><ele>46.666666666666664</ele><time>2026-03-28T10:05:18.999Z</time></trkpt><trkpt lat="36.7326276207018" lon="-4.5572569882966985"><ele>47.0</ele><time>2026-03-28T10:05:19.999Z</time></trkpt><trkpt lat="36.73262645553034" lon="-4.557463357524135"><ele>47.0</ele><time>2026-03-28T10:05:21Z</time></trkpt><trkpt lat="36.7326254430433" lon="-4.557667966877033"><ele>47.0</ele><time>2026-03-28T10:05:22Z</time></trkpt><trkpt lat="36.73262282126728" lon="-4.557874691299843"><ele>47.0</ele><time>2026-03-28T10:05:23Z</time></trkpt><trkpt lat="36.73262309992409" lon="-4.558081233086538"><ele>47.666666666666664</ele><time>2026-03-28T10:05:24Z</time></trkpt><trkpt lat="36.73262354670879" lon="-4.5582837622588634"><ele>48.33333333333333</ele><time>2026-03-28T10:05:25Z</time></trkpt><trkpt lat="36.732624097175425" lon="-4.5584867982516215"><ele>49.0</ele><time>2026-03-28T10:05:26Z</time></trkpt><trkpt lat="36.73262547383433" lon="-4.558691292099671"><ele>49.5</ele><time>2026-03-28T10:05:27Z</time></trkpt><trkpt lat="36.73262738367806" lon="-4.5588830142206715"><ele>50.0</ele><time>2026-03-28T10:05:28Z</time></trkpt><trkpt lat="36.73262882966688" lon="-4.559068069007766"><ele>50.5</ele><time>2026-03-28T10:05:29Z</time></trkpt><trkpt lat="36.73263184405514" lon="-4.559251520983125"><ele>51.0</ele><time>2026-03-28T10:05:30Z</time></trkpt><trkpt lat="36.732639053345416" lon="-4.5594325543480325"><ele>51.25</ele><time>2026-03-28T10:05:31Z</time></trkpt><trkpt lat="36.73266918207509" lon="-4.559599884851822"><ele>51.5</ele><time>2026-03-28T10:05:32Z</time></trkpt><trkpt lat="36.732690006798215" lon="-4.559767713343701"><ele>51.75</ele><time>2026-03-28T10:05:33Z</time></trkpt><trkpt lat="36.732715791149325" lon="-4.5599264916583095"><ele>52.0</ele><time>2026-03-28T10:05:34Z</time></trkpt><trkpt lat="36.732729253776164" lon="-4.560059707232418"><ele>52.0</ele><time>2026-03-28T10:05:35Z</time></trkpt><trkpt lat="36.73276096257811" lon="-4.560178277184636"><ele>52.0</ele><time>2026-03-28T10:05:36Z</time></trkpt><trkpt lat="36.73279201138378" lon="-4.560293245282915"><ele>52.0</ele><time>2026-03-28T10:05:37Z</time></trkpt><trkpt lat="36.73282488773287" lon="-4.5603968687348315"><ele>52.0</ele><time>2026-03-28T10:05:38Z</time></trkpt><trkpt lat="36.7328570197002" lon="-4.560492379977734"><ele>52.0</ele><time>2026-03-28T10:05:39Z</time></trkpt><trkpt lat="36.73289126353704" lon="-4.560591497945268"><ele>51.8</ele><time>2026-03-28T10:05:40Z</time></trkpt><trkpt lat="36.73293434964347" lon="-4.560693367889207"><ele>51.6</ele><time>2026-03-28T10:05:41Z</time></trkpt><trkpt lat="36.73299477931919" lon="-4.560789230444077"><ele>51.4</ele><time>2026-03-28T10:05:42Z</time></trkpt><trkpt lat="36.73300452128326" lon="-4.560928500143942"><ele>51.199999999999996</ele><time>2026-03-28T10:05:43Z</time></trkpt><trkpt lat="36.7330301238979" lon="-4.561066045821554"><ele>51.0</ele><time>2026-03-28T10:05:44Z</time></trkpt><trkpt lat="36.73306025652656" lon="-4.561213797776966"><ele>50.25</ele><time>2026-03-28T10:05:45Z</time></trkpt><trkpt lat="36.73309577279171" lon="-4.561367427762815"><ele>49.5</ele><time>2026-03-28T10:05:46Z</time></trkpt><trkpt lat="36.733132580248586" lon="-4.561527680956793"><ele>48.75</ele><time>2026-03-28T10:05:47Z</time></trkpt><trkpt lat="36.73316345113976" lon="-4.5616867299740935"><ele>48.0</ele><time>2026-03-28T10:05:48Z</time></trkpt><trkpt lat="36.73318798522092" lon="-4.56184316126359"><ele>48.0</ele><time>2026-03-28T10:05:49Z</time></trkpt><trkpt lat="36.73320795556085" lon="-4.561998162007169"><ele>48.0</ele><time>2026-03-28T10:05:50Z</time></trkpt><trkpt lat="36.733222161319375" lon="-4.562159164838906"><ele>48.0</ele><time>2026-03-28T10:05:51Z</time></trkpt><trkpt lat="36.73323278500535" lon="-4.562323431820345"><ele>48.0</ele><time>2026-03-28T10:05:52Z</time></trkpt><trkpt lat="36.7332433633346" lon="-4.562485063912708"><ele>47.0</ele><time>2026-03-28T10:05:53Z</time></trkpt><trkpt lat="36.7332507647742" lon="-4.562647820683757"><ele>46.0</ele><time>2026-03-28T10:05:54Z</time></trkpt><trkpt lat="36.733259909611725" lon="-4.562810077168236"><ele>45.0</ele><time>2026-03-28T10:05:55Z</time></trkpt><trkpt lat="36.73327138698169" lon="-4.562969685565658"><ele>44.0</ele><time>2026-03-28T10:05:56Z</time></trkpt><trkpt lat="36.73329268686605" lon="-4.56312255731761"><ele>43.5</ele><time>2026-03-28T10:05:57Z</time></trkpt><trkpt lat="36.73328010140028" lon="-4.563278555205888"><ele>43.0</ele><time>2026-03-28T10:05:58Z</time></trkpt><trkpt lat="36.733287708099546" lon="-4.563440748830526"><ele>42.5</ele><time>2026-03-28T10:05:59Z</time></trkpt><trkpt lat="36.73328586223475" lon="-4.563606549113106"><ele>42.0</ele><time>2026-03-28T10:06:00Z</time></trkpt><trkpt lat="36.73328275460557" lon="-4.563775739990513"><ele>42.0</ele><time>2026-03-28T10:06:01Z</time></trkpt><trkpt lat="36.73327259169566" lon="-4.563944902810682"><ele>42.0</ele><time>2026-03-28T10:06:02Z</time></trkpt><trkpt lat="36.73328307478197" lon="-4.564111745405188"><ele>42.0</ele><time>2026-03-28T10:06:03Z</time></trkpt><trkpt lat="36.733279924865634" lon="-4.564280914463794"><ele>42.0</ele><time>2026-03-28T10:06:04Z</time></trkpt><trkpt lat="36.73327542074036" lon="-4.564436891872443"><ele>41.2</ele><time>2026-03-28T10:06:05Z</time></trkpt><trkpt lat="36.733268112347396" lon="-4.564586748797762"><ele>40.400000000000006</ele><time>2026-03-28T10:06:06Z</time></trkpt><trkpt lat="36.733261071665744" lon="-4.564721544829115"><ele>39.599999999999994</ele><time>2026-03-28T10:06:07Z</time></trkpt><trkpt lat="36.733253765948035" lon="-4.564839401925569"><ele>38.8</ele><time>2026-03-28T10:06:08Z</time></trkpt><trkpt lat="36.73324646592609" lon="-4.564940967228981"><ele>38.0</ele><time>2026-03-28T10:06:09Z</time></trkpt><trkpt lat="36.73323689638763" lon="-4.565032508133782"><ele>38.0</ele><time>2026-03-28T10:06:10Z</time></trkpt><trkpt lat="36.73320736353162" lon="-4.565172975123217"><ele>38.0</ele><time>2026-03-28T10:06:12Z</time></trkpt><trkpt lat="36.73320450675052" lon="-4.5653041018619565"><ele>38.0</ele><time>2026-03-28T10:06:14Z</time></trkpt><trkpt lat="36.73323551970757" lon="-4.565463945254348"><ele>38.0</ele><time>2026-03-28T10:06:16Z</time></trkpt><trkpt lat="36.733173347543854" lon="-4.565566994977799"><ele>38.166666666666664</ele><time>2026-03-28T10:06:17Z</time></trkpt><trkpt lat="36.733143583689866" lon="-4.565669159902593"><ele>38.33333333333333</ele><time>2026-03-28T10:06:18Z</time></trkpt><trkpt lat="36.733115270839356" lon="-4.565777606527442"><ele>38.5</ele><time>2026-03-28T10:06:19Z</time></trkpt><trkpt lat="36.73308348732931" lon="-4.565875745237657"><ele>38.666666666666664</ele><time>2026-03-28T10:06:20Z</time></trkpt><trkpt lat="36.73306550364275" lon="-4.565971763738907"><ele>38.833333333333336</ele><time>2026-03-28T10:06:21Z</time></trkpt><trkpt lat="36.733044054638135" lon="-4.566069359925505"><ele>39.0</ele><time>2026-03-28T10:06:22Z</time></trkpt><trkpt lat="36.73302299572738" lon="-4.566150348964089"><ele>39.5</ele><time>2026-03-28T10:06:23Z</time></trkpt><trkpt lat="36.733003702497825" lon="-4.56623500955507"><ele>40.0</ele><time>2026-03-28T10:06:24Z</time></trkpt><trkpt lat="36.73301058291019" lon="-4.566315146616017"><ele>40.5</ele><time>2026-03-28T10:06:25Z</time></trkpt><trkpt lat="36.73297872970383" lon="-4.56644392764074"><ele>41.0</ele><time>2026-03-28T10:06:27Z</time></trkpt><trkpt lat="36.732950195622564" lon="-4.566557332113927"><ele>41.5</ele><time>2026-03-28T10:06:29Z</time></trkpt><trkpt lat="36.73292933821796" lon="-4.566641338330748"><ele>42.0</ele><time>2026-03-28T10:06:31Z</time></trkpt><trkpt lat="36.73291039276777" lon="-4.566719175968175"><ele>42.0</ele><time>2026-03-28T10:06:34.999Z</time></trkpt><trkpt lat="36.73288697169165" lon="-4.566816448982166"><ele>42.0</ele><time>2026-03-28T10:06:39.999Z</time></trkpt><trkpt lat="36.732869177102835" lon="-4.566892370228413"><ele>42.0</ele><time>2026-03-28T10:06:40.999Z</time></trkpt><trkpt lat="36.73284874273379" lon="-4.56698166320358"><ele>42.0</ele><time>2026-03-28T10:06:41.999Z</time></trkpt><trkpt lat="36.73282798231824" lon="-4.567080757512466"><ele>42.0</ele><time>2026-03-28T10:06:42.999Z</time></trkpt><trkpt lat="36.732808698666" lon="-4.567194958592975"><ele>42.0</ele><time>2026-03-28T10:06:43.999Z</time></trkpt><trkpt lat="36.73279234632934" lon="-4.5673099634366"><ele>41.75</ele><time>2026-03-28T10:06:44.999Z</time></trkpt><trkpt lat="36.732777188377945" lon="-4.5674351103749276"><ele>41.5</ele><time>2026-03-28T10:06:45.999Z</time></trkpt><trkpt lat="36.73276491301276" lon="-4.56757372869189"><ele>41.25</ele><time>2026-03-28T10:06:46.999Z</time></trkpt><trkpt lat="36.732762064193835" lon="-4.567725746491506"><ele>41.0</ele><time>2026-03-28T10:06:47.999Z</time></trkpt><trkpt lat="36.732763131945276" lon="-4.567882803421891"><ele>41.0</ele><time>2026-03-28T10:06:48.999Z</time></trkpt><trkpt lat="36.73276694743817" lon="-4.568047255976112"><ele>41.0</ele><time>2026-03-28T10:06:49.999Z</time></trkpt><trkpt lat="36.73277212656155" lon="-4.568217131552137"><ele>41.0</ele><time>2026-03-28T10:06:50.999Z</time></trkpt><trkpt lat="36.732778738402146" lon="-4.56838372989374"><ele>41.0</ele><time>2026-03-28T10:06:51.999Z</time></trkpt><trkpt lat="36.732785628965395" lon="-4.568551380036124"><ele>39.75</ele><time>2026-03-28T10:06:52.999Z</time></trkpt><trkpt lat="36.73279376854906" lon="-4.568725499625139"><ele>38.5</ele><time>2026-03-28T10:06:53.999Z</time></trkpt><trkpt lat="36.732801359999655" lon="-4.568899263259911"><ele>37.25</ele><time>2026-03-28T10:06:54.999Z</time></trkpt><trkpt lat="36.73280900739513" lon="-4.569075169688238"><ele>36.0</ele><time>2026-03-28T10:06:55.999Z</time></trkpt><trkpt lat="36.732816818491386" lon="-4.569254841594738"><ele>36.0</ele><time>2026-03-28T10:06:56.999Z</time></trkpt><trkpt lat="36.73282374627169" lon="-4.569436701679019"><ele>36.0</ele><time>2026-03-28T10:06:57.999Z</time></trkpt><trkpt lat="36.73283193261324" lon="-4.5696154383397305"><ele>36.0</ele><time>2026-03-28T10:06:58.999Z</time></trkpt><trkpt lat="36.73284016738614" lon="-4.569797724904277"><ele>36.0</ele><time>2026-03-28T10:06:59.999Z</time></trkpt><trkpt lat="36.73284844501169" lon="-4.56998175852163"><ele>35.75</ele><time>2026-03-28T10:07:00.999Z</time></trkpt><trkpt lat="36.732856611056526" lon="-4.5701633113908535"><ele>35.5</ele><time>2026-03-28T10:07:01.999Z</time></trkpt><trkpt lat="36.732864790500344" lon="-4.570350368436736"><ele>35.25</ele><time>2026-03-28T10:07:02.999Z</time></trkpt><trkpt lat="36.732872765007144" lon="-4.570526316130617"><ele>35.0</ele><time>2026-03-28T10:07:03.999Z</time></trkpt><trkpt lat="36.732885858355885" lon="-4.570710398687963"><ele>35.0</ele><time>2026-03-28T10:07:04.999Z</time></trkpt><trkpt lat="36.73290357701316" lon="-4.570889655453134"><ele>35.0</ele><time>2026-03-28T10:07:05.999Z</time></trkpt><trkpt lat="36.7329299005936" lon="-4.571062690434114"><ele>35.0</ele><time>2026-03-28T10:07:06.999Z</time></trkpt><trkpt lat="36.73295011453445" lon="-4.57123647066522"><ele>35.0</ele><time>2026-03-28T10:07:07.999Z</time></trkpt><trkpt lat="36.73299159514786" lon="-4.571406443090417"><ele>35.25</ele><time>2026-03-28T10:07:08.999Z</time></trkpt><trkpt lat="36.73305627545832" lon="-4.571568220128894"><ele>35.5</ele><time>2026-03-28T10:07:09.999Z</time></trkpt><trkpt lat="36.73309951966871" lon="-4.57173713123522"><ele>35.75</ele><time>2026-03-28T10:07:10.999Z</time></trkpt><trkpt lat="36.733173121643546" lon="-4.571891087429441"><ele>36.0</ele><time>2026-03-28T10:07:11.999Z</time></trkpt><trkpt lat="36.73322469256789" lon="-4.572057555095883"><ele>36.0</ele><time>2026-03-28T10:07:12.999Z</time></trkpt><trkpt lat="36.733291526002" lon="-4.572218115126229"><ele>36.0</ele><time>2026-03-28T10:07:13.999Z</time></trkpt><trkpt lat="36.73335534626269" lon="-4.572381439853494"><ele>36.0</ele><time>2026-03-28T10:07:14.999Z</time></trkpt><trkpt lat="36.73342115188949" lon="-4.572537499572262"><ele>36.0</ele><time>2026-03-28T10:07:15.999Z</time></trkpt><trkpt lat="36.73348870280162" lon="-4.572704282541446"><ele>37.5</ele><time>2026-03-28T10:07:16.999Z</time></trkpt><trkpt lat="36.73355580785165" lon="-4.572871682019199"><ele>39.0</ele><time>2026-03-28T10:07:17.999Z</time></trkpt><trkpt lat="36.733620153286815" lon="-4.573038704144485"><ele>40.5</ele><time>2026-03-28T10:07:18.999Z</time></trkpt><trkpt lat="36.733681837158464" lon="-4.573205964461333"><ele>42.0</ele><time>2026-03-28T10:07:19.999Z</time></trkpt><trkpt lat="36.73373766278188" lon="-4.573377459428416"><ele>42.0</ele><time>2026-03-28T10:07:20.999Z</time></trkpt><trkpt lat="36.733791528495644" lon="-4.573547144874737"><ele>42.0</ele><time>2026-03-28T10:07:21.999Z</time></trkpt><trkpt lat="36.733846020122066" lon="-4.573720112883684"><ele>42.0</ele><time>2026-03-28T10:07:22.999Z</time></trkpt><trkpt lat="36.73389858401784" lon="-4.573892333313475"><ele>42.0</ele><time>2026-03-28T10:07:23.999Z</time></trkpt><trkpt lat="36.733947814405674" lon="-4.5740632885564985"><ele>42.0</ele><time>2026-03-28T10:07:24.999Z</time></trkpt><trkpt lat="36.73399144289929" lon="-4.574224876596513"><ele>42.0</ele><time>2026-03-28T10:07:25.999Z</time></trkpt><trkpt lat="36.73403104656056" lon="-4.574381450735891"><ele>42.0</ele><time>2026-03-28T10:07:27Z</time></trkpt><trkpt lat="36.734064206990205" lon="-4.574542774660518"><ele>42.0</ele><time>2026-03-28T10:07:28Z</time></trkpt><trkpt lat="36.73408662204174" lon="-4.574703275414522"><ele>42.0</ele><time>2026-03-28T10:07:29Z</time></trkpt><trkpt lat="36.73411326086987" lon="-4.574855760125182"><ele>42.0</ele><time>2026-03-28T10:07:30Z</time></trkpt><trkpt lat="36.73411744507197" lon="-4.575001643506504"><ele>42.0</ele><time>2026-03-28T10:07:31Z</time></trkpt><trkpt lat="36.73411562804051" lon="-4.57513303374914"><ele>42.0</ele><time>2026-03-28T10:07:32Z</time></trkpt><trkpt lat="36.734110071746095" lon="-4.575253040942891"><ele>42.0</ele><time>2026-03-28T10:07:33Z</time></trkpt><trkpt lat="36.734094215253336" lon="-4.575354612131019"><ele>41.42857142857143</ele><time>2026-03-28T10:07:34Z</time></trkpt><trkpt lat="36.73410579241394" lon="-4.575449611769034"><ele>40.85714285714286</ele><time>2026-03-28T10:07:35Z</time></trkpt><trkpt lat="36.73414945326145" lon="-4.57552940328649"><ele>40.285714285714285</ele><time>2026-03-28T10:07:36Z</time></trkpt><trkpt lat="36.73414591770291" lon="-4.575617471448209"><ele>39.714285714285715</ele><time>2026-03-28T10:07:37Z</time></trkpt><trkpt lat="36.734170776544005" lon="-4.575705146472467"><ele>39.142857142857146</ele><time>2026-03-28T10:07:38Z</time></trkpt><trkpt lat="36.73419529733985" lon="-4.5757959085385655"><ele>38.57142857142857</ele><time>2026-03-28T10:07:39Z</time></trkpt><trkpt lat="36.73422142602443" lon="-4.57587885478786"><ele>38.0</ele><time>2026-03-28T10:07:40Z</time></trkpt><trkpt lat="36.73424256362175" lon="-4.575956175611093"><ele>38.0</ele><time>2026-03-28T10:07:41Z</time></trkpt><trkpt lat="36.7343105743033" lon="-4.576076572383785"><ele>38.0</ele><time>2026-03-28T10:07:43Z</time></trkpt><trkpt lat="36.73437013037794" lon="-4.576196389171772"><ele>38.0</ele><time>2026-03-28T10:07:45Z</time></trkpt><trkpt lat="36.73441371019981" lon="-4.576263321185026"><ele>38.0</ele><time>2026-03-28T10:07:46Z</time></trkpt><trkpt lat="36.734470240147544" lon="-4.576318903785833"><ele>38.0</ele><time>2026-03-28T10:07:47Z</time></trkpt><trkpt lat="36.73453727955618" lon="-4.576369077177919"><ele>37.714285714285715</ele><time>2026-03-28T10:07:48Z</time></trkpt><trkpt lat="36.734603200908154" lon="-4.576401790163157"><ele>37.42857142857143</ele><time>2026-03-28T10:07:49Z</time></trkpt><trkpt lat="36.73466955312183" lon="-4.576416144540182"><ele>37.142857142857146</ele><time>2026-03-28T10:07:50Z</time></trkpt><trkpt lat="36.734743981825936" lon="-4.576428104897085"><ele>36.85714285714286</ele><time>2026-03-28T10:07:51Z</time></trkpt><trkpt lat="36.73481512676724" lon="-4.576410537751924"><ele>36.57142857142857</ele><time>2026-03-28T10:07:52Z</time></trkpt><trkpt lat="36.73488670799729" lon="-4.576392781261223"><ele>36.28571428571429</ele><time>2026-03-28T10:07:53Z</time></trkpt><trkpt lat="36.73495886673991" lon="-4.576376328538067"><ele>36.0</ele><time>2026-03-28T10:07:54Z</time></trkpt><trkpt lat="36.73503274287833" lon="-4.576361893585234"><ele>36.0</ele><time>2026-03-28T10:07:55Z</time></trkpt><trkpt lat="36.73511308150224" lon="-4.576351944532857"><ele>36.0</ele><time>2026-03-28T10:07:56Z</time></trkpt><trkpt lat="36.73518981849258" lon="-4.576350559462493"><ele>36.0</ele><time>2026-03-28T10:07:57Z</time></trkpt><trkpt lat="36.73527687718189" lon="-4.576354931325554"><ele>36.0</ele><time>2026-03-28T10:07:58Z</time></trkpt><trkpt lat="36.735369366089934" lon="-4.5763693205094"><ele>36.0</ele><time>2026-03-28T10:07:59Z</time></trkpt><trkpt lat="36.73546681320414" lon="-4.5763814532725435"><ele>36.0</ele><time>2026-03-28T10:08:00Z</time></trkpt><trkpt lat="36.73556771033101" lon="-4.5763961807767055"><ele>38.0</ele><time>2026-03-28T10:08:01Z</time></trkpt><trkpt lat="36.735678788610365" lon="-4.576409486276541"><ele>40.0</ele><time>2026-03-28T10:08:02Z</time></trkpt><trkpt lat="36.735793866259726" lon="-4.576392232534003"><ele>42.0</ele><time>2026-03-28T10:08:03Z</time></trkpt><trkpt lat="36.73591255358417" lon="-4.576372825617813"><ele>44.0</ele><time>2026-03-28T10:08:04Z</time></trkpt><trkpt lat="36.736035568807395" lon="-4.576356522117136"><ele>44.75</ele><time>2026-03-28T10:08:05Z</time></trkpt><trkpt lat="36.736155014709475" lon="-4.576346831491962"><ele>45.5</ele><time>2026-03-28T10:08:06Z</time></trkpt><trkpt lat="36.73626873719688" lon="-4.576366703839191"><ele>46.25</ele><time>2026-03-28T10:08:07Z</time></trkpt><trkpt lat="36.73638001689928" lon="-4.576367773617148"><ele>47.0</ele><time>2026-03-28T10:08:08Z</time></trkpt><trkpt lat="36.736478001687885" lon="-4.576444625185529"><ele>47.0</ele><time>2026-03-28T10:08:09Z</time></trkpt><trkpt lat="36.73656899615559" lon="-4.576509545255689"><ele>47.0</ele><time>2026-03-28T10:08:10Z</time></trkpt><trkpt lat="36.73667142770663" lon="-4.576539816933926"><ele>47.0</ele><time>2026-03-28T10:08:11Z</time></trkpt><trkpt lat="36.73676540269625" lon="-4.576537440830967"><ele>47.0</ele><time>2026-03-28T10:08:12Z</time></trkpt><trkpt lat="36.73686577356608" lon="-4.5765431135420895"><ele>47.0</ele><time>2026-03-28T10:08:13Z</time></trkpt><trkpt lat="36.736955890041564" lon="-4.576547469125438"><ele>47.5</ele><time>2026-03-28T10:08:14Z</time></trkpt><trkpt lat="36.737037991668316" lon="-4.576564118743287"><ele>48.0</ele><time>2026-03-28T10:08:15Z</time></trkpt><trkpt lat="36.737118491040796" lon="-4.576509596119992"><ele>48.5</ele><time>2026-03-28T10:08:16Z</time></trkpt><trkpt lat="36.73717910670861" lon="-4.576439568428634"><ele>49.0</ele><time>2026-03-28T10:08:17Z</time></trkpt><trkpt lat="36.73720519684928" lon="-4.576335132631989"><ele>49.50000000000001</ele><time>2026-03-28T10:08:18Z</time></trkpt><trkpt lat="36.737228488243986" lon="-4.57621543179253"><ele>50.0</ele><time>2026-03-28T10:08:19Z</time></trkpt><trkpt lat="36.73725648881483" lon="-4.576098215497695"><ele>50.0</ele><time>2026-03-28T10:08:20Z</time></trkpt><trkpt lat="36.737283108064844" lon="-4.575987727986374"><ele>50.0</ele><time>2026-03-28T10:08:21Z</time></trkpt><trkpt lat="36.73732495538381" lon="-4.575884650673165"><ele>50.0</ele><time>2026-03-28T10:08:22Z</time></trkpt><trkpt lat="36.737380888126694" lon="-4.575794411718186"><ele>50.0</ele><time>2026-03-28T10:08:23Z</time></trkpt><trkpt lat="36.73745995780048" lon="-4.575725649719539"><ele>50.0</ele><time>2026-03-28T10:08:24Z</time></trkpt><trkpt lat="36.73755085833109" lon="-4.575678314290388"><ele>50.0</ele><time>2026-03-28T10:08:25Z</time></trkpt><trkpt lat="36.7376474352107" lon="-4.5756368012292405"><ele>50.0</ele><time>2026-03-28T10:08:26Z</time></trkpt><trkpt lat="36.73774112809124" lon="-4.575605536697541"><ele>50.0</ele><time>2026-03-28T10:08:27Z</time></trkpt><trkpt lat="36.737831127600536" lon="-4.575570840510674"><ele>50.0</ele><time>2026-03-28T10:08:28Z</time></trkpt><trkpt lat="36.737926810707066" lon="-4.575512415175974"><ele>50.0</ele><time>2026-03-28T10:08:29Z</time></trkpt><trkpt lat="36.73801710892292" lon="-4.57541270455432"><ele>50.5</ele><time>2026-03-28T10:08:30Z</time></trkpt><trkpt lat="36.73811854285422" lon="-4.57532928237273"><ele>51.0</ele><time>2026-03-28T10:08:31Z</time></trkpt><trkpt lat="36.73822333098781" lon="-4.575263209214747"><ele>51.5</ele><time>2026-03-28T10:08:32Z</time></trkpt><trkpt lat="36.73833900072899" lon="-4.575199652918057"><ele>52.0</ele><time>2026-03-28T10:08:33Z</time></trkpt><trkpt lat="36.7384600604991" lon="-4.575147011847804"><ele>54.25</ele><time>2026-03-28T10:08:34Z</time></trkpt><trkpt lat="36.73859077453915" lon="-4.575106076855073"><ele>56.5</ele><time>2026-03-28T10:08:35Z</time></trkpt><trkpt lat="36.73872125639289" lon="-4.575074031529631"><ele>58.75</ele><time>2026-03-28T10:08:36Z</time></trkpt><trkpt lat="36.73883734728158" lon="-4.575050420785203"><ele>61.0</ele><time>2026-03-28T10:08:37Z</time></trkpt><trkpt lat="36.73893863068319" lon="-4.575023278871017"><ele>60.99999999999999</ele><time>2026-03-28T10:08:38Z</time></trkpt><trkpt lat="36.73901994331574" lon="-4.574985596031251"><ele>61.0</ele><time>2026-03-28T10:08:39Z</time></trkpt><trkpt lat="36.739097588177515" lon="-4.574950730099582"><ele>61.0</ele><time>2026-03-28T10:08:40Z</time></trkpt><trkpt lat="36.73915966935529" lon="-4.574913322436683"><ele>61.0</ele><time>2026-03-28T10:08:41Z</time></trkpt><trkpt lat="36.73927865030841" lon="-4.5749012532691244"><ele>60.99999999999999</ele><time>2026-03-28T10:08:43Z</time></trkpt><trkpt lat="36.73935003835433" lon="-4.5749267928014765"><ele>61.0</ele><time>2026-03-28T10:08:44Z</time></trkpt><trkpt lat="36.739429041057214" lon="-4.574944494605938"><ele>63.199999999999996</ele><time>2026-03-28T10:08:45Z</time></trkpt><trkpt lat="36.739517356009415" lon="-4.574959343839703"><ele>65.39999999999999</ele><time>2026-03-28T10:08:46Z</time></trkpt><trkpt lat="36.73960325373412" lon="-4.574988448126734"><ele>67.6</ele><time>2026-03-28T10:08:47Z</time></trkpt><trkpt lat="36.73968448219453" lon="-4.5750502826396415"><ele>69.8</ele><time>2026-03-28T10:08:48Z</time></trkpt><trkpt lat="36.73974580830225" lon="-4.5751456598956235"><ele>72.0</ele><time>2026-03-28T10:08:49Z</time></trkpt><trkpt lat="36.73979964090503" lon="-4.575247825076166"><ele>72.0</ele><time>2026-03-28T10:08:50Z</time></trkpt><trkpt lat="36.739862568463565" lon="-4.575337506952178"><ele>72.0</ele><time>2026-03-28T10:08:51Z</time></trkpt><trkpt lat="36.739942238049984" lon="-4.575391905604712"><ele>72.0</ele><time>2026-03-28T10:08:52Z</time></trkpt><trkpt lat="36.74000304058258" lon="-4.575469092863947"><ele>72.0</ele><time>2026-03-28T10:08:53Z</time></trkpt><trkpt lat="36.740072732085046" lon="-4.575527412487628"><ele>72.0</ele><time>2026-03-28T10:08:54Z</time></trkpt><trkpt lat="36.74013031100117" lon="-4.575574983916559"><ele>72.0</ele><time>2026-03-28T10:08:55Z</time></trkpt><trkpt lat="36.740197925938126" lon="-4.575603085791951"><ele>73.2</ele><time>2026-03-28T10:08:57Z</time></trkpt><trkpt lat="36.74026272007651" lon="-4.575660061963748"><ele>74.4</ele><time>2026-03-28T10:08:59Z</time></trkpt><trkpt lat="36.74036784110184" lon="-4.575748136990071"><ele>75.6</ele><time>2026-03-28T10:09:01Z</time></trkpt><trkpt lat="36.74042274966101" lon="-4.57581527192959"><ele>76.8</ele><time>2026-03-28T10:09:02Z</time></trkpt><trkpt lat="36.74049608232634" lon="-4.575872933600274"><ele>78.0</ele><time>2026-03-28T10:09:02.999Z</time></trkpt><trkpt lat="36.740570182706136" lon="-4.575939006624117"><ele>78.0</ele><time>2026-03-28T10:09:03.999Z</time></trkpt><trkpt lat="36.74064526447155" lon="-4.576011126762161"><ele>78.0</ele><time>2026-03-28T10:09:04.999Z</time></trkpt><trkpt lat="36.74073379455588" lon="-4.5760619596558145"><ele>78.0</ele><time>2026-03-28T10:09:05.999Z</time></trkpt><trkpt lat="36.74080114677931" lon="-4.57613699989127"><ele>78.0</ele><time>2026-03-28T10:09:06.999Z</time></trkpt><trkpt lat="36.74088895704835" lon="-4.576186791602604"><ele>78.0</ele><time>2026-03-28T10:09:07.999Z</time></trkpt><trkpt lat="36.74098177723735" lon="-4.576232649520676"><ele>79.6</ele><time>2026-03-28T10:09:08.999Z</time></trkpt><trkpt lat="36.74107798796783" lon="-4.576278222200957"><ele>81.19999999999999</ele><time>2026-03-28T10:09:09.999Z</time></trkpt><trkpt lat="36.74117301800965" lon="-4.576322056730661"><ele>82.8</ele><time>2026-03-28T10:09:10.999Z</time></trkpt><trkpt lat="36.74126526933704" lon="-4.57635074825993"><ele>84.39999999999999</ele><time>2026-03-28T10:09:11.999Z</time></trkpt><trkpt lat="36.74134625505504" lon="-4.576407485117244"><ele>86.0</ele><time>2026-03-28T10:09:12.999Z</time></trkpt><trkpt lat="36.7414013090419" lon="-4.576488310383014"><ele>86.0</ele><time>2026-03-28T10:09:13.999Z</time></trkpt><trkpt lat="36.74145344568082" lon="-4.576584153848257"><ele>86.0</ele><time>2026-03-28T10:09:15.999Z</time></trkpt><trkpt lat="36.74147453702426" lon="-4.576485304703131"><ele>86.0</ele><time>2026-03-28T10:09:20.999Z</time></trkpt><trkpt lat="36.741456583396065" lon="-4.576363259876426"><ele>86.0</ele><time>2026-03-28T10:09:22.999Z</time></trkpt><trkpt lat="36.74143239690252" lon="-4.57622979576367"><ele>86.0</ele><time>2026-03-28T10:09:24.999Z</time></trkpt><trkpt lat="36.74140330780868" lon="-4.576091248062736"><ele>84.85714285714286</ele><time>2026-03-28T10:09:26.999Z</time></trkpt><trkpt lat="36.74138624773941" lon="-4.5760152684366"><ele>83.71428571428572</ele><time>2026-03-28T10:09:27.999Z</time></trkpt><trkpt lat="36.74136835327115" lon="-4.5759329747482065"><ele>82.57142857142858</ele><time>2026-03-28T10:09:28.999Z</time></trkpt><trkpt lat="36.741353376990425" lon="-4.5758500636898995"><ele>81.42857142857143</ele><time>2026-03-28T10:09:29.999Z</time></trkpt><trkpt lat="36.74133749273729" lon="-4.575765977326055"><ele>80.28571428571428</ele><time>2026-03-28T10:09:30.999Z</time></trkpt><trkpt lat="36.74132198738573" lon="-4.575678237921286"><ele>79.14285714285715</ele><time>2026-03-28T10:09:31.999Z</time></trkpt><trkpt lat="36.7413099152298" lon="-4.575593106120666"><ele>78.0</ele><time>2026-03-28T10:09:33Z</time></trkpt><trkpt lat="36.74129620045805" lon="-4.575508693192095"><ele>78.0</ele><time>2026-03-28T10:09:34Z</time></trkpt><trkpt lat="36.74127453896253" lon="-4.575427828313844"><ele>78.0</ele><time>2026-03-28T10:09:35Z</time></trkpt><trkpt lat="36.74123810795672" lon="-4.575288114915537"><ele>78.0</ele><time>2026-03-28T10:09:37Z</time></trkpt><trkpt lat="36.74121478365543" lon="-4.575162243131424"><ele>78.0</ele><time>2026-03-28T10:09:39Z</time></trkpt><trkpt lat="36.741192948284436" lon="-4.575038973478144"><ele>78.0</ele><time>2026-03-28T10:09:41Z</time></trkpt><trkpt lat="36.7411950581114" lon="-4.57493419882049"><ele>77.66666666666667</ele><time>2026-03-28T10:09:43Z</time></trkpt><trkpt lat="36.74119436760416" lon="-4.574846200642697"><ele>77.33333333333333</ele><time>2026-03-28T10:09:45Z</time></trkpt><trkpt lat="36.74118488373447" lon="-4.574763990718683"><ele>77.0</ele><time>2026-03-28T10:09:47Z</time></trkpt><trkpt lat="36.741180276385286" lon="-4.574675176683305"><ele>76.66666666666666</ele><time>2026-03-28T10:09:49Z</time></trkpt><trkpt lat="36.74115910397145" lon="-4.574575690886842"><ele>76.33333333333333</ele><time>2026-03-28T10:09:58Z</time></trkpt><trkpt lat="36.741149957197855" lon="-4.574492937411015"><ele>76.0</ele><time>2026-03-28T10:10:01Z</time></trkpt><trkpt lat="36.74116543670977" lon="-4.574605726963152"><ele>76.0</ele><time>2026-03-28T10:10:06Z</time></trkpt><trkpt lat="36.74117950591058" lon="-4.574709472879995"><ele>76.0</ele><time>2026-03-28T10:10:08Z</time></trkpt><trkpt lat="36.74119382199399" lon="-4.57484537899854"><ele>76.0</ele><time>2026-03-28T10:10:10Z</time></trkpt><trkpt lat="36.74120232553521" lon="-4.574975753998151"><ele>76.0</ele><time>2026-03-28T10:10:12Z</time></trkpt><trkpt lat="36.74120241127569" lon="-4.575116988902008"><ele>76.0</ele><time>2026-03-28T10:10:14Z</time></trkpt><trkpt lat="36.74121389251679" lon="-4.5751945012153366"><ele>76.0</ele><time>2026-03-28T10:10:15Z</time></trkpt><trkpt lat="36.74123963100829" lon="-4.575280128176142"><ele>76.0</ele><time>2026-03-28T10:10:16Z</time></trkpt><trkpt lat="36.74126464454972" lon="-4.575362236361137"><ele>76.0</ele><time>2026-03-28T10:10:17Z</time></trkpt><trkpt lat="36.74128599178278" lon="-4.575446579689272"><ele>76.0</ele><time>2026-03-28T10:10:18Z</time></trkpt><trkpt lat="36.74130726926852" lon="-4.575554859552116"><ele>76.0</ele><time>2026-03-28T10:10:19Z</time></trkpt><trkpt lat="36.74132836107147" lon="-4.575681727348294"><ele>76.0</ele><time>2026-03-28T10:10:20Z</time></trkpt><trkpt lat="36.741346626882056" lon="-4.575784796596119"><ele>76.39999999999999</ele><time>2026-03-28T10:10:21Z</time></trkpt><trkpt lat="36.74135923185655" lon="-4.575887782743949"><ele>76.8</ele><time>2026-03-28T10:10:22Z</time></trkpt><trkpt lat="36.74137400003357" lon="-4.575987656514983"><ele>77.19999999999999</ele><time>2026-03-28T10:10:23Z</time></trkpt><trkpt lat="36.741399049556286" lon="-4.576097220830311"><ele>77.6</ele><time>2026-03-28T10:10:24Z</time></trkpt><trkpt lat="36.74142235822556" lon="-4.5762217842157895"><ele>78.0</ele><time>2026-03-28T10:10:25Z</time></trkpt><trkpt lat="36.74144344186482" lon="-4.576339337061139"><ele>79.33333333333333</ele><time>2026-03-28T10:10:26Z</time></trkpt><trkpt lat="36.74146235134942" lon="-4.576448490306327"><ele>80.66666666666667</ele><time>2026-03-28T10:10:27Z</time></trkpt><trkpt lat="36.74148002360244" lon="-4.576541072911614"><ele>82.0</ele><time>2026-03-28T10:10:28Z</time></trkpt><trkpt lat="36.74149321422705" lon="-4.57663222698964"><ele>83.33333333333334</ele><time>2026-03-28T10:10:30Z</time></trkpt><trkpt lat="36.741425975619265" lon="-4.576676994298661"><ele>84.66666666666667</ele><time>2026-03-28T10:10:34Z</time></trkpt><trkpt lat="36.74138354802906" lon="-4.576616690574158"><ele>86.0</ele><time>2026-03-28T10:10:35Z</time></trkpt><trkpt lat="36.741360917498994" lon="-4.576514316330286"><ele>86.0</ele><time>2026-03-28T10:10:36Z</time></trkpt><trkpt lat="36.74132057777876" lon="-4.576444208401223"><ele>86.0</ele><time>2026-03-28T10:10:37Z</time></trkpt><trkpt lat="36.74125230625012" lon="-4.576373404643901"><ele>86.0</ele><time>2026-03-28T10:10:38Z</time></trkpt><trkpt lat="36.741161983216514" lon="-4.576325988869369"><ele>86.0</ele><time>2026-03-28T10:10:39Z</time></trkpt><trkpt lat="36.74105491264308" lon="-4.576285763485712"><ele>86.0</ele><time>2026-03-28T10:10:40Z</time></trkpt><trkpt lat="36.740945071343646" lon="-4.57623334732143"><ele>84.0</ele><time>2026-03-28T10:10:41Z</time></trkpt><trkpt lat="36.74083943280789" lon="-4.576170870688726"><ele>82.0</ele><time>2026-03-28T10:10:42Z</time></trkpt><trkpt lat="36.74073367668571" lon="-4.576098956292296"><ele>80.0</ele><time>2026-03-28T10:10:43Z</time></trkpt><trkpt lat="36.74063372817469" lon="-4.576015960281597"><ele>78.0</ele><time>2026-03-28T10:10:44Z</time></trkpt><trkpt lat="36.74053434615269" lon="-4.575936744924103"><ele>78.0</ele><time>2026-03-28T10:10:45Z</time></trkpt><trkpt lat="36.74043784066612" lon="-4.575855881967595"><ele>78.0</ele><time>2026-03-28T10:10:46Z</time></trkpt><trkpt lat="36.74034030411974" lon="-4.575773321118883"><ele>78.0</ele><time>2026-03-28T10:10:47Z</time></trkpt><trkpt lat="36.74024416490308" lon="-4.575695000537369"><ele>78.0</ele><time>2026-03-28T10:10:48Z</time></trkpt><trkpt lat="36.74015028206208" lon="-4.575618031027578"><ele>77.8</ele><time>2026-03-28T10:10:49Z</time></trkpt><trkpt lat="36.740062512994385" lon="-4.57553796594872"><ele>77.6</ele><time>2026-03-28T10:10:50Z</time></trkpt><trkpt lat="36.73997650320398" lon="-4.575462290563415"><ele>77.4</ele><time>2026-03-28T10:10:51Z</time></trkpt><trkpt lat="36.739898624632986" lon="-4.575393928404337"><ele>77.2</ele><time>2026-03-28T10:10:52Z</time></trkpt><trkpt lat="36.73983021442956" lon="-4.575325549572843"><ele>77.0</ele><time>2026-03-28T10:10:53Z</time></trkpt><trkpt lat="36.73977783429193" lon="-4.575255796097779"><ele>76.16666666666667</ele><time>2026-03-28T10:10:54Z</time></trkpt><trkpt lat="36.739735667647736" lon="-4.575180599280885"><ele>75.33333333333334</ele><time>2026-03-28T10:10:55Z</time></trkpt><trkpt lat="36.739691107729946" lon="-4.575112336067787"><ele>74.5</ele><time>2026-03-28T10:10:56Z</time></trkpt><trkpt lat="36.73963307500688" lon="-4.575053019839418"><ele>73.66666666666667</ele><time>2026-03-28T10:10:57Z</time></trkpt><trkpt lat="36.73956139633023" lon="-4.575007131865947"><ele>72.83333333333333</ele><time>2026-03-28T10:10:58Z</time></trkpt><trkpt lat="36.73948175858107" lon="-4.574986510298079"><ele>72.0</ele><time>2026-03-28T10:10:59Z</time></trkpt><trkpt lat="36.73940432987323" lon="-4.574965524708763"><ele>70.16666666666667</ele><time>2026-03-28T10:11:00Z</time></trkpt><trkpt lat="36.739338849802095" lon="-4.57494592032862"><ele>68.33333333333333</ele><time>2026-03-28T10:11:01Z</time></trkpt><trkpt lat="36.739250861707845" lon="-4.574921009223555"><ele>66.5</ele><time>2026-03-28T10:11:02.999Z</time></trkpt><trkpt lat="36.73918997650776" lon="-4.574892407268015"><ele>64.66666666666666</ele><time>2026-03-28T10:11:05.999Z</time></trkpt><trkpt lat="36.7391939148702" lon="-4.5747800643058625"><ele>62.83333333333333</ele><time>2026-03-28T10:11:07.999Z</time></trkpt><trkpt lat="36.7392260949637" lon="-4.574703749563779"><ele>61.0</ele><time>2026-03-28T10:11:08.999Z</time></trkpt><trkpt lat="36.73927159576223" lon="-4.574624169398762"><ele>60.99999999999999</ele><time>2026-03-28T10:11:09.999Z</time></trkpt><trkpt lat="36.739317850825714" lon="-4.574538169979776"><ele>61.0</ele><time>2026-03-28T10:11:10.999Z</time></trkpt><trkpt lat="36.739367675096304" lon="-4.5744484671714405"><ele>61.0</ele><time>2026-03-28T10:11:11.999Z</time></trkpt><trkpt lat="36.73942463792111" lon="-4.574371393487048"><ele>61.0</ele><time>2026-03-28T10:11:12.999Z</time></trkpt><trkpt lat="36.73948384199167" lon="-4.574300977263179"><ele>60.99999999999999</ele><time>2026-03-28T10:11:13.999Z</time></trkpt><trkpt lat="36.7395440798259" lon="-4.5742375506360515"><ele>61.0</ele><time>2026-03-28T10:11:14.999Z</time></trkpt><trkpt lat="36.73960152150672" lon="-4.57417959028179"><ele>61.49999999999999</ele><time>2026-03-28T10:11:15.999Z</time></trkpt><trkpt lat="36.73965877551321" lon="-4.574141747411058"><ele>62.0</ele><time>2026-03-28T10:11:16.999Z</time></trkpt><trkpt lat="36.73972207572371" lon="-4.5741077135419435"><ele>62.5</ele><time>2026-03-28T10:11:17.999Z</time></trkpt><trkpt lat="36.739797203949664" lon="-4.574088625189717"><ele>63.0</ele><time>2026-03-28T10:11:18.999Z</time></trkpt><trkpt lat="36.73987856333932" lon="-4.574064065890344"><ele>63.49999999999999</ele><time>2026-03-28T10:11:19.999Z</time></trkpt><trkpt lat="36.73996362114118" lon="-4.574081799021924"><ele>64.0</ele><time>2026-03-28T10:11:20.999Z</time></trkpt><trkpt lat="36.74004291646916" lon="-4.574110523388652"><ele>63.99999999999999</ele><time>2026-03-28T10:11:21.999Z</time></trkpt><trkpt lat="36.74012488843691" lon="-4.574149389678699"><ele>64.0</ele><time>2026-03-28T10:11:22.999Z</time></trkpt><trkpt lat="36.74020800080435" lon="-4.574187570167185"><ele>64.0</ele><time>2026-03-28T10:11:23.999Z</time></trkpt><trkpt lat="36.74029146918841" lon="-4.574227829991718"><ele>64.0</ele><time>2026-03-28T10:11:24.999Z</time></trkpt><trkpt lat="36.74037642949398" lon="-4.574269269713703"><ele>63.99999999999999</ele><time>2026-03-28T10:11:25.999Z</time></trkpt><trkpt lat="36.74045852748167" lon="-4.574309313497437"><ele>64.0</ele><time>2026-03-28T10:11:26.999Z</time></trkpt><trkpt lat="36.74053301552955" lon="-4.574339114058668"><ele>64.5</ele><time>2026-03-28T10:11:27.999Z</time></trkpt><trkpt lat="36.74060929841202" lon="-4.5743663848355185"><ele>65.0</ele><time>2026-03-28T10:11:28.999Z</time></trkpt><trkpt lat="36.740683772165156" lon="-4.5743387059223215"><ele>65.5</ele><time>2026-03-28T10:11:29.999Z</time></trkpt><trkpt lat="36.74075053844679" lon="-4.574285278909224"><ele>66.0</ele><time>2026-03-28T10:11:30.999Z</time></trkpt><trkpt lat="36.74081438090922" lon="-4.5742115643150685"><ele>66.5</ele><time>2026-03-28T10:11:31.999Z</time></trkpt><trkpt lat="36.740874057567964" lon="-4.574125738819108"><ele>67.0</ele><time>2026-03-28T10:11:32.999Z</time></trkpt><trkpt lat="36.74093133494789" lon="-4.574029325827278"><ele>67.0</ele><time>2026-03-28T10:11:33.999Z</time></trkpt><trkpt lat="36.74097539912157" lon="-4.573928340311816"><ele>67.0</ele><time>2026-03-28T10:11:34.999Z</time></trkpt><trkpt lat="36.7410242720648" lon="-4.573827163882343"><ele>67.0</ele><time>2026-03-28T10:11:35.999Z</time></trkpt><trkpt lat="36.74107961735096" lon="-4.573723900749416"><ele>67.0</ele><time>2026-03-28T10:11:36.999Z</time></trkpt><trkpt lat="36.7411370255365" lon="-4.573619556991629"><ele>67.0</ele><time>2026-03-28T10:11:37.999Z</time></trkpt><trkpt lat="36.74119478858831" lon="-4.5735150148142445"><ele>66.66666666666666</ele><time>2026-03-28T10:11:39Z</time></trkpt><trkpt lat="36.74124978030658" lon="-4.573409147343597"><ele>66.33333333333333</ele><time>2026-03-28T10:11:40Z</time></trkpt><trkpt lat="36.74130002145344" lon="-4.573308497079902"><ele>66.0</ele><time>2026-03-28T10:11:41Z</time></trkpt><trkpt lat="36.74134764494286" lon="-4.573215184280256"><ele>65.66666666666667</ele><time>2026-03-28T10:11:42Z</time></trkpt><trkpt lat="36.74138894970996" lon="-4.5731276180579155"><ele>65.33333333333334</ele><time>2026-03-28T10:11:43Z</time></trkpt><trkpt lat="36.741418302788176" lon="-4.573039809520681"><ele>65.0</ele><time>2026-03-28T10:11:44Z</time></trkpt><trkpt lat="36.74144513536394" lon="-4.572964348579213"><ele>64.4</ele><time>2026-03-28T10:11:45Z</time></trkpt><trkpt lat="36.74147919351752" lon="-4.572852157182303"><ele>63.8</ele><time>2026-03-28T10:11:47Z</time></trkpt><trkpt lat="36.74150860529907" lon="-4.572779763612321"><ele>63.2</ele><time>2026-03-28T10:11:49Z</time></trkpt><trkpt lat="36.741675064454746" lon="-4.572813967994515"><ele>62.6</ele><time>2026-03-28T10:11:50Z</time></trkpt><trkpt lat="36.74174801600418" lon="-4.572805159991661"><ele>62.0</ele><time>2026-03-28T10:11:51Z</time></trkpt><trkpt lat="36.74182506281306" lon="-4.572796796972843"><ele>62.50000000000001</ele><time>2026-03-28T10:11:52Z</time></trkpt><trkpt lat="36.74191036915678" lon="-4.57279466370864"><ele>63.0</ele><time>2026-03-28T10:11:53Z</time></trkpt><trkpt lat="36.74199971370262" lon="-4.572799422173788"><ele>63.5</ele><time>2026-03-28T10:11:54Z</time></trkpt><trkpt lat="36.74208880901714" lon="-4.572804403709579"><ele>64.0</ele><time>2026-03-28T10:11:55Z</time></trkpt><trkpt lat="36.742170779712396" lon="-4.572805391369196"><ele>64.5</ele><time>2026-03-28T10:11:56Z</time></trkpt><trkpt lat="36.742251047056435" lon="-4.572790031800156"><ele>65.0</ele><time>2026-03-28T10:11:57Z</time></trkpt><trkpt lat="36.74233651247269" lon="-4.572753833606843"><ele>65.0</ele><time>2026-03-28T10:11:58Z</time></trkpt><trkpt lat="36.74241688135212" lon="-4.572700230942085"><ele>65.0</ele><time>2026-03-28T10:11:59Z</time></trkpt><trkpt lat="36.742491958940164" lon="-4.572643225258327"><ele>65.0</ele><time>2026-03-28T10:12:00Z</time></trkpt><trkpt lat="36.74256820755518" lon="-4.572572325581271"><ele>65.0</ele><time>2026-03-28T10:12:01Z</time></trkpt><trkpt lat="36.742640248399184" lon="-4.57251436912844"><ele>65.0</ele><time>2026-03-28T10:12:02Z</time></trkpt><trkpt lat="36.74272284271711" lon="-4.572468945972004"><ele>65.16666666666667</ele><time>2026-03-28T10:12:03Z</time></trkpt><trkpt lat="36.74280764627631" lon="-4.572428461423708"><ele>65.33333333333334</ele><time>2026-03-28T10:12:04Z</time></trkpt><trkpt lat="36.742891913883184" lon="-4.572381585507935"><ele>65.5</ele><time>2026-03-28T10:12:05Z</time></trkpt><trkpt lat="36.7429675355881" lon="-4.572323993888039"><ele>65.66666666666667</ele><time>2026-03-28T10:12:06Z</time></trkpt><trkpt lat="36.743041438114716" lon="-4.572279319632379"><ele>65.83333333333333</ele><time>2026-03-28T10:12:07Z</time></trkpt><trkpt lat="36.74312042252262" lon="-4.572261398620873"><ele>66.0</ele><time>2026-03-28T10:12:08Z</time></trkpt><trkpt lat="36.743205551976374" lon="-4.572259403666207"><ele>66.0</ele><time>2026-03-28T10:12:09Z</time></trkpt><trkpt lat="36.74329704510931" lon="-4.572274329289522"><ele>66.0</ele><time>2026-03-28T10:12:10Z</time></trkpt><trkpt lat="36.74340607831237" lon="-4.5723043915451544"><ele>66.0</ele><time>2026-03-28T10:12:11Z</time></trkpt><trkpt lat="36.74349850521502" lon="-4.572341299384738"><ele>66.0</ele><time>2026-03-28T10:12:12Z</time></trkpt><trkpt lat="36.743580477015406" lon="-4.572343952411169"><ele>66.0</ele><time>2026-03-28T10:12:13Z</time></trkpt><trkpt lat="36.74365002012708" lon="-4.572373898752687"><ele>66.33333333333333</ele><time>2026-03-28T10:12:14Z</time></trkpt><trkpt lat="36.743710134432234" lon="-4.572416528331507"><ele>66.66666666666667</ele><time>2026-03-28T10:12:15Z</time></trkpt><trkpt lat="36.743762528680435" lon="-4.572479898079618"><ele>67.0</ele><time>2026-03-28T10:12:16Z</time></trkpt><trkpt lat="36.74378539797822" lon="-4.572586306718751"><ele>67.33333333333334</ele><time>2026-03-28T10:12:17Z</time></trkpt><trkpt lat="36.743783706001565" lon="-4.572700442867965"><ele>67.66666666666667</ele><time>2026-03-28T10:12:18Z</time></trkpt><trkpt lat="36.74378172469479" lon="-4.572796044821442"><ele>68.0</ele><time>2026-03-28T10:12:19Z</time></trkpt><trkpt lat="36.7437770427127" lon="-4.5728848565807505"><ele>68.4</ele><time>2026-03-28T10:12:20Z</time></trkpt><trkpt lat="36.74378433123571" lon="-4.573014215447287"><ele>68.8</ele><time>2026-03-28T10:12:22Z</time></trkpt><trkpt lat="36.74382970880699" lon="-4.5731019433622"><ele>69.2</ele><time>2026-03-28T10:12:25Z</time></trkpt><trkpt lat="36.74389127036775" lon="-4.5731940255093795"><ele>69.6</ele><time>2026-03-28T10:12:28Z</time></trkpt><trkpt lat="36.743976621659236" lon="-4.573265009787533"><ele>70.0</ele><time>2026-03-28T10:12:30Z</time></trkpt><trkpt lat="36.74404581897295" lon="-4.573295056238063"><ele>70.0</ele><time>2026-03-28T10:12:32Z</time></trkpt><trkpt lat="36.74392764060266" lon="-4.573225624529978"><ele>70.0</ele><time>2026-03-28T10:12:39Z</time></trkpt><trkpt lat="36.74383998721895" lon="-4.57311936130607"><ele>70.0</ele><time>2026-03-28T10:12:41Z</time></trkpt><trkpt lat="36.743792396159826" lon="-4.573059302475249"><ele>70.0</ele><time>2026-03-28T10:12:42Z</time></trkpt><trkpt lat="36.74374867031133" lon="-4.573002544729063"><ele>70.0</ele><time>2026-03-28T10:12:43Z</time></trkpt><trkpt lat="36.7437348657418" lon="-4.572911059019031"><ele>69.66666666666666</ele><time>2026-03-28T10:12:44Z</time></trkpt><trkpt lat="36.74374231253489" lon="-4.572821495339569"><ele>69.33333333333333</ele><time>2026-03-28T10:12:45Z</time></trkpt><trkpt lat="36.7437843155084" lon="-4.572756282030965"><ele>69.0</ele><time>2026-03-28T10:12:46Z</time></trkpt><trkpt lat="36.74378365307651" lon="-4.572631892573699"><ele>68.66666666666667</ele><time>2026-03-28T10:12:48Z</time></trkpt><trkpt lat="36.74377028249532" lon="-4.572522902141378"><ele>68.33333333333334</ele><time>2026-03-28T10:12:50Z</time></trkpt><trkpt lat="36.74372707800068" lon="-4.572447951659227"><ele>68.0</ele><time>2026-03-28T10:12:53Z</time></trkpt><trkpt lat="36.743804317419176" lon="-4.572455733571104"><ele>68.0</ele><time>2026-03-28T10:12:59Z</time></trkpt><trkpt lat="36.74423814902254" lon="-4.572388653806789"><ele>68.0</ele><time>2026-03-28T10:13:06Z</time></trkpt><trkpt lat="36.74430229248127" lon="-4.572376058151946"><ele>68.8</ele><time>2026-03-28T10:13:06.999Z</time></trkpt><trkpt lat="36.744406636445625" lon="-4.57233846813569"><ele>69.6</ele><time>2026-03-28T10:13:08.999Z</time></trkpt><trkpt lat="36.744481439569746" lon="-4.572292210455345"><ele>70.4</ele><time>2026-03-28T10:13:10.999Z</time></trkpt><trkpt lat="36.7445799682847" lon="-4.572231031811426"><ele>71.2</ele><time>2026-03-28T10:13:12.999Z</time></trkpt><trkpt lat="36.74470170267111" lon="-4.572184144763213"><ele>72.0</ele><time>2026-03-28T10:13:14.999Z</time></trkpt><trkpt lat="36.74482947233394" lon="-4.5721523389249805"><ele>72.0</ele><time>2026-03-28T10:13:16.999Z</time></trkpt><trkpt lat="36.744904283579444" lon="-4.572144035407365"><ele>72.0</ele><time>2026-03-28T10:13:17.999Z</time></trkpt><trkpt lat="36.745000828010866" lon="-4.572138252271555"><ele>72.0</ele><time>2026-03-28T10:13:19.999Z</time></trkpt><trkpt lat="36.745068908069996" lon="-4.57221004392316"><ele>72.0</ele><time>2026-03-28T10:13:23.999Z</time></trkpt><trkpt lat="36.74513251801645" lon="-4.572201658284604"><ele>72.0</ele><time>2026-03-28T10:13:25.999Z</time></trkpt><trkpt lat="36.745223137662684" lon="-4.572192072735268"><ele>72.0</ele><time>2026-03-28T10:13:27.999Z</time></trkpt><trkpt lat="36.7452876466175" lon="-4.572183513160834"><ele>72.8</ele><time>2026-03-28T10:13:30.999Z</time></trkpt><trkpt lat="36.74525040938456" lon="-4.572119906296708"><ele>73.6</ele><time>2026-03-28T10:13:47Z</time></trkpt><trkpt lat="36.74534413440053" lon="-4.572080970162451"><ele>74.39999999999999</ele><time>2026-03-28T10:13:59Z</time></trkpt><trkpt lat="36.74542552210398" lon="-4.57204819290423"><ele>75.2</ele><time>2026-03-28T10:14:01Z</time></trkpt><trkpt lat="36.74552548785793" lon="-4.572015454122689"><ele>76.0</ele><time>2026-03-28T10:14:03Z</time></trkpt><trkpt lat="36.74562186779017" lon="-4.571977335852394"><ele>76.0</ele><time>2026-03-28T10:14:06Z</time></trkpt><trkpt lat="36.74571005432144" lon="-4.571962160209518"><ele>76.0</ele><time>2026-03-28T10:14:09Z</time></trkpt><trkpt lat="36.74578585729795" lon="-4.571942568160162"><ele>76.0</ele><time>2026-03-28T10:14:11Z</time></trkpt><trkpt lat="36.745866788418496" lon="-4.5719025893336624"><ele>76.0</ele><time>2026-03-28T10:14:13Z</time></trkpt><trkpt lat="36.74595882567851" lon="-4.571869368009252"><ele>76.0</ele><time>2026-03-28T10:14:15Z</time></trkpt><trkpt lat="36.746058216399135" lon="-4.571837251945529"><ele>77.6</ele><time>2026-03-28T10:14:17Z</time></trkpt><trkpt lat="36.74615172695646" lon="-4.571813090902586"><ele>79.19999999999999</ele><time>2026-03-28T10:14:19Z</time></trkpt><trkpt lat="36.74624875027605" lon="-4.571791021409389"><ele>80.80000000000001</ele><time>2026-03-28T10:14:21Z</time></trkpt><trkpt lat="36.74635505377553" lon="-4.571758695090131"><ele>82.4</ele><time>2026-03-28T10:14:23Z</time></trkpt><trkpt lat="36.74644538116822" lon="-4.571729151017709"><ele>84.0</ele><time>2026-03-28T10:14:25Z</time></trkpt><trkpt lat="36.74651287329716" lon="-4.571707083893222"><ele>84.0</ele><time>2026-03-28T10:14:27Z</time></trkpt><trkpt lat="36.74659480189916" lon="-4.571707922785297"><ele>84.0</ele><time>2026-03-28T10:14:29Z</time></trkpt><trkpt lat="36.746692401658954" lon="-4.571709932373714"><ele>84.0</ele><time>2026-03-28T10:14:31Z</time></trkpt><trkpt lat="36.74679221961079" lon="-4.571658307224007"><ele>84.0</ele><time>2026-03-28T10:14:33Z</time></trkpt><trkpt lat="36.74689208079637" lon="-4.571659304003655"><ele>84.0</ele><time>2026-03-28T10:14:35Z</time></trkpt><trkpt lat="36.746965483976105" lon="-4.571764710031452"><ele>85.2</ele><time>2026-03-28T10:14:37Z</time></trkpt><trkpt lat="36.74704766223728" lon="-4.57187673179183"><ele>86.4</ele><time>2026-03-28T10:14:39Z</time></trkpt><trkpt lat="36.747123966980794" lon="-4.571917891582609"><ele>87.6</ele><time>2026-03-28T10:14:40Z</time></trkpt><trkpt lat="36.74720306645667" lon="-4.571952178082002"><ele>88.8</ele><time>2026-03-28T10:14:41Z</time></trkpt><trkpt lat="36.747274478869635" lon="-4.571973706590404"><ele>90.0</ele><time>2026-03-28T10:14:42Z</time></trkpt><trkpt lat="36.74739004311159" lon="-4.571971097091737"><ele>90.0</ele><time>2026-03-28T10:14:44Z</time></trkpt><trkpt lat="36.747475113673346" lon="-4.5719245456609725"><ele>90.0</ele><time>2026-03-28T10:14:46Z</time></trkpt><trkpt lat="36.74755937782021" lon="-4.571838801913352"><ele>90.0</ele><time>2026-03-28T10:14:48Z</time></trkpt><trkpt lat="36.74765772554055" lon="-4.571761409852089"><ele>90.0</ele><time>2026-03-28T10:14:50Z</time></trkpt><trkpt lat="36.74776787563267" lon="-4.57173960302984"><ele>90.0</ele><time>2026-03-28T10:14:52Z</time></trkpt><trkpt lat="36.747882132534215" lon="-4.57171558612669"><ele>91.8</ele><time>2026-03-28T10:14:54Z</time></trkpt><trkpt lat="36.74800528033225" lon="-4.571689506654932"><ele>93.6</ele><time>2026-03-28T10:14:56Z</time></trkpt><trkpt lat="36.748118995915966" lon="-4.57167073193758"><ele>95.4</ele><time>2026-03-28T10:14:58Z</time></trkpt><trkpt lat="36.74822196503109" lon="-4.57165900446117"><ele>97.2</ele><time>2026-03-28T10:15:00Z</time></trkpt><trkpt lat="36.74832468607496" lon="-4.571669528173089"><ele>99.0</ele><time>2026-03-28T10:15:02Z</time></trkpt><trkpt lat="36.748417226675215" lon="-4.571697068462743"><ele>99.0</ele><time>2026-03-28T10:15:04Z</time></trkpt><trkpt lat="36.74847084594439" lon="-4.571750506825489"><ele>99.0</ele><time>2026-03-28T10:15:05Z</time></trkpt><trkpt lat="36.74854227227203" lon="-4.571829349763995"><ele>99.0</ele><time>2026-03-28T10:15:06Z</time></trkpt><trkpt lat="36.74860052496276" lon="-4.571869395251017"><ele>99.0</ele><time>2026-03-28T10:15:07Z</time></trkpt><trkpt lat="36.74867699049893" lon="-4.5718968062978345"><ele>99.0</ele><time>2026-03-28T10:15:09Z</time></trkpt><trkpt lat="36.74873544765074" lon="-4.5719392187888666"><ele>99.0</ele><time>2026-03-28T10:15:11Z</time></trkpt><trkpt lat="36.74866413255264" lon="-4.571906566238782"><ele>99.0</ele><time>2026-03-28T10:16:19Z</time></trkpt><trkpt lat="36.74860064962477" lon="-4.5718552203060225"><ele>99.0</ele><time>2026-03-28T10:16:21Z</time></trkpt><trkpt lat="36.74854026526866" lon="-4.571829024947397"><ele>99.0</ele><time>2026-03-28T10:16:41Z</time></trkpt><trkpt lat="36.74847583167546" lon="-4.571792545631098"><ele>99.0</ele><time>2026-03-28T10:16:46Z</time></trkpt><trkpt lat="36.748436863163484" lon="-4.571720733110125"><ele>99.0</ele><time>2026-03-28T10:17:06Z</time></trkpt><trkpt lat="36.74836608074156" lon="-4.571657395753355"><ele>99.0</ele><time>2026-03-28T10:17:09Z</time></trkpt><trkpt lat="36.74829103550835" lon="-4.571639781070666"><ele>99.0</ele><time>2026-03-28T10:17:12Z</time></trkpt><trkpt lat="36.74821105963869" lon="-4.571637669061062"><ele>99.0</ele><time>2026-03-28T10:17:15Z</time></trkpt><trkpt lat="36.74812863343836" lon="-4.571668771672881"><ele>99.0</ele><time>2026-03-28T10:17:17Z</time></trkpt><trkpt lat="36.74802810671069" lon="-4.57168079593524"><ele>99.0</ele><time>2026-03-28T10:17:19Z</time></trkpt><trkpt lat="36.74790076742427" lon="-4.571705219860968"><ele>99.0</ele><time>2026-03-28T10:17:21Z</time></trkpt><trkpt lat="36.747834389206176" lon="-4.571728120172167"><ele>99.0</ele><time>2026-03-28T10:17:22Z</time></trkpt><trkpt lat="36.747720179934156" lon="-4.571767594785385"><ele>97.5</ele><time>2026-03-28T10:17:24Z</time></trkpt><trkpt lat="36.74761968565411" lon="-4.571820115786384"><ele>96.0</ele><time>2026-03-28T10:17:26Z</time></trkpt><trkpt lat="36.747529929269135" lon="-4.571860145021126"><ele>94.5</ele><time>2026-03-28T10:17:28Z</time></trkpt><trkpt lat="36.7474655488958" lon="-4.571923205125883"><ele>93.0</ele><time>2026-03-28T10:17:30.999Z</time></trkpt><trkpt lat="36.747501122076194" lon="-4.571993503222141"><ele>91.5</ele><time>2026-03-28T10:17:35.999Z</time></trkpt><trkpt lat="36.74754718898364" lon="-4.572063526610491"><ele>90.0</ele><time>2026-03-28T10:17:38.999Z</time></trkpt><trkpt lat="36.74757072967408" lon="-4.572177992176656"><ele>89.66666666666667</ele><time>2026-03-28T10:17:40.999Z</time></trkpt><trkpt lat="36.7476493819893" lon="-4.572296338231304"><ele>89.33333333333333</ele><time>2026-03-28T10:17:42.999Z</time></trkpt><trkpt lat="36.747693574476266" lon="-4.572359944243453"><ele>89.0</ele><time>2026-03-28T10:17:43.999Z</time></trkpt><trkpt lat="36.7477324563799" lon="-4.572423903668927"><ele>88.66666666666666</ele><time>2026-03-28T10:17:44.999Z</time></trkpt><trkpt lat="36.74777809580775" lon="-4.572485116519545"><ele>88.33333333333333</ele><time>2026-03-28T10:17:45.999Z</time></trkpt><trkpt lat="36.7478364545715" lon="-4.572607156351493"><ele>88.0</ele><time>2026-03-28T10:17:47.999Z</time></trkpt><trkpt lat="36.74781923067996" lon="-4.5727466363127185"><ele>89.2</ele><time>2026-03-28T10:17:49.999Z</time></trkpt><trkpt lat="36.7478062535954" lon="-4.57288598614907"><ele>90.4</ele><time>2026-03-28T10:17:51.999Z</time></trkpt><trkpt lat="36.74781058679152" lon="-4.573039528918998"><ele>91.60000000000001</ele><time>2026-03-28T10:17:53.999Z</time></trkpt><trkpt lat="36.74776589402451" lon="-4.573197675775086"><ele>92.80000000000001</ele><time>2026-03-28T10:17:55.999Z</time></trkpt><trkpt lat="36.747740409630254" lon="-4.5732770761386785"><ele>94.0</ele><time>2026-03-28T10:17:57Z</time></trkpt><trkpt lat="36.747705407880495" lon="-4.5734143532393166"><ele>94.0</ele><time>2026-03-28T10:17:59Z</time></trkpt><trkpt lat="36.74770321599356" lon="-4.573537307949375"><ele>94.0</ele><time>2026-03-28T10:18:01Z</time></trkpt><trkpt lat="36.74771611292563" lon="-4.573638855902419"><ele>94.0</ele><time>2026-03-28T10:18:03Z</time></trkpt><trkpt lat="36.74770380936704" lon="-4.5737194533077785"><ele>94.0</ele><time>2026-03-28T10:18:05Z</time></trkpt><trkpt lat="36.74769148003264" lon="-4.573820170415101"><ele>94.0</ele><time>2026-03-28T10:18:07Z</time></trkpt><trkpt lat="36.74775017052277" lon="-4.573915194889516"><ele>94.0</ele><time>2026-03-28T10:18:09Z</time></trkpt><trkpt lat="36.74782528168367" lon="-4.573997120040414"><ele>94.16666666666666</ele><time>2026-03-28T10:18:11Z</time></trkpt><trkpt lat="36.747890422445955" lon="-4.574056742781584"><ele>94.33333333333333</ele><time>2026-03-28T10:18:13Z</time></trkpt><trkpt lat="36.74795778243802" lon="-4.574141050780243"><ele>94.5</ele><time>2026-03-28T10:18:15Z</time></trkpt><trkpt lat="36.74800537975178" lon="-4.574223591648756"><ele>94.66666666666667</ele><time>2026-03-28T10:18:17Z</time></trkpt><trkpt lat="36.74809621408256" lon="-4.574307180347539"><ele>94.83333333333334</ele><time>2026-03-28T10:18:19Z</time></trkpt><trkpt lat="36.74815018530922" lon="-4.574353078678259"><ele>95.0</ele><time>2026-03-28T10:18:20Z</time></trkpt><trkpt lat="36.748204635900706" lon="-4.57440467261093"><ele>95.0</ele><time>2026-03-28T10:18:21Z</time></trkpt><trkpt lat="36.74826447556211" lon="-4.574450798666593"><ele>95.0</ele><time>2026-03-28T10:18:22Z</time></trkpt><trkpt lat="36.74832715331796" lon="-4.5744774783378555"><ele>95.0</ele><time>2026-03-28T10:18:23Z</time></trkpt><trkpt lat="36.74839553047146" lon="-4.5744808664501475"><ele>95.0</ele><time>2026-03-28T10:18:24Z</time></trkpt><trkpt lat="36.74846730411901" lon="-4.5744731575110595"><ele>95.0</ele><time>2026-03-28T10:18:25Z</time></trkpt><trkpt lat="36.748536740563196" lon="-4.574454076482055"><ele>95.0</ele><time>2026-03-28T10:18:26Z</time></trkpt><trkpt lat="36.74860789275484" lon="-4.574429897008849"><ele>95.0</ele><time>2026-03-28T10:18:27Z</time></trkpt><trkpt lat="36.74868245576614" lon="-4.574426717513315"><ele>95.66666666666667</ele><time>2026-03-28T10:18:28Z</time></trkpt><trkpt lat="36.74875558362079" lon="-4.574447464065615"><ele>96.33333333333334</ele><time>2026-03-28T10:18:29Z</time></trkpt><trkpt lat="36.74883859833563" lon="-4.574472002640769"><ele>97.0</ele><time>2026-03-28T10:18:30Z</time></trkpt><trkpt lat="36.74891545207525" lon="-4.574480142027363"><ele>97.66666666666667</ele><time>2026-03-28T10:18:31Z</time></trkpt><trkpt lat="36.748993918184496" lon="-4.574464609988726"><ele>98.33333333333333</ele><time>2026-03-28T10:18:32Z</time></trkpt><trkpt lat="36.74906976687363" lon="-4.574447018971446"><ele>99.0</ele><time>2026-03-28T10:18:33Z</time></trkpt><trkpt lat="36.74914041948477" lon="-4.574451617269707"><ele>99.0</ele><time>2026-03-28T10:18:34Z</time></trkpt><trkpt lat="36.74920345504445" lon="-4.574485456283768"><ele>99.0</ele><time>2026-03-28T10:18:35Z</time></trkpt><trkpt lat="36.74925070351501" lon="-4.574543521490185"><ele>99.0</ele><time>2026-03-28T10:18:36Z</time></trkpt><trkpt lat="36.749293122510124" lon="-4.574670340058581"><ele>99.0</ele><time>2026-03-28T10:18:38Z</time></trkpt><trkpt lat="36.74934377683093" lon="-4.574811816698161"><ele>99.0</ele><time>2026-03-28T10:18:40Z</time></trkpt><trkpt lat="36.749391808110204" lon="-4.57486919742117"><ele>99.0</ele><time>2026-03-28T10:18:41Z</time></trkpt><trkpt lat="36.749453844533164" lon="-4.57492248732267"><ele>99.28571428571429</ele><time>2026-03-28T10:18:42Z</time></trkpt><trkpt lat="36.74950248815878" lon="-4.57497679342604"><ele>99.57142857142857</ele><time>2026-03-28T10:18:43Z</time></trkpt><trkpt lat="36.74952774191075" lon="-4.575055119177281"><ele>99.85714285714286</ele><time>2026-03-28T10:18:44Z</time></trkpt><trkpt lat="36.74953091368597" lon="-4.5751453094285734"><ele>100.14285714285714</ele><time>2026-03-28T10:18:45Z</time></trkpt><trkpt lat="36.749523889500715" lon="-4.575242488437101"><ele>100.42857142857142</ele><time>2026-03-28T10:18:46Z</time></trkpt><trkpt lat="36.74950470120726" lon="-4.575334732025368"><ele>100.71428571428571</ele><time>2026-03-28T10:18:47Z</time></trkpt><trkpt lat="36.74949068476567" lon="-4.57543437101963"><ele>101.0</ele><time>2026-03-28T10:18:48Z</time></trkpt><trkpt lat="36.74946836078393" lon="-4.575530312600766"><ele>100.99999999999999</ele><time>2026-03-28T10:18:49Z</time></trkpt><trkpt lat="36.74943792257087" lon="-4.575616580739668"><ele>101.0</ele><time>2026-03-28T10:18:50Z</time></trkpt><trkpt lat="36.74941873447979" lon="-4.575699195765074"><ele>101.0</ele><time>2026-03-28T10:18:51Z</time></trkpt><trkpt lat="36.749417273557206" lon="-4.575796384696839"><ele>101.0</ele><time>2026-03-28T10:18:52Z</time></trkpt><trkpt lat="36.7494305841438" lon="-4.5758925964726505"><ele>100.99999999999999</ele><time>2026-03-28T10:18:53Z</time></trkpt><trkpt lat="36.74945762238157" lon="-4.575983179182556"><ele>101.0</ele><time>2026-03-28T10:18:54Z</time></trkpt><trkpt lat="36.74949751490301" lon="-4.576065487955908"><ele>101.0</ele><time>2026-03-28T10:18:55Z</time></trkpt><trkpt lat="36.749551611963064" lon="-4.576132565976629"><ele>101.0</ele><time>2026-03-28T10:18:56Z</time></trkpt><trkpt lat="36.74961090180136" lon="-4.576194782975988"><ele>101.0</ele><time>2026-03-28T10:18:57Z</time></trkpt><trkpt lat="36.74967242940192" lon="-4.576237946226268"><ele>101.0</ele><time>2026-03-28T10:18:58Z</time></trkpt><trkpt lat="36.74973476159811" lon="-4.576272707872889"><ele>101.0</ele><time>2026-03-28T10:18:59Z</time></trkpt><trkpt lat="36.74979591251858" lon="-4.576308314359557"><ele>101.0</ele><time>2026-03-28T10:19:00Z</time></trkpt><trkpt lat="36.74984271442505" lon="-4.576367832298788"><ele>101.0</ele><time>2026-03-28T10:19:01Z</time></trkpt><trkpt lat="36.74986201553291" lon="-4.576446099655581"><ele>99.8</ele><time>2026-03-28T10:19:02Z</time></trkpt><trkpt lat="36.7498706880185" lon="-4.57660385321956"><ele>98.6</ele><time>2026-03-28T10:19:04Z</time></trkpt><trkpt lat="36.74986059045246" lon="-4.576686124670235"><ele>97.4</ele><time>2026-03-28T10:19:05Z</time></trkpt><trkpt lat="36.749847562090494" lon="-4.576764916317517"><ele>96.2</ele><time>2026-03-28T10:19:06Z</time></trkpt><trkpt lat="36.74981270784135" lon="-4.576906197705932"><ele>95.0</ele><time>2026-03-28T10:19:08Z</time></trkpt><trkpt lat="36.74984047078545" lon="-4.577077267991829"><ele>95.0</ele><time>2026-03-28T10:19:10Z</time></trkpt><trkpt lat="36.74985719842004" lon="-4.577186517162497"><ele>95.0</ele><time>2026-03-28T10:19:11Z</time></trkpt><trkpt lat="36.7498750762047" lon="-4.577297665531167"><ele>95.0</ele><time>2026-03-28T10:19:12Z</time></trkpt><trkpt lat="36.749893749199735" lon="-4.577413757831735"><ele>95.0</ele><time>2026-03-28T10:19:13Z</time></trkpt><trkpt lat="36.74990998532121" lon="-4.577514699791515"><ele>95.0</ele><time>2026-03-28T10:19:14Z</time></trkpt><trkpt lat="36.74993129457076" lon="-4.577618321722179"><ele>95.0</ele><time>2026-03-28T10:19:15Z</time></trkpt><trkpt lat="36.74995921669054" lon="-4.577722605032513"><ele>95.0</ele><time>2026-03-28T10:19:16Z</time></trkpt><trkpt lat="36.74999285932938" lon="-4.577830842846793"><ele>95.0</ele><time>2026-03-28T10:19:17Z</time></trkpt><trkpt lat="36.750028594503775" lon="-4.577942227924877"><ele>95.0</ele><time>2026-03-28T10:19:18Z</time></trkpt><trkpt lat="36.75006533090954" lon="-4.578053780720907"><ele>95.0</ele><time>2026-03-28T10:19:19Z</time></trkpt><trkpt lat="36.75010386121679" lon="-4.578163695560362"><ele>95.0</ele><time>2026-03-28T10:19:20Z</time></trkpt><trkpt lat="36.75014166353264" lon="-4.5782721601255965"><ele>95.16666666666667</ele><time>2026-03-28T10:19:21Z</time></trkpt><trkpt lat="36.75017453328547" lon="-4.578372215270899"><ele>95.33333333333334</ele><time>2026-03-28T10:19:22Z</time></trkpt><trkpt lat="36.75018916506877" lon="-4.578466942507592"><ele>95.5</ele><time>2026-03-28T10:19:23Z</time></trkpt><trkpt lat="36.750231954430504" lon="-4.5785850393083285"><ele>95.66666666666667</ele><time>2026-03-28T10:19:25Z</time></trkpt><trkpt lat="36.75027434867246" lon="-4.578684973509938"><ele>95.83333333333333</ele><time>2026-03-28T10:19:37.999Z</time></trkpt><trkpt lat="36.75035289739683" lon="-4.578688104200674"><ele>96.0</ele><time>2026-03-28T10:19:39.999Z</time></trkpt><trkpt lat="36.75046547650808" lon="-4.578747422302237"><ele>96.0</ele><time>2026-03-28T10:19:41.999Z</time></trkpt><trkpt lat="36.75052915542" lon="-4.5787503687370465"><ele>96.0</ele><time>2026-03-28T10:19:42.999Z</time></trkpt><trkpt lat="36.75059763933775" lon="-4.5787537457187435"><ele>96.0</ele><time>2026-03-28T10:19:43.999Z</time></trkpt><trkpt lat="36.750677802259624" lon="-4.578755601319973"><ele>96.0</ele><time>2026-03-28T10:19:44.999Z</time></trkpt><trkpt lat="36.75076358828206" lon="-4.578730173995713"><ele>96.0</ele><time>2026-03-28T10:19:45.999Z</time></trkpt><trkpt lat="36.75083904349743" lon="-4.578700460279652"><ele>96.0</ele><time>2026-03-28T10:19:46.999Z</time></trkpt><trkpt lat="36.750918080116804" lon="-4.5786714272249425"><ele>96.33333333333333</ele><time>2026-03-28T10:19:47.999Z</time></trkpt><trkpt lat="36.75099954602744" lon="-4.578646025331112"><ele>96.66666666666666</ele><time>2026-03-28T10:19:48.999Z</time></trkpt><trkpt lat="36.751081283399714" lon="-4.57863189459505"><ele>97.0</ele><time>2026-03-28T10:19:49.999Z</time></trkpt><trkpt lat="36.751158152086724" lon="-4.5786383594707285"><ele>97.33333333333333</ele><time>2026-03-28T10:19:50.999Z</time></trkpt><trkpt lat="36.75123510575355" lon="-4.578656090037524"><ele>97.66666666666666</ele><time>2026-03-28T10:19:51.999Z</time></trkpt><trkpt lat="36.75131310335581" lon="-4.578710170348496"><ele>98.0</ele><time>2026-03-28T10:19:52.999Z</time></trkpt><trkpt lat="36.75139498840088" lon="-4.578792820975236"><ele>99.2</ele><time>2026-03-28T10:19:53.999Z</time></trkpt><trkpt lat="36.751463055743194" lon="-4.578887081471796"><ele>100.4</ele><time>2026-03-28T10:19:54.999Z</time></trkpt><trkpt lat="36.751536133503336" lon="-4.578986190173969"><ele>101.60000000000001</ele><time>2026-03-28T10:19:55.999Z</time></trkpt><trkpt lat="36.7516052437551" lon="-4.579072389771046"><ele>102.80000000000001</ele><time>2026-03-28T10:19:56.999Z</time></trkpt><trkpt lat="36.751690362668164" lon="-4.579174317022087"><ele>104.0</ele><time>2026-03-28T10:19:57.999Z</time></trkpt><trkpt lat="36.7517765680587" lon="-4.579261967307693"><ele>104.0</ele><time>2026-03-28T10:19:58.999Z</time></trkpt><trkpt lat="36.75186605995562" lon="-4.579331052618333"><ele>104.0</ele><time>2026-03-28T10:19:59.999Z</time></trkpt><trkpt lat="36.75195983529564" lon="-4.5793792126536355"><ele>104.0</ele><time>2026-03-28T10:20:00.999Z</time></trkpt><trkpt lat="36.75206074282919" lon="-4.57940830248119"><ele>104.0</ele><time>2026-03-28T10:20:01.999Z</time></trkpt><trkpt lat="36.752163119206" lon="-4.579413952625214"><ele>104.0</ele><time>2026-03-28T10:20:03Z</time></trkpt><trkpt lat="36.752269598751155" lon="-4.579410587882654"><ele>105.0</ele><time>2026-03-28T10:20:04Z</time></trkpt><trkpt lat="36.75238164795344" lon="-4.579398735525182"><ele>106.0</ele><time>2026-03-28T10:20:05Z</time></trkpt><trkpt lat="36.75247469807193" lon="-4.579371572610715"><ele>107.0</ele><time>2026-03-28T10:20:06Z</time></trkpt><trkpt lat="36.75255520841598" lon="-4.5793259900904975"><ele>108.0</ele><time>2026-03-28T10:20:07Z</time></trkpt><trkpt lat="36.75262958298355" lon="-4.57924257059717"><ele>109.0</ele><time>2026-03-28T10:20:08Z</time></trkpt><trkpt lat="36.75271891890593" lon="-4.579162273258467"><ele>110.4</ele><time>2026-03-28T10:20:09Z</time></trkpt><trkpt lat="36.75281192187467" lon="-4.579105847214303"><ele>111.80000000000001</ele><time>2026-03-28T10:20:10Z</time></trkpt><trkpt lat="36.75289890353771" lon="-4.579064846947936"><ele>113.19999999999999</ele><time>2026-03-28T10:20:11Z</time></trkpt><trkpt lat="36.75300674360556" lon="-4.57907071638825"><ele>114.6</ele><time>2026-03-28T10:20:12Z</time></trkpt><trkpt lat="36.753108530610454" lon="-4.579129913664287"><ele>116.0</ele><time>2026-03-28T10:20:13Z</time></trkpt><trkpt lat="36.753207328488834" lon="-4.57918154216727"><ele>115.99999999999999</ele><time>2026-03-28T10:20:14Z</time></trkpt><trkpt lat="36.75328767616436" lon="-4.579218868040319"><ele>116.0</ele><time>2026-03-28T10:20:15Z</time></trkpt><trkpt lat="36.7533854494798" lon="-4.579292668967981"><ele>116.0</ele><time>2026-03-28T10:20:17Z</time></trkpt><trkpt lat="36.75341036691898" lon="-4.57938564186415"><ele>116.0</ele><time>2026-03-28T10:20:18Z</time></trkpt><trkpt lat="36.75348443057852" lon="-4.5794137472328895"><ele>115.99999999999999</ele><time>2026-03-28T10:20:19Z</time></trkpt><trkpt lat="36.7535485380507" lon="-4.579465456010108"><ele>116.0</ele><time>2026-03-28T10:20:20Z</time></trkpt><trkpt lat="36.75361166837577" lon="-4.579519250726844"><ele>117.14285714285717</ele><time>2026-03-28T10:20:21Z</time></trkpt><trkpt lat="36.75366919603479" lon="-4.579571955447235"><ele>118.28571428571429</ele><time>2026-03-28T10:20:22Z</time></trkpt><trkpt lat="36.753727165948774" lon="-4.57962195907703"><ele>119.42857142857144</ele><time>2026-03-28T10:20:23Z</time></trkpt><trkpt lat="36.75378671824847" lon="-4.579670078046162"><ele>120.57142857142858</ele><time>2026-03-28T10:20:24Z</time></trkpt><trkpt lat="36.753847745668125" lon="-4.579706981408097"><ele>121.71428571428572</ele><time>2026-03-28T10:20:25Z</time></trkpt><trkpt lat="36.753914333130304" lon="-4.579724275745163"><ele>122.85714285714286</ele><time>2026-03-28T10:20:26Z</time></trkpt><trkpt lat="36.75398285344233" lon="-4.579732175085219"><ele>124.0</ele><time>2026-03-28T10:20:27Z</time></trkpt><trkpt lat="36.75406189076986" lon="-4.579742877327659"><ele>124.00000000000001</ele><time>2026-03-28T10:20:28Z</time></trkpt><trkpt lat="36.75413955941631" lon="-4.579752294266366"><ele>124.0</ele><time>2026-03-28T10:20:29Z</time></trkpt><trkpt lat="36.754207911365384" lon="-4.57976093522869"><ele>124.0</ele><time>2026-03-28T10:20:30Z</time></trkpt><trkpt lat="36.7542794529232" lon="-4.579796704354109"><ele>124.0</ele><time>2026-03-28T10:20:31Z</time></trkpt><trkpt lat="36.75435207526492" lon="-4.579814155602234"><ele>124.00000000000001</ele><time>2026-03-28T10:20:32Z</time></trkpt><trkpt lat="36.75440295851427" lon="-4.579900537606388"><ele>124.0</ele><time>2026-03-28T10:20:33Z</time></trkpt><trkpt lat="36.75447086516935" lon="-4.579953365324924"><ele>125.33333333333334</ele><time>2026-03-28T10:20:34Z</time></trkpt><trkpt lat="36.75452540625651" lon="-4.5800263362458224"><ele>126.66666666666667</ele><time>2026-03-28T10:20:35Z</time></trkpt><trkpt lat="36.7545730483922" lon="-4.58009766009004"><ele>128.0</ele><time>2026-03-28T10:20:36Z</time></trkpt><trkpt lat="36.75461015406166" lon="-4.5801621571317295"><ele>129.33333333333334</ele><time>2026-03-28T10:20:37Z</time></trkpt><trkpt lat="36.7546539323523" lon="-4.580243969571815"><ele>130.66666666666666</ele><time>2026-03-28T10:20:43Z</time></trkpt><trkpt lat="36.754722718964004" lon="-4.58016337036324"><ele>132.0</ele><time>2026-03-28T10:20:45Z</time></trkpt><trkpt lat="36.75479808550971" lon="-4.580072707792877"><ele>132.0</ele><time>2026-03-28T10:20:47Z</time></trkpt><trkpt lat="36.754877860468824" lon="-4.579990401404659"><ele>132.0</ele><time>2026-03-28T10:20:49Z</time></trkpt><trkpt lat="36.7549542302671" lon="-4.579890005730913"><ele>132.0</ele><time>2026-03-28T10:20:51Z</time></trkpt><trkpt lat="36.75504620981354" lon="-4.5797900926197315"><ele>132.0</ele><time>2026-03-28T10:20:53Z</time></trkpt><trkpt lat="36.755090903394006" lon="-4.579719093374643"><ele>132.0</ele><time>2026-03-28T10:20:54Z</time></trkpt><trkpt lat="36.75513701664784" lon="-4.579639773148978"><ele>132.0</ele><time>2026-03-28T10:20:55Z</time></trkpt><trkpt lat="36.75517517621789" lon="-4.579576773883038"><ele>132.0</ele><time>2026-03-28T10:20:56Z</time></trkpt><trkpt lat="36.75525893197489" lon="-4.579472808745508"><ele>132.0</ele><time>2026-03-28T10:20:58Z</time></trkpt><trkpt lat="36.7553153025486" lon="-4.57942214141738"><ele>132.0</ele><time>2026-03-28T10:20:59Z</time></trkpt><trkpt lat="36.75537664015575" lon="-4.579372129951314"><ele>132.0</ele><time>2026-03-28T10:21:00Z</time></trkpt><trkpt lat="36.755427819264334" lon="-4.5793040044661675"><ele>132.0</ele><time>2026-03-28T10:21:01Z</time></trkpt><trkpt lat="36.75549842872713" lon="-4.579262440160669"><ele>134.0</ele><time>2026-03-28T10:21:02Z</time></trkpt><trkpt lat="36.75556406197104" lon="-4.579207418280545"><ele>136.0</ele><time>2026-03-28T10:21:03Z</time></trkpt><trkpt lat="36.755629922101335" lon="-4.5791503083667955"><ele>138.0</ele><time>2026-03-28T10:21:04Z</time></trkpt><trkpt lat="36.755679806579714" lon="-4.5790863002534214"><ele>140.0</ele><time>2026-03-28T10:21:05Z</time></trkpt><trkpt lat="36.75573229245366" lon="-4.578954686677051"><ele>142.0</ele><time>2026-03-28T10:21:07Z</time></trkpt><trkpt lat="36.7557337348551" lon="-4.578817965434111"><ele>142.0</ele><time>2026-03-28T10:21:09Z</time></trkpt><trkpt lat="36.75569206061462" lon="-4.578749006013724"><ele>142.0</ele><time>2026-03-28T10:21:10Z</time></trkpt><trkpt lat="36.75564663786098" lon="-4.5786923520810205"><ele>142.0</ele><time>2026-03-28T10:21:11Z</time></trkpt><trkpt lat="36.75563048965271" lon="-4.578560816687383"><ele>142.0</ele><time>2026-03-28T10:21:13Z</time></trkpt><trkpt lat="36.75566438746037" lon="-4.578489253955717"><ele>142.0</ele><time>2026-03-28T10:21:14Z</time></trkpt><trkpt lat="36.755722832091394" lon="-4.578430585292244"><ele>142.0</ele><time>2026-03-28T10:21:15Z</time></trkpt><trkpt lat="36.75578015518822" lon="-4.57837635164613"><ele>142.0</ele><time>2026-03-28T10:21:16Z</time></trkpt><trkpt lat="36.75584876850873" lon="-4.578339732330845"><ele>142.0</ele><time>2026-03-28T10:21:17Z</time></trkpt><trkpt lat="36.755912296080695" lon="-4.578327244054767"><ele>142.0</ele><time>2026-03-28T10:21:18Z</time></trkpt><trkpt lat="36.75597763464248" lon="-4.5783514997506405"><ele>142.0</ele><time>2026-03-28T10:21:19Z</time></trkpt><trkpt lat="36.75605008240906" lon="-4.57835751335"><ele>142.0</ele><time>2026-03-28T10:21:20Z</time></trkpt><trkpt lat="36.756121155124376" lon="-4.578377588139523"><ele>142.0</ele><time>2026-03-28T10:21:21Z</time></trkpt><trkpt lat="36.75620121699213" lon="-4.5784331756623144"><ele>142.0</ele><time>2026-03-28T10:21:22Z</time></trkpt><trkpt lat="36.75627979761102" lon="-4.578444331302264"><ele>142.0</ele><time>2026-03-28T10:21:23Z</time></trkpt><trkpt lat="36.756356376015965" lon="-4.578460162494596"><ele>142.0</ele><time>2026-03-28T10:21:24Z</time></trkpt><trkpt lat="36.75642365245305" lon="-4.578484912921415"><ele>142.0</ele><time>2026-03-28T10:21:24.999Z</time></trkpt><trkpt lat="36.75652339346447" lon="-4.5785046891927825"><ele>142.0</ele><time>2026-03-28T10:21:26.999Z</time></trkpt><trkpt lat="36.756583956104286" lon="-4.578476080212343"><ele>142.0</ele><time>2026-03-28T10:21:28.999Z</time></trkpt><trkpt lat="36.756667302067115" lon="-4.578404366008737"><ele>142.0</ele><time>2026-03-28T10:21:30.999Z</time></trkpt><trkpt lat="36.756723195497486" lon="-4.57829712977625"><ele>142.0</ele><time>2026-03-28T10:21:32.999Z</time></trkpt><trkpt lat="36.756755910279985" lon="-4.578173518628682"><ele>142.0</ele><time>2026-03-28T10:21:34.999Z</time></trkpt><trkpt lat="36.75680720139177" lon="-4.57805328453298"><ele>142.0</ele><time>2026-03-28T10:21:36.999Z</time></trkpt><trkpt lat="36.756845330518125" lon="-4.5779383177377575"><ele>142.0</ele><time>2026-03-28T10:21:38.999Z</time></trkpt><trkpt lat="36.75686274956288" lon="-4.577828946472519"><ele>142.0</ele><time>2026-03-28T10:21:40.999Z</time></trkpt><trkpt lat="36.75693203930206" lon="-4.577747819709395"><ele>146.6</ele><time>2026-03-28T10:21:42.999Z</time></trkpt><trkpt lat="36.75705512988887" lon="-4.577727948668858"><ele>151.2</ele><time>2026-03-28T10:21:44.999Z</time></trkpt><trkpt lat="36.75718384852862" lon="-4.5777570684562905"><ele>155.8</ele><time>2026-03-28T10:21:46.999Z</time></trkpt><trkpt lat="36.757254909275225" lon="-4.577773731475674"><ele>160.4</ele><time>2026-03-28T10:21:47.999Z</time></trkpt><trkpt lat="36.757335484401786" lon="-4.577782624041847"><ele>165.0</ele><time>2026-03-28T10:21:48.999Z</time></trkpt><trkpt lat="36.75742380021016" lon="-4.5777855432350645"><ele>165.0</ele><time>2026-03-28T10:21:49.999Z</time></trkpt><trkpt lat="36.757512282408726" lon="-4.577781727346089"><ele>165.0</ele><time>2026-03-28T10:21:50.999Z</time></trkpt><trkpt lat="36.757600923356385" lon="-4.577762300073061"><ele>165.0</ele><time>2026-03-28T10:21:51.999Z</time></trkpt><trkpt lat="36.75768678864938" lon="-4.577735796427991"><ele>165.0</ele><time>2026-03-28T10:21:52.999Z</time></trkpt><trkpt lat="36.75776363863294" lon="-4.5777157169667815"><ele>165.0</ele><time>2026-03-28T10:21:53.999Z</time></trkpt><trkpt lat="36.757837739142964" lon="-4.577711554772515"><ele>165.0</ele><time>2026-03-28T10:21:54.999Z</time></trkpt><trkpt lat="36.757911573219275" lon="-4.577707850524037"><ele>167.16666666666666</ele><time>2026-03-28T10:21:55.999Z</time></trkpt><trkpt lat="36.75798648981527" lon="-4.577702859445057"><ele>169.33333333333334</ele><time>2026-03-28T10:21:56.999Z</time></trkpt><trkpt lat="36.75806932027691" lon="-4.5777048449659885"><ele>171.5</ele><time>2026-03-28T10:21:57.999Z</time></trkpt><trkpt lat="36.75816166385207" lon="-4.577720524609146"><ele>173.66666666666669</ele><time>2026-03-28T10:21:58.999Z</time></trkpt><trkpt lat="36.758258572395235" lon="-4.577710796371362"><ele>175.83333333333334</ele><time>2026-03-28T10:21:59.999Z</time></trkpt><trkpt lat="36.75833492644329" lon="-4.577724411156909"><ele>178.0</ele><time>2026-03-28T10:22:00.999Z</time></trkpt><trkpt lat="36.75840602995762" lon="-4.577733431709947"><ele>177.99999999999997</ele><time>2026-03-28T10:22:01.999Z</time></trkpt><trkpt lat="36.75847655225792" lon="-4.577740923180237"><ele>178.0</ele><time>2026-03-28T10:22:02.999Z</time></trkpt><trkpt lat="36.75854444269496" lon="-4.577747397512522"><ele>178.0</ele><time>2026-03-28T10:22:03.999Z</time></trkpt><trkpt lat="36.758615274599386" lon="-4.577745610245433"><ele>178.0</ele><time>2026-03-28T10:22:04.999Z</time></trkpt><trkpt lat="36.75869375419675" lon="-4.57773196596938"><ele>178.0</ele><time>2026-03-28T10:22:05.999Z</time></trkpt><trkpt lat="36.758762145018984" lon="-4.577703407378416"><ele>177.99999999999997</ele><time>2026-03-28T10:22:06.999Z</time></trkpt><trkpt lat="36.75883112397471" lon="-4.577671232065906"><ele>178.0</ele><time>2026-03-28T10:22:07.999Z</time></trkpt><trkpt lat="36.758895871043315" lon="-4.577644582635738"><ele>179.28571428571428</ele><time>2026-03-28T10:22:09Z</time></trkpt><trkpt lat="36.7589731789391" lon="-4.577633235649745"><ele>180.57142857142856</ele><time>2026-03-28T10:22:10Z</time></trkpt><trkpt lat="36.75905084320865" lon="-4.577641436251718"><ele>181.85714285714283</ele><time>2026-03-28T10:22:11Z</time></trkpt><trkpt lat="36.759115685537274" lon="-4.5776178835945345"><ele>183.14285714285714</ele><time>2026-03-28T10:22:12Z</time></trkpt><trkpt lat="36.759180644719315" lon="-4.577578752976012"><ele>184.42857142857144</ele><time>2026-03-28T10:22:13Z</time></trkpt><trkpt lat="36.75923734650604" lon="-4.577516593356189"><ele>185.7142857142857</ele><time>2026-03-28T10:22:14Z</time></trkpt><trkpt lat="36.75929239233414" lon="-4.57747672597298"><ele>187.0</ele><time>2026-03-28T10:22:15Z</time></trkpt><trkpt lat="36.7594021788178" lon="-4.577428473632641"><ele>187.66666666666669</ele><time>2026-03-28T10:22:17Z</time></trkpt><trkpt lat="36.75947165790635" lon="-4.577433421323905"><ele>188.33333333333334</ele><time>2026-03-28T10:22:18Z</time></trkpt><trkpt lat="36.75953614359035" lon="-4.577466696559293"><ele>189.0</ele><time>2026-03-28T10:22:19Z</time></trkpt><trkpt lat="36.75958704676743" lon="-4.57752445436724"><ele>189.66666666666666</ele><time>2026-03-28T10:22:20Z</time></trkpt><trkpt lat="36.7596560907503" lon="-4.5775612083707875"><ele>190.33333333333331</ele><time>2026-03-28T10:22:22Z</time></trkpt><trkpt lat="36.75973516688074" lon="-4.5775206549838074"><ele>191.0</ele><time>2026-03-28T10:22:24Z</time></trkpt><trkpt lat="36.759780466079775" lon="-4.577395603607485"><ele>191.0</ele><time>2026-03-28T10:22:26Z</time></trkpt><trkpt lat="36.75984357806369" lon="-4.5773240035200775"><ele>191.0</ele><time>2026-03-28T10:22:28Z</time></trkpt><trkpt lat="36.7599414530093" lon="-4.5773251687232035"><ele>191.0</ele><time>2026-03-28T10:22:30Z</time></trkpt><trkpt lat="36.75999227292482" lon="-4.5773917274643665"><ele>191.0</ele><time>2026-03-28T10:22:31Z</time></trkpt><trkpt lat="36.76007417628321" lon="-4.577432168471783"><ele>191.0</ele><time>2026-03-28T10:22:33Z</time></trkpt><trkpt lat="36.76019438348852" lon="-4.577435233195737"><ele>193.60000000000002</ele><time>2026-03-28T10:22:35Z</time></trkpt><trkpt lat="36.760306278156435" lon="-4.577421602361915"><ele>196.2</ele><time>2026-03-28T10:22:37Z</time></trkpt><trkpt lat="36.76041383913034" lon="-4.577450569232512"><ele>198.8</ele><time>2026-03-28T10:22:39Z</time></trkpt><trkpt lat="36.760473898818994" lon="-4.5775338344038685"><ele>201.39999999999998</ele><time>2026-03-28T10:22:41Z</time></trkpt><trkpt lat="36.76050433953949" lon="-4.577638443252855"><ele>204.0</ele><time>2026-03-28T10:22:43Z</time></trkpt><trkpt lat="36.76057160482107" lon="-4.577733206321313"><ele>204.0</ele><time>2026-03-28T10:22:45Z</time></trkpt><trkpt lat="36.76064350357566" lon="-4.577835338362225"><ele>204.0</ele><time>2026-03-28T10:22:47Z</time></trkpt><trkpt lat="36.76071993264668" lon="-4.577914967313961"><ele>204.0</ele><time>2026-03-28T10:22:49Z</time></trkpt><trkpt lat="36.7608196581059" lon="-4.577949040979298"><ele>204.0</ele><time>2026-03-28T10:22:51Z</time></trkpt><trkpt lat="36.760901804340065" lon="-4.577914991166609"><ele>204.0</ele><time>2026-03-28T10:22:53Z</time></trkpt><trkpt lat="36.760953074492164" lon="-4.5778010187641085"><ele>204.0</ele><time>2026-03-28T10:22:55Z</time></trkpt><trkpt lat="36.7609925554257" lon="-4.577695753213669"><ele>204.0</ele><time>2026-03-28T10:22:57Z</time></trkpt><trkpt lat="36.761013618676856" lon="-4.577563678866103"><ele>204.0</ele><time>2026-03-28T10:22:59Z</time></trkpt><trkpt lat="36.76103808803106" lon="-4.577429831671599"><ele>204.0</ele><time>2026-03-28T10:23:01Z</time></trkpt><trkpt lat="36.76103186822783" lon="-4.577312295637429"><ele>204.0</ele><time>2026-03-28T10:23:03Z</time></trkpt><trkpt lat="36.76104193657947" lon="-4.577220689097811"><ele>204.0</ele><time>2026-03-28T10:23:05Z</time></trkpt><trkpt lat="36.76103430118603" lon="-4.577139639133069"><ele>204.0</ele><time>2026-03-28T10:23:07Z</time></trkpt><trkpt lat="36.76093674971814" lon="-4.577129860283747"><ele>204.0</ele><time>2026-03-28T10:23:10Z</time></trkpt><trkpt lat="36.760871237884864" lon="-4.577140104748486"><ele>204.0</ele><time>2026-03-28T10:23:12Z</time></trkpt><trkpt lat="36.76080582731668" lon="-4.577137387702728"><ele>204.0</ele><time>2026-03-28T10:23:15Z</time></trkpt><trkpt lat="36.76089810838338" lon="-4.577145622038049"><ele>204.0</ele><time>2026-03-28T10:23:34.999Z</time></trkpt><trkpt lat="36.760991069999314" lon="-4.57712822882053"><ele>204.0</ele><time>2026-03-28T10:23:37.999Z</time></trkpt><trkpt lat="36.761050813181484" lon="-4.577195212877278"><ele>204.0</ele><time>2026-03-28T10:23:40.999Z</time></trkpt><trkpt lat="36.76104662021589" lon="-4.5772877444743365"><ele>204.0</ele><time>2026-03-28T10:23:43.999Z</time></trkpt><trkpt lat="36.761017334522045" lon="-4.577361937592656"><ele>204.0</ele><time>2026-03-28T10:23:45.999Z</time></trkpt><trkpt lat="36.761036614561235" lon="-4.577464567360662"><ele>204.0</ele><time>2026-03-28T10:23:47.999Z</time></trkpt><trkpt lat="36.76102622368079" lon="-4.5775438278079585"><ele>204.0</ele><time>2026-03-28T10:23:49.999Z</time></trkpt><trkpt lat="36.760986635387134" lon="-4.577653275630905"><ele>204.0</ele><time>2026-03-28T10:23:52.999Z</time></trkpt><trkpt lat="36.760955920287145" lon="-4.577750151886223"><ele>204.0</ele><time>2026-03-28T10:23:55.999Z</time></trkpt><trkpt lat="36.76093537402206" lon="-4.577826540509264"><ele>204.0</ele><time>2026-03-28T10:23:58.999Z</time></trkpt><trkpt lat="36.76099995538467" lon="-4.5778613570185955"><ele>204.0</ele><time>2026-03-28T10:24:09.999Z</time></trkpt><trkpt lat="36.76093470491237" lon="-4.577904008888415"><ele>204.0</ele><time>2026-03-28T10:24:29Z</time></trkpt><trkpt lat="36.76087040727522" lon="-4.577874555512907"><ele>204.0</ele><time>2026-03-28T10:24:33Z</time></trkpt><trkpt lat="36.76086673578847" lon="-4.577968871695913"><ele>204.0</ele><time>2026-03-28T10:24:38Z</time></trkpt><trkpt lat="36.76094325455509" lon="-4.577983307073375"><ele>203.66666666666666</ele><time>2026-03-28T10:24:41Z</time></trkpt><trkpt lat="36.761002498905995" lon="-4.577952288615532"><ele>203.33333333333331</ele><time>2026-03-28T10:24:43Z</time></trkpt><trkpt lat="36.761065862968216" lon="-4.577899702709071"><ele>203.0</ele><time>2026-03-28T10:24:46Z</time></trkpt><trkpt lat="36.7611287278101" lon="-4.577850215541103"><ele>202.66666666666666</ele><time>2026-03-28T10:24:49Z</time></trkpt><trkpt lat="36.76119721772682" lon="-4.5777890173406535"><ele>202.33333333333331</ele><time>2026-03-28T10:24:52Z</time></trkpt><trkpt lat="36.76125967531975" lon="-4.577707252272802"><ele>202.0</ele><time>2026-03-28T10:24:55Z</time></trkpt><trkpt lat="36.761295117679104" lon="-4.577632401895129"><ele>201.99999999999997</ele><time>2026-03-28T10:24:57Z</time></trkpt><trkpt lat="36.76135895562588" lon="-4.577553854131773"><ele>202.0</ele><time>2026-03-28T10:24:59Z</time></trkpt><trkpt lat="36.76142589955973" lon="-4.577550986801567"><ele>202.0</ele><time>2026-03-28T10:25:01Z</time></trkpt><trkpt lat="36.76148228370945" lon="-4.5776147520203345"><ele>202.0</ele><time>2026-03-28T10:25:03Z</time></trkpt><trkpt lat="36.76154758213535" lon="-4.577662163030691"><ele>201.99999999999997</ele><time>2026-03-28T10:25:05Z</time></trkpt><trkpt lat="36.76162969344682" lon="-4.577712001925232"><ele>202.0</ele><time>2026-03-28T10:25:07Z</time></trkpt><trkpt lat="36.76168324692116" lon="-4.577794356177772"><ele>197.49999999999997</ele><time>2026-03-28T10:25:09Z</time></trkpt><trkpt lat="36.761689787781876" lon="-4.577910807488917"><ele>193.0</ele><time>2026-03-28T10:25:11Z</time></trkpt><trkpt lat="36.76171144944921" lon="-4.578021168276955"><ele>188.5</ele><time>2026-03-28T10:25:13Z</time></trkpt><trkpt lat="36.76179131990412" lon="-4.578079742667656"><ele>184.0</ele><time>2026-03-28T10:25:15Z</time></trkpt><trkpt lat="36.761857594145205" lon="-4.578102059612729"><ele>179.5</ele><time>2026-03-28T10:25:17Z</time></trkpt><trkpt lat="36.76193549325898" lon="-4.5780771516767"><ele>175.0</ele><time>2026-03-28T10:25:19Z</time></trkpt><trkpt lat="36.76200609763745" lon="-4.578048008382201"><ele>172.8</ele><time>2026-03-28T10:25:21Z</time></trkpt><trkpt lat="36.76209000432396" lon="-4.5780415278057776"><ele>170.6</ele><time>2026-03-28T10:25:23Z</time></trkpt><trkpt lat="36.762187622174814" lon="-4.578041925188505"><ele>168.39999999999998</ele><time>2026-03-28T10:25:25Z</time></trkpt><trkpt lat="36.76230058256102" lon="-4.578036944483542"><ele>166.2</ele><time>2026-03-28T10:25:27Z</time></trkpt><trkpt lat="36.7623911200517" lon="-4.578029573292482"><ele>164.0</ele><time>2026-03-28T10:25:29Z</time></trkpt><trkpt lat="36.762475977708036" lon="-4.578001041986296"><ele>164.0</ele><time>2026-03-28T10:25:31Z</time></trkpt><trkpt lat="36.762561737640944" lon="-4.577972598225627"><ele>164.0</ele><time>2026-03-28T10:25:33Z</time></trkpt><trkpt lat="36.762649214843776" lon="-4.5779536200456485"><ele>164.0</ele><time>2026-03-28T10:25:35Z</time></trkpt><trkpt lat="36.762733983890314" lon="-4.577936613462184"><ele>164.0</ele><time>2026-03-28T10:25:37Z</time></trkpt><trkpt lat="36.76282554002013" lon="-4.577904171914135"><ele>164.0</ele><time>2026-03-28T10:25:39Z</time></trkpt><trkpt lat="36.76289430409301" lon="-4.577849091791269"><ele>164.0</ele><time>2026-03-28T10:25:41Z</time></trkpt><trkpt lat="36.76297357400877" lon="-4.577800110835284"><ele>165.83333333333331</ele><time>2026-03-28T10:25:43Z</time></trkpt><trkpt lat="36.763039153590874" lon="-4.577724358053895"><ele>167.66666666666666</ele><time>2026-03-28T10:25:45Z</time></trkpt><trkpt lat="36.76307338634805" lon="-4.577642752624155"><ele>169.5</ele><time>2026-03-28T10:26:02.999Z</time></trkpt><trkpt lat="36.763156345757245" lon="-4.577607445109279"><ele>171.33333333333334</ele><time>2026-03-28T10:26:05.999Z</time></trkpt><trkpt lat="36.763223427791104" lon="-4.577580326975213"><ele>173.16666666666669</ele><time>2026-03-28T10:26:07.999Z</time></trkpt><trkpt lat="36.76327553725419" lon="-4.577511935277619"><ele>175.0</ele><time>2026-03-28T10:26:09.999Z</time></trkpt><trkpt lat="36.763322527380915" lon="-4.577417751318422"><ele>175.0</ele><time>2026-03-28T10:26:11.999Z</time></trkpt><trkpt lat="36.76338496724317" lon="-4.577389340007356"><ele>175.0</ele><time>2026-03-28T10:26:13.999Z</time></trkpt><trkpt lat="36.76345175792396" lon="-4.57738409196934"><ele>175.0</ele><time>2026-03-28T10:26:15.999Z</time></trkpt><trkpt lat="36.76345455287328" lon="-4.577495238109011"><ele>175.0</ele><time>2026-03-28T10:26:18.999Z</time></trkpt><trkpt lat="36.76337346493091" lon="-4.577630269988585"><ele>175.0</ele><time>2026-03-28T10:26:21Z</time></trkpt><trkpt lat="36.76332540940677" lon="-4.577695633316337"><ele>175.0</ele><time>2026-03-28T10:26:22Z</time></trkpt><trkpt lat="36.76327762395061" lon="-4.577761654290019"><ele>175.0</ele><time>2026-03-28T10:26:23Z</time></trkpt><trkpt lat="36.763233767783014" lon="-4.577828148723548"><ele>175.0</ele><time>2026-03-28T10:26:24Z</time></trkpt><trkpt lat="36.76319763700567" lon="-4.577899277596441"><ele>175.0</ele><time>2026-03-28T10:26:25Z</time></trkpt><trkpt lat="36.76317268438829" lon="-4.577994843042243"><ele>175.0</ele><time>2026-03-28T10:26:26Z</time></trkpt><trkpt lat="36.76314046503287" lon="-4.5780990268164405"><ele>175.0</ele><time>2026-03-28T10:26:27Z</time></trkpt><trkpt lat="36.763101840376756" lon="-4.578194057929652"><ele>175.0</ele><time>2026-03-28T10:26:28Z</time></trkpt><trkpt lat="36.76306519796111" lon="-4.578296343294143"><ele>175.4</ele><time>2026-03-28T10:26:29Z</time></trkpt><trkpt lat="36.76302801809976" lon="-4.578422055135897"><ele>175.8</ele><time>2026-03-28T10:26:30Z</time></trkpt><trkpt lat="36.76299003377797" lon="-4.578563672136391"><ele>176.2</ele><time>2026-03-28T10:26:31Z</time></trkpt><trkpt lat="36.76295616942844" lon="-4.578707805776905"><ele>176.6</ele><time>2026-03-28T10:26:32Z</time></trkpt><trkpt lat="36.762926090986035" lon="-4.5788169786027755"><ele>177.0</ele><time>2026-03-28T10:26:33Z</time></trkpt><trkpt lat="36.76287678794208" lon="-4.578928903481476"><ele>177.0</ele><time>2026-03-28T10:26:35Z</time></trkpt><trkpt lat="36.762891777334964" lon="-4.579036594221858"><ele>177.0</ele><time>2026-03-28T10:26:37Z</time></trkpt><trkpt lat="36.76295967553348" lon="-4.579119567910839"><ele>177.0</ele><time>2026-03-28T10:26:39Z</time></trkpt><trkpt lat="36.76302336341219" lon="-4.579154006021235"><ele>177.0</ele><time>2026-03-28T10:26:40Z</time></trkpt><trkpt lat="36.7630978524338" lon="-4.5792110710006675"><ele>177.0</ele><time>2026-03-28T10:26:41Z</time></trkpt><trkpt lat="36.76317090385398" lon="-4.579255755552481"><ele>177.0</ele><time>2026-03-28T10:26:42Z</time></trkpt><trkpt lat="36.76325684758707" lon="-4.579296626517471"><ele>177.0</ele><time>2026-03-28T10:26:43Z</time></trkpt><trkpt lat="36.763341430452805" lon="-4.579321650631876"><ele>177.0</ele><time>2026-03-28T10:26:44Z</time></trkpt><trkpt lat="36.76342120616915" lon="-4.5793463466926285"><ele>177.0</ele><time>2026-03-28T10:26:45Z</time></trkpt><trkpt lat="36.76349381042925" lon="-4.579392168740701"><ele>177.0</ele><time>2026-03-28T10:26:46Z</time></trkpt><trkpt lat="36.7635448513601" lon="-4.579487701004394"><ele>177.0</ele><time>2026-03-28T10:26:47Z</time></trkpt><trkpt lat="36.76356618870335" lon="-4.5795756185984"><ele>177.0</ele><time>2026-03-28T10:26:48Z</time></trkpt><trkpt lat="36.763635046919475" lon="-4.579673071414455"><ele>176.5</ele><time>2026-03-28T10:26:50Z</time></trkpt><trkpt lat="36.76375115304177" lon="-4.5797442233920815"><ele>176.0</ele><time>2026-03-28T10:26:52Z</time></trkpt><trkpt lat="36.76382566613431" lon="-4.579762979697926"><ele>175.5</ele><time>2026-03-28T10:26:53Z</time></trkpt><trkpt lat="36.763898984254155" lon="-4.579785523558474"><ele>175.0</ele><time>2026-03-28T10:26:54Z</time></trkpt><trkpt lat="36.763960362011154" lon="-4.579819636548268"><ele>174.5</ele><time>2026-03-28T10:26:55Z</time></trkpt><trkpt lat="36.764003822512166" lon="-4.579894636654681"><ele>174.0</ele><time>2026-03-28T10:26:56Z</time></trkpt><trkpt lat="36.76409888003854" lon="-4.579991069197876"><ele>174.0</ele><time>2026-03-28T10:26:58Z</time></trkpt><trkpt lat="36.76416924520325" lon="-4.580010541744846"><ele>174.0</ele><time>2026-03-28T10:26:59Z</time></trkpt><trkpt lat="36.76425308129041" lon="-4.580040880842974"><ele>174.0</ele><time>2026-03-28T10:27:00Z</time></trkpt><trkpt lat="36.76434701122302" lon="-4.580078353396969"><ele>174.0</ele><time>2026-03-28T10:27:01Z</time></trkpt><trkpt lat="36.764436729826436" lon="-4.5801115405718695"><ele>174.0</ele><time>2026-03-28T10:27:02Z</time></trkpt><trkpt lat="36.764524880857" lon="-4.580168232304661"><ele>174.33333333333334</ele><time>2026-03-28T10:27:03Z</time></trkpt><trkpt lat="36.76461121598809" lon="-4.5802044504509105"><ele>174.66666666666666</ele><time>2026-03-28T10:27:04Z</time></trkpt><trkpt lat="36.764688932243494" lon="-4.580256271400061"><ele>175.0</ele><time>2026-03-28T10:27:05Z</time></trkpt><trkpt lat="36.764756184007425" lon="-4.58030759454613"><ele>175.33333333333331</ele><time>2026-03-28T10:27:06Z</time></trkpt><trkpt lat="36.76483142585932" lon="-4.5803608015089585"><ele>175.66666666666666</ele><time>2026-03-28T10:27:07Z</time></trkpt><trkpt lat="36.76489800053027" lon="-4.5804064722567635"><ele>176.0</ele><time>2026-03-28T10:27:08Z</time></trkpt><trkpt lat="36.76495585275643" lon="-4.5804510032223895"><ele>176.0</ele><time>2026-03-28T10:27:09Z</time></trkpt><trkpt lat="36.7650062666531" lon="-4.58051082670232"><ele>176.0</ele><time>2026-03-28T10:27:10Z</time></trkpt><trkpt lat="36.765067795613746" lon="-4.580567303719305"><ele>176.0</ele><time>2026-03-28T10:27:11Z</time></trkpt><trkpt lat="36.76511255468883" lon="-4.580640093241097"><ele>176.0</ele><time>2026-03-28T10:27:12Z</time></trkpt><trkpt lat="36.76517738741508" lon="-4.580737279303258"><ele>176.0</ele><time>2026-03-28T10:27:14Z</time></trkpt><trkpt lat="36.765274335232505" lon="-4.580688195835094"><ele>176.0</ele><time>2026-03-28T10:27:17Z</time></trkpt><trkpt lat="36.76535033823755" lon="-4.580579773583569"><ele>176.85714285714286</ele><time>2026-03-28T10:27:19Z</time></trkpt><trkpt lat="36.765399322547346" lon="-4.580521996139453"><ele>177.71428571428572</ele><time>2026-03-28T10:27:20Z</time></trkpt><trkpt lat="36.7654575564667" lon="-4.580471413240394"><ele>178.57142857142856</ele><time>2026-03-28T10:27:21Z</time></trkpt><trkpt lat="36.76552096911781" lon="-4.58042389244785"><ele>179.42857142857144</ele><time>2026-03-28T10:27:22Z</time></trkpt><trkpt lat="36.7655857427818" lon="-4.580383356610883"><ele>180.28571428571428</ele><time>2026-03-28T10:27:23Z</time></trkpt><trkpt lat="36.7656603262742" lon="-4.580358754859551"><ele>181.14285714285714</ele><time>2026-03-28T10:27:24Z</time></trkpt><trkpt lat="36.765731865937084" lon="-4.580330305906538"><ele>182.0</ele><time>2026-03-28T10:27:25Z</time></trkpt><trkpt lat="36.76580040697319" lon="-4.580306454944359"><ele>182.0</ele><time>2026-03-28T10:27:26Z</time></trkpt><trkpt lat="36.76587498390943" lon="-4.580292778889906"><ele>182.0</ele><time>2026-03-28T10:27:27Z</time></trkpt><trkpt lat="36.76594869069272" lon="-4.58025320451417"><ele>182.0</ele><time>2026-03-28T10:27:28Z</time></trkpt><trkpt lat="36.76601755419365" lon="-4.580234194778204"><ele>182.0</ele><time>2026-03-28T10:27:29Z</time></trkpt><trkpt lat="36.76608944661194" lon="-4.580238382144574"><ele>182.0</ele><time>2026-03-28T10:27:30Z</time></trkpt><trkpt lat="36.76615371332064" lon="-4.580237845432855"><ele>182.0</ele><time>2026-03-28T10:27:31Z</time></trkpt><trkpt lat="36.76620762356396" lon="-4.580296473894179"><ele>182.0</ele><time>2026-03-28T10:27:32Z</time></trkpt><trkpt lat="36.76624104558883" lon="-4.580392034745894"><ele>182.33333333333331</ele><time>2026-03-28T10:27:33Z</time></trkpt><trkpt lat="36.76628314135054" lon="-4.580467112900707"><ele>182.66666666666666</ele><time>2026-03-28T10:27:34Z</time></trkpt><trkpt lat="36.766328491813276" lon="-4.580526306463869"><ele>183.0</ele><time>2026-03-28T10:27:35Z</time></trkpt><trkpt lat="36.76643460550851" lon="-4.580632222229707"><ele>183.33333333333334</ele><time>2026-03-28T10:27:37Z</time></trkpt><trkpt lat="36.76650783099375" lon="-4.5806779721221265"><ele>183.66666666666669</ele><time>2026-03-28T10:27:38Z</time></trkpt><trkpt lat="36.76656441019711" lon="-4.58076299366115"><ele>184.0</ele><time>2026-03-28T10:27:39Z</time></trkpt><trkpt lat="36.76660807707503" lon="-4.580854682524993"><ele>184.0</ele><time>2026-03-28T10:27:40Z</time></trkpt><trkpt lat="36.766636741087666" lon="-4.5809390754092805"><ele>184.0</ele><time>2026-03-28T10:27:41Z</time></trkpt><trkpt lat="36.76664483599529" lon="-4.58102144856473"><ele>184.0</ele><time>2026-03-28T10:27:42Z</time></trkpt><trkpt lat="36.76663995222921" lon="-4.581107919469436"><ele>184.0</ele><time>2026-03-28T10:27:43Z</time></trkpt><trkpt lat="36.76660470205215" lon="-4.581200366454503"><ele>184.0</ele><time>2026-03-28T10:27:44Z</time></trkpt><trkpt lat="36.766566382220816" lon="-4.581282777559281"><ele>184.0</ele><time>2026-03-28T10:27:45Z</time></trkpt><trkpt lat="36.76652835182602" lon="-4.581371677008286"><ele>184.0</ele><time>2026-03-28T10:27:46Z</time></trkpt><trkpt lat="36.76647496185382" lon="-4.581455942080796"><ele>185.33333333333334</ele><time>2026-03-28T10:27:47Z</time></trkpt><trkpt lat="36.76642154959845" lon="-4.581534286244089"><ele>186.66666666666669</ele><time>2026-03-28T10:27:48Z</time></trkpt><trkpt lat="36.76635508868447" lon="-4.581584197992106"><ele>188.0</ele><time>2026-03-28T10:27:48.999Z</time></trkpt><trkpt lat="36.76629599341675" lon="-4.581616145645351"><ele>189.33333333333334</ele><time>2026-03-28T10:27:49.999Z</time></trkpt><trkpt lat="36.76618938360409" lon="-4.581564139551637"><ele>190.66666666666666</ele><time>2026-03-28T10:27:51.999Z</time></trkpt><trkpt lat="36.766124661331965" lon="-4.581629803858627"><ele>192.0</ele><time>2026-03-28T10:27:54.999Z</time></trkpt><trkpt lat="36.76607946886787" lon="-4.58174559209207"><ele>192.0</ele><time>2026-03-28T10:27:56.999Z</time></trkpt><trkpt lat="36.766083700375304" lon="-4.581869647235634"><ele>192.0</ele><time>2026-03-28T10:27:58.999Z</time></trkpt><trkpt lat="36.766115360617455" lon="-4.581990123851552"><ele>192.0</ele><time>2026-03-28T10:28:00.999Z</time></trkpt><trkpt lat="36.766169649470335" lon="-4.582085498593788"><ele>192.0</ele><time>2026-03-28T10:28:02.999Z</time></trkpt><trkpt lat="36.76626877778744" lon="-4.582129264257716"><ele>192.0</ele><time>2026-03-28T10:28:04.999Z</time></trkpt><trkpt lat="36.76633835776907" lon="-4.582163903347144"><ele>192.0</ele><time>2026-03-28T10:28:06.999Z</time></trkpt><trkpt lat="36.76641281279655" lon="-4.5821690683614085"><ele>192.0</ele><time>2026-03-28T10:28:36Z</time></trkpt><trkpt lat="36.76648126262553" lon="-4.5821834437150555"><ele>192.0</ele><time>2026-03-28T10:28:38Z</time></trkpt><trkpt lat="36.76658008066227" lon="-4.582190366578775"><ele>192.0</ele><time>2026-03-28T10:28:40Z</time></trkpt><trkpt lat="36.76669092248262" lon="-4.582125874711619"><ele>192.0</ele><time>2026-03-28T10:28:42Z</time></trkpt><trkpt lat="36.766739279709824" lon="-4.582056966665759"><ele>192.0</ele><time>2026-03-28T10:28:43Z</time></trkpt><trkpt lat="36.7667885394316" lon="-4.581997614550321"><ele>192.0</ele><time>2026-03-28T10:28:44Z</time></trkpt><trkpt lat="36.766838329391305" lon="-4.581942553529479"><ele>192.0</ele><time>2026-03-28T10:28:45Z</time></trkpt><trkpt lat="36.76692767533369" lon="-4.581848397566991"><ele>192.0</ele><time>2026-03-28T10:28:47Z</time></trkpt><trkpt lat="36.76700782895981" lon="-4.5818084017619025"><ele>192.0</ele><time>2026-03-28T10:28:49Z</time></trkpt><trkpt lat="36.767117917221405" lon="-4.58178315538233"><ele>192.0</ele><time>2026-03-28T10:28:51Z</time></trkpt><trkpt lat="36.76722965717345" lon="-4.581747050012989"><ele>192.16666666666666</ele><time>2026-03-28T10:28:53Z</time></trkpt><trkpt lat="36.767292610219165" lon="-4.581739269418742"><ele>192.33333333333331</ele><time>2026-03-28T10:28:54Z</time></trkpt><trkpt lat="36.76741431474617" lon="-4.58175274760153"><ele>192.5</ele><time>2026-03-28T10:28:56Z</time></trkpt><trkpt lat="36.767522142784905" lon="-4.5817980398554345"><ele>192.66666666666666</ele><time>2026-03-28T10:28:58Z</time></trkpt><trkpt lat="36.7675909602764" lon="-4.581815560576769"><ele>192.83333333333331</ele><time>2026-03-28T10:28:59Z</time></trkpt><trkpt lat="36.76765946797304" lon="-4.581847198130728"><ele>193.0</ele><time>2026-03-28T10:29:00Z</time></trkpt><trkpt lat="36.76777755639268" lon="-4.581882812277238"><ele>193.8</ele><time>2026-03-28T10:29:02Z</time></trkpt><trkpt lat="36.76790313646623" lon="-4.581905593383398"><ele>194.60000000000002</ele><time>2026-03-28T10:29:04Z</time></trkpt><trkpt lat="36.767972064381546" lon="-4.581890464531087"><ele>195.39999999999998</ele><time>2026-03-28T10:29:05Z</time></trkpt><trkpt lat="36.76803540386351" lon="-4.58186893323048"><ele>196.2</ele><time>2026-03-28T10:29:06Z</time></trkpt><trkpt lat="36.76814134677809" lon="-4.5818026029705035"><ele>197.0</ele><time>2026-03-28T10:29:08Z</time></trkpt><trkpt lat="36.76824021013269" lon="-4.5817541074643735"><ele>197.00000000000003</ele><time>2026-03-28T10:29:10Z</time></trkpt><trkpt lat="36.76834957558592" lon="-4.5817989675136745"><ele>197.0</ele><time>2026-03-28T10:29:12Z</time></trkpt><trkpt lat="36.768398123386994" lon="-4.58185231450272"><ele>197.0</ele><time>2026-03-28T10:29:13Z</time></trkpt><trkpt lat="36.768491435367736" lon="-4.581941912126015"><ele>197.0</ele><time>2026-03-28T10:29:15Z</time></trkpt><trkpt lat="36.768544431456" lon="-4.581992141004799"><ele>197.00000000000003</ele><time>2026-03-28T10:29:16Z</time></trkpt><trkpt lat="36.768589742274514" lon="-4.582062050417333"><ele>197.0</ele><time>2026-03-28T10:29:17Z</time></trkpt><trkpt lat="36.76863227424387" lon="-4.582130046417339"><ele>196.50000000000003</ele><time>2026-03-28T10:29:18Z</time></trkpt><trkpt lat="36.76865839293932" lon="-4.582208275489978"><ele>196.0</ele><time>2026-03-28T10:29:19Z</time></trkpt><trkpt lat="36.76866310485377" lon="-4.582294815581215"><ele>195.5</ele><time>2026-03-28T10:29:20Z</time></trkpt><trkpt lat="36.76865417296502" lon="-4.582375487648644"><ele>195.0</ele><time>2026-03-28T10:29:21Z</time></trkpt><trkpt lat="36.76864398306863" lon="-4.5824966213775795"><ele>194.50000000000003</ele><time>2026-03-28T10:29:23Z</time></trkpt><trkpt lat="36.768677779233755" lon="-4.582587231345785"><ele>194.0</ele><time>2026-03-28T10:29:25Z</time></trkpt><trkpt lat="36.76877895140532" lon="-4.582641235883784"><ele>194.0</ele><time>2026-03-28T10:29:27Z</time></trkpt><trkpt lat="36.76887868019487" lon="-4.582702352650036"><ele>194.0</ele><time>2026-03-28T10:29:29Z</time></trkpt><trkpt lat="36.76891530821408" lon="-4.5828054925026676"><ele>194.0</ele><time>2026-03-28T10:29:31Z</time></trkpt><trkpt lat="36.76886770303314" lon="-4.582906605824677"><ele>194.0</ele><time>2026-03-28T10:29:33Z</time></trkpt><trkpt lat="36.76877511940958" lon="-4.583013708412879"><ele>194.0</ele><time>2026-03-28T10:29:35Z</time></trkpt><trkpt lat="36.76872742299837" lon="-4.583074840567648"><ele>193.66666666666669</ele><time>2026-03-28T10:29:36Z</time></trkpt><trkpt lat="36.76867795548116" lon="-4.583137301571147"><ele>193.33333333333334</ele><time>2026-03-28T10:29:37Z</time></trkpt><trkpt lat="36.76863245255287" lon="-4.583200470889357"><ele>193.0</ele><time>2026-03-28T10:29:38Z</time></trkpt><trkpt lat="36.76858643973897" lon="-4.583271009970408"><ele>192.66666666666669</ele><time>2026-03-28T10:29:39Z</time></trkpt><trkpt lat="36.76853590017244" lon="-4.5833457169188545"><ele>192.33333333333334</ele><time>2026-03-28T10:29:40Z</time></trkpt><trkpt lat="36.768479632614024" lon="-4.5834204481840715"><ele>192.0</ele><time>2026-03-28T10:29:41Z</time></trkpt><trkpt lat="36.76841917499371" lon="-4.58349327794289"><ele>192.0</ele><time>2026-03-28T10:29:42Z</time></trkpt><trkpt lat="36.768357280109655" lon="-4.583567744685651"><ele>192.0</ele><time>2026-03-28T10:29:43Z</time></trkpt><trkpt lat="36.76829512360582" lon="-4.583637407223811"><ele>192.0</ele><time>2026-03-28T10:29:44Z</time></trkpt><trkpt lat="36.768227549158006" lon="-4.583715298655652"><ele>192.0</ele><time>2026-03-28T10:29:45Z</time></trkpt><trkpt lat="36.76816253989389" lon="-4.583794960680921"><ele>192.0</ele><time>2026-03-28T10:29:46Z</time></trkpt><trkpt lat="36.768092100774865" lon="-4.583874424126404"><ele>192.0</ele><time>2026-03-28T10:29:47Z</time></trkpt><trkpt lat="36.76802341652372" lon="-4.583940608600358"><ele>192.8</ele><time>2026-03-28T10:29:48Z</time></trkpt><trkpt lat="36.767958188488066" lon="-4.58400401233049"><ele>193.6</ele><time>2026-03-28T10:29:49Z</time></trkpt><trkpt lat="36.76790087361734" lon="-4.5840612407939645"><ele>194.4</ele><time>2026-03-28T10:29:50Z</time></trkpt><trkpt lat="36.76782623450824" lon="-4.584167508578242"><ele>195.20000000000002</ele><time>2026-03-28T10:29:52Z</time></trkpt><trkpt lat="36.76774598494892" lon="-4.584274686028252"><ele>196.0</ele><time>2026-03-28T10:29:54Z</time></trkpt><trkpt lat="36.76774000972585" lon="-4.584359228234665"><ele>196.0</ele><time>2026-03-28T10:29:55Z</time></trkpt><trkpt lat="36.76772592242304" lon="-4.584439714534478"><ele>196.0</ele><time>2026-03-28T10:29:56Z</time></trkpt><trkpt lat="36.76770383893046" lon="-4.584516409303098"><ele>196.0</ele><time>2026-03-28T10:29:57Z</time></trkpt><trkpt lat="36.76762745965129" lon="-4.584622860287994"><ele>196.0</ele><time>2026-03-28T10:29:59Z</time></trkpt><trkpt lat="36.76750737450185" lon="-4.58467735340744"><ele>196.0</ele><time>2026-03-28T10:30:01Z</time></trkpt><trkpt lat="36.76740058223941" lon="-4.584721630755112"><ele>192.0</ele><time>2026-03-28T10:30:03Z</time></trkpt><trkpt lat="36.7673183062631" lon="-4.584806158577704"><ele>188.0</ele><time>2026-03-28T10:30:05Z</time></trkpt><trkpt lat="36.767232737193375" lon="-4.584914230683313"><ele>184.0</ele><time>2026-03-28T10:30:07Z</time></trkpt><trkpt lat="36.76715227476133" lon="-4.5850206536871"><ele>180.0</ele><time>2026-03-28T10:30:09Z</time></trkpt><trkpt lat="36.767073853653166" lon="-4.585120073019296"><ele>180.0</ele><time>2026-03-28T10:30:11Z</time></trkpt><trkpt lat="36.76696655651896" lon="-4.585210638355634"><ele>180.0</ele><time>2026-03-28T10:30:12.999Z</time></trkpt><trkpt lat="36.766901798907334" lon="-4.585245381647352"><ele>180.0</ele><time>2026-03-28T10:30:13.999Z</time></trkpt><trkpt lat="36.76682575604244" lon="-4.585255038123317"><ele>180.0</ele><time>2026-03-28T10:30:14.999Z</time></trkpt><trkpt lat="36.76675064946669" lon="-4.585304069587749"><ele>180.0</ele><time>2026-03-28T10:30:15.999Z</time></trkpt><trkpt lat="36.76667952380275" lon="-4.585332775143821"><ele>180.0</ele><time>2026-03-28T10:30:16.999Z</time></trkpt><trkpt lat="36.766614777023" lon="-4.585358906261842"><ele>177.0</ele><time>2026-03-28T10:30:17.999Z</time></trkpt><trkpt lat="36.766552371649176" lon="-4.585385357816046"><ele>174.0</ele><time>2026-03-28T10:30:18.999Z</time></trkpt><trkpt lat="36.766465151732575" lon="-4.585419443016689"><ele>171.0</ele><time>2026-03-28T10:30:20.999Z</time></trkpt><trkpt lat="36.7663428486225" lon="-4.585483726716412"><ele>168.0</ele><time>2026-03-28T10:30:28.999Z</time></trkpt><trkpt lat="36.76627277586524" lon="-4.5855010651777635"><ele>165.0</ele><time>2026-03-28T10:30:31.999Z</time></trkpt><trkpt lat="36.7661809939258" lon="-4.585523976713953"><ele>165.0</ele><time>2026-03-28T10:30:35Z</time></trkpt><trkpt lat="36.76610787968681" lon="-4.585518675484738"><ele>165.0</ele><time>2026-03-28T10:30:37Z</time></trkpt><trkpt lat="36.76601943788255" lon="-4.585502742405337"><ele>165.0</ele><time>2026-03-28T10:30:39Z</time></trkpt><trkpt lat="36.76591703155503" lon="-4.585464297983291"><ele>165.0</ele><time>2026-03-28T10:30:41Z</time></trkpt><trkpt lat="36.76579826729989" lon="-4.585401493302511"><ele>165.0</ele><time>2026-03-28T10:30:43Z</time></trkpt><trkpt lat="36.765741163947325" lon="-4.585353452514008"><ele>165.0</ele><time>2026-03-28T10:30:44Z</time></trkpt><trkpt lat="36.765679838743615" lon="-4.585304011936317"><ele>165.0</ele><time>2026-03-28T10:30:45Z</time></trkpt><trkpt lat="36.76560950501857" lon="-4.5852743331267805"><ele>165.0</ele><time>2026-03-28T10:30:46Z</time></trkpt><trkpt lat="36.76554302856107" lon="-4.58522438262859"><ele>165.0</ele><time>2026-03-28T10:30:47Z</time></trkpt><trkpt lat="36.76548535109207" lon="-4.585160644954154"><ele>165.0</ele><time>2026-03-28T10:30:48Z</time></trkpt><trkpt lat="36.76541545139663" lon="-4.5851192337492925"><ele>165.0</ele><time>2026-03-28T10:30:49Z</time></trkpt><trkpt lat="36.7653446119925" lon="-4.585080003507195"><ele>165.00000000000003</ele><time>2026-03-28T10:30:50Z</time></trkpt><trkpt lat="36.765273527746686" lon="-4.585050766130282"><ele>165.0</ele><time>2026-03-28T10:30:51Z</time></trkpt><trkpt lat="36.765200151828694" lon="-4.585047080088385"><ele>165.0</ele><time>2026-03-28T10:30:52Z</time></trkpt><trkpt lat="36.76513593657044" lon="-4.585092070427965"><ele>165.0</ele><time>2026-03-28T10:30:53Z</time></trkpt><trkpt lat="36.76507161613063" lon="-4.585122189305999"><ele>165.0</ele><time>2026-03-28T10:30:54Z</time></trkpt><trkpt lat="36.765001767744124" lon="-4.585158364447915"><ele>165.00000000000003</ele><time>2026-03-28T10:30:55Z</time></trkpt><trkpt lat="36.76491900521568" lon="-4.5851696391592816"><ele>165.0</ele><time>2026-03-28T10:30:56Z</time></trkpt><trkpt lat="36.76483740194815" lon="-4.585181490782997"><ele>166.5</ele><time>2026-03-28T10:30:57Z</time></trkpt><trkpt lat="36.764753460638815" lon="-4.585194416533692"><ele>168.0</ele><time>2026-03-28T10:30:58Z</time></trkpt><trkpt lat="36.76467295738206" lon="-4.585211287255315"><ele>169.5</ele><time>2026-03-28T10:30:59Z</time></trkpt><trkpt lat="36.76459722352715" lon="-4.585232724262686"><ele>171.0</ele><time>2026-03-28T10:31:00Z</time></trkpt><trkpt lat="36.76453106795841" lon="-4.585251824677106"><ele>172.5</ele><time>2026-03-28T10:31:01Z</time></trkpt><trkpt lat="36.764439278968155" lon="-4.585245163290852"><ele>174.0</ele><time>2026-03-28T10:31:03Z</time></trkpt><trkpt lat="36.76433010896827" lon="-4.585216311259898"><ele>174.0</ele><time>2026-03-28T10:31:05Z</time></trkpt><trkpt lat="36.764264946240736" lon="-4.585195503175353"><ele>174.0</ele><time>2026-03-28T10:31:06Z</time></trkpt><trkpt lat="36.764201654889135" lon="-4.585176335775405"><ele>174.0</ele><time>2026-03-28T10:31:07Z</time></trkpt><trkpt lat="36.764065507637646" lon="-4.5851606619973015"><ele>174.0</ele><time>2026-03-28T10:31:09Z</time></trkpt><trkpt lat="36.76400538981495" lon="-4.585127765782243"><ele>174.0</ele><time>2026-03-28T10:31:10Z</time></trkpt><trkpt lat="36.76392928903149" lon="-4.585086205122513"><ele>174.0</ele><time>2026-03-28T10:31:12Z</time></trkpt><trkpt lat="36.76388781111547" lon="-4.585003059982449"><ele>174.0</ele><time>2026-03-28T10:31:14Z</time></trkpt><trkpt lat="36.76382525625088" lon="-4.584940146561223"><ele>174.0</ele><time>2026-03-28T10:31:16Z</time></trkpt><trkpt lat="36.763736089354296" lon="-4.584935225313876"><ele>174.0</ele><time>2026-03-28T10:31:18Z</time></trkpt><trkpt lat="36.76361839960932" lon="-4.584951748083603"><ele>174.0</ele><time>2026-03-28T10:31:20Z</time></trkpt><trkpt lat="36.76349339287248" lon="-4.584960309585122"><ele>174.0</ele><time>2026-03-28T10:31:22Z</time></trkpt><trkpt lat="36.76337390379297" lon="-4.58500378974589"><ele>171.79999999999998</ele><time>2026-03-28T10:31:24Z</time></trkpt><trkpt lat="36.76331543672439" lon="-4.585038230098954"><ele>169.6</ele><time>2026-03-28T10:31:25Z</time></trkpt><trkpt lat="36.76319789254174" lon="-4.585078947246052"><ele>167.4</ele><time>2026-03-28T10:31:27Z</time></trkpt><trkpt lat="36.76309768724624" lon="-4.58511269831874"><ele>165.2</ele><time>2026-03-28T10:31:29Z</time></trkpt><trkpt lat="36.76302299223285" lon="-4.585175830027283"><ele>163.0</ele><time>2026-03-28T10:31:31Z</time></trkpt><trkpt lat="36.76295382925413" lon="-4.585266783771366"><ele>163.0</ele><time>2026-03-28T10:31:33Z</time></trkpt><trkpt lat="36.76286795967717" lon="-4.5853335939263316"><ele>163.0</ele><time>2026-03-28T10:31:35Z</time></trkpt><trkpt lat="36.76275733448452" lon="-4.58534919003117"><ele>163.0</ele><time>2026-03-28T10:31:37Z</time></trkpt><trkpt lat="36.76266447353361" lon="-4.58534286762125"><ele>163.0</ele><time>2026-03-28T10:31:39Z</time></trkpt><trkpt lat="36.7625587451619" lon="-4.585343680536166"><ele>163.0</ele><time>2026-03-28T10:31:41Z</time></trkpt><trkpt lat="36.762448046664254" lon="-4.585366699133254"><ele>161.6</ele><time>2026-03-28T10:31:43Z</time></trkpt><trkpt lat="36.762348691111086" lon="-4.5853326132252725"><ele>160.20000000000002</ele><time>2026-03-28T10:31:45Z</time></trkpt><trkpt lat="36.76225717300675" lon="-4.585335393066477"><ele>158.8</ele><time>2026-03-28T10:31:47Z</time></trkpt><trkpt lat="36.762178071652464" lon="-4.58535903999512"><ele>157.4</ele><time>2026-03-28T10:31:49Z</time></trkpt><trkpt lat="36.7620943760893" lon="-4.585402574061326"><ele>156.0</ele><time>2026-03-28T10:31:51Z</time></trkpt><trkpt lat="36.76201072323591" lon="-4.585459508915018"><ele>154.16666666666666</ele><time>2026-03-28T10:31:53Z</time></trkpt><trkpt lat="36.76194383385851" lon="-4.585544091149022"><ele>152.33333333333334</ele><time>2026-03-28T10:31:55Z</time></trkpt><trkpt lat="36.76188712684871" lon="-4.585652777033827"><ele>150.5</ele><time>2026-03-28T10:31:57Z</time></trkpt><trkpt lat="36.76180828226283" lon="-4.585703078710097"><ele>148.66666666666669</ele><time>2026-03-28T10:31:59Z</time></trkpt><trkpt lat="36.76173466609829" lon="-4.5857512846382145"><ele>146.83333333333334</ele><time>2026-03-28T10:32:02Z</time></trkpt><trkpt lat="36.761659679433485" lon="-4.585721773021828"><ele>145.0</ele><time>2026-03-28T10:32:04Z</time></trkpt><trkpt lat="36.76157752534741" lon="-4.585685648433319"><ele>143.8</ele><time>2026-03-28T10:32:06Z</time></trkpt><trkpt lat="36.76151083656958" lon="-4.5856294755760585"><ele>142.6</ele><time>2026-03-28T10:32:08Z</time></trkpt><trkpt lat="36.761439237961184" lon="-4.585607702097744"><ele>141.4</ele><time>2026-03-28T10:32:10Z</time></trkpt><trkpt lat="36.76136216605283" lon="-4.58566084398437"><ele>140.2</ele><time>2026-03-28T10:32:12Z</time></trkpt><trkpt lat="36.76127300164223" lon="-4.585726215342548"><ele>139.0</ele><time>2026-03-28T10:32:14Z</time></trkpt><trkpt lat="36.76115782710394" lon="-4.585757868792368"><ele>139.0</ele><time>2026-03-28T10:32:16Z</time></trkpt><trkpt lat="36.761057647706764" lon="-4.585749971732343"><ele>139.0</ele><time>2026-03-28T10:32:18Z</time></trkpt><trkpt lat="36.76098407529508" lon="-4.585743808288797"><ele>139.0</ele><time>2026-03-28T10:32:20Z</time></trkpt><trkpt lat="36.76091461368591" lon="-4.585832970079755"><ele>139.0</ele><time>2026-03-28T10:32:22Z</time></trkpt><trkpt lat="36.760858822962426" lon="-4.585939756910451"><ele>139.0</ele><time>2026-03-28T10:32:24Z</time></trkpt><trkpt lat="36.76078758671252" lon="-4.586019257193205"><ele>138.8</ele><time>2026-03-28T10:32:26Z</time></trkpt><trkpt lat="36.76073446843346" lon="-4.586101033293848"><ele>138.60000000000002</ele><time>2026-03-28T10:32:28Z</time></trkpt><trkpt lat="36.76073834602993" lon="-4.586206359314594"><ele>138.4</ele><time>2026-03-28T10:32:30Z</time></trkpt><trkpt lat="36.76077377012323" lon="-4.586320018203786"><ele>138.20000000000002</ele><time>2026-03-28T10:32:31.999Z</time></trkpt><trkpt lat="36.760788435506534" lon="-4.586428185481737"><ele>138.0</ele><time>2026-03-28T10:32:33.999Z</time></trkpt><trkpt lat="36.760727140788575" lon="-4.58652115231362"><ele>134.6</ele><time>2026-03-28T10:32:35.999Z</time></trkpt><trkpt lat="36.76062155847668" lon="-4.586537455710811"><ele>131.20000000000002</ele><time>2026-03-28T10:32:37.999Z</time></trkpt><trkpt lat="36.760537310516156" lon="-4.586579311829587"><ele>127.8</ele><time>2026-03-28T10:32:40Z</time></trkpt><trkpt lat="36.760483552751566" lon="-4.586674001591485"><ele>124.4</ele><time>2026-03-28T10:32:42Z</time></trkpt><trkpt lat="36.760455343197854" lon="-4.586802536251757"><ele>121.0</ele><time>2026-03-28T10:32:44Z</time></trkpt><trkpt lat="36.76041864582319" lon="-4.586913769358759"><ele>121.00000000000001</ele><time>2026-03-28T10:32:46Z</time></trkpt><trkpt lat="36.760353155187886" lon="-4.58697878216053"><ele>121.0</ele><time>2026-03-28T10:32:48Z</time></trkpt><trkpt lat="36.76026920052021" lon="-4.586999889760426"><ele>121.0</ele><time>2026-03-28T10:32:50Z</time></trkpt><trkpt lat="36.760185903422034" lon="-4.586947593612113"><ele>121.0</ele><time>2026-03-28T10:32:52Z</time></trkpt><trkpt lat="36.760131987058614" lon="-4.586856487540751"><ele>121.00000000000001</ele><time>2026-03-28T10:32:54Z</time></trkpt><trkpt lat="36.76006119366642" lon="-4.58680969529241"><ele>121.0</ele><time>2026-03-28T10:32:56Z</time></trkpt><trkpt lat="36.759983539537835" lon="-4.586848289308493"><ele>121.83333333333334</ele><time>2026-03-28T10:32:58Z</time></trkpt><trkpt lat="36.759933285050415" lon="-4.58694518741678"><ele>122.66666666666667</ele><time>2026-03-28T10:33:00Z</time></trkpt><trkpt lat="36.75988886387096" lon="-4.587060850735973"><ele>123.5</ele><time>2026-03-28T10:33:02Z</time></trkpt><trkpt lat="36.759823267094674" lon="-4.5871672010065625"><ele>124.33333333333334</ele><time>2026-03-28T10:33:04Z</time></trkpt><trkpt lat="36.75976951016909" lon="-4.587223255520277"><ele>125.16666666666667</ele><time>2026-03-28T10:33:06Z</time></trkpt><trkpt lat="36.759699902194896" lon="-4.587252891917143"><ele>126.0</ele><time>2026-03-28T10:33:08Z</time></trkpt><trkpt lat="36.759635309751275" lon="-4.587296994085939"><ele>122.4</ele><time>2026-03-28T10:33:10Z</time></trkpt><trkpt lat="36.759643709699695" lon="-4.587390099445531"><ele>118.8</ele><time>2026-03-28T10:33:12Z</time></trkpt><trkpt lat="36.75976294957614" lon="-4.587421028777408"><ele>115.20000000000002</ele><time>2026-03-28T10:33:14Z</time></trkpt><trkpt lat="36.75986138618129" lon="-4.587433355251287"><ele>111.60000000000001</ele><time>2026-03-28T10:33:16Z</time></trkpt><trkpt lat="36.759956354654285" lon="-4.587451168693422"><ele>108.0</ele><time>2026-03-28T10:33:18Z</time></trkpt><trkpt lat="36.76004583287363" lon="-4.587510403319572"><ele>108.0</ele><time>2026-03-28T10:33:20Z</time></trkpt><trkpt lat="36.76009075123574" lon="-4.587632401485681"><ele>108.00000000000001</ele><time>2026-03-28T10:33:22Z</time></trkpt><trkpt lat="36.76010270456933" lon="-4.587765155219608"><ele>108.00000000000001</ele><time>2026-03-28T10:33:24Z</time></trkpt><trkpt lat="36.76008261495224" lon="-4.587918467783737"><ele>108.0</ele><time>2026-03-28T10:33:26Z</time></trkpt><trkpt lat="36.76006592907224" lon="-4.588008684076296"><ele>108.0</ele><time>2026-03-28T10:33:27Z</time></trkpt><trkpt lat="36.76006399756876" lon="-4.588101901317444"><ele>107.33333333333333</ele><time>2026-03-28T10:33:28Z</time></trkpt><trkpt lat="36.76009215708196" lon="-4.588190817218508"><ele>106.66666666666666</ele><time>2026-03-28T10:33:29Z</time></trkpt><trkpt lat="36.760121446466485" lon="-4.588276689680124"><ele>106.0</ele><time>2026-03-28T10:33:30Z</time></trkpt><trkpt lat="36.760146472367225" lon="-4.588365501184936"><ele>105.33333333333333</ele><time>2026-03-28T10:33:31Z</time></trkpt><trkpt lat="36.760168128615014" lon="-4.588459572566736"><ele>104.66666666666666</ele><time>2026-03-28T10:33:32Z</time></trkpt><trkpt lat="36.760188869935895" lon="-4.588552228294954"><ele>104.0</ele><time>2026-03-28T10:33:33Z</time></trkpt><trkpt lat="36.76020847142821" lon="-4.588632664346822"><ele>104.71428571428571</ele><time>2026-03-28T10:33:34Z</time></trkpt><trkpt lat="36.760257934242865" lon="-4.588754987247805"><ele>105.42857142857143</ele><time>2026-03-28T10:33:36Z</time></trkpt><trkpt lat="36.76028536969665" lon="-4.5888291494023346"><ele>106.14285714285714</ele><time>2026-03-28T10:33:37Z</time></trkpt><trkpt lat="36.760310491286695" lon="-4.588909822671195"><ele>106.85714285714286</ele><time>2026-03-28T10:33:38Z</time></trkpt><trkpt lat="36.760334573545826" lon="-4.588985730413199"><ele>107.57142857142858</ele><time>2026-03-28T10:33:39Z</time></trkpt><trkpt lat="36.760363583011724" lon="-4.589056171261087"><ele>108.28571428571429</ele><time>2026-03-28T10:33:40Z</time></trkpt><trkpt lat="36.76039736623317" lon="-4.5891228076823145"><ele>109.0</ele><time>2026-03-28T10:33:41Z</time></trkpt><trkpt lat="36.760482622925224" lon="-4.5892226486652605"><ele>109.00000000000001</ele><time>2026-03-28T10:33:43Z</time></trkpt><trkpt lat="36.760577268349465" lon="-4.589324831913985"><ele>109.0</ele><time>2026-03-28T10:33:45Z</time></trkpt><trkpt lat="36.76061067142388" lon="-4.589401852175969"><ele>109.0</ele><time>2026-03-28T10:33:46Z</time></trkpt><trkpt lat="36.760633147533156" lon="-4.589492021154855"><ele>109.0</ele><time>2026-03-28T10:33:47Z</time></trkpt><trkpt lat="36.760641328787926" lon="-4.589597120748262"><ele>109.00000000000001</ele><time>2026-03-28T10:33:48Z</time></trkpt><trkpt lat="36.76063666267656" lon="-4.589698791212119"><ele>109.0</ele><time>2026-03-28T10:33:49Z</time></trkpt><trkpt lat="36.76063108191355" lon="-4.5898014574406885"><ele>107.80000000000001</ele><time>2026-03-28T10:33:50Z</time></trkpt><trkpt lat="36.76063771524085" lon="-4.589897976724785"><ele>106.60000000000001</ele><time>2026-03-28T10:33:51Z</time></trkpt><trkpt lat="36.7606421793932" lon="-4.589986964725763"><ele>105.4</ele><time>2026-03-28T10:33:52Z</time></trkpt><trkpt lat="36.76065218984502" lon="-4.590127776253666"><ele>104.2</ele><time>2026-03-28T10:33:54Z</time></trkpt><trkpt lat="36.76073480697965" lon="-4.5902524965891365"><ele>103.0</ele><time>2026-03-28T10:33:56Z</time></trkpt><trkpt lat="36.760798041907954" lon="-4.590297613171658"><ele>102.99999999999999</ele><time>2026-03-28T10:33:57Z</time></trkpt><trkpt lat="36.760858531508845" lon="-4.590332121548571"><ele>103.0</ele><time>2026-03-28T10:33:58Z</time></trkpt><trkpt lat="36.76091878473877" lon="-4.590357545265118"><ele>103.0</ele><time>2026-03-28T10:33:59Z</time></trkpt><trkpt lat="36.76098772586139" lon="-4.590375328958562"><ele>103.0</ele><time>2026-03-28T10:34:00Z</time></trkpt><trkpt lat="36.761063790099804" lon="-4.590381906533231"><ele>103.0</ele><time>2026-03-28T10:34:01Z</time></trkpt><trkpt lat="36.761128718782416" lon="-4.590384416667459"><ele>102.99999999999999</ele><time>2026-03-28T10:34:02Z</time></trkpt><trkpt lat="36.761191984489145" lon="-4.590404263159809"><ele>103.0</ele><time>2026-03-28T10:34:03Z</time></trkpt><trkpt lat="36.76125208204755" lon="-4.590432987923911"><ele>104.33333333333334</ele><time>2026-03-28T10:34:04Z</time></trkpt><trkpt lat="36.76130109744756" lon="-4.590483495124881"><ele>105.66666666666667</ele><time>2026-03-28T10:34:05Z</time></trkpt><trkpt lat="36.76133820043848" lon="-4.59061785146924"><ele>107.0</ele><time>2026-03-28T10:34:07Z</time></trkpt><trkpt lat="36.761295492041675" lon="-4.590736524002351"><ele>108.33333333333334</ele><time>2026-03-28T10:34:09Z</time></trkpt><trkpt lat="36.76127401282204" lon="-4.590811354304206"><ele>109.66666666666667</ele><time>2026-03-28T10:34:10Z</time></trkpt><trkpt lat="36.761248726278424" lon="-4.590892388394543"><ele>111.0</ele><time>2026-03-28T10:34:11Z</time></trkpt><trkpt lat="36.76122874474782" lon="-4.590976736797623"><ele>111.0</ele><time>2026-03-28T10:34:12Z</time></trkpt><trkpt lat="36.761219278241654" lon="-4.591058070856531"><ele>111.0</ele><time>2026-03-28T10:34:13Z</time></trkpt><trkpt lat="36.761206756336605" lon="-4.591143859265816"><ele>111.0</ele><time>2026-03-28T10:34:14Z</time></trkpt><trkpt lat="36.76119734138063" lon="-4.591223605872858"><ele>111.0</ele><time>2026-03-28T10:34:15Z</time></trkpt><trkpt lat="36.76118940245255" lon="-4.591302869986748"><ele>111.0</ele><time>2026-03-28T10:34:16Z</time></trkpt><trkpt lat="36.761189309046" lon="-4.5913851372587455"><ele>111.0</ele><time>2026-03-28T10:34:17Z</time></trkpt><trkpt lat="36.761195120113214" lon="-4.591473381359773"><ele>111.0</ele><time>2026-03-28T10:34:18Z</time></trkpt><trkpt lat="36.76121022758019" lon="-4.591564883626839"><ele>111.14285714285714</ele><time>2026-03-28T10:34:19Z</time></trkpt><trkpt lat="36.76121814068333" lon="-4.591651234384374"><ele>111.28571428571429</ele><time>2026-03-28T10:34:20Z</time></trkpt><trkpt lat="36.76121292445276" lon="-4.591734373288131"><ele>111.42857142857143</ele><time>2026-03-28T10:34:21Z</time></trkpt><trkpt lat="36.76119079622253" lon="-4.591813283627174"><ele>111.57142857142857</ele><time>2026-03-28T10:34:22Z</time></trkpt><trkpt lat="36.76115440868997" lon="-4.591896914274746"><ele>111.71428571428572</ele><time>2026-03-28T10:34:23Z</time></trkpt><trkpt lat="36.76111340345416" lon="-4.591969754848361"><ele>111.85714285714286</ele><time>2026-03-28T10:34:24Z</time></trkpt><trkpt lat="36.76107151847975" lon="-4.5920309467824145"><ele>112.0</ele><time>2026-03-28T10:34:25Z</time></trkpt><trkpt lat="36.760991571425436" lon="-4.592128509156736"><ele>110.83333333333334</ele><time>2026-03-28T10:34:27Z</time></trkpt><trkpt lat="36.76087867055344" lon="-4.592186191614466"><ele>109.66666666666667</ele><time>2026-03-28T10:34:29Z</time></trkpt><trkpt lat="36.760804461891254" lon="-4.592186985356364"><ele>108.5</ele><time>2026-03-28T10:34:30Z</time></trkpt><trkpt lat="36.7607274551791" lon="-4.592177788422441"><ele>107.33333333333334</ele><time>2026-03-28T10:34:31Z</time></trkpt><trkpt lat="36.76065056300604" lon="-4.592182261945546"><ele>106.16666666666667</ele><time>2026-03-28T10:34:32Z</time></trkpt><trkpt lat="36.76057461058668" lon="-4.592207876895202"><ele>105.0</ele><time>2026-03-28T10:34:33Z</time></trkpt><trkpt lat="36.76050429398839" lon="-4.592256283188399"><ele>105.0</ele><time>2026-03-28T10:34:33.999Z</time></trkpt><trkpt lat="36.760439118198256" lon="-4.59232120619702"><ele>105.0</ele><time>2026-03-28T10:34:34.999Z</time></trkpt><trkpt lat="36.760375411807786" lon="-4.592386902857697"><ele>105.0</ele><time>2026-03-28T10:34:35.999Z</time></trkpt><trkpt lat="36.76030737706141" lon="-4.592451281263103"><ele>105.0</ele><time>2026-03-28T10:34:36.999Z</time></trkpt><trkpt lat="36.7602435144701" lon="-4.592515069430466"><ele>105.0</ele><time>2026-03-28T10:34:37.999Z</time></trkpt><trkpt lat="36.760174792388" lon="-4.592592335692699"><ele>105.0</ele><time>2026-03-28T10:34:38.999Z</time></trkpt><trkpt lat="36.760109771278124" lon="-4.592666417872765"><ele>105.2</ele><time>2026-03-28T10:34:39.999Z</time></trkpt><trkpt lat="36.76004276176254" lon="-4.592749805493174"><ele>105.4</ele><time>2026-03-28T10:34:40.999Z</time></trkpt><trkpt lat="36.759972974151665" lon="-4.592830465921225"><ele>105.6</ele><time>2026-03-28T10:34:41.999Z</time></trkpt><trkpt lat="36.75989988812328" lon="-4.592906758709772"><ele>105.8</ele><time>2026-03-28T10:34:42.999Z</time></trkpt><trkpt lat="36.75984386982267" lon="-4.593007037844336"><ele>106.0</ele><time>2026-03-28T10:34:43.999Z</time></trkpt><trkpt lat="36.75977505193983" lon="-4.593082745083691"><ele>106.83333333333334</ele><time>2026-03-28T10:34:45Z</time></trkpt><trkpt lat="36.75970772091834" lon="-4.593159780578562"><ele>107.66666666666667</ele><time>2026-03-28T10:34:46Z</time></trkpt><trkpt lat="36.759633311688695" lon="-4.5932304687759835"><ele>108.5</ele><time>2026-03-28T10:34:47Z</time></trkpt><trkpt lat="36.75959251670278" lon="-4.593328718929446"><ele>109.33333333333334</ele><time>2026-03-28T10:34:48Z</time></trkpt><trkpt lat="36.75955369953512" lon="-4.593411385345337"><ele>110.16666666666667</ele><time>2026-03-28T10:34:49Z</time></trkpt><trkpt lat="36.75951954878513" lon="-4.593504625764174"><ele>111.0</ele><time>2026-03-28T10:34:50Z</time></trkpt><trkpt lat="36.759500609275115" lon="-4.593617266108624"><ele>111.66666666666667</ele><time>2026-03-28T10:34:51Z</time></trkpt><trkpt lat="36.75946262749207" lon="-4.593728435669099"><ele>112.33333333333334</ele><time>2026-03-28T10:34:52Z</time></trkpt><trkpt lat="36.75945721446438" lon="-4.593831642592475"><ele>113.0</ele><time>2026-03-28T10:34:53Z</time></trkpt><trkpt lat="36.75944229994516" lon="-4.593926949575647"><ele>113.66666666666667</ele><time>2026-03-28T10:34:54Z</time></trkpt><trkpt lat="36.759422383413934" lon="-4.594035489483686"><ele>114.33333333333334</ele><time>2026-03-28T10:34:55Z</time></trkpt><trkpt lat="36.75941065680365" lon="-4.5941245040295176"><ele>115.0</ele><time>2026-03-28T10:34:56Z</time></trkpt><trkpt lat="36.75939497788081" lon="-4.594246482783108"><ele>115.00000000000001</ele><time>2026-03-28T10:34:58Z</time></trkpt><trkpt lat="36.75938943558584" lon="-4.594333199452417"><ele>115.0</ele><time>2026-03-28T10:35:13Z</time></trkpt><trkpt lat="36.75946500185299" lon="-4.5943223547043655"><ele>115.0</ele><time>2026-03-28T10:35:14Z</time></trkpt><trkpt lat="36.75956086944607" lon="-4.594387199440801"><ele>115.0</ele><time>2026-03-28T10:35:16Z</time></trkpt><trkpt lat="36.759623230112005" lon="-4.594413446526069"><ele>115.00000000000001</ele><time>2026-03-28T10:35:17Z</time></trkpt><trkpt lat="36.759744229490906" lon="-4.5944329980785525"><ele>115.0</ele><time>2026-03-28T10:35:19Z</time></trkpt><trkpt lat="36.75984429357676" lon="-4.594450001918248"><ele>115.00000000000001</ele><time>2026-03-28T10:35:21Z</time></trkpt><trkpt lat="36.759964330539354" lon="-4.594435699345824"><ele>115.0</ele><time>2026-03-28T10:35:23Z</time></trkpt><trkpt lat="36.76003785450468" lon="-4.594433416909591"><ele>115.0</ele><time>2026-03-28T10:35:24Z</time></trkpt><trkpt lat="36.7601164320087" lon="-4.594431419245217"><ele>115.0</ele><time>2026-03-28T10:35:25Z</time></trkpt><trkpt lat="36.76019853064342" lon="-4.594426873903343"><ele>115.00000000000001</ele><time>2026-03-28T10:35:26Z</time></trkpt><trkpt lat="36.76028797610551" lon="-4.5944160934752585"><ele>115.0</ele><time>2026-03-28T10:35:27Z</time></trkpt><trkpt lat="36.76035983598327" lon="-4.594412857553342"><ele>115.33333333333334</ele><time>2026-03-28T10:35:28Z</time></trkpt><trkpt lat="36.76043411769116" lon="-4.594409543237469"><ele>115.66666666666667</ele><time>2026-03-28T10:35:29Z</time></trkpt><trkpt lat="36.76051341634092" lon="-4.594403619522084"><ele>116.0</ele><time>2026-03-28T10:35:30Z</time></trkpt><trkpt lat="36.76059370816436" lon="-4.5943939174777775"><ele>116.33333333333334</ele><time>2026-03-28T10:35:31Z</time></trkpt><trkpt lat="36.76067812353233" lon="-4.594386607415474"><ele>116.66666666666667</ele><time>2026-03-28T10:35:32Z</time></trkpt><trkpt lat="36.760763726091135" lon="-4.594382238941859"><ele>117.0</ele><time>2026-03-28T10:35:33Z</time></trkpt><trkpt lat="36.760853203124014" lon="-4.594375391376405"><ele>117.0</ele><time>2026-03-28T10:35:34Z</time></trkpt><trkpt lat="36.76094604157658" lon="-4.594368968944627"><ele>116.99999999999999</ele><time>2026-03-28T10:35:35Z</time></trkpt><trkpt lat="36.761040991189816" lon="-4.5943811661464995"><ele>116.99999999999999</ele><time>2026-03-28T10:35:36Z</time></trkpt><trkpt lat="36.76113884803372" lon="-4.594404676095481"><ele>117.0</ele><time>2026-03-28T10:35:37Z</time></trkpt><trkpt lat="36.76123800334279" lon="-4.594423865876463"><ele>117.0</ele><time>2026-03-28T10:35:38Z</time></trkpt><trkpt lat="36.761335261147856" lon="-4.594440082461273"><ele>117.33333333333333</ele><time>2026-03-28T10:35:39Z</time></trkpt><trkpt lat="36.76142352026105" lon="-4.594455166939236"><ele>117.66666666666666</ele><time>2026-03-28T10:35:40Z</time></trkpt><trkpt lat="36.76150945434034" lon="-4.594467464520771"><ele>118.0</ele><time>2026-03-28T10:35:41Z</time></trkpt><trkpt lat="36.761594627318594" lon="-4.5944796543512245"><ele>118.33333333333333</ele><time>2026-03-28T10:35:42Z</time></trkpt><trkpt lat="36.76167446828476" lon="-4.594492950153823"><ele>118.66666666666666</ele><time>2026-03-28T10:35:43Z</time></trkpt><trkpt lat="36.76175369710924" lon="-4.594504848259687"><ele>119.0</ele><time>2026-03-28T10:35:44Z</time></trkpt><trkpt lat="36.7618327747845" lon="-4.594510804098064"><ele>119.49999999999999</ele><time>2026-03-28T10:35:45Z</time></trkpt><trkpt lat="36.76191580825462" lon="-4.594500377286179"><ele>120.0</ele><time>2026-03-28T10:35:46Z</time></trkpt><trkpt lat="36.761988595316055" lon="-4.594489031051588"><ele>120.5</ele><time>2026-03-28T10:35:47Z</time></trkpt><trkpt lat="36.7620597435964" lon="-4.594491709773054"><ele>121.0</ele><time>2026-03-28T10:35:48Z</time></trkpt><trkpt lat="36.76213508039385" lon="-4.594498881678417"><ele>121.49999999999999</ele><time>2026-03-28T10:35:49Z</time></trkpt><trkpt lat="36.762211696491306" lon="-4.594519927080639"><ele>122.0</ele><time>2026-03-28T10:35:50Z</time></trkpt><trkpt lat="36.762287251138375" lon="-4.594537139261802"><ele>121.99999999999999</ele><time>2026-03-28T10:35:51Z</time></trkpt><trkpt lat="36.762360207929305" lon="-4.594560920588079"><ele>122.0</ele><time>2026-03-28T10:35:52Z</time></trkpt><trkpt lat="36.762475558721114" lon="-4.594623063261087"><ele>122.0</ele><time>2026-03-28T10:35:54Z</time></trkpt><trkpt lat="36.762544690151366" lon="-4.59465413058432"><ele>122.0</ele><time>2026-03-28T10:35:55Z</time></trkpt><trkpt lat="36.76262219652156" lon="-4.5946845337852364"><ele>121.99999999999999</ele><time>2026-03-28T10:35:56Z</time></trkpt><trkpt lat="36.76270196668968" lon="-4.594724538792641"><ele>122.0</ele><time>2026-03-28T10:35:57Z</time></trkpt><trkpt lat="36.76277684520203" lon="-4.59477468179934"><ele>124.0</ele><time>2026-03-28T10:35:58Z</time></trkpt><trkpt lat="36.76285654293958" lon="-4.594827148568109"><ele>125.99999999999999</ele><time>2026-03-28T10:35:59Z</time></trkpt><trkpt lat="36.76294522646083" lon="-4.594855463031039"><ele>127.99999999999999</ele><time>2026-03-28T10:36:00Z</time></trkpt><trkpt lat="36.76302872054458" lon="-4.59490338570896"><ele>130.0</ele><time>2026-03-28T10:36:01Z</time></trkpt><trkpt lat="36.76311237383046" lon="-4.594964234071012"><ele>132.0</ele><time>2026-03-28T10:36:02Z</time></trkpt><trkpt lat="36.76319760015067" lon="-4.595004914826476"><ele>132.0</ele><time>2026-03-28T10:36:03Z</time></trkpt><trkpt lat="36.763281632838925" lon="-4.59505062136812"><ele>132.0</ele><time>2026-03-28T10:36:04Z</time></trkpt><trkpt lat="36.763363513346" lon="-4.595086024078424"><ele>132.0</ele><time>2026-03-28T10:36:05Z</time></trkpt><trkpt lat="36.76344608115019" lon="-4.595105422742539"><ele>132.0</ele><time>2026-03-28T10:36:06Z</time></trkpt><trkpt lat="36.76353179841959" lon="-4.595107889412042"><ele>132.0</ele><time>2026-03-28T10:36:07Z</time></trkpt><trkpt lat="36.76362039987633" lon="-4.59508688078028"><ele>132.0</ele><time>2026-03-28T10:36:08Z</time></trkpt><trkpt lat="36.76370910389584" lon="-4.595050469663594"><ele>133.4</ele><time>2026-03-28T10:36:09Z</time></trkpt><trkpt lat="36.763796734306155" lon="-4.595013007494545"><ele>134.79999999999998</ele><time>2026-03-28T10:36:10Z</time></trkpt><trkpt lat="36.76389116811006" lon="-4.594979747865637"><ele>136.2</ele><time>2026-03-28T10:36:11Z</time></trkpt><trkpt lat="36.763996738862446" lon="-4.594942803153035"><ele>137.6</ele><time>2026-03-28T10:36:12Z</time></trkpt><trkpt lat="36.7641039456186" lon="-4.594900024909721"><ele>139.0</ele><time>2026-03-28T10:36:13Z</time></trkpt><trkpt lat="36.764199451199254" lon="-4.594859611637729"><ele>139.0</ele><time>2026-03-28T10:36:14Z</time></trkpt><trkpt lat="36.76431156253879" lon="-4.594823483224628"><ele>139.0</ele><time>2026-03-28T10:36:15Z</time></trkpt><trkpt lat="36.76442372518722" lon="-4.594782722408198"><ele>139.0</ele><time>2026-03-28T10:36:16Z</time></trkpt><trkpt lat="36.7645419523881" lon="-4.594792974119862"><ele>139.0</ele><time>2026-03-28T10:36:17Z</time></trkpt><trkpt lat="36.76466108718927" lon="-4.594790240870902"><ele>142.0</ele><time>2026-03-28T10:36:18Z</time></trkpt><trkpt lat="36.764776014515355" lon="-4.594796134257317"><ele>145.0</ele><time>2026-03-28T10:36:19Z</time></trkpt><trkpt lat="36.764892864531376" lon="-4.594798307411689"><ele>148.0</ele><time>2026-03-28T10:36:20Z</time></trkpt><trkpt lat="36.765008273104975" lon="-4.5947923627763965"><ele>151.0</ele><time>2026-03-28T10:36:21Z</time></trkpt><trkpt lat="36.76512417378052" lon="-4.5947852862348135"><ele>151.5</ele><time>2026-03-28T10:36:22Z</time></trkpt><trkpt lat="36.7652385152901" lon="-4.594781542529791"><ele>152.0</ele><time>2026-03-28T10:36:23Z</time></trkpt><trkpt lat="36.76535379189719" lon="-4.594776964781749"><ele>152.5</ele><time>2026-03-28T10:36:24Z</time></trkpt><trkpt lat="36.765468533450345" lon="-4.594764586740883"><ele>153.0</ele><time>2026-03-28T10:36:25Z</time></trkpt><trkpt lat="36.7655804726492" lon="-4.5947491585420135"><ele>153.0</ele><time>2026-03-28T10:36:26Z</time></trkpt><trkpt lat="36.76569350983365" lon="-4.594736802085051"><ele>153.0</ele><time>2026-03-28T10:36:27Z</time></trkpt><trkpt lat="36.76580376699293" lon="-4.594721836204993"><ele>153.0</ele><time>2026-03-28T10:36:28Z</time></trkpt><trkpt lat="36.76590727755052" lon="-4.594728906803238"><ele>153.0</ele><time>2026-03-28T10:36:29Z</time></trkpt><trkpt lat="36.765992891030784" lon="-4.594723356207276"><ele>153.0</ele><time>2026-03-28T10:36:30Z</time></trkpt><trkpt lat="36.766057323935506" lon="-4.594714875168009"><ele>153.16666666666666</ele><time>2026-03-28T10:36:31Z</time></trkpt><trkpt lat="36.76614755061592" lon="-4.594677122186752"><ele>153.33333333333334</ele><time>2026-03-28T10:36:33Z</time></trkpt><trkpt lat="36.76618331327021" lon="-4.594593876287682"><ele>153.5</ele><time>2026-03-28T10:36:34Z</time></trkpt><trkpt lat="36.766274060178425" lon="-4.594482621287192"><ele>153.66666666666669</ele><time>2026-03-28T10:36:36Z</time></trkpt><trkpt lat="36.76632726956085" lon="-4.594418594551948"><ele>153.83333333333334</ele><time>2026-03-28T10:36:37Z</time></trkpt><trkpt lat="36.766370370057835" lon="-4.5943491216452745"><ele>154.0</ele><time>2026-03-28T10:36:38Z</time></trkpt><trkpt lat="36.76640277009759" lon="-4.594280172052961"><ele>153.16666666666669</ele><time>2026-03-28T10:36:38.999Z</time></trkpt><trkpt lat="36.766477222349195" lon="-4.5941661800242715"><ele>152.33333333333334</ele><time>2026-03-28T10:36:40.999Z</time></trkpt><trkpt lat="36.766590605109705" lon="-4.594139108657127"><ele>151.5</ele><time>2026-03-28T10:36:42.999Z</time></trkpt><trkpt lat="36.766654463599586" lon="-4.594151692690819"><ele>150.66666666666666</ele><time>2026-03-28T10:36:43.999Z</time></trkpt><trkpt lat="36.766708231374174" lon="-4.594221154839996"><ele>149.83333333333331</ele><time>2026-03-28T10:36:44.999Z</time></trkpt><trkpt lat="36.76677226919434" lon="-4.594237863974867"><ele>149.0</ele><time>2026-03-28T10:36:45.999Z</time></trkpt><trkpt lat="36.766837452177995" lon="-4.594224583414921"><ele>150.0</ele><time>2026-03-28T10:36:46.999Z</time></trkpt><trkpt lat="36.76689898330287" lon="-4.594190484332297"><ele>151.0</ele><time>2026-03-28T10:36:47.999Z</time></trkpt><trkpt lat="36.767002467063804" lon="-4.594102100623233"><ele>152.0</ele><time>2026-03-28T10:36:49.999Z</time></trkpt><trkpt lat="36.76706014043344" lon="-4.594063683769878"><ele>153.0</ele><time>2026-03-28T10:36:51Z</time></trkpt><trkpt lat="36.76717703559148" lon="-4.594040056538947"><ele>154.0</ele><time>2026-03-28T10:36:53Z</time></trkpt><trkpt lat="36.7672786146099" lon="-4.594076055419415"><ele>154.0</ele><time>2026-03-28T10:36:55Z</time></trkpt><trkpt lat="36.76734989440456" lon="-4.594009041554857"><ele>154.0</ele><time>2026-03-28T10:36:57Z</time></trkpt><trkpt lat="36.7673779814086" lon="-4.593853846104533"><ele>154.0</ele><time>2026-03-28T10:36:59Z</time></trkpt><trkpt lat="36.7674166061543" lon="-4.593715952745429"><ele>154.0</ele><time>2026-03-28T10:37:01Z</time></trkpt><trkpt lat="36.76747978218029" lon="-4.593622479300905"><ele>154.0</ele><time>2026-03-28T10:37:03Z</time></trkpt><trkpt lat="36.76753809110731" lon="-4.593535418970487"><ele>149.75</ele><time>2026-03-28T10:37:05Z</time></trkpt><trkpt lat="36.76764017048018" lon="-4.59353597866518"><ele>145.5</ele><time>2026-03-28T10:37:07Z</time></trkpt><trkpt lat="36.76774705773783" lon="-4.593522298348762"><ele>141.25</ele><time>2026-03-28T10:37:09Z</time></trkpt><trkpt lat="36.76786133837445" lon="-4.593539840992684"><ele>137.0</ele><time>2026-03-28T10:37:11Z</time></trkpt><trkpt lat="36.76799159096183" lon="-4.593551398812833"><ele>138.16666666666666</ele><time>2026-03-28T10:37:13Z</time></trkpt><trkpt lat="36.76805338038036" lon="-4.593597866905072"><ele>139.33333333333331</ele><time>2026-03-28T10:37:14Z</time></trkpt><trkpt lat="36.76808213250459" lon="-4.593691779984709"><ele>140.5</ele><time>2026-03-28T10:37:15Z</time></trkpt><trkpt lat="36.768109671703144" lon="-4.593775687048191"><ele>141.66666666666666</ele><time>2026-03-28T10:37:16Z</time></trkpt><trkpt lat="36.76815591299073" lon="-4.593846292237063"><ele>142.83333333333334</ele><time>2026-03-28T10:37:17Z</time></trkpt><trkpt lat="36.7682312187352" lon="-4.593962074010507"><ele>144.0</ele><time>2026-03-28T10:37:19Z</time></trkpt><trkpt lat="36.768322705740765" lon="-4.594041667915486"><ele>144.0</ele><time>2026-03-28T10:37:21Z</time></trkpt><trkpt lat="36.76843234809843" lon="-4.594074998468371"><ele>144.0</ele><time>2026-03-28T10:37:23Z</time></trkpt><trkpt lat="36.768542504580765" lon="-4.594083965675629"><ele>144.0</ele><time>2026-03-28T10:37:25Z</time></trkpt><trkpt lat="36.76864260209011" lon="-4.594049958790712"><ele>144.0</ele><time>2026-03-28T10:37:27Z</time></trkpt><trkpt lat="36.768694410242276" lon="-4.593910057956147"><ele>143.0</ele><time>2026-03-28T10:37:29Z</time></trkpt><trkpt lat="36.76872324440981" lon="-4.5938363538184515"><ele>142.0</ele><time>2026-03-28T10:37:30Z</time></trkpt><trkpt lat="36.76875178487975" lon="-4.593758580328561"><ele>141.0</ele><time>2026-03-28T10:37:31Z</time></trkpt><trkpt lat="36.76877807729451" lon="-4.593682691471738"><ele>140.0</ele><time>2026-03-28T10:37:32Z</time></trkpt><trkpt lat="36.76883450631933" lon="-4.593565078495507"><ele>139.0</ele><time>2026-03-28T10:37:34Z</time></trkpt><trkpt lat="36.76887072298881" lon="-4.593433809086034"><ele>138.0</ele><time>2026-03-28T10:37:36Z</time></trkpt><trkpt lat="36.76886755685037" lon="-4.593303491402971"><ele>137.6</ele><time>2026-03-28T10:37:38Z</time></trkpt><trkpt lat="36.76882654894549" lon="-4.5931645470318445"><ele>137.20000000000002</ele><time>2026-03-28T10:37:40Z</time></trkpt><trkpt lat="36.76878079322951" lon="-4.593024835551661"><ele>136.8</ele><time>2026-03-28T10:37:42Z</time></trkpt><trkpt lat="36.7687801274004" lon="-4.592944111789327"><ele>136.4</ele><time>2026-03-28T10:37:43Z</time></trkpt><trkpt lat="36.768878108621365" lon="-4.592811661537602"><ele>136.0</ele><time>2026-03-28T10:37:45Z</time></trkpt><trkpt lat="36.76897437914681" lon="-4.592793533745949"><ele>136.0</ele><time>2026-03-28T10:37:47Z</time></trkpt><trkpt lat="36.76907122657109" lon="-4.592791664350524"><ele>136.0</ele><time>2026-03-28T10:37:49Z</time></trkpt><trkpt lat="36.769118002397896" lon="-4.592738373410009"><ele>136.0</ele><time>2026-03-28T10:37:50Z</time></trkpt><trkpt lat="36.769183079555134" lon="-4.592692386126257"><ele>136.0</ele><time>2026-03-28T10:37:51Z</time></trkpt><trkpt lat="36.76925989185768" lon="-4.59280292109555"><ele>136.0</ele><time>2026-03-28T10:37:52Z</time></trkpt><trkpt lat="36.76931478044267" lon="-4.592898473577659"><ele>136.0</ele><time>2026-03-28T10:37:53Z</time></trkpt><trkpt lat="36.76937500075014" lon="-4.592959938879765"><ele>138.0</ele><time>2026-03-28T10:37:54Z</time></trkpt><trkpt lat="36.769436935549585" lon="-4.593025166217359"><ele>140.0</ele><time>2026-03-28T10:37:55Z</time></trkpt><trkpt lat="36.76949594569928" lon="-4.59309839235194"><ele>142.0</ele><time>2026-03-28T10:37:56Z</time></trkpt><trkpt lat="36.76957642280136" lon="-4.593141655531506"><ele>144.0</ele><time>2026-03-28T10:37:57Z</time></trkpt><trkpt lat="36.76964060622035" lon="-4.593195050646492"><ele>146.0</ele><time>2026-03-28T10:37:58Z</time></trkpt><trkpt lat="36.769705390215535" lon="-4.59324716906009"><ele>148.0</ele><time>2026-03-28T10:37:59Z</time></trkpt><trkpt lat="36.76977549327432" lon="-4.593292533911158"><ele>148.0</ele><time>2026-03-28T10:38:00Z</time></trkpt><trkpt lat="36.76985787227461" lon="-4.59333688038925"><ele>148.0</ele><time>2026-03-28T10:38:01Z</time></trkpt><trkpt lat="36.76995127024972" lon="-4.59332354593706"><ele>148.0</ele><time>2026-03-28T10:38:02Z</time></trkpt><trkpt lat="36.770042034974296" lon="-4.593324009922119"><ele>148.0</ele><time>2026-03-28T10:38:03Z</time></trkpt><trkpt lat="36.770122486204365" lon="-4.593321860148705"><ele>148.0</ele><time>2026-03-28T10:38:04Z</time></trkpt><trkpt lat="36.77023952381476" lon="-4.593283209413061"><ele>149.0</ele><time>2026-03-28T10:38:06Z</time></trkpt><trkpt lat="36.77029657926377" lon="-4.593244806288102"><ele>150.0</ele><time>2026-03-28T10:38:07Z</time></trkpt><trkpt lat="36.770350390426465" lon="-4.593191078098367"><ele>151.0</ele><time>2026-03-28T10:38:08Z</time></trkpt><trkpt lat="36.77044460236221" lon="-4.593087928316765"><ele>152.0</ele><time>2026-03-28T10:38:10Z</time></trkpt><trkpt lat="36.77049890910331" lon="-4.593031478994941"><ele>153.0</ele><time>2026-03-28T10:38:11Z</time></trkpt><trkpt lat="36.77058661655036" lon="-4.592940878643113"><ele>154.0</ele><time>2026-03-28T10:38:13Z</time></trkpt><trkpt lat="36.770698160322745" lon="-4.592968069675556"><ele>154.0</ele><time>2026-03-28T10:38:15Z</time></trkpt><trkpt lat="36.77077347921256" lon="-4.593005003356028"><ele>154.0</ele><time>2026-03-28T10:38:18Z</time></trkpt><trkpt lat="36.7708349553358" lon="-4.593040542396375"><ele>154.0</ele><time>2026-03-28T10:38:21Z</time></trkpt><trkpt lat="36.77090339911446" lon="-4.593069124355836"><ele>154.0</ele><time>2026-03-28T10:38:23Z</time></trkpt><trkpt lat="36.77098889451861" lon="-4.593005940345618"><ele>154.0</ele><time>2026-03-28T10:38:25Z</time></trkpt><trkpt lat="36.77111052296519" lon="-4.592960404965759"><ele>154.0</ele><time>2026-03-28T10:38:26.999Z</time></trkpt><trkpt lat="36.77117235025616" lon="-4.5929304540720475"><ele>155.83333333333334</ele><time>2026-03-28T10:38:27.999Z</time></trkpt><trkpt lat="36.77124272034053" lon="-4.592895209004362"><ele>157.66666666666669</ele><time>2026-03-28T10:38:28.999Z</time></trkpt><trkpt lat="36.77131794717187" lon="-4.592857531418779"><ele>159.5</ele><time>2026-03-28T10:38:29.999Z</time></trkpt><trkpt lat="36.77139242666706" lon="-4.592817116586191"><ele>161.33333333333334</ele><time>2026-03-28T10:38:30.999Z</time></trkpt><trkpt lat="36.771464980525494" lon="-4.592771569577032"><ele>163.16666666666666</ele><time>2026-03-28T10:38:31.999Z</time></trkpt><trkpt lat="36.77153234767826" lon="-4.592718995330959"><ele>165.0</ele><time>2026-03-28T10:38:32.999Z</time></trkpt><trkpt lat="36.77159513962005" lon="-4.59265306807739"><ele>165.0</ele><time>2026-03-28T10:38:33.999Z</time></trkpt><trkpt lat="36.77166758710886" lon="-4.592604081949009"><ele>165.0</ele><time>2026-03-28T10:38:34.999Z</time></trkpt><trkpt lat="36.77173006979244" lon="-4.592545004285316"><ele>165.0</ele><time>2026-03-28T10:38:35.999Z</time></trkpt><trkpt lat="36.77179509517194" lon="-4.592487042111295"><ele>165.0</ele><time>2026-03-28T10:38:36.999Z</time></trkpt><trkpt lat="36.771849615999784" lon="-4.592415092515801"><ele>165.0</ele><time>2026-03-28T10:38:37.999Z</time></trkpt><trkpt lat="36.771914997794575" lon="-4.59235810574569"><ele>165.0</ele><time>2026-03-28T10:38:38.999Z</time></trkpt><trkpt lat="36.771978987629105" lon="-4.59230761215122"><ele>167.33333333333334</ele><time>2026-03-28T10:38:39.999Z</time></trkpt><trkpt lat="36.77204663380731" lon="-4.592254233798567"><ele>169.66666666666666</ele><time>2026-03-28T10:38:40.999Z</time></trkpt><trkpt lat="36.77212195493383" lon="-4.592196355565516"><ele>172.0</ele><time>2026-03-28T10:38:41.999Z</time></trkpt><trkpt lat="36.77219534854359" lon="-4.592142386984267"><ele>174.33333333333331</ele><time>2026-03-28T10:38:42.999Z</time></trkpt><trkpt lat="36.77226485440429" lon="-4.592093311394401"><ele>176.66666666666666</ele><time>2026-03-28T10:38:43.999Z</time></trkpt><trkpt lat="36.77233501540227" lon="-4.592047246942658"><ele>179.0</ele><time>2026-03-28T10:38:44.999Z</time></trkpt><trkpt lat="36.77239866330945" lon="-4.59201213397644"><ele>179.0</ele><time>2026-03-28T10:38:45.999Z</time></trkpt><trkpt lat="36.772518606697226" lon="-4.591982093794305"><ele>179.0</ele><time>2026-03-28T10:38:47.999Z</time></trkpt><trkpt lat="36.772580727950704" lon="-4.59201399847739"><ele>179.0</ele><time>2026-03-28T10:38:48.999Z</time></trkpt><trkpt lat="36.77269886256337" lon="-4.592059545779154"><ele>179.0</ele><time>2026-03-28T10:38:50.999Z</time></trkpt><trkpt lat="36.772800498608945" lon="-4.592056365507085"><ele>179.0</ele><time>2026-03-28T10:38:52.999Z</time></trkpt><trkpt lat="36.772889249926486" lon="-4.5919952668619155"><ele>179.16666666666666</ele><time>2026-03-28T10:38:54.999Z</time></trkpt><trkpt lat="36.772973203099944" lon="-4.591897381847274"><ele>179.33333333333331</ele><time>2026-03-28T10:38:57Z</time></trkpt><trkpt lat="36.77301141438697" lon="-4.5918216174556505"><ele>179.5</ele><time>2026-03-28T10:38:58Z</time></trkpt><trkpt lat="36.77304055911134" lon="-4.591747161168617"><ele>179.66666666666666</ele><time>2026-03-28T10:38:59Z</time></trkpt><trkpt lat="36.77306807688295" lon="-4.591662891885021"><ele>179.83333333333334</ele><time>2026-03-28T10:39:00Z</time></trkpt><trkpt lat="36.77309575705264" lon="-4.591591151841194"><ele>180.0</ele><time>2026-03-28T10:39:01Z</time></trkpt><trkpt lat="36.77319600554705" lon="-4.591501069284324"><ele>180.0</ele><time>2026-03-28T10:39:03Z</time></trkpt><trkpt lat="36.77323511784932" lon="-4.591437493589988"><ele>180.0</ele><time>2026-03-28T10:39:04Z</time></trkpt><trkpt lat="36.77330532730931" lon="-4.59140372721501"><ele>180.0</ele><time>2026-03-28T10:39:05Z</time></trkpt><trkpt lat="36.77335562964441" lon="-4.59133348677085"><ele>180.0</ele><time>2026-03-28T10:39:06Z</time></trkpt><trkpt lat="36.77345209412722" lon="-4.591239331013896"><ele>180.0</ele><time>2026-03-28T10:39:08Z</time></trkpt><trkpt lat="36.77357456051182" lon="-4.591184935337292"><ele>182.5</ele><time>2026-03-28T10:39:10Z</time></trkpt><trkpt lat="36.77363090605448" lon="-4.591126014508495"><ele>185.0</ele><time>2026-03-28T10:39:11Z</time></trkpt><trkpt lat="36.773680872645755" lon="-4.59106358852987"><ele>187.5</ele><time>2026-03-28T10:39:12Z</time></trkpt><trkpt lat="36.77375128128617" lon="-4.5910263211875435"><ele>190.0</ele><time>2026-03-28T10:39:13Z</time></trkpt><trkpt lat="36.77383016011425" lon="-4.591003935524911"><ele>192.5</ele><time>2026-03-28T10:39:14Z</time></trkpt><trkpt lat="36.77390366216998" lon="-4.59098800263186"><ele>195.0</ele><time>2026-03-28T10:39:15Z</time></trkpt><trkpt lat="36.773977754903854" lon="-4.5909761059024845"><ele>195.0</ele><time>2026-03-28T10:39:16Z</time></trkpt><trkpt lat="36.77405216382654" lon="-4.590961514215222"><ele>195.0</ele><time>2026-03-28T10:39:17Z</time></trkpt><trkpt lat="36.77412975569813" lon="-4.590947445220286"><ele>195.0</ele><time>2026-03-28T10:39:18Z</time></trkpt><trkpt lat="36.77419924856034" lon="-4.590896144760506"><ele>195.0</ele><time>2026-03-28T10:39:19Z</time></trkpt><trkpt lat="36.77426985472804" lon="-4.590849566714342"><ele>195.0</ele><time>2026-03-28T10:39:20Z</time></trkpt><trkpt lat="36.774353013520575" lon="-4.5908219519288505"><ele>195.0</ele><time>2026-03-28T10:39:21Z</time></trkpt><trkpt lat="36.774422692747095" lon="-4.5907659180509315"><ele>196.66666666666666</ele><time>2026-03-28T10:39:22Z</time></trkpt><trkpt lat="36.77448924411073" lon="-4.590711624488414"><ele>198.33333333333331</ele><time>2026-03-28T10:39:23Z</time></trkpt><trkpt lat="36.774547080030516" lon="-4.5906501003042"><ele>200.0</ele><time>2026-03-28T10:39:24Z</time></trkpt><trkpt lat="36.77459635291105" lon="-4.590579051402408"><ele>201.66666666666666</ele><time>2026-03-28T10:39:25Z</time></trkpt><trkpt lat="36.77464067596896" lon="-4.5905087336257795"><ele>203.33333333333331</ele><time>2026-03-28T10:39:26Z</time></trkpt><trkpt lat="36.77468869549359" lon="-4.590433481293843"><ele>205.0</ele><time>2026-03-28T10:39:27Z</time></trkpt><trkpt lat="36.77473338614179" lon="-4.590350164538881"><ele>204.49999999999997</ele><time>2026-03-28T10:39:28Z</time></trkpt><trkpt lat="36.77477535015905" lon="-4.590255572630332"><ele>204.0</ele><time>2026-03-28T10:39:29Z</time></trkpt><trkpt lat="36.77481148631176" lon="-4.590167488775237"><ele>203.5</ele><time>2026-03-28T10:39:30Z</time></trkpt><trkpt lat="36.77485115498387" lon="-4.5900878392884135"><ele>203.0</ele><time>2026-03-28T10:39:31Z</time></trkpt><trkpt lat="36.774900763015836" lon="-4.59002938911767"><ele>202.49999999999997</ele><time>2026-03-28T10:39:32Z</time></trkpt><trkpt lat="36.774957692563476" lon="-4.589977763777133"><ele>202.0</ele><time>2026-03-28T10:39:33Z</time></trkpt><trkpt lat="36.77505247641167" lon="-4.589908158754243"><ele>201.99999999999997</ele><time>2026-03-28T10:39:35Z</time></trkpt><trkpt lat="36.77509778264331" lon="-4.58985272785396"><ele>202.0</ele><time>2026-03-28T10:39:37Z</time></trkpt><trkpt lat="36.77517371470656" lon="-4.589782007627551"><ele>202.0</ele><time>2026-03-28T10:39:40Z</time></trkpt><trkpt lat="36.77524855266872" lon="-4.589767715796835"><ele>202.0</ele><time>2026-03-28T10:39:42Z</time></trkpt><trkpt lat="36.77532171558694" lon="-4.589820119782026"><ele>201.99999999999997</ele><time>2026-03-28T10:39:44Z</time></trkpt><trkpt lat="36.77538280165896" lon="-4.589890975674787"><ele>202.0</ele><time>2026-03-28T10:39:46Z</time></trkpt><trkpt lat="36.77543912420399" lon="-4.589968433958966"><ele>200.2</ele><time>2026-03-28T10:39:48Z</time></trkpt><trkpt lat="36.77552236639312" lon="-4.5900118476413025"><ele>198.39999999999998</ele><time>2026-03-28T10:39:50Z</time></trkpt><trkpt lat="36.77560838500294" lon="-4.59003218015471"><ele>196.60000000000002</ele><time>2026-03-28T10:39:52Z</time></trkpt><trkpt lat="36.775703647535906" lon="-4.590015110785958"><ele>194.8</ele><time>2026-03-28T10:39:54Z</time></trkpt><trkpt lat="36.77580119372667" lon="-4.589956291925195"><ele>193.0</ele><time>2026-03-28T10:39:56Z</time></trkpt><trkpt lat="36.7759049725434" lon="-4.5899499237032435"><ele>192.99999999999997</ele><time>2026-03-28T10:39:58Z</time></trkpt><trkpt lat="36.775979060962655" lon="-4.590004414287068"><ele>193.0</ele><time>2026-03-28T10:40:00Z</time></trkpt><trkpt lat="36.776041442495185" lon="-4.590082423673998"><ele>193.0</ele><time>2026-03-28T10:40:02Z</time></trkpt><trkpt lat="36.7761247827142" lon="-4.590117366929196"><ele>193.0</ele><time>2026-03-28T10:40:04Z</time></trkpt><trkpt lat="36.77622412333992" lon="-4.590101881866464"><ele>192.99999999999997</ele><time>2026-03-28T10:40:06Z</time></trkpt><trkpt lat="36.776304757575346" lon="-4.590138714474305"><ele>193.0</ele><time>2026-03-28T10:40:08Z</time></trkpt><trkpt lat="36.776311408825954" lon="-4.590270982786952"><ele>192.4</ele><time>2026-03-28T10:40:10Z</time></trkpt><trkpt lat="36.77628978549981" lon="-4.590350305437168"><ele>191.8</ele><time>2026-03-28T10:40:11Z</time></trkpt><trkpt lat="36.77629150673556" lon="-4.590490690209398"><ele>191.2</ele><time>2026-03-28T10:40:13Z</time></trkpt><trkpt lat="36.7763267260645" lon="-4.590625691905332"><ele>190.6</ele><time>2026-03-28T10:40:15Z</time></trkpt><trkpt lat="36.7764070386905" lon="-4.5907289502475255"><ele>190.0</ele><time>2026-03-28T10:40:17Z</time></trkpt><trkpt lat="36.77651066870433" lon="-4.590810675516532"><ele>190.0</ele><time>2026-03-28T10:40:19Z</time></trkpt><trkpt lat="36.776567890484806" lon="-4.590843683602907"><ele>190.0</ele><time>2026-03-28T10:40:20Z</time></trkpt><trkpt lat="36.77668903071895" lon="-4.590834814458329"><ele>190.0</ele><time>2026-03-28T10:40:22Z</time></trkpt><trkpt lat="36.77677679898457" lon="-4.59073692448454"><ele>190.0</ele><time>2026-03-28T10:40:24Z</time></trkpt><trkpt lat="36.77679256919224" lon="-4.590659398986086"><ele>190.0</ele><time>2026-03-28T10:40:25Z</time></trkpt><trkpt lat="36.77680289889307" lon="-4.590578352321102"><ele>190.0</ele><time>2026-03-28T10:40:26Z</time></trkpt><trkpt lat="36.77682125996614" lon="-4.590494980297239"><ele>190.0</ele><time>2026-03-28T10:40:27Z</time></trkpt><trkpt lat="36.77685255651644" lon="-4.590414251114111"><ele>190.0</ele><time>2026-03-28T10:40:28Z</time></trkpt><trkpt lat="36.77689475910487" lon="-4.590339588217002"><ele>190.0</ele><time>2026-03-28T10:40:29Z</time></trkpt><trkpt lat="36.77693865422999" lon="-4.590261906018501"><ele>190.0</ele><time>2026-03-28T10:40:30Z</time></trkpt><trkpt lat="36.77698640398716" lon="-4.590182013569778"><ele>190.0</ele><time>2026-03-28T10:40:31Z</time></trkpt><trkpt lat="36.77703175821752" lon="-4.5901082030939575"><ele>190.0</ele><time>2026-03-28T10:40:32Z</time></trkpt><trkpt lat="36.77707531006684" lon="-4.590038535787574"><ele>190.0</ele><time>2026-03-28T10:40:33Z</time></trkpt><trkpt lat="36.77715261393099" lon="-4.589930623622476"><ele>193.75</ele><time>2026-03-28T10:40:35Z</time></trkpt><trkpt lat="36.77724468515929" lon="-4.589903562678406"><ele>197.5</ele><time>2026-03-28T10:40:37Z</time></trkpt><trkpt lat="36.777348446386085" lon="-4.589963603117095"><ele>201.25</ele><time>2026-03-28T10:40:39Z</time></trkpt><trkpt lat="36.77745469400938" lon="-4.590025978280273"><ele>205.0</ele><time>2026-03-28T10:40:41Z</time></trkpt><trkpt lat="36.777579488376816" lon="-4.590025493223864"><ele>208.16666666666666</ele><time>2026-03-28T10:40:43Z</time></trkpt><trkpt lat="36.777686886289416" lon="-4.590088690670582"><ele>211.33333333333331</ele><time>2026-03-28T10:40:45Z</time></trkpt><trkpt lat="36.77781081585949" lon="-4.59006855476089"><ele>214.5</ele><time>2026-03-28T10:40:47Z</time></trkpt><trkpt lat="36.77787251678624" lon="-4.59003202337688"><ele>217.66666666666669</ele><time>2026-03-28T10:40:48Z</time></trkpt><trkpt lat="36.77793162789287" lon="-4.589989089105864"><ele>220.83333333333334</ele><time>2026-03-28T10:40:49Z</time></trkpt><trkpt lat="36.77799431546873" lon="-4.589968715646436"><ele>224.0</ele><time>2026-03-28T10:40:50Z</time></trkpt><trkpt lat="36.77806474676458" lon="-4.5899647490838325"><ele>224.00000000000003</ele><time>2026-03-28T10:40:51Z</time></trkpt><trkpt lat="36.77813407532359" lon="-4.589974529855373"><ele>224.0</ele><time>2026-03-28T10:40:51.999Z</time></trkpt><trkpt lat="36.778206627365364" lon="-4.589980242786005"><ele>224.0</ele><time>2026-03-28T10:40:52.999Z</time></trkpt><trkpt lat="36.77827814480089" lon="-4.589962094220504"><ele>224.0</ele><time>2026-03-28T10:40:53.999Z</time></trkpt><trkpt lat="36.77834567676853" lon="-4.589920055724085"><ele>224.00000000000003</ele><time>2026-03-28T10:40:54.999Z</time></trkpt><trkpt lat="36.77841058482608" lon="-4.589863819765796"><ele>224.0</ele><time>2026-03-28T10:40:55.999Z</time></trkpt><trkpt lat="36.77847199268267" lon="-4.589787677960111"><ele>224.83333333333334</ele><time>2026-03-28T10:40:56.999Z</time></trkpt><trkpt lat="36.77852573983997" lon="-4.589705809206234"><ele>225.66666666666669</ele><time>2026-03-28T10:40:57.999Z</time></trkpt><trkpt lat="36.778576693653406" lon="-4.589617904307757"><ele>226.5</ele><time>2026-03-28T10:40:58.999Z</time></trkpt><trkpt lat="36.77860791049369" lon="-4.589529711269327"><ele>227.33333333333331</ele><time>2026-03-28T10:40:59.999Z</time></trkpt><trkpt lat="36.77864249436014" lon="-4.589443672336816"><ele>228.16666666666666</ele><time>2026-03-28T10:41:00.999Z</time></trkpt><trkpt lat="36.778726520153505" lon="-4.589403618732696"><ele>229.0</ele><time>2026-03-28T10:41:01.999Z</time></trkpt><trkpt lat="36.77879414179343" lon="-4.589352262037243"><ele>229.39999999999998</ele><time>2026-03-28T10:41:03Z</time></trkpt><trkpt lat="36.77881760489567" lon="-4.589279081741726"><ele>229.79999999999998</ele><time>2026-03-28T10:41:04Z</time></trkpt><trkpt lat="36.77887355265515" lon="-4.589210250102379"><ele>230.20000000000002</ele><time>2026-03-28T10:41:06Z</time></trkpt><trkpt lat="36.77899826202634" lon="-4.589195896038126"><ele>230.60000000000002</ele><time>2026-03-28T10:41:08Z</time></trkpt><trkpt lat="36.77911719764746" lon="-4.58915306319177"><ele>231.0</ele><time>2026-03-28T10:41:10Z</time></trkpt><trkpt lat="36.77918991100634" lon="-4.589141477899256"><ele>231.0</ele><time>2026-03-28T10:41:11Z</time></trkpt><trkpt lat="36.77925888886931" lon="-4.58910609259982"><ele>231.0</ele><time>2026-03-28T10:41:12Z</time></trkpt><trkpt lat="36.779336377675506" lon="-4.589075246472061"><ele>231.0</ele><time>2026-03-28T10:41:13Z</time></trkpt><trkpt lat="36.77941709669679" lon="-4.589043919074009"><ele>231.0</ele><time>2026-03-28T10:41:14Z</time></trkpt><trkpt lat="36.77950282652675" lon="-4.5890077166203165"><ele>231.0</ele><time>2026-03-28T10:41:15Z</time></trkpt><trkpt lat="36.77958603414914" lon="-4.588978315602429"><ele>231.0</ele><time>2026-03-28T10:41:16Z</time></trkpt><trkpt lat="36.77965628407216" lon="-4.588955542674124"><ele>231.66666666666666</ele><time>2026-03-28T10:41:17Z</time></trkpt><trkpt lat="36.77971781823884" lon="-4.588913206147585"><ele>232.33333333333331</ele><time>2026-03-28T10:41:18Z</time></trkpt><trkpt lat="36.77978511199156" lon="-4.588841127968441"><ele>233.0</ele><time>2026-03-28T10:41:19Z</time></trkpt><trkpt lat="36.779847346797155" lon="-4.588760993343177"><ele>233.66666666666666</ele><time>2026-03-28T10:41:20Z</time></trkpt><trkpt lat="36.77991349167924" lon="-4.588695082642667"><ele>234.33333333333331</ele><time>2026-03-28T10:41:21Z</time></trkpt><trkpt lat="36.77996919908375" lon="-4.588645663360211"><ele>235.0</ele><time>2026-03-28T10:41:22Z</time></trkpt><trkpt lat="36.780026042448235" lon="-4.588587108831487"><ele>234.99999999999997</ele><time>2026-03-28T10:41:23Z</time></trkpt><trkpt lat="36.780074117340256" lon="-4.588514646443308"><ele>235.0</ele><time>2026-03-28T10:41:24Z</time></trkpt><trkpt lat="36.780134211737725" lon="-4.588437844409228"><ele>235.0</ele><time>2026-03-28T10:41:25Z</time></trkpt><trkpt lat="36.780206362422106" lon="-4.588373744079178"><ele>235.0</ele><time>2026-03-28T10:41:26Z</time></trkpt><trkpt lat="36.780270606867255" lon="-4.5882960435455855"><ele>234.99999999999997</ele><time>2026-03-28T10:41:27Z</time></trkpt><trkpt lat="36.78034506055865" lon="-4.588236974466882"><ele>235.0</ele><time>2026-03-28T10:41:28Z</time></trkpt><trkpt lat="36.78041898927324" lon="-4.58818402682254"><ele>236.49999999999997</ele><time>2026-03-28T10:41:29Z</time></trkpt><trkpt lat="36.780490530108914" lon="-4.588136814443493"><ele>238.0</ele><time>2026-03-28T10:41:30Z</time></trkpt><trkpt lat="36.78057162715935" lon="-4.58809745032503"><ele>239.5</ele><time>2026-03-28T10:41:31Z</time></trkpt><trkpt lat="36.780660731620856" lon="-4.5880795674417385"><ele>241.0</ele><time>2026-03-28T10:41:32Z</time></trkpt><trkpt lat="36.78074652770439" lon="-4.5880799553391185"><ele>242.49999999999997</ele><time>2026-03-28T10:41:33Z</time></trkpt><trkpt lat="36.780821878878704" lon="-4.588092095634277"><ele>244.0</ele><time>2026-03-28T10:41:34Z</time></trkpt><trkpt lat="36.78089304401401" lon="-4.58810977068546"><ele>243.99999999999997</ele><time>2026-03-28T10:41:35Z</time></trkpt><trkpt lat="36.78095962100195" lon="-4.588128348995517"><ele>244.0</ele><time>2026-03-28T10:41:36Z</time></trkpt><trkpt lat="36.781024673909386" lon="-4.588134461058137"><ele>243.99999999999997</ele><time>2026-03-28T10:41:37Z</time></trkpt><trkpt lat="36.781095179930524" lon="-4.588127877536217"><ele>243.99999999999997</ele><time>2026-03-28T10:41:38Z</time></trkpt><trkpt lat="36.78116579342669" lon="-4.588107476041847"><ele>244.0</ele><time>2026-03-28T10:41:39Z</time></trkpt><trkpt lat="36.78124271096255" lon="-4.5880772417573255"><ele>243.99999999999997</ele><time>2026-03-28T10:41:40Z</time></trkpt><trkpt lat="36.78130017098567" lon="-4.588002703333029"><ele>243.99999999999997</ele><time>2026-03-28T10:41:41Z</time></trkpt><trkpt lat="36.78134716710337" lon="-4.587924485285882"><ele>244.66666666666666</ele><time>2026-03-28T10:41:42Z</time></trkpt><trkpt lat="36.78140404269961" lon="-4.587859340032229"><ele>245.33333333333331</ele><time>2026-03-28T10:41:43Z</time></trkpt><trkpt lat="36.78148324481287" lon="-4.587799713438251"><ele>246.0</ele><time>2026-03-28T10:41:44Z</time></trkpt><trkpt lat="36.781564468072624" lon="-4.587755458072439"><ele>246.66666666666669</ele><time>2026-03-28T10:41:45Z</time></trkpt><trkpt lat="36.78165457876014" lon="-4.5877219512853395"><ele>247.33333333333334</ele><time>2026-03-28T10:41:46Z</time></trkpt><trkpt lat="36.78173936064667" lon="-4.5877065581474294"><ele>248.0</ele><time>2026-03-28T10:41:47Z</time></trkpt><trkpt lat="36.78181149225808" lon="-4.587695970515378"><ele>253.2</ele><time>2026-03-28T10:41:48Z</time></trkpt><trkpt lat="36.78190904086796" lon="-4.587676932609243"><ele>258.4</ele><time>2026-03-28T10:41:50Z</time></trkpt><trkpt lat="36.781981381082325" lon="-4.587658585800764"><ele>263.59999999999997</ele><time>2026-03-28T10:41:54Z</time></trkpt><trkpt lat="36.78207772999002" lon="-4.587720685407462"><ele>268.8</ele><time>2026-03-28T10:41:57Z</time></trkpt><trkpt lat="36.782170585427544" lon="-4.5877527033808025"><ele>274.0</ele><time>2026-03-28T10:42:00Z</time></trkpt><trkpt lat="36.782246896129934" lon="-4.5877384731858015"><ele>274.0</ele><time>2026-03-28T10:42:02Z</time></trkpt><trkpt lat="36.78232078410857" lon="-4.587745214517216"><ele>274.0</ele><time>2026-03-28T10:42:04Z</time></trkpt><trkpt lat="36.78241498643469" lon="-4.587704517230146"><ele>274.0</ele><time>2026-03-28T10:42:06Z</time></trkpt><trkpt lat="36.782513369160185" lon="-4.587686345843343"><ele>274.0</ele><time>2026-03-28T10:42:08Z</time></trkpt><trkpt lat="36.7826155856702" lon="-4.587686972766894"><ele>274.0</ele><time>2026-03-28T10:42:10Z</time></trkpt><trkpt lat="36.782730832001185" lon="-4.587632309016651"><ele>275.5</ele><time>2026-03-28T10:42:12Z</time></trkpt><trkpt lat="36.782801387316596" lon="-4.587602523059847"><ele>277.0</ele><time>2026-03-28T10:42:13Z</time></trkpt><trkpt lat="36.782876244754945" lon="-4.587569960350432"><ele>278.5</ele><time>2026-03-28T10:42:14Z</time></trkpt><trkpt lat="36.782952633058926" lon="-4.587541881736644"><ele>280.0</ele><time>2026-03-28T10:42:15Z</time></trkpt><trkpt lat="36.7830289967611" lon="-4.587523388764613"><ele>281.5</ele><time>2026-03-28T10:42:16Z</time></trkpt><trkpt lat="36.78310069417991" lon="-4.587518338022272"><ele>283.0</ele><time>2026-03-28T10:42:17Z</time></trkpt><trkpt lat="36.78317343411681" lon="-4.587510671699482"><ele>283.0</ele><time>2026-03-28T10:42:18Z</time></trkpt><trkpt lat="36.78323907184886" lon="-4.5875466714770585"><ele>283.0</ele><time>2026-03-28T10:42:19Z</time></trkpt><trkpt lat="36.78329340333511" lon="-4.587594274186925"><ele>283.0</ele><time>2026-03-28T10:42:20Z</time></trkpt><trkpt lat="36.7833758031571" lon="-4.587656485259503"><ele>283.0</ele><time>2026-03-28T10:42:22Z</time></trkpt><trkpt lat="36.78344992741791" lon="-4.587658588892387"><ele>283.0</ele><time>2026-03-28T10:42:23Z</time></trkpt><trkpt lat="36.78351567673999" lon="-4.587634485480578"><ele>283.0</ele><time>2026-03-28T10:42:24Z</time></trkpt><trkpt lat="36.78357909617207" lon="-4.5876180442402"><ele>283.0</ele><time>2026-03-28T10:42:25Z</time></trkpt><trkpt lat="36.7836509829794" lon="-4.587628783246037"><ele>283.0</ele><time>2026-03-28T10:42:26Z</time></trkpt><trkpt lat="36.78372050974599" lon="-4.587631890663087"><ele>283.0</ele><time>2026-03-28T10:42:27Z</time></trkpt><trkpt lat="36.783795368252285" lon="-4.587683097503522"><ele>283.0</ele><time>2026-03-28T10:42:28Z</time></trkpt><trkpt lat="36.78386693017169" lon="-4.587740259149313"><ele>283.0</ele><time>2026-03-28T10:42:29Z</time></trkpt><trkpt lat="36.78393103599304" lon="-4.587826167817376"><ele>283.0</ele><time>2026-03-28T10:42:30Z</time></trkpt><trkpt lat="36.78397234921594" lon="-4.587924871624947"><ele>283.0</ele><time>2026-03-28T10:42:31Z</time></trkpt><trkpt lat="36.78400896490784" lon="-4.5879960924793535"><ele>283.4</ele><time>2026-03-28T10:42:32Z</time></trkpt><trkpt lat="36.78410382023028" lon="-4.588100059768129"><ele>283.8</ele><time>2026-03-28T10:42:34Z</time></trkpt><trkpt lat="36.784198171547764" lon="-4.588180600149211"><ele>284.2</ele><time>2026-03-28T10:42:36Z</time></trkpt><trkpt lat="36.784294201313706" lon="-4.588227536910281"><ele>284.6</ele><time>2026-03-28T10:42:38Z</time></trkpt><trkpt lat="36.78437901214059" lon="-4.588234194606406"><ele>285.0</ele><time>2026-03-28T10:42:40Z</time></trkpt><trkpt lat="36.784449272906606" lon="-4.588265738752104"><ele>285.3333333333333</ele><time>2026-03-28T10:42:42Z</time></trkpt><trkpt lat="36.7844820211095" lon="-4.588359841170097"><ele>285.6666666666667</ele><time>2026-03-28T10:42:44Z</time></trkpt><trkpt lat="36.78447446858493" lon="-4.588475927394949"><ele>286.0</ele><time>2026-03-28T10:42:46Z</time></trkpt><trkpt lat="36.78445198574704" lon="-4.588608163170636"><ele>286.33333333333337</ele><time>2026-03-28T10:42:48Z</time></trkpt><trkpt lat="36.784444945494194" lon="-4.588692299257306"><ele>286.6666666666667</ele><time>2026-03-28T10:42:49Z</time></trkpt><trkpt lat="36.78443602333946" lon="-4.588785747327221"><ele>287.0</ele><time>2026-03-28T10:42:50Z</time></trkpt><trkpt lat="36.78442456441333" lon="-4.588877554248957"><ele>285.8</ele><time>2026-03-28T10:42:51Z</time></trkpt><trkpt lat="36.78440901080918" lon="-4.588958567310705"><ele>284.6</ele><time>2026-03-28T10:42:52Z</time></trkpt><trkpt lat="36.78439404158461" lon="-4.589067775858643"><ele>283.40000000000003</ele><time>2026-03-28T10:42:54Z</time></trkpt><trkpt lat="36.78447821099642" lon="-4.58909789017397"><ele>282.2</ele><time>2026-03-28T10:42:57Z</time></trkpt><trkpt lat="36.7845017896387" lon="-4.58895779467034"><ele>281.0</ele><time>2026-03-28T10:42:59Z</time></trkpt><trkpt lat="36.78455568537022" lon="-4.588836452358648"><ele>281.00000000000006</ele><time>2026-03-28T10:43:01Z</time></trkpt><trkpt lat="36.78462140451691" lon="-4.588807205387686"><ele>281.0</ele><time>2026-03-28T10:43:02Z</time></trkpt><trkpt lat="36.78468173613205" lon="-4.588772433889299"><ele>281.0</ele><time>2026-03-28T10:43:02.999Z</time></trkpt><trkpt lat="36.78474099597605" lon="-4.5887158407931885"><ele>281.0</ele><time>2026-03-28T10:43:03.999Z</time></trkpt><trkpt lat="36.78479941133827" lon="-4.588672354341838"><ele>281.0</ele><time>2026-03-28T10:43:04.999Z</time></trkpt><trkpt lat="36.784858473609646" lon="-4.588643422642331"><ele>281.00000000000006</ele><time>2026-03-28T10:43:05.999Z</time></trkpt><trkpt lat="36.7849223632849" lon="-4.588641666954856"><ele>281.0</ele><time>2026-03-28T10:43:06.999Z</time></trkpt><trkpt lat="36.784987901855786" lon="-4.588669215192439"><ele>281.0</ele><time>2026-03-28T10:43:07.999Z</time></trkpt><trkpt lat="36.78508831720872" lon="-4.588719453024103"><ele>281.0</ele><time>2026-03-28T10:43:10Z</time></trkpt><trkpt lat="36.78517923898342" lon="-4.5887475507429185"><ele>281.0</ele><time>2026-03-28T10:43:12Z</time></trkpt><trkpt lat="36.78526683029623" lon="-4.5887504615088694"><ele>281.0</ele><time>2026-03-28T10:43:14Z</time></trkpt><trkpt lat="36.78536854385456" lon="-4.588782684909352"><ele>281.0</ele><time>2026-03-28T10:43:16Z</time></trkpt><trkpt lat="36.785491348817736" lon="-4.5887567940635385"><ele>280.83333333333337</ele><time>2026-03-28T10:43:18Z</time></trkpt><trkpt lat="36.785556373635636" lon="-4.58875101314935"><ele>280.6666666666667</ele><time>2026-03-28T10:43:19Z</time></trkpt><trkpt lat="36.78567125858223" lon="-4.588688136154834"><ele>280.5</ele><time>2026-03-28T10:43:21Z</time></trkpt><trkpt lat="36.785781709364635" lon="-4.588630664283397"><ele>280.3333333333333</ele><time>2026-03-28T10:43:23Z</time></trkpt><trkpt lat="36.7858438180493" lon="-4.588612885914857"><ele>280.16666666666663</ele><time>2026-03-28T10:43:24Z</time></trkpt><trkpt lat="36.78591622002731" lon="-4.588614555074711"><ele>280.0</ele><time>2026-03-28T10:43:25Z</time></trkpt><trkpt lat="36.78599597797838" lon="-4.58864741833162"><ele>279.8333333333333</ele><time>2026-03-28T10:43:26Z</time></trkpt><trkpt lat="36.78608188716007" lon="-4.58865831398514"><ele>279.66666666666663</ele><time>2026-03-28T10:43:27Z</time></trkpt><trkpt lat="36.78616085099163" lon="-4.588672577521863"><ele>279.5</ele><time>2026-03-28T10:43:28Z</time></trkpt><trkpt lat="36.786230931299535" lon="-4.588683240415179"><ele>279.3333333333333</ele><time>2026-03-28T10:43:29Z</time></trkpt><trkpt lat="36.786296941981185" lon="-4.588712249395747"><ele>279.1666666666667</ele><time>2026-03-28T10:43:30Z</time></trkpt><trkpt lat="36.78635149419859" lon="-4.588778463710938"><ele>279.0</ele><time>2026-03-28T10:43:31Z</time></trkpt><trkpt lat="36.78639771196252" lon="-4.588845562061677"><ele>278.0</ele><time>2026-03-28T10:43:32Z</time></trkpt><trkpt lat="36.78649126572551" lon="-4.588880813170147"><ele>277.0</ele><time>2026-03-28T10:43:34Z</time></trkpt><trkpt lat="36.786589681822015" lon="-4.588855202037755"><ele>276.0</ele><time>2026-03-28T10:43:36Z</time></trkpt><trkpt lat="36.78665238447909" lon="-4.588816575638469"><ele>275.0</ele><time>2026-03-28T10:43:37Z</time></trkpt><trkpt lat="36.78672465293125" lon="-4.588786691345421"><ele>274.0</ele><time>2026-03-28T10:43:38Z</time></trkpt><trkpt lat="36.78678292456679" lon="-4.588735621739022"><ele>273.0</ele><time>2026-03-28T10:43:39Z</time></trkpt><trkpt lat="36.78683709563853" lon="-4.5886915720288854"><ele>274.6666666666667</ele><time>2026-03-28T10:43:40Z</time></trkpt><trkpt lat="36.786902576543746" lon="-4.5886439720694465"><ele>276.3333333333333</ele><time>2026-03-28T10:43:42Z</time></trkpt><trkpt lat="36.78697273372793" lon="-4.588566335126087"><ele>278.0</ele><time>2026-03-28T10:43:46Z</time></trkpt><trkpt lat="36.78705080980276" lon="-4.588542000077844"><ele>279.66666666666663</ele><time>2026-03-28T10:43:48Z</time></trkpt><trkpt lat="36.78713950131022" lon="-4.588563052613423"><ele>281.3333333333333</ele><time>2026-03-28T10:43:50Z</time></trkpt><trkpt lat="36.78720463596227" lon="-4.5886073856513825"><ele>283.0</ele><time>2026-03-28T10:43:52Z</time></trkpt><trkpt lat="36.78728582663855" lon="-4.588607220594509"><ele>283.0</ele><time>2026-03-28T10:43:54Z</time></trkpt><trkpt lat="36.78737288280097" lon="-4.58860669806565"><ele>283.0</ele><time>2026-03-28T10:43:57Z</time></trkpt><trkpt lat="36.7873693831172" lon="-4.588474711473973"><ele>283.0</ele><time>2026-03-28T10:43:59Z</time></trkpt><trkpt lat="36.787343516456005" lon="-4.588400823491807"><ele>283.0</ele><time>2026-03-28T10:44:00Z</time></trkpt><trkpt lat="36.787262949141926" lon="-4.588297365676129"><ele>283.0</ele><time>2026-03-28T10:44:02Z</time></trkpt><trkpt lat="36.787169791180894" lon="-4.588202925064021"><ele>283.0</ele><time>2026-03-28T10:44:04Z</time></trkpt><trkpt lat="36.78714316180095" lon="-4.588112200421242"><ele>283.0</ele><time>2026-03-28T10:44:05Z</time></trkpt><trkpt lat="36.78711996324293" lon="-4.588020869633973"><ele>283.0</ele><time>2026-03-28T10:44:06Z</time></trkpt><trkpt lat="36.78710345456881" lon="-4.587934530174876"><ele>283.0</ele><time>2026-03-28T10:44:07Z</time></trkpt><trkpt lat="36.78708318637435" lon="-4.587846613931349"><ele>283.0</ele><time>2026-03-28T10:44:08Z</time></trkpt><trkpt lat="36.787065016468084" lon="-4.5877597793629725"><ele>283.0</ele><time>2026-03-28T10:44:09Z</time></trkpt><trkpt lat="36.78704967547146" lon="-4.58767158361239"><ele>283.0</ele><time>2026-03-28T10:44:10Z</time></trkpt><trkpt lat="36.787065059105316" lon="-4.587592524697178"><ele>283.7142857142857</ele><time>2026-03-28T10:44:11Z</time></trkpt><trkpt lat="36.787097347527926" lon="-4.587516324440402"><ele>284.42857142857144</ele><time>2026-03-28T10:44:12Z</time></trkpt><trkpt lat="36.787145292428875" lon="-4.5874483653175595"><ele>285.14285714285717</ele><time>2026-03-28T10:44:13Z</time></trkpt><trkpt lat="36.7871884727478" lon="-4.587367215243876"><ele>285.8571428571429</ele><time>2026-03-28T10:44:14Z</time></trkpt><trkpt lat="36.78723745237174" lon="-4.587297511577702"><ele>286.57142857142856</ele><time>2026-03-28T10:44:15Z</time></trkpt><trkpt lat="36.78729234229344" lon="-4.587234217616529"><ele>287.28571428571433</ele><time>2026-03-28T10:44:16Z</time></trkpt><trkpt lat="36.78733111971478" lon="-4.587152836375637"><ele>288.0</ele><time>2026-03-28T10:44:17Z</time></trkpt><trkpt lat="36.78736020334621" lon="-4.587076899025889"><ele>286.8333333333333</ele><time>2026-03-28T10:44:18Z</time></trkpt><trkpt lat="36.7873972258476" lon="-4.586972297585069"><ele>285.6666666666667</ele><time>2026-03-28T10:44:20Z</time></trkpt><trkpt lat="36.78750335770791" lon="-4.586930950174207"><ele>284.5</ele><time>2026-03-28T10:44:22Z</time></trkpt><trkpt lat="36.78757168115386" lon="-4.586916740417498"><ele>283.33333333333337</ele><time>2026-03-28T10:44:23Z</time></trkpt><trkpt lat="36.78764617791856" lon="-4.5868942340659595"><ele>282.1666666666667</ele><time>2026-03-28T10:44:24Z</time></trkpt><trkpt lat="36.7877123771931" lon="-4.586855746366199"><ele>281.0</ele><time>2026-03-28T10:44:25Z</time></trkpt><trkpt lat="36.78776918790242" lon="-4.586795964646858"><ele>281.0</ele><time>2026-03-28T10:44:26Z</time></trkpt><trkpt lat="36.787819127794336" lon="-4.586719577070102"><ele>281.0</ele><time>2026-03-28T10:44:27Z</time></trkpt><trkpt lat="36.78786762018041" lon="-4.586643661708088"><ele>281.0</ele><time>2026-03-28T10:44:28Z</time></trkpt><trkpt lat="36.78791496480186" lon="-4.586564257073765"><ele>281.0</ele><time>2026-03-28T10:44:29Z</time></trkpt><trkpt lat="36.78795403553364" lon="-4.586486418424156"><ele>281.0</ele><time>2026-03-28T10:44:30Z</time></trkpt><trkpt lat="36.787987471707446" lon="-4.586414938665039"><ele>281.0</ele><time>2026-03-28T10:44:31Z</time></trkpt><trkpt lat="36.78803861737957" lon="-4.586284096168619"><ele>281.0</ele><time>2026-03-28T10:44:33Z</time></trkpt><trkpt lat="36.78810978581745" lon="-4.586179595895229"><ele>281.0</ele><time>2026-03-28T10:44:35Z</time></trkpt><trkpt lat="36.788199219338566" lon="-4.586097527875446"><ele>281.0</ele><time>2026-03-28T10:44:37Z</time></trkpt><trkpt lat="36.788313631343115" lon="-4.586087208506336"><ele>281.0</ele><time>2026-03-28T10:44:39Z</time></trkpt><trkpt lat="36.78840225056413" lon="-4.586097800631997"><ele>281.0</ele><time>2026-03-28T10:44:41Z</time></trkpt><trkpt lat="36.78845467931255" lon="-4.586033952669537"><ele>281.5</ele><time>2026-03-28T10:44:43Z</time></trkpt><trkpt lat="36.78845435641371" lon="-4.585928888090775"><ele>282.0</ele><time>2026-03-28T10:44:45Z</time></trkpt><trkpt lat="36.78845807343175" lon="-4.5857976625607"><ele>282.5</ele><time>2026-03-28T10:44:47Z</time></trkpt><trkpt lat="36.78849613624992" lon="-4.5856632730420674"><ele>283.0</ele><time>2026-03-28T10:44:49Z</time></trkpt><trkpt lat="36.78853694297191" lon="-4.585593347056487"><ele>283.5</ele><time>2026-03-28T10:44:50Z</time></trkpt><trkpt lat="36.78858131696296" lon="-4.585531940766038"><ele>284.0</ele><time>2026-03-28T10:44:51Z</time></trkpt><trkpt lat="36.788620138171474" lon="-4.585459481083698"><ele>284.0</ele><time>2026-03-28T10:44:52Z</time></trkpt><trkpt lat="36.78863485590575" lon="-4.585379354655727"><ele>284.0</ele><time>2026-03-28T10:44:53Z</time></trkpt><trkpt lat="36.788640717632724" lon="-4.585300955388226"><ele>284.0</ele><time>2026-03-28T10:44:54Z</time></trkpt><trkpt lat="36.788655029188845" lon="-4.5851968784255615"><ele>284.0</ele><time>2026-03-28T10:44:56Z</time></trkpt><trkpt lat="36.788677166810075" lon="-4.585114006994348"><ele>284.0</ele><time>2026-03-28T10:44:59Z</time></trkpt><trkpt lat="36.78865427828295" lon="-4.585032835283322"><ele>284.0</ele><time>2026-03-28T10:45:01.999Z</time></trkpt><trkpt lat="36.788613773184906" lon="-4.584935265467278"><ele>284.0</ele><time>2026-03-28T10:45:03.999Z</time></trkpt><trkpt lat="36.788606255935676" lon="-4.5848142558721205"><ele>282.2</ele><time>2026-03-28T10:45:05.999Z</time></trkpt><trkpt lat="36.78867435830618" lon="-4.584691567418176"><ele>280.4</ele><time>2026-03-28T10:45:07.999Z</time></trkpt><trkpt lat="36.788784800025155" lon="-4.5846474475978924"><ele>278.6</ele><time>2026-03-28T10:45:09.999Z</time></trkpt><trkpt lat="36.788858476495086" lon="-4.584622342430286"><ele>276.8</ele><time>2026-03-28T10:45:10.999Z</time></trkpt><trkpt lat="36.7889421641372" lon="-4.584591435496487"><ele>275.0</ele><time>2026-03-28T10:45:11.999Z</time></trkpt><trkpt lat="36.78901454827338" lon="-4.584547254781986"><ele>276.0</ele><time>2026-03-28T10:45:12.999Z</time></trkpt><trkpt lat="36.78906873286848" lon="-4.584494910847786"><ele>277.0</ele><time>2026-03-28T10:45:13.999Z</time></trkpt><trkpt lat="36.78912241499309" lon="-4.584447880532448"><ele>278.0</ele><time>2026-03-28T10:45:15Z</time></trkpt><trkpt lat="36.78919099226431" lon="-4.584423320352149"><ele>279.0</ele><time>2026-03-28T10:45:16Z</time></trkpt><trkpt lat="36.78926620611359" lon="-4.584424125661954"><ele>280.0</ele><time>2026-03-28T10:45:17Z</time></trkpt><trkpt lat="36.78933660983993" lon="-4.584422779126654"><ele>281.0</ele><time>2026-03-28T10:45:18Z</time></trkpt><trkpt lat="36.78940806735681" lon="-4.5843945673010165"><ele>282.0</ele><time>2026-03-28T10:45:19Z</time></trkpt><trkpt lat="36.789477851937335" lon="-4.584349461568403"><ele>283.3333333333333</ele><time>2026-03-28T10:45:20Z</time></trkpt><trkpt lat="36.7895511998009" lon="-4.5843214726410375"><ele>284.6666666666667</ele><time>2026-03-28T10:45:21Z</time></trkpt><trkpt lat="36.78963161621292" lon="-4.584337836704963"><ele>286.0</ele><time>2026-03-28T10:45:22Z</time></trkpt><trkpt lat="36.78970953904748" lon="-4.584367079158292"><ele>287.33333333333337</ele><time>2026-03-28T10:45:23Z</time></trkpt><trkpt lat="36.789782691055755" lon="-4.5843886741051705"><ele>288.6666666666667</ele><time>2026-03-28T10:45:24Z</time></trkpt><trkpt lat="36.78985039492437" lon="-4.584387570217723"><ele>290.0</ele><time>2026-03-28T10:45:25Z</time></trkpt><trkpt lat="36.789918535110345" lon="-4.584351932425202"><ele>290.0</ele><time>2026-03-28T10:45:26Z</time></trkpt><trkpt lat="36.78999109690261" lon="-4.584317473730192"><ele>290.0</ele><time>2026-03-28T10:45:27Z</time></trkpt><trkpt lat="36.79007426819253" lon="-4.584283794473585"><ele>290.0</ele><time>2026-03-28T10:45:28Z</time></trkpt><trkpt lat="36.79015955401212" lon="-4.584275093164679"><ele>290.0</ele><time>2026-03-28T10:45:29Z</time></trkpt><trkpt lat="36.790230495737944" lon="-4.584261851926987"><ele>290.0</ele><time>2026-03-28T10:45:30Z</time></trkpt><trkpt lat="36.79029180142263" lon="-4.584214809773237"><ele>290.0</ele><time>2026-03-28T10:45:31Z</time></trkpt><trkpt lat="36.79036537717806" lon="-4.584166932528109"><ele>292.6</ele><time>2026-03-28T10:45:32Z</time></trkpt><trkpt lat="36.79043879636979" lon="-4.58412407168324"><ele>295.2</ele><time>2026-03-28T10:45:33Z</time></trkpt><trkpt lat="36.79051118109531" lon="-4.584097828662987"><ele>297.8</ele><time>2026-03-28T10:45:34Z</time></trkpt><trkpt lat="36.790583726958765" lon="-4.584086219648044"><ele>300.4</ele><time>2026-03-28T10:45:35Z</time></trkpt><trkpt lat="36.79069670274743" lon="-4.584076972555999"><ele>303.0</ele><time>2026-03-28T10:45:37Z</time></trkpt><trkpt lat="36.79080425355361" lon="-4.584062575967472"><ele>303.0</ele><time>2026-03-28T10:45:39Z</time></trkpt><trkpt lat="36.79087255866476" lon="-4.584077828777546"><ele>303.0</ele><time>2026-03-28T10:45:40Z</time></trkpt><trkpt lat="36.79097893460978" lon="-4.584118739416312"><ele>303.0</ele><time>2026-03-28T10:45:42Z</time></trkpt><trkpt lat="36.79107924654746" lon="-4.584158353889279"><ele>303.0</ele><time>2026-03-28T10:45:44Z</time></trkpt><trkpt lat="36.79117859868962" lon="-4.5842250712304375"><ele>303.0</ele><time>2026-03-28T10:45:46Z</time></trkpt><trkpt lat="36.791261870314095" lon="-4.584317650019762"><ele>304.2</ele><time>2026-03-28T10:45:48Z</time></trkpt><trkpt lat="36.79132834940926" lon="-4.584400171435613"><ele>305.4</ele><time>2026-03-28T10:45:50Z</time></trkpt><trkpt lat="36.79137188309928" lon="-4.584518413056756"><ele>306.59999999999997</ele><time>2026-03-28T10:45:52Z</time></trkpt><trkpt lat="36.79145676458749" lon="-4.584581259839382"><ele>307.8</ele><time>2026-03-28T10:45:54Z</time></trkpt><trkpt lat="36.79154066269696" lon="-4.5846341455066355"><ele>309.0</ele><time>2026-03-28T10:45:56Z</time></trkpt><trkpt lat="36.79161968959563" lon="-4.584601304492211"><ele>309.8</ele><time>2026-03-28T10:45:58Z</time></trkpt><trkpt lat="36.791623388314356" lon="-4.584482902144549"><ele>310.59999999999997</ele><time>2026-03-28T10:46:00Z</time></trkpt><trkpt lat="36.7915319844526" lon="-4.5843990877955685"><ele>311.4</ele><time>2026-03-28T10:46:02Z</time></trkpt><trkpt lat="36.7914708000198" lon="-4.584292255470826"><ele>312.2</ele><time>2026-03-28T10:46:04Z</time></trkpt><trkpt lat="36.791474654248304" lon="-4.58414408163205"><ele>313.0</ele><time>2026-03-28T10:46:06Z</time></trkpt><trkpt lat="36.79148361441281" lon="-4.584063554329512"><ele>313.0</ele><time>2026-03-28T10:46:07Z</time></trkpt><trkpt lat="36.79149733950535" lon="-4.583977404682557"><ele>313.0</ele><time>2026-03-28T10:46:08Z</time></trkpt><trkpt lat="36.79151908795102" lon="-4.583882025377228"><ele>313.0</ele><time>2026-03-28T10:46:09Z</time></trkpt><trkpt lat="36.791543494183166" lon="-4.583782313819845"><ele>313.0</ele><time>2026-03-28T10:46:10Z</time></trkpt><trkpt lat="36.7915523449812" lon="-4.583680165898251"><ele>313.0</ele><time>2026-03-28T10:46:11Z</time></trkpt><trkpt lat="36.79153992669286" lon="-4.583594277564417"><ele>313.0</ele><time>2026-03-28T10:46:12Z</time></trkpt><trkpt lat="36.79155389753228" lon="-4.583484151838239"><ele>312.0</ele><time>2026-03-28T10:46:14Z</time></trkpt><trkpt lat="36.791631362137686" lon="-4.583469208842742"><ele>311.0</ele><time>2026-03-28T10:46:16Z</time></trkpt><trkpt lat="36.79172311571153" lon="-4.583527313240839"><ele>310.0</ele><time>2026-03-28T10:46:18Z</time></trkpt><trkpt lat="36.79181450352522" lon="-4.58357948424798"><ele>309.0</ele><time>2026-03-28T10:46:20Z</time></trkpt><trkpt lat="36.79189413319265" lon="-4.583619052928397"><ele>308.0</ele><time>2026-03-28T10:46:22Z</time></trkpt><trkpt lat="36.79198389969595" lon="-4.583649202819095"><ele>307.6</ele><time>2026-03-28T10:46:24Z</time></trkpt><trkpt lat="36.79208537575646" lon="-4.583670234737225"><ele>307.20000000000005</ele><time>2026-03-28T10:46:26Z</time></trkpt><trkpt lat="36.79218042783489" lon="-4.583709507986064"><ele>306.8</ele><time>2026-03-28T10:46:28Z</time></trkpt><trkpt lat="36.7922861572248" lon="-4.583764866128707"><ele>306.40000000000003</ele><time>2026-03-28T10:46:30Z</time></trkpt><trkpt lat="36.79234193335003" lon="-4.583801608756199"><ele>306.0</ele><time>2026-03-28T10:46:31Z</time></trkpt><trkpt lat="36.79240469862402" lon="-4.5838468226000035"><ele>308.0</ele><time>2026-03-28T10:46:32Z</time></trkpt><trkpt lat="36.79246948986537" lon="-4.583891573388773"><ele>310.0</ele><time>2026-03-28T10:46:33Z</time></trkpt><trkpt lat="36.79254016309661" lon="-4.5839218165223"><ele>312.0</ele><time>2026-03-28T10:46:34Z</time></trkpt><trkpt lat="36.79261562879714" lon="-4.583944325314419"><ele>314.0</ele><time>2026-03-28T10:46:35Z</time></trkpt><trkpt lat="36.79269620242686" lon="-4.583955665659745"><ele>316.0</ele><time>2026-03-28T10:46:36Z</time></trkpt><trkpt lat="36.792776381141884" lon="-4.583966292698758"><ele>318.0</ele><time>2026-03-28T10:46:37Z</time></trkpt><trkpt lat="36.792853732942895" lon="-4.583976279843407"><ele>318.7142857142857</ele><time>2026-03-28T10:46:38Z</time></trkpt><trkpt lat="36.792926492534306" lon="-4.583985279364013"><ele>319.42857142857144</ele><time>2026-03-28T10:46:39Z</time></trkpt><trkpt lat="36.79300806847799" lon="-4.58399711884036"><ele>320.14285714285717</ele><time>2026-03-28T10:46:40Z</time></trkpt><trkpt lat="36.79307961172644" lon="-4.584002414776107"><ele>320.8571428571429</ele><time>2026-03-28T10:46:41Z</time></trkpt><trkpt lat="36.793142086918316" lon="-4.583983817563423"><ele>321.57142857142856</ele><time>2026-03-28T10:46:42Z</time></trkpt><trkpt lat="36.793211637208366" lon="-4.583930998670999"><ele>322.28571428571433</ele><time>2026-03-28T10:46:43Z</time></trkpt><trkpt lat="36.793283094547796" lon="-4.583904581220008"><ele>323.0</ele><time>2026-03-28T10:46:44Z</time></trkpt><trkpt lat="36.79335472508025" lon="-4.58387174657307"><ele>323.00000000000006</ele><time>2026-03-28T10:46:45Z</time></trkpt><trkpt lat="36.793427332376126" lon="-4.5838380534868906"><ele>323.0</ele><time>2026-03-28T10:46:46Z</time></trkpt><trkpt lat="36.79350653417803" lon="-4.58380819955381"><ele>323.0</ele><time>2026-03-28T10:46:47Z</time></trkpt><trkpt lat="36.79357902962209" lon="-4.5837837731251865"><ele>323.0</ele><time>2026-03-28T10:46:48Z</time></trkpt><trkpt lat="36.79364730302293" lon="-4.583761795757935"><ele>323.0</ele><time>2026-03-28T10:46:49Z</time></trkpt><trkpt lat="36.79371453562368" lon="-4.583740153436394"><ele>323.00000000000006</ele><time>2026-03-28T10:46:50Z</time></trkpt><trkpt lat="36.793786682893774" lon="-4.583732606455701"><ele>323.0</ele><time>2026-03-28T10:46:51Z</time></trkpt><trkpt lat="36.79385897545077" lon="-4.5837116083159275"><ele>322.1666666666667</ele><time>2026-03-28T10:46:52Z</time></trkpt><trkpt lat="36.79391696525572" lon="-4.58364969829043"><ele>321.33333333333337</ele><time>2026-03-28T10:46:53Z</time></trkpt><trkpt lat="36.79398696253615" lon="-4.58360409313873"><ele>320.5</ele><time>2026-03-28T10:46:54Z</time></trkpt><trkpt lat="36.79404503730639" lon="-4.583573689887403"><ele>319.6666666666667</ele><time>2026-03-28T10:46:55Z</time></trkpt><trkpt lat="36.79415738172694" lon="-4.583531772838888"><ele>318.8333333333333</ele><time>2026-03-28T10:46:57Z</time></trkpt><trkpt lat="36.794159255537366" lon="-4.583449216457462"><ele>318.0</ele><time>2026-03-28T10:46:58Z</time></trkpt><trkpt lat="36.794137349851745" lon="-4.5833094306141975"><ele>318.0</ele><time>2026-03-28T10:47:00Z</time></trkpt><trkpt lat="36.79414406408877" lon="-4.583225550398503"><ele>318.0</ele><time>2026-03-28T10:47:01Z</time></trkpt><trkpt lat="36.79419690248993" lon="-4.583140751944738"><ele>318.0</ele><time>2026-03-28T10:47:02Z</time></trkpt><trkpt lat="36.79421102438804" lon="-4.5830564103784734"><ele>318.0</ele><time>2026-03-28T10:47:03Z</time></trkpt><trkpt lat="36.79420621220579" lon="-4.582908478662988"><ele>318.0</ele><time>2026-03-28T10:47:05Z</time></trkpt><trkpt lat="36.79418195813611" lon="-4.582824474342025"><ele>318.0</ele><time>2026-03-28T10:47:06Z</time></trkpt><trkpt lat="36.79416711686425" lon="-4.58273109466937"><ele>316.6666666666667</ele><time>2026-03-28T10:47:07Z</time></trkpt><trkpt lat="36.79416799515136" lon="-4.582639559515403"><ele>315.3333333333333</ele><time>2026-03-28T10:47:08Z</time></trkpt><trkpt lat="36.794152789818156" lon="-4.582555658232663"><ele>314.0</ele><time>2026-03-28T10:47:08.999Z</time></trkpt><trkpt lat="36.79410706355128" lon="-4.582407683629231"><ele>312.66666666666663</ele><time>2026-03-28T10:47:10.999Z</time></trkpt><trkpt lat="36.79408395932731" lon="-4.5823234127333174"><ele>311.3333333333333</ele><time>2026-03-28T10:47:11.999Z</time></trkpt><trkpt lat="36.794060755400075" lon="-4.5822443868369485"><ele>310.0</ele><time>2026-03-28T10:47:12.999Z</time></trkpt><trkpt lat="36.794022000454156" lon="-4.582107697154019"><ele>307.2</ele><time>2026-03-28T10:47:14.999Z</time></trkpt><trkpt lat="36.79398188377776" lon="-4.5819978000671435"><ele>304.4</ele><time>2026-03-28T10:47:16.999Z</time></trkpt><trkpt lat="36.79389318653098" lon="-4.581888419359965"><ele>301.6</ele><time>2026-03-28T10:47:18.999Z</time></trkpt><trkpt lat="36.793839454481386" lon="-4.5818324496230485"><ele>298.8</ele><time>2026-03-28T10:47:19.999Z</time></trkpt><trkpt lat="36.793773359861966" lon="-4.581775038180016"><ele>296.0</ele><time>2026-03-28T10:47:21Z</time></trkpt><trkpt lat="36.793703273775925" lon="-4.581726028637628"><ele>296.0</ele><time>2026-03-28T10:47:22Z</time></trkpt><trkpt lat="36.79364292585998" lon="-4.5816780149339"><ele>296.0</ele><time>2026-03-28T10:47:23Z</time></trkpt><trkpt lat="36.79359708177538" lon="-4.581617082132834"><ele>296.0</ele><time>2026-03-28T10:47:24Z</time></trkpt><trkpt lat="36.79351935502456" lon="-4.581483511373339"><ele>296.0</ele><time>2026-03-28T10:47:26Z</time></trkpt><trkpt lat="36.79348044672038" lon="-4.581412874914776"><ele>296.0</ele><time>2026-03-28T10:47:27Z</time></trkpt><trkpt lat="36.79343423735723" lon="-4.581334951773487"><ele>296.0</ele><time>2026-03-28T10:47:28Z</time></trkpt><trkpt lat="36.793391562260574" lon="-4.581262949163953"><ele>296.42857142857144</ele><time>2026-03-28T10:47:29Z</time></trkpt><trkpt lat="36.79334720797935" lon="-4.581189426323182"><ele>296.85714285714283</ele><time>2026-03-28T10:47:30Z</time></trkpt><trkpt lat="36.793309495344765" lon="-4.581118149831815"><ele>297.2857142857143</ele><time>2026-03-28T10:47:31Z</time></trkpt><trkpt lat="36.793272327139924" lon="-4.581044912111039"><ele>297.7142857142857</ele><time>2026-03-28T10:47:32Z</time></trkpt><trkpt lat="36.793235311652076" lon="-4.580970378672418"><ele>298.14285714285717</ele><time>2026-03-28T10:47:33Z</time></trkpt><trkpt lat="36.79320044941419" lon="-4.580897722261415"><ele>298.57142857142856</ele><time>2026-03-28T10:47:34Z</time></trkpt><trkpt lat="36.793152887051555" lon="-4.5808411659362696"><ele>299.0</ele><time>2026-03-28T10:47:35Z</time></trkpt><trkpt lat="36.79305884790709" lon="-4.5807319769276775"><ele>298.57142857142856</ele><time>2026-03-28T10:47:37Z</time></trkpt><trkpt lat="36.79298923475873" lon="-4.580711973237643"><ele>298.14285714285717</ele><time>2026-03-28T10:47:38Z</time></trkpt><trkpt lat="36.79292021586032" lon="-4.580695913977126"><ele>297.7142857142857</ele><time>2026-03-28T10:47:39Z</time></trkpt><trkpt lat="36.792851153694414" lon="-4.580663316408639"><ele>297.2857142857143</ele><time>2026-03-28T10:47:40Z</time></trkpt><trkpt lat="36.792788496783935" lon="-4.580617605382836"><ele>296.85714285714283</ele><time>2026-03-28T10:47:41Z</time></trkpt><trkpt lat="36.79272900387939" lon="-4.580557448243433"><ele>296.42857142857144</ele><time>2026-03-28T10:47:42Z</time></trkpt><trkpt lat="36.792656757203986" lon="-4.580546537063578"><ele>296.0</ele><time>2026-03-28T10:47:43Z</time></trkpt><trkpt lat="36.792554166822406" lon="-4.580456560611907"><ele>296.0</ele><time>2026-03-28T10:47:45Z</time></trkpt><trkpt lat="36.79250298469995" lon="-4.580397263221561"><ele>296.0</ele><time>2026-03-28T10:47:46Z</time></trkpt><trkpt lat="36.79244714851268" lon="-4.580336500193362"><ele>296.0</ele><time>2026-03-28T10:47:47Z</time></trkpt><trkpt lat="36.792392808302104" lon="-4.580270559641433"><ele>296.0</ele><time>2026-03-28T10:47:48Z</time></trkpt><trkpt lat="36.792352786801395" lon="-4.580192879610486"><ele>296.0</ele><time>2026-03-28T10:47:49Z</time></trkpt><trkpt lat="36.7923249414235" lon="-4.580111392394863"><ele>296.0</ele><time>2026-03-28T10:47:50Z</time></trkpt><trkpt lat="36.79228638798545" lon="-4.58003495118581"><ele>296.0</ele><time>2026-03-28T10:47:51Z</time></trkpt><trkpt lat="36.79225446046639" lon="-4.5799512490570615"><ele>292.83333333333337</ele><time>2026-03-28T10:47:52Z</time></trkpt><trkpt lat="36.79220749632734" lon="-4.579880792083657"><ele>289.6666666666667</ele><time>2026-03-28T10:47:53Z</time></trkpt><trkpt lat="36.79216617557429" lon="-4.579803393980211"><ele>286.5</ele><time>2026-03-28T10:47:54Z</time></trkpt><trkpt lat="36.792127660416256" lon="-4.57973606157815"><ele>283.3333333333333</ele><time>2026-03-28T10:47:55Z</time></trkpt><trkpt lat="36.792023483602605" lon="-4.579652978412389"><ele>280.16666666666663</ele><time>2026-03-28T10:47:57Z</time></trkpt><trkpt lat="36.791960288623024" lon="-4.579608623822962"><ele>277.0</ele><time>2026-03-28T10:47:58Z</time></trkpt><trkpt lat="36.79189789110082" lon="-4.579545408367302"><ele>275.3333333333333</ele><time>2026-03-28T10:47:59Z</time></trkpt><trkpt lat="36.791866708456745" lon="-4.579450614323759"><ele>273.66666666666663</ele><time>2026-03-28T10:48:00Z</time></trkpt><trkpt lat="36.791879530764795" lon="-4.579336645023491"><ele>272.0</ele><time>2026-03-28T10:48:01Z</time></trkpt><trkpt lat="36.791889553003756" lon="-4.579252993615054"><ele>270.3333333333333</ele><time>2026-03-28T10:48:02Z</time></trkpt><trkpt lat="36.791876256466736" lon="-4.579164803247356"><ele>268.6666666666667</ele><time>2026-03-28T10:48:03Z</time></trkpt><trkpt lat="36.79185038393996" lon="-4.579012957080425"><ele>267.0</ele><time>2026-03-28T10:48:05Z</time></trkpt><trkpt lat="36.79179761083049" lon="-4.578945575372397"><ele>267.0</ele><time>2026-03-28T10:48:06Z</time></trkpt><trkpt lat="36.79177567760585" lon="-4.5788632964591205"><ele>267.0</ele><time>2026-03-28T10:48:07Z</time></trkpt><trkpt lat="36.79177567504331" lon="-4.578767505958141"><ele>267.0</ele><time>2026-03-28T10:48:08Z</time></trkpt><trkpt lat="36.791753705804226" lon="-4.578671939253378"><ele>267.0</ele><time>2026-03-28T10:48:09Z</time></trkpt><trkpt lat="36.79174899819123" lon="-4.578569072152591"><ele>267.0</ele><time>2026-03-28T10:48:10Z</time></trkpt><trkpt lat="36.79173690203443" lon="-4.57847950993281"><ele>267.0</ele><time>2026-03-28T10:48:11Z</time></trkpt><trkpt lat="36.791714979622085" lon="-4.578390911077615"><ele>265.7142857142857</ele><time>2026-03-28T10:48:12Z</time></trkpt><trkpt lat="36.79169053020307" lon="-4.578307751067289"><ele>264.42857142857144</ele><time>2026-03-28T10:48:13Z</time></trkpt><trkpt lat="36.791665408886715" lon="-4.578228374287315"><ele>263.1428571428571</ele><time>2026-03-28T10:48:14Z</time></trkpt><trkpt lat="36.79160859415135" lon="-4.57818383414517"><ele>261.8571428571429</ele><time>2026-03-28T10:48:15Z</time></trkpt><trkpt lat="36.791542117449815" lon="-4.578172600853191"><ele>260.57142857142856</ele><time>2026-03-28T10:48:16Z</time></trkpt><trkpt lat="36.79146713692355" lon="-4.578157947345331"><ele>259.2857142857143</ele><time>2026-03-28T10:48:17Z</time></trkpt><trkpt lat="36.791396592695044" lon="-4.578150692575985"><ele>258.0</ele><time>2026-03-28T10:48:18Z</time></trkpt><trkpt lat="36.79132836044484" lon="-4.57814193594656"><ele>258.0</ele><time>2026-03-28T10:48:19Z</time></trkpt><trkpt lat="36.79121267410433" lon="-4.578115671689709"><ele>258.0</ele><time>2026-03-28T10:48:21Z</time></trkpt><trkpt lat="36.79112151635173" lon="-4.578012059360052"><ele>258.0</ele><time>2026-03-28T10:48:23Z</time></trkpt><trkpt lat="36.791098184972626" lon="-4.577938014436868"><ele>258.0</ele><time>2026-03-28T10:48:24Z</time></trkpt><trkpt lat="36.7910997554862" lon="-4.577855443623369"><ele>258.0</ele><time>2026-03-28T10:48:25Z</time></trkpt><trkpt lat="36.79112037299317" lon="-4.577762290715779"><ele>258.0</ele><time>2026-03-28T10:48:26Z</time></trkpt><trkpt lat="36.791148624017154" lon="-4.577662337325973"><ele>256.4285714285714</ele><time>2026-03-28T10:48:27Z</time></trkpt><trkpt lat="36.79116256535976" lon="-4.577560459595901"><ele>254.85714285714283</ele><time>2026-03-28T10:48:28Z</time></trkpt><trkpt lat="36.79115525586654" lon="-4.5774567616618205"><ele>253.28571428571428</ele><time>2026-03-28T10:48:29Z</time></trkpt><trkpt lat="36.791161750484775" lon="-4.577371622318191"><ele>251.7142857142857</ele><time>2026-03-28T10:48:30Z</time></trkpt><trkpt lat="36.791204567248904" lon="-4.577301356626149"><ele>250.1428571428571</ele><time>2026-03-28T10:48:31Z</time></trkpt><trkpt lat="36.79123710348394" lon="-4.577230874243042"><ele>248.57142857142858</ele><time>2026-03-28T10:48:32Z</time></trkpt><trkpt lat="36.79124222060483" lon="-4.577150728468427"><ele>247.0</ele><time>2026-03-28T10:48:33Z</time></trkpt><trkpt lat="36.79122505069169" lon="-4.57707220194585"><ele>246.0</ele><time>2026-03-28T10:48:34Z</time></trkpt><trkpt lat="36.79119264949229" lon="-4.57698985982565"><ele>245.0</ele><time>2026-03-28T10:48:35Z</time></trkpt><trkpt lat="36.791147518862864" lon="-4.5769251966743285"><ele>244.0</ele><time>2026-03-28T10:48:36Z</time></trkpt><trkpt lat="36.79105866656052" lon="-4.576836688455916"><ele>243.0</ele><time>2026-03-28T10:48:38Z</time></trkpt><trkpt lat="36.791042021033526" lon="-4.576680257915898"><ele>242.0</ele><time>2026-03-28T10:48:40Z</time></trkpt><trkpt lat="36.791068527839755" lon="-4.576600337565079"><ele>242.0</ele><time>2026-03-28T10:48:41Z</time></trkpt><trkpt lat="36.791110398722864" lon="-4.576528337444618"><ele>241.99999999999997</ele><time>2026-03-28T10:48:42Z</time></trkpt><trkpt lat="36.79115989074487" lon="-4.576477955963832"><ele>242.0</ele><time>2026-03-28T10:48:43Z</time></trkpt><trkpt lat="36.791206056323695" lon="-4.576412150102687"><ele>242.0</ele><time>2026-03-28T10:48:44Z</time></trkpt><trkpt lat="36.79124393040594" lon="-4.57633593486627"><ele>241.99999999999997</ele><time>2026-03-28T10:48:45Z</time></trkpt><trkpt lat="36.791257929070454" lon="-4.57624272772221"><ele>242.0</ele><time>2026-03-28T10:48:46Z</time></trkpt><trkpt lat="36.79125831774999" lon="-4.576144824079988"><ele>242.0</ele><time>2026-03-28T10:48:47Z</time></trkpt><trkpt lat="36.7912611171251" lon="-4.576046649353892"><ele>242.50000000000003</ele><time>2026-03-28T10:48:48Z</time></trkpt><trkpt lat="36.79125022454236" lon="-4.57595863029231"><ele>243.0</ele><time>2026-03-28T10:48:49Z</time></trkpt><trkpt lat="36.7912424388796" lon="-4.575876830816391"><ele>243.5</ele><time>2026-03-28T10:48:50Z</time></trkpt><trkpt lat="36.791227267251095" lon="-4.5757476768167695"><ele>244.0</ele><time>2026-03-28T10:48:52Z</time></trkpt><trkpt lat="36.79118173591968" lon="-4.575633133110146"><ele>244.50000000000003</ele><time>2026-03-28T10:48:54Z</time></trkpt><trkpt lat="36.79113159280458" lon="-4.575584444240028"><ele>245.0</ele><time>2026-03-28T10:48:55Z</time></trkpt><trkpt lat="36.79106471941558" lon="-4.575553415097135"><ele>244.16666666666669</ele><time>2026-03-28T10:48:56Z</time></trkpt><trkpt lat="36.79099590486088" lon="-4.575528678835633"><ele>243.33333333333334</ele><time>2026-03-28T10:48:57Z</time></trkpt><trkpt lat="36.79093235414726" lon="-4.575520340523572"><ele>242.5</ele><time>2026-03-28T10:48:58Z</time></trkpt><trkpt lat="36.79081494750469" lon="-4.575540701540781"><ele>241.66666666666669</ele><time>2026-03-28T10:48:59.999Z</time></trkpt><trkpt lat="36.79073934342238" lon="-4.575514916776039"><ele>240.83333333333334</ele><time>2026-03-28T10:49:01.999Z</time></trkpt><trkpt lat="36.790733023749816" lon="-4.575424717500781"><ele>240.0</ele><time>2026-03-28T10:49:04.999Z</time></trkpt><trkpt lat="36.790849033397656" lon="-4.575420513672605"><ele>240.0</ele><time>2026-03-28T10:49:07.999Z</time></trkpt><trkpt lat="36.790911570847086" lon="-4.5754066974013705"><ele>240.0</ele><time>2026-03-28T10:49:08.999Z</time></trkpt><trkpt lat="36.790975516788464" lon="-4.57538386177066"><ele>240.0</ele><time>2026-03-28T10:49:09.999Z</time></trkpt><trkpt lat="36.791037629583016" lon="-4.57535815736389"><ele>240.0</ele><time>2026-03-28T10:49:10.999Z</time></trkpt><trkpt lat="36.7911038658692" lon="-4.575326826661529"><ele>240.0</ele><time>2026-03-28T10:49:11.999Z</time></trkpt><trkpt lat="36.791165337458565" lon="-4.5752817701121336"><ele>240.0</ele><time>2026-03-28T10:49:12.999Z</time></trkpt><trkpt lat="36.79122414560588" lon="-4.575221631444581"><ele>240.0</ele><time>2026-03-28T10:49:13.999Z</time></trkpt><trkpt lat="36.79127209845688" lon="-4.575163288095139"><ele>240.0</ele><time>2026-03-28T10:49:14.999Z</time></trkpt><trkpt lat="36.79130937591995" lon="-4.575097678701262"><ele>240.0</ele><time>2026-03-28T10:49:15.999Z</time></trkpt><trkpt lat="36.7913323718404" lon="-4.575019945213955"><ele>240.0</ele><time>2026-03-28T10:49:16.999Z</time></trkpt><trkpt lat="36.79134048821676" lon="-4.574937865917098"><ele>240.0</ele><time>2026-03-28T10:49:17.999Z</time></trkpt><trkpt lat="36.791341153492816" lon="-4.57484894437454"><ele>240.0</ele><time>2026-03-28T10:49:18.999Z</time></trkpt><trkpt lat="36.79133963472998" lon="-4.574755326475308"><ele>240.0</ele><time>2026-03-28T10:49:19.999Z</time></trkpt><trkpt lat="36.79133998004411" lon="-4.574653305106321"><ele>240.0</ele><time>2026-03-28T10:49:20.999Z</time></trkpt><trkpt lat="36.79133846060263" lon="-4.574557582696127"><ele>239.16666666666666</ele><time>2026-03-28T10:49:21.999Z</time></trkpt><trkpt lat="36.79133396423599" lon="-4.574477718287448"><ele>238.33333333333331</ele><time>2026-03-28T10:49:22.999Z</time></trkpt><trkpt lat="36.79132935458549" lon="-4.574352815463418"><ele>237.5</ele><time>2026-03-28T10:49:24.999Z</time></trkpt><trkpt lat="36.79133342745868" lon="-4.574264331308022"><ele>236.66666666666666</ele><time>2026-03-28T10:49:27Z</time></trkpt><trkpt lat="36.79135341915843" lon="-4.574146180583975"><ele>235.83333333333331</ele><time>2026-03-28T10:49:29Z</time></trkpt><trkpt lat="36.79137766878814" lon="-4.574071022047599"><ele>235.0</ele><time>2026-03-28T10:49:30Z</time></trkpt><trkpt lat="36.791405439156065" lon="-4.573995988563759"><ele>235.0</ele><time>2026-03-28T10:49:31Z</time></trkpt><trkpt lat="36.79145452191582" lon="-4.57393016965695"><ele>234.99999999999997</ele><time>2026-03-28T10:49:32Z</time></trkpt><trkpt lat="36.79149811378475" lon="-4.573866499311431"><ele>235.0</ele><time>2026-03-28T10:49:33Z</time></trkpt><trkpt lat="36.791553876825574" lon="-4.573808281004987"><ele>235.0</ele><time>2026-03-28T10:49:34Z</time></trkpt><trkpt lat="36.79160665371993" lon="-4.573750881832651"><ele>234.99999999999997</ele><time>2026-03-28T10:49:35Z</time></trkpt><trkpt lat="36.79166539829044" lon="-4.573698184813325"><ele>235.0</ele><time>2026-03-28T10:49:36Z</time></trkpt><trkpt lat="36.79171808628603" lon="-4.573637880544943"><ele>235.0</ele><time>2026-03-28T10:49:37Z</time></trkpt><trkpt lat="36.79176406320377" lon="-4.573572213333502"><ele>234.85714285714283</ele><time>2026-03-28T10:49:38Z</time></trkpt><trkpt lat="36.791806729156846" lon="-4.5735006290744105"><ele>234.7142857142857</ele><time>2026-03-28T10:49:39Z</time></trkpt><trkpt lat="36.79184412010564" lon="-4.573421218985037"><ele>234.57142857142856</ele><time>2026-03-28T10:49:40Z</time></trkpt><trkpt lat="36.79188128547588" lon="-4.573352589768822"><ele>234.42857142857144</ele><time>2026-03-28T10:49:41Z</time></trkpt><trkpt lat="36.791927693647686" lon="-4.57329565723747"><ele>234.2857142857143</ele><time>2026-03-28T10:49:42Z</time></trkpt><trkpt lat="36.79198196729466" lon="-4.573246341867053"><ele>234.14285714285717</ele><time>2026-03-28T10:49:43Z</time></trkpt><trkpt lat="36.79203243487242" lon="-4.573189536424046"><ele>234.0</ele><time>2026-03-28T10:49:44Z</time></trkpt><trkpt lat="36.79211180143554" lon="-4.573060581454965"><ele>234.0</ele><time>2026-03-28T10:49:46Z</time></trkpt><trkpt lat="36.792150064443945" lon="-4.572984348396456"><ele>233.99999999999997</ele><time>2026-03-28T10:49:47Z</time></trkpt><trkpt lat="36.79220371779311" lon="-4.572849336890877"><ele>233.99999999999997</ele><time>2026-03-28T10:49:49Z</time></trkpt><trkpt lat="36.79225064857714" lon="-4.572737546896307"><ele>234.0</ele><time>2026-03-28T10:49:51Z</time></trkpt><trkpt lat="36.79230871059493" lon="-4.57262486292503"><ele>234.0</ele><time>2026-03-28T10:49:53Z</time></trkpt><trkpt lat="36.79235165333591" lon="-4.572565571651335"><ele>232.83333333333334</ele><time>2026-03-28T10:49:54Z</time></trkpt><trkpt lat="36.79239602664231" lon="-4.572509089362888"><ele>231.66666666666669</ele><time>2026-03-28T10:49:55Z</time></trkpt><trkpt lat="36.792446486946375" lon="-4.572457123546033"><ele>230.5</ele><time>2026-03-28T10:49:56Z</time></trkpt><trkpt lat="36.792499332353735" lon="-4.572402380728236"><ele>229.33333333333334</ele><time>2026-03-28T10:49:57Z</time></trkpt><trkpt lat="36.79255116972932" lon="-4.572347449631866"><ele>228.16666666666669</ele><time>2026-03-28T10:49:58Z</time></trkpt><trkpt lat="36.79260294744704" lon="-4.5723004717890126"><ele>227.0</ele><time>2026-03-28T10:49:59Z</time></trkpt><trkpt lat="36.79270428880371" lon="-4.572203573512419"><ele>227.00000000000003</ele><time>2026-03-28T10:50:01Z</time></trkpt><trkpt lat="36.79275388527126" lon="-4.572153653251291"><ele>227.0</ele><time>2026-03-28T10:50:02Z</time></trkpt><trkpt lat="36.79285327319535" lon="-4.572075428065131"><ele>227.0</ele><time>2026-03-28T10:50:04Z</time></trkpt><trkpt lat="36.79290815315606" lon="-4.57203263106667"><ele>227.0</ele><time>2026-03-28T10:50:05Z</time></trkpt><trkpt lat="36.792961079575214" lon="-4.571989713486902"><ele>227.00000000000003</ele><time>2026-03-28T10:50:06Z</time></trkpt><trkpt lat="36.79305352430733" lon="-4.5719089483143405"><ele>227.0</ele><time>2026-03-28T10:50:08Z</time></trkpt><trkpt lat="36.793117408300894" lon="-4.571829972444439"><ele>222.39999999999998</ele><time>2026-03-28T10:50:10Z</time></trkpt><trkpt lat="36.79311923731476" lon="-4.571727820660452"><ele>217.79999999999998</ele><time>2026-03-28T10:50:14Z</time></trkpt><trkpt lat="36.79305107183879" lon="-4.571662029653371"><ele>213.2</ele><time>2026-03-28T10:50:16Z</time></trkpt><trkpt lat="36.792929865771924" lon="-4.571589422037807"><ele>208.6</ele><time>2026-03-28T10:50:18Z</time></trkpt><trkpt lat="36.79284982624263" lon="-4.571547840850453"><ele>204.0</ele><time>2026-03-28T10:50:19Z</time></trkpt><trkpt lat="36.79278199300771" lon="-4.571482599647956"><ele>204.0</ele><time>2026-03-28T10:50:20Z</time></trkpt><trkpt lat="36.79272574835417" lon="-4.571378475709985"><ele>204.0</ele><time>2026-03-28T10:50:21Z</time></trkpt><trkpt lat="36.79267024229061" lon="-4.571278321089943"><ele>204.0</ele><time>2026-03-28T10:50:22Z</time></trkpt><trkpt lat="36.79259579695882" lon="-4.571187892241319"><ele>204.0</ele><time>2026-03-28T10:50:23Z</time></trkpt><trkpt lat="36.79250701293585" lon="-4.5711132887335655"><ele>204.0</ele><time>2026-03-28T10:50:24Z</time></trkpt><trkpt lat="36.79241158700854" lon="-4.571057287272809"><ele>199.5</ele><time>2026-03-28T10:50:25Z</time></trkpt><trkpt lat="36.7922868167207" lon="-4.571013007293605"><ele>195.0</ele><time>2026-03-28T10:50:26Z</time></trkpt><trkpt lat="36.79216482737269" lon="-4.57098577421082"><ele>190.5</ele><time>2026-03-28T10:50:27Z</time></trkpt><trkpt lat="36.79204920341978" lon="-4.570970215974423"><ele>186.0</ele><time>2026-03-28T10:50:28Z</time></trkpt><trkpt lat="36.79193243167507" lon="-4.570953496544859"><ele>185.4</ele><time>2026-03-28T10:50:29Z</time></trkpt><trkpt lat="36.79181491969467" lon="-4.570938860300636"><ele>184.8</ele><time>2026-03-28T10:50:30Z</time></trkpt><trkpt lat="36.79170173116452" lon="-4.570920005176329"><ele>184.20000000000002</ele><time>2026-03-28T10:50:31Z</time></trkpt><trkpt lat="36.79159616129427" lon="-4.570884035785215"><ele>183.60000000000002</ele><time>2026-03-28T10:50:32Z</time></trkpt><trkpt lat="36.791505211687415" lon="-4.57081398770759"><ele>183.0</ele><time>2026-03-28T10:50:33Z</time></trkpt><trkpt lat="36.79144053917848" lon="-4.570718942215088"><ele>183.0</ele><time>2026-03-28T10:50:34Z</time></trkpt><trkpt lat="36.79138336431479" lon="-4.570617418965485"><ele>183.0</ele><time>2026-03-28T10:50:35Z</time></trkpt><trkpt lat="36.79131761532624" lon="-4.570508252408467"><ele>183.0</ele><time>2026-03-28T10:50:36Z</time></trkpt><trkpt lat="36.79124539338405" lon="-4.570404377267931"><ele>183.0</ele><time>2026-03-28T10:50:37Z</time></trkpt><trkpt lat="36.79116284685718" lon="-4.570302868506743"><ele>183.0</ele><time>2026-03-28T10:50:38Z</time></trkpt><trkpt lat="36.79106981740403" lon="-4.570220375545135"><ele>180.75</ele><time>2026-03-28T10:50:39Z</time></trkpt><trkpt lat="36.790957442568505" lon="-4.570158195402496"><ele>178.5</ele><time>2026-03-28T10:50:40Z</time></trkpt><trkpt lat="36.790838174160264" lon="-4.570101188273773"><ele>176.25</ele><time>2026-03-28T10:50:41Z</time></trkpt><trkpt lat="36.79072485266037" lon="-4.570040268971654"><ele>174.0</ele><time>2026-03-28T10:50:42Z</time></trkpt><trkpt lat="36.79061878725445" lon="-4.569983471532842"><ele>174.0</ele><time>2026-03-28T10:50:43Z</time></trkpt><trkpt lat="36.790522152651235" lon="-4.569937145932105"><ele>174.0</ele><time>2026-03-28T10:50:44Z</time></trkpt><trkpt lat="36.790430749626886" lon="-4.569871597903366"><ele>174.0</ele><time>2026-03-28T10:50:45Z</time></trkpt><trkpt lat="36.790337973671306" lon="-4.569782413393936"><ele>174.0</ele><time>2026-03-28T10:50:46Z</time></trkpt><trkpt lat="36.79028418483676" lon="-4.569638715883642"><ele>174.0</ele><time>2026-03-28T10:50:47Z</time></trkpt><trkpt lat="36.79021091315848" lon="-4.569525501110765"><ele>174.0</ele><time>2026-03-28T10:50:48Z</time></trkpt><trkpt lat="36.790165742825316" lon="-4.569402325036276"><ele>174.0</ele><time>2026-03-28T10:50:49Z</time></trkpt><trkpt lat="36.79015547252331" lon="-4.569271173374664"><ele>174.0</ele><time>2026-03-28T10:50:50Z</time></trkpt><trkpt lat="36.79015902887267" lon="-4.569156662333803"><ele>174.0</ele><time>2026-03-28T10:50:51Z</time></trkpt><trkpt lat="36.79011932743274" lon="-4.569047406960721"><ele>174.39999999999998</ele><time>2026-03-28T10:50:52Z</time></trkpt><trkpt lat="36.79005602996514" lon="-4.568948308760489"><ele>174.8</ele><time>2026-03-28T10:50:53Z</time></trkpt><trkpt lat="36.78998075384836" lon="-4.568852185337397"><ele>175.2</ele><time>2026-03-28T10:50:54Z</time></trkpt><trkpt lat="36.7899114128212" lon="-4.568760107193065"><ele>175.60000000000002</ele><time>2026-03-28T10:50:55Z</time></trkpt><trkpt lat="36.789838633542445" lon="-4.568692585060189"><ele>176.0</ele><time>2026-03-28T10:50:56Z</time></trkpt><trkpt lat="36.789747800551076" lon="-4.568643805723363"><ele>168.25</ele><time>2026-03-28T10:50:57Z</time></trkpt><trkpt lat="36.789654663743754" lon="-4.568605770120519"><ele>160.5</ele><time>2026-03-28T10:50:58Z</time></trkpt><trkpt lat="36.789552146056536" lon="-4.568560365582686"><ele>152.75</ele><time>2026-03-28T10:50:59Z</time></trkpt><trkpt lat="36.78946571894005" lon="-4.5684362793082745"><ele>145.0</ele><time>2026-03-28T10:51:00Z</time></trkpt><trkpt lat="36.78937724319354" lon="-4.568329726737383"><ele>145.75</ele><time>2026-03-28T10:51:01Z</time></trkpt><trkpt lat="36.78928831427316" lon="-4.5682178801052915"><ele>146.5</ele><time>2026-03-28T10:51:02Z</time></trkpt><trkpt lat="36.78919144000231" lon="-4.56810829541044"><ele>147.25</ele><time>2026-03-28T10:51:03Z</time></trkpt><trkpt lat="36.78913935023249" lon="-4.56796318057522"><ele>148.0</ele><time>2026-03-28T10:51:04Z</time></trkpt><trkpt lat="36.78907937566805" lon="-4.56783352035352"><ele>148.0</ele><time>2026-03-28T10:51:05Z</time></trkpt><trkpt lat="36.78903072928663" lon="-4.5676901820982545"><ele>148.0</ele><time>2026-03-28T10:51:06Z</time></trkpt><trkpt lat="36.78899592507252" lon="-4.567541020902677"><ele>148.0</ele><time>2026-03-28T10:51:07Z</time></trkpt><trkpt lat="36.78896779623456" lon="-4.567392555500175"><ele>148.0</ele><time>2026-03-28T10:51:08Z</time></trkpt><trkpt lat="36.78894322541929" lon="-4.567245090416016"><ele>148.0</ele><time>2026-03-28T10:51:09Z</time></trkpt><trkpt lat="36.78892196369792" lon="-4.5670973635245495"><ele>148.0</ele><time>2026-03-28T10:51:10Z</time></trkpt><trkpt lat="36.78890259945889" lon="-4.566939206513269"><ele>148.0</ele><time>2026-03-28T10:51:11Z</time></trkpt><trkpt lat="36.788885138808475" lon="-4.566774697585064"><ele>148.0</ele><time>2026-03-28T10:51:12Z</time></trkpt><trkpt lat="36.78886710718563" lon="-4.566611636292338"><ele>143.0</ele><time>2026-03-28T10:51:13Z</time></trkpt><trkpt lat="36.78884933528827" lon="-4.5664479896585695"><ele>138.0</ele><time>2026-03-28T10:51:14Z</time></trkpt><trkpt lat="36.78883385891544" lon="-4.566286504592308"><ele>133.0</ele><time>2026-03-28T10:51:15Z</time></trkpt><trkpt lat="36.788818109150704" lon="-4.5661269003737"><ele>128.0</ele><time>2026-03-28T10:51:16Z</time></trkpt><trkpt lat="36.788813791846586" lon="-4.565968966525295"><ele>126.0</ele><time>2026-03-28T10:51:16.999Z</time></trkpt><trkpt lat="36.78881372886968" lon="-4.5658214619747515"><ele>124.0</ele><time>2026-03-28T10:51:17.999Z</time></trkpt><trkpt lat="36.78880919201177" lon="-4.565681672502707"><ele>122.0</ele><time>2026-03-28T10:51:18.999Z</time></trkpt><trkpt lat="36.78880010435875" lon="-4.565539309983741"><ele>120.0</ele><time>2026-03-28T10:51:19.999Z</time></trkpt><trkpt lat="36.78877222334317" lon="-4.565394295946506"><ele>117.25</ele><time>2026-03-28T10:51:20.999Z</time></trkpt><trkpt lat="36.78873740600684" lon="-4.565249818150652"><ele>114.5</ele><time>2026-03-28T10:51:21.999Z</time></trkpt><trkpt lat="36.78869319889561" lon="-4.565112244590647"><ele>111.75</ele><time>2026-03-28T10:51:22.999Z</time></trkpt><trkpt lat="36.78865803608237" lon="-4.564976485184581"><ele>109.0</ele><time>2026-03-28T10:51:23.999Z</time></trkpt><trkpt lat="36.78864276665097" lon="-4.5648421980892895"><ele>109.0</ele><time>2026-03-28T10:51:24.999Z</time></trkpt><trkpt lat="36.78863347315633" lon="-4.564717939718877"><ele>109.0</ele><time>2026-03-28T10:51:25.999Z</time></trkpt><trkpt lat="36.788606823792925" lon="-4.564599616146131"><ele>109.0</ele><time>2026-03-28T10:51:26.999Z</time></trkpt><trkpt lat="36.78855718460527" lon="-4.5644804227780575"><ele>109.0</ele><time>2026-03-28T10:51:27.999Z</time></trkpt><trkpt lat="36.788488260393194" lon="-4.564357868396051"><ele>109.0</ele><time>2026-03-28T10:51:28.999Z</time></trkpt><trkpt lat="36.788421338756905" lon="-4.564233419195479"><ele>107.75</ele><time>2026-03-28T10:51:29.999Z</time></trkpt><trkpt lat="36.788366962401334" lon="-4.564098562143286"><ele>106.5</ele><time>2026-03-28T10:51:30.999Z</time></trkpt><trkpt lat="36.788329776863506" lon="-4.563957942254731"><ele>105.25</ele><time>2026-03-28T10:51:31.999Z</time></trkpt><trkpt lat="36.78830700949465" lon="-4.56381758986437"><ele>104.0</ele><time>2026-03-28T10:51:33Z</time></trkpt><trkpt lat="36.788298246003826" lon="-4.563676050621989"><ele>104.0</ele><time>2026-03-28T10:51:34Z</time></trkpt><trkpt lat="36.78830637960055" lon="-4.56353877085872"><ele>104.0</ele><time>2026-03-28T10:51:35Z</time></trkpt><trkpt lat="36.78832770849793" lon="-4.5634164423116745"><ele>104.0</ele><time>2026-03-28T10:51:36Z</time></trkpt><trkpt lat="36.78834850196674" lon="-4.56330979661606"><ele>104.0</ele><time>2026-03-28T10:51:37Z</time></trkpt><trkpt lat="36.78836441232955" lon="-4.563205503914984"><ele>104.0</ele><time>2026-03-28T10:51:38Z</time></trkpt><trkpt lat="36.78836318915567" lon="-4.563106101510558"><ele>103.99999999999999</ele><time>2026-03-28T10:51:39Z</time></trkpt><trkpt lat="36.78834142960612" lon="-4.563022652251581"><ele>104.0</ele><time>2026-03-28T10:51:40Z</time></trkpt><trkpt lat="36.788309533882554" lon="-4.56295342741101"><ele>104.0</ele><time>2026-03-28T10:51:41Z</time></trkpt><trkpt lat="36.78822405129873" lon="-4.562850355622625"><ele>104.0</ele><time>2026-03-28T10:51:43Z</time></trkpt><trkpt lat="36.78815326044584" lon="-4.5627878919854234"><ele>103.99999999999999</ele><time>2026-03-28T10:51:45Z</time></trkpt><trkpt lat="36.78820505958185" lon="-4.562703293378867"><ele>104.0</ele><time>2026-03-28T10:51:50Z</time></trkpt><trkpt lat="36.788323202947595" lon="-4.562693251350866"><ele>104.0</ele><time>2026-03-28T10:51:52Z</time></trkpt><trkpt lat="36.78843488565028" lon="-4.562667793342881"><ele>104.0</ele><time>2026-03-28T10:51:54Z</time></trkpt><trkpt lat="36.78854541304413" lon="-4.562666368234259"><ele>104.0</ele><time>2026-03-28T10:51:56Z</time></trkpt><trkpt lat="36.78866187326263" lon="-4.5626626015626055"><ele>104.0</ele><time>2026-03-28T10:51:58Z</time></trkpt><trkpt lat="36.788735007559964" lon="-4.562670802768632"><ele>104.0</ele><time>2026-03-28T10:51:59Z</time></trkpt><trkpt lat="36.78882300536856" lon="-4.562662714251774"><ele>103.80000000000001</ele><time>2026-03-28T10:52:00Z</time></trkpt><trkpt lat="36.78889772776137" lon="-4.562632248501995"><ele>103.60000000000001</ele><time>2026-03-28T10:52:01Z</time></trkpt><trkpt lat="36.78900471803036" lon="-4.562570366299988"><ele>103.4</ele><time>2026-03-28T10:52:03Z</time></trkpt><trkpt lat="36.78911236057096" lon="-4.562521949105871"><ele>103.2</ele><time>2026-03-28T10:52:05Z</time></trkpt><trkpt lat="36.78917776255274" lon="-4.562494679241524"><ele>103.0</ele><time>2026-03-28T10:52:06Z</time></trkpt><trkpt lat="36.78929368197949" lon="-4.562452889719704"><ele>103.80000000000001</ele><time>2026-03-28T10:52:08Z</time></trkpt><trkpt lat="36.78940698414365" lon="-4.562447636464261"><ele>104.6</ele><time>2026-03-28T10:52:10Z</time></trkpt><trkpt lat="36.78947143701354" lon="-4.562447392766416"><ele>105.39999999999999</ele><time>2026-03-28T10:52:11Z</time></trkpt><trkpt lat="36.78958181707552" lon="-4.562420393923665"><ele>106.19999999999999</ele><time>2026-03-28T10:52:13Z</time></trkpt><trkpt lat="36.78965620985614" lon="-4.562401802631377"><ele>107.0</ele><time>2026-03-28T10:52:15Z</time></trkpt><trkpt lat="36.78974763507901" lon="-4.562382120628986"><ele>107.0</ele><time>2026-03-28T10:52:18Z</time></trkpt><trkpt lat="36.789838474436735" lon="-4.5623786240239"><ele>106.99999999999999</ele><time>2026-03-28T10:52:20Z</time></trkpt><trkpt lat="36.789926678835165" lon="-4.562387680067966"><ele>106.99999999999999</ele><time>2026-03-28T10:52:22Z</time></trkpt><trkpt lat="36.79003551874708" lon="-4.562387680068247"><ele>107.0</ele><time>2026-03-28T10:52:24Z</time></trkpt><trkpt lat="36.79013975275341" lon="-4.562400234650246"><ele>107.0</ele><time>2026-03-28T10:52:26Z</time></trkpt><trkpt lat="36.79025247454381" lon="-4.562374699242022"><ele>106.85714285714286</ele><time>2026-03-28T10:52:28Z</time></trkpt><trkpt lat="36.79031692505436" lon="-4.56236921466616"><ele>106.71428571428572</ele><time>2026-03-28T10:52:29Z</time></trkpt><trkpt lat="36.79038093757225" lon="-4.562363191554947"><ele>106.57142857142858</ele><time>2026-03-28T10:52:30Z</time></trkpt><trkpt lat="36.79044577641572" lon="-4.562363923210339"><ele>106.42857142857143</ele><time>2026-03-28T10:52:31Z</time></trkpt><trkpt lat="36.790514749229914" lon="-4.562363393448238"><ele>106.28571428571428</ele><time>2026-03-28T10:52:32Z</time></trkpt><trkpt lat="36.79057957553282" lon="-4.5623542292182675"><ele>106.14285714285715</ele><time>2026-03-28T10:52:33Z</time></trkpt><trkpt lat="36.79064443578293" lon="-4.562344111701579"><ele>106.0</ele><time>2026-03-28T10:52:34Z</time></trkpt><trkpt lat="36.79070170123422" lon="-4.56231037084224"><ele>106.00000000000001</ele><time>2026-03-28T10:52:35Z</time></trkpt><trkpt lat="36.79075134319584" lon="-4.562259979417699"><ele>106.0</ele><time>2026-03-28T10:52:36Z</time></trkpt><trkpt lat="36.790797631060265" lon="-4.562107319521376"><ele>106.0</ele><time>2026-03-28T10:52:38Z</time></trkpt><trkpt lat="36.79080730102366" lon="-4.5620212577466805"><ele>106.0</ele><time>2026-03-28T10:52:39Z</time></trkpt><trkpt lat="36.79080945040437" lon="-4.561931857237485"><ele>106.00000000000001</ele><time>2026-03-28T10:52:40Z</time></trkpt><trkpt lat="36.79081400486207" lon="-4.561846666371957"><ele>106.0</ele><time>2026-03-28T10:52:41Z</time></trkpt><trkpt lat="36.79081726194079" lon="-4.561732201636272"><ele>106.0</ele><time>2026-03-28T10:52:43Z</time></trkpt><trkpt lat="36.79075367076834" lon="-4.5617033506958755"><ele>106.0</ele><time>2026-03-28T10:52:45Z</time></trkpt><trkpt lat="36.790686046752406" lon="-4.561786422687875"><ele>106.0</ele><time>2026-03-28T10:52:47Z</time></trkpt><trkpt lat="36.79065137265651" lon="-4.561919212973032"><ele>106.0</ele><time>2026-03-28T10:52:49Z</time></trkpt><trkpt lat="36.79057357728636" lon="-4.5620151397756175"><ele>106.0</ele><time>2026-03-28T10:52:51Z</time></trkpt><trkpt lat="36.79046413006615" lon="-4.562040261233059"><ele>108.25</ele><time>2026-03-28T10:52:53Z</time></trkpt><trkpt lat="36.7903410206758" lon="-4.562014485685926"><ele>110.5</ele><time>2026-03-28T10:52:55Z</time></trkpt><trkpt lat="36.79022303904517" lon="-4.561981925626848"><ele>112.75</ele><time>2026-03-28T10:52:57Z</time></trkpt><trkpt lat="36.790119616922304" lon="-4.561907732998661"><ele>115.0</ele><time>2026-03-28T10:52:59Z</time></trkpt><trkpt lat="36.79003115019269" lon="-4.561814542873065"><ele>116.5</ele><time>2026-03-28T10:53:01Z</time></trkpt><trkpt lat="36.789955190651455" lon="-4.561715111982"><ele>118.0</ele><time>2026-03-28T10:53:03Z</time></trkpt><trkpt lat="36.78987106583761" lon="-4.561616605034576"><ele>119.5</ele><time>2026-03-28T10:53:05Z</time></trkpt><trkpt lat="36.78977693114057" lon="-4.561521043684399"><ele>121.0</ele><time>2026-03-28T10:53:07Z</time></trkpt><trkpt lat="36.78966664341894" lon="-4.5614697249128175"><ele>121.0</ele><time>2026-03-28T10:53:09Z</time></trkpt><trkpt lat="36.789550005741944" lon="-4.56142619723976"><ele>121.0</ele><time>2026-03-28T10:53:11Z</time></trkpt><trkpt lat="36.78943321550229" lon="-4.561412602489458"><ele>121.0</ele><time>2026-03-28T10:53:12.999Z</time></trkpt><trkpt lat="36.78931686563887" lon="-4.56141255417333"><ele>121.0</ele><time>2026-03-28T10:53:14.999Z</time></trkpt><trkpt lat="36.78919864371428" lon="-4.561414596834296"><ele>121.0</ele><time>2026-03-28T10:53:16.999Z</time></trkpt><trkpt lat="36.78907742461492" lon="-4.561432235360335"><ele>121.0</ele><time>2026-03-28T10:53:18.999Z</time></trkpt><trkpt lat="36.78895986757877" lon="-4.561464765789466"><ele>121.0</ele><time>2026-03-28T10:53:20.999Z</time></trkpt><trkpt lat="36.788849114781385" lon="-4.561497825995539"><ele>121.0</ele><time>2026-03-28T10:53:22.999Z</time></trkpt><trkpt lat="36.78876604312627" lon="-4.56143836002133"><ele>121.0</ele><time>2026-03-28T10:53:24.999Z</time></trkpt><trkpt lat="36.78875380755241" lon="-4.561279233885736"><ele>121.0</ele><time>2026-03-28T10:53:26.999Z</time></trkpt><trkpt lat="36.788799764481496" lon="-4.561142153920763"><ele>121.0</ele><time>2026-03-28T10:53:28.999Z</time></trkpt><trkpt lat="36.78874579046653" lon="-4.561009549144616"><ele>121.0</ele><time>2026-03-28T10:53:30.999Z</time></trkpt><trkpt lat="36.78870515152039" lon="-4.56093510936552"><ele>121.0</ele><time>2026-03-28T10:53:31.999Z</time></trkpt><trkpt lat="36.7886844961613" lon="-4.560848732119058"><ele>124.83333333333334</ele><time>2026-03-28T10:53:32.999Z</time></trkpt><trkpt lat="36.78867030884104" lon="-4.560749495022096"><ele>128.66666666666669</ele><time>2026-03-28T10:53:33.999Z</time></trkpt><trkpt lat="36.78865881126611" lon="-4.560649495539138"><ele>132.5</ele><time>2026-03-28T10:53:34.999Z</time></trkpt><trkpt lat="36.78865152577076" lon="-4.56055243282976"><ele>136.33333333333334</ele><time>2026-03-28T10:53:35.999Z</time></trkpt><trkpt lat="36.78864108824874" lon="-4.560463718408818"><ele>140.16666666666666</ele><time>2026-03-28T10:53:36.999Z</time></trkpt><trkpt lat="36.788621314252545" lon="-4.560377845428323"><ele>144.0</ele><time>2026-03-28T10:53:37.999Z</time></trkpt><trkpt lat="36.78859739941876" lon="-4.560290559261293"><ele>146.2857142857143</ele><time>2026-03-28T10:53:39Z</time></trkpt><trkpt lat="36.788584159101916" lon="-4.560200692762166"><ele>148.57142857142858</ele><time>2026-03-28T10:53:40Z</time></trkpt><trkpt lat="36.7886033355425" lon="-4.560109589615347"><ele>150.85714285714286</ele><time>2026-03-28T10:53:41Z</time></trkpt><trkpt lat="36.78864462257144" lon="-4.5600407312828715"><ele>153.14285714285717</ele><time>2026-03-28T10:53:42Z</time></trkpt><trkpt lat="36.788711137513395" lon="-4.560025022822021"><ele>155.42857142857144</ele><time>2026-03-28T10:53:43Z</time></trkpt><trkpt lat="36.78877990024256" lon="-4.560055723583098"><ele>157.71428571428572</ele><time>2026-03-28T10:53:44Z</time></trkpt><trkpt lat="36.78885124453051" lon="-4.560118243040527"><ele>160.0</ele><time>2026-03-28T10:53:45Z</time></trkpt><trkpt lat="36.78892620810538" lon="-4.560164809976156"><ele>160.0</ele><time>2026-03-28T10:53:46Z</time></trkpt><trkpt lat="36.78900282688176" lon="-4.560194129584277"><ele>160.0</ele><time>2026-03-28T10:53:47Z</time></trkpt><trkpt lat="36.78908160197726" lon="-4.560216585425623"><ele>160.0</ele><time>2026-03-28T10:53:48Z</time></trkpt><trkpt lat="36.78915601053557" lon="-4.560236638719288"><ele>160.0</ele><time>2026-03-28T10:53:49Z</time></trkpt><trkpt lat="36.78923456699835" lon="-4.560250027128047"><ele>160.0</ele><time>2026-03-28T10:53:50Z</time></trkpt><trkpt lat="36.7893107102616" lon="-4.560271177309079"><ele>160.0</ele><time>2026-03-28T10:53:51Z</time></trkpt><trkpt lat="36.789385506439736" lon="-4.5603053862413505"><ele>158.16666666666669</ele><time>2026-03-28T10:53:52Z</time></trkpt><trkpt lat="36.78946050353251" lon="-4.560334130846142"><ele>156.33333333333334</ele><time>2026-03-28T10:53:53Z</time></trkpt><trkpt lat="36.78953384746275" lon="-4.560365082011461"><ele>154.5</ele><time>2026-03-28T10:53:54Z</time></trkpt><trkpt lat="36.78960617228591" lon="-4.560395958515088"><ele>152.66666666666666</ele><time>2026-03-28T10:53:55Z</time></trkpt><trkpt lat="36.78967612882891" lon="-4.560430064737799"><ele>150.83333333333331</ele><time>2026-03-28T10:53:56Z</time></trkpt><trkpt lat="36.78974975781527" lon="-4.560437799574713"><ele>149.0</ele><time>2026-03-28T10:53:57Z</time></trkpt><trkpt lat="36.789820540490545" lon="-4.560467256503858"><ele>149.0</ele><time>2026-03-28T10:53:58Z</time></trkpt><trkpt lat="36.78988859679721" lon="-4.560494502273145"><ele>149.0</ele><time>2026-03-28T10:53:59Z</time></trkpt><trkpt lat="36.789959088683375" lon="-4.560520499671739"><ele>149.0</ele><time>2026-03-28T10:54:00Z</time></trkpt><trkpt lat="36.790029841014615" lon="-4.560545671506275"><ele>149.0</ele><time>2026-03-28T10:54:01Z</time></trkpt><trkpt lat="36.79009630190254" lon="-4.560569316586993"><ele>149.0</ele><time>2026-03-28T10:54:02Z</time></trkpt><trkpt lat="36.79018714277209" lon="-4.56055420766239"><ele>149.0</ele><time>2026-03-28T10:54:04Z</time></trkpt><trkpt lat="36.79026621132663" lon="-4.560480369842388"><ele>146.4</ele><time>2026-03-28T10:54:06Z</time></trkpt><trkpt lat="36.790336421275256" lon="-4.560379847692847"><ele>143.8</ele><time>2026-03-28T10:54:08Z</time></trkpt><trkpt lat="36.7903808982595" lon="-4.5602459257358845"><ele>141.2</ele><time>2026-03-28T10:54:10Z</time></trkpt><trkpt lat="36.790413180243426" lon="-4.56009891132608"><ele>138.6</ele><time>2026-03-28T10:54:12Z</time></trkpt><trkpt lat="36.790444636565994" lon="-4.560010775094094"><ele>136.0</ele><time>2026-03-28T10:54:13Z</time></trkpt><trkpt lat="36.790463986007" lon="-4.559926272934928"><ele>140.14285714285714</ele><time>2026-03-28T10:54:14Z</time></trkpt><trkpt lat="36.790492071285364" lon="-4.559840827373632"><ele>144.28571428571428</ele><time>2026-03-28T10:54:15Z</time></trkpt><trkpt lat="36.79051585544842" lon="-4.559750423372357"><ele>148.42857142857144</ele><time>2026-03-28T10:54:16Z</time></trkpt><trkpt lat="36.79057402122622" lon="-4.559692449074981"><ele>152.57142857142856</ele><time>2026-03-28T10:54:17Z</time></trkpt><trkpt lat="36.79059911762612" lon="-4.559615137281974"><ele>156.71428571428572</ele><time>2026-03-28T10:54:18Z</time></trkpt><trkpt lat="36.79061456579681" lon="-4.559527246019603"><ele>160.85714285714286</ele><time>2026-03-28T10:54:19Z</time></trkpt><trkpt lat="36.79062591620511" lon="-4.559432946209118"><ele>165.0</ele><time>2026-03-28T10:54:20Z</time></trkpt><trkpt lat="36.790636389755775" lon="-4.559352323895206"><ele>168.0</ele><time>2026-03-28T10:54:21Z</time></trkpt><trkpt lat="36.79067982119531" lon="-4.559225122759961"><ele>171.0</ele><time>2026-03-28T10:54:23Z</time></trkpt><trkpt lat="36.79073840647965" lon="-4.559109285630481"><ele>174.0</ele><time>2026-03-28T10:54:25Z</time></trkpt><trkpt lat="36.79078004334346" lon="-4.559005395543413"><ele>177.0</ele><time>2026-03-28T10:54:27Z</time></trkpt><trkpt lat="36.79084558283668" lon="-4.55892095466779"><ele>180.0</ele><time>2026-03-28T10:54:29Z</time></trkpt><trkpt lat="36.79094970623651" lon="-4.558901467970051"><ele>178.4</ele><time>2026-03-28T10:54:31Z</time></trkpt><trkpt lat="36.791064698965066" lon="-4.558929296120089"><ele>176.8</ele><time>2026-03-28T10:54:33Z</time></trkpt><trkpt lat="36.79114508811434" lon="-4.558962143682749"><ele>175.2</ele><time>2026-03-28T10:54:35Z</time></trkpt><trkpt lat="36.791178515891005" lon="-4.558852283572548"><ele>173.6</ele><time>2026-03-28T10:54:37Z</time></trkpt><trkpt lat="36.791138345335" lon="-4.558732914091858"><ele>172.0</ele><time>2026-03-28T10:54:39Z</time></trkpt><trkpt lat="36.79110695449757" lon="-4.558606090459042"><ele>176.0</ele><time>2026-03-28T10:54:41Z</time></trkpt><trkpt lat="36.791068987409304" lon="-4.558489883004739"><ele>180.0</ele><time>2026-03-28T10:54:43Z</time></trkpt><trkpt lat="36.79100692272106" lon="-4.558411991113877"><ele>184.0</ele><time>2026-03-28T10:54:45Z</time></trkpt><trkpt lat="36.7909034665262" lon="-4.558436151823669"><ele>188.0</ele><time>2026-03-28T10:54:47Z</time></trkpt><trkpt lat="36.79080685763872" lon="-4.558474410841409"><ele>192.0</ele><time>2026-03-28T10:54:49Z</time></trkpt><trkpt lat="36.79068415689777" lon="-4.558538323263468"><ele>193.2</ele><time>2026-03-28T10:54:51Z</time></trkpt><trkpt lat="36.79062027496339" lon="-4.558568782186105"><ele>194.39999999999998</ele><time>2026-03-28T10:54:52Z</time></trkpt><trkpt lat="36.790537591144584" lon="-4.558527597496689"><ele>195.60000000000002</ele><time>2026-03-28T10:54:53Z</time></trkpt><trkpt lat="36.790426728109445" lon="-4.5585687408660265"><ele>196.8</ele><time>2026-03-28T10:54:55Z</time></trkpt><trkpt lat="36.79034639757835" lon="-4.558644818347564"><ele>198.0</ele><time>2026-03-28T10:54:58Z</time></trkpt><trkpt lat="36.790247892312024" lon="-4.558700659918805"><ele>196.60000000000002</ele><time>2026-03-28T10:55:00Z</time></trkpt><trkpt lat="36.7901586896521" lon="-4.5587709844791195"><ele>195.20000000000002</ele><time>2026-03-28T10:55:02Z</time></trkpt><trkpt lat="36.790079027518544" lon="-4.558842629143375"><ele>193.8</ele><time>2026-03-28T10:55:04Z</time></trkpt><trkpt lat="36.790001490274435" lon="-4.55890604731946"><ele>192.4</ele><time>2026-03-28T10:55:06Z</time></trkpt><trkpt lat="36.78991307945641" lon="-4.558940127387479"><ele>191.0</ele><time>2026-03-28T10:55:08Z</time></trkpt><trkpt lat="36.789824109996566" lon="-4.558937051851701"><ele>191.0</ele><time>2026-03-28T10:55:10Z</time></trkpt><trkpt lat="36.789768684788726" lon="-4.558843669561809"><ele>191.0</ele><time>2026-03-28T10:55:12Z</time></trkpt><trkpt lat="36.78980477328423" lon="-4.558729143753086"><ele>191.0</ele><time>2026-03-28T10:55:14Z</time></trkpt><trkpt lat="36.78989108682124" lon="-4.558640566411969"><ele>191.0</ele><time>2026-03-28T10:55:16Z</time></trkpt><trkpt lat="36.78993659771487" lon="-4.558578743429367"><ele>191.0</ele><time>2026-03-28T10:55:17Z</time></trkpt><trkpt lat="36.789990716008724" lon="-4.558461182440124"><ele>192.75</ele><time>2026-03-28T10:55:19Z</time></trkpt><trkpt lat="36.79003831494658" lon="-4.5583680626737655"><ele>194.5</ele><time>2026-03-28T10:55:20.999Z</time></trkpt><trkpt lat="36.79010932947395" lon="-4.558270855958678"><ele>196.25</ele><time>2026-03-28T10:55:22.999Z</time></trkpt><trkpt lat="36.7903149520718" lon="-4.558107224140937"><ele>198.0</ele><time>2026-03-28T10:55:24.999Z</time></trkpt><trkpt lat="36.79038081082146" lon="-4.558057231828725"><ele>198.0</ele><time>2026-03-28T10:55:25.999Z</time></trkpt><trkpt lat="36.790416222553205" lon="-4.5579691067954675"><ele>198.0</ele><time>2026-03-28T10:55:26.999Z</time></trkpt><trkpt lat="36.79046076808458" lon="-4.557893239212224"><ele>198.0</ele><time>2026-03-28T10:55:27.999Z</time></trkpt><trkpt lat="36.790489953324446" lon="-4.557816385024964"><ele>198.0</ele><time>2026-03-28T10:55:28.999Z</time></trkpt><trkpt lat="36.790515569949754" lon="-4.557740496561459"><ele>198.0</ele><time>2026-03-28T10:55:29.999Z</time></trkpt><trkpt lat="36.79054512176474" lon="-4.557663174014261"><ele>198.0</ele><time>2026-03-28T10:55:30.999Z</time></trkpt><trkpt lat="36.790552625950355" lon="-4.557574624563058"><ele>198.0</ele><time>2026-03-28T10:55:31.999Z</time></trkpt><trkpt lat="36.79053430784277" lon="-4.5574885795512055"><ele>202.0</ele><time>2026-03-28T10:55:32.999Z</time></trkpt><trkpt lat="36.790534307845114" lon="-4.557405685838227"><ele>206.0</ele><time>2026-03-28T10:55:33.999Z</time></trkpt><trkpt lat="36.79051370109256" lon="-4.5572529916437965"><ele>210.0</ele><time>2026-03-28T10:55:35.999Z</time></trkpt><trkpt lat="36.79048883539261" lon="-4.5571708804595685"><ele>214.0</ele><time>2026-03-28T10:55:36.999Z</time></trkpt><trkpt lat="36.790458590788504" lon="-4.557082874537598"><ele>218.0</ele><time>2026-03-28T10:55:37.999Z</time></trkpt><trkpt lat="36.7904546491749" lon="-4.556979392705031"><ele>222.0</ele><time>2026-03-28T10:55:38.999Z</time></trkpt><trkpt lat="36.79044409039364" lon="-4.55689105140337"><ele>224.28571428571428</ele><time>2026-03-28T10:55:39.999Z</time></trkpt><trkpt lat="36.79045034589486" lon="-4.5567955576114585"><ele>226.57142857142858</ele><time>2026-03-28T10:55:40.999Z</time></trkpt><trkpt lat="36.79046424271511" lon="-4.556702114104806"><ele>228.85714285714286</ele><time>2026-03-28T10:55:41.999Z</time></trkpt><trkpt lat="36.79047065872912" lon="-4.556615863303678"><ele>231.14285714285714</ele><time>2026-03-28T10:55:42.999Z</time></trkpt><trkpt lat="36.79047569439472" lon="-4.556531929669298"><ele>233.42857142857144</ele><time>2026-03-28T10:55:43.999Z</time></trkpt><trkpt lat="36.790488639159" lon="-4.556441781908054"><ele>235.71428571428572</ele><time>2026-03-28T10:55:45Z</time></trkpt><trkpt lat="36.79051070647332" lon="-4.556348779649839"><ele>238.0</ele><time>2026-03-28T10:55:46Z</time></trkpt><trkpt lat="36.79054575518628" lon="-4.556253156590098"><ele>241.83333333333331</ele><time>2026-03-28T10:55:47Z</time></trkpt><trkpt lat="36.7906073204634" lon="-4.556170579621584"><ele>245.66666666666666</ele><time>2026-03-28T10:55:48Z</time></trkpt><trkpt lat="36.790704209702426" lon="-4.556078499733723"><ele>249.5</ele><time>2026-03-28T10:55:50Z</time></trkpt><trkpt lat="36.790772562983314" lon="-4.556047114619925"><ele>253.33333333333331</ele><time>2026-03-28T10:55:51Z</time></trkpt><trkpt lat="36.790846826182275" lon="-4.556037331665826"><ele>257.1666666666667</ele><time>2026-03-28T10:55:52Z</time></trkpt><trkpt lat="36.790918287980645" lon="-4.556048062378652"><ele>261.0</ele><time>2026-03-28T10:55:53Z</time></trkpt><trkpt lat="36.7909883135789" lon="-4.556067900249937"><ele>262.0</ele><time>2026-03-28T10:55:54Z</time></trkpt><trkpt lat="36.7910680233795" lon="-4.556060752680894"><ele>263.0</ele><time>2026-03-28T10:55:55Z</time></trkpt><trkpt lat="36.79113761010071" lon="-4.556056894279999"><ele>264.0</ele><time>2026-03-28T10:55:56Z</time></trkpt><trkpt lat="36.79124961581209" lon="-4.556018484219503"><ele>265.0</ele><time>2026-03-28T10:55:58Z</time></trkpt><trkpt lat="36.79130455584131" lon="-4.555933251084231"><ele>266.0</ele><time>2026-03-28T10:56:00Z</time></trkpt><trkpt lat="36.79136979757635" lon="-4.555832141802571"><ele>266.0</ele><time>2026-03-28T10:56:02Z</time></trkpt><trkpt lat="36.79144362961816" lon="-4.555720805515379"><ele>266.0</ele><time>2026-03-28T10:56:04Z</time></trkpt><trkpt lat="36.791516672610626" lon="-4.555614897699361"><ele>266.0</ele><time>2026-03-28T10:56:06Z</time></trkpt><trkpt lat="36.791605838940505" lon="-4.555519752500222"><ele>266.0</ele><time>2026-03-28T10:56:08Z</time></trkpt><trkpt lat="36.7916652535506" lon="-4.555489825585529"><ele>266.0</ele><time>2026-03-28T10:56:09Z</time></trkpt><trkpt lat="36.791734895206964" lon="-4.555482266303874"><ele>266.0</ele><time>2026-03-28T10:56:10Z</time></trkpt><trkpt lat="36.79180229497424" lon="-4.555456180037207"><ele>266.0</ele><time>2026-03-28T10:56:11Z</time></trkpt><trkpt lat="36.79186646838697" lon="-4.555465820160782"><ele>266.0</ele><time>2026-03-28T10:56:12Z</time></trkpt><trkpt lat="36.79192029091838" lon="-4.5555070722310536"><ele>266.0</ele><time>2026-03-28T10:56:13Z</time></trkpt><trkpt lat="36.791955802122565" lon="-4.555588724393753"><ele>266.0</ele><time>2026-03-28T10:56:14Z</time></trkpt><trkpt lat="36.79196861671274" lon="-4.555685941967454"><ele>266.0</ele><time>2026-03-28T10:56:15Z</time></trkpt><trkpt lat="36.79198506462542" lon="-4.555812755386633"><ele>264.2</ele><time>2026-03-28T10:56:17Z</time></trkpt><trkpt lat="36.79201181295931" lon="-4.555915847734399"><ele>262.40000000000003</ele><time>2026-03-28T10:56:19Z</time></trkpt><trkpt lat="36.79208792964799" lon="-4.555969598632022"><ele>260.6</ele><time>2026-03-28T10:56:21Z</time></trkpt><trkpt lat="36.79219276511819" lon="-4.55602711174287"><ele>258.8</ele><time>2026-03-28T10:56:23Z</time></trkpt><trkpt lat="36.79227850974733" lon="-4.556125059347234"><ele>257.0</ele><time>2026-03-28T10:56:25Z</time></trkpt><trkpt lat="36.79235177181242" lon="-4.556210133269188"><ele>257.0</ele><time>2026-03-28T10:56:27Z</time></trkpt><trkpt lat="36.792436800363134" lon="-4.556247819232875"><ele>257.0</ele><time>2026-03-28T10:56:29Z</time></trkpt><trkpt lat="36.79253396860683" lon="-4.556214169594655"><ele>257.0</ele><time>2026-03-28T10:56:31Z</time></trkpt><trkpt lat="36.79261925186773" lon="-4.556157281169915"><ele>257.0</ele><time>2026-03-28T10:56:33Z</time></trkpt><trkpt lat="36.79268232972314" lon="-4.556070137308604"><ele>257.0</ele><time>2026-03-28T10:56:35Z</time></trkpt><trkpt lat="36.79268029805675" lon="-4.555946012753155"><ele>253.2</ele><time>2026-03-28T10:56:37Z</time></trkpt><trkpt lat="36.79267320060004" lon="-4.555815119939394"><ele>249.39999999999998</ele><time>2026-03-28T10:56:39Z</time></trkpt><trkpt lat="36.79264391021323" lon="-4.555694645221533"><ele>245.60000000000002</ele><time>2026-03-28T10:56:41Z</time></trkpt><trkpt lat="36.79263034926903" lon="-4.555575198720752"><ele>241.8</ele><time>2026-03-28T10:56:43Z</time></trkpt><trkpt lat="36.79258728674257" lon="-4.5554544309728655"><ele>238.0</ele><time>2026-03-28T10:56:45Z</time></trkpt><trkpt lat="36.79251560493787" lon="-4.555362110640925"><ele>249.8</ele><time>2026-03-28T10:56:47Z</time></trkpt><trkpt lat="36.792447180933586" lon="-4.555271864259136"><ele>261.6</ele><time>2026-03-28T10:56:49Z</time></trkpt><trkpt lat="36.79240404667223" lon="-4.55512956076769"><ele>273.4</ele><time>2026-03-28T10:56:51Z</time></trkpt><trkpt lat="36.792370324006775" lon="-4.555012332222851"><ele>285.2</ele><time>2026-03-28T10:56:53Z</time></trkpt><trkpt lat="36.79233863882599" lon="-4.554913795802453"><ele>297.0</ele><time>2026-03-28T10:56:55Z</time></trkpt><trkpt lat="36.79226713139476" lon="-4.554827973480424"><ele>297.0</ele><time>2026-03-28T10:56:57Z</time></trkpt><trkpt lat="36.79219903444194" lon="-4.554744665781191"><ele>297.0</ele><time>2026-03-28T10:56:59Z</time></trkpt><trkpt lat="36.7921165332341" lon="-4.55467430541157"><ele>297.0</ele><time>2026-03-28T10:57:01Z</time></trkpt><trkpt lat="36.79201356137495" lon="-4.5546418372744135"><ele>297.0</ele><time>2026-03-28T10:57:03Z</time></trkpt><trkpt lat="36.79192105335205" lon="-4.554594229430026"><ele>297.0</ele><time>2026-03-28T10:57:05Z</time></trkpt><trkpt lat="36.79184525255979" lon="-4.5545095274488565"><ele>300.0</ele><time>2026-03-28T10:57:06.999Z</time></trkpt><trkpt lat="36.791870395264574" lon="-4.554374616476401"><ele>303.0</ele><time>2026-03-28T10:57:08.999Z</time></trkpt><trkpt lat="36.79189505933238" lon="-4.554224658737286"><ele>306.0</ele><time>2026-03-28T10:57:10.999Z</time></trkpt><trkpt lat="36.79188806780951" lon="-4.554136171740298"><ele>309.0</ele><time>2026-03-28T10:57:11.999Z</time></trkpt><trkpt lat="36.7918962763355" lon="-4.554046987237788"><ele>312.0</ele><time>2026-03-28T10:57:12.999Z</time></trkpt><trkpt lat="36.791914991413144" lon="-4.553955547388267"><ele>312.0</ele><time>2026-03-28T10:57:13.999Z</time></trkpt><trkpt lat="36.79190373325557" lon="-4.553866360165752"><ele>312.0</ele><time>2026-03-28T10:57:14.999Z</time></trkpt><trkpt lat="36.79188503633636" lon="-4.553785795811192"><ele>312.0</ele><time>2026-03-28T10:57:15.999Z</time></trkpt><trkpt lat="36.791861373416744" lon="-4.553709585708385"><ele>312.0</ele><time>2026-03-28T10:57:16.999Z</time></trkpt><trkpt lat="36.79184611504935" lon="-4.55357910518869"><ele>312.0</ele><time>2026-03-28T10:57:18.999Z</time></trkpt><trkpt lat="36.791867862823466" lon="-4.553443700844291"><ele>312.0</ele><time>2026-03-28T10:57:20.999Z</time></trkpt><trkpt lat="36.79189349872221" lon="-4.553371560558268"><ele>313.7142857142857</ele><time>2026-03-28T10:57:21.999Z</time></trkpt><trkpt lat="36.79193083306898" lon="-4.55329752167518"><ele>315.4285714285714</ele><time>2026-03-28T10:57:22.999Z</time></trkpt><trkpt lat="36.791953539599376" lon="-4.553206334512017"><ele>317.1428571428571</ele><time>2026-03-28T10:57:23.999Z</time></trkpt><trkpt lat="36.79197891406837" lon="-4.55311783481854"><ele>318.8571428571429</ele><time>2026-03-28T10:57:24.999Z</time></trkpt><trkpt lat="36.79200595352982" lon="-4.553025974524582"><ele>320.57142857142856</ele><time>2026-03-28T10:57:25.999Z</time></trkpt><trkpt lat="36.79203158916539" lon="-4.552936629127495"><ele>322.2857142857143</ele><time>2026-03-28T10:57:26.999Z</time></trkpt><trkpt lat="36.79205481758992" lon="-4.552851682900938"><ele>324.0</ele><time>2026-03-28T10:57:27.999Z</time></trkpt><trkpt lat="36.792076849943044" lon="-4.552771110670282"><ele>324.0</ele><time>2026-03-28T10:57:28.999Z</time></trkpt><trkpt lat="36.79210965862677" lon="-4.552646428213204"><ele>324.0</ele><time>2026-03-28T10:57:30.999Z</time></trkpt><trkpt lat="36.79214909849154" lon="-4.552545185647838"><ele>324.0</ele><time>2026-03-28T10:57:32.999Z</time></trkpt><trkpt lat="36.79217157436759" lon="-4.552451780609278"><ele>324.0</ele><time>2026-03-28T10:57:34.999Z</time></trkpt><trkpt lat="36.79219604509991" lon="-4.5523761249722945"><ele>324.0</ele><time>2026-03-28T10:57:37.999Z</time></trkpt><trkpt lat="36.7922371686648" lon="-4.552261175417277"><ele>324.0</ele><time>2026-03-28T10:57:49.999Z</time></trkpt><trkpt lat="36.79229985298757" lon="-4.552125569839492"><ele>324.0</ele><time>2026-03-28T10:57:52Z</time></trkpt><trkpt lat="36.79233444023812" lon="-4.55204743183144"><ele>324.0</ele><time>2026-03-28T10:57:53Z</time></trkpt><trkpt lat="36.792369249565915" lon="-4.55196879210476"><ele>324.0</ele><time>2026-03-28T10:57:54Z</time></trkpt><trkpt lat="36.79241237123019" lon="-4.5518990156988925"><ele>324.0</ele><time>2026-03-28T10:57:55Z</time></trkpt><trkpt lat="36.79244570821579" lon="-4.551815026058067"><ele>324.0</ele><time>2026-03-28T10:57:56Z</time></trkpt><trkpt lat="36.79247460799387" lon="-4.551718287975932"><ele>324.0</ele><time>2026-03-28T10:57:57Z</time></trkpt><trkpt lat="36.792488510963956" lon="-4.551624868423119"><ele>324.0</ele><time>2026-03-28T10:57:58Z</time></trkpt><trkpt lat="36.79250213213094" lon="-4.551543876249871"><ele>323.79999999999995</ele><time>2026-03-28T10:57:59Z</time></trkpt><trkpt lat="36.79253676039759" lon="-4.5513968746420685"><ele>323.59999999999997</ele><time>2026-03-28T10:58:01Z</time></trkpt><trkpt lat="36.79259615099945" lon="-4.551251749715146"><ele>323.4</ele><time>2026-03-28T10:58:03Z</time></trkpt><trkpt lat="36.79261895881802" lon="-4.551176372540684"><ele>323.2</ele><time>2026-03-28T10:58:04Z</time></trkpt><trkpt lat="36.79263255720575" lon="-4.5510866057381625"><ele>323.0</ele><time>2026-03-28T10:58:05Z</time></trkpt><trkpt lat="36.79263757136866" lon="-4.550986878345215"><ele>323.83333333333337</ele><time>2026-03-28T10:58:06Z</time></trkpt><trkpt lat="36.792636877511114" lon="-4.550885934243366"><ele>324.6666666666667</ele><time>2026-03-28T10:58:07Z</time></trkpt><trkpt lat="36.79264885671616" lon="-4.550799126006509"><ele>325.5</ele><time>2026-03-28T10:58:08Z</time></trkpt><trkpt lat="36.792674997414615" lon="-4.550719982245662"><ele>326.3333333333333</ele><time>2026-03-28T10:58:09Z</time></trkpt><trkpt lat="36.79275595006036" lon="-4.550597730179345"><ele>327.16666666666663</ele><time>2026-03-28T10:58:11Z</time></trkpt><trkpt lat="36.79280340455557" lon="-4.550518852412396"><ele>328.0</ele><time>2026-03-28T10:58:12Z</time></trkpt><trkpt lat="36.7928638209673" lon="-4.550447329468097"><ele>328.8333333333333</ele><time>2026-03-28T10:58:13Z</time></trkpt><trkpt lat="36.79292958597308" lon="-4.550373090275843"><ele>329.66666666666663</ele><time>2026-03-28T10:58:14Z</time></trkpt><trkpt lat="36.792994554413944" lon="-4.550310516401942"><ele>330.5</ele><time>2026-03-28T10:58:15Z</time></trkpt><trkpt lat="36.79306565116621" lon="-4.550244130007436"><ele>331.3333333333333</ele><time>2026-03-28T10:58:16Z</time></trkpt><trkpt lat="36.79312927088126" lon="-4.550173290494392"><ele>332.1666666666667</ele><time>2026-03-28T10:58:17Z</time></trkpt><trkpt lat="36.79318164988839" lon="-4.550098177526484"><ele>333.0</ele><time>2026-03-28T10:58:18Z</time></trkpt><trkpt lat="36.793232284214184" lon="-4.550032245696137"><ele>333.0</ele><time>2026-03-28T10:58:19Z</time></trkpt><trkpt lat="36.7932935031072" lon="-4.549969051923778"><ele>333.0</ele><time>2026-03-28T10:58:20Z</time></trkpt><trkpt lat="36.79336496976321" lon="-4.549930047302131"><ele>333.0</ele><time>2026-03-28T10:58:21Z</time></trkpt><trkpt lat="36.79342797937788" lon="-4.549888066228687"><ele>333.0</ele><time>2026-03-28T10:58:22Z</time></trkpt><trkpt lat="36.79348720916125" lon="-4.549839742790866"><ele>333.0</ele><time>2026-03-28T10:58:23Z</time></trkpt><trkpt lat="36.79353992651459" lon="-4.549786227768765"><ele>333.0</ele><time>2026-03-28T10:58:24Z</time></trkpt><trkpt lat="36.79359437406421" lon="-4.549721225752901"><ele>333.0</ele><time>2026-03-28T10:58:25Z</time></trkpt><trkpt lat="36.793639408918935" lon="-4.549648850633417"><ele>331.6666666666667</ele><time>2026-03-28T10:58:26Z</time></trkpt><trkpt lat="36.79367188081179" lon="-4.549573729459059"><ele>330.3333333333333</ele><time>2026-03-28T10:58:27Z</time></trkpt><trkpt lat="36.793722830509296" lon="-4.549512411626213"><ele>329.0</ele><time>2026-03-28T10:58:28Z</time></trkpt><trkpt lat="36.79377822471201" lon="-4.549452462335349"><ele>327.66666666666663</ele><time>2026-03-28T10:58:29Z</time></trkpt><trkpt lat="36.793839259570944" lon="-4.5494014046219915"><ele>326.3333333333333</ele><time>2026-03-28T10:58:30Z</time></trkpt><trkpt lat="36.79392677966314" lon="-4.5493826380252225"><ele>325.0</ele><time>2026-03-28T10:58:31Z</time></trkpt><trkpt lat="36.79401154751253" lon="-4.549385868875385"><ele>327.3333333333333</ele><time>2026-03-28T10:58:32Z</time></trkpt><trkpt lat="36.794093144043714" lon="-4.549410665235775"><ele>329.66666666666663</ele><time>2026-03-28T10:58:33Z</time></trkpt><trkpt lat="36.79416565206731" lon="-4.549432258572255"><ele>332.0</ele><time>2026-03-28T10:58:34Z</time></trkpt><trkpt lat="36.79423454396315" lon="-4.549453065236323"><ele>334.3333333333333</ele><time>2026-03-28T10:58:35Z</time></trkpt><trkpt lat="36.79434115544003" lon="-4.549446121179872"><ele>336.6666666666667</ele><time>2026-03-28T10:58:37Z</time></trkpt><trkpt lat="36.79442270605522" lon="-4.549399320953318"><ele>339.0</ele><time>2026-03-28T10:58:39Z</time></trkpt><trkpt lat="36.794516979281596" lon="-4.54932096458394"><ele>339.0</ele><time>2026-03-28T10:58:41Z</time></trkpt><trkpt lat="36.79461506765937" lon="-4.549252598965622"><ele>339.0</ele><time>2026-03-28T10:58:43Z</time></trkpt><trkpt lat="36.794725676511504" lon="-4.549209110476497"><ele>339.0</ele><time>2026-03-28T10:58:45Z</time></trkpt><trkpt lat="36.79479521701222" lon="-4.5491327851564165"><ele>339.0</ele><time>2026-03-28T10:58:47Z</time></trkpt><trkpt lat="36.794827336877084" lon="-4.549017718898661"><ele>339.0</ele><time>2026-03-28T10:58:49Z</time></trkpt><trkpt lat="36.794864751830204" lon="-4.548865374809608"><ele>339.0</ele><time>2026-03-28T10:58:51Z</time></trkpt><trkpt lat="36.794912602446004" lon="-4.5487982297305"><ele>339.0</ele><time>2026-03-28T10:58:52Z</time></trkpt><trkpt lat="36.794961948246666" lon="-4.548737870525113"><ele>339.0</ele><time>2026-03-28T10:58:53Z</time></trkpt><trkpt lat="36.79501869049277" lon="-4.548680815648514"><ele>339.0</ele><time>2026-03-28T10:58:54Z</time></trkpt><trkpt lat="36.795079558469745" lon="-4.5486338545930485"><ele>339.0</ele><time>2026-03-28T10:58:55Z</time></trkpt><trkpt lat="36.79513930994644" lon="-4.54856769034025"><ele>339.0</ele><time>2026-03-28T10:58:56Z</time></trkpt><trkpt lat="36.79521494133157" lon="-4.5485298292064735"><ele>339.0</ele><time>2026-03-28T10:58:57Z</time></trkpt><trkpt lat="36.79529562438172" lon="-4.548501308714596"><ele>338.8333333333333</ele><time>2026-03-28T10:58:58Z</time></trkpt><trkpt lat="36.79537556934671" lon="-4.548484891478135"><ele>338.6666666666667</ele><time>2026-03-28T10:58:59Z</time></trkpt><trkpt lat="36.79544928478031" lon="-4.548482398800776"><ele>338.5</ele><time>2026-03-28T10:59:00Z</time></trkpt><trkpt lat="36.795515010023166" lon="-4.548475677533559"><ele>338.33333333333337</ele><time>2026-03-28T10:59:01Z</time></trkpt><trkpt lat="36.7956359950515" lon="-4.5484432104555115"><ele>338.1666666666667</ele><time>2026-03-28T10:59:03Z</time></trkpt><trkpt lat="36.79569752364598" lon="-4.548425311818095"><ele>338.0</ele><time>2026-03-28T10:59:04Z</time></trkpt><trkpt lat="36.79576607404212" lon="-4.548400405575176"><ele>338.0</ele><time>2026-03-28T10:59:05Z</time></trkpt><trkpt lat="36.79583331124587" lon="-4.548366857851726"><ele>338.0</ele><time>2026-03-28T10:59:06Z</time></trkpt><trkpt lat="36.79591478515703" lon="-4.548323124160544"><ele>338.0</ele><time>2026-03-28T10:59:07Z</time></trkpt><trkpt lat="36.79600172166123" lon="-4.548276522323652"><ele>338.0</ele><time>2026-03-28T10:59:08Z</time></trkpt><trkpt lat="36.79608756714148" lon="-4.548251900975391"><ele>338.0</ele><time>2026-03-28T10:59:10Z</time></trkpt><trkpt lat="36.796152736340105" lon="-4.548203135118451"><ele>338.0</ele><time>2026-03-28T10:59:11Z</time></trkpt><trkpt lat="36.796209847163624" lon="-4.54815362096977"><ele>339.83333333333337</ele><time>2026-03-28T10:59:12Z</time></trkpt><trkpt lat="36.79625222240955" lon="-4.548080312813708"><ele>341.6666666666667</ele><time>2026-03-28T10:59:13Z</time></trkpt><trkpt lat="36.79628417539797" lon="-4.547992599454485"><ele>343.5</ele><time>2026-03-28T10:59:14Z</time></trkpt><trkpt lat="36.796320429756825" lon="-4.547911175908656"><ele>345.3333333333333</ele><time>2026-03-28T10:59:15Z</time></trkpt><trkpt lat="36.796365697321825" lon="-4.547838841657194"><ele>347.16666666666663</ele><time>2026-03-28T10:59:16Z</time></trkpt><trkpt lat="36.79642036529269" lon="-4.5477693999431095"><ele>349.0</ele><time>2026-03-28T10:59:17Z</time></trkpt><trkpt lat="36.796475201488924" lon="-4.547689049646388"><ele>350.0</ele><time>2026-03-28T10:59:18Z</time></trkpt><trkpt lat="36.79653096908693" lon="-4.5476130398286765"><ele>351.0</ele><time>2026-03-28T10:59:19Z</time></trkpt><trkpt lat="36.79658803431002" lon="-4.5475392886156465"><ele>352.0</ele><time>2026-03-28T10:59:20Z</time></trkpt><trkpt lat="36.796636793485305" lon="-4.547463900458456"><ele>353.0</ele><time>2026-03-28T10:59:21Z</time></trkpt><trkpt lat="36.79668957355536" lon="-4.547392952267048"><ele>354.0</ele><time>2026-03-28T10:59:22Z</time></trkpt><trkpt lat="36.79673040548487" lon="-4.547324394186209"><ele>355.0</ele><time>2026-03-28T10:59:23Z</time></trkpt><trkpt lat="36.79677559959275" lon="-4.547249566652427"><ele>355.0</ele><time>2026-03-28T10:59:24Z</time></trkpt><trkpt lat="36.79681558470345" lon="-4.547171122793006"><ele>355.0</ele><time>2026-03-28T10:59:25Z</time></trkpt><trkpt lat="36.796854650721954" lon="-4.547089620387778"><ele>355.0</ele><time>2026-03-28T10:59:26Z</time></trkpt><trkpt lat="36.796902074173104" lon="-4.547002045142673"><ele>355.0</ele><time>2026-03-28T10:59:26.999Z</time></trkpt><trkpt lat="36.79695864488504" lon="-4.546903366225109"><ele>355.0</ele><time>2026-03-28T10:59:27.999Z</time></trkpt><trkpt lat="36.79702225811857" lon="-4.546814159325501"><ele>355.0</ele><time>2026-03-28T10:59:28.999Z</time></trkpt><trkpt lat="36.79708477277484" lon="-4.546724826807698"><ele>354.7142857142857</ele><time>2026-03-28T10:59:29.999Z</time></trkpt><trkpt lat="36.79715215476518" lon="-4.546646877314963"><ele>354.42857142857144</ele><time>2026-03-28T10:59:30.999Z</time></trkpt><trkpt lat="36.79721738839784" lon="-4.54660016534728"><ele>354.1428571428571</ele><time>2026-03-28T10:59:31.999Z</time></trkpt><trkpt lat="36.79727445086553" lon="-4.546553568038714"><ele>353.8571428571429</ele><time>2026-03-28T10:59:32.999Z</time></trkpt><trkpt lat="36.79733638980049" lon="-4.546513057303017"><ele>353.5714285714286</ele><time>2026-03-28T10:59:33.999Z</time></trkpt><trkpt lat="36.797400728943984" lon="-4.546481903821749"><ele>353.2857142857143</ele><time>2026-03-28T10:59:34.999Z</time></trkpt><trkpt lat="36.797464431071546" lon="-4.546433632242152"><ele>353.0</ele><time>2026-03-28T10:59:35.999Z</time></trkpt><trkpt lat="36.79753061355044" lon="-4.546394090119427"><ele>353.0</ele><time>2026-03-28T10:59:36.999Z</time></trkpt><trkpt lat="36.79758718429969" lon="-4.546341061751842"><ele>353.0</ele><time>2026-03-28T10:59:37.999Z</time></trkpt><trkpt lat="36.797640269104164" lon="-4.546279609900909"><ele>353.0</ele><time>2026-03-28T10:59:38.999Z</time></trkpt><trkpt lat="36.79768295231395" lon="-4.546205555503663"><ele>353.0</ele><time>2026-03-28T10:59:39.999Z</time></trkpt><trkpt lat="36.79772196965061" lon="-4.5461267770465374"><ele>353.0</ele><time>2026-03-28T10:59:40.999Z</time></trkpt><trkpt lat="36.79775821563642" lon="-4.546046532443547"><ele>353.0</ele><time>2026-03-28T10:59:41.999Z</time></trkpt><trkpt lat="36.797794536962506" lon="-4.54596589429718"><ele>353.0</ele><time>2026-03-28T10:59:42.999Z</time></trkpt><trkpt lat="36.797830373351864" lon="-4.545886333040932"><ele>354.33333333333337</ele><time>2026-03-28T10:59:43.999Z</time></trkpt><trkpt lat="36.797867616463236" lon="-4.54580364876563"><ele>355.6666666666667</ele><time>2026-03-28T10:59:44.999Z</time></trkpt><trkpt lat="36.79790864710107" lon="-4.545715799912759"><ele>357.0</ele><time>2026-03-28T10:59:45.999Z</time></trkpt><trkpt lat="36.79795412007164" lon="-4.545632997236445"><ele>358.3333333333333</ele><time>2026-03-28T10:59:46.999Z</time></trkpt><trkpt lat="36.79800768066374" lon="-4.545553799995097"><ele>359.66666666666663</ele><time>2026-03-28T10:59:47.999Z</time></trkpt><trkpt lat="36.7980446457488" lon="-4.545476423449316"><ele>361.0</ele><time>2026-03-28T10:59:48.999Z</time></trkpt><trkpt lat="36.79809067992765" lon="-4.545411300744841"><ele>362.5</ele><time>2026-03-28T10:59:49.999Z</time></trkpt><trkpt lat="36.79815778409492" lon="-4.54533997728445"><ele>364.0</ele><time>2026-03-28T10:59:50.999Z</time></trkpt><trkpt lat="36.79822525661235" lon="-4.545273328993909"><ele>365.5</ele><time>2026-03-28T10:59:51.999Z</time></trkpt><trkpt lat="36.79829252092958" lon="-4.5452121695025705"><ele>367.0</ele><time>2026-03-28T10:59:52.999Z</time></trkpt><trkpt lat="36.79836656487192" lon="-4.545155234751879"><ele>368.5</ele><time>2026-03-28T10:59:53.999Z</time></trkpt><trkpt lat="36.79844801612873" lon="-4.545111636924241"><ele>370.0</ele><time>2026-03-28T10:59:54.999Z</time></trkpt><trkpt lat="36.798538295673005" lon="-4.545085369833934"><ele>370.0</ele><time>2026-03-28T10:59:55.999Z</time></trkpt><trkpt lat="36.7986311219302" lon="-4.5450561578261155"><ele>370.0</ele><time>2026-03-28T10:59:57Z</time></trkpt><trkpt lat="36.79873153499619" lon="-4.545058069819921"><ele>370.0</ele><time>2026-03-28T10:59:58Z</time></trkpt><trkpt lat="36.79881888037417" lon="-4.545069727218287"><ele>370.0</ele><time>2026-03-28T10:59:59Z</time></trkpt><trkpt lat="36.79890390020027" lon="-4.545090626947559"><ele>370.0</ele><time>2026-03-28T11:00:00Z</time></trkpt><trkpt lat="36.79898609385142" lon="-4.545128766521249"><ele>370.0</ele><time>2026-03-28T11:00:01Z</time></trkpt><trkpt lat="36.79906761428888" lon="-4.545156750382014"><ele>370.0</ele><time>2026-03-28T11:00:02Z</time></trkpt><trkpt lat="36.799144508423154" lon="-4.545177966320801"><ele>370.0</ele><time>2026-03-28T11:00:03Z</time></trkpt><trkpt lat="36.79921674347766" lon="-4.545189342946737"><ele>370.0</ele><time>2026-03-28T11:00:04Z</time></trkpt><trkpt lat="36.79928087153733" lon="-4.5451970931178245"><ele>370.0</ele><time>2026-03-28T11:00:05Z</time></trkpt><trkpt lat="36.79938960580137" lon="-4.545235261402839"><ele>370.0</ele><time>2026-03-28T11:00:07Z</time></trkpt><trkpt lat="36.79945929505519" lon="-4.545260238405336"><ele>372.16666666666663</ele><time>2026-03-28T11:00:09Z</time></trkpt><trkpt lat="36.79952825063663" lon="-4.545281270586112"><ele>374.3333333333333</ele><time>2026-03-28T11:00:25Z</time></trkpt><trkpt lat="36.79959797153034" lon="-4.5452949480606595"><ele>376.5</ele><time>2026-03-28T11:00:27Z</time></trkpt><trkpt lat="36.799682808724704" lon="-4.545296326512999"><ele>378.6666666666667</ele><time>2026-03-28T11:00:29Z</time></trkpt><trkpt lat="36.79977390377994" lon="-4.54528842265762"><ele>380.83333333333337</ele><time>2026-03-28T11:00:31Z</time></trkpt><trkpt lat="36.79988157676227" lon="-4.5452705720304465"><ele>383.0</ele><time>2026-03-28T11:00:33Z</time></trkpt><trkpt lat="36.799994350540736" lon="-4.545237372321522"><ele>383.0</ele><time>2026-03-28T11:00:35Z</time></trkpt><trkpt lat="36.80005810793167" lon="-4.545217636597773"><ele>383.0</ele><time>2026-03-28T11:00:36Z</time></trkpt><trkpt lat="36.80012301023101" lon="-4.545188963218258"><ele>383.0</ele><time>2026-03-28T11:00:37Z</time></trkpt><trkpt lat="36.80017947356315" lon="-4.5451389112228044"><ele>383.0</ele><time>2026-03-28T11:00:38Z</time></trkpt><trkpt lat="36.80022785020506" lon="-4.545081318715369"><ele>383.0</ele><time>2026-03-28T11:00:39Z</time></trkpt><trkpt lat="36.80027798052952" lon="-4.545018019679912"><ele>383.0</ele><time>2026-03-28T11:00:40Z</time></trkpt><trkpt lat="36.80034086270225" lon="-4.544964158722599"><ele>383.0</ele><time>2026-03-28T11:00:41Z</time></trkpt><trkpt lat="36.800389853223734" lon="-4.544901524274594"><ele>385.42857142857144</ele><time>2026-03-28T11:00:42Z</time></trkpt><trkpt lat="36.80044616141474" lon="-4.544842307960332"><ele>387.85714285714283</ele><time>2026-03-28T11:00:43Z</time></trkpt><trkpt lat="36.80050129201478" lon="-4.544786851462661"><ele>390.28571428571433</ele><time>2026-03-28T11:00:44Z</time></trkpt><trkpt lat="36.80056104638691" lon="-4.5447432411135145"><ele>392.7142857142857</ele><time>2026-03-28T11:00:45Z</time></trkpt><trkpt lat="36.80061694494545" lon="-4.544691318834959"><ele>395.14285714285717</ele><time>2026-03-28T11:00:46Z</time></trkpt><trkpt lat="36.800669689681484" lon="-4.544640098158649"><ele>397.5714285714286</ele><time>2026-03-28T11:00:47Z</time></trkpt><trkpt lat="36.80071874435951" lon="-4.544577871165395"><ele>400.0</ele><time>2026-03-28T11:00:48Z</time></trkpt><trkpt lat="36.800771349103854" lon="-4.544519440769081"><ele>400.0</ele><time>2026-03-28T11:00:49Z</time></trkpt><trkpt lat="36.800864156343344" lon="-4.54446967912028"><ele>400.0</ele><time>2026-03-28T11:00:51Z</time></trkpt><trkpt lat="36.80096787290808" lon="-4.544465651863175"><ele>400.0</ele><time>2026-03-28T11:00:53Z</time></trkpt><trkpt lat="36.80109612469399" lon="-4.544472385094177"><ele>400.0</ele><time>2026-03-28T11:00:55Z</time></trkpt><trkpt lat="36.80115557074972" lon="-4.5444246008209745"><ele>400.0</ele><time>2026-03-28T11:00:56Z</time></trkpt><trkpt lat="36.80122085068063" lon="-4.5443947740403665"><ele>400.14285714285717</ele><time>2026-03-28T11:00:57Z</time></trkpt><trkpt lat="36.80128122041379" lon="-4.544348366827593"><ele>400.2857142857143</ele><time>2026-03-28T11:00:58Z</time></trkpt><trkpt lat="36.80134484368098" lon="-4.544297268360162"><ele>400.42857142857144</ele><time>2026-03-28T11:00:59Z</time></trkpt><trkpt lat="36.80141512291807" lon="-4.544244489352819"><ele>400.57142857142856</ele><time>2026-03-28T11:01:00Z</time></trkpt><trkpt lat="36.80147940155542" lon="-4.544221953489562"><ele>400.7142857142857</ele><time>2026-03-28T11:01:01Z</time></trkpt><trkpt lat="36.80153891664258" lon="-4.544182358543706"><ele>400.8571428571429</ele><time>2026-03-28T11:01:02Z</time></trkpt><trkpt lat="36.80158980800918" lon="-4.544114138728583"><ele>401.0</ele><time>2026-03-28T11:01:03Z</time></trkpt><trkpt lat="36.80165271135544" lon="-4.544068909174204"><ele>400.99999999999994</ele><time>2026-03-28T11:01:04Z</time></trkpt><trkpt lat="36.801734968688" lon="-4.544044362483923"><ele>401.0</ele><time>2026-03-28T11:01:05Z</time></trkpt><trkpt lat="36.80179297493744" lon="-4.544000073492519"><ele>401.0</ele><time>2026-03-28T11:01:06Z</time></trkpt><trkpt lat="36.801852330565275" lon="-4.543946895956906"><ele>401.0</ele><time>2026-03-28T11:01:07Z</time></trkpt><trkpt lat="36.80191093565176" lon="-4.543882540463895"><ele>400.99999999999994</ele><time>2026-03-28T11:01:08Z</time></trkpt><trkpt lat="36.80197286130849" lon="-4.543822702190336"><ele>401.0</ele><time>2026-03-28T11:01:09Z</time></trkpt><trkpt lat="36.802037339125974" lon="-4.54377639661703"><ele>399.14285714285717</ele><time>2026-03-28T11:01:10Z</time></trkpt><trkpt lat="36.802093096536" lon="-4.543722474979505"><ele>397.28571428571433</ele><time>2026-03-28T11:01:11Z</time></trkpt><trkpt lat="36.80214898278618" lon="-4.54366715416996"><ele>395.42857142857144</ele><time>2026-03-28T11:01:12Z</time></trkpt><trkpt lat="36.80220685351785" lon="-4.543612713167666"><ele>393.57142857142856</ele><time>2026-03-28T11:01:13Z</time></trkpt><trkpt lat="36.802266389266975" lon="-4.543558039916201"><ele>391.7142857142857</ele><time>2026-03-28T11:01:14Z</time></trkpt><trkpt lat="36.802327500561816" lon="-4.543503121671767"><ele>389.85714285714283</ele><time>2026-03-28T11:01:15Z</time></trkpt><trkpt lat="36.80238855466199" lon="-4.543448538873658"><ele>388.0</ele><time>2026-03-28T11:01:16Z</time></trkpt><trkpt lat="36.80244490745688" lon="-4.543381340975879"><ele>390.50000000000006</ele><time>2026-03-28T11:01:17Z</time></trkpt><trkpt lat="36.80249196366195" lon="-4.543307592672575"><ele>393.0</ele><time>2026-03-28T11:01:18Z</time></trkpt><trkpt lat="36.802540837382516" lon="-4.543236373684989"><ele>395.5</ele><time>2026-03-28T11:01:19Z</time></trkpt><trkpt lat="36.80259212954492" lon="-4.543169013197628"><ele>398.0</ele><time>2026-03-28T11:01:20Z</time></trkpt><trkpt lat="36.80263222268691" lon="-4.543098536458426"><ele>400.50000000000006</ele><time>2026-03-28T11:01:21Z</time></trkpt><trkpt lat="36.80268314794525" lon="-4.542982442408443"><ele>403.0</ele><time>2026-03-28T11:01:23Z</time></trkpt><trkpt lat="36.802737404492866" lon="-4.542869683187992"><ele>403.79999999999995</ele><time>2026-03-28T11:01:25Z</time></trkpt><trkpt lat="36.80280149676683" lon="-4.542771091134206"><ele>404.6</ele><time>2026-03-28T11:01:27Z</time></trkpt><trkpt lat="36.80291741374306" lon="-4.542753692289715"><ele>405.4</ele><time>2026-03-28T11:01:29Z</time></trkpt><trkpt lat="36.80302029873912" lon="-4.542695553199793"><ele>406.20000000000005</ele><time>2026-03-28T11:01:31Z</time></trkpt><trkpt lat="36.80309940532025" lon="-4.542625944326893"><ele>407.0</ele><time>2026-03-28T11:01:33Z</time></trkpt><trkpt lat="36.80319366046117" lon="-4.542582264987767"><ele>407.0</ele><time>2026-03-28T11:01:34.999Z</time></trkpt><trkpt lat="36.80332185646187" lon="-4.542552647752424"><ele>407.0</ele><time>2026-03-28T11:01:36.999Z</time></trkpt><trkpt lat="36.80339241961241" lon="-4.5425399205107215"><ele>407.0</ele><time>2026-03-28T11:01:37.999Z</time></trkpt><trkpt lat="36.80350309222017" lon="-4.542461353748464"><ele>407.0</ele><time>2026-03-28T11:01:39.999Z</time></trkpt><trkpt lat="36.80355211909948" lon="-4.542400931256577"><ele>407.0</ele><time>2026-03-28T11:01:40.999Z</time></trkpt><trkpt lat="36.803595448581234" lon="-4.542326150229069"><ele>405.42857142857144</ele><time>2026-03-28T11:01:41.999Z</time></trkpt><trkpt lat="36.803633813377665" lon="-4.542238114299324"><ele>403.8571428571429</ele><time>2026-03-28T11:01:42.999Z</time></trkpt><trkpt lat="36.80365901746519" lon="-4.542149035789262"><ele>402.28571428571433</ele><time>2026-03-28T11:01:43.999Z</time></trkpt><trkpt lat="36.803687269849775" lon="-4.542071668714299"><ele>400.7142857142857</ele><time>2026-03-28T11:01:44.999Z</time></trkpt><trkpt lat="36.80370901059294" lon="-4.541982286612053"><ele>399.1428571428571</ele><time>2026-03-28T11:01:45.999Z</time></trkpt><trkpt lat="36.80373349638893" lon="-4.541898595377837"><ele>397.5714285714286</ele><time>2026-03-28T11:01:46.999Z</time></trkpt><trkpt lat="36.80375424727126" lon="-4.541810712224065"><ele>396.0</ele><time>2026-03-28T11:01:47.999Z</time></trkpt><trkpt lat="36.80380741736719" lon="-4.541726807449952"><ele>396.0</ele><time>2026-03-28T11:01:48.999Z</time></trkpt><trkpt lat="36.803866766427035" lon="-4.541660942785378"><ele>396.0</ele><time>2026-03-28T11:01:49.999Z</time></trkpt><trkpt lat="36.80393157485998" lon="-4.54161743539502"><ele>396.0</ele><time>2026-03-28T11:01:50.999Z</time></trkpt><trkpt lat="36.80399835539449" lon="-4.541583996092192"><ele>396.0</ele><time>2026-03-28T11:01:51.999Z</time></trkpt><trkpt lat="36.80406471562961" lon="-4.541553693594713"><ele>396.0</ele><time>2026-03-28T11:01:52.999Z</time></trkpt><trkpt lat="36.804131193464755" lon="-4.541547812447563"><ele>396.0</ele><time>2026-03-28T11:01:53.999Z</time></trkpt><trkpt lat="36.80424751089147" lon="-4.541519762378018"><ele>392.8333333333333</ele><time>2026-03-28T11:01:55.999Z</time></trkpt><trkpt lat="36.80433801845801" lon="-4.5414866174163935"><ele>389.6666666666667</ele><time>2026-03-28T11:01:57.999Z</time></trkpt><trkpt lat="36.804390358203186" lon="-4.541417512140017"><ele>386.5</ele><time>2026-03-28T11:01:59.999Z</time></trkpt><trkpt lat="36.804443337794446" lon="-4.5413611705899335"><ele>383.33333333333337</ele><time>2026-03-28T11:02:01.999Z</time></trkpt><trkpt lat="36.80451678446147" lon="-4.541320780095755"><ele>380.1666666666667</ele><time>2026-03-28T11:02:04Z</time></trkpt><trkpt lat="36.80460270309016" lon="-4.54128508935592"><ele>377.0</ele><time>2026-03-28T11:02:06Z</time></trkpt><trkpt lat="36.804696726952365" lon="-4.54126670135255"><ele>377.0</ele><time>2026-03-28T11:02:08Z</time></trkpt><trkpt lat="36.80478536216132" lon="-4.541295962288933"><ele>377.0</ele><time>2026-03-28T11:02:10Z</time></trkpt><trkpt lat="36.804886181868504" lon="-4.541319831127284"><ele>377.0</ele><time>2026-03-28T11:02:12Z</time></trkpt><trkpt lat="36.804988642316786" lon="-4.541331483723662"><ele>377.0</ele><time>2026-03-28T11:02:14Z</time></trkpt><trkpt lat="36.80510858964333" lon="-4.541329574093282"><ele>377.0</ele><time>2026-03-28T11:02:16Z</time></trkpt><trkpt lat="36.80517593593575" lon="-4.541323091310515"><ele>375.5</ele><time>2026-03-28T11:02:17Z</time></trkpt><trkpt lat="36.80524491678854" lon="-4.541314494491752"><ele>374.0</ele><time>2026-03-28T11:02:18Z</time></trkpt><trkpt lat="36.80531823633707" lon="-4.54130367246314"><ele>372.5</ele><time>2026-03-28T11:02:19Z</time></trkpt><trkpt lat="36.8053890787912" lon="-4.5412766857952755"><ele>371.0</ele><time>2026-03-28T11:02:20Z</time></trkpt><trkpt lat="36.80547813374314" lon="-4.541240951240709"><ele>369.5</ele><time>2026-03-28T11:02:21Z</time></trkpt><trkpt lat="36.8055699570268" lon="-4.541222112705349"><ele>368.0</ele><time>2026-03-28T11:02:22Z</time></trkpt><trkpt lat="36.80567091648785" lon="-4.54121204067863"><ele>372.0</ele><time>2026-03-28T11:02:23Z</time></trkpt><trkpt lat="36.80577274192412" lon="-4.541205424736474"><ele>376.0</ele><time>2026-03-28T11:02:24Z</time></trkpt><trkpt lat="36.80586571839195" lon="-4.541196462480957"><ele>380.0</ele><time>2026-03-28T11:02:25Z</time></trkpt><trkpt lat="36.80595833786165" lon="-4.541203138876604"><ele>384.0</ele><time>2026-03-28T11:02:26Z</time></trkpt><trkpt lat="36.80604808385088" lon="-4.541160608883408"><ele>388.0</ele><time>2026-03-28T11:02:27Z</time></trkpt><trkpt lat="36.806142103385035" lon="-4.541129042796092"><ele>388.0</ele><time>2026-03-28T11:02:28Z</time></trkpt><trkpt lat="36.806233768126184" lon="-4.541091750342936"><ele>388.0</ele><time>2026-03-28T11:02:29Z</time></trkpt><trkpt lat="36.806321617621784" lon="-4.541036895634614"><ele>388.0</ele><time>2026-03-28T11:02:30Z</time></trkpt><trkpt lat="36.806407719398834" lon="-4.540968885802138"><ele>388.0</ele><time>2026-03-28T11:02:31Z</time></trkpt><trkpt lat="36.806503297759" lon="-4.540924295027736"><ele>388.0</ele><time>2026-03-28T11:02:32Z</time></trkpt><trkpt lat="36.806591846505434" lon="-4.540865108017808"><ele>388.0</ele><time>2026-03-28T11:02:33Z</time></trkpt><trkpt lat="36.80668440194377" lon="-4.540814228535153"><ele>388.0</ele><time>2026-03-28T11:02:34Z</time></trkpt><trkpt lat="36.80677413270821" lon="-4.540767219657491"><ele>388.0</ele><time>2026-03-28T11:02:35Z</time></trkpt><trkpt lat="36.806863242561874" lon="-4.540713875319659"><ele>388.0</ele><time>2026-03-28T11:02:36Z</time></trkpt><trkpt lat="36.80695888629766" lon="-4.540679074134589"><ele>388.0</ele><time>2026-03-28T11:02:37Z</time></trkpt><trkpt lat="36.80705259052306" lon="-4.540657414330128"><ele>389.1666666666667</ele><time>2026-03-28T11:02:38Z</time></trkpt><trkpt lat="36.807141670178915" lon="-4.5406250753357265"><ele>390.33333333333337</ele><time>2026-03-28T11:02:39Z</time></trkpt><trkpt lat="36.80723146033283" lon="-4.540627725792524"><ele>391.5</ele><time>2026-03-28T11:02:40Z</time></trkpt><trkpt lat="36.80731943433059" lon="-4.540612485903327"><ele>392.66666666666663</ele><time>2026-03-28T11:02:41Z</time></trkpt><trkpt lat="36.80739122404218" lon="-4.540617962670481"><ele>393.8333333333333</ele><time>2026-03-28T11:02:42Z</time></trkpt><trkpt lat="36.80746538126536" lon="-4.540644198610539"><ele>395.0</ele><time>2026-03-28T11:02:43Z</time></trkpt><trkpt lat="36.80753510160323" lon="-4.540686358572535"><ele>395.0</ele><time>2026-03-28T11:02:44Z</time></trkpt><trkpt lat="36.80763815056791" lon="-4.540729693324701"><ele>395.0</ele><time>2026-03-28T11:02:46Z</time></trkpt><trkpt lat="36.807739672549715" lon="-4.540701255177848"><ele>395.0</ele><time>2026-03-28T11:02:48Z</time></trkpt><trkpt lat="36.80783877796603" lon="-4.540674862688463"><ele>395.0</ele><time>2026-03-28T11:02:50Z</time></trkpt><trkpt lat="36.807934467897326" lon="-4.54064601020409"><ele>395.0</ele><time>2026-03-28T11:02:52Z</time></trkpt><trkpt lat="36.808032231661244" lon="-4.540605109857006"><ele>394.99999999999994</ele><time>2026-03-28T11:02:54Z</time></trkpt><trkpt lat="36.80809507610599" lon="-4.5405900737453795"><ele>395.0</ele><time>2026-03-28T11:02:55Z</time></trkpt><trkpt lat="36.80814080008831" lon="-4.540531607664545"><ele>395.0</ele><time>2026-03-28T11:02:56Z</time></trkpt><trkpt lat="36.80819489318923" lon="-4.54047786908263"><ele>395.0</ele><time>2026-03-28T11:02:57Z</time></trkpt><trkpt lat="36.80824612228385" lon="-4.540417281300563"><ele>394.99999999999994</ele><time>2026-03-28T11:02:58Z</time></trkpt><trkpt lat="36.8083013402361" lon="-4.540363048206535"><ele>395.0</ele><time>2026-03-28T11:02:59Z</time></trkpt><trkpt lat="36.80839848920247" lon="-4.540262909560951"><ele>394.16666666666663</ele><time>2026-03-28T11:03:01Z</time></trkpt><trkpt lat="36.80844953496346" lon="-4.54020508561345"><ele>393.3333333333333</ele><time>2026-03-28T11:03:02Z</time></trkpt><trkpt lat="36.808507313642245" lon="-4.540161895643317"><ele>392.5</ele><time>2026-03-28T11:03:03Z</time></trkpt><trkpt lat="36.80856534346118" lon="-4.540118518043073"><ele>391.66666666666663</ele><time>2026-03-28T11:03:04Z</time></trkpt><trkpt lat="36.80867050751674" lon="-4.540053055690329"><ele>390.8333333333333</ele><time>2026-03-28T11:03:06Z</time></trkpt><trkpt lat="36.8087927428721" lon="-4.540011982539966"><ele>390.0</ele><time>2026-03-28T11:03:08Z</time></trkpt><trkpt lat="36.80891603809003" lon="-4.53998540467715"><ele>390.0</ele><time>2026-03-28T11:03:10Z</time></trkpt><trkpt lat="36.809039784210825" lon="-4.539953507832391"><ele>390.0</ele><time>2026-03-28T11:03:12Z</time></trkpt><trkpt lat="36.80910196370155" lon="-4.539934616957883"><ele>390.0</ele><time>2026-03-28T11:03:13Z</time></trkpt><trkpt lat="36.80921087136635" lon="-4.539879670493069"><ele>390.0</ele><time>2026-03-28T11:03:15Z</time></trkpt><trkpt lat="36.80932338543778" lon="-4.539814287887166"><ele>390.0</ele><time>2026-03-28T11:03:17Z</time></trkpt><trkpt lat="36.80941840853709" lon="-4.539724077610714"><ele>389.0</ele><time>2026-03-28T11:03:19Z</time></trkpt><trkpt lat="36.809485787495156" lon="-4.539605481894037"><ele>388.0</ele><time>2026-03-28T11:03:21Z</time></trkpt><trkpt lat="36.80955167213362" lon="-4.539505119355314"><ele>387.0</ele><time>2026-03-28T11:03:23Z</time></trkpt><trkpt lat="36.809586900793384" lon="-4.539390688989137"><ele>386.0</ele><time>2026-03-28T11:03:25Z</time></trkpt><trkpt lat="36.80963489617842" lon="-4.539279294617681"><ele>385.0</ele><time>2026-03-28T11:03:27Z</time></trkpt><trkpt lat="36.809675617834756" lon="-4.53916511061217"><ele>385.0</ele><time>2026-03-28T11:03:29Z</time></trkpt><trkpt lat="36.80976847315424" lon="-4.539081078073428"><ele>385.0</ele><time>2026-03-28T11:03:31Z</time></trkpt><trkpt lat="36.80988065792154" lon="-4.539032698034139"><ele>385.0</ele><time>2026-03-28T11:03:33Z</time></trkpt><trkpt lat="36.8099824649308" lon="-4.539011406600298"><ele>385.0</ele><time>2026-03-28T11:03:35Z</time></trkpt><trkpt lat="36.81006892420355" lon="-4.538930664162192"><ele>385.0</ele><time>2026-03-28T11:03:37Z</time></trkpt><trkpt lat="36.810123326894505" lon="-4.538886736636681"><ele>382.2</ele><time>2026-03-28T11:03:38Z</time></trkpt><trkpt lat="36.810180651830116" lon="-4.538842051021545"><ele>379.4</ele><time>2026-03-28T11:03:39Z</time></trkpt><trkpt lat="36.81024158357942" lon="-4.538800824983442"><ele>376.6</ele><time>2026-03-28T11:03:40Z</time></trkpt><trkpt lat="36.81029875829192" lon="-4.5387632392075385"><ele>373.8</ele><time>2026-03-28T11:03:41Z</time></trkpt><trkpt lat="36.810399775981566" lon="-4.538695610468652"><ele>371.0</ele><time>2026-03-28T11:03:43Z</time></trkpt><trkpt lat="36.810524882064904" lon="-4.5386314513162045"><ele>370.5</ele><time>2026-03-28T11:03:45Z</time></trkpt><trkpt lat="36.81059373195707" lon="-4.538614609484326"><ele>370.0</ele><time>2026-03-28T11:03:46Z</time></trkpt><trkpt lat="36.81066810361342" lon="-4.53859887217293"><ele>369.5</ele><time>2026-03-28T11:03:47Z</time></trkpt><trkpt lat="36.8107441630199" lon="-4.538593317527055"><ele>369.0</ele><time>2026-03-28T11:03:48Z</time></trkpt><trkpt lat="36.8108185892703" lon="-4.538595338112943"><ele>368.5</ele><time>2026-03-28T11:03:49Z</time></trkpt><trkpt lat="36.81089482226569" lon="-4.538604720703597"><ele>368.0</ele><time>2026-03-28T11:03:50Z</time></trkpt><trkpt lat="36.810972187399635" lon="-4.538621033491498"><ele>368.33333333333337</ele><time>2026-03-28T11:03:51Z</time></trkpt><trkpt lat="36.81105232414186" lon="-4.538642232445395"><ele>368.6666666666667</ele><time>2026-03-28T11:03:52Z</time></trkpt><trkpt lat="36.811139234453435" lon="-4.538669241182169"><ele>369.0</ele><time>2026-03-28T11:03:53Z</time></trkpt><trkpt lat="36.811229367156976" lon="-4.538697251345976"><ele>369.3333333333333</ele><time>2026-03-28T11:03:54Z</time></trkpt><trkpt lat="36.8113203876996" lon="-4.538722885180498"><ele>369.66666666666663</ele><time>2026-03-28T11:03:55Z</time></trkpt><trkpt lat="36.811401031695986" lon="-4.538740566531065"><ele>370.0</ele><time>2026-03-28T11:03:56Z</time></trkpt><trkpt lat="36.811471045310434" lon="-4.53874920299563"><ele>370.0</ele><time>2026-03-28T11:03:57Z</time></trkpt><trkpt lat="36.811580956855245" lon="-4.538729985971206"><ele>370.0</ele><time>2026-03-28T11:03:59Z</time></trkpt><trkpt lat="36.81168343338273" lon="-4.538642745778023"><ele>370.0</ele><time>2026-03-28T11:04:01Z</time></trkpt><trkpt lat="36.81174704423256" lon="-4.538589864427301"><ele>370.0</ele><time>2026-03-28T11:04:02Z</time></trkpt><trkpt lat="36.81179077283799" lon="-4.538500947775321"><ele>370.0</ele><time>2026-03-28T11:04:03Z</time></trkpt><trkpt lat="36.81184831956968" lon="-4.538429381317369"><ele>370.5</ele><time>2026-03-28T11:04:04Z</time></trkpt><trkpt lat="36.81191895986373" lon="-4.53837679263536"><ele>371.0</ele><time>2026-03-28T11:04:05Z</time></trkpt><trkpt lat="36.81198185896698" lon="-4.53831065116377"><ele>371.5</ele><time>2026-03-28T11:04:06Z</time></trkpt><trkpt lat="36.812039729559004" lon="-4.53824169619796"><ele>372.0</ele><time>2026-03-28T11:04:07Z</time></trkpt><trkpt lat="36.81210024491091" lon="-4.538192534875751"><ele>372.5</ele><time>2026-03-28T11:04:07.999Z</time></trkpt><trkpt lat="36.81220077546184" lon="-4.538129473159571"><ele>373.0</ele><time>2026-03-28T11:04:10Z</time></trkpt><trkpt lat="36.81231654655361" lon="-4.538127414572835"><ele>373.0</ele><time>2026-03-28T11:04:12Z</time></trkpt><trkpt lat="36.812421862958615" lon="-4.53819618774972"><ele>373.0</ele><time>2026-03-28T11:04:14Z</time></trkpt><trkpt lat="36.8125275202771" lon="-4.538269850030093"><ele>373.0</ele><time>2026-03-28T11:04:16Z</time></trkpt><trkpt lat="36.8126493366447" lon="-4.538310418253852"><ele>373.0</ele><time>2026-03-28T11:04:18Z</time></trkpt><trkpt lat="36.81277124909541" lon="-4.538336734583118"><ele>370.59999999999997</ele><time>2026-03-28T11:04:20Z</time></trkpt><trkpt lat="36.81288480123318" lon="-4.538329216637265"><ele>368.2</ele><time>2026-03-28T11:04:22Z</time></trkpt><trkpt lat="36.812989931061885" lon="-4.5383199581802325"><ele>365.8</ele><time>2026-03-28T11:04:24Z</time></trkpt><trkpt lat="36.81309497774804" lon="-4.538326188632008"><ele>363.4</ele><time>2026-03-28T11:04:26Z</time></trkpt><trkpt lat="36.81321133633964" lon="-4.538355403849221"><ele>361.0</ele><time>2026-03-28T11:04:28Z</time></trkpt><trkpt lat="36.81327324871652" lon="-4.5383840200071015"><ele>361.0</ele><time>2026-03-28T11:04:29Z</time></trkpt><trkpt lat="36.81338044971733" lon="-4.5384342774806035"><ele>361.0</ele><time>2026-03-28T11:04:31Z</time></trkpt><trkpt lat="36.8134668429397" lon="-4.538411350063127"><ele>361.0</ele><time>2026-03-28T11:04:33Z</time></trkpt><trkpt lat="36.813562025243264" lon="-4.538371844968164"><ele>361.0</ele><time>2026-03-28T11:04:35Z</time></trkpt><trkpt lat="36.813656938548235" lon="-4.538316420882024"><ele>361.0</ele><time>2026-03-28T11:04:37Z</time></trkpt><trkpt lat="36.8137728162977" lon="-4.538350242719682"><ele>358.0</ele><time>2026-03-28T11:04:39Z</time></trkpt><trkpt lat="36.81387506945695" lon="-4.538407768388846"><ele>355.0</ele><time>2026-03-28T11:04:41Z</time></trkpt><trkpt lat="36.81395605050163" lon="-4.53846306958279"><ele>352.0</ele><time>2026-03-28T11:04:43Z</time></trkpt><trkpt lat="36.81406784649128" lon="-4.538471721809908"><ele>349.0</ele><time>2026-03-28T11:04:45Z</time></trkpt><trkpt lat="36.814130752882605" lon="-4.538497348599049"><ele>346.0</ele><time>2026-03-28T11:04:46Z</time></trkpt><trkpt lat="36.81422802715976" lon="-4.538568764300229"><ele>346.0</ele><time>2026-03-28T11:04:48Z</time></trkpt><trkpt lat="36.81431924856343" lon="-4.538616819210293"><ele>346.0</ele><time>2026-03-28T11:04:50Z</time></trkpt><trkpt lat="36.81442513651789" lon="-4.538611489300692"><ele>346.0</ele><time>2026-03-28T11:04:52Z</time></trkpt><trkpt lat="36.81454291270067" lon="-4.538602165583633"><ele>346.0</ele><time>2026-03-28T11:04:54Z</time></trkpt><trkpt lat="36.81464950900016" lon="-4.538545917842838"><ele>346.0</ele><time>2026-03-28T11:04:56Z</time></trkpt><trkpt lat="36.81471051641525" lon="-4.538523960585764"><ele>345.6</ele><time>2026-03-28T11:04:57Z</time></trkpt><trkpt lat="36.81481006432934" lon="-4.538430650738871"><ele>345.20000000000005</ele><time>2026-03-28T11:04:59Z</time></trkpt><trkpt lat="36.81490011715736" lon="-4.5383509361834475"><ele>344.79999999999995</ele><time>2026-03-28T11:05:01Z</time></trkpt><trkpt lat="36.81488085120864" lon="-4.538228978585193"><ele>344.4</ele><time>2026-03-28T11:05:05Z</time></trkpt><trkpt lat="36.81488257887789" lon="-4.538149849690602"><ele>344.0</ele><time>2026-03-28T11:05:07Z</time></trkpt><trkpt lat="36.81490203528221" lon="-4.538032571327321"><ele>344.0</ele><time>2026-03-28T11:05:09Z</time></trkpt><trkpt lat="36.814926155303354" lon="-4.5379096043922145"><ele>344.0</ele><time>2026-03-28T11:05:11Z</time></trkpt><trkpt lat="36.814930541667465" lon="-4.53778586452918"><ele>344.0</ele><time>2026-03-28T11:05:13Z</time></trkpt><trkpt lat="36.814872441461695" lon="-4.5376543262726985"><ele>344.0</ele><time>2026-03-28T11:05:15Z</time></trkpt><trkpt lat="36.81483581733586" lon="-4.537508626745768"><ele>344.0</ele><time>2026-03-28T11:05:17Z</time></trkpt><trkpt lat="36.81482882998421" lon="-4.537350927830717"><ele>343.1666666666667</ele><time>2026-03-28T11:05:19Z</time></trkpt><trkpt lat="36.81483047920307" lon="-4.537261752301688"><ele>342.33333333333337</ele><time>2026-03-28T11:05:20Z</time></trkpt><trkpt lat="36.81483701249123" lon="-4.537165368710871"><ele>341.5</ele><time>2026-03-28T11:05:21Z</time></trkpt><trkpt lat="36.814847509790184" lon="-4.537070951968853"><ele>340.6666666666667</ele><time>2026-03-28T11:05:22Z</time></trkpt><trkpt lat="36.81485475303115" lon="-4.536979052446344"><ele>339.8333333333333</ele><time>2026-03-28T11:05:23Z</time></trkpt><trkpt lat="36.814857154787205" lon="-4.536899556781625"><ele>339.0</ele><time>2026-03-28T11:05:24Z</time></trkpt><trkpt lat="36.81483204563815" lon="-4.536771546179793"><ele>337.57142857142856</ele><time>2026-03-28T11:05:26Z</time></trkpt><trkpt lat="36.81479430060087" lon="-4.536703691774022"><ele>336.14285714285717</ele><time>2026-03-28T11:05:27Z</time></trkpt><trkpt lat="36.814753977415634" lon="-4.536634424496597"><ele>334.7142857142857</ele><time>2026-03-28T11:05:28Z</time></trkpt><trkpt lat="36.814720200145665" lon="-4.5365580875326055"><ele>333.2857142857143</ele><time>2026-03-28T11:05:29Z</time></trkpt><trkpt lat="36.81469242833461" lon="-4.536483438831259"><ele>331.8571428571429</ele><time>2026-03-28T11:05:30Z</time></trkpt><trkpt lat="36.814667256820414" lon="-4.536405706666956"><ele>330.42857142857144</ele><time>2026-03-28T11:05:31Z</time></trkpt><trkpt lat="36.81463917301091" lon="-4.536335137106777"><ele>329.0</ele><time>2026-03-28T11:05:32Z</time></trkpt><trkpt lat="36.81459795785241" lon="-4.5362174751672"><ele>326.5</ele><time>2026-03-28T11:05:34Z</time></trkpt><trkpt lat="36.81454854550729" lon="-4.536151165327043"><ele>324.0</ele><time>2026-03-28T11:05:36Z</time></trkpt><trkpt lat="36.81446195913656" lon="-4.536032275129721"><ele>321.5</ele><time>2026-03-28T11:05:38Z</time></trkpt><trkpt lat="36.81441098722072" lon="-4.5359493648414695"><ele>319.0</ele><time>2026-03-28T11:05:39Z</time></trkpt><trkpt lat="36.81435873611562" lon="-4.535872127591466"><ele>316.5</ele><time>2026-03-28T11:05:40Z</time></trkpt><trkpt lat="36.81429924734246" lon="-4.535803080426002"><ele>314.0</ele><time>2026-03-28T11:05:41Z</time></trkpt><trkpt lat="36.8142370399018" lon="-4.53574603768183"><ele>312.71428571428567</ele><time>2026-03-28T11:05:42Z</time></trkpt><trkpt lat="36.81417876560735" lon="-4.535686386318156"><ele>311.42857142857144</ele><time>2026-03-28T11:05:43Z</time></trkpt><trkpt lat="36.81412673369287" lon="-4.535631268615166"><ele>310.1428571428571</ele><time>2026-03-28T11:05:44Z</time></trkpt><trkpt lat="36.814072173314855" lon="-4.535578320408169"><ele>308.85714285714283</ele><time>2026-03-28T11:05:45Z</time></trkpt><trkpt lat="36.81402105516837" lon="-4.535527753844828"><ele>307.57142857142856</ele><time>2026-03-28T11:05:46Z</time></trkpt><trkpt lat="36.81395944686143" lon="-4.5354857047172725"><ele>306.2857142857143</ele><time>2026-03-28T11:05:47Z</time></trkpt><trkpt lat="36.81389399404079" lon="-4.535446606636112"><ele>305.0</ele><time>2026-03-28T11:05:48Z</time></trkpt><trkpt lat="36.813833978399764" lon="-4.535405916035824"><ele>303.83333333333337</ele><time>2026-03-28T11:05:49Z</time></trkpt><trkpt lat="36.81374087128154" lon="-4.53531887305457"><ele>302.6666666666667</ele><time>2026-03-28T11:05:51Z</time></trkpt><trkpt lat="36.81371358676144" lon="-4.535156165703007"><ele>301.5</ele><time>2026-03-28T11:05:53Z</time></trkpt><trkpt lat="36.81370294417346" lon="-4.535071657985169"><ele>300.3333333333333</ele><time>2026-03-28T11:05:54Z</time></trkpt><trkpt lat="36.81368840846037" lon="-4.534992132050709"><ele>299.16666666666663</ele><time>2026-03-28T11:05:55Z</time></trkpt><trkpt lat="36.8136764482621" lon="-4.534913979053879"><ele>298.0</ele><time>2026-03-28T11:05:56Z</time></trkpt><trkpt lat="36.81366891558557" lon="-4.534834560989853"><ele>298.0</ele><time>2026-03-28T11:05:57Z</time></trkpt><trkpt lat="36.81368966104074" lon="-4.534719898128766"><ele>298.0</ele><time>2026-03-28T11:05:58.999Z</time></trkpt><trkpt lat="36.81377043645438" lon="-4.5346789527394655"><ele>298.0</ele><time>2026-03-28T11:06:00.999Z</time></trkpt><trkpt lat="36.81388377258852" lon="-4.53468243725519"><ele>298.0</ele><time>2026-03-28T11:06:02.999Z</time></trkpt><trkpt lat="36.81399734962899" lon="-4.534662158239404"><ele>298.0</ele><time>2026-03-28T11:06:04.999Z</time></trkpt><trkpt lat="36.814068239503165" lon="-4.534631726452809"><ele>298.0</ele><time>2026-03-28T11:06:05.999Z</time></trkpt><trkpt lat="36.81414433334544" lon="-4.5345965467655525"><ele>298.0</ele><time>2026-03-28T11:06:06.999Z</time></trkpt><trkpt lat="36.81421062505592" lon="-4.534561743994373"><ele>298.0</ele><time>2026-03-28T11:06:07.999Z</time></trkpt><trkpt lat="36.81427064529725" lon="-4.534522483968311"><ele>298.0</ele><time>2026-03-28T11:06:08.999Z</time></trkpt><trkpt lat="36.814352557868176" lon="-4.5344241198698265"><ele>298.0</ele><time>2026-03-28T11:06:10.999Z</time></trkpt><trkpt lat="36.81440138573968" lon="-4.534307259441046"><ele>298.0</ele><time>2026-03-28T11:06:12.999Z</time></trkpt><trkpt lat="36.81436921966383" lon="-4.53419677089828"><ele>297.0</ele><time>2026-03-28T11:06:15Z</time></trkpt><trkpt lat="36.814281048545624" lon="-4.534101864861617"><ele>296.0</ele><time>2026-03-28T11:06:17Z</time></trkpt><trkpt lat="36.81422775261366" lon="-4.5340543020060915"><ele>295.0</ele><time>2026-03-28T11:06:18Z</time></trkpt><trkpt lat="36.81416435512641" lon="-4.53401610374561"><ele>294.0</ele><time>2026-03-28T11:06:19Z</time></trkpt><trkpt lat="36.81409443451542" lon="-4.533976582829088"><ele>293.0</ele><time>2026-03-28T11:06:20Z</time></trkpt><trkpt lat="36.81400323411195" lon="-4.533877683009034"><ele>292.99999999999994</ele><time>2026-03-28T11:06:22Z</time></trkpt><trkpt lat="36.81398833271231" lon="-4.533785298662001"><ele>293.0</ele><time>2026-03-28T11:06:23Z</time></trkpt><trkpt lat="36.81399220653345" lon="-4.533686095761606"><ele>293.0</ele><time>2026-03-28T11:06:24Z</time></trkpt><trkpt lat="36.81397579493748" lon="-4.533593219461961"><ele>293.0</ele><time>2026-03-28T11:06:25Z</time></trkpt><trkpt lat="36.813980964451794" lon="-4.533510700898959"><ele>293.0</ele><time>2026-03-28T11:06:26Z</time></trkpt><trkpt lat="36.81399578512172" lon="-4.53341999257326"><ele>292.99999999999994</ele><time>2026-03-28T11:06:28Z</time></trkpt><trkpt lat="36.81407283545649" lon="-4.53340927617314"><ele>293.0</ele><time>2026-03-28T11:06:30Z</time></trkpt><trkpt lat="36.81415056947415" lon="-4.533502708684575"><ele>294.4</ele><time>2026-03-28T11:06:32Z</time></trkpt><trkpt lat="36.81421854354939" lon="-4.533605134940168"><ele>295.8</ele><time>2026-03-28T11:06:34Z</time></trkpt><trkpt lat="36.81425969347399" lon="-4.533714966774549"><ele>297.2</ele><time>2026-03-28T11:06:36Z</time></trkpt><trkpt lat="36.814343670015994" lon="-4.533777362008189"><ele>298.6</ele><time>2026-03-28T11:06:38Z</time></trkpt><trkpt lat="36.814459156059435" lon="-4.533812182911885"><ele>300.0</ele><time>2026-03-28T11:06:40Z</time></trkpt><trkpt lat="36.814519756058594" lon="-4.533833498561789"><ele>300.0</ele><time>2026-03-28T11:06:41Z</time></trkpt><trkpt lat="36.814583134399186" lon="-4.533862602329662"><ele>300.0</ele><time>2026-03-28T11:06:42Z</time></trkpt><trkpt lat="36.814653035655624" lon="-4.533895063184086"><ele>300.0</ele><time>2026-03-28T11:06:43Z</time></trkpt><trkpt lat="36.814725070286514" lon="-4.53390851674165"><ele>300.0</ele><time>2026-03-28T11:06:44Z</time></trkpt><trkpt lat="36.81481817905484" lon="-4.533924620612894"><ele>300.0</ele><time>2026-03-28T11:06:46Z</time></trkpt><trkpt lat="36.81482226569532" lon="-4.533824335200421"><ele>300.0</ele><time>2026-03-28T11:06:49Z</time></trkpt><trkpt lat="36.814734719656634" lon="-4.533776092602237"><ele>303.8</ele><time>2026-03-28T11:06:51Z</time></trkpt><trkpt lat="36.81463962696184" lon="-4.533688871915015"><ele>307.6</ele><time>2026-03-28T11:06:53Z</time></trkpt><trkpt lat="36.814565040878534" lon="-4.533570666459676"><ele>311.4</ele><time>2026-03-28T11:06:55Z</time></trkpt><trkpt lat="36.81455698124265" lon="-4.533480955761072"><ele>315.2</ele><time>2026-03-28T11:06:56Z</time></trkpt><trkpt lat="36.81457248902276" lon="-4.533384254138034"><ele>319.0</ele><time>2026-03-28T11:06:57Z</time></trkpt><trkpt lat="36.81455060147764" lon="-4.533281466302117"><ele>319.0</ele><time>2026-03-28T11:06:58Z</time></trkpt><trkpt lat="36.81453233547608" lon="-4.533194781971606"><ele>319.0</ele><time>2026-03-28T11:06:59Z</time></trkpt><trkpt lat="36.81450749512617" lon="-4.533116765543015"><ele>319.0</ele><time>2026-03-28T11:07:00Z</time></trkpt><trkpt lat="36.81452370114339" lon="-4.533021698943495"><ele>319.0</ele><time>2026-03-28T11:07:01Z</time></trkpt><trkpt lat="36.814572731954016" lon="-4.53294173045048"><ele>319.0</ele><time>2026-03-28T11:07:02Z</time></trkpt><trkpt lat="36.81462032416403" lon="-4.532860728345067"><ele>319.0</ele><time>2026-03-28T11:07:03Z</time></trkpt><trkpt lat="36.814722556669324" lon="-4.53281629672299"><ele>319.66666666666663</ele><time>2026-03-28T11:07:04Z</time></trkpt><trkpt lat="36.81481826718808" lon="-4.532802067293367"><ele>320.3333333333333</ele><time>2026-03-28T11:07:05Z</time></trkpt><trkpt lat="36.81490716875033" lon="-4.532777716289161"><ele>321.0</ele><time>2026-03-28T11:07:06Z</time></trkpt><trkpt lat="36.81498853817428" lon="-4.532744102743404"><ele>321.6666666666667</ele><time>2026-03-28T11:07:07Z</time></trkpt><trkpt lat="36.81506373200992" lon="-4.5327012486044325"><ele>322.33333333333337</ele><time>2026-03-28T11:07:08Z</time></trkpt><trkpt lat="36.81512387703735" lon="-4.53264659149765"><ele>323.0</ele><time>2026-03-28T11:07:09Z</time></trkpt><trkpt lat="36.81516723161916" lon="-4.532583485110634"><ele>323.0</ele><time>2026-03-28T11:07:10Z</time></trkpt><trkpt lat="36.81518767227722" lon="-4.532453850824873"><ele>323.0</ele><time>2026-03-28T11:07:12Z</time></trkpt><trkpt lat="36.81515332925074" lon="-4.532377634175353"><ele>323.0</ele><time>2026-03-28T11:07:13Z</time></trkpt><trkpt lat="36.81509753534706" lon="-4.532310059983612"><ele>323.0</ele><time>2026-03-28T11:07:14Z</time></trkpt><trkpt lat="36.81505804162086" lon="-4.532240383333251"><ele>323.0</ele><time>2026-03-28T11:07:15Z</time></trkpt><trkpt lat="36.815047789776884" lon="-4.532160728097102"><ele>323.0</ele><time>2026-03-28T11:07:16Z</time></trkpt><trkpt lat="36.81511157015767" lon="-4.53205375602353"><ele>322.28571428571433</ele><time>2026-03-28T11:07:18Z</time></trkpt><trkpt lat="36.81517862286139" lon="-4.532034915254928"><ele>321.57142857142856</ele><time>2026-03-28T11:07:19Z</time></trkpt><trkpt lat="36.81525156057784" lon="-4.532031096629525"><ele>320.8571428571429</ele><time>2026-03-28T11:07:20Z</time></trkpt><trkpt lat="36.81532119943571" lon="-4.532036365905876"><ele>320.14285714285717</ele><time>2026-03-28T11:07:21Z</time></trkpt><trkpt lat="36.815394917519555" lon="-4.532053363434123"><ele>319.42857142857144</ele><time>2026-03-28T11:07:22Z</time></trkpt><trkpt lat="36.815469718360205" lon="-4.532073652335851"><ele>318.7142857142857</ele><time>2026-03-28T11:07:23Z</time></trkpt><trkpt lat="36.81553433079545" lon="-4.532129041783957"><ele>318.0</ele><time>2026-03-28T11:07:24Z</time></trkpt><trkpt lat="36.81559584842237" lon="-4.532189010579699"><ele>320.0</ele><time>2026-03-28T11:07:25Z</time></trkpt><trkpt lat="36.81566305328098" lon="-4.532252603136036"><ele>322.0</ele><time>2026-03-28T11:07:26Z</time></trkpt><trkpt lat="36.81572863061687" lon="-4.532306534033871"><ele>324.0</ele><time>2026-03-28T11:07:27Z</time></trkpt><trkpt lat="36.8157952729002" lon="-4.532354990498064"><ele>326.0</ele><time>2026-03-28T11:07:28Z</time></trkpt><trkpt lat="36.81586360900495" lon="-4.532398717270895"><ele>328.0</ele><time>2026-03-28T11:07:29Z</time></trkpt><trkpt lat="36.815934441930104" lon="-4.532437159614252"><ele>330.0</ele><time>2026-03-28T11:07:30Z</time></trkpt><trkpt lat="36.8160024925779" lon="-4.532479140737099"><ele>330.00000000000006</ele><time>2026-03-28T11:07:31Z</time></trkpt><trkpt lat="36.81607351832007" lon="-4.5324736999424795"><ele>330.0</ele><time>2026-03-28T11:07:32Z</time></trkpt><trkpt lat="36.816135874110955" lon="-4.532424955109376"><ele>330.0</ele><time>2026-03-28T11:07:33Z</time></trkpt><trkpt lat="36.81620466171493" lon="-4.532418706835716"><ele>330.0</ele><time>2026-03-28T11:07:34Z</time></trkpt><trkpt lat="36.816267067867656" lon="-4.5323986155349285"><ele>330.0</ele><time>2026-03-28T11:07:35Z</time></trkpt><trkpt lat="36.81633446444152" lon="-4.532389348505535"><ele>330.00000000000006</ele><time>2026-03-28T11:07:36Z</time></trkpt><trkpt lat="36.81640954523405" lon="-4.53238032598526"><ele>330.0</ele><time>2026-03-28T11:07:37Z</time></trkpt><trkpt lat="36.816493499207205" lon="-4.532352522494899"><ele>330.0</ele><time>2026-03-28T11:07:38Z</time></trkpt><trkpt lat="36.81658540640326" lon="-4.532354824559044"><ele>330.0</ele><time>2026-03-28T11:07:39Z</time></trkpt><trkpt lat="36.816667246012585" lon="-4.5323635968425755"><ele>330.0</ele><time>2026-03-28T11:07:40Z</time></trkpt><trkpt lat="36.81675388362733" lon="-4.532370305534719"><ele>330.0</ele><time>2026-03-28T11:07:41Z</time></trkpt><trkpt lat="36.81684002763212" lon="-4.5323610869790825"><ele>330.0</ele><time>2026-03-28T11:07:42Z</time></trkpt><trkpt lat="36.81691664887482" lon="-4.532319196068948"><ele>330.0</ele><time>2026-03-28T11:07:43Z</time></trkpt><trkpt lat="36.81698927703863" lon="-4.5322522813588"><ele>330.0</ele><time>2026-03-28T11:07:44Z</time></trkpt><trkpt lat="36.81706003786054" lon="-4.532178069246025"><ele>330.0</ele><time>2026-03-28T11:07:45Z</time></trkpt><trkpt lat="36.81712439485361" lon="-4.53210951896941"><ele>330.0</ele><time>2026-03-28T11:07:46Z</time></trkpt><trkpt lat="36.81719018462455" lon="-4.532046568936019"><ele>330.0</ele><time>2026-03-28T11:07:47Z</time></trkpt><trkpt lat="36.81726004490263" lon="-4.532009412208746"><ele>330.0</ele><time>2026-03-28T11:07:48Z</time></trkpt><trkpt lat="36.817319389384004" lon="-4.5319492907772165"><ele>330.0</ele><time>2026-03-28T11:07:49Z</time></trkpt><trkpt lat="36.81738419652348" lon="-4.531911506124363"><ele>330.6666666666667</ele><time>2026-03-28T11:07:50Z</time></trkpt><trkpt lat="36.817455862201" lon="-4.531876515502468"><ele>331.3333333333333</ele><time>2026-03-28T11:07:51Z</time></trkpt><trkpt lat="36.81753357336973" lon="-4.5318465689116945"><ele>332.0</ele><time>2026-03-28T11:07:52Z</time></trkpt><trkpt lat="36.817615354297644" lon="-4.531828476423294"><ele>332.66666666666663</ele><time>2026-03-28T11:07:53Z</time></trkpt><trkpt lat="36.817702094895466" lon="-4.531823368892851"><ele>333.3333333333333</ele><time>2026-03-28T11:07:54Z</time></trkpt><trkpt lat="36.817784451243355" lon="-4.531826167566675"><ele>334.0</ele><time>2026-03-28T11:07:55Z</time></trkpt><trkpt lat="36.817863891731236" lon="-4.531825072585778"><ele>334.66666666666663</ele><time>2026-03-28T11:07:56Z</time></trkpt><trkpt lat="36.81795279564922" lon="-4.531820069794028"><ele>335.3333333333333</ele><time>2026-03-28T11:07:56.999Z</time></trkpt><trkpt lat="36.81803828766552" lon="-4.531811051591485"><ele>336.0</ele><time>2026-03-28T11:07:57.999Z</time></trkpt><trkpt lat="36.81811872183857" lon="-4.531799892989528"><ele>336.6666666666667</ele><time>2026-03-28T11:07:58.999Z</time></trkpt><trkpt lat="36.81820256942569" lon="-4.531786166580858"><ele>337.33333333333337</ele><time>2026-03-28T11:07:59.999Z</time></trkpt><trkpt lat="36.818278700629065" lon="-4.531772832272738"><ele>338.0</ele><time>2026-03-28T11:08:00.999Z</time></trkpt><trkpt lat="36.81834876744036" lon="-4.5317399611660125"><ele>338.0</ele><time>2026-03-28T11:08:01.999Z</time></trkpt><trkpt lat="36.81839939252325" lon="-4.531671398588044"><ele>338.0</ele><time>2026-03-28T11:08:02.999Z</time></trkpt><trkpt lat="36.81845264615634" lon="-4.531594766965541"><ele>338.0</ele><time>2026-03-28T11:08:03.999Z</time></trkpt><trkpt lat="36.81850633214631" lon="-4.531523977610869"><ele>338.0</ele><time>2026-03-28T11:08:04.999Z</time></trkpt><trkpt lat="36.81855834236672" lon="-4.531452655794371"><ele>338.0</ele><time>2026-03-28T11:08:05.999Z</time></trkpt><trkpt lat="36.818630724607" lon="-4.5313632050580095"><ele>338.0</ele><time>2026-03-28T11:08:06.999Z</time></trkpt><trkpt lat="36.81869306834932" lon="-4.531298055842261"><ele>337.83333333333337</ele><time>2026-03-28T11:08:07.999Z</time></trkpt><trkpt lat="36.81875747992443" lon="-4.5312440658242386"><ele>337.6666666666667</ele><time>2026-03-28T11:08:08.999Z</time></trkpt><trkpt lat="36.81882225002753" lon="-4.531194811938256"><ele>337.5</ele><time>2026-03-28T11:08:09.999Z</time></trkpt><trkpt lat="36.81888947056474" lon="-4.531142688172592"><ele>337.3333333333333</ele><time>2026-03-28T11:08:10.999Z</time></trkpt><trkpt lat="36.818966268388344" lon="-4.531094353069781"><ele>337.16666666666663</ele><time>2026-03-28T11:08:11.999Z</time></trkpt><trkpt lat="36.81904375981992" lon="-4.531057284054541"><ele>337.0</ele><time>2026-03-28T11:08:12.999Z</time></trkpt><trkpt lat="36.819132284116144" lon="-4.53103767007098"><ele>337.0</ele><time>2026-03-28T11:08:13.999Z</time></trkpt><trkpt lat="36.81919762870608" lon="-4.530978225843567"><ele>337.0</ele><time>2026-03-28T11:08:14.999Z</time></trkpt><trkpt lat="36.81926845350481" lon="-4.530944357335112"><ele>337.0</ele><time>2026-03-28T11:08:15.999Z</time></trkpt><trkpt lat="36.819340942324395" lon="-4.530817982527773"><ele>337.0</ele><time>2026-03-28T11:08:17.999Z</time></trkpt><trkpt lat="36.81937282269833" lon="-4.530746407397892"><ele>337.0</ele><time>2026-03-28T11:08:18.999Z</time></trkpt><trkpt lat="36.8193921230585" lon="-4.530660004383818"><ele>337.0</ele><time>2026-03-28T11:08:19.999Z</time></trkpt><trkpt lat="36.81940868463021" lon="-4.530574267902839"><ele>337.5</ele><time>2026-03-28T11:08:21Z</time></trkpt><trkpt lat="36.819425352098264" lon="-4.530487811533826"><ele>338.0</ele><time>2026-03-28T11:08:22Z</time></trkpt><trkpt lat="36.81944645708985" lon="-4.530409558782403"><ele>338.5</ele><time>2026-03-28T11:08:23Z</time></trkpt><trkpt lat="36.819464933004376" lon="-4.530324383653485"><ele>339.0</ele><time>2026-03-28T11:08:24Z</time></trkpt><trkpt lat="36.819487108652325" lon="-4.530243137088635"><ele>339.5</ele><time>2026-03-28T11:08:25Z</time></trkpt><trkpt lat="36.819558156822595" lon="-4.530127230707284"><ele>340.0</ele><time>2026-03-28T11:08:27Z</time></trkpt><trkpt lat="36.81960581704482" lon="-4.530071273480215"><ele>340.0</ele><time>2026-03-28T11:08:28Z</time></trkpt><trkpt lat="36.81966812220955" lon="-4.530016340907726"><ele>340.0</ele><time>2026-03-28T11:08:29Z</time></trkpt><trkpt lat="36.81973739547337" lon="-4.529932687791391"><ele>340.0</ele><time>2026-03-28T11:08:30Z</time></trkpt><trkpt lat="36.81980418979328" lon="-4.529878499731212"><ele>340.0</ele><time>2026-03-28T11:08:31Z</time></trkpt><trkpt lat="36.81987495422389" lon="-4.529831350291344"><ele>340.0</ele><time>2026-03-28T11:08:32Z</time></trkpt><trkpt lat="36.81990715923293" lon="-4.529733089336239"><ele>340.0</ele><time>2026-03-28T11:08:33Z</time></trkpt><trkpt lat="36.81992929272302" lon="-4.529637587714952"><ele>341.4</ele><time>2026-03-28T11:08:34Z</time></trkpt><trkpt lat="36.81997675914089" lon="-4.529534482159988"><ele>342.8</ele><time>2026-03-28T11:08:35Z</time></trkpt><trkpt lat="36.82000725773583" lon="-4.529424816671554"><ele>344.20000000000005</ele><time>2026-03-28T11:08:36Z</time></trkpt><trkpt lat="36.82003890405275" lon="-4.529309448346902"><ele>345.6</ele><time>2026-03-28T11:08:37Z</time></trkpt><trkpt lat="36.820070108487556" lon="-4.5291938635636235"><ele>347.0</ele><time>2026-03-28T11:08:38Z</time></trkpt><trkpt lat="36.82009628251308" lon="-4.529081328112868"><ele>347.0</ele><time>2026-03-28T11:08:39Z</time></trkpt><trkpt lat="36.820117539150004" lon="-4.52897978404731"><ele>347.0</ele><time>2026-03-28T11:08:40Z</time></trkpt><trkpt lat="36.8201609991949" lon="-4.528883210779294"><ele>347.0</ele><time>2026-03-28T11:08:41Z</time></trkpt><trkpt lat="36.82022292003077" lon="-4.528798426669077"><ele>347.0</ele><time>2026-03-28T11:08:42Z</time></trkpt><trkpt lat="36.82026837241845" lon="-4.528706644709638"><ele>347.0</ele><time>2026-03-28T11:08:43Z</time></trkpt><trkpt lat="36.820305700139734" lon="-4.528622424789542"><ele>347.0</ele><time>2026-03-28T11:08:44Z</time></trkpt><trkpt lat="36.820333695792975" lon="-4.52854962458307"><ele>348.0</ele><time>2026-03-28T11:08:45Z</time></trkpt><trkpt lat="36.82032039637063" lon="-4.528440981356321"><ele>349.0</ele><time>2026-03-28T11:08:47Z</time></trkpt><trkpt lat="36.82020159089849" lon="-4.528421382657119"><ele>350.0</ele><time>2026-03-28T11:08:49Z</time></trkpt><trkpt lat="36.820135374655514" lon="-4.528426749648297"><ele>351.0</ele><time>2026-03-28T11:08:50Z</time></trkpt><trkpt lat="36.82006949714011" lon="-4.52840761906047"><ele>352.0</ele><time>2026-03-28T11:08:51Z</time></trkpt><trkpt lat="36.8199919669237" lon="-4.528266815836924"><ele>352.0</ele><time>2026-03-28T11:08:53Z</time></trkpt><trkpt lat="36.81998012002961" lon="-4.528169091389978"><ele>352.0</ele><time>2026-03-28T11:08:54Z</time></trkpt><trkpt lat="36.81999127310593" lon="-4.528062523495834"><ele>352.0</ele><time>2026-03-28T11:08:55Z</time></trkpt><trkpt lat="36.82001483129876" lon="-4.527956592388477"><ele>352.0</ele><time>2026-03-28T11:08:56Z</time></trkpt><trkpt lat="36.8200350339265" lon="-4.527849307967478"><ele>352.0</ele><time>2026-03-28T11:08:57Z</time></trkpt><trkpt lat="36.82003930901802" lon="-4.527735535181109"><ele>352.0</ele><time>2026-03-28T11:08:58Z</time></trkpt><trkpt lat="36.82000510132429" lon="-4.527628268294232"><ele>353.8333333333333</ele><time>2026-03-28T11:08:59Z</time></trkpt><trkpt lat="36.81999573824027" lon="-4.527523426114851"><ele>355.66666666666663</ele><time>2026-03-28T11:09:00Z</time></trkpt><trkpt lat="36.81998985213571" lon="-4.527423152630119"><ele>357.5</ele><time>2026-03-28T11:09:01Z</time></trkpt><trkpt lat="36.8200059600367" lon="-4.527308556941807"><ele>359.3333333333333</ele><time>2026-03-28T11:09:02Z</time></trkpt><trkpt lat="36.81999472302399" lon="-4.527202989368384"><ele>361.1666666666667</ele><time>2026-03-28T11:09:03Z</time></trkpt><trkpt lat="36.819994076360636" lon="-4.527100385960311"><ele>363.0</ele><time>2026-03-28T11:09:04Z</time></trkpt><trkpt lat="36.81998875317389" lon="-4.526997394500424"><ele>363.0</ele><time>2026-03-28T11:09:05Z</time></trkpt><trkpt lat="36.82000060515378" lon="-4.526889439009423"><ele>363.0</ele><time>2026-03-28T11:09:06Z</time></trkpt><trkpt lat="36.82001855400803" lon="-4.526787247144606"><ele>363.0</ele><time>2026-03-28T11:09:07Z</time></trkpt><trkpt lat="36.82005556000539" lon="-4.526705341351932"><ele>363.0</ele><time>2026-03-28T11:09:08Z</time></trkpt><trkpt lat="36.82016351041326" lon="-4.526659351033998"><ele>363.0</ele><time>2026-03-28T11:09:10Z</time></trkpt><trkpt lat="36.820228599464066" lon="-4.526732414040119"><ele>363.0</ele><time>2026-03-28T11:09:11Z</time></trkpt><trkpt lat="36.82025357750983" lon="-4.526832993009599"><ele>366.3333333333333</ele><time>2026-03-28T11:09:12Z</time></trkpt><trkpt lat="36.82030175545647" lon="-4.526895577837012"><ele>369.6666666666667</ele><time>2026-03-28T11:09:13Z</time></trkpt><trkpt lat="36.8203589526315" lon="-4.52699197088846"><ele>373.0</ele><time>2026-03-28T11:09:15Z</time></trkpt><trkpt lat="36.820426525299446" lon="-4.526877445748238"><ele>376.33333333333337</ele><time>2026-03-28T11:09:27Z</time></trkpt><trkpt lat="36.82043015933833" lon="-4.526795496879615"><ele>379.6666666666667</ele><time>2026-03-28T11:09:28Z</time></trkpt><trkpt lat="36.82043811510357" lon="-4.526703873954049"><ele>383.0</ele><time>2026-03-28T11:09:29Z</time></trkpt><trkpt lat="36.82044371701446" lon="-4.526598112443264"><ele>383.0</ele><time>2026-03-28T11:09:30Z</time></trkpt><trkpt lat="36.820430444219696" lon="-4.526488164199253"><ele>383.0</ele><time>2026-03-28T11:09:31Z</time></trkpt><trkpt lat="36.82038630739991" lon="-4.52638201332265"><ele>383.0</ele><time>2026-03-28T11:09:32Z</time></trkpt><trkpt lat="36.82032197708242" lon="-4.526291902868086"><ele>383.0</ele><time>2026-03-28T11:09:33Z</time></trkpt><trkpt lat="36.82026162943177" lon="-4.526203526992435"><ele>383.0</ele><time>2026-03-28T11:09:34Z</time></trkpt><trkpt lat="36.82021512922133" lon="-4.526109118525788"><ele>381.0</ele><time>2026-03-28T11:09:35Z</time></trkpt><trkpt lat="36.82017415250836" lon="-4.526014556200295"><ele>379.0</ele><time>2026-03-28T11:09:36Z</time></trkpt><trkpt lat="36.82012480963177" lon="-4.5259259453205125"><ele>377.0</ele><time>2026-03-28T11:09:37Z</time></trkpt><trkpt lat="36.82005872877767" lon="-4.52585168558751"><ele>375.0</ele><time>2026-03-28T11:09:38Z</time></trkpt><trkpt lat="36.8199733685643" lon="-4.525782388771482"><ele>373.0</ele><time>2026-03-28T11:09:39Z</time></trkpt><trkpt lat="36.81988381678593" lon="-4.525724879979611"><ele>371.0</ele><time>2026-03-28T11:09:40Z</time></trkpt><trkpt lat="36.81978763603669" lon="-4.5256680422455"><ele>369.0</ele><time>2026-03-28T11:09:41Z</time></trkpt><trkpt lat="36.81969488303097" lon="-4.525611802680014"><ele>367.0</ele><time>2026-03-28T11:09:42Z</time></trkpt><trkpt lat="36.81960602742551" lon="-4.525556447364173"><ele>365.0</ele><time>2026-03-28T11:09:43Z</time></trkpt><trkpt lat="36.81953422082224" lon="-4.525495780051161"><ele>363.0</ele><time>2026-03-28T11:09:44Z</time></trkpt><trkpt lat="36.81947515664386" lon="-4.525423424394267"><ele>360.59999999999997</ele><time>2026-03-28T11:09:45Z</time></trkpt><trkpt lat="36.819444573608685" lon="-4.525323956561603"><ele>358.2</ele><time>2026-03-28T11:09:46Z</time></trkpt><trkpt lat="36.81943867775048" lon="-4.52520950844187"><ele>355.8</ele><time>2026-03-28T11:09:47Z</time></trkpt><trkpt lat="36.819466415387545" lon="-4.52508904288982"><ele>353.4</ele><time>2026-03-28T11:09:48Z</time></trkpt><trkpt lat="36.81952229427319" lon="-4.524974243508587"><ele>351.0</ele><time>2026-03-28T11:09:49Z</time></trkpt><trkpt lat="36.81960154684993" lon="-4.524879570872627"><ele>351.0</ele><time>2026-03-28T11:09:50Z</time></trkpt><trkpt lat="36.819679894006526" lon="-4.524777085761966"><ele>351.0</ele><time>2026-03-28T11:09:51Z</time></trkpt><trkpt lat="36.81978381843128" lon="-4.524712042748805"><ele>351.0</ele><time>2026-03-28T11:09:52Z</time></trkpt><trkpt lat="36.81987698999505" lon="-4.524659526041634"><ele>351.0</ele><time>2026-03-28T11:09:53Z</time></trkpt><trkpt lat="36.8199710717148" lon="-4.524602874579363"><ele>351.0</ele><time>2026-03-28T11:09:54Z</time></trkpt><trkpt lat="36.820063940373736" lon="-4.524540999108913"><ele>352.8</ele><time>2026-03-28T11:09:55Z</time></trkpt><trkpt lat="36.82013024739196" lon="-4.524439411138734"><ele>354.6</ele><time>2026-03-28T11:09:56Z</time></trkpt><trkpt lat="36.82017989884623" lon="-4.524322384337331"><ele>356.4</ele><time>2026-03-28T11:09:57Z</time></trkpt><trkpt lat="36.82020754157818" lon="-4.524197519151291"><ele>358.2</ele><time>2026-03-28T11:09:58Z</time></trkpt><trkpt lat="36.82019280596862" lon="-4.524071382359564"><ele>360.0</ele><time>2026-03-28T11:09:59Z</time></trkpt><trkpt lat="36.82019177605587" lon="-4.523949176989649"><ele>355.0</ele><time>2026-03-28T11:10:00Z</time></trkpt><trkpt lat="36.820211289347625" lon="-4.523828651000445"><ele>350.0</ele><time>2026-03-28T11:10:01Z</time></trkpt><trkpt lat="36.820271444542115" lon="-4.523727952362047"><ele>345.0</ele><time>2026-03-28T11:10:01.999Z</time></trkpt><trkpt lat="36.820391915805345" lon="-4.523683245804405"><ele>340.0</ele><time>2026-03-28T11:10:02.999Z</time></trkpt><trkpt lat="36.82048252728504" lon="-4.523643829063114"><ele>335.0</ele><time>2026-03-28T11:10:03.999Z</time></trkpt><trkpt lat="36.820561668596575" lon="-4.523586417732405"><ele>335.0</ele><time>2026-03-28T11:10:04.999Z</time></trkpt><trkpt lat="36.82063659905267" lon="-4.523513316388092"><ele>335.0</ele><time>2026-03-28T11:10:05.999Z</time></trkpt><trkpt lat="36.82067437443773" lon="-4.5234198860674155"><ele>335.0</ele><time>2026-03-28T11:10:06.999Z</time></trkpt><trkpt lat="36.82068386660061" lon="-4.523317875454683"><ele>335.0</ele><time>2026-03-28T11:10:07.999Z</time></trkpt><trkpt lat="36.82068025027859" lon="-4.5232153850365595"><ele>335.0</ele><time>2026-03-28T11:10:08.999Z</time></trkpt><trkpt lat="36.820655206565064" lon="-4.523098961636099"><ele>335.0</ele><time>2026-03-28T11:10:09.999Z</time></trkpt><trkpt lat="36.82063325926242" lon="-4.522980587242879"><ele>336.5</ele><time>2026-03-28T11:10:10.999Z</time></trkpt><trkpt lat="36.82059459176191" lon="-4.522850706704342"><ele>338.0</ele><time>2026-03-28T11:10:11.999Z</time></trkpt><trkpt lat="36.820591186504004" lon="-4.522699222102863"><ele>339.5</ele><time>2026-03-28T11:10:12.999Z</time></trkpt><trkpt lat="36.82061392865206" lon="-4.522549891479931"><ele>341.0</ele><time>2026-03-28T11:10:13.999Z</time></trkpt><trkpt lat="36.8206692003156" lon="-4.522402140275829"><ele>341.0</ele><time>2026-03-28T11:10:14.999Z</time></trkpt><trkpt lat="36.820734469318374" lon="-4.522258983949808"><ele>341.0</ele><time>2026-03-28T11:10:15.999Z</time></trkpt><trkpt lat="36.820814930334585" lon="-4.522123722318542"><ele>341.0</ele><time>2026-03-28T11:10:16.999Z</time></trkpt><trkpt lat="36.82089390638611" lon="-4.521996948241886"><ele>341.0</ele><time>2026-03-28T11:10:17.999Z</time></trkpt><trkpt lat="36.820967862086285" lon="-4.521881507540224"><ele>336.6</ele><time>2026-03-28T11:10:18.999Z</time></trkpt><trkpt lat="36.821040256073196" lon="-4.5217723623324195"><ele>332.20000000000005</ele><time>2026-03-28T11:10:19.999Z</time></trkpt><trkpt lat="36.82110964088809" lon="-4.521669621404662"><ele>327.79999999999995</ele><time>2026-03-28T11:10:20.999Z</time></trkpt><trkpt lat="36.82117483053733" lon="-4.521573216502913"><ele>323.4</ele><time>2026-03-28T11:10:21.999Z</time></trkpt><trkpt lat="36.82123265043614" lon="-4.5214806924701385"><ele>319.0</ele><time>2026-03-28T11:10:22.999Z</time></trkpt><trkpt lat="36.82127892840536" lon="-4.521388013037637"><ele>319.0</ele><time>2026-03-28T11:10:23.999Z</time></trkpt><trkpt lat="36.82128238391641" lon="-4.521282393173002"><ele>319.0</ele><time>2026-03-28T11:10:24.999Z</time></trkpt><trkpt lat="36.82125013052792" lon="-4.521187505186432"><ele>319.0</ele><time>2026-03-28T11:10:25.999Z</time></trkpt><trkpt lat="36.821188264629924" lon="-4.521114317415117"><ele>319.0</ele><time>2026-03-28T11:10:27Z</time></trkpt><trkpt lat="36.82109793100983" lon="-4.52108947830048"><ele>319.0</ele><time>2026-03-28T11:10:28Z</time></trkpt><trkpt lat="36.82099475358475" lon="-4.521077418967159"><ele>319.0</ele><time>2026-03-28T11:10:29Z</time></trkpt><trkpt lat="36.82088746322508" lon="-4.521070060402673"><ele>323.2</ele><time>2026-03-28T11:10:30Z</time></trkpt><trkpt lat="36.820776942119906" lon="-4.521059242186441"><ele>327.4</ele><time>2026-03-28T11:10:31Z</time></trkpt><trkpt lat="36.82068647442987" lon="-4.521035802275088"><ele>331.6</ele><time>2026-03-28T11:10:32Z</time></trkpt><trkpt lat="36.82061118341688" lon="-4.520991808309235"><ele>335.8</ele><time>2026-03-28T11:10:33Z</time></trkpt><trkpt lat="36.82055377138363" lon="-4.52092450829866"><ele>340.0</ele><time>2026-03-28T11:10:34Z</time></trkpt><trkpt lat="36.8205512078091" lon="-4.520813297021081"><ele>340.0</ele><time>2026-03-28T11:10:35Z</time></trkpt><trkpt lat="36.82054836439543" lon="-4.520698855254148"><ele>340.0</ele><time>2026-03-28T11:10:36Z</time></trkpt><trkpt lat="36.82064446080542" lon="-4.5206053239898845"><ele>340.0</ele><time>2026-03-28T11:10:37Z</time></trkpt><trkpt lat="36.820729458534316" lon="-4.520505743402722"><ele>340.0</ele><time>2026-03-28T11:10:38Z</time></trkpt><trkpt lat="36.820808492145076" lon="-4.520397920099278"><ele>340.0</ele><time>2026-03-28T11:10:39Z</time></trkpt><trkpt lat="36.82089151813495" lon="-4.52027056091812"><ele>340.5</ele><time>2026-03-28T11:10:40Z</time></trkpt><trkpt lat="36.82096945962448" lon="-4.520134532275639"><ele>341.0</ele><time>2026-03-28T11:10:41Z</time></trkpt><trkpt lat="36.82103785828907" lon="-4.519986033795991"><ele>341.5</ele><time>2026-03-28T11:10:42Z</time></trkpt><trkpt lat="36.82111080483004" lon="-4.519826421764454"><ele>342.0</ele><time>2026-03-28T11:10:43Z</time></trkpt><trkpt lat="36.82117095261167" lon="-4.519677406076147"><ele>335.75</ele><time>2026-03-28T11:10:44Z</time></trkpt><trkpt lat="36.82121559684244" lon="-4.519520476500305"><ele>329.5</ele><time>2026-03-28T11:10:45Z</time></trkpt><trkpt lat="36.82123123723605" lon="-4.519362043688935"><ele>323.25</ele><time>2026-03-28T11:10:46Z</time></trkpt><trkpt lat="36.82123233189366" lon="-4.519200004472835"><ele>317.0</ele><time>2026-03-28T11:10:47Z</time></trkpt><trkpt lat="36.82123809550101" lon="-4.519061355174894"><ele>317.0</ele><time>2026-03-28T11:10:48Z</time></trkpt><trkpt lat="36.821235436199615" lon="-4.5189321784337215"><ele>317.0</ele><time>2026-03-28T11:10:49Z</time></trkpt><trkpt lat="36.82128708412197" lon="-4.518800948391182"><ele>317.0</ele><time>2026-03-28T11:10:50Z</time></trkpt><trkpt lat="36.821399714152975" lon="-4.518708673661342"><ele>317.0</ele><time>2026-03-28T11:10:51Z</time></trkpt><trkpt lat="36.82151517180887" lon="-4.5186440639213705"><ele>320.5</ele><time>2026-03-28T11:10:52Z</time></trkpt><trkpt lat="36.82162885274757" lon="-4.518587514644059"><ele>324.0</ele><time>2026-03-28T11:10:53Z</time></trkpt><trkpt lat="36.82173021919494" lon="-4.51851478898073"><ele>327.5</ele><time>2026-03-28T11:10:54Z</time></trkpt><trkpt lat="36.8218089820985" lon="-4.518400644540926"><ele>331.0</ele><time>2026-03-28T11:10:55Z</time></trkpt><trkpt lat="36.82186859874306" lon="-4.518280881165305"><ele>328.0</ele><time>2026-03-28T11:10:56Z</time></trkpt><trkpt lat="36.8219099980653" lon="-4.5181560300697035"><ele>325.0</ele><time>2026-03-28T11:10:57Z</time></trkpt><trkpt lat="36.82192326261846" lon="-4.518029719627254"><ele>322.0</ele><time>2026-03-28T11:10:58Z</time></trkpt><trkpt lat="36.82190713785117" lon="-4.517913695754817"><ele>319.0</ele><time>2026-03-28T11:10:59Z</time></trkpt><trkpt lat="36.8218668019399" lon="-4.517815960030683"><ele>316.0</ele><time>2026-03-28T11:11:00Z</time></trkpt><trkpt lat="36.82180373159571" lon="-4.517742375531143"><ele>316.0</ele><time>2026-03-28T11:11:01Z</time></trkpt><trkpt lat="36.82172522046149" lon="-4.51768281209489"><ele>316.0</ele><time>2026-03-28T11:11:02Z</time></trkpt><trkpt lat="36.821629767490016" lon="-4.517646831297856"><ele>316.0</ele><time>2026-03-28T11:11:03Z</time></trkpt><trkpt lat="36.82152890098116" lon="-4.51763031199896"><ele>316.0</ele><time>2026-03-28T11:11:04Z</time></trkpt><trkpt lat="36.82142117218333" lon="-4.517610947979717"><ele>316.0</ele><time>2026-03-28T11:11:05Z</time></trkpt><trkpt lat="36.82130969751178" lon="-4.517589534431397"><ele>316.0</ele><time>2026-03-28T11:11:06Z</time></trkpt><trkpt lat="36.821193946521824" lon="-4.517569495452785"><ele>316.0</ele><time>2026-03-28T11:11:07Z</time></trkpt><trkpt lat="36.82108113660071" lon="-4.5175449421657285"><ele>316.0</ele><time>2026-03-28T11:11:08Z</time></trkpt><trkpt lat="36.820974772005265" lon="-4.51751929642469"><ele>316.0</ele><time>2026-03-28T11:11:09Z</time></trkpt><trkpt lat="36.82086955678742" lon="-4.517472015482714"><ele>318.25</ele><time>2026-03-28T11:11:10Z</time></trkpt><trkpt lat="36.82078895351693" lon="-4.5173817556609785"><ele>320.5</ele><time>2026-03-28T11:11:11Z</time></trkpt><trkpt lat="36.82073466230394" lon="-4.517247958040885"><ele>322.75</ele><time>2026-03-28T11:11:12Z</time></trkpt><trkpt lat="36.82070234556074" lon="-4.517115596114613"><ele>325.0</ele><time>2026-03-28T11:11:13Z</time></trkpt><trkpt lat="36.82068538503423" lon="-4.5169765093966125"><ele>325.0</ele><time>2026-03-28T11:11:14Z</time></trkpt><trkpt lat="36.82068719547129" lon="-4.516824155381331"><ele>325.0</ele><time>2026-03-28T11:11:15Z</time></trkpt><trkpt lat="36.82071613998767" lon="-4.51668318711063"><ele>325.0</ele><time>2026-03-28T11:11:16Z</time></trkpt><trkpt lat="36.8207470002243" lon="-4.516564394407098"><ele>325.0</ele><time>2026-03-28T11:11:17Z</time></trkpt><trkpt lat="36.82076814990344" lon="-4.516449968262731"><ele>325.0</ele><time>2026-03-28T11:11:18Z</time></trkpt><trkpt lat="36.82077256123283" lon="-4.516343768426802"><ele>322.6</ele><time>2026-03-28T11:11:19Z</time></trkpt><trkpt lat="36.82075674292417" lon="-4.516226324652115"><ele>320.2</ele><time>2026-03-28T11:11:20Z</time></trkpt><trkpt lat="36.8207306979969" lon="-4.516108279118026"><ele>317.8</ele><time>2026-03-28T11:11:21Z</time></trkpt><trkpt lat="36.820679403619835" lon="-4.515994334333907"><ele>315.4</ele><time>2026-03-28T11:11:22Z</time></trkpt><trkpt lat="36.82062830071351" lon="-4.515875363195132"><ele>313.0</ele><time>2026-03-28T11:11:23Z</time></trkpt><trkpt lat="36.82057255111541" lon="-4.515761511014277"><ele>313.0</ele><time>2026-03-28T11:11:24Z</time></trkpt><trkpt lat="36.82051996410476" lon="-4.515640538766217"><ele>313.0</ele><time>2026-03-28T11:11:25Z</time></trkpt><trkpt lat="36.82046802220819" lon="-4.51551876708825"><ele>313.0</ele><time>2026-03-28T11:11:26Z</time></trkpt><trkpt lat="36.82041884227495" lon="-4.51540334197481"><ele>313.0</ele><time>2026-03-28T11:11:27Z</time></trkpt><trkpt lat="36.8203706859446" lon="-4.51528361192585"><ele>313.0</ele><time>2026-03-28T11:11:28Z</time></trkpt><trkpt lat="36.82034512540613" lon="-4.515148034132567"><ele>311.8</ele><time>2026-03-28T11:11:29Z</time></trkpt><trkpt lat="36.82032965269126" lon="-4.5150108986911155"><ele>310.6</ele><time>2026-03-28T11:11:30Z</time></trkpt><trkpt lat="36.8203321037939" lon="-4.514877179538763"><ele>309.4</ele><time>2026-03-28T11:11:31Z</time></trkpt><trkpt lat="36.820339559145545" lon="-4.5147442758527"><ele>308.2</ele><time>2026-03-28T11:11:32Z</time></trkpt><trkpt lat="36.82030744810845" lon="-4.51461870039851"><ele>307.0</ele><time>2026-03-28T11:11:33Z</time></trkpt><trkpt lat="36.82027375949844" lon="-4.51449876061064"><ele>307.0</ele><time>2026-03-28T11:11:34Z</time></trkpt><trkpt lat="36.82025003472687" lon="-4.5143849758377375"><ele>307.0</ele><time>2026-03-28T11:11:35Z</time></trkpt><trkpt lat="36.820237528448736" lon="-4.5142686091675746"><ele>307.0</ele><time>2026-03-28T11:11:36Z</time></trkpt><trkpt lat="36.82028404059193" lon="-4.514169224391016"><ele>307.0</ele><time>2026-03-28T11:11:37Z</time></trkpt><trkpt lat="36.8203243261923" lon="-4.514083479976362"><ele>307.0</ele><time>2026-03-28T11:11:38Z</time></trkpt><trkpt lat="36.820373560546905" lon="-4.514007828654468"><ele>307.0</ele><time>2026-03-28T11:11:39Z</time></trkpt><trkpt lat="36.820422579521185" lon="-4.5139282514731915"><ele>307.0</ele><time>2026-03-28T11:11:40Z</time></trkpt><trkpt lat="36.82045486702543" lon="-4.513839671778799"><ele>307.0</ele><time>2026-03-28T11:11:41Z</time></trkpt><trkpt lat="36.82050915059558" lon="-4.513760155100409"><ele>307.0</ele><time>2026-03-28T11:11:41.999Z</time></trkpt><trkpt lat="36.820534505129054" lon="-4.51365602274679"><ele>307.0</ele><time>2026-03-28T11:11:42.999Z</time></trkpt><trkpt lat="36.82054981702823" lon="-4.513530069313399"><ele>307.0</ele><time>2026-03-28T11:11:43.999Z</time></trkpt><trkpt lat="36.820561625713495" lon="-4.513398113626594"><ele>307.4</ele><time>2026-03-28T11:11:44.999Z</time></trkpt><trkpt lat="36.8205754663601" lon="-4.5132606683389165"><ele>307.79999999999995</ele><time>2026-03-28T11:11:45.999Z</time></trkpt><trkpt lat="36.8205945458934" lon="-4.5131253508086235"><ele>308.2</ele><time>2026-03-28T11:11:46.999Z</time></trkpt><trkpt lat="36.82061481056335" lon="-4.512992203001296"><ele>308.59999999999997</ele><time>2026-03-28T11:11:47.999Z</time></trkpt><trkpt lat="36.82061332580865" lon="-4.512864312331944"><ele>309.0</ele><time>2026-03-28T11:11:48.999Z</time></trkpt><trkpt lat="36.82063682794759" lon="-4.512740641404487"><ele>309.0</ele><time>2026-03-28T11:11:49.999Z</time></trkpt><trkpt lat="36.8206283235104" lon="-4.512626441696735"><ele>309.0</ele><time>2026-03-28T11:11:50.999Z</time></trkpt><trkpt lat="36.82059989733488" lon="-4.51252587914293"><ele>309.0</ele><time>2026-03-28T11:11:51.999Z</time></trkpt><trkpt lat="36.820551404141234" lon="-4.512441024268547"><ele>309.0</ele><time>2026-03-28T11:11:52.999Z</time></trkpt><trkpt lat="36.820480382977394" lon="-4.512380640102877"><ele>309.0</ele><time>2026-03-28T11:11:53.999Z</time></trkpt><trkpt lat="36.82039655922486" lon="-4.5123622660186955"><ele>309.0</ele><time>2026-03-28T11:11:54.999Z</time></trkpt><trkpt lat="36.820304585241615" lon="-4.512390413616037"><ele>309.0</ele><time>2026-03-28T11:11:55.999Z</time></trkpt><trkpt lat="36.82021464353872" lon="-4.512457225025884"><ele>309.0</ele><time>2026-03-28T11:11:56.999Z</time></trkpt><trkpt lat="36.820116582495665" lon="-4.512534123897672"><ele>309.0</ele><time>2026-03-28T11:11:57.999Z</time></trkpt><trkpt lat="36.82001557295078" lon="-4.512613114837005"><ele>309.0</ele><time>2026-03-28T11:11:58.999Z</time></trkpt><trkpt lat="36.81991685323903" lon="-4.512710339962448"><ele>308.0</ele><time>2026-03-28T11:11:59.999Z</time></trkpt><trkpt lat="36.81980116108076" lon="-4.512776442324399"><ele>307.0</ele><time>2026-03-28T11:12:00.999Z</time></trkpt><trkpt lat="36.81968582270391" lon="-4.512862463451679"><ele>306.0</ele><time>2026-03-28T11:12:01.999Z</time></trkpt><trkpt lat="36.819567456899875" lon="-4.512959190545937"><ele>305.0</ele><time>2026-03-28T11:12:02.999Z</time></trkpt><trkpt lat="36.81944269060251" lon="-4.513050917565277"><ele>304.75</ele><time>2026-03-28T11:12:03.999Z</time></trkpt><trkpt lat="36.81932313153418" lon="-4.513137044111868"><ele>304.5</ele><time>2026-03-28T11:12:04.999Z</time></trkpt><trkpt lat="36.819215383628" lon="-4.513216940724752"><ele>304.25</ele><time>2026-03-28T11:12:05.999Z</time></trkpt><trkpt lat="36.81911478725541" lon="-4.513289491000228"><ele>304.0</ele><time>2026-03-28T11:12:06.999Z</time></trkpt><trkpt lat="36.81902035127402" lon="-4.513334851920972"><ele>304.0</ele><time>2026-03-28T11:12:07.999Z</time></trkpt><trkpt lat="36.818928455640005" lon="-4.513350436019832"><ele>304.0</ele><time>2026-03-28T11:12:08.999Z</time></trkpt><trkpt lat="36.81883763812307" lon="-4.513356264882853"><ele>304.0</ele><time>2026-03-28T11:12:09.999Z</time></trkpt><trkpt lat="36.818751780221604" lon="-4.513299445859578"><ele>304.0</ele><time>2026-03-28T11:12:10.999Z</time></trkpt><trkpt lat="36.818699640439775" lon="-4.513197888626138"><ele>304.0</ele><time>2026-03-28T11:12:11.999Z</time></trkpt><trkpt lat="36.81866365789822" lon="-4.51309018164615"><ele>304.0</ele><time>2026-03-28T11:12:12.999Z</time></trkpt><trkpt lat="36.818673425619004" lon="-4.512961769892407"><ele>304.0</ele><time>2026-03-28T11:12:13.999Z</time></trkpt><trkpt lat="36.81873112751889" lon="-4.512845266695079"><ele>304.0</ele><time>2026-03-28T11:12:14.999Z</time></trkpt><trkpt lat="36.81883464571536" lon="-4.512773329196013"><ele>304.0</ele><time>2026-03-28T11:12:15.999Z</time></trkpt><trkpt lat="36.818928422428066" lon="-4.512685973182665"><ele>304.0</ele><time>2026-03-28T11:12:16.999Z</time></trkpt><trkpt lat="36.81902052049418" lon="-4.512601219533794"><ele>304.2</ele><time>2026-03-28T11:12:17.999Z</time></trkpt><trkpt lat="36.81911128459152" lon="-4.512519397148666"><ele>304.4</ele><time>2026-03-28T11:12:18.999Z</time></trkpt><trkpt lat="36.81919819847961" lon="-4.512438881210066"><ele>304.6</ele><time>2026-03-28T11:12:19.999Z</time></trkpt><trkpt lat="36.81925678063791" lon="-4.512327160711053"><ele>304.8</ele><time>2026-03-28T11:12:20.999Z</time></trkpt><trkpt lat="36.81932684049361" lon="-4.512227261122414"><ele>305.0</ele><time>2026-03-28T11:12:21.999Z</time></trkpt><trkpt lat="36.81936492133176" lon="-4.512095766235799"><ele>302.5</ele><time>2026-03-28T11:12:22.999Z</time></trkpt><trkpt lat="36.81939696105354" lon="-4.511953641342253"><ele>300.0</ele><time>2026-03-28T11:12:23.999Z</time></trkpt><trkpt lat="36.819430983882064" lon="-4.5118104398521375"><ele>297.5</ele><time>2026-03-28T11:12:24.999Z</time></trkpt><trkpt lat="36.81946222776407" lon="-4.511675002302334"><ele>295.0</ele><time>2026-03-28T11:12:25.999Z</time></trkpt><trkpt lat="36.81948656866087" lon="-4.5115465300273225"><ele>295.0</ele><time>2026-03-28T11:12:26.999Z</time></trkpt><trkpt lat="36.819483251954544" lon="-4.511420187424764"><ele>295.0</ele><time>2026-03-28T11:12:27.999Z</time></trkpt><trkpt lat="36.81944117158482" lon="-4.511300193123201"><ele>295.0</ele><time>2026-03-28T11:12:28.999Z</time></trkpt><trkpt lat="36.81939060250517" lon="-4.511171136776636"><ele>295.0</ele><time>2026-03-28T11:12:29.999Z</time></trkpt><trkpt lat="36.8193400185535" lon="-4.511037782650046"><ele>295.0</ele><time>2026-03-28T11:12:30.999Z</time></trkpt><trkpt lat="36.81929294760824" lon="-4.510895304324515"><ele>294.0</ele><time>2026-03-28T11:12:31.999Z</time></trkpt><trkpt lat="36.81925319221321" lon="-4.510749593814389"><ele>293.0</ele><time>2026-03-28T11:12:33Z</time></trkpt><trkpt lat="36.819228683199434" lon="-4.510607213954555"><ele>292.0</ele><time>2026-03-28T11:12:34Z</time></trkpt><trkpt lat="36.819231792400096" lon="-4.510463841684319"><ele>291.0</ele><time>2026-03-28T11:12:35Z</time></trkpt><trkpt lat="36.81921937833783" lon="-4.510328775222608"><ele>288.0</ele><time>2026-03-28T11:12:36Z</time></trkpt><trkpt lat="36.819203424095285" lon="-4.510195205375539"><ele>285.0</ele><time>2026-03-28T11:12:37Z</time></trkpt><trkpt lat="36.81917651680721" lon="-4.510065226623124"><ele>282.0</ele><time>2026-03-28T11:12:38Z</time></trkpt><trkpt lat="36.81913321607204" lon="-4.509944394032626"><ele>279.0</ele><time>2026-03-28T11:12:39Z</time></trkpt><trkpt lat="36.819079999744886" lon="-4.5098400686686615"><ele>276.0</ele><time>2026-03-28T11:12:40Z</time></trkpt><trkpt lat="36.81902321220418" lon="-4.509771461139101"><ele>276.0</ele><time>2026-03-28T11:12:41Z</time></trkpt><trkpt lat="36.818950659524624" lon="-4.509728283529086"><ele>276.0</ele><time>2026-03-28T11:12:42Z</time></trkpt><trkpt lat="36.81886311056447" lon="-4.509705148459633"><ele>276.0</ele><time>2026-03-28T11:12:43Z</time></trkpt><trkpt lat="36.818767068746354" lon="-4.509689610974001"><ele>276.0</ele><time>2026-03-28T11:12:44Z</time></trkpt><trkpt lat="36.81867431596419" lon="-4.509683661479696"><ele>276.0</ele><time>2026-03-28T11:12:45Z</time></trkpt><trkpt lat="36.8185772425143" lon="-4.5096936705871205"><ele>278.75</ele><time>2026-03-28T11:12:46Z</time></trkpt><trkpt lat="36.8184722781659" lon="-4.509733328385989"><ele>281.5</ele><time>2026-03-28T11:12:47Z</time></trkpt><trkpt lat="36.81836647754169" lon="-4.509788094745201"><ele>284.25</ele><time>2026-03-28T11:12:48Z</time></trkpt><trkpt lat="36.818237156237245" lon="-4.50978501944491"><ele>287.0</ele><time>2026-03-28T11:12:49Z</time></trkpt><trkpt lat="36.818116792461105" lon="-4.509709322575153"><ele>287.0</ele><time>2026-03-28T11:12:50Z</time></trkpt><trkpt lat="36.8180123263364" lon="-4.509623809927945"><ele>287.0</ele><time>2026-03-28T11:12:51Z</time></trkpt><trkpt lat="36.81788769541038" lon="-4.509601544825018"><ele>287.0</ele><time>2026-03-28T11:12:52Z</time></trkpt><trkpt lat="36.8177639896127" lon="-4.509590298594995"><ele>287.0</ele><time>2026-03-28T11:12:53Z</time></trkpt><trkpt lat="36.8176525584476" lon="-4.50957924233937"><ele>281.0</ele><time>2026-03-28T11:12:54Z</time></trkpt><trkpt lat="36.8175447448234" lon="-4.509562397803572"><ele>275.0</ele><time>2026-03-28T11:12:55Z</time></trkpt><trkpt lat="36.81743865554213" lon="-4.509558372826344"><ele>269.0</ele><time>2026-03-28T11:12:56Z</time></trkpt><trkpt lat="36.81733646900869" lon="-4.5095538919969735"><ele>263.0</ele><time>2026-03-28T11:12:57Z</time></trkpt><trkpt lat="36.81724586658559" lon="-4.509540177533647"><ele>257.0</ele><time>2026-03-28T11:12:58Z</time></trkpt><trkpt lat="36.81715620307611" lon="-4.509516565499356"><ele>257.0</ele><time>2026-03-28T11:12:59Z</time></trkpt><trkpt lat="36.81707985709091" lon="-4.509423439767293"><ele>257.0</ele><time>2026-03-28T11:13:00Z</time></trkpt><trkpt lat="36.817051852277" lon="-4.509282705629355"><ele>257.0</ele><time>2026-03-28T11:13:01Z</time></trkpt><trkpt lat="36.81705006250638" lon="-4.509151006347052"><ele>257.0</ele><time>2026-03-28T11:13:02Z</time></trkpt><trkpt lat="36.81704007850222" lon="-4.509022683694096"><ele>257.0</ele><time>2026-03-28T11:13:03Z</time></trkpt><trkpt lat="36.81702366320494" lon="-4.508903083674759"><ele>257.0</ele><time>2026-03-28T11:13:04Z</time></trkpt><trkpt lat="36.8169581761367" lon="-4.5087941081028875"><ele>257.0</ele><time>2026-03-28T11:13:05Z</time></trkpt><trkpt lat="36.81687916634525" lon="-4.508696849968496"><ele>257.0</ele><time>2026-03-28T11:13:06Z</time></trkpt><trkpt lat="36.81679036916663" lon="-4.5085902956044634"><ele>257.0</ele><time>2026-03-28T11:13:07Z</time></trkpt><trkpt lat="36.81669128897834" lon="-4.508489379204431"><ele>256.75</ele><time>2026-03-28T11:13:08Z</time></trkpt><trkpt lat="36.816598784186446" lon="-4.5083683378714845"><ele>256.5</ele><time>2026-03-28T11:13:09Z</time></trkpt><trkpt lat="36.816522142878675" lon="-4.508233732614999"><ele>256.25</ele><time>2026-03-28T11:13:10Z</time></trkpt><trkpt lat="36.81647102421587" lon="-4.508092539214425"><ele>256.0</ele><time>2026-03-28T11:13:11Z</time></trkpt><trkpt lat="36.81643940419786" lon="-4.507955929887517"><ele>250.5</ele><time>2026-03-28T11:13:12Z</time></trkpt><trkpt lat="36.81635560608271" lon="-4.507851911661907"><ele>245.0</ele><time>2026-03-28T11:13:13Z</time></trkpt><trkpt lat="36.81626063054805" lon="-4.507757220550781"><ele>239.5</ele><time>2026-03-28T11:13:14Z</time></trkpt><trkpt lat="36.816159151937775" lon="-4.507670145829637"><ele>234.0</ele><time>2026-03-28T11:13:15Z</time></trkpt><trkpt lat="36.816074937216825" lon="-4.507540877277327"><ele>234.0</ele><time>2026-03-28T11:13:16Z</time></trkpt><trkpt lat="36.81602022842791" lon="-4.507373898940584"><ele>234.0</ele><time>2026-03-28T11:13:17Z</time></trkpt><trkpt lat="36.81600074780964" lon="-4.507198830057704"><ele>234.0</ele><time>2026-03-28T11:13:18Z</time></trkpt><trkpt lat="36.81598844422493" lon="-4.507041398891461"><ele>234.0</ele><time>2026-03-28T11:13:19Z</time></trkpt><trkpt lat="36.81596998192334" lon="-4.506894017546237"><ele>236.39999999999998</ele><time>2026-03-28T11:13:20Z</time></trkpt><trkpt lat="36.81594441224682" lon="-4.506759308047826"><ele>238.79999999999998</ele><time>2026-03-28T11:13:21Z</time></trkpt><trkpt lat="36.81592153989942" lon="-4.5066260967481035"><ele>241.20000000000002</ele><time>2026-03-28T11:13:22Z</time></trkpt><trkpt lat="36.81586279043485" lon="-4.506509004303304"><ele>243.60000000000002</ele><time>2026-03-28T11:13:23Z</time></trkpt><trkpt lat="36.81578128103664" lon="-4.506402382842547"><ele>246.0</ele><time>2026-03-28T11:13:24Z</time></trkpt><trkpt lat="36.815706005766444" lon="-4.506316248487697"><ele>246.0</ele><time>2026-03-28T11:13:25Z</time></trkpt><trkpt lat="36.81563107182947" lon="-4.506247122031533"><ele>246.00000000000003</ele><time>2026-03-28T11:13:26Z</time></trkpt><trkpt lat="36.81555042986306" lon="-4.506205914659726"><ele>246.00000000000003</ele><time>2026-03-28T11:13:27Z</time></trkpt><trkpt lat="36.81546339943818" lon="-4.506207138385178"><ele>246.0</ele><time>2026-03-28T11:13:28Z</time></trkpt><trkpt lat="36.815384626953076" lon="-4.50625564329633"><ele>246.0</ele><time>2026-03-28T11:13:29Z</time></trkpt><trkpt lat="36.81532073524445" lon="-4.5063570122395475"><ele>246.0</ele><time>2026-03-28T11:13:30Z</time></trkpt><trkpt lat="36.81526749850925" lon="-4.5064779943294875"><ele>246.0</ele><time>2026-03-28T11:13:31Z</time></trkpt><trkpt lat="36.81521940678522" lon="-4.506612259347826"><ele>246.0</ele><time>2026-03-28T11:13:32Z</time></trkpt><trkpt lat="36.815184966672746" lon="-4.506757753377534"><ele>246.0</ele><time>2026-03-28T11:13:33Z</time></trkpt><trkpt lat="36.81514354014016" lon="-4.506901197766027"><ele>247.0</ele><time>2026-03-28T11:13:34Z</time></trkpt><trkpt lat="36.815088869560306" lon="-4.507050731423178"><ele>248.0</ele><time>2026-03-28T11:13:35Z</time></trkpt><trkpt lat="36.81498794079477" lon="-4.507181964863947"><ele>249.0</ele><time>2026-03-28T11:13:36Z</time></trkpt><trkpt lat="36.814874915518374" lon="-4.507286468400948"><ele>250.0</ele><time>2026-03-28T11:13:37Z</time></trkpt><trkpt lat="36.81477406643727" lon="-4.507406417147474"><ele>250.0</ele><time>2026-03-28T11:13:38Z</time></trkpt><trkpt lat="36.81468592285901" lon="-4.50751607854903"><ele>250.0</ele><time>2026-03-28T11:13:39Z</time></trkpt><trkpt lat="36.81460832362665" lon="-4.5076267617178924"><ele>250.0</ele><time>2026-03-28T11:13:40Z</time></trkpt><trkpt lat="36.814547062641395" lon="-4.507745250213713"><ele>250.0</ele><time>2026-03-28T11:13:41Z</time></trkpt><trkpt lat="36.814511689474564" lon="-4.507866823272177"><ele>252.16666666666666</ele><time>2026-03-28T11:13:42Z</time></trkpt><trkpt lat="36.814501532690784" lon="-4.507988938666561"><ele>254.33333333333331</ele><time>2026-03-28T11:13:43Z</time></trkpt><trkpt lat="36.81449538330405" lon="-4.50810537415281"><ele>256.5</ele><time>2026-03-28T11:13:44Z</time></trkpt><trkpt lat="36.81448545711576" lon="-4.508211408449956"><ele>258.6666666666667</ele><time>2026-03-28T11:13:45Z</time></trkpt><trkpt lat="36.81446360196209" lon="-4.508299234069308"><ele>260.83333333333337</ele><time>2026-03-28T11:13:46Z</time></trkpt><trkpt lat="36.81442431964565" lon="-4.508373608831869"><ele>263.0</ele><time>2026-03-28T11:13:47Z</time></trkpt><trkpt lat="36.814369807369" lon="-4.508423554360699"><ele>259.5</ele><time>2026-03-28T11:13:48Z</time></trkpt><trkpt lat="36.81429994532089" lon="-4.5084509829229455"><ele>256.0</ele><time>2026-03-28T11:13:49Z</time></trkpt><trkpt lat="36.814224284965974" lon="-4.5084441290004165"><ele>252.5</ele><time>2026-03-28T11:13:50Z</time></trkpt><trkpt lat="36.814156372154095" lon="-4.508392838283003"><ele>249.0</ele><time>2026-03-28T11:13:51Z</time></trkpt><trkpt lat="36.81408879899293" lon="-4.508321945877882"><ele>245.50000000000003</ele><time>2026-03-28T11:13:52Z</time></trkpt><trkpt lat="36.81405430751879" lon="-4.5082302200923925"><ele>242.0</ele><time>2026-03-28T11:13:53Z</time></trkpt><trkpt lat="36.81402059742376" lon="-4.5081180744567675"><ele>242.0</ele><time>2026-03-28T11:13:54Z</time></trkpt><trkpt lat="36.81398880967353" lon="-4.508002738894806"><ele>242.0</ele><time>2026-03-28T11:13:55Z</time></trkpt><trkpt lat="36.813969941824794" lon="-4.507871522837541"><ele>242.0</ele><time>2026-03-28T11:13:56Z</time></trkpt><trkpt lat="36.81392984821714" lon="-4.507750529871169"><ele>242.0</ele><time>2026-03-28T11:13:57Z</time></trkpt><trkpt lat="36.81390386491807" lon="-4.507617517025005"><ele>242.0</ele><time>2026-03-28T11:13:58Z</time></trkpt><trkpt lat="36.81389938412059" lon="-4.507485513926934"><ele>238.6</ele><time>2026-03-28T11:13:59Z</time></trkpt><trkpt lat="36.81391508589893" lon="-4.507351111558591"><ele>235.2</ele><time>2026-03-28T11:14:00Z</time></trkpt><trkpt lat="36.8139211023825" lon="-4.507211994718023"><ele>231.8</ele><time>2026-03-28T11:14:01Z</time></trkpt><trkpt lat="36.81391389155469" lon="-4.507075430268359"><ele>228.4</ele><time>2026-03-28T11:14:02Z</time></trkpt><trkpt lat="36.81390187827567" lon="-4.506951633466342"><ele>225.0</ele><time>2026-03-28T11:14:03Z</time></trkpt><trkpt lat="36.81388638042854" lon="-4.5068341722276655"><ele>222.0</ele><time>2026-03-28T11:14:04Z</time></trkpt><trkpt lat="36.81384603236035" lon="-4.506723430606999"><ele>219.0</ele><time>2026-03-28T11:14:05Z</time></trkpt><trkpt lat="36.81377118220967" lon="-4.506618715992656"><ele>216.0</ele><time>2026-03-28T11:14:05.999Z</time></trkpt><trkpt lat="36.813698078739705" lon="-4.506532194241567"><ele>213.0</ele><time>2026-03-28T11:14:06.999Z</time></trkpt><trkpt lat="36.813624807094016" lon="-4.506418444546081"><ele>210.0</ele><time>2026-03-28T11:14:07.999Z</time></trkpt><trkpt lat="36.81355944773711" lon="-4.506299443336317"><ele>206.25</ele><time>2026-03-28T11:14:08.999Z</time></trkpt><trkpt lat="36.813536008458165" lon="-4.5061378510601555"><ele>202.5</ele><time>2026-03-28T11:14:09.999Z</time></trkpt><trkpt lat="36.81355125073738" lon="-4.5059777888033175"><ele>198.75</ele><time>2026-03-28T11:14:10.999Z</time></trkpt><trkpt lat="36.81356388341205" lon="-4.505824322439567"><ele>195.0</ele><time>2026-03-28T11:14:11.999Z</time></trkpt><trkpt lat="36.813578157757796" lon="-4.50569274125612"><ele>195.0</ele><time>2026-03-28T11:14:12.999Z</time></trkpt><trkpt lat="36.81358369110291" lon="-4.505577809380422"><ele>195.0</ele><time>2026-03-28T11:14:13.999Z</time></trkpt><trkpt lat="36.81357998621392" lon="-4.50546889195565"><ele>195.0</ele><time>2026-03-28T11:14:14.999Z</time></trkpt><trkpt lat="36.813553290890056" lon="-4.505365193380885"><ele>195.0</ele><time>2026-03-28T11:14:15.999Z</time></trkpt><trkpt lat="36.81349878595004" lon="-4.505265010366932"><ele>195.0</ele><time>2026-03-28T11:14:16.999Z</time></trkpt><trkpt lat="36.81341489107389" lon="-4.505188502828473"><ele>198.6</ele><time>2026-03-28T11:14:17.999Z</time></trkpt><trkpt lat="36.81332732266381" lon="-4.5051252379515105"><ele>202.2</ele><time>2026-03-28T11:14:18.999Z</time></trkpt><trkpt lat="36.81326068284126" lon="-4.505049513347659"><ele>205.8</ele><time>2026-03-28T11:14:19.999Z</time></trkpt><trkpt lat="36.813223098866956" lon="-4.50494407714572"><ele>209.4</ele><time>2026-03-28T11:14:20.999Z</time></trkpt><trkpt lat="36.813216869649594" lon="-4.504817577411038"><ele>213.0</ele><time>2026-03-28T11:14:21.999Z</time></trkpt><trkpt lat="36.81323333929587" lon="-4.504673263862929"><ele>210.4</ele><time>2026-03-28T11:14:22.999Z</time></trkpt><trkpt lat="36.81325806274647" lon="-4.504534374869638"><ele>207.8</ele><time>2026-03-28T11:14:23.999Z</time></trkpt><trkpt lat="36.81327622621979" lon="-4.504406592469578"><ele>205.2</ele><time>2026-03-28T11:14:24.999Z</time></trkpt><trkpt lat="36.81327053221069" lon="-4.50429120483059"><ele>202.6</ele><time>2026-03-28T11:14:25.999Z</time></trkpt><trkpt lat="36.81327930958284" lon="-4.504176022872202"><ele>200.0</ele><time>2026-03-28T11:14:26.999Z</time></trkpt><trkpt lat="36.813241404532164" lon="-4.504061471666791"><ele>200.0</ele><time>2026-03-28T11:14:27.999Z</time></trkpt><trkpt lat="36.813173379589216" lon="-4.503957277200189"><ele>200.0</ele><time>2026-03-28T11:14:28.999Z</time></trkpt><trkpt lat="36.81309493092955" lon="-4.503860852628544"><ele>200.0</ele><time>2026-03-28T11:14:29.999Z</time></trkpt><trkpt lat="36.813019919379585" lon="-4.503774818854031"><ele>200.0</ele><time>2026-03-28T11:14:30.999Z</time></trkpt><trkpt lat="36.812946503435946" lon="-4.503691409470865"><ele>200.0</ele><time>2026-03-28T11:14:31.999Z</time></trkpt><trkpt lat="36.81286305721337" lon="-4.503637878661108"><ele>197.8</ele><time>2026-03-28T11:14:32.999Z</time></trkpt><trkpt lat="36.8127663270442" lon="-4.503617300037475"><ele>195.6</ele><time>2026-03-28T11:14:33.999Z</time></trkpt><trkpt lat="36.81266371729193" lon="-4.50365007453875"><ele>193.39999999999998</ele><time>2026-03-28T11:14:34.999Z</time></trkpt><trkpt lat="36.81256272201509" lon="-4.503684806683658"><ele>191.2</ele><time>2026-03-28T11:14:35.999Z</time></trkpt><trkpt lat="36.81245945360889" lon="-4.503732323889593"><ele>189.0</ele><time>2026-03-28T11:14:36.999Z</time></trkpt><trkpt lat="36.81235920683081" lon="-4.503794140577004"><ele>196.5</ele><time>2026-03-28T11:14:37.999Z</time></trkpt><trkpt lat="36.81226271559622" lon="-4.50387602239066"><ele>204.0</ele><time>2026-03-28T11:14:39Z</time></trkpt><trkpt lat="36.81216587155122" lon="-4.503962226103083"><ele>211.5</ele><time>2026-03-28T11:14:40Z</time></trkpt><trkpt lat="36.812072532991316" lon="-4.504053617441692"><ele>219.0</ele><time>2026-03-28T11:14:41Z</time></trkpt><trkpt lat="36.81196779883939" lon="-4.504131725188926"><ele>219.0</ele><time>2026-03-28T11:14:42Z</time></trkpt><trkpt lat="36.81184364074472" lon="-4.50414835153124"><ele>219.0</ele><time>2026-03-28T11:14:43Z</time></trkpt><trkpt lat="36.81172555995326" lon="-4.50410909246814"><ele>219.0</ele><time>2026-03-28T11:14:44Z</time></trkpt><trkpt lat="36.81161231798394" lon="-4.504073613554154"><ele>219.0</ele><time>2026-03-28T11:14:45Z</time></trkpt><trkpt lat="36.81149316384103" lon="-4.504063304632502"><ele>217.25</ele><time>2026-03-28T11:14:46Z</time></trkpt><trkpt lat="36.81136768439705" lon="-4.504045877397643"><ele>215.5</ele><time>2026-03-28T11:14:47Z</time></trkpt><trkpt lat="36.81124148692452" lon="-4.50405583455445"><ele>213.75</ele><time>2026-03-28T11:14:48Z</time></trkpt><trkpt lat="36.811113319760864" lon="-4.504011660167442"><ele>212.0</ele><time>2026-03-28T11:14:49Z</time></trkpt><trkpt lat="36.81099286153282" lon="-4.5039585659810735"><ele>213.25</ele><time>2026-03-28T11:14:50Z</time></trkpt><trkpt lat="36.810869845660754" lon="-4.503901193525004"><ele>214.5</ele><time>2026-03-28T11:14:51Z</time></trkpt><trkpt lat="36.81074936632478" lon="-4.503831086008522"><ele>215.75</ele><time>2026-03-28T11:14:52Z</time></trkpt><trkpt lat="36.81064134853647" lon="-4.503740278637461"><ele>217.0</ele><time>2026-03-28T11:14:53Z</time></trkpt><trkpt lat="36.81054551214963" lon="-4.503649213777759"><ele>213.16666666666666</ele><time>2026-03-28T11:14:54Z</time></trkpt><trkpt lat="36.81046350652774" lon="-4.503570468895261"><ele>209.33333333333331</ele><time>2026-03-28T11:14:55Z</time></trkpt><trkpt lat="36.81039603824562" lon="-4.503481558976738"><ele>205.5</ele><time>2026-03-28T11:14:56Z</time></trkpt><trkpt lat="36.81031427798093" lon="-4.503437063183762"><ele>201.66666666666669</ele><time>2026-03-28T11:14:57Z</time></trkpt><trkpt lat="36.810232533252325" lon="-4.5034249157577655"><ele>197.83333333333334</ele><time>2026-03-28T11:14:58Z</time></trkpt><trkpt lat="36.810173711762225" lon="-4.503462655814268"><ele>194.0</ele><time>2026-03-28T11:14:59Z</time></trkpt><trkpt lat="36.81013429781757" lon="-4.503530787726364"><ele>194.00000000000003</ele><time>2026-03-28T11:15:00Z</time></trkpt><trkpt lat="36.81013815761167" lon="-4.503631383415696"><ele>194.0</ele><time>2026-03-28T11:15:01Z</time></trkpt><trkpt lat="36.81011514820395" lon="-4.503737221343218"><ele>194.0</ele><time>2026-03-28T11:15:02Z</time></trkpt><trkpt lat="36.810086079753745" lon="-4.503844548965911"><ele>194.0</ele><time>2026-03-28T11:15:03Z</time></trkpt><trkpt lat="36.81003605237458" lon="-4.50394203081035"><ele>194.00000000000003</ele><time>2026-03-28T11:15:04Z</time></trkpt><trkpt lat="36.80995393505564" lon="-4.50397607981548"><ele>194.0</ele><time>2026-03-28T11:15:05Z</time></trkpt><trkpt lat="36.80988264773438" lon="-4.504004593319964"><ele>194.0</ele><time>2026-03-28T11:15:06Z</time></trkpt><trkpt lat="36.80980235786002" lon="-4.503969121902345"><ele>194.0</ele><time>2026-03-28T11:15:07Z</time></trkpt><trkpt lat="36.809742387317726" lon="-4.503871133223876"><ele>194.0</ele><time>2026-03-28T11:15:08Z</time></trkpt><trkpt lat="36.80971241191506" lon="-4.503739126272924"><ele>194.0</ele><time>2026-03-28T11:15:09Z</time></trkpt><trkpt lat="36.80965579807069" lon="-4.503614694349023"><ele>194.0</ele><time>2026-03-28T11:15:10Z</time></trkpt><trkpt lat="36.809593179409866" lon="-4.503486584582748"><ele>194.0</ele><time>2026-03-28T11:15:11Z</time></trkpt><trkpt lat="36.80953297596541" lon="-4.50335890410558"><ele>194.0</ele><time>2026-03-28T11:15:12Z</time></trkpt><trkpt lat="36.80947448520907" lon="-4.503227382614926"><ele>194.0</ele><time>2026-03-28T11:15:13Z</time></trkpt><trkpt lat="36.809442154883946" lon="-4.5030676350540135"><ele>194.0</ele><time>2026-03-28T11:15:14Z</time></trkpt><trkpt lat="36.80941398398012" lon="-4.502903634966849"><ele>195.0</ele><time>2026-03-28T11:15:15Z</time></trkpt><trkpt lat="36.8093851350491" lon="-4.502757020808867"><ele>196.0</ele><time>2026-03-28T11:15:16Z</time></trkpt><trkpt lat="36.80935835940859" lon="-4.502624240300345"><ele>197.0</ele><time>2026-03-28T11:15:17Z</time></trkpt><trkpt lat="36.80932633421679" lon="-4.502506923120665"><ele>198.0</ele><time>2026-03-28T11:15:18Z</time></trkpt><trkpt lat="36.80927337294504" lon="-4.5024102874126"><ele>199.0</ele><time>2026-03-28T11:15:19Z</time></trkpt><trkpt lat="36.80920571727187" lon="-4.502344463357328"><ele>199.0</ele><time>2026-03-28T11:15:20Z</time></trkpt><trkpt lat="36.80911907110272" lon="-4.502306038114135"><ele>199.0</ele><time>2026-03-28T11:15:21Z</time></trkpt><trkpt lat="36.80901793683732" lon="-4.502316515031173"><ele>199.0</ele><time>2026-03-28T11:15:22Z</time></trkpt><trkpt lat="36.80891031548293" lon="-4.5023610184207685"><ele>199.0</ele><time>2026-03-28T11:15:23Z</time></trkpt><trkpt lat="36.80879972599772" lon="-4.502404866959385"><ele>199.0</ele><time>2026-03-28T11:15:24Z</time></trkpt><trkpt lat="36.80868590576989" lon="-4.502450253904705"><ele>199.0</ele><time>2026-03-28T11:15:25Z</time></trkpt><trkpt lat="36.80857505438567" lon="-4.502487570760487"><ele>199.0</ele><time>2026-03-28T11:15:26Z</time></trkpt><trkpt lat="36.80846002442658" lon="-4.5024942512580575"><ele>199.0</ele><time>2026-03-28T11:15:27Z</time></trkpt><trkpt lat="36.808339450668065" lon="-4.5024977579000955"><ele>199.0</ele><time>2026-03-28T11:15:28Z</time></trkpt><trkpt lat="36.80822665843857" lon="-4.5024108693277585"><ele>198.75</ele><time>2026-03-28T11:15:29Z</time></trkpt><trkpt lat="36.80811695726982" lon="-4.502332270868557"><ele>198.5</ele><time>2026-03-28T11:15:30Z</time></trkpt><trkpt lat="36.80800885147152" lon="-4.502251777195171"><ele>198.25</ele><time>2026-03-28T11:15:31Z</time></trkpt><trkpt lat="36.80790124932098" lon="-4.502175836961056"><ele>198.0</ele><time>2026-03-28T11:15:32Z</time></trkpt><trkpt lat="36.80779105640779" lon="-4.502098364955209"><ele>196.25</ele><time>2026-03-28T11:15:33Z</time></trkpt><trkpt lat="36.80767639701033" lon="-4.5020207753652315"><ele>194.5</ele><time>2026-03-28T11:15:34Z</time></trkpt><trkpt lat="36.807562065716716" lon="-4.501945679652377"><ele>192.75</ele><time>2026-03-28T11:15:35Z</time></trkpt><trkpt lat="36.80744706822181" lon="-4.50187218809547"><ele>191.0</ele><time>2026-03-28T11:15:36Z</time></trkpt><trkpt lat="36.80733168606731" lon="-4.501800076778588"><ele>190.5</ele><time>2026-03-28T11:15:37Z</time></trkpt><trkpt lat="36.80721453455364" lon="-4.501732311012014"><ele>190.0</ele><time>2026-03-28T11:15:38Z</time></trkpt><trkpt lat="36.807094655116416" lon="-4.501669491640602"><ele>189.5</ele><time>2026-03-28T11:15:39Z</time></trkpt><trkpt lat="36.80697881742227" lon="-4.501614075464094"><ele>189.0</ele><time>2026-03-28T11:15:40Z</time></trkpt><trkpt lat="36.806862152702834" lon="-4.501577903737904"><ele>189.0</ele><time>2026-03-28T11:15:41Z</time></trkpt><trkpt lat="36.80675034367498" lon="-4.501556118098075"><ele>189.0</ele><time>2026-03-28T11:15:42Z</time></trkpt><trkpt lat="36.80664441199215" lon="-4.5015229085126"><ele>189.0</ele><time>2026-03-28T11:15:43Z</time></trkpt><trkpt lat="36.806549239240276" lon="-4.50145657952652"><ele>189.0</ele><time>2026-03-28T11:15:44Z</time></trkpt><trkpt lat="36.80645260543653" lon="-4.501369884488385"><ele>187.25</ele><time>2026-03-28T11:15:45Z</time></trkpt><trkpt lat="36.806386259060794" lon="-4.501236206461554"><ele>185.5</ele><time>2026-03-28T11:15:46Z</time></trkpt><trkpt lat="36.80636405551989" lon="-4.501073535771502"><ele>183.75</ele><time>2026-03-28T11:15:47Z</time></trkpt><trkpt lat="36.80633196436568" lon="-4.500929524302623"><ele>182.0</ele><time>2026-03-28T11:15:48Z</time></trkpt><trkpt lat="36.80628773942359" lon="-4.500795899966956"><ele>182.0</ele><time>2026-03-28T11:15:49Z</time></trkpt><trkpt lat="36.806237331334074" lon="-4.500665239130092"><ele>182.0</ele><time>2026-03-28T11:15:50Z</time></trkpt><trkpt lat="36.806184939929175" lon="-4.500539373811521"><ele>182.0</ele><time>2026-03-28T11:15:51Z</time></trkpt><trkpt lat="36.80611787447779" lon="-4.500415780537119"><ele>182.0</ele><time>2026-03-28T11:15:52Z</time></trkpt><trkpt lat="36.80608640538039" lon="-4.500272580282052"><ele>181.75</ele><time>2026-03-28T11:15:53Z</time></trkpt><trkpt lat="36.80604010003767" lon="-4.50013596204018"><ele>181.5</ele><time>2026-03-28T11:15:54Z</time></trkpt><trkpt lat="36.80599477970705" lon="-4.499999490074476"><ele>181.25</ele><time>2026-03-28T11:15:55Z</time></trkpt><trkpt lat="36.805951005246676" lon="-4.499869442522931"><ele>181.0</ele><time>2026-03-28T11:15:56Z</time></trkpt><trkpt lat="36.805901039846866" lon="-4.499742892945799"><ele>181.0</ele><time>2026-03-28T11:15:57Z</time></trkpt><trkpt lat="36.80583782905298" lon="-4.499624579790472"><ele>181.0</ele><time>2026-03-28T11:15:58Z</time></trkpt><trkpt lat="36.80576108606518" lon="-4.499517319675807"><ele>181.0</ele><time>2026-03-28T11:15:59Z</time></trkpt><trkpt lat="36.805672368780286" lon="-4.499421316722667"><ele>181.0</ele><time>2026-03-28T11:16:00Z</time></trkpt><trkpt lat="36.8055755612817" lon="-4.499325663453726"><ele>178.5</ele><time>2026-03-28T11:16:01Z</time></trkpt><trkpt lat="36.80547348347575" lon="-4.4992377549052645"><ele>176.0</ele><time>2026-03-28T11:16:02Z</time></trkpt><trkpt lat="36.805369802390274" lon="-4.4991610727779205"><ele>173.5</ele><time>2026-03-28T11:16:02.999Z</time></trkpt><trkpt lat="36.80526311618869" lon="-4.499098570171848"><ele>171.0</ele><time>2026-03-28T11:16:03.999Z</time></trkpt><trkpt lat="36.80515324290793" lon="-4.499053599173836"><ele>171.0</ele><time>2026-03-28T11:16:04.999Z</time></trkpt><trkpt lat="36.80504126247289" lon="-4.499024752585065"><ele>171.0</ele><time>2026-03-28T11:16:05.999Z</time></trkpt><trkpt lat="36.804921702977744" lon="-4.499021243870961"><ele>171.0</ele><time>2026-03-28T11:16:06.999Z</time></trkpt><trkpt lat="36.80479669572562" lon="-4.499043682791372"><ele>171.0</ele><time>2026-03-28T11:16:07.999Z</time></trkpt><trkpt lat="36.80466776164234" lon="-4.499013656852049"><ele>171.0</ele><time>2026-03-28T11:16:08.999Z</time></trkpt><trkpt lat="36.80454322133209" lon="-4.499023698702777"><ele>171.0</ele><time>2026-03-28T11:16:09.999Z</time></trkpt><trkpt lat="36.80442903285041" lon="-4.499064342264842"><ele>171.0</ele><time>2026-03-28T11:16:10.999Z</time></trkpt><trkpt lat="36.804323146756914" lon="-4.499140011350238"><ele>171.0</ele><time>2026-03-28T11:16:11.999Z</time></trkpt><trkpt lat="36.80421426027475" lon="-4.49921679956181"><ele>168.25</ele><time>2026-03-28T11:16:12.999Z</time></trkpt><trkpt lat="36.804085351686005" lon="-4.4992782295556575"><ele>165.5</ele><time>2026-03-28T11:16:13.999Z</time></trkpt><trkpt lat="36.80394349091239" lon="-4.499272254870854"><ele>162.75</ele><time>2026-03-28T11:16:14.999Z</time></trkpt><trkpt lat="36.80380483715168" lon="-4.499270489390413"><ele>160.0</ele><time>2026-03-28T11:16:15.999Z</time></trkpt><trkpt lat="36.803673335834276" lon="-4.499259558350972"><ele>160.0</ele><time>2026-03-28T11:16:16.999Z</time></trkpt><trkpt lat="36.80354937407296" lon="-4.499248346707265"><ele>160.0</ele><time>2026-03-28T11:16:17.999Z</time></trkpt><trkpt lat="36.80342733810753" lon="-4.499235880758054"><ele>160.0</ele><time>2026-03-28T11:16:18.999Z</time></trkpt><trkpt lat="36.803312634902525" lon="-4.499208298763245"><ele>160.0</ele><time>2026-03-28T11:16:19.999Z</time></trkpt><trkpt lat="36.8032046302371" lon="-4.499153414794899"><ele>157.8</ele><time>2026-03-28T11:16:20.999Z</time></trkpt><trkpt lat="36.803101740485694" lon="-4.499072968288694"><ele>155.6</ele><time>2026-03-28T11:16:21.999Z</time></trkpt><trkpt lat="36.80301200411894" lon="-4.49897805835481"><ele>153.4</ele><time>2026-03-28T11:16:22.999Z</time></trkpt><trkpt lat="36.802930609322146" lon="-4.4988989758182605"><ele>151.2</ele><time>2026-03-28T11:16:23.999Z</time></trkpt><trkpt lat="36.80285459935471" lon="-4.49883304609349"><ele>149.0</ele><time>2026-03-28T11:16:24.999Z</time></trkpt><trkpt lat="36.80277508994096" lon="-4.498798531435218"><ele>149.0</ele><time>2026-03-28T11:16:25.999Z</time></trkpt><trkpt lat="36.8026964144167" lon="-4.4988126010335785"><ele>149.0</ele><time>2026-03-28T11:16:26.999Z</time></trkpt><trkpt lat="36.802633177300784" lon="-4.498876456142275"><ele>149.0</ele><time>2026-03-28T11:16:27.999Z</time></trkpt><trkpt lat="36.80260304996693" lon="-4.4989710220219035"><ele>149.0</ele><time>2026-03-28T11:16:28.999Z</time></trkpt><trkpt lat="36.80262685006769" lon="-4.499090246443331"><ele>149.0</ele><time>2026-03-28T11:16:29.999Z</time></trkpt><trkpt lat="36.80267654521459" lon="-4.499163355432528"><ele>149.0</ele><time>2026-03-28T11:16:30.999Z</time></trkpt><trkpt lat="36.80275309930275" lon="-4.49923956367902"><ele>149.0</ele><time>2026-03-28T11:16:31.999Z</time></trkpt><trkpt lat="36.80282686703734" lon="-4.499313604085571"><ele>149.0</ele><time>2026-03-28T11:16:32.999Z</time></trkpt><trkpt lat="36.802897766195045" lon="-4.499384421954407"><ele>149.0</ele><time>2026-03-28T11:16:33.999Z</time></trkpt><trkpt lat="36.80294360473174" lon="-4.499467729268474"><ele>149.0</ele><time>2026-03-28T11:16:34.999Z</time></trkpt><trkpt lat="36.80294847569341" lon="-4.499565248308461"><ele>149.0</ele><time>2026-03-28T11:16:35.999Z</time></trkpt><trkpt lat="36.80291208716202" lon="-4.499641080028403"><ele>149.0</ele><time>2026-03-28T11:16:36.999Z</time></trkpt><trkpt lat="36.802833713862526" lon="-4.499684211874442"><ele>148.4</ele><time>2026-03-28T11:16:37.999Z</time></trkpt><trkpt lat="36.80273509498223" lon="-4.499694465351555"><ele>147.8</ele><time>2026-03-28T11:16:38.999Z</time></trkpt><trkpt lat="36.80262587072721" lon="-4.499694694422392"><ele>147.2</ele><time>2026-03-28T11:16:39.999Z</time></trkpt><trkpt lat="36.80251208779353" lon="-4.499686929284067"><ele>146.6</ele><time>2026-03-28T11:16:40.999Z</time></trkpt><trkpt lat="36.802391295952816" lon="-4.499686955370814"><ele>146.0</ele><time>2026-03-28T11:16:41.999Z</time></trkpt><trkpt lat="36.80226949406891" lon="-4.49969221927879"><ele>146.0</ele><time>2026-03-28T11:16:42.999Z</time></trkpt><trkpt lat="36.802158579883454" lon="-4.499700602382057"><ele>146.0</ele><time>2026-03-28T11:16:43.999Z</time></trkpt><trkpt lat="36.80205559364889" lon="-4.4997207724736"><ele>146.0</ele><time>2026-03-28T11:16:45Z</time></trkpt><trkpt lat="36.80196564832365" lon="-4.499771856916912"><ele>146.0</ele><time>2026-03-28T11:16:46Z</time></trkpt><trkpt lat="36.8018951138584" lon="-4.499857811418234"><ele>146.0</ele><time>2026-03-28T11:16:47Z</time></trkpt><trkpt lat="36.801847626996775" lon="-4.499983208690391"><ele>144.8</ele><time>2026-03-28T11:16:48Z</time></trkpt><trkpt lat="36.80182248767155" lon="-4.500123049982281"><ele>143.6</ele><time>2026-03-28T11:16:49Z</time></trkpt><trkpt lat="36.80180199827947" lon="-4.500265093166332"><ele>142.4</ele><time>2026-03-28T11:16:50Z</time></trkpt><trkpt lat="36.8017760654727" lon="-4.50039113080634"><ele>141.2</ele><time>2026-03-28T11:16:51Z</time></trkpt><trkpt lat="36.801743610020075" lon="-4.500504557068511"><ele>140.0</ele><time>2026-03-28T11:16:52Z</time></trkpt><trkpt lat="36.80170605773786" lon="-4.50061138422434"><ele>140.0</ele><time>2026-03-28T11:16:53Z</time></trkpt><trkpt lat="36.80164835807478" lon="-4.500693359357547"><ele>140.0</ele><time>2026-03-28T11:16:54Z</time></trkpt><trkpt lat="36.80157134914927" lon="-4.500736917604974"><ele>140.0</ele><time>2026-03-28T11:16:55Z</time></trkpt><trkpt lat="36.80148597255679" lon="-4.500742171025296"><ele>140.0</ele><time>2026-03-28T11:16:56Z</time></trkpt><trkpt lat="36.80140176298269" lon="-4.500692611322687"><ele>140.0</ele><time>2026-03-28T11:16:57Z</time></trkpt><trkpt lat="36.801332562148346" lon="-4.50060190736238"><ele>140.0</ele><time>2026-03-28T11:16:58Z</time></trkpt><trkpt lat="36.801279728905" lon="-4.500480258971935"><ele>140.0</ele><time>2026-03-28T11:16:59Z</time></trkpt><trkpt lat="36.80123704951742" lon="-4.500348926494313"><ele>140.0</ele><time>2026-03-28T11:17:00Z</time></trkpt><trkpt lat="36.801197489288754" lon="-4.500219695196976"><ele>140.0</ele><time>2026-03-28T11:17:01Z</time></trkpt><trkpt lat="36.80115017055384" lon="-4.500093902896642"><ele>140.0</ele><time>2026-03-28T11:17:02Z</time></trkpt><trkpt lat="36.80108206004674" lon="-4.4999778499654015"><ele>137.2</ele><time>2026-03-28T11:17:03Z</time></trkpt><trkpt lat="36.80100478816703" lon="-4.499878579020844"><ele>134.4</ele><time>2026-03-28T11:17:04Z</time></trkpt><trkpt lat="36.80093700430631" lon="-4.499792072120251"><ele>131.6</ele><time>2026-03-28T11:17:05Z</time></trkpt><trkpt lat="36.80087419296659" lon="-4.49972114637657"><ele>128.8</ele><time>2026-03-28T11:17:06Z</time></trkpt><trkpt lat="36.8008007333669" lon="-4.499674483523371"><ele>126.0</ele><time>2026-03-28T11:17:07Z</time></trkpt><trkpt lat="36.80071817291631" lon="-4.49966989835911"><ele>125.6</ele><time>2026-03-28T11:17:08Z</time></trkpt><trkpt lat="36.800641448784575" lon="-4.49970745864251"><ele>125.19999999999999</ele><time>2026-03-28T11:17:09Z</time></trkpt><trkpt lat="36.800567997168024" lon="-4.4997726130655025"><ele>124.80000000000001</ele><time>2026-03-28T11:17:10Z</time></trkpt><trkpt lat="36.800484545406455" lon="-4.499860790149446"><ele>124.4</ele><time>2026-03-28T11:17:11Z</time></trkpt><trkpt lat="36.80039731008137" lon="-4.499952123056112"><ele>124.0</ele><time>2026-03-28T11:17:12Z</time></trkpt><trkpt lat="36.8003078157032" lon="-4.500050375884113"><ele>124.0</ele><time>2026-03-28T11:17:13Z</time></trkpt><trkpt lat="36.80022396057663" lon="-4.5001587469107305"><ele>124.0</ele><time>2026-03-28T11:17:14Z</time></trkpt><trkpt lat="36.80014519355749" lon="-4.500284225683683"><ele>124.0</ele><time>2026-03-28T11:17:15Z</time></trkpt><trkpt lat="36.80006504884294" lon="-4.500422472773853"><ele>124.0</ele><time>2026-03-28T11:17:16Z</time></trkpt><trkpt lat="36.79998622057041" lon="-4.500557955338627"><ele>122.5</ele><time>2026-03-28T11:17:17Z</time></trkpt><trkpt lat="36.79991080029294" lon="-4.5006871634339385"><ele>121.0</ele><time>2026-03-28T11:17:18Z</time></trkpt><trkpt lat="36.79983796456808" lon="-4.500814029820009"><ele>119.5</ele><time>2026-03-28T11:17:19Z</time></trkpt><trkpt lat="36.799767455314786" lon="-4.50092963056402"><ele>118.0</ele><time>2026-03-28T11:17:20Z</time></trkpt><trkpt lat="36.799697657166234" lon="-4.50103043922116"><ele>118.00000000000001</ele><time>2026-03-28T11:17:21Z</time></trkpt><trkpt lat="36.79962199127274" lon="-4.501104245969541"><ele>118.0</ele><time>2026-03-28T11:17:22Z</time></trkpt><trkpt lat="36.7995491661224" lon="-4.501153667165644"><ele>118.0</ele><time>2026-03-28T11:17:23Z</time></trkpt><trkpt lat="36.799476695384186" lon="-4.501152872190734"><ele>118.0</ele><time>2026-03-28T11:17:24Z</time></trkpt><trkpt lat="36.799411589790296" lon="-4.501112539826044"><ele>118.00000000000001</ele><time>2026-03-28T11:17:25Z</time></trkpt><trkpt lat="36.79937942235337" lon="-4.501024696557781"><ele>118.0</ele><time>2026-03-28T11:17:26Z</time></trkpt><trkpt lat="36.79939067893736" lon="-4.5009372185263326"><ele>118.0</ele><time>2026-03-28T11:17:27Z</time></trkpt><trkpt lat="36.79942778643351" lon="-4.500854369193407"><ele>118.00000000000001</ele><time>2026-03-28T11:17:28Z</time></trkpt><trkpt lat="36.79948275553438" lon="-4.500768666776682"><ele>118.00000000000001</ele><time>2026-03-28T11:17:29Z</time></trkpt><trkpt lat="36.79953591071304" lon="-4.500667778092252"><ele>118.0</ele><time>2026-03-28T11:17:30Z</time></trkpt><trkpt lat="36.79960366297609" lon="-4.50056662103818"><ele>118.0</ele><time>2026-03-28T11:17:31Z</time></trkpt><trkpt lat="36.79967221700648" lon="-4.500468399581135"><ele>115.2</ele><time>2026-03-28T11:17:32Z</time></trkpt><trkpt lat="36.799741060568145" lon="-4.500373711053941"><ele>112.4</ele><time>2026-03-28T11:17:33Z</time></trkpt><trkpt lat="36.79980689767357" lon="-4.500284786098963"><ele>109.60000000000001</ele><time>2026-03-28T11:17:34Z</time></trkpt><trkpt lat="36.799882785029595" lon="-4.500210441174357"><ele>106.80000000000001</ele><time>2026-03-28T11:17:35Z</time></trkpt><trkpt lat="36.79994426512445" lon="-4.500113157989673"><ele>104.0</ele><time>2026-03-28T11:17:36Z</time></trkpt><trkpt lat="36.800007563990555" lon="-4.500019586756948"><ele>104.0</ele><time>2026-03-28T11:17:37Z</time></trkpt><trkpt lat="36.80006406531029" lon="-4.499925690994347"><ele>104.0</ele><time>2026-03-28T11:17:38Z</time></trkpt><trkpt lat="36.80011565282444" lon="-4.499828289694701"><ele>104.0</ele><time>2026-03-28T11:17:39Z</time></trkpt><trkpt lat="36.80016622471313" lon="-4.4997315120983865"><ele>104.0</ele><time>2026-03-28T11:17:40Z</time></trkpt><trkpt lat="36.80021560305913" lon="-4.499636560505898"><ele>104.0</ele><time>2026-03-28T11:17:41Z</time></trkpt><trkpt lat="36.800262544734316" lon="-4.499549091094202"><ele>103.83333333333333</ele><time>2026-03-28T11:17:42Z</time></trkpt><trkpt lat="36.80031165399065" lon="-4.499457903945872"><ele>103.66666666666666</ele><time>2026-03-28T11:17:43Z</time></trkpt><trkpt lat="36.800356644836945" lon="-4.499362763697029"><ele>103.5</ele><time>2026-03-28T11:17:44Z</time></trkpt><trkpt lat="36.80040411677117" lon="-4.4992786579430515"><ele>103.33333333333334</ele><time>2026-03-28T11:17:45Z</time></trkpt><trkpt lat="36.80044416484027" lon="-4.49920305518426"><ele>103.16666666666667</ele><time>2026-03-28T11:17:46Z</time></trkpt><trkpt lat="36.8004755709448" lon="-4.499125064862667"><ele>103.0</ele><time>2026-03-28T11:17:47Z</time></trkpt><trkpt lat="36.800481176813065" lon="-4.499038860861256"><ele>103.00000000000001</ele><time>2026-03-28T11:17:48Z</time></trkpt><trkpt lat="36.80046461600347" lon="-4.498944914143534"><ele>103.0</ele><time>2026-03-28T11:17:49Z</time></trkpt><trkpt lat="36.80043664865576" lon="-4.498852805922267"><ele>103.0</ele><time>2026-03-28T11:17:50Z</time></trkpt><trkpt lat="36.80041028672762" lon="-4.498757975876851"><ele>103.0</ele><time>2026-03-28T11:17:51Z</time></trkpt><trkpt lat="36.80038617213245" lon="-4.498672152027113"><ele>103.00000000000001</ele><time>2026-03-28T11:17:52Z</time></trkpt><trkpt lat="36.80036305771878" lon="-4.498596543710024"><ele>103.0</ele><time>2026-03-28T11:17:53Z</time></trkpt><trkpt lat="36.80032354957272" lon="-4.498454649477729"><ele>101.80000000000001</ele><time>2026-03-28T11:17:55Z</time></trkpt><trkpt lat="36.80024153720062" lon="-4.498371487616228"><ele>100.6</ele><time>2026-03-28T11:17:57Z</time></trkpt><trkpt lat="36.80016764421149" lon="-4.498374593326655"><ele>99.4</ele><time>2026-03-28T11:17:58Z</time></trkpt><trkpt lat="36.80009552046504" lon="-4.498447302104412"><ele>98.19999999999999</ele><time>2026-03-28T11:17:59Z</time></trkpt><trkpt lat="36.80001368795641" lon="-4.498518157758714"><ele>97.0</ele><time>2026-03-28T11:18:00Z</time></trkpt><trkpt lat="36.7999216181643" lon="-4.498603913620341"><ele>96.25</ele><time>2026-03-28T11:18:01Z</time></trkpt><trkpt lat="36.79982258207095" lon="-4.498670535759936"><ele>95.5</ele><time>2026-03-28T11:18:02Z</time></trkpt><trkpt lat="36.79972842076789" lon="-4.498769741385733"><ele>94.75</ele><time>2026-03-28T11:18:03Z</time></trkpt><trkpt lat="36.799651869750186" lon="-4.498895770898681"><ele>94.0</ele><time>2026-03-28T11:18:04Z</time></trkpt><trkpt lat="36.79958712985701" lon="-4.4990349701553365"><ele>94.0</ele><time>2026-03-28T11:18:04.999Z</time></trkpt><trkpt lat="36.79951852093432" lon="-4.49916979435051"><ele>94.0</ele><time>2026-03-28T11:18:05.999Z</time></trkpt><trkpt lat="36.799435742783864" lon="-4.49929583712203"><ele>94.0</ele><time>2026-03-28T11:18:06.999Z</time></trkpt><trkpt lat="36.79933369221754" lon="-4.49940706796824"><ele>94.0</ele><time>2026-03-28T11:18:07.999Z</time></trkpt><trkpt lat="36.79921466346684" lon="-4.499508256493615"><ele>92.5</ele><time>2026-03-28T11:18:08.999Z</time></trkpt><trkpt lat="36.79908851106976" lon="-4.499599125982738"><ele>91.0</ele><time>2026-03-28T11:18:09.999Z</time></trkpt><trkpt lat="36.798959241680734" lon="-4.499686257105375"><ele>89.5</ele><time>2026-03-28T11:18:10.999Z</time></trkpt><trkpt lat="36.798830016598465" lon="-4.499775888619709"><ele>88.0</ele><time>2026-03-28T11:18:11.999Z</time></trkpt><trkpt lat="36.798699156867585" lon="-4.4998629780951855"><ele>88.0</ele><time>2026-03-28T11:18:12.999Z</time></trkpt><trkpt lat="36.79856991583649" lon="-4.499946761628953"><ele>88.0</ele><time>2026-03-28T11:18:13.999Z</time></trkpt><trkpt lat="36.798444538553035" lon="-4.500031719016237"><ele>88.0</ele><time>2026-03-28T11:18:14.999Z</time></trkpt><trkpt lat="36.798319793146845" lon="-4.500114153520247"><ele>88.0</ele><time>2026-03-28T11:18:15.999Z</time></trkpt><trkpt lat="36.79819422478001" lon="-4.500193724427958"><ele>87.25</ele><time>2026-03-28T11:18:16.999Z</time></trkpt><trkpt lat="36.79806959527436" lon="-4.50027028212244"><ele>86.5</ele><time>2026-03-28T11:18:17.999Z</time></trkpt><trkpt lat="36.79794482248745" lon="-4.500347631330266"><ele>85.75</ele><time>2026-03-28T11:18:18.999Z</time></trkpt><trkpt lat="36.79781993502817" lon="-4.500426935512598"><ele>85.0</ele><time>2026-03-28T11:18:19.999Z</time></trkpt><trkpt lat="36.79769695297091" lon="-4.500505153521253"><ele>86.25</ele><time>2026-03-28T11:18:20.999Z</time></trkpt><trkpt lat="36.797571535158276" lon="-4.500585585547926"><ele>87.5</ele><time>2026-03-28T11:18:21.999Z</time></trkpt><trkpt lat="36.79744789351308" lon="-4.500659804487917"><ele>88.75</ele><time>2026-03-28T11:18:22.999Z</time></trkpt><trkpt lat="36.797322998563935" lon="-4.500734334442169"><ele>90.0</ele><time>2026-03-28T11:18:23.999Z</time></trkpt><trkpt lat="36.79719859995251" lon="-4.500810951782781"><ele>90.0</ele><time>2026-03-28T11:18:24.999Z</time></trkpt><trkpt lat="36.79707663898465" lon="-4.50089128845745"><ele>90.0</ele><time>2026-03-28T11:18:25.999Z</time></trkpt><trkpt lat="36.79696195391072" lon="-4.500974568912733"><ele>90.0</ele><time>2026-03-28T11:18:26.999Z</time></trkpt><trkpt lat="36.796855540878546" lon="-4.501055252202424"><ele>90.0</ele><time>2026-03-28T11:18:27.999Z</time></trkpt><trkpt lat="36.79673860822451" lon="-4.5011153929404095"><ele>93.75</ele><time>2026-03-28T11:18:28.999Z</time></trkpt><trkpt lat="36.796613801973145" lon="-4.501144889189001"><ele>97.5</ele><time>2026-03-28T11:18:29.999Z</time></trkpt><trkpt lat="36.79648508968164" lon="-4.501157394089914"><ele>101.25</ele><time>2026-03-28T11:18:30.999Z</time></trkpt><trkpt lat="36.79635487107944" lon="-4.501163990194134"><ele>105.0</ele><time>2026-03-28T11:18:31.999Z</time></trkpt><trkpt lat="36.796227047483285" lon="-4.501163397788957"><ele>105.0</ele><time>2026-03-28T11:18:32.999Z</time></trkpt><trkpt lat="36.7961081885596" lon="-4.501148415895299"><ele>105.0</ele><time>2026-03-28T11:18:33.999Z</time></trkpt><trkpt lat="36.79600234269379" lon="-4.501123982304679"><ele>105.0</ele><time>2026-03-28T11:18:34.999Z</time></trkpt><trkpt lat="36.7959023847656" lon="-4.501098952516854"><ele>105.0</ele><time>2026-03-28T11:18:35.999Z</time></trkpt><trkpt lat="36.79580652602155" lon="-4.501075037478225"><ele>105.0</ele><time>2026-03-28T11:18:36.999Z</time></trkpt><trkpt lat="36.79571950997154" lon="-4.5010521880374235"><ele>105.8</ele><time>2026-03-28T11:18:37.999Z</time></trkpt><trkpt lat="36.795640813089626" lon="-4.501030755366641"><ele>106.6</ele><time>2026-03-28T11:18:38.999Z</time></trkpt><trkpt lat="36.795569758608174" lon="-4.501009251113135"><ele>107.4</ele><time>2026-03-28T11:18:39.999Z</time></trkpt><trkpt lat="36.79546261308956" lon="-4.500977069407009"><ele>108.2</ele><time>2026-03-28T11:18:41.999Z</time></trkpt><trkpt lat="36.79539258457156" lon="-4.500944868401559"><ele>109.0</ele><time>2026-03-28T11:18:43.999Z</time></trkpt><trkpt lat="36.79545780855438" lon="-4.500806048557948"><ele>109.00000000000001</ele><time>2026-03-28T11:18:47.999Z</time></trkpt><trkpt lat="36.79558666059965" lon="-4.500754681700836"><ele>109.0</ele><time>2026-03-28T11:18:49.999Z</time></trkpt><trkpt lat="36.79565125719533" lon="-4.500723192043407"><ele>109.0</ele><time>2026-03-28T11:18:51Z</time></trkpt><trkpt lat="36.795725425432046" lon="-4.500685489342386"><ele>109.0</ele><time>2026-03-28T11:18:52Z</time></trkpt><trkpt lat="36.79580063564654" lon="-4.500645803596054"><ele>109.00000000000001</ele><time>2026-03-28T11:18:53Z</time></trkpt><trkpt lat="36.7958681447734" lon="-4.5005856510851325"><ele>109.0</ele><time>2026-03-28T11:18:54Z</time></trkpt><trkpt lat="36.79594340422806" lon="-4.500543465706617"><ele>109.50000000000001</ele><time>2026-03-28T11:18:55Z</time></trkpt><trkpt lat="36.796025589411016" lon="-4.500520865197243"><ele>110.0</ele><time>2026-03-28T11:18:56Z</time></trkpt><trkpt lat="36.79609774339309" lon="-4.500474240560325"><ele>110.5</ele><time>2026-03-28T11:18:57Z</time></trkpt><trkpt lat="36.79617138547292" lon="-4.500431705185081"><ele>111.0</ele><time>2026-03-28T11:18:58Z</time></trkpt><trkpt lat="36.79622613956888" lon="-4.500369830967123"><ele>111.50000000000001</ele><time>2026-03-28T11:18:59Z</time></trkpt><trkpt lat="36.79628766546261" lon="-4.500326068970849"><ele>112.0</ele><time>2026-03-28T11:19:00Z</time></trkpt><trkpt lat="36.7963199285392" lon="-4.5002454317874"><ele>112.00000000000001</ele><time>2026-03-28T11:19:01Z</time></trkpt><trkpt lat="36.79632442657421" lon="-4.500154880815858"><ele>112.0</ele><time>2026-03-28T11:19:02Z</time></trkpt><trkpt lat="36.796313145538186" lon="-4.500050535326343"><ele>112.0</ele><time>2026-03-28T11:19:03Z</time></trkpt><trkpt lat="36.79628980428662" lon="-4.499939628725802"><ele>112.0</ele><time>2026-03-28T11:19:04Z</time></trkpt><trkpt lat="36.79626544677997" lon="-4.499820317247376"><ele>112.00000000000001</ele><time>2026-03-28T11:19:05Z</time></trkpt><trkpt lat="36.79624778504615" lon="-4.49970625930276"><ele>112.0</ele><time>2026-03-28T11:19:06Z</time></trkpt><trkpt lat="36.79623660425609" lon="-4.499577006122855"><ele>112.19999999999999</ele><time>2026-03-28T11:19:07Z</time></trkpt><trkpt lat="36.79622933114863" lon="-4.499446572262302"><ele>112.39999999999999</ele><time>2026-03-28T11:19:08Z</time></trkpt><trkpt lat="36.7962231713821" lon="-4.499308511282904"><ele>112.60000000000001</ele><time>2026-03-28T11:19:09Z</time></trkpt><trkpt lat="36.79625875082235" lon="-4.499179817249349"><ele>112.80000000000001</ele><time>2026-03-28T11:19:10Z</time></trkpt><trkpt lat="36.79633484499888" lon="-4.4990828742434905"><ele>113.0</ele><time>2026-03-28T11:19:11Z</time></trkpt><trkpt lat="36.79639268517463" lon="-4.498995945978154"><ele>112.99999999999999</ele><time>2026-03-28T11:19:12Z</time></trkpt><trkpt lat="36.7964352778861" lon="-4.498898068625715"><ele>113.0</ele><time>2026-03-28T11:19:13Z</time></trkpt><trkpt lat="36.79645229179389" lon="-4.498794559815537"><ele>113.0</ele><time>2026-03-28T11:19:14Z</time></trkpt><trkpt lat="36.796427439313554" lon="-4.498691743592367"><ele>113.0</ele><time>2026-03-28T11:19:15Z</time></trkpt><trkpt lat="36.79637228433239" lon="-4.49861203044548"><ele>112.99999999999999</ele><time>2026-03-28T11:19:16Z</time></trkpt><trkpt lat="36.79628705009815" lon="-4.498568885567403"><ele>113.0</ele><time>2026-03-28T11:19:17Z</time></trkpt><trkpt lat="36.79618585499486" lon="-4.498565561263444"><ele>113.60000000000001</ele><time>2026-03-28T11:19:18Z</time></trkpt><trkpt lat="36.79609465467874" lon="-4.498539124402311"><ele>114.20000000000002</ele><time>2026-03-28T11:19:19Z</time></trkpt><trkpt lat="36.796023429656856" lon="-4.498473776461028"><ele>114.8</ele><time>2026-03-28T11:19:20Z</time></trkpt><trkpt lat="36.795970091501935" lon="-4.498377868739875"><ele>115.4</ele><time>2026-03-28T11:19:21Z</time></trkpt><trkpt lat="36.795940170870146" lon="-4.4982671160732774"><ele>116.0</ele><time>2026-03-28T11:19:22Z</time></trkpt><trkpt lat="36.79594385920017" lon="-4.498152485353132"><ele>115.99999999999999</ele><time>2026-03-28T11:19:23Z</time></trkpt><trkpt lat="36.795979425922965" lon="-4.498058539861689"><ele>116.0</ele><time>2026-03-28T11:19:24Z</time></trkpt><trkpt lat="36.796033386761515" lon="-4.497975545782591"><ele>116.0</ele><time>2026-03-28T11:19:25Z</time></trkpt><trkpt lat="36.79611401137782" lon="-4.497931405730927"><ele>116.0</ele><time>2026-03-28T11:19:26Z</time></trkpt><trkpt lat="36.7962043478491" lon="-4.49790843671007"><ele>115.99999999999999</ele><time>2026-03-28T11:19:27Z</time></trkpt><trkpt lat="36.79627206324302" lon="-4.497828206668936"><ele>116.0</ele><time>2026-03-28T11:19:28Z</time></trkpt><trkpt lat="36.796316680481105" lon="-4.497720088651768"><ele>117.6</ele><time>2026-03-28T11:19:29Z</time></trkpt><trkpt lat="36.79633286749903" lon="-4.49759977601827"><ele>119.19999999999999</ele><time>2026-03-28T11:19:30Z</time></trkpt><trkpt lat="36.79632432102978" lon="-4.497471370848912"><ele>120.80000000000001</ele><time>2026-03-28T11:19:31Z</time></trkpt><trkpt lat="36.796292206222034" lon="-4.497348269062472"><ele>122.4</ele><time>2026-03-28T11:19:32Z</time></trkpt><trkpt lat="36.79626356584982" lon="-4.497223987652522"><ele>124.0</ele><time>2026-03-28T11:19:33Z</time></trkpt><trkpt lat="36.79627041208365" lon="-4.497098618139656"><ele>124.80000000000001</ele><time>2026-03-28T11:19:34Z</time></trkpt><trkpt lat="36.796315251035224" lon="-4.497000058192896"><ele>125.60000000000001</ele><time>2026-03-28T11:19:35Z</time></trkpt><trkpt lat="36.79637417878696" lon="-4.4969018560535465"><ele>126.4</ele><time>2026-03-28T11:19:36Z</time></trkpt><trkpt lat="36.79644907935305" lon="-4.496818983716752"><ele>127.2</ele><time>2026-03-28T11:19:37Z</time></trkpt><trkpt lat="36.796511349543046" lon="-4.4967436163711225"><ele>128.0</ele><time>2026-03-28T11:19:38Z</time></trkpt><trkpt lat="36.79655505504964" lon="-4.496658422513331"><ele>128.0</ele><time>2026-03-28T11:19:39Z</time></trkpt><trkpt lat="36.796555720869584" lon="-4.496540597509012"><ele>128.0</ele><time>2026-03-28T11:19:40Z</time></trkpt><trkpt lat="36.7965265191244" lon="-4.496413650085693"><ele>128.0</ele><time>2026-03-28T11:19:41Z</time></trkpt><trkpt lat="36.79649738293634" lon="-4.496283162160435"><ele>128.0</ele><time>2026-03-28T11:19:42Z</time></trkpt><trkpt lat="36.796477553042166" lon="-4.496148755352569"><ele>128.0</ele><time>2026-03-28T11:19:43Z</time></trkpt><trkpt lat="36.79646304180964" lon="-4.496005561275867"><ele>128.25</ele><time>2026-03-28T11:19:44Z</time></trkpt><trkpt lat="36.7964526073015" lon="-4.495860830528496"><ele>128.5</ele><time>2026-03-28T11:19:45Z</time></trkpt><trkpt lat="36.79643658307698" lon="-4.495720359045647"><ele>128.75</ele><time>2026-03-28T11:19:46Z</time></trkpt><trkpt lat="36.796401481153765" lon="-4.495579067917355"><ele>129.0</ele><time>2026-03-28T11:19:47Z</time></trkpt><trkpt lat="36.79638708142125" lon="-4.495435613574231"><ele>130.5</ele><time>2026-03-28T11:19:48Z</time></trkpt><trkpt lat="36.796413001576006" lon="-4.495293237408538"><ele>132.0</ele><time>2026-03-28T11:19:49Z</time></trkpt><trkpt lat="36.79645015194115" lon="-4.495144891299686"><ele>133.5</ele><time>2026-03-28T11:19:50Z</time></trkpt><trkpt lat="36.796467883327324" lon="-4.494990366802611"><ele>135.0</ele><time>2026-03-28T11:19:51Z</time></trkpt><trkpt lat="36.796468012835284" lon="-4.494835460788976"><ele>135.0</ele><time>2026-03-28T11:19:52Z</time></trkpt><trkpt lat="36.79647487186468" lon="-4.494685879626917"><ele>135.0</ele><time>2026-03-28T11:19:53Z</time></trkpt><trkpt lat="36.79650099281402" lon="-4.494540169643076"><ele>135.0</ele><time>2026-03-28T11:19:54Z</time></trkpt><trkpt lat="36.79656511132868" lon="-4.494406652455243"><ele>135.0</ele><time>2026-03-28T11:19:55Z</time></trkpt><trkpt lat="36.79666835848658" lon="-4.494316390846668"><ele>136.0</ele><time>2026-03-28T11:19:56Z</time></trkpt><trkpt lat="36.79677163857064" lon="-4.49424271416633"><ele>137.0</ele><time>2026-03-28T11:19:57Z</time></trkpt><trkpt lat="36.796865290988215" lon="-4.494187661323778"><ele>138.0</ele><time>2026-03-28T11:19:58Z</time></trkpt><trkpt lat="36.796924428368904" lon="-4.494097263854029"><ele>139.0</ele><time>2026-03-28T11:19:59Z</time></trkpt><trkpt lat="36.79695339531427" lon="-4.493982749228224"><ele>140.0</ele><time>2026-03-28T11:20:00Z</time></trkpt><trkpt lat="36.796951564174705" lon="-4.493857542005615"><ele>141.6</ele><time>2026-03-28T11:20:01Z</time></trkpt><trkpt lat="36.7969435800882" lon="-4.493729213372231"><ele>143.2</ele><time>2026-03-28T11:20:02Z</time></trkpt><trkpt lat="36.79694815808911" lon="-4.493598521493904"><ele>144.8</ele><time>2026-03-28T11:20:03Z</time></trkpt><trkpt lat="36.79695827815722" lon="-4.493459449095172"><ele>146.4</ele><time>2026-03-28T11:20:04Z</time></trkpt><trkpt lat="36.797024047529725" lon="-4.493337267361956"><ele>148.0</ele><time>2026-03-28T11:20:05Z</time></trkpt><trkpt lat="36.79708694583891" lon="-4.493211630901079"><ele>148.0</ele><time>2026-03-28T11:20:06Z</time></trkpt><trkpt lat="36.797143766488176" lon="-4.493087424929281"><ele>148.0</ele><time>2026-03-28T11:20:07Z</time></trkpt><trkpt lat="36.79720011714462" lon="-4.492979541805508"><ele>148.0</ele><time>2026-03-28T11:20:08Z</time></trkpt><trkpt lat="36.79725793313601" lon="-4.492877029424993"><ele>148.0</ele><time>2026-03-28T11:20:09Z</time></trkpt><trkpt lat="36.797359697943556" lon="-4.492827873414293"><ele>148.0</ele><time>2026-03-28T11:20:10Z</time></trkpt><trkpt lat="36.7974641515023" lon="-4.492832361562217"><ele>150.0</ele><time>2026-03-28T11:20:11Z</time></trkpt><trkpt lat="36.79756146210143" lon="-4.492832643165634"><ele>152.0</ele><time>2026-03-28T11:20:12Z</time></trkpt><trkpt lat="36.797647266967516" lon="-4.492834327952228"><ele>154.0</ele><time>2026-03-28T11:20:13Z</time></trkpt><trkpt lat="36.797724813840695" lon="-4.492829360027051"><ele>156.0</ele><time>2026-03-28T11:20:14Z</time></trkpt><trkpt lat="36.797795557591265" lon="-4.492798629733732"><ele>158.0</ele><time>2026-03-28T11:20:14.999Z</time></trkpt><trkpt lat="36.79785132081555" lon="-4.492738041453102"><ele>160.0</ele><time>2026-03-28T11:20:15.999Z</time></trkpt><trkpt lat="36.79788803271049" lon="-4.492649834757429"><ele>160.6</ele><time>2026-03-28T11:20:16.999Z</time></trkpt><trkpt lat="36.79789908214904" lon="-4.492544328113758"><ele>161.2</ele><time>2026-03-28T11:20:17.999Z</time></trkpt><trkpt lat="36.79789639699438" lon="-4.492430303942706"><ele>161.8</ele><time>2026-03-28T11:20:18.999Z</time></trkpt><trkpt lat="36.797887090512816" lon="-4.49231706954497"><ele>162.4</ele><time>2026-03-28T11:20:19.999Z</time></trkpt><trkpt lat="36.79793385892782" lon="-4.4922057154140065"><ele>163.0</ele><time>2026-03-28T11:20:20.999Z</time></trkpt><trkpt lat="36.798012415203246" lon="-4.492127670268437"><ele>163.0</ele><time>2026-03-28T11:20:21.999Z</time></trkpt><trkpt lat="36.79809673939943" lon="-4.49208589086488"><ele>163.0</ele><time>2026-03-28T11:20:22.999Z</time></trkpt><trkpt lat="36.79818963376251" lon="-4.492102082505985"><ele>163.0</ele><time>2026-03-28T11:20:23.999Z</time></trkpt><trkpt lat="36.798269939567334" lon="-4.492172314142945"><ele>163.0</ele><time>2026-03-28T11:20:24.999Z</time></trkpt><trkpt lat="36.798319804105226" lon="-4.492294606755549"><ele>163.0</ele><time>2026-03-28T11:20:25.999Z</time></trkpt><trkpt lat="36.79836280154586" lon="-4.49241433397899"><ele>163.0</ele><time>2026-03-28T11:20:26.999Z</time></trkpt><trkpt lat="36.798384726137996" lon="-4.49254432174227"><ele>163.0</ele><time>2026-03-28T11:20:27.999Z</time></trkpt><trkpt lat="36.798378944472184" lon="-4.492674342041104"><ele>163.0</ele><time>2026-03-28T11:20:28.999Z</time></trkpt><trkpt lat="36.79837190955344" lon="-4.492793767711192"><ele>163.0</ele><time>2026-03-28T11:20:29.999Z</time></trkpt><trkpt lat="36.798388902216246" lon="-4.492900650733579"><ele>163.0</ele><time>2026-03-28T11:20:30.999Z</time></trkpt><trkpt lat="36.7984326263091" lon="-4.492979167047507"><ele>161.5</ele><time>2026-03-28T11:20:31.999Z</time></trkpt><trkpt lat="36.79849474075387" lon="-4.493012231037349"><ele>160.0</ele><time>2026-03-28T11:20:32.999Z</time></trkpt><trkpt lat="36.79856005073091" lon="-4.492979674597592"><ele>158.5</ele><time>2026-03-28T11:20:33.999Z</time></trkpt><trkpt lat="36.79861986761984" lon="-4.492918370209794"><ele>157.0</ele><time>2026-03-28T11:20:34.999Z</time></trkpt><trkpt lat="36.7986867472373" lon="-4.4928515927988695"><ele>155.5</ele><time>2026-03-28T11:20:35.999Z</time></trkpt><trkpt lat="36.79877174953863" lon="-4.492789998580744"><ele>154.0</ele><time>2026-03-28T11:20:36.999Z</time></trkpt><trkpt lat="36.79886881977197" lon="-4.492796897816796"><ele>158.4</ele><time>2026-03-28T11:20:37.999Z</time></trkpt><trkpt lat="36.79896587822911" lon="-4.492770212078609"><ele>162.8</ele><time>2026-03-28T11:20:38.999Z</time></trkpt><trkpt lat="36.79905849759769" lon="-4.492767194413696"><ele>167.20000000000002</ele><time>2026-03-28T11:20:39.999Z</time></trkpt><trkpt lat="36.79913249184174" lon="-4.492690126421273"><ele>171.60000000000002</ele><time>2026-03-28T11:20:40.999Z</time></trkpt><trkpt lat="36.799190242417914" lon="-4.492590405658375"><ele>176.0</ele><time>2026-03-28T11:20:41.999Z</time></trkpt><trkpt lat="36.79924898212082" lon="-4.4925036766866775"><ele>176.0</ele><time>2026-03-28T11:20:42.999Z</time></trkpt><trkpt lat="36.79931212537193" lon="-4.492419985061719"><ele>176.0</ele><time>2026-03-28T11:20:43.999Z</time></trkpt><trkpt lat="36.79941227500997" lon="-4.49239967564141"><ele>176.0</ele><time>2026-03-28T11:20:44.999Z</time></trkpt><trkpt lat="36.79950772453012" lon="-4.492380379687839"><ele>176.0</ele><time>2026-03-28T11:20:45.999Z</time></trkpt><trkpt lat="36.79960870697105" lon="-4.492391487922893"><ele>176.0</ele><time>2026-03-28T11:20:46.999Z</time></trkpt><trkpt lat="36.799708585141076" lon="-4.4924329968430055"><ele>178.75</ele><time>2026-03-28T11:20:47.999Z</time></trkpt><trkpt lat="36.799813266049206" lon="-4.492473270079112"><ele>181.5</ele><time>2026-03-28T11:20:48.999Z</time></trkpt><trkpt lat="36.79991039077682" lon="-4.492548882309755"><ele>184.25</ele><time>2026-03-28T11:20:49.999Z</time></trkpt><trkpt lat="36.79999813920439" lon="-4.492644664466616"><ele>187.0</ele><time>2026-03-28T11:20:50.999Z</time></trkpt><trkpt lat="36.80009302317687" lon="-4.492728867912383"><ele>188.5</ele><time>2026-03-28T11:20:51.999Z</time></trkpt><trkpt lat="36.800181702913804" lon="-4.492823230722189"><ele>190.0</ele><time>2026-03-28T11:20:52.999Z</time></trkpt><trkpt lat="36.80027204133047" lon="-4.4929096028633815"><ele>191.5</ele><time>2026-03-28T11:20:53.999Z</time></trkpt><trkpt lat="36.80036617668254" lon="-4.492980852022927"><ele>193.0</ele><time>2026-03-28T11:20:54.999Z</time></trkpt><trkpt lat="36.800469501094526" lon="-4.493036908581571"><ele>193.0</ele><time>2026-03-28T11:20:55.999Z</time></trkpt><trkpt lat="36.8005808982942" lon="-4.49306423802799"><ele>193.0</ele><time>2026-03-28T11:20:57Z</time></trkpt><trkpt lat="36.80069761110774" lon="-4.493055727092417"><ele>193.0</ele><time>2026-03-28T11:20:58Z</time></trkpt><trkpt lat="36.80080964205901" lon="-4.493012936321074"><ele>193.0</ele><time>2026-03-28T11:20:59Z</time></trkpt><trkpt lat="36.8009222820361" lon="-4.492963787455445"><ele>191.4</ele><time>2026-03-28T11:21:00Z</time></trkpt><trkpt lat="36.801033627313714" lon="-4.492934480725512"><ele>189.8</ele><time>2026-03-28T11:21:01Z</time></trkpt><trkpt lat="36.8011414228538" lon="-4.4929246748206255"><ele>188.2</ele><time>2026-03-28T11:21:02Z</time></trkpt><trkpt lat="36.80124541385226" lon="-4.492923368820846"><ele>186.6</ele><time>2026-03-28T11:21:03Z</time></trkpt><trkpt lat="36.80135124334024" lon="-4.4929118874100915"><ele>185.0</ele><time>2026-03-28T11:21:04Z</time></trkpt><trkpt lat="36.801454328271866" lon="-4.492889311919453"><ele>185.0</ele><time>2026-03-28T11:21:05Z</time></trkpt><trkpt lat="36.801549389580906" lon="-4.492841747357545"><ele>185.0</ele><time>2026-03-28T11:21:06Z</time></trkpt><trkpt lat="36.80163765800629" lon="-4.492769743937313"><ele>185.0</ele><time>2026-03-28T11:21:07Z</time></trkpt><trkpt lat="36.80171267944005" lon="-4.492674287321393"><ele>185.0</ele><time>2026-03-28T11:21:08Z</time></trkpt><trkpt lat="36.80177998230746" lon="-4.4925668831503875"><ele>185.0</ele><time>2026-03-28T11:21:09Z</time></trkpt><trkpt lat="36.801842957001114" lon="-4.492449409842224"><ele>181.25</ele><time>2026-03-28T11:21:10Z</time></trkpt><trkpt lat="36.801911845471416" lon="-4.492330337380027"><ele>177.5</ele><time>2026-03-28T11:21:11Z</time></trkpt><trkpt lat="36.80199068443783" lon="-4.4922166262104515"><ele>173.75</ele><time>2026-03-28T11:21:12Z</time></trkpt><trkpt lat="36.80207659464312" lon="-4.4921133940956235"><ele>170.0</ele><time>2026-03-28T11:21:13Z</time></trkpt><trkpt lat="36.80215795520151" lon="-4.49200015895421"><ele>170.0</ele><time>2026-03-28T11:21:14Z</time></trkpt><trkpt lat="36.80223641436292" lon="-4.491881456063961"><ele>170.0</ele><time>2026-03-28T11:21:15Z</time></trkpt><trkpt lat="36.80230067892216" lon="-4.491759853509181"><ele>170.0</ele><time>2026-03-28T11:21:16Z</time></trkpt><trkpt lat="36.802395879834876" lon="-4.4916701657641935"><ele>170.0</ele><time>2026-03-28T11:21:17Z</time></trkpt><trkpt lat="36.802510175246546" lon="-4.491624005580148"><ele>170.0</ele><time>2026-03-28T11:21:18Z</time></trkpt><trkpt lat="36.802617416839574" lon="-4.491560167134716"><ele>170.0</ele><time>2026-03-28T11:21:19Z</time></trkpt><trkpt lat="36.80272531519181" lon="-4.491499315204787"><ele>170.0</ele><time>2026-03-28T11:21:20Z</time></trkpt><trkpt lat="36.80282280969201" lon="-4.49141674552957"><ele>170.0</ele><time>2026-03-28T11:21:21Z</time></trkpt><trkpt lat="36.80294096298823" lon="-4.4913810665167455"><ele>171.75</ele><time>2026-03-28T11:21:22Z</time></trkpt><trkpt lat="36.80306099527013" lon="-4.491321262554043"><ele>173.5</ele><time>2026-03-28T11:21:23Z</time></trkpt><trkpt lat="36.80317242971632" lon="-4.491243039226111"><ele>175.25</ele><time>2026-03-28T11:21:24Z</time></trkpt><trkpt lat="36.80327420370772" lon="-4.491145121497759"><ele>177.0</ele><time>2026-03-28T11:21:25Z</time></trkpt><trkpt lat="36.80336588121703" lon="-4.4910325965944144"><ele>177.0</ele><time>2026-03-28T11:21:26Z</time></trkpt><trkpt lat="36.80348319570684" lon="-4.490948675228627"><ele>177.0</ele><time>2026-03-28T11:21:27Z</time></trkpt><trkpt lat="36.80361879984165" lon="-4.4909246416830815"><ele>177.0</ele><time>2026-03-28T11:21:28Z</time></trkpt><trkpt lat="36.80374651537674" lon="-4.490865956643803"><ele>177.0</ele><time>2026-03-28T11:21:29Z</time></trkpt><trkpt lat="36.803871522316285" lon="-4.490795536564601"><ele>172.0</ele><time>2026-03-28T11:21:30Z</time></trkpt><trkpt lat="36.80398738307556" lon="-4.49071646223558"><ele>167.0</ele><time>2026-03-28T11:21:31Z</time></trkpt><trkpt lat="36.80410040021068" lon="-4.4906321232412445"><ele>162.0</ele><time>2026-03-28T11:21:32Z</time></trkpt><trkpt lat="36.80420971480403" lon="-4.490547592200124"><ele>157.0</ele><time>2026-03-28T11:21:33Z</time></trkpt><trkpt lat="36.80430773355649" lon="-4.490452940952702"><ele>161.75</ele><time>2026-03-28T11:21:34Z</time></trkpt><trkpt lat="36.804422774867895" lon="-4.490398006981426"><ele>166.5</ele><time>2026-03-28T11:21:35Z</time></trkpt><trkpt lat="36.80453783642055" lon="-4.49037556637318"><ele>171.25</ele><time>2026-03-28T11:21:36Z</time></trkpt><trkpt lat="36.80464780082023" lon="-4.490393628810887"><ele>176.0</ele><time>2026-03-28T11:21:37Z</time></trkpt><trkpt lat="36.80475630896158" lon="-4.490390849638623"><ele>176.0</ele><time>2026-03-28T11:21:38Z</time></trkpt><trkpt lat="36.804863890324896" lon="-4.490375115817393"><ele>176.0</ele><time>2026-03-28T11:21:39Z</time></trkpt><trkpt lat="36.80497122367792" lon="-4.490350395626072"><ele>176.0</ele><time>2026-03-28T11:21:40Z</time></trkpt><trkpt lat="36.80507599907826" lon="-4.490320715089779"><ele>176.0</ele><time>2026-03-28T11:21:41Z</time></trkpt><trkpt lat="36.805181874744804" lon="-4.490279731404295"><ele>176.0</ele><time>2026-03-28T11:21:42Z</time></trkpt><trkpt lat="36.805288939147" lon="-4.490233050594228"><ele>175.75</ele><time>2026-03-28T11:21:43Z</time></trkpt><trkpt lat="36.80540011165471" lon="-4.490194828669633"><ele>175.5</ele><time>2026-03-28T11:21:44Z</time></trkpt><trkpt lat="36.805517271483566" lon="-4.490181103755601"><ele>175.25</ele><time>2026-03-28T11:21:45Z</time></trkpt><trkpt lat="36.805637415971766" lon="-4.490194551462044"><ele>175.0</ele><time>2026-03-28T11:21:46Z</time></trkpt><trkpt lat="36.805752891447995" lon="-4.490235066815809"><ele>175.0</ele><time>2026-03-28T11:21:47Z</time></trkpt><trkpt lat="36.80586215943763" lon="-4.490279690317896"><ele>175.0</ele><time>2026-03-28T11:21:48Z</time></trkpt><trkpt lat="36.805970908784055" lon="-4.490308533961822"><ele>175.0</ele><time>2026-03-28T11:21:49Z</time></trkpt><trkpt lat="36.80608015067723" lon="-4.490317285079756"><ele>175.0</ele><time>2026-03-28T11:21:50Z</time></trkpt><trkpt lat="36.80619453249255" lon="-4.490304710700901"><ele>174.25</ele><time>2026-03-28T11:21:51Z</time></trkpt><trkpt lat="36.80631285444647" lon="-4.490272988447826"><ele>173.5</ele><time>2026-03-28T11:21:52Z</time></trkpt><trkpt lat="36.8064291137275" lon="-4.49022286060211"><ele>172.75</ele><time>2026-03-28T11:21:53Z</time></trkpt><trkpt lat="36.806544639825006" lon="-4.490165779059218"><ele>172.0</ele><time>2026-03-28T11:21:54Z</time></trkpt><trkpt lat="36.80666251243158" lon="-4.4901203112470185"><ele>172.0</ele><time>2026-03-28T11:21:55Z</time></trkpt><trkpt lat="36.806784511299114" lon="-4.490071078486125"><ele>172.0</ele><time>2026-03-28T11:21:56Z</time></trkpt><trkpt lat="36.806915428851404" lon="-4.49005844523485"><ele>172.0</ele><time>2026-03-28T11:21:57Z</time></trkpt><trkpt lat="36.807046213336506" lon="-4.490076144085976"><ele>172.0</ele><time>2026-03-28T11:21:58Z</time></trkpt><trkpt lat="36.80717382571988" lon="-4.490102034593683"><ele>169.25</ele><time>2026-03-28T11:21:59Z</time></trkpt><trkpt lat="36.80729796559621" lon="-4.4901297644435925"><ele>166.5</ele><time>2026-03-28T11:22:00Z</time></trkpt><trkpt lat="36.807421411035506" lon="-4.4901760575100385"><ele>163.75</ele><time>2026-03-28T11:22:01Z</time></trkpt><trkpt lat="36.807549596727746" lon="-4.49018924776259"><ele>161.0</ele><time>2026-03-28T11:22:02Z</time></trkpt><trkpt lat="36.80767570704983" lon="-4.4902181421762295"><ele>161.0</ele><time>2026-03-28T11:22:03Z</time></trkpt><trkpt lat="36.807801567013115" lon="-4.490243826119138"><ele>161.0</ele><time>2026-03-28T11:22:04Z</time></trkpt><trkpt lat="36.807928501147515" lon="-4.490269797221343"><ele>161.0</ele><time>2026-03-28T11:22:05Z</time></trkpt><trkpt lat="36.80805722714282" lon="-4.490295409709167"><ele>161.0</ele><time>2026-03-28T11:22:06Z</time></trkpt><trkpt lat="36.808184401092504" lon="-4.490326634518782"><ele>161.0</ele><time>2026-03-28T11:22:07Z</time></trkpt><trkpt lat="36.808314193417566" lon="-4.490357769202438"><ele>161.0</ele><time>2026-03-28T11:22:08Z</time></trkpt><trkpt lat="36.80844410067805" lon="-4.490389035337955"><ele>161.0</ele><time>2026-03-28T11:22:09Z</time></trkpt><trkpt lat="36.808571578711316" lon="-4.490423214154477"><ele>161.0</ele><time>2026-03-28T11:22:10Z</time></trkpt><trkpt lat="36.808690139057866" lon="-4.49049107758405"><ele>163.5</ele><time>2026-03-28T11:22:11Z</time></trkpt><trkpt lat="36.80878987901282" lon="-4.490567143003988"><ele>166.0</ele><time>2026-03-28T11:22:12Z</time></trkpt><trkpt lat="36.80888726899661" lon="-4.490624923832605"><ele>168.5</ele><time>2026-03-28T11:22:13Z</time></trkpt><trkpt lat="36.80900738701179" lon="-4.490637921323364"><ele>171.0</ele><time>2026-03-28T11:22:13.999Z</time></trkpt><trkpt lat="36.8091274122663" lon="-4.490607097100617"><ele>171.0</ele><time>2026-03-28T11:22:14.999Z</time></trkpt><trkpt lat="36.80924012770549" lon="-4.490554340717581"><ele>171.0</ele><time>2026-03-28T11:22:15.999Z</time></trkpt><trkpt lat="36.80935240818594" lon="-4.490513459414258"><ele>171.0</ele><time>2026-03-28T11:22:16.999Z</time></trkpt><trkpt lat="36.80946950186825" lon="-4.4905108204158495"><ele>171.0</ele><time>2026-03-28T11:22:17.999Z</time></trkpt><trkpt lat="36.80958580401088" lon="-4.490538487980563"><ele>174.25</ele><time>2026-03-28T11:22:18.999Z</time></trkpt><trkpt lat="36.809698806194824" lon="-4.490589105991529"><ele>177.5</ele><time>2026-03-28T11:22:19.999Z</time></trkpt><trkpt lat="36.80980652501942" lon="-4.490652451295803"><ele>180.75</ele><time>2026-03-28T11:22:20.999Z</time></trkpt><trkpt lat="36.80989996085184" lon="-4.49072993784858"><ele>184.0</ele><time>2026-03-28T11:22:21.999Z</time></trkpt><trkpt lat="36.80999086133588" lon="-4.4908096562425515"><ele>184.0</ele><time>2026-03-28T11:22:22.999Z</time></trkpt><trkpt lat="36.810102234997494" lon="-4.490856885526863"><ele>184.0</ele><time>2026-03-28T11:22:23.999Z</time></trkpt><trkpt lat="36.81022381262703" lon="-4.490852118837462"><ele>184.0</ele><time>2026-03-28T11:22:24.999Z</time></trkpt><trkpt lat="36.810342434631075" lon="-4.490849938140078"><ele>184.0</ele><time>2026-03-28T11:22:25.999Z</time></trkpt><trkpt lat="36.81045310563183" lon="-4.490882829331121"><ele>186.0</ele><time>2026-03-28T11:22:26.999Z</time></trkpt><trkpt lat="36.810566714306496" lon="-4.490913422546509"><ele>188.0</ele><time>2026-03-28T11:22:27.999Z</time></trkpt><trkpt lat="36.810667609290796" lon="-4.490986874383758"><ele>190.0</ele><time>2026-03-28T11:22:28.999Z</time></trkpt><trkpt lat="36.810779972126355" lon="-4.49101952674911"><ele>192.0</ele><time>2026-03-28T11:22:29.999Z</time></trkpt><trkpt lat="36.81089479282917" lon="-4.491016491170295"><ele>190.5</ele><time>2026-03-28T11:22:30.999Z</time></trkpt><trkpt lat="36.811009307110034" lon="-4.490977455615119"><ele>189.0</ele><time>2026-03-28T11:22:31.999Z</time></trkpt><trkpt lat="36.81111477761716" lon="-4.490891899719052"><ele>187.5</ele><time>2026-03-28T11:22:32.999Z</time></trkpt><trkpt lat="36.81121320087754" lon="-4.490794942513912"><ele>186.0</ele><time>2026-03-28T11:22:33.999Z</time></trkpt><trkpt lat="36.811317937393795" lon="-4.490718870242375"><ele>186.0</ele><time>2026-03-28T11:22:34.999Z</time></trkpt><trkpt lat="36.81143486115569" lon="-4.490659344784668"><ele>186.0</ele><time>2026-03-28T11:22:35.999Z</time></trkpt><trkpt lat="36.81155185270184" lon="-4.490606353365751"><ele>186.0</ele><time>2026-03-28T11:22:36.999Z</time></trkpt><trkpt lat="36.811666162867205" lon="-4.490543889834064"><ele>186.0</ele><time>2026-03-28T11:22:37.999Z</time></trkpt><trkpt lat="36.811774468406654" lon="-4.490460648758096"><ele>193.25</ele><time>2026-03-28T11:22:38.999Z</time></trkpt><trkpt lat="36.811868287517854" lon="-4.490355850572507"><ele>200.5</ele><time>2026-03-28T11:22:39.999Z</time></trkpt><trkpt lat="36.81196013259971" lon="-4.490241148435866"><ele>207.75</ele><time>2026-03-28T11:22:40.999Z</time></trkpt><trkpt lat="36.81205501872321" lon="-4.49013159286717"><ele>215.0</ele><time>2026-03-28T11:22:41.999Z</time></trkpt><trkpt lat="36.812181729837775" lon="-4.4900624838328485"><ele>215.0</ele><time>2026-03-28T11:22:42.999Z</time></trkpt><trkpt lat="36.81232540195287" lon="-4.490022909572757"><ele>215.0</ele><time>2026-03-28T11:22:43.999Z</time></trkpt><trkpt lat="36.81247114553475" lon="-4.490012896953399"><ele>215.0</ele><time>2026-03-28T11:22:44.999Z</time></trkpt><trkpt lat="36.812611890484895" lon="-4.489966315988763"><ele>215.0</ele><time>2026-03-28T11:22:45.999Z</time></trkpt><trkpt lat="36.81275927613603" lon="-4.489938495226392"><ele>213.0</ele><time>2026-03-28T11:22:46.999Z</time></trkpt><trkpt lat="36.812908994323564" lon="-4.48990990294074"><ele>211.0</ele><time>2026-03-28T11:22:47.999Z</time></trkpt><trkpt lat="36.81305696095559" lon="-4.48988049093947"><ele>209.0</ele><time>2026-03-28T11:22:48.999Z</time></trkpt><trkpt lat="36.81320986197254" lon="-4.489866186958304"><ele>209.0</ele><time>2026-03-28T11:22:49.999Z</time></trkpt><trkpt lat="36.81335935670952" lon="-4.4898239396987485"><ele>209.0</ele><time>2026-03-28T11:22:50.999Z</time></trkpt><trkpt lat="36.81350741107276" lon="-4.48977108997473"><ele>209.0</ele><time>2026-03-28T11:22:51.999Z</time></trkpt><trkpt lat="36.81365176851159" lon="-4.489707147201186"><ele>205.66666666666669</ele><time>2026-03-28T11:22:52.999Z</time></trkpt><trkpt lat="36.81379141719979" lon="-4.489625879692167"><ele>202.33333333333331</ele><time>2026-03-28T11:22:53.999Z</time></trkpt><trkpt lat="36.81392868434474" lon="-4.489538050213109"><ele>199.0</ele><time>2026-03-28T11:22:54.999Z</time></trkpt><trkpt lat="36.814065893476815" lon="-4.489452386307143"><ele>205.66666666666666</ele><time>2026-03-28T11:22:55.999Z</time></trkpt><trkpt lat="36.81420381278816" lon="-4.489375665097007"><ele>212.33333333333331</ele><time>2026-03-28T11:22:56.999Z</time></trkpt><trkpt lat="36.814342194614284" lon="-4.489301174808469"><ele>219.0</ele><time>2026-03-28T11:22:57.999Z</time></trkpt><trkpt lat="36.81449948253576" lon="-4.489318796893978"><ele>219.0</ele><time>2026-03-28T11:22:58.999Z</time></trkpt><trkpt lat="36.814648276039584" lon="-4.489355542765736"><ele>219.0</ele><time>2026-03-28T11:22:59.999Z</time></trkpt><trkpt lat="36.8147903535195" lon="-4.489409075771581"><ele>219.0</ele><time>2026-03-28T11:23:00.999Z</time></trkpt><trkpt lat="36.81493635327621" lon="-4.489442568731896"><ele>219.0</ele><time>2026-03-28T11:23:01.999Z</time></trkpt><trkpt lat="36.81508029915335" lon="-4.489435086417502"><ele>220.5</ele><time>2026-03-28T11:23:03Z</time></trkpt><trkpt lat="36.81521997269129" lon="-4.489403328455475"><ele>222.0</ele><time>2026-03-28T11:23:04Z</time></trkpt><trkpt lat="36.81535584422905" lon="-4.489387319187572"><ele>223.5</ele><time>2026-03-28T11:23:05Z</time></trkpt><trkpt lat="36.815482449475994" lon="-4.489411373485836"><ele>225.0</ele><time>2026-03-28T11:23:06Z</time></trkpt><trkpt lat="36.815607999586916" lon="-4.4894719942027175"><ele>225.0</ele><time>2026-03-28T11:23:07Z</time></trkpt><trkpt lat="36.81572927521541" lon="-4.489538719289031"><ele>225.0</ele><time>2026-03-28T11:23:08Z</time></trkpt><trkpt lat="36.81585938573918" lon="-4.489579980438786"><ele>225.0</ele><time>2026-03-28T11:23:09Z</time></trkpt><trkpt lat="36.81599856625243" lon="-4.489593873473627"><ele>225.0</ele><time>2026-03-28T11:23:10Z</time></trkpt><trkpt lat="36.81614443131444" lon="-4.489584336946245"><ele>224.75</ele><time>2026-03-28T11:23:11Z</time></trkpt><trkpt lat="36.81628594866178" lon="-4.489562489038042"><ele>224.5</ele><time>2026-03-28T11:23:12Z</time></trkpt><trkpt lat="36.816427880236546" lon="-4.489534709307709"><ele>224.25</ele><time>2026-03-28T11:23:13Z</time></trkpt><trkpt lat="36.81657142577109" lon="-4.48950036427538"><ele>224.0</ele><time>2026-03-28T11:23:14Z</time></trkpt><trkpt lat="36.81671165804919" lon="-4.489464045704471"><ele>220.5</ele><time>2026-03-28T11:23:15Z</time></trkpt><trkpt lat="36.81685074855347" lon="-4.489428806891644"><ele>217.0</ele><time>2026-03-28T11:23:16Z</time></trkpt><trkpt lat="36.81698993335057" lon="-4.489392651722859"><ele>213.5</ele><time>2026-03-28T11:23:17Z</time></trkpt><trkpt lat="36.8171212780702" lon="-4.489334106221865"><ele>210.0</ele><time>2026-03-28T11:23:18Z</time></trkpt><trkpt lat="36.81725134202179" lon="-4.489300126082623"><ele>210.0</ele><time>2026-03-28T11:23:19Z</time></trkpt><trkpt lat="36.81737356091857" lon="-4.48925710218896"><ele>210.0</ele><time>2026-03-28T11:23:20Z</time></trkpt><trkpt lat="36.817489820886486" lon="-4.489200158577417"><ele>210.0</ele><time>2026-03-28T11:23:21Z</time></trkpt><trkpt lat="36.817590156054386" lon="-4.489097472534214"><ele>210.0</ele><time>2026-03-28T11:23:22Z</time></trkpt><trkpt lat="36.81767799919233" lon="-4.488977149714056"><ele>208.75</ele><time>2026-03-28T11:23:23Z</time></trkpt><trkpt lat="36.817760423142396" lon="-4.488852167854017"><ele>207.5</ele><time>2026-03-28T11:23:24Z</time></trkpt><trkpt lat="36.817862708843336" lon="-4.488746761037251"><ele>206.25</ele><time>2026-03-28T11:23:25Z</time></trkpt><trkpt lat="36.8179853726734" lon="-4.488680567835612"><ele>205.0</ele><time>2026-03-28T11:23:26Z</time></trkpt><trkpt lat="36.818114999858516" lon="-4.488655737438483"><ele>205.0</ele><time>2026-03-28T11:23:27Z</time></trkpt><trkpt lat="36.81824435284267" lon="-4.488680894573784"><ele>205.0</ele><time>2026-03-28T11:23:28Z</time></trkpt><trkpt lat="36.8183737971689" lon="-4.488724268755578"><ele>205.0</ele><time>2026-03-28T11:23:29Z</time></trkpt><trkpt lat="36.81847808602337" lon="-4.48884834153415"><ele>205.0</ele><time>2026-03-28T11:23:30Z</time></trkpt><trkpt lat="36.818537858055016" lon="-4.489011917021506"><ele>211.5</ele><time>2026-03-28T11:23:31Z</time></trkpt><trkpt lat="36.818595451126285" lon="-4.489167582732757"><ele>218.0</ele><time>2026-03-28T11:23:32Z</time></trkpt><trkpt lat="36.81864146906125" lon="-4.489329879745344"><ele>224.5</ele><time>2026-03-28T11:23:33Z</time></trkpt><trkpt lat="36.81868607038117" lon="-4.489492339932089"><ele>231.0</ele><time>2026-03-28T11:23:34Z</time></trkpt><trkpt lat="36.818733871039065" lon="-4.489654372371507"><ele>231.0</ele><time>2026-03-28T11:23:35Z</time></trkpt><trkpt lat="36.818774820789095" lon="-4.489818410321018"><ele>231.0</ele><time>2026-03-28T11:23:36Z</time></trkpt><trkpt lat="36.81880126954875" lon="-4.489988179276916"><ele>231.0</ele><time>2026-03-28T11:23:37Z</time></trkpt><trkpt lat="36.818815706013176" lon="-4.490160747630228"><ele>231.0</ele><time>2026-03-28T11:23:38Z</time></trkpt><trkpt lat="36.818826899243625" lon="-4.490334828037878"><ele>230.0</ele><time>2026-03-28T11:23:39Z</time></trkpt><trkpt lat="36.8188331466558" lon="-4.490514542275749"><ele>229.0</ele><time>2026-03-28T11:23:40Z</time></trkpt><trkpt lat="36.81883382116841" lon="-4.49069506621333"><ele>228.0</ele><time>2026-03-28T11:23:41Z</time></trkpt><trkpt lat="36.81883792672473" lon="-4.4908783168748165"><ele>227.0</ele><time>2026-03-28T11:23:42Z</time></trkpt><trkpt lat="36.818839656744984" lon="-4.491058398572587"><ele>227.0</ele><time>2026-03-28T11:23:43Z</time></trkpt><trkpt lat="36.818834340505305" lon="-4.491238126406339"><ele>227.0</ele><time>2026-03-28T11:23:44Z</time></trkpt><trkpt lat="36.81881132536737" lon="-4.491412981320885"><ele>227.0</ele><time>2026-03-28T11:23:45Z</time></trkpt><trkpt lat="36.81877466012241" lon="-4.4915835934998025"><ele>227.0</ele><time>2026-03-28T11:23:46Z</time></trkpt><trkpt lat="36.81872765222214" lon="-4.49174156401471"><ele>229.5</ele><time>2026-03-28T11:23:47Z</time></trkpt><trkpt lat="36.81867087170622" lon="-4.491895587646796"><ele>232.0</ele><time>2026-03-28T11:23:48Z</time></trkpt><trkpt lat="36.81860830978461" lon="-4.49205069597717"><ele>234.5</ele><time>2026-03-28T11:23:49Z</time></trkpt><trkpt lat="36.818548447075585" lon="-4.492205335956407"><ele>237.0</ele><time>2026-03-28T11:23:50Z</time></trkpt><trkpt lat="36.81848792511144" lon="-4.492357034865894"><ele>235.25</ele><time>2026-03-28T11:23:51Z</time></trkpt><trkpt lat="36.818425357699894" lon="-4.492506514706603"><ele>233.5</ele><time>2026-03-28T11:23:52Z</time></trkpt><trkpt lat="36.818360830044114" lon="-4.492653159819757"><ele>231.75</ele><time>2026-03-28T11:23:53Z</time></trkpt><trkpt lat="36.81829519713402" lon="-4.492801180610465"><ele>230.0</ele><time>2026-03-28T11:23:54Z</time></trkpt><trkpt lat="36.81823308779749" lon="-4.49294713612905"><ele>234.5</ele><time>2026-03-28T11:23:55Z</time></trkpt><trkpt lat="36.81817175398454" lon="-4.493094280470027"><ele>239.0</ele><time>2026-03-28T11:23:56Z</time></trkpt><trkpt lat="36.818110576799945" lon="-4.493243845397076"><ele>243.5</ele><time>2026-03-28T11:23:57Z</time></trkpt><trkpt lat="36.81805020291111" lon="-4.493392634541064"><ele>248.0</ele><time>2026-03-28T11:23:58Z</time></trkpt><trkpt lat="36.817993679615995" lon="-4.493542299307563"><ele>248.0</ele><time>2026-03-28T11:23:59Z</time></trkpt><trkpt lat="36.81794103409014" lon="-4.493696259894126"><ele>248.0</ele><time>2026-03-28T11:24:00Z</time></trkpt><trkpt lat="36.81789537321168" lon="-4.493852489967572"><ele>248.0</ele><time>2026-03-28T11:24:01Z</time></trkpt><trkpt lat="36.81785820079763" lon="-4.494014560980258"><ele>248.0</ele><time>2026-03-28T11:24:02Z</time></trkpt><trkpt lat="36.81782414211919" lon="-4.494180619972568"><ele>248.5</ele><time>2026-03-28T11:24:03Z</time></trkpt><trkpt lat="36.817792683903356" lon="-4.4943439731381645"><ele>249.0</ele><time>2026-03-28T11:24:04Z</time></trkpt><trkpt lat="36.817766191903196" lon="-4.494500228616456"><ele>249.5</ele><time>2026-03-28T11:24:05Z</time></trkpt><trkpt lat="36.81775696567368" lon="-4.494652067586271"><ele>250.0</ele><time>2026-03-28T11:24:06Z</time></trkpt><trkpt lat="36.81777463644904" lon="-4.4947983704701455"><ele>247.0</ele><time>2026-03-28T11:24:07Z</time></trkpt><trkpt lat="36.817816720166505" lon="-4.494933067769506"><ele>244.0</ele><time>2026-03-28T11:24:08Z</time></trkpt><trkpt lat="36.81788365202574" lon="-4.495050777980401"><ele>241.0</ele><time>2026-03-28T11:24:09Z</time></trkpt><trkpt lat="36.81797191619603" lon="-4.495143800731981"><ele>238.0</ele><time>2026-03-28T11:24:10Z</time></trkpt><trkpt lat="36.81807991638564" lon="-4.495207611125385"><ele>238.0</ele><time>2026-03-28T11:24:11Z</time></trkpt><trkpt lat="36.818203033896395" lon="-4.495239311418954"><ele>238.0</ele><time>2026-03-28T11:24:12Z</time></trkpt><trkpt lat="36.818337093254776" lon="-4.495237557645002"><ele>238.0</ele><time>2026-03-28T11:24:13Z</time></trkpt><trkpt lat="36.81847008950895" lon="-4.495186007030687"><ele>238.0</ele><time>2026-03-28T11:24:14Z</time></trkpt><trkpt lat="36.818613065312114" lon="-4.495138448425497"><ele>233.66666666666666</ele><time>2026-03-28T11:24:15Z</time></trkpt><trkpt lat="36.81876598044338" lon="-4.495103532441516"><ele>229.33333333333331</ele><time>2026-03-28T11:24:16Z</time></trkpt><trkpt lat="36.81891548749855" lon="-4.495050613310688"><ele>225.0</ele><time>2026-03-28T11:24:17Z</time></trkpt><trkpt lat="36.81906195354941" lon="-4.494995506427526"><ele>225.0</ele><time>2026-03-28T11:24:18Z</time></trkpt><trkpt lat="36.819204955405" lon="-4.494941557554451"><ele>225.0</ele><time>2026-03-28T11:24:19Z</time></trkpt><trkpt lat="36.819350323084485" lon="-4.494893255767328"><ele>225.0</ele><time>2026-03-28T11:24:20Z</time></trkpt><trkpt lat="36.819486027711946" lon="-4.494842315110301"><ele>225.0</ele><time>2026-03-28T11:24:21Z</time></trkpt><trkpt lat="36.81961908030051" lon="-4.494793656629375"><ele>222.25</ele><time>2026-03-28T11:24:22Z</time></trkpt><trkpt lat="36.81974952117203" lon="-4.494750822093675"><ele>219.5</ele><time>2026-03-28T11:24:23Z</time></trkpt><trkpt lat="36.81987853618272" lon="-4.494732780907546"><ele>216.75</ele><time>2026-03-28T11:24:24Z</time></trkpt><trkpt lat="36.82000484535004" lon="-4.49474011174486"><ele>214.0</ele><time>2026-03-28T11:24:25Z</time></trkpt><trkpt lat="36.82012462845773" lon="-4.494781913139221"><ele>217.25</ele><time>2026-03-28T11:24:26Z</time></trkpt><trkpt lat="36.82023268062471" lon="-4.494853543952052"><ele>220.5</ele><time>2026-03-28T11:24:27Z</time></trkpt><trkpt lat="36.82033079185906" lon="-4.49494731720661"><ele>223.75</ele><time>2026-03-28T11:24:28Z</time></trkpt><trkpt lat="36.82041069980484" lon="-4.495074289551925"><ele>227.0</ele><time>2026-03-28T11:24:28.999Z</time></trkpt><trkpt lat="36.82046493212781" lon="-4.495222883832812"><ele>227.0</ele><time>2026-03-28T11:24:29.999Z</time></trkpt><trkpt lat="36.820482852076275" lon="-4.495396035179077"><ele>227.0</ele><time>2026-03-28T11:24:30.999Z</time></trkpt><trkpt lat="36.82047446053149" lon="-4.495578166529923"><ele>227.0</ele><time>2026-03-28T11:24:31.999Z</time></trkpt><trkpt lat="36.82046933630989" lon="-4.495767944295653"><ele>227.0</ele><time>2026-03-28T11:24:32.999Z</time></trkpt><trkpt lat="36.82049169190736" lon="-4.495954850484166"><ele>225.0</ele><time>2026-03-28T11:24:33.999Z</time></trkpt><trkpt lat="36.82052687350404" lon="-4.496128949537721"><ele>223.0</ele><time>2026-03-28T11:24:34.999Z</time></trkpt><trkpt lat="36.82055001929509" lon="-4.496293661640042"><ele>221.0</ele><time>2026-03-28T11:24:35.999Z</time></trkpt><trkpt lat="36.820545792672135" lon="-4.49644970164379"><ele>219.0</ele><time>2026-03-28T11:24:36.999Z</time></trkpt><trkpt lat="36.820514795430846" lon="-4.496597871030436"><ele>215.39999999999998</ele><time>2026-03-28T11:24:37.999Z</time></trkpt><trkpt lat="36.82047251420555" lon="-4.496738058473516"><ele>211.79999999999998</ele><time>2026-03-28T11:24:38.999Z</time></trkpt><trkpt lat="36.8204491326616" lon="-4.496872710199376"><ele>208.2</ele><time>2026-03-28T11:24:39.999Z</time></trkpt><trkpt lat="36.820454954848515" lon="-4.497002092384812"><ele>204.60000000000002</ele><time>2026-03-28T11:24:40.999Z</time></trkpt><trkpt lat="36.82049194769384" lon="-4.497131941791506"><ele>201.0</ele><time>2026-03-28T11:24:41.999Z</time></trkpt><trkpt lat="36.82055767545106" lon="-4.4972485564842986"><ele>197.25</ele><time>2026-03-28T11:24:42.999Z</time></trkpt><trkpt lat="36.820650733035244" lon="-4.497347246944868"><ele>193.5</ele><time>2026-03-28T11:24:43.999Z</time></trkpt><trkpt lat="36.82075223234123" lon="-4.497424071333048"><ele>189.75</ele><time>2026-03-28T11:24:44.999Z</time></trkpt><trkpt lat="36.82084289734058" lon="-4.497510635364724"><ele>186.0</ele><time>2026-03-28T11:24:45.999Z</time></trkpt><trkpt lat="36.82090799901225" lon="-4.497631704144512"><ele>186.0</ele><time>2026-03-28T11:24:46.999Z</time></trkpt><trkpt lat="36.82094688558881" lon="-4.497766888753358"><ele>186.0</ele><time>2026-03-28T11:24:47.999Z</time></trkpt><trkpt lat="36.82095944317568" lon="-4.4979142081756684"><ele>186.0</ele><time>2026-03-28T11:24:48.999Z</time></trkpt><trkpt lat="36.82093795270174" lon="-4.498065248119297"><ele>186.0</ele><time>2026-03-28T11:24:49.999Z</time></trkpt><trkpt lat="36.820884546819464" lon="-4.498215713983486"><ele>186.25</ele><time>2026-03-28T11:24:50.999Z</time></trkpt><trkpt lat="36.82080132161316" lon="-4.498346960875673"><ele>186.5</ele><time>2026-03-28T11:24:51.999Z</time></trkpt><trkpt lat="36.82071243353098" lon="-4.4984696235896715"><ele>186.75</ele><time>2026-03-28T11:24:52.999Z</time></trkpt><trkpt lat="36.82063431002799" lon="-4.498604821338414"><ele>187.0</ele><time>2026-03-28T11:24:53.999Z</time></trkpt><trkpt lat="36.82057485376572" lon="-4.498760036642365"><ele>187.25</ele><time>2026-03-28T11:24:54.999Z</time></trkpt><trkpt lat="36.82053076302172" lon="-4.4989267366978565"><ele>187.5</ele><time>2026-03-28T11:24:55.999Z</time></trkpt><trkpt lat="36.8205028821425" lon="-4.4991024135036755"><ele>187.75</ele><time>2026-03-28T11:24:56.999Z</time></trkpt><trkpt lat="36.82050054689936" lon="-4.4992796884413"><ele>188.0</ele><time>2026-03-28T11:24:57.999Z</time></trkpt><trkpt lat="36.82051464325389" lon="-4.499460298669987"><ele>184.0</ele><time>2026-03-28T11:24:58.999Z</time></trkpt><trkpt lat="36.82055351864499" lon="-4.499642236516038"><ele>180.0</ele><time>2026-03-28T11:24:59.999Z</time></trkpt><trkpt lat="36.82061629201887" lon="-4.499816373967405"><ele>176.0</ele><time>2026-03-28T11:25:00.999Z</time></trkpt><trkpt lat="36.820696740396606" lon="-4.499978622940236"><ele>176.0</ele><time>2026-03-28T11:25:01.999Z</time></trkpt><trkpt lat="36.820797268919264" lon="-4.50012418410589"><ele>176.0</ele><time>2026-03-28T11:25:02.999Z</time></trkpt><trkpt lat="36.82091842174781" lon="-4.500251954593446"><ele>176.0</ele><time>2026-03-28T11:25:03.999Z</time></trkpt><trkpt lat="36.82105051285769" lon="-4.500367672837628"><ele>176.0</ele><time>2026-03-28T11:25:04.999Z</time></trkpt><trkpt lat="36.82118560425062" lon="-4.500481283208951"><ele>176.0</ele><time>2026-03-28T11:25:05.999Z</time></trkpt><trkpt lat="36.82131667328272" lon="-4.500607425063175"><ele>176.0</ele><time>2026-03-28T11:25:06.999Z</time></trkpt><trkpt lat="36.821456370762945" lon="-4.500713974855203"><ele>176.0</ele><time>2026-03-28T11:25:07.999Z</time></trkpt><trkpt lat="36.8215762017563" lon="-4.500856610146121"><ele>176.0</ele><time>2026-03-28T11:25:09Z</time></trkpt><trkpt lat="36.821699556283654" lon="-4.5009643234381596"><ele>176.0</ele><time>2026-03-28T11:25:10Z</time></trkpt><trkpt lat="36.821823368278416" lon="-4.5010498439217725"><ele>176.0</ele><time>2026-03-28T11:25:11Z</time></trkpt><trkpt lat="36.82195199024365" lon="-4.501113802278054"><ele>176.0</ele><time>2026-03-28T11:25:12Z</time></trkpt><trkpt lat="36.82209179441595" lon="-4.501146688218732"><ele>176.0</ele><time>2026-03-28T11:25:13Z</time></trkpt><trkpt lat="36.82223547385752" lon="-4.501143821130648"><ele>176.0</ele><time>2026-03-28T11:25:14Z</time></trkpt><trkpt lat="36.822376289767426" lon="-4.501102880233241"><ele>176.0</ele><time>2026-03-28T11:25:15Z</time></trkpt><trkpt lat="36.82250680169653" lon="-4.5010297215629835"><ele>176.0</ele><time>2026-03-28T11:25:16Z</time></trkpt><trkpt lat="36.82262636660428" lon="-4.500935246192027"><ele>176.0</ele><time>2026-03-28T11:25:17Z</time></trkpt><trkpt lat="36.82274231996059" lon="-4.500832487110091"><ele>176.0</ele><time>2026-03-28T11:25:18Z</time></trkpt><trkpt lat="36.82285242524984" lon="-4.5007388088197615"><ele>172.25</ele><time>2026-03-28T11:25:19Z</time></trkpt><trkpt lat="36.82296406485643" lon="-4.500664617973234"><ele>168.5</ele><time>2026-03-28T11:25:20Z</time></trkpt><trkpt lat="36.823076778187634" lon="-4.5006114887484845"><ele>164.75</ele><time>2026-03-28T11:25:21Z</time></trkpt><trkpt lat="36.82318919112888" lon="-4.50058076908901"><ele>161.0</ele><time>2026-03-28T11:25:22Z</time></trkpt><trkpt lat="36.82330076822238" lon="-4.500571485142736"><ele>161.0</ele><time>2026-03-28T11:25:23Z</time></trkpt><trkpt lat="36.823411615378504" lon="-4.50059158329188"><ele>161.0</ele><time>2026-03-28T11:25:24Z</time></trkpt><trkpt lat="36.823516563067905" lon="-4.500645442923704"><ele>161.0</ele><time>2026-03-28T11:25:25Z</time></trkpt><trkpt lat="36.82360964800308" lon="-4.500720666145805"><ele>161.0</ele><time>2026-03-28T11:25:26Z</time></trkpt><trkpt lat="36.823683866360156" lon="-4.500821243553382"><ele>161.0</ele><time>2026-03-28T11:25:27Z</time></trkpt><trkpt lat="36.82373018346286" lon="-4.500932596819945"><ele>163.0</ele><time>2026-03-28T11:25:28Z</time></trkpt><trkpt lat="36.82376357288537" lon="-4.501038798565186"><ele>165.0</ele><time>2026-03-28T11:25:29Z</time></trkpt><trkpt lat="36.82377145756982" lon="-4.501130171546007"><ele>167.0</ele><time>2026-03-28T11:25:30Z</time></trkpt><trkpt lat="36.82378212419526" lon="-4.501246647461978"><ele>169.0</ele><time>2026-03-28T11:25:32Z</time></trkpt><trkpt lat="36.823874514010164" lon="-4.5012369784836235"><ele>171.0</ele><time>2026-03-28T11:25:35Z</time></trkpt><trkpt lat="36.82391466290059" lon="-4.501109262712604"><ele>171.0</ele><time>2026-03-28T11:25:37Z</time></trkpt><trkpt lat="36.823951481723206" lon="-4.5010402668385465"><ele>171.0</ele><time>2026-03-28T11:25:38Z</time></trkpt><trkpt lat="36.82401371302854" lon="-4.500973214160093"><ele>171.0</ele><time>2026-03-28T11:25:39Z</time></trkpt><trkpt lat="36.82407680189606" lon="-4.50091487481752"><ele>171.0</ele><time>2026-03-28T11:25:40Z</time></trkpt><trkpt lat="36.824149498977796" lon="-4.500857158048932"><ele>171.0</ele><time>2026-03-28T11:25:41Z</time></trkpt><trkpt lat="36.82422813347672" lon="-4.500806386744308"><ele>171.0</ele><time>2026-03-28T11:25:42Z</time></trkpt><trkpt lat="36.82429632084619" lon="-4.500758502974243"><ele>173.16666666666666</ele><time>2026-03-28T11:25:43Z</time></trkpt><trkpt lat="36.824358814436266" lon="-4.5007054049257444"><ele>175.33333333333334</ele><time>2026-03-28T11:25:44Z</time></trkpt><trkpt lat="36.824387776961686" lon="-4.500631434117432"><ele>177.5</ele><time>2026-03-28T11:25:45Z</time></trkpt><trkpt lat="36.82442611639024" lon="-4.5005350289531085"><ele>179.66666666666669</ele><time>2026-03-28T11:25:46Z</time></trkpt><trkpt lat="36.82446675899612" lon="-4.500430543348673"><ele>181.83333333333334</ele><time>2026-03-28T11:25:47Z</time></trkpt><trkpt lat="36.82449911685577" lon="-4.500323477419361"><ele>184.0</ele><time>2026-03-28T11:25:48Z</time></trkpt><trkpt lat="36.82450936281392" lon="-4.500202359621366"><ele>184.0</ele><time>2026-03-28T11:25:49Z</time></trkpt><trkpt lat="36.824513208883246" lon="-4.500074012157323"><ele>184.0</ele><time>2026-03-28T11:25:50Z</time></trkpt><trkpt lat="36.824524440795706" lon="-4.499959750404077"><ele>184.0</ele><time>2026-03-28T11:25:51Z</time></trkpt><trkpt lat="36.82454601453567" lon="-4.4998442253387925"><ele>184.0</ele><time>2026-03-28T11:25:52Z</time></trkpt><trkpt lat="36.82458653666911" lon="-4.499730744682664"><ele>184.0</ele><time>2026-03-28T11:25:53Z</time></trkpt><trkpt lat="36.824642825647196" lon="-4.49963962687251"><ele>181.33333333333334</ele><time>2026-03-28T11:25:54Z</time></trkpt><trkpt lat="36.82471265587096" lon="-4.4995674584327245"><ele>178.66666666666669</ele><time>2026-03-28T11:25:55Z</time></trkpt><trkpt lat="36.82478566517551" lon="-4.499520498467591"><ele>176.0</ele><time>2026-03-28T11:25:56Z</time></trkpt><trkpt lat="36.82486361021774" lon="-4.499490314192725"><ele>173.33333333333334</ele><time>2026-03-28T11:25:57Z</time></trkpt><trkpt lat="36.824943366028585" lon="-4.499473085206777"><ele>170.66666666666666</ele><time>2026-03-28T11:25:58Z</time></trkpt><trkpt lat="36.82501319636915" lon="-4.499448042369864"><ele>168.0</ele><time>2026-03-28T11:25:59Z</time></trkpt><trkpt lat="36.82507494590322" lon="-4.49940183437483"><ele>168.0</ele><time>2026-03-28T11:26:00Z</time></trkpt><trkpt lat="36.8251364589412" lon="-4.4993656846330685"><ele>168.0</ele><time>2026-03-28T11:26:01Z</time></trkpt><trkpt lat="36.82518364317921" lon="-4.499293326225505"><ele>168.0</ele><time>2026-03-28T11:26:02Z</time></trkpt><trkpt lat="36.825243668308296" lon="-4.499231762324743"><ele>168.0</ele><time>2026-03-28T11:26:03Z</time></trkpt><trkpt lat="36.82530300008923" lon="-4.49916951099465"><ele>168.0</ele><time>2026-03-28T11:26:04Z</time></trkpt><trkpt lat="36.825351637751105" lon="-4.49911092822054"><ele>168.0</ele><time>2026-03-28T11:26:05Z</time></trkpt><trkpt lat="36.825381665368354" lon="-4.498978210018033"><ele>167.83333333333334</ele><time>2026-03-28T11:26:07Z</time></trkpt><trkpt lat="36.82534930260927" lon="-4.498901273731791"><ele>167.66666666666666</ele><time>2026-03-28T11:26:08Z</time></trkpt><trkpt lat="36.8252413645688" lon="-4.4988575283611"><ele>167.5</ele><time>2026-03-28T11:26:09Z</time></trkpt><trkpt lat="36.8252322881817" lon="-4.498778101271488"><ele>167.33333333333331</ele><time>2026-03-28T11:26:10Z</time></trkpt><trkpt lat="36.82522489237065" lon="-4.498697245787188"><ele>167.16666666666666</ele><time>2026-03-28T11:26:11Z</time></trkpt><trkpt lat="36.82520001022633" lon="-4.498611396103745"><ele>167.0</ele><time>2026-03-28T11:26:12Z</time></trkpt><trkpt lat="36.82513877907793" lon="-4.498543559626856"><ele>173.75</ele><time>2026-03-28T11:26:13Z</time></trkpt><trkpt lat="36.82528142865205" lon="-4.498486127452917"><ele>180.5</ele><time>2026-03-28T11:26:15Z</time></trkpt><trkpt lat="36.82535525274084" lon="-4.498531051023548"><ele>187.25</ele><time>2026-03-28T11:26:17Z</time></trkpt><trkpt lat="36.825421988079086" lon="-4.498632468203849"><ele>194.0</ele><time>2026-03-28T11:26:19Z</time></trkpt><trkpt lat="36.82550433896726" lon="-4.498730765967053"><ele>192.16666666666669</ele><time>2026-03-28T11:26:21Z</time></trkpt><trkpt lat="36.825600225363786" lon="-4.498821119457588"><ele>190.33333333333334</ele><time>2026-03-28T11:26:23Z</time></trkpt><trkpt lat="36.82565973408494" lon="-4.4988611338489495"><ele>188.5</ele><time>2026-03-28T11:26:24Z</time></trkpt><trkpt lat="36.82573271833234" lon="-4.498872252511338"><ele>186.66666666666669</ele><time>2026-03-28T11:26:25Z</time></trkpt><trkpt lat="36.82580944544154" lon="-4.4989083109384405"><ele>184.83333333333334</ele><time>2026-03-28T11:26:26Z</time></trkpt><trkpt lat="36.82588317421369" lon="-4.498953787298898"><ele>183.0</ele><time>2026-03-28T11:26:27Z</time></trkpt><trkpt lat="36.82595334833091" lon="-4.499021274218507"><ele>184.66666666666666</ele><time>2026-03-28T11:26:28Z</time></trkpt><trkpt lat="36.826013041104126" lon="-4.499082605152822"><ele>186.33333333333331</ele><time>2026-03-28T11:26:28.999Z</time></trkpt><trkpt lat="36.826071265438856" lon="-4.499134495658181"><ele>188.0</ele><time>2026-03-28T11:26:29.999Z</time></trkpt><trkpt lat="36.82613477928759" lon="-4.499175106865219"><ele>189.66666666666666</ele><time>2026-03-28T11:26:30.999Z</time></trkpt><trkpt lat="36.82620465600762" lon="-4.49921289683642"><ele>191.33333333333331</ele><time>2026-03-28T11:26:31.999Z</time></trkpt><trkpt lat="36.826276165352816" lon="-4.499264235675825"><ele>193.0</ele><time>2026-03-28T11:26:32.999Z</time></trkpt><trkpt lat="36.826353287287084" lon="-4.499299905892825"><ele>192.99999999999997</ele><time>2026-03-28T11:26:33.999Z</time></trkpt><trkpt lat="36.826431570005006" lon="-4.499329644280918"><ele>193.0</ele><time>2026-03-28T11:26:34.999Z</time></trkpt><trkpt lat="36.826510515959335" lon="-4.499321976322633"><ele>193.0</ele><time>2026-03-28T11:26:35.999Z</time></trkpt><trkpt lat="36.82658334210258" lon="-4.499323660508537"><ele>193.0</ele><time>2026-03-28T11:26:36.999Z</time></trkpt><trkpt lat="36.826649828309606" lon="-4.499292895712889"><ele>192.99999999999997</ele><time>2026-03-28T11:26:37.999Z</time></trkpt><trkpt lat="36.82674723551575" lon="-4.499271070271804"><ele>193.0</ele><time>2026-03-28T11:26:39.999Z</time></trkpt><trkpt lat="36.826815493574976" lon="-4.499378470957364"><ele>192.99999999999997</ele><time>2026-03-28T11:26:41.999Z</time></trkpt><trkpt lat="36.826808396146376" lon="-4.499477898891978"><ele>193.0</ele><time>2026-03-28T11:26:42.999Z</time></trkpt><trkpt lat="36.82675143143231" lon="-4.49955165054396"><ele>193.0</ele><time>2026-03-28T11:26:43.999Z</time></trkpt><trkpt lat="36.826708572496834" lon="-4.499626270341868"><ele>193.0</ele><time>2026-03-28T11:26:44.999Z</time></trkpt><trkpt lat="36.826717431765054" lon="-4.499725845726529"><ele>192.99999999999997</ele><time>2026-03-28T11:26:45.999Z</time></trkpt><trkpt lat="36.8266857066921" lon="-4.499822504101452"><ele>193.0</ele><time>2026-03-28T11:26:46.999Z</time></trkpt><trkpt lat="36.82659275010634" lon="-4.499860064105333"><ele>194.2</ele><time>2026-03-28T11:26:47.999Z</time></trkpt><trkpt lat="36.826526740992435" lon="-4.4999025438913"><ele>195.4</ele><time>2026-03-28T11:26:48.999Z</time></trkpt><trkpt lat="36.826494811321055" lon="-4.50004047636902"><ele>196.6</ele><time>2026-03-28T11:26:49.999Z</time></trkpt><trkpt lat="36.82640661276836" lon="-4.500065794358292"><ele>197.79999999999998</ele><time>2026-03-28T11:26:50.999Z</time></trkpt><trkpt lat="36.826335854991896" lon="-4.500075098880929"><ele>199.0</ele><time>2026-03-28T11:26:51.999Z</time></trkpt><trkpt lat="36.82624180504748" lon="-4.499927474024394"><ele>198.99999999999997</ele><time>2026-03-28T11:26:52.999Z</time></trkpt><trkpt lat="36.826176745921074" lon="-4.499875037827881"><ele>199.0</ele><time>2026-03-28T11:26:53.999Z</time></trkpt><trkpt lat="36.826112393511565" lon="-4.49983122012854"><ele>199.0</ele><time>2026-03-28T11:26:54.999Z</time></trkpt><trkpt lat="36.82604813963973" lon="-4.499799448852993"><ele>199.0</ele><time>2026-03-28T11:26:55.999Z</time></trkpt><trkpt lat="36.825977870346485" lon="-4.499800767252233"><ele>199.0</ele><time>2026-03-28T11:26:56.999Z</time></trkpt><trkpt lat="36.82591169857174" lon="-4.4998154343255585"><ele>198.99999999999997</ele><time>2026-03-28T11:26:57.999Z</time></trkpt><trkpt lat="36.82584646033566" lon="-4.499842361091351"><ele>199.0</ele><time>2026-03-28T11:26:58.999Z</time></trkpt><trkpt lat="36.825781478702815" lon="-4.4998704021060805"><ele>198.66666666666666</ele><time>2026-03-28T11:26:59.999Z</time></trkpt><trkpt lat="36.82571607642734" lon="-4.499898365746745"><ele>198.33333333333331</ele><time>2026-03-28T11:27:00.999Z</time></trkpt><trkpt lat="36.82563049180303" lon="-4.499961013193195"><ele>198.0</ele><time>2026-03-28T11:27:02.999Z</time></trkpt><trkpt lat="36.82558548075883" lon="-4.500056054224011"><ele>197.66666666666669</ele><time>2026-03-28T11:27:04.999Z</time></trkpt><trkpt lat="36.825560405067854" lon="-4.5001493980990315"><ele>197.33333333333334</ele><time>2026-03-28T11:27:06.999Z</time></trkpt><trkpt lat="36.825563604830116" lon="-4.5002451350896875"><ele>197.0</ele><time>2026-03-28T11:27:08.999Z</time></trkpt><trkpt lat="36.82554249381945" lon="-4.5003293077713"><ele>197.00000000000003</ele><time>2026-03-28T11:27:10.999Z</time></trkpt><trkpt lat="36.82551820048981" lon="-4.500413132247495"><ele>197.0</ele><time>2026-03-28T11:27:12.999Z</time></trkpt><trkpt lat="36.825562573718166" lon="-4.50051073775394"><ele>197.0</ele><time>2026-03-28T11:27:16Z</time></trkpt><trkpt lat="36.82564471912384" lon="-4.500512487753425"><ele>197.0</ele><time>2026-03-28T11:27:18Z</time></trkpt><trkpt lat="36.825717703527594" lon="-4.5004614622240515"><ele>197.00000000000003</ele><time>2026-03-28T11:27:20Z</time></trkpt><trkpt lat="36.82579270059219" lon="-4.500440288506116"><ele>197.0</ele><time>2026-03-28T11:27:22Z</time></trkpt><trkpt lat="36.825853344610714" lon="-4.5004117929647185"><ele>200.33333333333334</ele><time>2026-03-28T11:27:24Z</time></trkpt><trkpt lat="36.82593900681116" lon="-4.500439670194939"><ele>203.66666666666669</ele><time>2026-03-28T11:27:26Z</time></trkpt><trkpt lat="36.825994940676615" lon="-4.500524451219072"><ele>207.0</ele><time>2026-03-28T11:27:28Z</time></trkpt><trkpt lat="36.8260509218436" lon="-4.500576932092612"><ele>210.33333333333331</ele><time>2026-03-28T11:27:30Z</time></trkpt><trkpt lat="36.82611827942789" lon="-4.500643258078303"><ele>213.66666666666666</ele><time>2026-03-28T11:27:33Z</time></trkpt><trkpt lat="36.82619091540661" lon="-4.500725029380258"><ele>217.0</ele><time>2026-03-28T11:27:36Z</time></trkpt><trkpt lat="36.82622028306424" lon="-4.50080491133327"><ele>217.16666666666666</ele><time>2026-03-28T11:27:38Z</time></trkpt><trkpt lat="36.826275766867994" lon="-4.50088112366606"><ele>217.33333333333331</ele><time>2026-03-28T11:27:40Z</time></trkpt><trkpt lat="36.826317723477445" lon="-4.500977873431774"><ele>217.5</ele><time>2026-03-28T11:27:42Z</time></trkpt><trkpt lat="36.82635621810317" lon="-4.501062519174432"><ele>217.66666666666669</ele><time>2026-03-28T11:27:44Z</time></trkpt><trkpt lat="36.82640321344311" lon="-4.501129911838365"><ele>217.83333333333334</ele><time>2026-03-28T11:27:46Z</time></trkpt><trkpt lat="36.826483871296396" lon="-4.501178334488836"><ele>218.0</ele><time>2026-03-28T11:27:49Z</time></trkpt><trkpt lat="36.8265658673893" lon="-4.501197556087145"><ele>218.00000000000003</ele><time>2026-03-28T11:27:52Z</time></trkpt><trkpt lat="36.82663171574658" lon="-4.501159023584423"><ele>218.0</ele><time>2026-03-28T11:27:54Z</time></trkpt><trkpt lat="36.826717633333686" lon="-4.501143760703981"><ele>218.0</ele><time>2026-03-28T11:27:56Z</time></trkpt><trkpt lat="36.826815151780494" lon="-4.501129535307769"><ele>218.0</ele><time>2026-03-28T11:27:58Z</time></trkpt><trkpt lat="36.826900613598056" lon="-4.501124603172004"><ele>218.00000000000003</ele><time>2026-03-28T11:28:00Z</time></trkpt><trkpt lat="36.82699165909322" lon="-4.501133229034307"><ele>218.0</ele><time>2026-03-28T11:28:02Z</time></trkpt><trkpt lat="36.82708866857508" lon="-4.501131172450909"><ele>219.2</ele><time>2026-03-28T11:28:04Z</time></trkpt><trkpt lat="36.82718608042503" lon="-4.501067698388773"><ele>220.4</ele><time>2026-03-28T11:28:06Z</time></trkpt><trkpt lat="36.82728945095905" lon="-4.501042994050281"><ele>221.59999999999997</ele><time>2026-03-28T11:28:08Z</time></trkpt><trkpt lat="36.82737755630864" lon="-4.501014569725636"><ele>222.79999999999998</ele><time>2026-03-28T11:28:10Z</time></trkpt><trkpt lat="36.82744616554791" lon="-4.5009635879186005"><ele>224.0</ele><time>2026-03-28T11:28:12Z</time></trkpt><trkpt lat="36.82751276290466" lon="-4.500904058694935"><ele>224.0</ele><time>2026-03-28T11:28:15Z</time></trkpt><trkpt lat="36.82758578201674" lon="-4.500794386979519"><ele>223.99999999999997</ele><time>2026-03-28T11:28:17Z</time></trkpt><trkpt lat="36.82764185995338" lon="-4.500726501881303"><ele>223.99999999999997</ele><time>2026-03-28T11:28:18Z</time></trkpt><trkpt lat="36.827729978988906" lon="-4.500625728893689"><ele>224.0</ele><time>2026-03-28T11:28:20Z</time></trkpt><trkpt lat="36.82778651369281" lon="-4.500585454604778"><ele>224.0</ele><time>2026-03-28T11:28:21Z</time></trkpt><trkpt lat="36.82787026857398" lon="-4.500522119579492"><ele>224.0</ele><time>2026-03-28T11:28:23Z</time></trkpt><trkpt lat="36.82793983199955" lon="-4.500450095176739"><ele>223.99999999999997</ele><time>2026-03-28T11:28:25Z</time></trkpt><trkpt lat="36.82799406848415" lon="-4.500359894949115"><ele>223.99999999999997</ele><time>2026-03-28T11:28:27Z</time></trkpt><trkpt lat="36.828075330636246" lon="-4.500252263144087"><ele>224.0</ele><time>2026-03-28T11:28:29Z</time></trkpt><trkpt lat="36.82818782000056" lon="-4.50018882827"><ele>224.0</ele><time>2026-03-28T11:28:31Z</time></trkpt><trkpt lat="36.82824953311244" lon="-4.50015724566775"><ele>224.0</ele><time>2026-03-28T11:28:32Z</time></trkpt><trkpt lat="36.828354741111774" lon="-4.500082797410532"><ele>223.99999999999997</ele><time>2026-03-28T11:28:33.999Z</time></trkpt><trkpt lat="36.82840655060446" lon="-4.500036491002558"><ele>223.99999999999997</ele><time>2026-03-28T11:28:34.999Z</time></trkpt><trkpt lat="36.82848597237122" lon="-4.499940235096755"><ele>224.0</ele><time>2026-03-28T11:28:36.999Z</time></trkpt><trkpt lat="36.828541065347146" lon="-4.499814260349808"><ele>224.0</ele><time>2026-03-28T11:28:38.999Z</time></trkpt><trkpt lat="36.82856481314103" lon="-4.4997401678738775"><ele>225.6</ele><time>2026-03-28T11:28:39.999Z</time></trkpt><trkpt lat="36.828615651861774" lon="-4.499603668294008"><ele>227.2</ele><time>2026-03-28T11:28:41.999Z</time></trkpt><trkpt lat="36.82866699006382" lon="-4.499474266457154"><ele>228.79999999999998</ele><time>2026-03-28T11:28:43.999Z</time></trkpt><trkpt lat="36.82871000362668" lon="-4.499357603055669"><ele>230.39999999999998</ele><time>2026-03-28T11:28:45.999Z</time></trkpt><trkpt lat="36.82873238080641" lon="-4.499273152167734"><ele>232.0</ele><time>2026-03-28T11:28:47.999Z</time></trkpt><trkpt lat="36.828739446919286" lon="-4.499185084764003"><ele>232.0</ele><time>2026-03-28T11:28:49.999Z</time></trkpt><trkpt lat="36.82872442493556" lon="-4.499082694391693"><ele>232.0</ele><time>2026-03-28T11:28:51.999Z</time></trkpt><trkpt lat="36.82873239342824" lon="-4.498968256981939"><ele>232.0</ele><time>2026-03-28T11:28:53.999Z</time></trkpt><trkpt lat="36.82879396659681" lon="-4.498850622412048"><ele>232.0</ele><time>2026-03-28T11:28:55.999Z</time></trkpt><trkpt lat="36.82888182496187" lon="-4.498767128903363"><ele>232.0</ele><time>2026-03-28T11:28:57.999Z</time></trkpt><trkpt lat="36.8289845469034" lon="-4.498688325315872"><ele>232.83333333333331</ele><time>2026-03-28T11:28:59.999Z</time></trkpt><trkpt lat="36.829085577679066" lon="-4.498606723019879"><ele>233.66666666666666</ele><time>2026-03-28T11:29:01.999Z</time></trkpt><trkpt lat="36.82913857218491" lon="-4.498562262716338"><ele>234.5</ele><time>2026-03-28T11:29:02.999Z</time></trkpt><trkpt lat="36.82918689161825" lon="-4.498507712471996"><ele>235.33333333333331</ele><time>2026-03-28T11:29:03.999Z</time></trkpt><trkpt lat="36.829231888668026" lon="-4.4984511732248995"><ele>236.16666666666666</ele><time>2026-03-28T11:29:04.999Z</time></trkpt><trkpt lat="36.82930537668034" lon="-4.4983365061629375"><ele>237.0</ele><time>2026-03-28T11:29:06.999Z</time></trkpt><trkpt lat="36.82934880911863" lon="-4.498269211133486"><ele>237.0</ele><time>2026-03-28T11:29:08.999Z</time></trkpt><trkpt lat="36.829405273758645" lon="-4.4981887375554175"><ele>237.0</ele><time>2026-03-28T11:29:10.999Z</time></trkpt><trkpt lat="36.82947383444442" lon="-4.498073943360158"><ele>237.0</ele><time>2026-03-28T11:29:12.999Z</time></trkpt><trkpt lat="36.82952393370144" lon="-4.498024831035447"><ele>237.0</ele><time>2026-03-28T11:29:13.999Z</time></trkpt><trkpt lat="36.82958639196592" lon="-4.4979925044348406"><ele>237.0</ele><time>2026-03-28T11:29:14.999Z</time></trkpt><trkpt lat="36.82964363023293" lon="-4.497938718602201"><ele>237.0</ele><time>2026-03-28T11:29:15.999Z</time></trkpt><trkpt lat="36.829707189545395" lon="-4.497892085669311"><ele>240.39999999999998</ele><time>2026-03-28T11:29:16.999Z</time></trkpt><trkpt lat="36.829767071364095" lon="-4.497827111381913"><ele>243.79999999999998</ele><time>2026-03-28T11:29:17.999Z</time></trkpt><trkpt lat="36.82982440627763" lon="-4.497747455684585"><ele>247.2</ele><time>2026-03-28T11:29:18.999Z</time></trkpt><trkpt lat="36.829890802452915" lon="-4.497661871366568"><ele>250.6</ele><time>2026-03-28T11:29:19.999Z</time></trkpt><trkpt lat="36.82994927133765" lon="-4.497552821503426"><ele>254.0</ele><time>2026-03-28T11:29:21Z</time></trkpt><trkpt lat="36.83001063507168" lon="-4.497451423563604"><ele>254.00000000000003</ele><time>2026-03-28T11:29:22Z</time></trkpt><trkpt lat="36.830065510919034" lon="-4.497352941157071"><ele>254.0</ele><time>2026-03-28T11:29:23Z</time></trkpt><trkpt lat="36.830138460632334" lon="-4.497278973618238"><ele>254.0</ele><time>2026-03-28T11:29:24Z</time></trkpt><trkpt lat="36.83020344551244" lon="-4.497240514672625"><ele>254.0</ele><time>2026-03-28T11:29:25Z</time></trkpt><trkpt lat="36.83027066304036" lon="-4.497191701494213"><ele>254.00000000000003</ele><time>2026-03-28T11:29:27Z</time></trkpt><trkpt lat="36.830237183490695" lon="-4.497098721181397"><ele>254.0</ele><time>2026-03-28T11:29:29Z</time></trkpt><trkpt lat="36.830131027672245" lon="-4.497126821219631"><ele>254.00000000000003</ele><time>2026-03-28T11:29:30Z</time></trkpt><trkpt lat="36.83006442176615" lon="-4.497115279270604"><ele>254.0</ele><time>2026-03-28T11:29:31Z</time></trkpt><trkpt lat="36.82999946960154" lon="-4.497110569476466"><ele>254.0</ele><time>2026-03-28T11:29:32Z</time></trkpt><trkpt lat="36.82993722135462" lon="-4.497140805536745"><ele>254.0</ele><time>2026-03-28T11:29:33Z</time></trkpt><trkpt lat="36.82987917720247" lon="-4.497177951166541"><ele>254.00000000000003</ele><time>2026-03-28T11:29:34Z</time></trkpt><trkpt lat="36.829759290042794" lon="-4.497209934349123"><ele>254.0</ele><time>2026-03-28T11:29:36Z</time></trkpt><trkpt lat="36.829697384409705" lon="-4.497171328118327"><ele>254.0</ele><time>2026-03-28T11:29:37Z</time></trkpt><trkpt lat="36.82964489953888" lon="-4.497098186332888"><ele>253.99999999999997</ele><time>2026-03-28T11:29:38Z</time></trkpt><trkpt lat="36.829602768304206" lon="-4.4969886585168375"><ele>253.99999999999997</ele><time>2026-03-28T11:29:39Z</time></trkpt><trkpt lat="36.82956227219912" lon="-4.496879738369229"><ele>254.0</ele><time>2026-03-28T11:29:40Z</time></trkpt><trkpt lat="36.829520232784496" lon="-4.496770014546869"><ele>254.0</ele><time>2026-03-28T11:29:41Z</time></trkpt><trkpt lat="36.829475655141344" lon="-4.496663692838022"><ele>257.2</ele><time>2026-03-28T11:29:42Z</time></trkpt><trkpt lat="36.82943862056142" lon="-4.496562511433848"><ele>260.4</ele><time>2026-03-28T11:29:43Z</time></trkpt><trkpt lat="36.829419880594656" lon="-4.4964575481683395"><ele>263.6</ele><time>2026-03-28T11:29:44Z</time></trkpt><trkpt lat="36.82941777840344" lon="-4.496349184776444"><ele>266.8</ele><time>2026-03-28T11:29:45Z</time></trkpt><trkpt lat="36.829397209307764" lon="-4.496254392374427"><ele>270.0</ele><time>2026-03-28T11:29:46Z</time></trkpt><trkpt lat="36.829319040824586" lon="-4.496149827351776"><ele>273.0</ele><time>2026-03-28T11:29:48Z</time></trkpt><trkpt lat="36.82920627399394" lon="-4.4961724527611295"><ele>276.0</ele><time>2026-03-28T11:29:50Z</time></trkpt><trkpt lat="36.82913087205151" lon="-4.496187924812272"><ele>279.0</ele><time>2026-03-28T11:29:51Z</time></trkpt><trkpt lat="36.829050992470926" lon="-4.496180247292736"><ele>282.0</ele><time>2026-03-28T11:29:52Z</time></trkpt><trkpt lat="36.82895832525857" lon="-4.496179316528041"><ele>285.0</ele><time>2026-03-28T11:29:53Z</time></trkpt><trkpt lat="36.82886969166527" lon="-4.496168948427827"><ele>285.0</ele><time>2026-03-28T11:29:54Z</time></trkpt><trkpt lat="36.828783243600874" lon="-4.496168657548742"><ele>285.0</ele><time>2026-03-28T11:29:55Z</time></trkpt><trkpt lat="36.82870389525158" lon="-4.496146073730553"><ele>285.0</ele><time>2026-03-28T11:29:56Z</time></trkpt><trkpt lat="36.828620283053056" lon="-4.49612750017199"><ele>285.0</ele><time>2026-03-28T11:29:57Z</time></trkpt><trkpt lat="36.82853388358914" lon="-4.496083766694891"><ele>285.0</ele><time>2026-03-28T11:29:58Z</time></trkpt><trkpt lat="36.828444409412775" lon="-4.496044153861561"><ele>285.0</ele><time>2026-03-28T11:29:59Z</time></trkpt><trkpt lat="36.8283467650536" lon="-4.496021363675416"><ele>283.2</ele><time>2026-03-28T11:30:00Z</time></trkpt><trkpt lat="36.828251616810405" lon="-4.49600366451847"><ele>281.4</ele><time>2026-03-28T11:30:01Z</time></trkpt><trkpt lat="36.82817615754296" lon="-4.495983270261393"><ele>279.6</ele><time>2026-03-28T11:30:02Z</time></trkpt><trkpt lat="36.828098294480206" lon="-4.495916912924105"><ele>277.8</ele><time>2026-03-28T11:30:04Z</time></trkpt><trkpt lat="36.828129151595355" lon="-4.495779077799671"><ele>276.0</ele><time>2026-03-28T11:30:06Z</time></trkpt><trkpt lat="36.82819026033629" lon="-4.495713268072787"><ele>276.0</ele><time>2026-03-28T11:30:07Z</time></trkpt><trkpt lat="36.8282587355505" lon="-4.495647816128357"><ele>276.0</ele><time>2026-03-28T11:30:08Z</time></trkpt><trkpt lat="36.828322056759866" lon="-4.4955746415832"><ele>276.0</ele><time>2026-03-28T11:30:09Z</time></trkpt><trkpt lat="36.8283759800151" lon="-4.495483644295342"><ele>276.0</ele><time>2026-03-28T11:30:10Z</time></trkpt><trkpt lat="36.82845688695054" lon="-4.49542528839636"><ele>276.0</ele><time>2026-03-28T11:30:11Z</time></trkpt><trkpt lat="36.82855498373844" lon="-4.495401772591961"><ele>280.8</ele><time>2026-03-28T11:30:12Z</time></trkpt><trkpt lat="36.82864530364249" lon="-4.495370312265731"><ele>285.6</ele><time>2026-03-28T11:30:13Z</time></trkpt><trkpt lat="36.82873375208206" lon="-4.4953209102114595"><ele>290.4</ele><time>2026-03-28T11:30:14Z</time></trkpt><trkpt lat="36.828812895473035" lon="-4.495290703297536"><ele>295.2</ele><time>2026-03-28T11:30:15Z</time></trkpt><trkpt lat="36.82888143109507" lon="-4.495258738252474"><ele>300.0</ele><time>2026-03-28T11:30:16Z</time></trkpt><trkpt lat="36.82895663729486" lon="-4.4951591290797355"><ele>300.0</ele><time>2026-03-28T11:30:18Z</time></trkpt><trkpt lat="36.82890131551043" lon="-4.495057392848314"><ele>300.0</ele><time>2026-03-28T11:30:20Z</time></trkpt><trkpt lat="36.828831417972886" lon="-4.495060615449536"><ele>300.0</ele><time>2026-03-28T11:30:21Z</time></trkpt><trkpt lat="36.8287842282277" lon="-4.495004301351014"><ele>300.0</ele><time>2026-03-28T11:30:22Z</time></trkpt><trkpt lat="36.82870077727682" lon="-4.49486049607861"><ele>300.0</ele><time>2026-03-28T11:30:24Z</time></trkpt><trkpt lat="36.82873227177264" lon="-4.494743993546703"><ele>300.0</ele><time>2026-03-28T11:30:25Z</time></trkpt><trkpt lat="36.82873104322391" lon="-4.494647320311835"><ele>300.0</ele><time>2026-03-28T11:30:26Z</time></trkpt><trkpt lat="36.82861438867234" lon="-4.494588905853102"><ele>300.0</ele><time>2026-03-28T11:30:28Z</time></trkpt><trkpt lat="36.828523433350455" lon="-4.494465364524797"><ele>300.0</ele><time>2026-03-28T11:30:30Z</time></trkpt><trkpt lat="36.82852629220124" lon="-4.49430176476401"><ele>298.8333333333333</ele><time>2026-03-28T11:30:32Z</time></trkpt><trkpt lat="36.82851898011925" lon="-4.494201363228797"><ele>297.6666666666667</ele><time>2026-03-28T11:30:33Z</time></trkpt><trkpt lat="36.828462735250326" lon="-4.494143662432556"><ele>296.5</ele><time>2026-03-28T11:30:34Z</time></trkpt><trkpt lat="36.82840960367534" lon="-4.49408221072266"><ele>295.33333333333337</ele><time>2026-03-28T11:30:35Z</time></trkpt><trkpt lat="36.828333541202696" lon="-4.494048302611052"><ele>294.1666666666667</ele><time>2026-03-28T11:30:36Z</time></trkpt><trkpt lat="36.82827096306264" lon="-4.493987247682166"><ele>293.0</ele><time>2026-03-28T11:30:37Z</time></trkpt><trkpt lat="36.82820968210168" lon="-4.493910629839326"><ele>293.0</ele><time>2026-03-28T11:30:38Z</time></trkpt><trkpt lat="36.828185878050235" lon="-4.493801680376968"><ele>293.0</ele><time>2026-03-28T11:30:39Z</time></trkpt><trkpt lat="36.82819828739839" lon="-4.49368358955804"><ele>293.0</ele><time>2026-03-28T11:30:40Z</time></trkpt><trkpt lat="36.828240771727465" lon="-4.493578809820539"><ele>293.0</ele><time>2026-03-28T11:30:41Z</time></trkpt><trkpt lat="36.8282741683009" lon="-4.493477998320438"><ele>293.0</ele><time>2026-03-28T11:30:42Z</time></trkpt><trkpt lat="36.82831881435938" lon="-4.493394187331382"><ele>293.0</ele><time>2026-03-28T11:30:43Z</time></trkpt><trkpt lat="36.82836605509866" lon="-4.493331532205484"><ele>294.33333333333337</ele><time>2026-03-28T11:30:44Z</time></trkpt><trkpt lat="36.82840894413099" lon="-4.493261809277399"><ele>295.6666666666667</ele><time>2026-03-28T11:30:45Z</time></trkpt><trkpt lat="36.82849047512653" lon="-4.49325027570763"><ele>297.0</ele><time>2026-03-28T11:30:46Z</time></trkpt><trkpt lat="36.828557943578645" lon="-4.493221442693662"><ele>298.3333333333333</ele><time>2026-03-28T11:30:47Z</time></trkpt><trkpt lat="36.82861401944883" lon="-4.493174261783114"><ele>299.66666666666663</ele><time>2026-03-28T11:30:48Z</time></trkpt><trkpt lat="36.828623819891355" lon="-4.492989999987499"><ele>301.0</ele><time>2026-03-28T11:30:50Z</time></trkpt><trkpt lat="36.82862795534275" lon="-4.492896993726513"><ele>303.16666666666663</ele><time>2026-03-28T11:30:51Z</time></trkpt><trkpt lat="36.82866735306785" lon="-4.4928342569712605"><ele>305.3333333333333</ele><time>2026-03-28T11:30:51.999Z</time></trkpt><trkpt lat="36.82874952175366" lon="-4.49280721221333"><ele>307.5</ele><time>2026-03-28T11:30:52.999Z</time></trkpt><trkpt lat="36.82881815491939" lon="-4.492744361487201"><ele>309.6666666666667</ele><time>2026-03-28T11:30:53.999Z</time></trkpt><trkpt lat="36.82886819384272" lon="-4.492672258554416"><ele>311.83333333333337</ele><time>2026-03-28T11:30:54.999Z</time></trkpt><trkpt lat="36.82890049607937" lon="-4.49259176723588"><ele>314.0</ele><time>2026-03-28T11:30:55.999Z</time></trkpt><trkpt lat="36.82893005538849" lon="-4.492514538170095"><ele>314.0</ele><time>2026-03-28T11:30:56.999Z</time></trkpt><trkpt lat="36.82896136995296" lon="-4.4924339930449015"><ele>314.0</ele><time>2026-03-28T11:30:57.999Z</time></trkpt><trkpt lat="36.829015167537996" lon="-4.492326192479094"><ele>314.0</ele><time>2026-03-28T11:30:59.999Z</time></trkpt><trkpt lat="36.82907475421784" lon="-4.4922541684684125"><ele>314.0</ele><time>2026-03-28T11:31:01.999Z</time></trkpt><trkpt lat="36.82918670354154" lon="-4.492199696985368"><ele>314.0</ele><time>2026-03-28T11:31:03.999Z</time></trkpt><trkpt lat="36.82925952903274" lon="-4.492200656278972"><ele>314.0</ele><time>2026-03-28T11:31:04.999Z</time></trkpt><trkpt lat="36.82933369355499" lon="-4.492169767482483"><ele>313.0</ele><time>2026-03-28T11:31:05.999Z</time></trkpt><trkpt lat="36.82940471670553" lon="-4.492154570454828"><ele>312.0</ele><time>2026-03-28T11:31:06.999Z</time></trkpt><trkpt lat="36.829473289458186" lon="-4.492129479927908"><ele>311.0</ele><time>2026-03-28T11:31:07.999Z</time></trkpt><trkpt lat="36.82955117401327" lon="-4.492093178226069"><ele>310.0</ele><time>2026-03-28T11:31:08.999Z</time></trkpt><trkpt lat="36.82960150071277" lon="-4.491998756167837"><ele>309.0</ele><time>2026-03-28T11:31:09.999Z</time></trkpt><trkpt lat="36.82966958363227" lon="-4.491955911126635"><ele>308.0</ele><time>2026-03-28T11:31:10.999Z</time></trkpt><trkpt lat="36.82973301772589" lon="-4.491913939173624"><ele>308.0</ele><time>2026-03-28T11:31:11.999Z</time></trkpt><trkpt lat="36.82979284016132" lon="-4.49187022143853"><ele>308.0</ele><time>2026-03-28T11:31:12.999Z</time></trkpt><trkpt lat="36.82985632031654" lon="-4.491835235901375"><ele>308.0</ele><time>2026-03-28T11:31:13.999Z</time></trkpt><trkpt lat="36.82992028612056" lon="-4.491790994302474"><ele>308.0</ele><time>2026-03-28T11:31:14.999Z</time></trkpt><trkpt lat="36.8299875928745" lon="-4.491737984898075"><ele>308.0</ele><time>2026-03-28T11:31:15.999Z</time></trkpt><trkpt lat="36.830055834099625" lon="-4.491685694431284"><ele>308.0</ele><time>2026-03-28T11:31:16.999Z</time></trkpt><trkpt lat="36.830131889197354" lon="-4.491641672304262"><ele>309.6666666666667</ele><time>2026-03-28T11:31:17.999Z</time></trkpt><trkpt lat="36.83021169181102" lon="-4.491607382053981"><ele>311.33333333333337</ele><time>2026-03-28T11:31:18.999Z</time></trkpt><trkpt lat="36.83029517146349" lon="-4.49156821725458"><ele>313.0</ele><time>2026-03-28T11:31:19.999Z</time></trkpt><trkpt lat="36.83037534932414" lon="-4.4915292247046406"><ele>314.6666666666667</ele><time>2026-03-28T11:31:20.999Z</time></trkpt><trkpt lat="36.83045564046762" lon="-4.491493433245382"><ele>316.3333333333333</ele><time>2026-03-28T11:31:21.999Z</time></trkpt><trkpt lat="36.83053589972022" lon="-4.491464621061503"><ele>318.0</ele><time>2026-03-28T11:31:22.999Z</time></trkpt><trkpt lat="36.83062364922804" lon="-4.491447411259944"><ele>318.0</ele><time>2026-03-28T11:31:23.999Z</time></trkpt><trkpt lat="36.83070811952028" lon="-4.4914574607346935"><ele>318.0</ele><time>2026-03-28T11:31:24.999Z</time></trkpt><trkpt lat="36.83079132894617" lon="-4.491462567400678"><ele>318.0</ele><time>2026-03-28T11:31:25.999Z</time></trkpt><trkpt lat="36.83087177421966" lon="-4.4914555533738705"><ele>318.0</ele><time>2026-03-28T11:31:27Z</time></trkpt><trkpt lat="36.830952591792794" lon="-4.491421878373849"><ele>318.0</ele><time>2026-03-28T11:31:28Z</time></trkpt><trkpt lat="36.83100506901123" lon="-4.491351368156859"><ele>318.0</ele><time>2026-03-28T11:31:29Z</time></trkpt><trkpt lat="36.83107482876138" lon="-4.491318662249848"><ele>318.5</ele><time>2026-03-28T11:31:30Z</time></trkpt><trkpt lat="36.831143432332404" lon="-4.4912886531909795"><ele>319.0</ele><time>2026-03-28T11:31:31Z</time></trkpt><trkpt lat="36.831215702131125" lon="-4.49128674472334"><ele>319.5</ele><time>2026-03-28T11:31:32Z</time></trkpt><trkpt lat="36.831292765776205" lon="-4.491287336017365"><ele>320.0</ele><time>2026-03-28T11:31:33Z</time></trkpt><trkpt lat="36.83136542371375" lon="-4.491346935823594"><ele>320.5</ele><time>2026-03-28T11:31:34Z</time></trkpt><trkpt lat="36.83144359504436" lon="-4.491403849542134"><ele>321.0</ele><time>2026-03-28T11:31:35Z</time></trkpt><trkpt lat="36.83151981349485" lon="-4.491463740922409"><ele>321.0</ele><time>2026-03-28T11:31:36Z</time></trkpt><trkpt lat="36.831590453173405" lon="-4.491519858315213"><ele>321.0</ele><time>2026-03-28T11:31:37Z</time></trkpt><trkpt lat="36.831652377508235" lon="-4.491568434487154"><ele>321.0</ele><time>2026-03-28T11:31:38Z</time></trkpt><trkpt lat="36.83175404578727" lon="-4.491624704197299"><ele>321.0</ele><time>2026-03-28T11:31:40Z</time></trkpt><trkpt lat="36.831819464050525" lon="-4.49160645311031"><ele>321.0</ele><time>2026-03-28T11:31:42Z</time></trkpt><trkpt lat="36.83180413339364" lon="-4.49147880093386"><ele>321.0</ele><time>2026-03-28T11:31:44Z</time></trkpt><trkpt lat="36.83177607026242" lon="-4.491332350036375"><ele>320.3333333333333</ele><time>2026-03-28T11:31:46Z</time></trkpt><trkpt lat="36.83176572000919" lon="-4.491175018860651"><ele>319.6666666666667</ele><time>2026-03-28T11:31:48Z</time></trkpt><trkpt lat="36.83176542638011" lon="-4.4910849151408225"><ele>319.0</ele><time>2026-03-28T11:31:49Z</time></trkpt><trkpt lat="36.83176900872875" lon="-4.490988014666896"><ele>318.33333333333337</ele><time>2026-03-28T11:31:50Z</time></trkpt><trkpt lat="36.83178063875119" lon="-4.490895403174672"><ele>317.6666666666667</ele><time>2026-03-28T11:31:51Z</time></trkpt><trkpt lat="36.831813865533874" lon="-4.490796454502055"><ele>317.0</ele><time>2026-03-28T11:31:52Z</time></trkpt><trkpt lat="36.83185463285506" lon="-4.490694672056787"><ele>317.0</ele><time>2026-03-28T11:31:53Z</time></trkpt><trkpt lat="36.83190873291046" lon="-4.490599830252986"><ele>317.0</ele><time>2026-03-28T11:31:54Z</time></trkpt><trkpt lat="36.83195841979274" lon="-4.4905253262681075"><ele>317.0</ele><time>2026-03-28T11:31:55Z</time></trkpt><trkpt lat="36.83202121345625" lon="-4.490475882189415"><ele>317.0</ele><time>2026-03-28T11:31:56Z</time></trkpt><trkpt lat="36.83209898223236" lon="-4.490473348012311"><ele>317.0</ele><time>2026-03-28T11:31:57Z</time></trkpt><trkpt lat="36.832172045828585" lon="-4.4904776698301285"><ele>317.0</ele><time>2026-03-28T11:31:58Z</time></trkpt><trkpt lat="36.832245422024926" lon="-4.490506303566275"><ele>317.0</ele><time>2026-03-28T11:31:59Z</time></trkpt><trkpt lat="36.832314332577475" lon="-4.490533138583694"><ele>317.0</ele><time>2026-03-28T11:32:00Z</time></trkpt><trkpt lat="36.83242933280291" lon="-4.490564408898514"><ele>317.0</ele><time>2026-03-28T11:32:02Z</time></trkpt><trkpt lat="36.832496845295616" lon="-4.490556451055653"><ele>317.0</ele><time>2026-03-28T11:32:03Z</time></trkpt><trkpt lat="36.83257368170615" lon="-4.490511154731078"><ele>317.0</ele><time>2026-03-28T11:32:04Z</time></trkpt><trkpt lat="36.832651739073995" lon="-4.490446979102955"><ele>317.0</ele><time>2026-03-28T11:32:05Z</time></trkpt><trkpt lat="36.832738901073746" lon="-4.490380907824473"><ele>314.4</ele><time>2026-03-28T11:32:06Z</time></trkpt><trkpt lat="36.83283469917184" lon="-4.49031647680588"><ele>311.79999999999995</ele><time>2026-03-28T11:32:07Z</time></trkpt><trkpt lat="36.83293676394121" lon="-4.490280080247682"><ele>309.2</ele><time>2026-03-28T11:32:08Z</time></trkpt><trkpt lat="36.833039105012254" lon="-4.490219432269831"><ele>306.59999999999997</ele><time>2026-03-28T11:32:09Z</time></trkpt><trkpt lat="36.83314563436332" lon="-4.490158436623579"><ele>304.0</ele><time>2026-03-28T11:32:10Z</time></trkpt><trkpt lat="36.83325289143911" lon="-4.490089716478613"><ele>304.0</ele><time>2026-03-28T11:32:11Z</time></trkpt><trkpt lat="36.83336380369849" lon="-4.490021378857743"><ele>304.0</ele><time>2026-03-28T11:32:12Z</time></trkpt><trkpt lat="36.833458849461394" lon="-4.4899495930954325"><ele>304.0</ele><time>2026-03-28T11:32:13Z</time></trkpt><trkpt lat="36.833545174739946" lon="-4.489868447234527"><ele>304.0</ele><time>2026-03-28T11:32:14Z</time></trkpt><trkpt lat="36.83362464811193" lon="-4.489803168271279"><ele>304.0</ele><time>2026-03-28T11:32:15Z</time></trkpt><trkpt lat="36.83369576056723" lon="-4.4897476745722"><ele>306.4</ele><time>2026-03-28T11:32:16Z</time></trkpt><trkpt lat="36.833782876710266" lon="-4.489698332442243"><ele>308.79999999999995</ele><time>2026-03-28T11:32:17Z</time></trkpt><trkpt lat="36.833875431476315" lon="-4.489661712129992"><ele>311.20000000000005</ele><time>2026-03-28T11:32:18Z</time></trkpt><trkpt lat="36.83396426045657" lon="-4.489622025026793"><ele>313.6</ele><time>2026-03-28T11:32:19Z</time></trkpt><trkpt lat="36.83404478854058" lon="-4.489556362704903"><ele>316.0</ele><time>2026-03-28T11:32:20Z</time></trkpt><trkpt lat="36.83413128320713" lon="-4.4894974689104"><ele>318.4</ele><time>2026-03-28T11:32:21Z</time></trkpt><trkpt lat="36.834214012851454" lon="-4.4894456975429495"><ele>320.8</ele><time>2026-03-28T11:32:22Z</time></trkpt><trkpt lat="36.83430154185876" lon="-4.4894063638646315"><ele>323.2</ele><time>2026-03-28T11:32:23Z</time></trkpt><trkpt lat="36.83438672242265" lon="-4.489343688611729"><ele>325.59999999999997</ele><time>2026-03-28T11:32:24Z</time></trkpt><trkpt lat="36.834466461780586" lon="-4.489265910951924"><ele>328.0</ele><time>2026-03-28T11:32:25Z</time></trkpt><trkpt lat="36.83454127209507" lon="-4.489182562573526"><ele>329.0</ele><time>2026-03-28T11:32:26Z</time></trkpt><trkpt lat="36.8346113719854" lon="-4.4891112436836496"><ele>330.0</ele><time>2026-03-28T11:32:27Z</time></trkpt><trkpt lat="36.834667734326956" lon="-4.489033423258457"><ele>331.0</ele><time>2026-03-28T11:32:28Z</time></trkpt><trkpt lat="36.83467027133454" lon="-4.488927789277367"><ele>332.0</ele><time>2026-03-28T11:32:29Z</time></trkpt><trkpt lat="36.83466078139771" lon="-4.488828003971904"><ele>333.0</ele><time>2026-03-28T11:32:30Z</time></trkpt><trkpt lat="36.834670482758156" lon="-4.488716812036367"><ele>334.0</ele><time>2026-03-28T11:32:31Z</time></trkpt><trkpt lat="36.83465322036168" lon="-4.488612823044763"><ele>335.79999999999995</ele><time>2026-03-28T11:32:32Z</time></trkpt><trkpt lat="36.83465322036581" lon="-4.488520000308832"><ele>337.59999999999997</ele><time>2026-03-28T11:32:33Z</time></trkpt><trkpt lat="36.834624706353196" lon="-4.488396763877452"><ele>339.4</ele><time>2026-03-28T11:32:35Z</time></trkpt><trkpt lat="36.83458902855591" lon="-4.488281438037957"><ele>341.2</ele><time>2026-03-28T11:32:37Z</time></trkpt><trkpt lat="36.83459654361265" lon="-4.488139294330822"><ele>343.0</ele><time>2026-03-28T11:32:39Z</time></trkpt><trkpt lat="36.834639772659074" lon="-4.488014607557378"><ele>343.0</ele><time>2026-03-28T11:32:41Z</time></trkpt><trkpt lat="36.83469150029378" lon="-4.487886086377258"><ele>343.0</ele><time>2026-03-28T11:32:43Z</time></trkpt><trkpt lat="36.83473467936075" lon="-4.487825499270787"><ele>343.0</ele><time>2026-03-28T11:32:44Z</time></trkpt><trkpt lat="36.83476173114811" lon="-4.4877490132440245"><ele>343.0</ele><time>2026-03-28T11:32:45Z</time></trkpt><trkpt lat="36.8347857805685" lon="-4.487673569320721"><ele>343.0</ele><time>2026-03-28T11:32:46Z</time></trkpt><trkpt lat="36.83480052796405" lon="-4.487526775899117"><ele>343.0</ele><time>2026-03-28T11:32:48Z</time></trkpt><trkpt lat="36.834698628439945" lon="-4.4874540370050635"><ele>343.0</ele><time>2026-03-28T11:32:50Z</time></trkpt><trkpt lat="36.83463334703716" lon="-4.487412514123181"><ele>343.0</ele><time>2026-03-28T11:32:51Z</time></trkpt><trkpt lat="36.834567022269844" lon="-4.487384448609582"><ele>343.0</ele><time>2026-03-28T11:32:52Z</time></trkpt><trkpt lat="36.83450167121145" lon="-4.487255266900344"><ele>343.0</ele><time>2026-03-28T11:32:54Z</time></trkpt><trkpt lat="36.834499289921524" lon="-4.4871655110007405"><ele>343.0</ele><time>2026-03-28T11:32:55Z</time></trkpt><trkpt lat="36.83452602987932" lon="-4.487018379895531"><ele>342.5</ele><time>2026-03-28T11:32:57Z</time></trkpt><trkpt lat="36.83458828817784" lon="-4.486962403745755"><ele>342.0</ele><time>2026-03-28T11:32:58Z</time></trkpt><trkpt lat="36.83462536203294" lon="-4.486897849652987"><ele>341.5</ele><time>2026-03-28T11:32:59Z</time></trkpt><trkpt lat="36.83471269885693" lon="-4.486796115397529"><ele>341.0</ele><time>2026-03-28T11:33:00.999Z</time></trkpt><trkpt lat="36.8347538832696" lon="-4.486736378340597"><ele>340.5</ele><time>2026-03-28T11:33:01.999Z</time></trkpt><trkpt lat="36.83481496846546" lon="-4.486621594490174"><ele>340.0</ele><time>2026-03-28T11:33:03.999Z</time></trkpt><trkpt lat="36.834868707722904" lon="-4.486528237373129"><ele>340.0</ele><time>2026-03-28T11:33:05.999Z</time></trkpt><trkpt lat="36.83490901792089" lon="-4.4864109023762575"><ele>340.0</ele><time>2026-03-28T11:33:07.999Z</time></trkpt><trkpt lat="36.83496870701878" lon="-4.486278523145932"><ele>340.0</ele><time>2026-03-28T11:33:09.999Z</time></trkpt><trkpt lat="36.83504336443403" lon="-4.486169557252222"><ele>340.0</ele><time>2026-03-28T11:33:11.999Z</time></trkpt><trkpt lat="36.83511224506315" lon="-4.486087364724246"><ele>340.0</ele><time>2026-03-28T11:33:13.999Z</time></trkpt><trkpt lat="36.83515588105464" lon="-4.485970710161692"><ele>337.8</ele><time>2026-03-28T11:33:15.999Z</time></trkpt><trkpt lat="36.83516635627266" lon="-4.485824723372573"><ele>335.6</ele><time>2026-03-28T11:33:17.999Z</time></trkpt><trkpt lat="36.83513833812729" lon="-4.485677626086493"><ele>333.4</ele><time>2026-03-28T11:33:19.999Z</time></trkpt><trkpt lat="36.835131918103684" lon="-4.485594497901451"><ele>331.2</ele><time>2026-03-28T11:33:20.999Z</time></trkpt><trkpt lat="36.83510721894476" lon="-4.485520928788963"><ele>329.0</ele><time>2026-03-28T11:33:21.999Z</time></trkpt><trkpt lat="36.835054824082775" lon="-4.485388853840698"><ele>327.83333333333337</ele><time>2026-03-28T11:33:23.999Z</time></trkpt><trkpt lat="36.83500276842639" lon="-4.485277344250443"><ele>326.6666666666667</ele><time>2026-03-28T11:33:25.999Z</time></trkpt><trkpt lat="36.834966854221804" lon="-4.485175780368646"><ele>325.5</ele><time>2026-03-28T11:33:27.999Z</time></trkpt><trkpt lat="36.83500883227918" lon="-4.485048213442181"><ele>324.3333333333333</ele><time>2026-03-28T11:33:29.999Z</time></trkpt><trkpt lat="36.83507305006075" lon="-4.484997903853579"><ele>323.16666666666663</ele><time>2026-03-28T11:33:30.999Z</time></trkpt><trkpt lat="36.835133701601265" lon="-4.48495541291296"><ele>322.0</ele><time>2026-03-28T11:33:31.999Z</time></trkpt><trkpt lat="36.835205771865084" lon="-4.4849376431365116"><ele>325.0</ele><time>2026-03-28T11:33:33Z</time></trkpt><trkpt lat="36.83527257445951" lon="-4.484917716547746"><ele>328.0</ele><time>2026-03-28T11:33:34Z</time></trkpt><trkpt lat="36.835344247122286" lon="-4.484927103404974"><ele>331.0</ele><time>2026-03-28T11:33:35Z</time></trkpt><trkpt lat="36.83541207304722" lon="-4.484954707702926"><ele>334.0</ele><time>2026-03-28T11:33:36Z</time></trkpt><trkpt lat="36.8354801593889" lon="-4.484949010537588"><ele>337.0</ele><time>2026-03-28T11:33:37Z</time></trkpt><trkpt lat="36.83559109295289" lon="-4.484948453375559"><ele>340.0</ele><time>2026-03-28T11:33:39Z</time></trkpt><trkpt lat="36.83567487452592" lon="-4.484865535004515"><ele>340.0</ele><time>2026-03-28T11:33:41Z</time></trkpt><trkpt lat="36.835658945123726" lon="-4.484702374921122"><ele>340.0</ele><time>2026-03-28T11:33:43Z</time></trkpt><trkpt lat="36.83566037521599" lon="-4.484605874657106"><ele>340.0</ele><time>2026-03-28T11:33:44Z</time></trkpt><trkpt lat="36.83568100028908" lon="-4.484511469445013"><ele>340.0</ele><time>2026-03-28T11:33:45Z</time></trkpt><trkpt lat="36.835697350082384" lon="-4.484419333536364"><ele>340.0</ele><time>2026-03-28T11:33:46Z</time></trkpt><trkpt lat="36.835725970975695" lon="-4.484332345407876"><ele>340.0</ele><time>2026-03-28T11:33:47Z</time></trkpt><trkpt lat="36.835767901960544" lon="-4.484265102324765"><ele>341.2</ele><time>2026-03-28T11:33:48Z</time></trkpt><trkpt lat="36.83586251516693" lon="-4.484180502970563"><ele>342.4</ele><time>2026-03-28T11:33:50Z</time></trkpt><trkpt lat="36.83596080737018" lon="-4.48408612312366"><ele>343.6</ele><time>2026-03-28T11:33:52Z</time></trkpt><trkpt lat="36.836034387661215" lon="-4.484041568082085"><ele>344.8</ele><time>2026-03-28T11:33:54Z</time></trkpt><trkpt lat="36.836010001804574" lon="-4.483963164060981"><ele>346.0</ele><time>2026-03-28T11:33:56Z</time></trkpt><trkpt lat="36.83589622278684" lon="-4.483972955226427"><ele>343.4</ele><time>2026-03-28T11:33:58Z</time></trkpt><trkpt lat="36.83578322064156" lon="-4.483968736245488"><ele>340.8</ele><time>2026-03-28T11:34:00Z</time></trkpt><trkpt lat="36.83568014271916" lon="-4.484033950887839"><ele>338.2</ele><time>2026-03-28T11:34:02Z</time></trkpt><trkpt lat="36.83558808764337" lon="-4.484105092941576"><ele>335.59999999999997</ele><time>2026-03-28T11:34:04Z</time></trkpt><trkpt lat="36.83552287219821" lon="-4.484195516814806"><ele>333.0</ele><time>2026-03-28T11:34:06Z</time></trkpt><trkpt lat="36.83544758917531" lon="-4.484224195178822"><ele>333.0</ele><time>2026-03-28T11:34:08Z</time></trkpt><trkpt lat="36.83539945298594" lon="-4.484172981499657"><ele>333.0</ele><time>2026-03-28T11:34:11Z</time></trkpt><trkpt lat="36.835451212835736" lon="-4.484046980003405"><ele>333.0</ele><time>2026-03-28T11:34:12Z</time></trkpt><trkpt lat="36.83550383172355" lon="-4.48393840928849"><ele>333.0</ele><time>2026-03-28T11:34:14Z</time></trkpt><trkpt lat="36.835555334000645" lon="-4.48383480836918"><ele>333.0</ele><time>2026-03-28T11:34:16Z</time></trkpt><trkpt lat="36.83561361198878" lon="-4.483730066999645"><ele>335.59999999999997</ele><time>2026-03-28T11:34:18Z</time></trkpt><trkpt lat="36.83567902449834" lon="-4.483640301258661"><ele>338.2</ele><time>2026-03-28T11:34:20Z</time></trkpt><trkpt lat="36.83574328941958" lon="-4.483553829423906"><ele>340.8</ele><time>2026-03-28T11:34:22Z</time></trkpt><trkpt lat="36.835807782045386" lon="-4.48346705120184"><ele>343.4</ele><time>2026-03-28T11:34:24Z</time></trkpt><trkpt lat="36.83587276596767" lon="-4.483405141281567"><ele>346.0</ele><time>2026-03-28T11:34:26Z</time></trkpt><trkpt lat="36.83591371537796" lon="-4.48331706339964"><ele>345.66666666666663</ele><time>2026-03-28T11:34:28Z</time></trkpt><trkpt lat="36.83600308333801" lon="-4.483240616704479"><ele>345.3333333333333</ele><time>2026-03-28T11:34:30Z</time></trkpt><trkpt lat="36.836069863917" lon="-4.48310725736489"><ele>345.0</ele><time>2026-03-28T11:34:32Z</time></trkpt><trkpt lat="36.83610056543068" lon="-4.483030282399643"><ele>344.6666666666667</ele><time>2026-03-28T11:34:33Z</time></trkpt><trkpt lat="36.83612564154457" lon="-4.48295486892554"><ele>344.33333333333337</ele><time>2026-03-28T11:34:34Z</time></trkpt><trkpt lat="36.83614310226781" lon="-4.482873126739457"><ele>344.0</ele><time>2026-03-28T11:34:35Z</time></trkpt><trkpt lat="36.83615270195691" lon="-4.482780735020389"><ele>345.0</ele><time>2026-03-28T11:34:36Z</time></trkpt><trkpt lat="36.836148108971386" lon="-4.482683400417964"><ele>346.0</ele><time>2026-03-28T11:34:37Z</time></trkpt><trkpt lat="36.83613017662657" lon="-4.482587318736419"><ele>347.0</ele><time>2026-03-28T11:34:38Z</time></trkpt><trkpt lat="36.836120709076816" lon="-4.482488956892448"><ele>348.0</ele><time>2026-03-28T11:34:39Z</time></trkpt><trkpt lat="36.83611299007514" lon="-4.4823902760924375"><ele>349.0</ele><time>2026-03-28T11:34:40Z</time></trkpt><trkpt lat="36.83610536603976" lon="-4.482292893468781"><ele>350.0</ele><time>2026-03-28T11:34:41Z</time></trkpt><trkpt lat="36.83609629121475" lon="-4.482197932561698"><ele>350.0</ele><time>2026-03-28T11:34:42Z</time></trkpt><trkpt lat="36.836079763969124" lon="-4.482108479234693"><ele>350.0</ele><time>2026-03-28T11:34:43Z</time></trkpt><trkpt lat="36.836063485258336" lon="-4.482012961794147"><ele>350.0</ele><time>2026-03-28T11:34:44Z</time></trkpt><trkpt lat="36.8360653700503" lon="-4.481913417030647"><ele>350.0</ele><time>2026-03-28T11:34:45Z</time></trkpt><trkpt lat="36.83606092131987" lon="-4.481813786828145"><ele>350.0</ele><time>2026-03-28T11:34:46Z</time></trkpt><trkpt lat="36.83605473468137" lon="-4.481703771702064"><ele>350.0</ele><time>2026-03-28T11:34:47Z</time></trkpt><trkpt lat="36.83606818763652" lon="-4.481602771786658"><ele>351.83333333333337</ele><time>2026-03-28T11:34:48Z</time></trkpt><trkpt lat="36.836090199019566" lon="-4.481506220729745"><ele>353.6666666666667</ele><time>2026-03-28T11:34:49Z</time></trkpt><trkpt lat="36.836125579381225" lon="-4.481411370300723"><ele>355.5</ele><time>2026-03-28T11:34:50Z</time></trkpt><trkpt lat="36.83615064960167" lon="-4.4813023509733885"><ele>357.3333333333333</ele><time>2026-03-28T11:34:51Z</time></trkpt><trkpt lat="36.83618020714675" lon="-4.481189792045961"><ele>359.16666666666663</ele><time>2026-03-28T11:34:52Z</time></trkpt><trkpt lat="36.836204706889035" lon="-4.4810784665642505"><ele>361.0</ele><time>2026-03-28T11:34:53Z</time></trkpt><trkpt lat="36.83622235940537" lon="-4.480979181483983"><ele>360.5714285714286</ele><time>2026-03-28T11:34:54Z</time></trkpt><trkpt lat="36.836244476133224" lon="-4.480898712960794"><ele>360.1428571428571</ele><time>2026-03-28T11:34:55Z</time></trkpt><trkpt lat="36.83624154672166" lon="-4.480817088619489"><ele>359.7142857142857</ele><time>2026-03-28T11:34:56Z</time></trkpt><trkpt lat="36.836223682580076" lon="-4.480731713329328"><ele>359.28571428571433</ele><time>2026-03-28T11:34:57Z</time></trkpt><trkpt lat="36.836192286413244" lon="-4.480655863352275"><ele>358.8571428571429</ele><time>2026-03-28T11:34:58Z</time></trkpt><trkpt lat="36.836151845987544" lon="-4.4805847704200295"><ele>358.42857142857144</ele><time>2026-03-28T11:34:59Z</time></trkpt><trkpt lat="36.83611085048043" lon="-4.480517674836199"><ele>358.0</ele><time>2026-03-28T11:35:00Z</time></trkpt><trkpt lat="36.83611949830509" lon="-4.480421848087508"><ele>358.0</ele><time>2026-03-28T11:35:01Z</time></trkpt><trkpt lat="36.836144223822544" lon="-4.4803419960339745"><ele>358.0</ele><time>2026-03-28T11:35:01.999Z</time></trkpt><trkpt lat="36.83624054365157" lon="-4.480227812386038"><ele>358.0</ele><time>2026-03-28T11:35:03.999Z</time></trkpt><trkpt lat="36.836308026552764" lon="-4.48018305129573"><ele>358.0</ele><time>2026-03-28T11:35:04.999Z</time></trkpt><trkpt lat="36.83636168435658" lon="-4.480113516086795"><ele>358.0</ele><time>2026-03-28T11:35:05.999Z</time></trkpt><trkpt lat="36.83642558844351" lon="-4.4800537944625205"><ele>358.0</ele><time>2026-03-28T11:35:06.999Z</time></trkpt><trkpt lat="36.836497433577" lon="-4.480002918391548"><ele>358.0</ele><time>2026-03-28T11:35:07.999Z</time></trkpt><trkpt lat="36.83655250205167" lon="-4.479929256288012"><ele>358.0</ele><time>2026-03-28T11:35:08.999Z</time></trkpt><trkpt lat="36.836598695247766" lon="-4.479855272058245"><ele>358.0</ele><time>2026-03-28T11:35:09.999Z</time></trkpt><trkpt lat="36.836631273635085" lon="-4.479773842137067"><ele>358.0</ele><time>2026-03-28T11:35:10.999Z</time></trkpt><trkpt lat="36.83664958938833" lon="-4.479681162667335"><ele>358.0</ele><time>2026-03-28T11:35:11.999Z</time></trkpt><trkpt lat="36.836691959510524" lon="-4.479602345523139"><ele>358.0</ele><time>2026-03-28T11:35:12.999Z</time></trkpt><trkpt lat="36.83672390081523" lon="-4.4795154313862415"><ele>359.16666666666663</ele><time>2026-03-28T11:35:13.999Z</time></trkpt><trkpt lat="36.836761241824306" lon="-4.479428548159162"><ele>360.3333333333333</ele><time>2026-03-28T11:35:14.999Z</time></trkpt><trkpt lat="36.83678719200759" lon="-4.47933945732452"><ele>361.5</ele><time>2026-03-28T11:35:15.999Z</time></trkpt><trkpt lat="36.8368305355605" lon="-4.479260382440242"><ele>362.6666666666667</ele><time>2026-03-28T11:35:16.999Z</time></trkpt><trkpt lat="36.83687477501437" lon="-4.479177176840094"><ele>363.83333333333337</ele><time>2026-03-28T11:35:17.999Z</time></trkpt><trkpt lat="36.83691179108131" lon="-4.4790834107436845"><ele>365.0</ele><time>2026-03-28T11:35:18.999Z</time></trkpt><trkpt lat="36.83694963049111" lon="-4.4789913596643025"><ele>365.8571428571429</ele><time>2026-03-28T11:35:19.999Z</time></trkpt><trkpt lat="36.83697805396988" lon="-4.478905873972176"><ele>366.7142857142857</ele><time>2026-03-28T11:35:20.999Z</time></trkpt><trkpt lat="36.837000381104744" lon="-4.478824713652261"><ele>367.57142857142856</ele><time>2026-03-28T11:35:21.999Z</time></trkpt><trkpt lat="36.83700363926976" lon="-4.478739459563236"><ele>368.42857142857144</ele><time>2026-03-28T11:35:22.999Z</time></trkpt><trkpt lat="36.8369893240062" lon="-4.478643748795405"><ele>369.2857142857143</ele><time>2026-03-28T11:35:23.999Z</time></trkpt><trkpt lat="36.83695414641935" lon="-4.47856630178098"><ele>370.14285714285717</ele><time>2026-03-28T11:35:24.999Z</time></trkpt><trkpt lat="36.83693224659201" lon="-4.478473936434574"><ele>371.0</ele><time>2026-03-28T11:35:26.999Z</time></trkpt><trkpt lat="36.83699392507036" lon="-4.478382839513238"><ele>371.0</ele><time>2026-03-28T11:35:28.999Z</time></trkpt><trkpt lat="36.83707976056507" lon="-4.47844974220602"><ele>371.0</ele><time>2026-03-28T11:35:29.999Z</time></trkpt><trkpt lat="36.83709580121554" lon="-4.478569458809869"><ele>371.0</ele><time>2026-03-28T11:35:30.999Z</time></trkpt><trkpt lat="36.837207122960116" lon="-4.478621123088894"><ele>371.0</ele><time>2026-03-28T11:35:32.999Z</time></trkpt><trkpt lat="36.8372536001068" lon="-4.478760447988595"><ele>371.0</ele><time>2026-03-28T11:35:34.999Z</time></trkpt><trkpt lat="36.8372851054082" lon="-4.478865196700496"><ele>371.0</ele><time>2026-03-28T11:35:36.999Z</time></trkpt><trkpt lat="36.83737290438579" lon="-4.478835073957034"><ele>371.0</ele><time>2026-03-28T11:35:39Z</time></trkpt><trkpt lat="36.83736397783273" lon="-4.478703538080698"><ele>371.0</ele><time>2026-03-28T11:35:41Z</time></trkpt><trkpt lat="36.83735841628478" lon="-4.478564295104702"><ele>371.0</ele><time>2026-03-28T11:35:43Z</time></trkpt><trkpt lat="36.83744895468582" lon="-4.478473574394663"><ele>371.0</ele><time>2026-03-28T11:35:45Z</time></trkpt><trkpt lat="36.837519542177674" lon="-4.478523028252143"><ele>373.6</ele><time>2026-03-28T11:35:46Z</time></trkpt><trkpt lat="36.83757842534736" lon="-4.478448588562193"><ele>376.20000000000005</ele><time>2026-03-28T11:35:48Z</time></trkpt><trkpt lat="36.8375454643876" lon="-4.478380979704589"><ele>378.79999999999995</ele><time>2026-03-28T11:35:49Z</time></trkpt><trkpt lat="36.83759925814724" lon="-4.478252009586714"><ele>381.4</ele><time>2026-03-28T11:35:51Z</time></trkpt><trkpt lat="36.83766108363978" lon="-4.478142765364999"><ele>384.0</ele><time>2026-03-28T11:35:53Z</time></trkpt><trkpt lat="36.837742006115555" lon="-4.4780491883565325"><ele>387.4</ele><time>2026-03-28T11:35:55Z</time></trkpt><trkpt lat="36.837789206991836" lon="-4.477920295351965"><ele>390.79999999999995</ele><time>2026-03-28T11:35:57Z</time></trkpt><trkpt lat="36.83781977149245" lon="-4.47784197474351"><ele>394.20000000000005</ele><time>2026-03-28T11:35:58Z</time></trkpt><trkpt lat="36.83788549587293" lon="-4.477777499402696"><ele>397.6</ele><time>2026-03-28T11:35:59Z</time></trkpt><trkpt lat="36.83793157785609" lon="-4.4777154924296685"><ele>401.0</ele><time>2026-03-28T11:36:00Z</time></trkpt><trkpt lat="36.83799273385451" lon="-4.477574502841883"><ele>400.99999999999994</ele><time>2026-03-28T11:36:02Z</time></trkpt><trkpt lat="36.83801717535239" lon="-4.47749663062414"><ele>401.0</ele><time>2026-03-28T11:36:03Z</time></trkpt><trkpt lat="36.83803831191944" lon="-4.477410705745246"><ele>401.0</ele><time>2026-03-28T11:36:04Z</time></trkpt><trkpt lat="36.83805780885003" lon="-4.477329501261639"><ele>401.0</ele><time>2026-03-28T11:36:05Z</time></trkpt><trkpt lat="36.8380919741333" lon="-4.477213574327207"><ele>400.99999999999994</ele><time>2026-03-28T11:36:07Z</time></trkpt><trkpt lat="36.838156896058955" lon="-4.477164184471211"><ele>401.0</ele><time>2026-03-28T11:36:09Z</time></trkpt><trkpt lat="36.838215350714854" lon="-4.477270315684065"><ele>400.99999999999994</ele><time>2026-03-28T11:36:11Z</time></trkpt><trkpt lat="36.83824627807318" lon="-4.477350981538799"><ele>401.0</ele><time>2026-03-28T11:36:13Z</time></trkpt><trkpt lat="36.83829659501842" lon="-4.477284546858938"><ele>401.0</ele><time>2026-03-28T11:36:15Z</time></trkpt><trkpt lat="36.83826215156507" lon="-4.477187495658554"><ele>401.0</ele><time>2026-03-28T11:36:18Z</time></trkpt><trkpt lat="36.83825475918977" lon="-4.477093606257015"><ele>400.99999999999994</ele><time>2026-03-28T11:36:20Z</time></trkpt><trkpt lat="36.83827975595047" lon="-4.476958403756895"><ele>401.0</ele><time>2026-03-28T11:36:22Z</time></trkpt><trkpt lat="36.83833297783052" lon="-4.476826877669882"><ele>404.8</ele><time>2026-03-28T11:36:24Z</time></trkpt><trkpt lat="36.838346143420914" lon="-4.476662490249245"><ele>408.6</ele><time>2026-03-28T11:36:26Z</time></trkpt><trkpt lat="36.838317496674854" lon="-4.476564962287205"><ele>412.4</ele><time>2026-03-28T11:36:27Z</time></trkpt><trkpt lat="36.8383262355026" lon="-4.476471197741494"><ele>416.2</ele><time>2026-03-28T11:36:28Z</time></trkpt><trkpt lat="36.83834894037058" lon="-4.476374465496379"><ele>420.0</ele><time>2026-03-28T11:36:29Z</time></trkpt><trkpt lat="36.83839430491707" lon="-4.476285889157448"><ele>421.0</ele><time>2026-03-28T11:36:30Z</time></trkpt><trkpt lat="36.838359024401704" lon="-4.476191933101777"><ele>422.0</ele><time>2026-03-28T11:36:31Z</time></trkpt><trkpt lat="36.838363420728385" lon="-4.476043669622113"><ele>423.0</ele><time>2026-03-28T11:36:33Z</time></trkpt><trkpt lat="36.83842375730574" lon="-4.475977325606503"><ele>424.0</ele><time>2026-03-28T11:36:34Z</time></trkpt><trkpt lat="36.838506285187044" lon="-4.475962284442597"><ele>425.0</ele><time>2026-03-28T11:36:35Z</time></trkpt><trkpt lat="36.838583468215084" lon="-4.4759210185869245"><ele>430.49999999999994</ele><time>2026-03-28T11:36:36Z</time></trkpt><trkpt lat="36.838659666412624" lon="-4.475891176964022"><ele>436.0</ele><time>2026-03-28T11:36:37Z</time></trkpt><trkpt lat="36.83872816276012" lon="-4.475846249660537"><ele>441.5</ele><time>2026-03-28T11:36:38Z</time></trkpt><trkpt lat="36.838767591595854" lon="-4.475778405094065"><ele>447.0</ele><time>2026-03-28T11:36:39Z</time></trkpt><trkpt lat="36.83880894048906" lon="-4.475703586005223"><ele>452.49999999999994</ele><time>2026-03-28T11:36:40Z</time></trkpt><trkpt lat="36.83885943529547" lon="-4.47562899639085"><ele>458.0</ele><time>2026-03-28T11:36:41Z</time></trkpt><trkpt lat="36.8389052817904" lon="-4.475554530868341"><ele>457.99999999999994</ele><time>2026-03-28T11:36:42Z</time></trkpt><trkpt lat="36.83893894645448" lon="-4.475470183676075"><ele>458.0</ele><time>2026-03-28T11:36:43Z</time></trkpt><trkpt lat="36.83895889678626" lon="-4.47537410284899"><ele>458.0</ele><time>2026-03-28T11:36:44Z</time></trkpt><trkpt lat="36.83896577375603" lon="-4.475275657118925"><ele>458.0</ele><time>2026-03-28T11:36:45Z</time></trkpt><trkpt lat="36.83895807508018" lon="-4.475170215798116"><ele>457.99999999999994</ele><time>2026-03-28T11:36:46Z</time></trkpt><trkpt lat="36.8389268313664" lon="-4.475068995023126"><ele>458.0</ele><time>2026-03-28T11:36:47Z</time></trkpt><trkpt lat="36.83888604396888" lon="-4.474965510363876"><ele>458.66666666666663</ele><time>2026-03-28T11:36:48Z</time></trkpt><trkpt lat="36.8388479149316" lon="-4.47486077536978"><ele>459.3333333333333</ele><time>2026-03-28T11:36:49Z</time></trkpt><trkpt lat="36.838831095636934" lon="-4.474747947842906"><ele>460.0</ele><time>2026-03-28T11:36:50Z</time></trkpt><trkpt lat="36.83880443731512" lon="-4.47464533917149"><ele>460.66666666666663</ele><time>2026-03-28T11:36:51Z</time></trkpt><trkpt lat="36.8387756988342" lon="-4.474549972068735"><ele>461.3333333333333</ele><time>2026-03-28T11:36:52Z</time></trkpt><trkpt lat="36.83875753564294" lon="-4.474466789596247"><ele>462.0</ele><time>2026-03-28T11:36:53Z</time></trkpt><trkpt lat="36.838760811450214" lon="-4.474375499543965"><ele>462.0</ele><time>2026-03-28T11:36:55Z</time></trkpt><trkpt lat="36.83886503924818" lon="-4.474367554266941"><ele>462.00000000000006</ele><time>2026-03-28T11:36:57Z</time></trkpt><trkpt lat="36.83889858401541" lon="-4.474459081232581"><ele>462.00000000000006</ele><time>2026-03-28T11:36:58Z</time></trkpt><trkpt lat="36.8389377274377" lon="-4.474522698574942"><ele>462.0</ele><time>2026-03-28T11:36:59Z</time></trkpt><trkpt lat="36.83902167397138" lon="-4.474614303063941"><ele>462.0</ele><time>2026-03-28T11:37:01Z</time></trkpt><trkpt lat="36.83911272233817" lon="-4.474677672749555"><ele>462.0</ele><time>2026-03-28T11:37:03Z</time></trkpt><trkpt lat="36.839170955400725" lon="-4.4746307296763455"><ele>462.0</ele><time>2026-03-28T11:37:05Z</time></trkpt><trkpt lat="36.83915967973924" lon="-4.474548043741795"><ele>462.0</ele><time>2026-03-28T11:37:06.999Z</time></trkpt><trkpt lat="36.83912025514275" lon="-4.474437169491227"><ele>462.0</ele><time>2026-03-28T11:37:08.999Z</time></trkpt><trkpt lat="36.83907568046202" lon="-4.474288267174038"><ele>462.0</ele><time>2026-03-28T11:37:10.999Z</time></trkpt><trkpt lat="36.83905457336592" lon="-4.4741994512132415"><ele>462.0</ele><time>2026-03-28T11:37:11.999Z</time></trkpt><trkpt lat="36.839056548155256" lon="-4.474099333416278"><ele>463.8</ele><time>2026-03-28T11:37:12.999Z</time></trkpt><trkpt lat="36.83906097269779" lon="-4.473994297329589"><ele>465.6</ele><time>2026-03-28T11:37:13.999Z</time></trkpt><trkpt lat="36.839065615808124" lon="-4.473884072429797"><ele>467.40000000000003</ele><time>2026-03-28T11:37:14.999Z</time></trkpt><trkpt lat="36.8390688455996" lon="-4.473768786670256"><ele>469.20000000000005</ele><time>2026-03-28T11:37:15.999Z</time></trkpt><trkpt lat="36.83905851330237" lon="-4.473649902807488"><ele>471.0</ele><time>2026-03-28T11:37:16.999Z</time></trkpt><trkpt lat="36.83904565109011" lon="-4.47353649857962"><ele>475.0</ele><time>2026-03-28T11:37:17.999Z</time></trkpt><trkpt lat="36.83902779259026" lon="-4.473418719039501"><ele>479.0</ele><time>2026-03-28T11:37:18.999Z</time></trkpt><trkpt lat="36.839007782656445" lon="-4.473302928121477"><ele>483.0</ele><time>2026-03-28T11:37:19.999Z</time></trkpt><trkpt lat="36.838946196294216" lon="-4.473214194131189"><ele>487.0</ele><time>2026-03-28T11:37:20.999Z</time></trkpt><trkpt lat="36.838863455234254" lon="-4.47315340316003"><ele>491.0</ele><time>2026-03-28T11:37:21.999Z</time></trkpt><trkpt lat="36.83876701534767" lon="-4.473109421940569"><ele>491.0</ele><time>2026-03-28T11:37:22.999Z</time></trkpt><trkpt lat="36.838677290172704" lon="-4.4730712545545845"><ele>491.0</ele><time>2026-03-28T11:37:23.999Z</time></trkpt><trkpt lat="36.83860443297666" lon="-4.473020663590731"><ele>491.0</ele><time>2026-03-28T11:37:24.999Z</time></trkpt><trkpt lat="36.83854740347139" lon="-4.472960004020061"><ele>491.0</ele><time>2026-03-28T11:37:25.999Z</time></trkpt><trkpt lat="36.838521232265016" lon="-4.472804483029716"><ele>491.0</ele><time>2026-03-28T11:37:27.999Z</time></trkpt><trkpt lat="36.838559598253156" lon="-4.472709322557219"><ele>494.49999999999994</ele><time>2026-03-28T11:37:28.999Z</time></trkpt><trkpt lat="36.838610589731424" lon="-4.472627177766851"><ele>498.0</ele><time>2026-03-28T11:37:29.999Z</time></trkpt><trkpt lat="36.83865967650834" lon="-4.4725469803755376"><ele>501.5</ele><time>2026-03-28T11:37:30.999Z</time></trkpt><trkpt lat="36.83867821507836" lon="-4.4724607840414565"><ele>505.0</ele><time>2026-03-28T11:37:31.999Z</time></trkpt><trkpt lat="36.83865472893613" lon="-4.4723715864166795"><ele>508.49999999999994</ele><time>2026-03-28T11:37:32.999Z</time></trkpt><trkpt lat="36.83863297273244" lon="-4.47228819631811"><ele>512.0</ele><time>2026-03-28T11:37:33.999Z</time></trkpt><trkpt lat="36.83859819336115" lon="-4.4721974779840945"><ele>513.8333333333333</ele><time>2026-03-28T11:37:34.999Z</time></trkpt><trkpt lat="36.83854926592843" lon="-4.472106595675315"><ele>515.6666666666666</ele><time>2026-03-28T11:37:35.999Z</time></trkpt><trkpt lat="36.838477265959774" lon="-4.472031830243081"><ele>517.5</ele><time>2026-03-28T11:37:36.999Z</time></trkpt><trkpt lat="36.838417209849574" lon="-4.471953434341376"><ele>519.3333333333334</ele><time>2026-03-28T11:37:37.999Z</time></trkpt><trkpt lat="36.83837820813869" lon="-4.471858016921692"><ele>521.1666666666667</ele><time>2026-03-28T11:37:38.999Z</time></trkpt><trkpt lat="36.838363236918205" lon="-4.4717570515076295"><ele>523.0</ele><time>2026-03-28T11:37:39.999Z</time></trkpt><trkpt lat="36.83834876627828" lon="-4.471657485743926"><ele>519.6666666666667</ele><time>2026-03-28T11:37:40.999Z</time></trkpt><trkpt lat="36.83834210247083" lon="-4.471560480260892"><ele>516.3333333333334</ele><time>2026-03-28T11:37:41.999Z</time></trkpt><trkpt lat="36.838343531655426" lon="-4.471463373547436"><ele>513.0</ele><time>2026-03-28T11:37:42.999Z</time></trkpt><trkpt lat="36.83829422318336" lon="-4.471372209516936"><ele>509.66666666666663</ele><time>2026-03-28T11:37:43.999Z</time></trkpt><trkpt lat="36.8382229436631" lon="-4.47130461325714"><ele>506.3333333333333</ele><time>2026-03-28T11:37:45Z</time></trkpt><trkpt lat="36.83813864424723" lon="-4.471261658957193"><ele>503.0</ele><time>2026-03-28T11:37:46Z</time></trkpt><trkpt lat="36.838042850204154" lon="-4.471261017785347"><ele>503.0</ele><time>2026-03-28T11:37:47Z</time></trkpt><trkpt lat="36.8379580706799" lon="-4.471236418831163"><ele>502.99999999999994</ele><time>2026-03-28T11:37:48Z</time></trkpt><trkpt lat="36.837878543982626" lon="-4.4712137759174855"><ele>502.99999999999994</ele><time>2026-03-28T11:37:49Z</time></trkpt><trkpt lat="36.837804924941814" lon="-4.47115086867286"><ele>503.0</ele><time>2026-03-28T11:37:50Z</time></trkpt><trkpt lat="36.837751520225815" lon="-4.4710556874556575"><ele>503.0</ele><time>2026-03-28T11:37:51Z</time></trkpt><trkpt lat="36.83770487184872" lon="-4.470944917279507"><ele>503.0</ele><time>2026-03-28T11:37:52Z</time></trkpt><trkpt lat="36.83769405503626" lon="-4.470809514345443"><ele>502.99999999999994</ele><time>2026-03-28T11:37:53Z</time></trkpt><trkpt lat="36.83770085271447" lon="-4.47068421030481"><ele>502.99999999999994</ele><time>2026-03-28T11:37:54Z</time></trkpt><trkpt lat="36.83770085271363" lon="-4.470573607257084"><ele>503.0</ele><time>2026-03-28T11:37:55Z</time></trkpt><trkpt lat="36.83768840610335" lon="-4.470475883348514"><ele>503.0</ele><time>2026-03-28T11:37:56Z</time></trkpt><trkpt lat="36.83767373509268" lon="-4.470378101060074"><ele>501.66666666666663</ele><time>2026-03-28T11:37:57Z</time></trkpt><trkpt lat="36.83764866927408" lon="-4.470296629635856"><ele>500.3333333333333</ele><time>2026-03-28T11:37:58Z</time></trkpt><trkpt lat="36.837604591942934" lon="-4.470234075703719"><ele>499.0</ele><time>2026-03-28T11:37:59Z</time></trkpt><trkpt lat="36.83755230433037" lon="-4.470181932340771"><ele>497.66666666666663</ele><time>2026-03-28T11:38:00Z</time></trkpt><trkpt lat="36.83748713605892" lon="-4.470154427099371"><ele>496.3333333333333</ele><time>2026-03-28T11:38:01Z</time></trkpt><trkpt lat="36.83741145338019" lon="-4.470204764146508"><ele>495.0</ele><time>2026-03-28T11:38:02Z</time></trkpt><trkpt lat="36.837368988282726" lon="-4.4703285403141315"><ele>495.0</ele><time>2026-03-28T11:38:03Z</time></trkpt><trkpt lat="36.83729771624752" lon="-4.470418316330069"><ele>495.0</ele><time>2026-03-28T11:38:04Z</time></trkpt><trkpt lat="36.837238982001566" lon="-4.47052025663135"><ele>495.0</ele><time>2026-03-28T11:38:05Z</time></trkpt><trkpt lat="36.83717898033878" lon="-4.470614171283066"><ele>495.0</ele><time>2026-03-28T11:38:06Z</time></trkpt><trkpt lat="36.837125464171024" lon="-4.4707032352824"><ele>495.0</ele><time>2026-03-28T11:38:07Z</time></trkpt><trkpt lat="36.83707319018291" lon="-4.470794800431713"><ele>492.6</ele><time>2026-03-28T11:38:08Z</time></trkpt><trkpt lat="36.83702200614884" lon="-4.4708843815706185"><ele>490.2</ele><time>2026-03-28T11:38:09Z</time></trkpt><trkpt lat="36.83696909248583" lon="-4.470974851979136"><ele>487.79999999999995</ele><time>2026-03-28T11:38:10Z</time></trkpt><trkpt lat="36.83691637904117" lon="-4.47106951768144"><ele>485.4</ele><time>2026-03-28T11:38:11Z</time></trkpt><trkpt lat="36.83688354856455" lon="-4.471179304232652"><ele>483.0</ele><time>2026-03-28T11:38:12Z</time></trkpt><trkpt lat="36.836838489896714" lon="-4.471283597464189"><ele>481.6666666666667</ele><time>2026-03-28T11:38:13Z</time></trkpt><trkpt lat="36.83681060050762" lon="-4.471394340884551"><ele>480.33333333333337</ele><time>2026-03-28T11:38:14Z</time></trkpt><trkpt lat="36.83678032892182" lon="-4.471503412078942"><ele>479.0</ele><time>2026-03-28T11:38:15Z</time></trkpt><trkpt lat="36.83675013928901" lon="-4.471606014123971"><ele>477.6666666666667</ele><time>2026-03-28T11:38:16Z</time></trkpt><trkpt lat="36.836705491805844" lon="-4.471696780479889"><ele>476.33333333333337</ele><time>2026-03-28T11:38:17Z</time></trkpt><trkpt lat="36.83665710513737" lon="-4.471773211788536"><ele>475.0</ele><time>2026-03-28T11:38:18Z</time></trkpt><trkpt lat="36.83657888500272" lon="-4.4717839310284"><ele>479.8</ele><time>2026-03-28T11:38:19Z</time></trkpt><trkpt lat="36.8364995941368" lon="-4.471768814087519"><ele>484.6</ele><time>2026-03-28T11:38:20Z</time></trkpt><trkpt lat="36.83643638438197" lon="-4.471558034114589"><ele>489.4</ele><time>2026-03-28T11:38:22Z</time></trkpt><trkpt lat="36.83641223875885" lon="-4.471465604678592"><ele>494.2</ele><time>2026-03-28T11:38:23Z</time></trkpt><trkpt lat="36.836372087267385" lon="-4.471372518196435"><ele>499.0</ele><time>2026-03-28T11:38:24Z</time></trkpt><trkpt lat="36.83632573829465" lon="-4.4712793883670265"><ele>501.79999999999995</ele><time>2026-03-28T11:38:25Z</time></trkpt><trkpt lat="36.83626881836234" lon="-4.471180032795245"><ele>504.59999999999997</ele><time>2026-03-28T11:38:26Z</time></trkpt><trkpt lat="36.83620961770525" lon="-4.471079200519983"><ele>507.4</ele><time>2026-03-28T11:38:27Z</time></trkpt><trkpt lat="36.83614834657728" lon="-4.470979872203599"><ele>510.2</ele><time>2026-03-28T11:38:28Z</time></trkpt><trkpt lat="36.83607723305103" lon="-4.470877574937788"><ele>513.0</ele><time>2026-03-28T11:38:29Z</time></trkpt><trkpt lat="36.835999183769616" lon="-4.470778926026703"><ele>514.4</ele><time>2026-03-28T11:38:30Z</time></trkpt><trkpt lat="36.83591523142376" lon="-4.470690738425728"><ele>515.8</ele><time>2026-03-28T11:38:31Z</time></trkpt><trkpt lat="36.83582468325241" lon="-4.470612860848632"><ele>517.2</ele><time>2026-03-28T11:38:32Z</time></trkpt><trkpt lat="36.83572850334421" lon="-4.470553741269617"><ele>518.6</ele><time>2026-03-28T11:38:33Z</time></trkpt><trkpt lat="36.83564344290964" lon="-4.47048361840263"><ele>520.0</ele><time>2026-03-28T11:38:34Z</time></trkpt><trkpt lat="36.83556342014366" lon="-4.470422857559933"><ele>520.0</ele><time>2026-03-28T11:38:35Z</time></trkpt><trkpt lat="36.83548045793107" lon="-4.470391380961573"><ele>520.0</ele><time>2026-03-28T11:38:36Z</time></trkpt><trkpt lat="36.835388730701844" lon="-4.470437862299245"><ele>520.0</ele><time>2026-03-28T11:38:37Z</time></trkpt><trkpt lat="36.835319665187775" lon="-4.470529978247202"><ele>520.0</ele><time>2026-03-28T11:38:38Z</time></trkpt><trkpt lat="36.835273986473375" lon="-4.470596394288898"><ele>520.0</ele><time>2026-03-28T11:38:39Z</time></trkpt><trkpt lat="36.835160824577045" lon="-4.4705870566416595"><ele>519.5</ele><time>2026-03-28T11:38:41Z</time></trkpt><trkpt lat="36.83513364674148" lon="-4.470492245997781"><ele>519.0</ele><time>2026-03-28T11:38:42Z</time></trkpt><trkpt lat="36.8350968790832" lon="-4.470400363453921"><ele>518.5</ele><time>2026-03-28T11:38:44Z</time></trkpt><trkpt lat="36.83510591504041" lon="-4.4703170622528186"><ele>518.0</ele><time>2026-03-28T11:38:47Z</time></trkpt><trkpt lat="36.835044299633445" lon="-4.470279928260338"><ele>517.5</ele><time>2026-03-28T11:38:48Z</time></trkpt><trkpt lat="36.83496496971202" lon="-4.470151421445824"><ele>517.0</ele><time>2026-03-28T11:38:50Z</time></trkpt><trkpt lat="36.83492145905137" lon="-4.4700615522497795"><ele>519.0</ele><time>2026-03-28T11:38:51Z</time></trkpt><trkpt lat="36.834879902684236" lon="-4.469956928047891"><ele>521.0</ele><time>2026-03-28T11:38:52Z</time></trkpt><trkpt lat="36.83483811355181" lon="-4.469842924010352"><ele>523.0</ele><time>2026-03-28T11:38:53Z</time></trkpt><trkpt lat="36.834794193143416" lon="-4.469724618758479"><ele>525.0</ele><time>2026-03-28T11:38:54Z</time></trkpt><trkpt lat="36.834751687843394" lon="-4.469612020507502"><ele>527.0</ele><time>2026-03-28T11:38:55Z</time></trkpt><trkpt lat="36.83471120675611" lon="-4.469497653604748"><ele>529.5</ele><time>2026-03-28T11:38:56Z</time></trkpt><trkpt lat="36.834693660314606" lon="-4.469375755830457"><ele>532.0</ele><time>2026-03-28T11:38:57Z</time></trkpt><trkpt lat="36.83467995086365" lon="-4.46926224327577"><ele>534.5</ele><time>2026-03-28T11:38:58Z</time></trkpt><trkpt lat="36.83466141571203" lon="-4.469161493001791"><ele>537.0</ele><time>2026-03-28T11:38:59Z</time></trkpt><trkpt lat="36.83462228500775" lon="-4.469070066281878"><ele>539.5</ele><time>2026-03-28T11:39:00Z</time></trkpt><trkpt lat="36.834540278299905" lon="-4.469025620161412"><ele>542.0</ele><time>2026-03-28T11:39:01Z</time></trkpt><trkpt lat="36.834437837108645" lon="-4.469024680964542"><ele>542.0</ele><time>2026-03-28T11:39:02Z</time></trkpt><trkpt lat="36.8343351579595" lon="-4.469068742797375"><ele>542.0</ele><time>2026-03-28T11:39:03Z</time></trkpt><trkpt lat="36.834223468240545" lon="-4.469135845825913"><ele>542.0</ele><time>2026-03-28T11:39:04Z</time></trkpt><trkpt lat="36.834105114417696" lon="-4.469184356004102"><ele>542.0</ele><time>2026-03-28T11:39:05Z</time></trkpt><trkpt lat="36.83400068203449" lon="-4.469229006230848"><ele>537.0</ele><time>2026-03-28T11:39:06Z</time></trkpt><trkpt lat="36.83390336821563" lon="-4.469271752251389"><ele>532.0</ele><time>2026-03-28T11:39:07Z</time></trkpt><trkpt lat="36.833819526143735" lon="-4.4693011204489075"><ele>527.0</ele><time>2026-03-28T11:39:08Z</time></trkpt><trkpt lat="36.83373616147651" lon="-4.469305713311435"><ele>522.0</ele><time>2026-03-28T11:39:09Z</time></trkpt><trkpt lat="36.83365526759841" lon="-4.469270590317513"><ele>517.0</ele><time>2026-03-28T11:39:09.999Z</time></trkpt><trkpt lat="36.8335884268276" lon="-4.469193889425021"><ele>517.0</ele><time>2026-03-28T11:39:10.999Z</time></trkpt><trkpt lat="36.833555584256885" lon="-4.469076353697929"><ele>517.0</ele><time>2026-03-28T11:39:11.999Z</time></trkpt><trkpt lat="36.83351864936035" lon="-4.468949330222476"><ele>517.0</ele><time>2026-03-28T11:39:12.999Z</time></trkpt><trkpt lat="36.83347885241144" lon="-4.468817781740895"><ele>517.0</ele><time>2026-03-28T11:39:13.999Z</time></trkpt><trkpt lat="36.833430822541516" lon="-4.468685141038181"><ele>517.0</ele><time>2026-03-28T11:39:14.999Z</time></trkpt><trkpt lat="36.83338917320351" lon="-4.468559211804298"><ele>515.5</ele><time>2026-03-28T11:39:15.999Z</time></trkpt><trkpt lat="36.833363401200735" lon="-4.468441785766415"><ele>514.0</ele><time>2026-03-28T11:39:16.999Z</time></trkpt><trkpt lat="36.833317031961094" lon="-4.468343417304992"><ele>512.5</ele><time>2026-03-28T11:39:17.999Z</time></trkpt><trkpt lat="36.833285802909046" lon="-4.4682501652832265"><ele>511.0</ele><time>2026-03-28T11:39:18.999Z</time></trkpt><trkpt lat="36.833269147578044" lon="-4.468156658967715"><ele>509.50000000000006</ele><time>2026-03-28T11:39:19.999Z</time></trkpt><trkpt lat="36.833209578108026" lon="-4.468088762158613"><ele>508.0</ele><time>2026-03-28T11:39:20.999Z</time></trkpt><trkpt lat="36.83312946910494" lon="-4.468051339874007"><ele>508.0</ele><time>2026-03-28T11:39:21.999Z</time></trkpt><trkpt lat="36.83303651824487" lon="-4.468063094535977"><ele>507.99999999999994</ele><time>2026-03-28T11:39:22.999Z</time></trkpt><trkpt lat="36.832944337967675" lon="-4.468124186934936"><ele>507.99999999999994</ele><time>2026-03-28T11:39:23.999Z</time></trkpt><trkpt lat="36.83285875770263" lon="-4.468211983521787"><ele>508.0</ele><time>2026-03-28T11:39:24.999Z</time></trkpt><trkpt lat="36.8327838835214" lon="-4.468307833425666"><ele>508.0</ele><time>2026-03-28T11:39:25.999Z</time></trkpt><trkpt lat="36.83271461343142" lon="-4.468395099420041"><ele>508.0</ele><time>2026-03-28T11:39:26.999Z</time></trkpt><trkpt lat="36.832645932090536" lon="-4.46847848773031"><ele>507.99999999999994</ele><time>2026-03-28T11:39:27.999Z</time></trkpt><trkpt lat="36.83255211450429" lon="-4.468525314218288"><ele>507.99999999999994</ele><time>2026-03-28T11:39:28.999Z</time></trkpt><trkpt lat="36.832440354507035" lon="-4.468537026175658"><ele>508.0</ele><time>2026-03-28T11:39:29.999Z</time></trkpt><trkpt lat="36.83233080066081" lon="-4.468539058696592"><ele>508.0</ele><time>2026-03-28T11:39:30.999Z</time></trkpt><trkpt lat="36.83223035084924" lon="-4.4685384215966595"><ele>506.2</ele><time>2026-03-28T11:39:31.999Z</time></trkpt><trkpt lat="36.8321354465301" lon="-4.468511948649367"><ele>504.4</ele><time>2026-03-28T11:39:32.999Z</time></trkpt><trkpt lat="36.832053668827136" lon="-4.468436385258631"><ele>502.59999999999997</ele><time>2026-03-28T11:39:33.999Z</time></trkpt><trkpt lat="36.83198058562393" lon="-4.468333856268187"><ele>500.79999999999995</ele><time>2026-03-28T11:39:34.999Z</time></trkpt><trkpt lat="36.83190483640129" lon="-4.468237633959146"><ele>499.0</ele><time>2026-03-28T11:39:35.999Z</time></trkpt><trkpt lat="36.83185429086589" lon="-4.468122069253556"><ele>499.0</ele><time>2026-03-28T11:39:36.999Z</time></trkpt><trkpt lat="36.83181453216556" lon="-4.4679668783003095"><ele>499.0</ele><time>2026-03-28T11:39:37.999Z</time></trkpt><trkpt lat="36.83179254443598" lon="-4.467809844233938"><ele>499.0</ele><time>2026-03-28T11:39:38.999Z</time></trkpt><trkpt lat="36.831802426003726" lon="-4.467659032657896"><ele>499.0</ele><time>2026-03-28T11:39:39.999Z</time></trkpt><trkpt lat="36.83180013609957" lon="-4.467527849132187"><ele>498.1428571428572</ele><time>2026-03-28T11:39:40.999Z</time></trkpt><trkpt lat="36.831774591212444" lon="-4.4674230148143"><ele>497.28571428571433</ele><time>2026-03-28T11:39:41.999Z</time></trkpt><trkpt lat="36.83175642746206" lon="-4.467335248168369"><ele>496.42857142857144</ele><time>2026-03-28T11:39:42.999Z</time></trkpt><trkpt lat="36.831717406305884" lon="-4.4672657765571895"><ele>495.5714285714286</ele><time>2026-03-28T11:39:43.999Z</time></trkpt><trkpt lat="36.83165497442995" lon="-4.467249621204166"><ele>494.7142857142858</ele><time>2026-03-28T11:39:44.999Z</time></trkpt><trkpt lat="36.831592251803784" lon="-4.467276892133253"><ele>493.85714285714283</ele><time>2026-03-28T11:39:45.999Z</time></trkpt><trkpt lat="36.831517218420565" lon="-4.467329862776045"><ele>493.0</ele><time>2026-03-28T11:39:46.999Z</time></trkpt><trkpt lat="36.83148900845688" lon="-4.467465308390887"><ele>493.0</ele><time>2026-03-28T11:39:47.999Z</time></trkpt><trkpt lat="36.83140790132809" lon="-4.467590592311085"><ele>493.0</ele><time>2026-03-28T11:39:48.999Z</time></trkpt><trkpt lat="36.83131925013263" lon="-4.467708223265964"><ele>493.0</ele><time>2026-03-28T11:39:49.999Z</time></trkpt><trkpt lat="36.831233783831884" lon="-4.4678381948181665"><ele>493.0</ele><time>2026-03-28T11:39:51Z</time></trkpt><trkpt lat="36.83115444517046" lon="-4.467948440626015"><ele>489.79999999999995</ele><time>2026-03-28T11:39:52Z</time></trkpt><trkpt lat="36.83107484651072" lon="-4.468045783991137"><ele>486.59999999999997</ele><time>2026-03-28T11:39:53Z</time></trkpt><trkpt lat="36.83097628539198" lon="-4.468113051428128"><ele>483.40000000000003</ele><time>2026-03-28T11:39:54Z</time></trkpt><trkpt lat="36.83086581957315" lon="-4.468142308153662"><ele>480.20000000000005</ele><time>2026-03-28T11:39:55Z</time></trkpt><trkpt lat="36.830757396529" lon="-4.468144475857441"><ele>477.0</ele><time>2026-03-28T11:39:56Z</time></trkpt><trkpt lat="36.830668134213354" lon="-4.468061521794281"><ele>474.20000000000005</ele><time>2026-03-28T11:39:57Z</time></trkpt><trkpt lat="36.83057709063673" lon="-4.467993828266734"><ele>471.40000000000003</ele><time>2026-03-28T11:39:58Z</time></trkpt><trkpt lat="36.8305088720839" lon="-4.467909535132763"><ele>468.59999999999997</ele><time>2026-03-28T11:39:59Z</time></trkpt><trkpt lat="36.83043017620056" lon="-4.4678885032832945"><ele>465.79999999999995</ele><time>2026-03-28T11:40:00Z</time></trkpt><trkpt lat="36.83034989318474" lon="-4.467933391829816"><ele>463.0</ele><time>2026-03-28T11:40:01Z</time></trkpt><trkpt lat="36.83033114123798" lon="-4.468075327531594"><ele>463.0</ele><time>2026-03-28T11:40:02Z</time></trkpt><trkpt lat="36.83027691823897" lon="-4.468192580444983"><ele>463.0</ele><time>2026-03-28T11:40:03Z</time></trkpt><trkpt lat="36.830217004524634" lon="-4.468322204457552"><ele>463.0</ele><time>2026-03-28T11:40:04Z</time></trkpt><trkpt lat="36.830153262231875" lon="-4.468453249443842"><ele>463.0</ele><time>2026-03-28T11:40:05Z</time></trkpt><trkpt lat="36.83008830783375" lon="-4.468584024831774"><ele>461.4</ele><time>2026-03-28T11:40:06Z</time></trkpt><trkpt lat="36.830022958551226" lon="-4.4686999808987755"><ele>459.79999999999995</ele><time>2026-03-28T11:40:07Z</time></trkpt><trkpt lat="36.8299721828068" lon="-4.46882023193416"><ele>458.2</ele><time>2026-03-28T11:40:08Z</time></trkpt><trkpt lat="36.82992023615514" lon="-4.468928715360826"><ele>456.6</ele><time>2026-03-28T11:40:09Z</time></trkpt><trkpt lat="36.82986477510066" lon="-4.469020962343614"><ele>455.0</ele><time>2026-03-28T11:40:10Z</time></trkpt><trkpt lat="36.82979524947531" lon="-4.4690889396192945"><ele>455.0</ele><time>2026-03-28T11:40:11Z</time></trkpt><trkpt lat="36.82968937747469" lon="-4.4690779463099055"><ele>455.0</ele><time>2026-03-28T11:40:12Z</time></trkpt><trkpt lat="36.829575163579996" lon="-4.469073103336938"><ele>455.0</ele><time>2026-03-28T11:40:13Z</time></trkpt><trkpt lat="36.82945408494829" lon="-4.4690339000931125"><ele>455.0</ele><time>2026-03-28T11:40:14Z</time></trkpt><trkpt lat="36.82933451591594" lon="-4.468993198644188"><ele>454.0</ele><time>2026-03-28T11:40:15Z</time></trkpt><trkpt lat="36.82921254168088" lon="-4.468958612985574"><ele>453.0</ele><time>2026-03-28T11:40:16Z</time></trkpt><trkpt lat="36.829111336024795" lon="-4.468922827917512"><ele>452.0</ele><time>2026-03-28T11:40:17Z</time></trkpt><trkpt lat="36.82902711927758" lon="-4.468852063593662"><ele>451.0</ele><time>2026-03-28T11:40:18Z</time></trkpt><trkpt lat="36.828972490026224" lon="-4.468734275229564"><ele>450.0</ele><time>2026-03-28T11:40:19Z</time></trkpt><trkpt lat="36.82894181041362" lon="-4.468606136817404"><ele>456.8</ele><time>2026-03-28T11:40:20Z</time></trkpt><trkpt lat="36.828881888587546" lon="-4.468525454699903"><ele>463.6</ele><time>2026-03-28T11:40:21Z</time></trkpt><trkpt lat="36.828823926824846" lon="-4.468468351606378"><ele>470.4</ele><time>2026-03-28T11:40:22Z</time></trkpt><trkpt lat="36.82876086962096" lon="-4.46843776639883"><ele>477.2</ele><time>2026-03-28T11:40:23Z</time></trkpt><trkpt lat="36.82865269253993" lon="-4.4685576223206835"><ele>484.0</ele><time>2026-03-28T11:40:24Z</time></trkpt><trkpt lat="36.828564944926185" lon="-4.468642122842064"><ele>482.0</ele><time>2026-03-28T11:40:25Z</time></trkpt><trkpt lat="36.82845675332066" lon="-4.468708153569225"><ele>480.0</ele><time>2026-03-28T11:40:26Z</time></trkpt><trkpt lat="36.828332620380884" lon="-4.46875835349258"><ele>478.0</ele><time>2026-03-28T11:40:27Z</time></trkpt><trkpt lat="36.828186691732355" lon="-4.468785317217381"><ele>476.0</ele><time>2026-03-28T11:40:28Z</time></trkpt><trkpt lat="36.82803565481925" lon="-4.468790243811549"><ele>468.0</ele><time>2026-03-28T11:40:29Z</time></trkpt><trkpt lat="36.82788262707082" lon="-4.468785303025784"><ele>460.0</ele><time>2026-03-28T11:40:30Z</time></trkpt><trkpt lat="36.82772643954998" lon="-4.468781829906877"><ele>452.0</ele><time>2026-03-28T11:40:31Z</time></trkpt><trkpt lat="36.8275688694722" lon="-4.46878126696767"><ele>452.0</ele><time>2026-03-28T11:40:32Z</time></trkpt><trkpt lat="36.82741499610539" lon="-4.468781053060655"><ele>452.0</ele><time>2026-03-28T11:40:33Z</time></trkpt><trkpt lat="36.827258079097795" lon="-4.468781612724963"><ele>452.0</ele><time>2026-03-28T11:40:34Z</time></trkpt><trkpt lat="36.82710371924081" lon="-4.4687810633619325"><ele>452.0</ele><time>2026-03-28T11:40:35Z</time></trkpt><trkpt lat="36.82694975693296" lon="-4.468792695577013"><ele>452.0</ele><time>2026-03-28T11:40:36Z</time></trkpt><trkpt lat="36.82678712682601" lon="-4.468823595274078"><ele>452.0</ele><time>2026-03-28T11:40:37Z</time></trkpt><trkpt lat="36.82662746557702" lon="-4.468856028054054"><ele>450.3333333333333</ele><time>2026-03-28T11:40:38Z</time></trkpt><trkpt lat="36.82646431333343" lon="-4.46888341856083"><ele>448.66666666666663</ele><time>2026-03-28T11:40:39Z</time></trkpt><trkpt lat="36.82629654208531" lon="-4.4689124510244245"><ele>447.0</ele><time>2026-03-28T11:40:40Z</time></trkpt><trkpt lat="36.82612625881106" lon="-4.468947474813169"><ele>442.66666666666663</ele><time>2026-03-28T11:40:41Z</time></trkpt><trkpt lat="36.82595480775128" lon="-4.468983091065819"><ele>438.3333333333333</ele><time>2026-03-28T11:40:42Z</time></trkpt><trkpt lat="36.82578231621029" lon="-4.469010984308052"><ele>434.0</ele><time>2026-03-28T11:40:43Z</time></trkpt><trkpt lat="36.82561352579" lon="-4.469031593177958"><ele>434.0</ele><time>2026-03-28T11:40:44Z</time></trkpt><trkpt lat="36.825449376829276" lon="-4.46903555383412"><ele>434.0</ele><time>2026-03-28T11:40:45Z</time></trkpt><trkpt lat="36.825282362884145" lon="-4.469033852024308"><ele>434.0</ele><time>2026-03-28T11:40:46Z</time></trkpt><trkpt lat="36.82511708397037" lon="-4.469037498332429"><ele>433.0</ele><time>2026-03-28T11:40:47Z</time></trkpt><trkpt lat="36.82495207065288" lon="-4.4690441685000515"><ele>432.0</ele><time>2026-03-28T11:40:48Z</time></trkpt><trkpt lat="36.82479456625905" lon="-4.469049534351776"><ele>431.0</ele><time>2026-03-28T11:40:49Z</time></trkpt><trkpt lat="36.824634132654175" lon="-4.469066564721409"><ele>431.0</ele><time>2026-03-28T11:40:50Z</time></trkpt><trkpt lat="36.82447779507442" lon="-4.469107265582076"><ele>431.0</ele><time>2026-03-28T11:40:51Z</time></trkpt><trkpt lat="36.82432787304723" lon="-4.469168034729727"><ele>431.0</ele><time>2026-03-28T11:40:52Z</time></trkpt><trkpt lat="36.82419003423396" lon="-4.469244482472681"><ele>427.66666666666663</ele><time>2026-03-28T11:40:53Z</time></trkpt><trkpt lat="36.824050227975576" lon="-4.4692980384694545"><ele>424.33333333333337</ele><time>2026-03-28T11:40:54Z</time></trkpt><trkpt lat="36.823903164887724" lon="-4.46930601334013"><ele>421.0</ele><time>2026-03-28T11:40:55Z</time></trkpt><trkpt lat="36.82374127618728" lon="-4.469299320924825"><ele>421.0</ele><time>2026-03-28T11:40:56Z</time></trkpt><trkpt lat="36.82358517651693" lon="-4.469213368569012"><ele>421.0</ele><time>2026-03-28T11:40:57Z</time></trkpt><trkpt lat="36.823455525452026" lon="-4.469085440164098"><ele>421.0</ele><time>2026-03-28T11:40:58Z</time></trkpt><trkpt lat="36.82331810982507" lon="-4.468969251362916"><ele>419.0</ele><time>2026-03-28T11:40:59Z</time></trkpt><trkpt lat="36.82318206244072" lon="-4.4688530980185766"><ele>417.0</ele><time>2026-03-28T11:41:00Z</time></trkpt><trkpt lat="36.823046307131776" lon="-4.468740214655517"><ele>415.0</ele><time>2026-03-28T11:41:01Z</time></trkpt><trkpt lat="36.82291465292719" lon="-4.468625818301621"><ele>415.0</ele><time>2026-03-28T11:41:02Z</time></trkpt><trkpt lat="36.82278435709371" lon="-4.468514999309746"><ele>415.0</ele><time>2026-03-28T11:41:03Z</time></trkpt><trkpt lat="36.82265615883919" lon="-4.468405842012884"><ele>415.0</ele><time>2026-03-28T11:41:04Z</time></trkpt><trkpt lat="36.82252704302653" lon="-4.468295144603376"><ele>421.25</ele><time>2026-03-28T11:41:05Z</time></trkpt><trkpt lat="36.822409508997275" lon="-4.468189356051269"><ele>427.5</ele><time>2026-03-28T11:41:06Z</time></trkpt><trkpt lat="36.8223029011115" lon="-4.468097003239295"><ele>433.75</ele><time>2026-03-28T11:41:07Z</time></trkpt><trkpt lat="36.82219851685817" lon="-4.468025999161942"><ele>440.0</ele><time>2026-03-28T11:41:08Z</time></trkpt><trkpt lat="36.822089371607795" lon="-4.467999636781303"><ele>440.0</ele><time>2026-03-28T11:41:09Z</time></trkpt><trkpt lat="36.82197373554019" lon="-4.468028996483045"><ele>440.0</ele><time>2026-03-28T11:41:10Z</time></trkpt><trkpt lat="36.82185531275701" lon="-4.468069978595936"><ele>440.0</ele><time>2026-03-28T11:41:11Z</time></trkpt><trkpt lat="36.82172515401125" lon="-4.4681087157988495"><ele>440.0</ele><time>2026-03-28T11:41:12Z</time></trkpt><trkpt lat="36.82158537670317" lon="-4.468144318493088"><ele>441.0</ele><time>2026-03-28T11:41:13Z</time></trkpt><trkpt lat="36.8214428041872" lon="-4.46818416865867"><ele>442.0</ele><time>2026-03-28T11:41:14Z</time></trkpt><trkpt lat="36.82129549417619" lon="-4.468224946375192"><ele>443.0</ele><time>2026-03-28T11:41:15Z</time></trkpt><trkpt lat="36.82114644986033" lon="-4.4682651630325685"><ele>444.0</ele><time>2026-03-28T11:41:16Z</time></trkpt><trkpt lat="36.82099703203224" lon="-4.468310048153532"><ele>443.66666666666663</ele><time>2026-03-28T11:41:17Z</time></trkpt><trkpt lat="36.82084966533691" lon="-4.468351989371716"><ele>443.3333333333333</ele><time>2026-03-28T11:41:18Z</time></trkpt><trkpt lat="36.82070077072603" lon="-4.468395559578393"><ele>443.0</ele><time>2026-03-28T11:41:19Z</time></trkpt><trkpt lat="36.820550083317414" lon="-4.46843235077358"><ele>443.0</ele><time>2026-03-28T11:41:20Z</time></trkpt><trkpt lat="36.82041584703307" lon="-4.468457022769409"><ele>443.0</ele><time>2026-03-28T11:41:21Z</time></trkpt><trkpt lat="36.82028549970657" lon="-4.4684641417412205"><ele>443.0</ele><time>2026-03-28T11:41:22Z</time></trkpt><trkpt lat="36.82015055001832" lon="-4.468448605832693"><ele>443.0</ele><time>2026-03-28T11:41:23Z</time></trkpt><trkpt lat="36.82001163993123" lon="-4.468408886126973"><ele>445.66666666666663</ele><time>2026-03-28T11:41:24Z</time></trkpt><trkpt lat="36.81986475852208" lon="-4.468361161168053"><ele>448.33333333333337</ele><time>2026-03-28T11:41:25Z</time></trkpt><trkpt lat="36.81971457531532" lon="-4.46832318798425"><ele>451.0</ele><time>2026-03-28T11:41:26Z</time></trkpt><trkpt lat="36.81955929651157" lon="-4.46831119488334"><ele>451.0</ele><time>2026-03-28T11:41:26.999Z</time></trkpt><trkpt lat="36.81940844077935" lon="-4.468332123375372"><ele>451.0</ele><time>2026-03-28T11:41:27.999Z</time></trkpt><trkpt lat="36.8192696008551" lon="-4.468361359630304"><ele>451.0</ele><time>2026-03-28T11:41:28.999Z</time></trkpt><trkpt lat="36.81914191068564" lon="-4.468380281182143"><ele>451.0</ele><time>2026-03-28T11:41:29.999Z</time></trkpt><trkpt lat="36.81902464014133" lon="-4.468386408941086"><ele>448.25</ele><time>2026-03-28T11:41:30.999Z</time></trkpt><trkpt lat="36.81891047286321" lon="-4.4683467978561024"><ele>445.5</ele><time>2026-03-28T11:41:31.999Z</time></trkpt><trkpt lat="36.81880670617738" lon="-4.468272668495616"><ele>442.75</ele><time>2026-03-28T11:41:32.999Z</time></trkpt><trkpt lat="36.81872708948916" lon="-4.468160081215202"><ele>440.0</ele><time>2026-03-28T11:41:33.999Z</time></trkpt><trkpt lat="36.818644557533325" lon="-4.468057568641946"><ele>440.0</ele><time>2026-03-28T11:41:34.999Z</time></trkpt><trkpt lat="36.81854849789181" lon="-4.468013223017512"><ele>440.0</ele><time>2026-03-28T11:41:35.999Z</time></trkpt><trkpt lat="36.81842826649752" lon="-4.468022775094307"><ele>440.0</ele><time>2026-03-28T11:41:36.999Z</time></trkpt><trkpt lat="36.81831007872153" lon="-4.468064455386019"><ele>440.0</ele><time>2026-03-28T11:41:37.999Z</time></trkpt><trkpt lat="36.818187247518196" lon="-4.46807583553577"><ele>440.25</ele><time>2026-03-28T11:41:38.999Z</time></trkpt><trkpt lat="36.81806025657253" lon="-4.468037117165485"><ele>440.5</ele><time>2026-03-28T11:41:39.999Z</time></trkpt><trkpt lat="36.817935032180486" lon="-4.467959465468562"><ele>440.75</ele><time>2026-03-28T11:41:40.999Z</time></trkpt><trkpt lat="36.817814002292195" lon="-4.467847292358202"><ele>441.0</ele><time>2026-03-28T11:41:41.999Z</time></trkpt><trkpt lat="36.817701549055975" lon="-4.467714541571682"><ele>437.25</ele><time>2026-03-28T11:41:42.999Z</time></trkpt><trkpt lat="36.81761507417391" lon="-4.467599493408334"><ele>433.5</ele><time>2026-03-28T11:41:43.999Z</time></trkpt><trkpt lat="36.81751487229451" lon="-4.46749195288058"><ele>429.75</ele><time>2026-03-28T11:41:44.999Z</time></trkpt><trkpt lat="36.81742810875994" lon="-4.4673805288670465"><ele>426.0</ele><time>2026-03-28T11:41:45.999Z</time></trkpt><trkpt lat="36.81731726679395" lon="-4.467331391526141"><ele>426.0</ele><time>2026-03-28T11:41:46.999Z</time></trkpt><trkpt lat="36.817181588164736" lon="-4.4673326233688915"><ele>426.0</ele><time>2026-03-28T11:41:47.999Z</time></trkpt><trkpt lat="36.81704558304974" lon="-4.467337118703214"><ele>426.0</ele><time>2026-03-28T11:41:48.999Z</time></trkpt><trkpt lat="36.816911996850486" lon="-4.467336291332293"><ele>426.0</ele><time>2026-03-28T11:41:49.999Z</time></trkpt><trkpt lat="36.816776994525625" lon="-4.467341557564507"><ele>427.25</ele><time>2026-03-28T11:41:50.999Z</time></trkpt><trkpt lat="36.81664697572789" lon="-4.467396138306109"><ele>428.5</ele><time>2026-03-28T11:41:51.999Z</time></trkpt><trkpt lat="36.81653481146216" lon="-4.467488893226459"><ele>429.75</ele><time>2026-03-28T11:41:52.999Z</time></trkpt><trkpt lat="36.81643981722244" lon="-4.467592589567227"><ele>431.0</ele><time>2026-03-28T11:41:53.999Z</time></trkpt><trkpt lat="36.81634791254566" lon="-4.467682133221198"><ele>431.0</ele><time>2026-03-28T11:41:54.999Z</time></trkpt><trkpt lat="36.816248803168094" lon="-4.467734997684426"><ele>431.0</ele><time>2026-03-28T11:41:55.999Z</time></trkpt><trkpt lat="36.81613690921023" lon="-4.467735979852495"><ele>431.0</ele><time>2026-03-28T11:41:57Z</time></trkpt><trkpt lat="36.816015379190794" lon="-4.467718459442797"><ele>431.0</ele><time>2026-03-28T11:41:58Z</time></trkpt><trkpt lat="36.815894521071385" lon="-4.467681422943889"><ele>433.8</ele><time>2026-03-28T11:41:59Z</time></trkpt><trkpt lat="36.81578510953401" lon="-4.467635726301361"><ele>436.6</ele><time>2026-03-28T11:42:00Z</time></trkpt><trkpt lat="36.815686222652126" lon="-4.46760500247218"><ele>439.4</ele><time>2026-03-28T11:42:01Z</time></trkpt><trkpt lat="36.81559955556942" lon="-4.467634289973353"><ele>442.2</ele><time>2026-03-28T11:42:02Z</time></trkpt><trkpt lat="36.81554405319508" lon="-4.4677052554147485"><ele>445.0</ele><time>2026-03-28T11:42:03Z</time></trkpt><trkpt lat="36.81548434493767" lon="-4.467782259740586"><ele>445.0</ele><time>2026-03-28T11:42:04Z</time></trkpt><trkpt lat="36.81540391498972" lon="-4.467827360269402"><ele>445.0</ele><time>2026-03-28T11:42:05Z</time></trkpt><trkpt lat="36.815295821295635" lon="-4.467818219695123"><ele>445.0</ele><time>2026-03-28T11:42:06Z</time></trkpt><trkpt lat="36.81519782043117" lon="-4.467755256417132"><ele>445.0</ele><time>2026-03-28T11:42:07Z</time></trkpt><trkpt lat="36.81510731174472" lon="-4.467655236826477"><ele>445.0</ele><time>2026-03-28T11:42:08Z</time></trkpt><trkpt lat="36.81500885214657" lon="-4.467571875480122"><ele>447.25</ele><time>2026-03-28T11:42:09Z</time></trkpt><trkpt lat="36.8148847729324" lon="-4.467527235011547"><ele>449.5</ele><time>2026-03-28T11:42:10Z</time></trkpt><trkpt lat="36.814757218870525" lon="-4.467486442340362"><ele>451.75</ele><time>2026-03-28T11:42:11Z</time></trkpt><trkpt lat="36.814631993072744" lon="-4.467433781589611"><ele>454.0</ele><time>2026-03-28T11:42:12Z</time></trkpt><trkpt lat="36.81451417028393" lon="-4.467397417854754"><ele>454.00000000000006</ele><time>2026-03-28T11:42:13Z</time></trkpt><trkpt lat="36.8144130929675" lon="-4.467366011800627"><ele>454.0</ele><time>2026-03-28T11:42:14Z</time></trkpt><trkpt lat="36.81433839167042" lon="-4.467349411262318"><ele>454.0</ele><time>2026-03-28T11:42:15Z</time></trkpt><trkpt lat="36.81427571239415" lon="-4.467339171765808"><ele>454.0</ele><time>2026-03-28T11:42:16Z</time></trkpt><trkpt lat="36.81420614267005" lon="-4.467340276315679"><ele>454.00000000000006</ele><time>2026-03-28T11:42:19Z</time></trkpt><trkpt lat="36.81409992731611" lon="-4.4673350599529895"><ele>454.0</ele><time>2026-03-28T11:42:26Z</time></trkpt><trkpt lat="36.814003725493535" lon="-4.467334889372434"><ele>453.6666666666667</ele><time>2026-03-28T11:42:28Z</time></trkpt><trkpt lat="36.81389538311817" lon="-4.467290964747469"><ele>453.33333333333337</ele><time>2026-03-28T11:42:30Z</time></trkpt><trkpt lat="36.81383405336305" lon="-4.467252227812142"><ele>453.0</ele><time>2026-03-28T11:42:31Z</time></trkpt><trkpt lat="36.81377756837635" lon="-4.467217156662837"><ele>452.66666666666663</ele><time>2026-03-28T11:42:32Z</time></trkpt><trkpt lat="36.81370914937176" lon="-4.467176090956839"><ele>452.3333333333333</ele><time>2026-03-28T11:42:33Z</time></trkpt><trkpt lat="36.813641548519996" lon="-4.467128563304713"><ele>452.0</ele><time>2026-03-28T11:42:34Z</time></trkpt><trkpt lat="36.81356749926991" lon="-4.467080714988184"><ele>456.40000000000003</ele><time>2026-03-28T11:42:35Z</time></trkpt><trkpt lat="36.81349102828491" lon="-4.467029443716475"><ele>460.80000000000007</ele><time>2026-03-28T11:42:36Z</time></trkpt><trkpt lat="36.81340857774566" lon="-4.466985927081899"><ele>465.2</ele><time>2026-03-28T11:42:37Z</time></trkpt><trkpt lat="36.813320184027084" lon="-4.466974059827753"><ele>469.6</ele><time>2026-03-28T11:42:38Z</time></trkpt><trkpt lat="36.81322852499936" lon="-4.466993620669679"><ele>474.0</ele><time>2026-03-28T11:42:39Z</time></trkpt><trkpt lat="36.813137305794974" lon="-4.467036176291437"><ele>474.0</ele><time>2026-03-28T11:42:40Z</time></trkpt><trkpt lat="36.81304418103147" lon="-4.46707546193981"><ele>474.0</ele><time>2026-03-28T11:42:41Z</time></trkpt><trkpt lat="36.812952690832624" lon="-4.467115396787191"><ele>474.0</ele><time>2026-03-28T11:42:42Z</time></trkpt><trkpt lat="36.81287108061582" lon="-4.467144865775376"><ele>474.0</ele><time>2026-03-28T11:42:43Z</time></trkpt><trkpt lat="36.81279013993806" lon="-4.467149788907219"><ele>474.0</ele><time>2026-03-28T11:42:44Z</time></trkpt><trkpt lat="36.81271407928279" lon="-4.4671345646361935"><ele>474.0</ele><time>2026-03-28T11:42:45Z</time></trkpt><trkpt lat="36.812662692121286" lon="-4.46708485376466"><ele>470.4</ele><time>2026-03-28T11:42:46Z</time></trkpt><trkpt lat="36.812610233220155" lon="-4.46701503054829"><ele>466.79999999999995</ele><time>2026-03-28T11:42:47Z</time></trkpt><trkpt lat="36.812590075838806" lon="-4.466905454698506"><ele>463.20000000000005</ele><time>2026-03-28T11:42:48Z</time></trkpt><trkpt lat="36.81259787839384" lon="-4.466789177405492"><ele>459.6</ele><time>2026-03-28T11:42:49Z</time></trkpt><trkpt lat="36.81258003397525" lon="-4.466665081950899"><ele>456.0</ele><time>2026-03-28T11:42:50Z</time></trkpt><trkpt lat="36.81257794717817" lon="-4.466534012257447"><ele>456.0</ele><time>2026-03-28T11:42:51Z</time></trkpt><trkpt lat="36.81257596740595" lon="-4.466409665120125"><ele>456.0</ele><time>2026-03-28T11:42:52Z</time></trkpt><trkpt lat="36.81257461031475" lon="-4.466278953252064"><ele>456.0</ele><time>2026-03-28T11:42:53Z</time></trkpt><trkpt lat="36.81257562340495" lon="-4.466148750593897"><ele>456.0</ele><time>2026-03-28T11:42:54Z</time></trkpt><trkpt lat="36.81257906793399" lon="-4.466019686955989"><ele>456.0</ele><time>2026-03-28T11:42:55Z</time></trkpt><trkpt lat="36.81258389443225" lon="-4.465900311437919"><ele>455.4</ele><time>2026-03-28T11:42:56Z</time></trkpt><trkpt lat="36.812593243695034" lon="-4.465786733059591"><ele>454.8</ele><time>2026-03-28T11:42:57Z</time></trkpt><trkpt lat="36.81261621353296" lon="-4.465677929627143"><ele>454.19999999999993</ele><time>2026-03-28T11:42:58Z</time></trkpt><trkpt lat="36.81266250682037" lon="-4.465583546372037"><ele>453.59999999999997</ele><time>2026-03-28T11:42:59Z</time></trkpt><trkpt lat="36.812727052485855" lon="-4.465498359535127"><ele>453.0</ele><time>2026-03-28T11:43:00Z</time></trkpt><trkpt lat="36.81282563080896" lon="-4.4654487444150845"><ele>456.8333333333333</ele><time>2026-03-28T11:43:01Z</time></trkpt><trkpt lat="36.812921840760524" lon="-4.465421362460732"><ele>460.66666666666663</ele><time>2026-03-28T11:43:02Z</time></trkpt><trkpt lat="36.81301373924223" lon="-4.465398964946927"><ele>464.5</ele><time>2026-03-28T11:43:03Z</time></trkpt><trkpt lat="36.81309673410945" lon="-4.465376188711377"><ele>468.3333333333333</ele><time>2026-03-28T11:43:04Z</time></trkpt><trkpt lat="36.81315968763428" lon="-4.465340737484423"><ele>472.16666666666663</ele><time>2026-03-28T11:43:05Z</time></trkpt><trkpt lat="36.813212449630285" lon="-4.46528347133997"><ele>476.0</ele><time>2026-03-28T11:43:06Z</time></trkpt><trkpt lat="36.8132302303279" lon="-4.4652000272655465"><ele>476.0</ele><time>2026-03-28T11:43:07Z</time></trkpt><trkpt lat="36.813204104239105" lon="-4.465107095549808"><ele>476.0</ele><time>2026-03-28T11:43:08Z</time></trkpt><trkpt lat="36.81315514473457" lon="-4.4650146418060075"><ele>476.0</ele><time>2026-03-28T11:43:09Z</time></trkpt><trkpt lat="36.81311831575568" lon="-4.464894796639257"><ele>476.0</ele><time>2026-03-28T11:43:10Z</time></trkpt><trkpt lat="36.81306415946955" lon="-4.464783745507235"><ele>476.0</ele><time>2026-03-28T11:43:11Z</time></trkpt><trkpt lat="36.813013837082124" lon="-4.464663515602839"><ele>477.20000000000005</ele><time>2026-03-28T11:43:12Z</time></trkpt><trkpt lat="36.81296908216055" lon="-4.46453970548057"><ele>478.40000000000003</ele><time>2026-03-28T11:43:13Z</time></trkpt><trkpt lat="36.8129408482237" lon="-4.464407721632763"><ele>479.6</ele><time>2026-03-28T11:43:14Z</time></trkpt><trkpt lat="36.812927090725736" lon="-4.464267675411967"><ele>480.8</ele><time>2026-03-28T11:43:15Z</time></trkpt><trkpt lat="36.81290023243519" lon="-4.464129519486385"><ele>482.0</ele><time>2026-03-28T11:43:16Z</time></trkpt><trkpt lat="36.81290273279229" lon="-4.463986106791275"><ele>482.0</ele><time>2026-03-28T11:43:17Z</time></trkpt><trkpt lat="36.81292450019462" lon="-4.463850749158212"><ele>482.00000000000006</ele><time>2026-03-28T11:43:18Z</time></trkpt><trkpt lat="36.81294324435058" lon="-4.463740685148715"><ele>482.00000000000006</ele><time>2026-03-28T11:43:19Z</time></trkpt><trkpt lat="36.812949018634306" lon="-4.4636402899191765"><ele>482.0</ele><time>2026-03-28T11:43:20Z</time></trkpt><trkpt lat="36.81291207382586" lon="-4.463535312329609"><ele>482.0</ele><time>2026-03-28T11:43:21Z</time></trkpt><trkpt lat="36.81286533789992" lon="-4.463426327992553"><ele>479.20000000000005</ele><time>2026-03-28T11:43:22Z</time></trkpt><trkpt lat="36.81281158446394" lon="-4.463319552257024"><ele>476.40000000000003</ele><time>2026-03-28T11:43:23Z</time></trkpt><trkpt lat="36.81278289964505" lon="-4.463192460799038"><ele>473.59999999999997</ele><time>2026-03-28T11:43:24Z</time></trkpt><trkpt lat="36.81274807857936" lon="-4.463064758426056"><ele>470.79999999999995</ele><time>2026-03-28T11:43:25Z</time></trkpt><trkpt lat="36.81272842590982" lon="-4.462928862981533"><ele>468.0</ele><time>2026-03-28T11:43:25.999Z</time></trkpt><trkpt lat="36.81269747058177" lon="-4.46278966431673"><ele>464.5</ele><time>2026-03-28T11:43:26.999Z</time></trkpt><trkpt lat="36.812657456719606" lon="-4.462651873854886"><ele>461.0</ele><time>2026-03-28T11:43:27.999Z</time></trkpt><trkpt lat="36.81261217299357" lon="-4.462514095939925"><ele>457.5</ele><time>2026-03-28T11:43:28.999Z</time></trkpt><trkpt lat="36.81255865060055" lon="-4.462386784281469"><ele>454.0</ele><time>2026-03-28T11:43:29.999Z</time></trkpt><trkpt lat="36.8124845532151" lon="-4.462276270424218"><ele>454.0</ele><time>2026-03-28T11:43:30.999Z</time></trkpt><trkpt lat="36.8123894855269" lon="-4.462187218568026"><ele>454.0</ele><time>2026-03-28T11:43:31.999Z</time></trkpt><trkpt lat="36.812280461799254" lon="-4.462118891071546"><ele>454.0</ele><time>2026-03-28T11:43:32.999Z</time></trkpt><trkpt lat="36.812157679901944" lon="-4.462080459743823"><ele>454.0</ele><time>2026-03-28T11:43:33.999Z</time></trkpt><trkpt lat="36.81203480087805" lon="-4.462035041050662"><ele>454.75</ele><time>2026-03-28T11:43:34.999Z</time></trkpt><trkpt lat="36.811915091452114" lon="-4.461993976078381"><ele>455.5</ele><time>2026-03-28T11:43:35.999Z</time></trkpt><trkpt lat="36.81179651635913" lon="-4.461984824463173"><ele>456.25</ele><time>2026-03-28T11:43:36.999Z</time></trkpt><trkpt lat="36.811682514873" lon="-4.462026439665594"><ele>457.0</ele><time>2026-03-28T11:43:37.999Z</time></trkpt><trkpt lat="36.81158049932725" lon="-4.462097602090369"><ele>455.8</ele><time>2026-03-28T11:43:38.999Z</time></trkpt><trkpt lat="36.811488563819495" lon="-4.462161924617657"><ele>454.6</ele><time>2026-03-28T11:43:39.999Z</time></trkpt><trkpt lat="36.81139335558036" lon="-4.46218909063292"><ele>453.40000000000003</ele><time>2026-03-28T11:43:40.999Z</time></trkpt><trkpt lat="36.811298534298295" lon="-4.462157530935664"><ele>452.20000000000005</ele><time>2026-03-28T11:43:41.999Z</time></trkpt><trkpt lat="36.811199774390204" lon="-4.462094993564361"><ele>451.0</ele><time>2026-03-28T11:43:42.999Z</time></trkpt><trkpt lat="36.8110963620796" lon="-4.462031373987501"><ele>457.0</ele><time>2026-03-28T11:43:43.999Z</time></trkpt><trkpt lat="36.81098685925971" lon="-4.461973305246781"><ele>463.0</ele><time>2026-03-28T11:43:44.999Z</time></trkpt><trkpt lat="36.810876367714904" lon="-4.46191647584721"><ele>469.0</ele><time>2026-03-28T11:43:45.999Z</time></trkpt><trkpt lat="36.81076613244458" lon="-4.461863975475146"><ele>475.0</ele><time>2026-03-28T11:43:46.999Z</time></trkpt><trkpt lat="36.810655408218466" lon="-4.461812171967495"><ele>475.0</ele><time>2026-03-28T11:43:47.999Z</time></trkpt><trkpt lat="36.810549901036204" lon="-4.4617522377866035"><ele>475.0</ele><time>2026-03-28T11:43:48.999Z</time></trkpt><trkpt lat="36.81044723736838" lon="-4.461694271727636"><ele>475.0</ele><time>2026-03-28T11:43:49.999Z</time></trkpt><trkpt lat="36.810344182899954" lon="-4.4616461759342"><ele>475.0</ele><time>2026-03-28T11:43:50.999Z</time></trkpt><trkpt lat="36.810236442006484" lon="-4.461628644619805"><ele>475.0</ele><time>2026-03-28T11:43:51.999Z</time></trkpt><trkpt lat="36.81012905910017" lon="-4.461670173936716"><ele>475.4</ele><time>2026-03-28T11:43:52.999Z</time></trkpt><trkpt lat="36.81003202472006" lon="-4.461755883091023"><ele>475.8</ele><time>2026-03-28T11:43:53.999Z</time></trkpt><trkpt lat="36.80995838262919" lon="-4.461866216915773"><ele>476.20000000000005</ele><time>2026-03-28T11:43:54.999Z</time></trkpt><trkpt lat="36.80990156673307" lon="-4.461977304841989"><ele>476.6</ele><time>2026-03-28T11:43:55.999Z</time></trkpt><trkpt lat="36.809843155939305" lon="-4.462086314748834"><ele>477.0</ele><time>2026-03-28T11:43:56.999Z</time></trkpt><trkpt lat="36.80978262156386" lon="-4.462182278135274"><ele>477.0</ele><time>2026-03-28T11:43:57.999Z</time></trkpt><trkpt lat="36.80970883010348" lon="-4.462258117396697"><ele>477.00000000000006</ele><time>2026-03-28T11:43:58.999Z</time></trkpt><trkpt lat="36.809623386799345" lon="-4.462288784230994"><ele>477.00000000000006</ele><time>2026-03-28T11:43:59.999Z</time></trkpt><trkpt lat="36.809541684652054" lon="-4.462255145356127"><ele>477.0</ele><time>2026-03-28T11:44:00.999Z</time></trkpt><trkpt lat="36.80948127076563" lon="-4.46217043226173"><ele>477.0</ele><time>2026-03-28T11:44:01.999Z</time></trkpt><trkpt lat="36.80943579972386" lon="-4.4620630029922745"><ele>477.0</ele><time>2026-03-28T11:44:03Z</time></trkpt><trkpt lat="36.80946938342035" lon="-4.461915746292955"><ele>477.00000000000006</ele><time>2026-03-28T11:44:04Z</time></trkpt><trkpt lat="36.80950038915789" lon="-4.4617908352523905"><ele>477.00000000000006</ele><time>2026-03-28T11:44:05Z</time></trkpt><trkpt lat="36.809524528412666" lon="-4.461681432050093"><ele>477.0</ele><time>2026-03-28T11:44:06Z</time></trkpt><trkpt lat="36.80954438105103" lon="-4.461561949913406"><ele>477.0</ele><time>2026-03-28T11:44:07Z</time></trkpt><trkpt lat="36.80955581060014" lon="-4.461422078131088"><ele>480.25</ele><time>2026-03-28T11:44:08Z</time></trkpt><trkpt lat="36.80955666596204" lon="-4.461264474207316"><ele>483.5</ele><time>2026-03-28T11:44:09Z</time></trkpt><trkpt lat="36.80953476399936" lon="-4.461109506836792"><ele>486.75</ele><time>2026-03-28T11:44:10Z</time></trkpt><trkpt lat="36.809496887790054" lon="-4.46095819369934"><ele>490.0</ele><time>2026-03-28T11:44:11Z</time></trkpt><trkpt lat="36.80945902739863" lon="-4.460800658218572"><ele>490.0</ele><time>2026-03-28T11:44:12Z</time></trkpt><trkpt lat="36.80942531414734" lon="-4.460643195673164"><ele>490.0</ele><time>2026-03-28T11:44:13Z</time></trkpt><trkpt lat="36.80941721371546" lon="-4.460484050477128"><ele>490.0</ele><time>2026-03-28T11:44:14Z</time></trkpt><trkpt lat="36.80942247618455" lon="-4.460351318300365"><ele>490.0</ele><time>2026-03-28T11:44:15Z</time></trkpt><trkpt lat="36.809421521219676" lon="-4.460227438137476"><ele>489.8</ele><time>2026-03-28T11:44:16Z</time></trkpt><trkpt lat="36.809385789318675" lon="-4.460118663262182"><ele>489.6</ele><time>2026-03-28T11:44:17Z</time></trkpt><trkpt lat="36.8093001336478" lon="-4.460046199513358"><ele>489.4</ele><time>2026-03-28T11:44:18Z</time></trkpt><trkpt lat="36.80921809750879" lon="-4.459957169067572"><ele>489.2</ele><time>2026-03-28T11:44:19Z</time></trkpt><trkpt lat="36.80911936858486" lon="-4.459895948055597"><ele>489.0</ele><time>2026-03-28T11:44:20Z</time></trkpt><trkpt lat="36.809027129350056" lon="-4.459815227397646"><ele>490.0</ele><time>2026-03-28T11:44:21Z</time></trkpt><trkpt lat="36.808948464699846" lon="-4.459714975319481"><ele>491.0</ele><time>2026-03-28T11:44:22Z</time></trkpt><trkpt lat="36.808889813775544" lon="-4.459584268178607"><ele>492.0</ele><time>2026-03-28T11:44:23Z</time></trkpt><trkpt lat="36.8088405389372" lon="-4.459451273546162"><ele>493.0</ele><time>2026-03-28T11:44:24Z</time></trkpt><trkpt lat="36.80875476993509" lon="-4.45935740118764"><ele>493.0</ele><time>2026-03-28T11:44:25Z</time></trkpt><trkpt lat="36.808667318289665" lon="-4.45925091523351"><ele>493.0</ele><time>2026-03-28T11:44:26Z</time></trkpt><trkpt lat="36.80855988598357" lon="-4.4591740310614005"><ele>493.0</ele><time>2026-03-28T11:44:27Z</time></trkpt><trkpt lat="36.80844920556948" lon="-4.459098991125763"><ele>493.0</ele><time>2026-03-28T11:44:28Z</time></trkpt><trkpt lat="36.8083505907194" lon="-4.459030856386131"><ele>490.1666666666667</ele><time>2026-03-28T11:44:29Z</time></trkpt><trkpt lat="36.8082656047192" lon="-4.458971115006558"><ele>487.33333333333337</ele><time>2026-03-28T11:44:30Z</time></trkpt><trkpt lat="36.808195144780484" lon="-4.458918833116038"><ele>484.5</ele><time>2026-03-28T11:44:31Z</time></trkpt><trkpt lat="36.80813507922559" lon="-4.458875819777957"><ele>481.66666666666663</ele><time>2026-03-28T11:44:32Z</time></trkpt><trkpt lat="36.80804597273985" lon="-4.458818924567556"><ele>478.8333333333333</ele><time>2026-03-28T11:44:34Z</time></trkpt><trkpt lat="36.80798442110957" lon="-4.4587793398408095"><ele>476.0</ele><time>2026-03-28T11:44:36Z</time></trkpt><trkpt lat="36.807895313507636" lon="-4.458648016038981"><ele>476.0</ele><time>2026-03-28T11:51:00Z</time></trkpt><trkpt lat="36.807865012993595" lon="-4.458538590949888"><ele>476.0</ele><time>2026-03-28T11:51:02Z</time></trkpt><trkpt lat="36.80788700395226" lon="-4.458405410547753"><ele>476.0</ele><time>2026-03-28T11:51:04Z</time></trkpt><trkpt lat="36.80794390866184" lon="-4.458262729455671"><ele>476.0</ele><time>2026-03-28T11:51:06Z</time></trkpt><trkpt lat="36.8079602295834" lon="-4.458174791914983"><ele>476.0</ele><time>2026-03-28T11:51:07Z</time></trkpt><trkpt lat="36.80796062617897" lon="-4.458070634765437"><ele>475.99999999999994</ele><time>2026-03-28T11:51:08Z</time></trkpt><trkpt lat="36.80795122968732" lon="-4.457967767101073"><ele>476.0</ele><time>2026-03-28T11:51:09Z</time></trkpt><trkpt lat="36.807931868933466" lon="-4.457865761357112"><ele>476.0</ele><time>2026-03-28T11:51:10Z</time></trkpt><trkpt lat="36.80790914729098" lon="-4.457770141985009"><ele>476.0</ele><time>2026-03-28T11:51:11Z</time></trkpt><trkpt lat="36.807873892479066" lon="-4.457683306670312"><ele>475.99999999999994</ele><time>2026-03-28T11:51:12Z</time></trkpt><trkpt lat="36.80783043838991" lon="-4.457594243998822"><ele>476.0</ele><time>2026-03-28T11:51:13Z</time></trkpt><trkpt lat="36.80778260715836" lon="-4.457503371100341"><ele>475.0</ele><time>2026-03-28T11:51:14Z</time></trkpt><trkpt lat="36.80772870569614" lon="-4.457405971037"><ele>474.0</ele><time>2026-03-28T11:51:15Z</time></trkpt><trkpt lat="36.80767117436828" lon="-4.457305150765818"><ele>473.0</ele><time>2026-03-28T11:51:16Z</time></trkpt><trkpt lat="36.807614152678205" lon="-4.457209185232838"><ele>472.0</ele><time>2026-03-28T11:51:17Z</time></trkpt><trkpt lat="36.80755172256191" lon="-4.457114391199018"><ele>471.0</ele><time>2026-03-28T11:51:18Z</time></trkpt><trkpt lat="36.80749194064201" lon="-4.457035472053778"><ele>471.0</ele><time>2026-03-28T11:51:19Z</time></trkpt><trkpt lat="36.80742255040665" lon="-4.456965901008437"><ele>471.0</ele><time>2026-03-28T11:51:20Z</time></trkpt><trkpt lat="36.80734964768698" lon="-4.456920931299022"><ele>471.0</ele><time>2026-03-28T11:51:21Z</time></trkpt><trkpt lat="36.8072669048492" lon="-4.456920591418454"><ele>471.0</ele><time>2026-03-28T11:51:22Z</time></trkpt><trkpt lat="36.8071769978143" lon="-4.456949126872077"><ele>471.0</ele><time>2026-03-28T11:51:23Z</time></trkpt><trkpt lat="36.807089848646335" lon="-4.456992661598881"><ele>471.0</ele><time>2026-03-28T11:51:24Z</time></trkpt><trkpt lat="36.80699959949874" lon="-4.457043054471682"><ele>471.0</ele><time>2026-03-28T11:51:25Z</time></trkpt><trkpt lat="36.80691069612068" lon="-4.457092527656353"><ele>471.0</ele><time>2026-03-28T11:51:26Z</time></trkpt><trkpt lat="36.80682020939504" lon="-4.4571298267292505"><ele>471.0</ele><time>2026-03-28T11:51:27Z</time></trkpt><trkpt lat="36.80672482547265" lon="-4.457161188961777"><ele>471.0</ele><time>2026-03-28T11:51:28Z</time></trkpt><trkpt lat="36.80662650045872" lon="-4.457159946732758"><ele>471.0</ele><time>2026-03-28T11:51:29Z</time></trkpt><trkpt lat="36.80652879408856" lon="-4.457126759850302"><ele>471.6</ele><time>2026-03-28T11:51:30Z</time></trkpt><trkpt lat="36.806425318585774" lon="-4.457088913830574"><ele>472.20000000000005</ele><time>2026-03-28T11:51:31Z</time></trkpt><trkpt lat="36.80633720411889" lon="-4.457010438418581"><ele>472.79999999999995</ele><time>2026-03-28T11:51:32Z</time></trkpt><trkpt lat="36.8062724312518" lon="-4.456897990253326"><ele>473.4</ele><time>2026-03-28T11:51:33Z</time></trkpt><trkpt lat="36.80619583694625" lon="-4.456810524983698"><ele>474.0</ele><time>2026-03-28T11:51:34Z</time></trkpt><trkpt lat="36.80614395297962" lon="-4.456713926727057"><ele>474.0</ele><time>2026-03-28T11:51:35Z</time></trkpt><trkpt lat="36.8061085490486" lon="-4.456614107806"><ele>474.0</ele><time>2026-03-28T11:51:36Z</time></trkpt><trkpt lat="36.80605056207406" lon="-4.4565323278413285"><ele>474.0</ele><time>2026-03-28T11:51:37Z</time></trkpt><trkpt lat="36.80597922205647" lon="-4.456463642141728"><ele>474.0</ele><time>2026-03-28T11:51:38Z</time></trkpt><trkpt lat="36.8058953422943" lon="-4.456418845763602"><ele>474.0</ele><time>2026-03-28T11:51:39Z</time></trkpt><trkpt lat="36.80580813393157" lon="-4.456377502064739"><ele>474.0</ele><time>2026-03-28T11:51:40Z</time></trkpt><trkpt lat="36.80571311087205" lon="-4.4563523417704864"><ele>472.6</ele><time>2026-03-28T11:51:41Z</time></trkpt><trkpt lat="36.80560773717007" lon="-4.456352258005639"><ele>471.2</ele><time>2026-03-28T11:51:42Z</time></trkpt><trkpt lat="36.805509191422225" lon="-4.456348728754584"><ele>469.80000000000007</ele><time>2026-03-28T11:51:42.999Z</time></trkpt><trkpt lat="36.805419540083854" lon="-4.456334610426038"><ele>468.40000000000003</ele><time>2026-03-28T11:51:43.999Z</time></trkpt><trkpt lat="36.80533211437069" lon="-4.456315783325937"><ele>467.0</ele><time>2026-03-28T11:51:44.999Z</time></trkpt><trkpt lat="36.805261208661925" lon="-4.456223857060015"><ele>467.0</ele><time>2026-03-28T11:51:45.999Z</time></trkpt><trkpt lat="36.80521420161304" lon="-4.456103528082821"><ele>467.0</ele><time>2026-03-28T11:51:46.999Z</time></trkpt><trkpt lat="36.8052226179496" lon="-4.455956998707064"><ele>467.0</ele><time>2026-03-28T11:51:47.999Z</time></trkpt><trkpt lat="36.805262677536156" lon="-4.455822533648311"><ele>467.0</ele><time>2026-03-28T11:51:48.999Z</time></trkpt><trkpt lat="36.80525818576928" lon="-4.455681094453344"><ele>467.0</ele><time>2026-03-28T11:51:49.999Z</time></trkpt><trkpt lat="36.805253818694844" lon="-4.4555386772223935"><ele>467.0</ele><time>2026-03-28T11:51:50.999Z</time></trkpt><trkpt lat="36.8052538186934" lon="-4.455393589832845"><ele>467.0</ele><time>2026-03-28T11:51:51.999Z</time></trkpt><trkpt lat="36.8052538186933" lon="-4.455242720737183"><ele>467.0</ele><time>2026-03-28T11:51:52.999Z</time></trkpt><trkpt lat="36.80525121225685" lon="-4.455100995119068"><ele>465.0</ele><time>2026-03-28T11:51:53.999Z</time></trkpt><trkpt lat="36.80524577335812" lon="-4.454970955905009"><ele>463.00000000000006</ele><time>2026-03-28T11:51:54.999Z</time></trkpt><trkpt lat="36.80522922134895" lon="-4.454852331947334"><ele>461.00000000000006</ele><time>2026-03-28T11:51:55.999Z</time></trkpt><trkpt lat="36.80519983595484" lon="-4.454736751661551"><ele>459.0</ele><time>2026-03-28T11:51:56.999Z</time></trkpt><trkpt lat="36.805134748644576" lon="-4.454637829019107"><ele>457.0</ele><time>2026-03-28T11:51:57.999Z</time></trkpt><trkpt lat="36.80506688543883" lon="-4.454541413246444"><ele>463.0</ele><time>2026-03-28T11:51:58.999Z</time></trkpt><trkpt lat="36.80499813751152" lon="-4.454443667472002"><ele>469.00000000000006</ele><time>2026-03-28T11:51:59.999Z</time></trkpt><trkpt lat="36.804952010824614" lon="-4.454349682024605"><ele>475.00000000000006</ele><time>2026-03-28T11:52:00.999Z</time></trkpt><trkpt lat="36.804908888006054" lon="-4.454253316678518"><ele>481.0</ele><time>2026-03-28T11:52:01.999Z</time></trkpt><trkpt lat="36.80493475758643" lon="-4.454136254214977"><ele>487.0</ele><time>2026-03-28T11:52:02.999Z</time></trkpt><trkpt lat="36.80498791446428" lon="-4.454032667190823"><ele>487.0</ele><time>2026-03-28T11:52:03.999Z</time></trkpt><trkpt lat="36.80508130209664" lon="-4.453955391500981"><ele>487.00000000000006</ele><time>2026-03-28T11:52:04.999Z</time></trkpt><trkpt lat="36.805174656315955" lon="-4.453898874267863"><ele>487.00000000000006</ele><time>2026-03-28T11:52:05.999Z</time></trkpt><trkpt lat="36.80527014174491" lon="-4.453833810320234"><ele>487.0</ele><time>2026-03-28T11:52:06.999Z</time></trkpt><trkpt lat="36.805328362928" lon="-4.453702925991257"><ele>487.0</ele><time>2026-03-28T11:52:07.999Z</time></trkpt><trkpt lat="36.805404540665286" lon="-4.453579032659361"><ele>481.5</ele><time>2026-03-28T11:52:08.999Z</time></trkpt><trkpt lat="36.80548583487919" lon="-4.453448771990136"><ele>476.0</ele><time>2026-03-28T11:52:09.999Z</time></trkpt><trkpt lat="36.80557471981386" lon="-4.453318636556087"><ele>470.5</ele><time>2026-03-28T11:52:10.999Z</time></trkpt><trkpt lat="36.80566889044639" lon="-4.453192153330564"><ele>465.0</ele><time>2026-03-28T11:52:11.999Z</time></trkpt><trkpt lat="36.8057697932915" lon="-4.453071237099322"><ele>465.0</ele><time>2026-03-28T11:52:12.999Z</time></trkpt><trkpt lat="36.8058766306999" lon="-4.452968437013912"><ele>465.0</ele><time>2026-03-28T11:52:13.999Z</time></trkpt><trkpt lat="36.80597447725864" lon="-4.452867674124292"><ele>465.0</ele><time>2026-03-28T11:52:14.999Z</time></trkpt><trkpt lat="36.80607483764972" lon="-4.452783790842782"><ele>465.0</ele><time>2026-03-28T11:52:15.999Z</time></trkpt><trkpt lat="36.806164015654254" lon="-4.452689701747637"><ele>465.0</ele><time>2026-03-28T11:52:16.999Z</time></trkpt><trkpt lat="36.80623977574527" lon="-4.452581745774418"><ele>465.0</ele><time>2026-03-28T11:52:17.999Z</time></trkpt><trkpt lat="36.80632933436816" lon="-4.452496342027879"><ele>465.0</ele><time>2026-03-28T11:52:18.999Z</time></trkpt><trkpt lat="36.806423239142894" lon="-4.452433799824596"><ele>465.0</ele><time>2026-03-28T11:52:19.999Z</time></trkpt><trkpt lat="36.80653645485506" lon="-4.452410712548339"><ele>465.0</ele><time>2026-03-28T11:52:20.999Z</time></trkpt><trkpt lat="36.80664334366446" lon="-4.452425536839312"><ele>465.0</ele><time>2026-03-28T11:52:21.999Z</time></trkpt><trkpt lat="36.80673988178634" lon="-4.452478352669085"><ele>465.0</ele><time>2026-03-28T11:52:22.999Z</time></trkpt><trkpt lat="36.806837006448106" lon="-4.452483046682579"><ele>465.0</ele><time>2026-03-28T11:52:23.999Z</time></trkpt><trkpt lat="36.80692685183476" lon="-4.4525025684325055"><ele>465.0</ele><time>2026-03-28T11:52:24.999Z</time></trkpt><trkpt lat="36.807008689052964" lon="-4.452432476927285"><ele>465.0</ele><time>2026-03-28T11:52:25.999Z</time></trkpt><trkpt lat="36.8070987726297" lon="-4.4523537080089275"><ele>461.75</ele><time>2026-03-28T11:52:27Z</time></trkpt><trkpt lat="36.807192513849984" lon="-4.452268241713903"><ele>458.5</ele><time>2026-03-28T11:52:28Z</time></trkpt><trkpt lat="36.8072993776817" lon="-4.452196373865444"><ele>455.25</ele><time>2026-03-28T11:52:29Z</time></trkpt><trkpt lat="36.80738777335567" lon="-4.452101358390697"><ele>452.0</ele><time>2026-03-28T11:52:30Z</time></trkpt><trkpt lat="36.80750452242939" lon="-4.452044440861757"><ele>452.0</ele><time>2026-03-28T11:52:31Z</time></trkpt><trkpt lat="36.807637516017586" lon="-4.452046740561722"><ele>452.0</ele><time>2026-03-28T11:52:32Z</time></trkpt><trkpt lat="36.807767372293405" lon="-4.452041806526407"><ele>452.0</ele><time>2026-03-28T11:52:33Z</time></trkpt><trkpt lat="36.80789118681292" lon="-4.451982277768311"><ele>452.0</ele><time>2026-03-28T11:52:34Z</time></trkpt><trkpt lat="36.8080092857293" lon="-4.451929457543241"><ele>449.8</ele><time>2026-03-28T11:52:35Z</time></trkpt><trkpt lat="36.80812212747577" lon="-4.451894017254477"><ele>447.6</ele><time>2026-03-28T11:52:36Z</time></trkpt><trkpt lat="36.80820743399298" lon="-4.451824337948257"><ele>445.40000000000003</ele><time>2026-03-28T11:52:37Z</time></trkpt><trkpt lat="36.80828209614531" lon="-4.451779962477775"><ele>443.20000000000005</ele><time>2026-03-28T11:52:38Z</time></trkpt><trkpt lat="36.80835194041295" lon="-4.451747625771866"><ele>441.0</ele><time>2026-03-28T11:52:39Z</time></trkpt><trkpt lat="36.80839269931729" lon="-4.4516689025631395"><ele>441.0</ele><time>2026-03-28T11:52:40Z</time></trkpt><trkpt lat="36.808399164681646" lon="-4.45157289235755"><ele>441.0</ele><time>2026-03-28T11:52:41Z</time></trkpt><trkpt lat="36.80836615384467" lon="-4.451485852264301"><ele>441.0</ele><time>2026-03-28T11:52:42Z</time></trkpt><trkpt lat="36.808304447877774" lon="-4.45143921995119"><ele>441.0</ele><time>2026-03-28T11:52:43Z</time></trkpt><trkpt lat="36.80821975210035" lon="-4.451429891928916"><ele>441.0</ele><time>2026-03-28T11:52:44Z</time></trkpt><trkpt lat="36.80812354043402" lon="-4.451444915376035"><ele>441.0</ele><time>2026-03-28T11:52:45Z</time></trkpt><trkpt lat="36.808015177602336" lon="-4.451463788987774"><ele>441.0</ele><time>2026-03-28T11:52:46Z</time></trkpt><trkpt lat="36.80789893347529" lon="-4.451476103774475"><ele>441.0</ele><time>2026-03-28T11:52:47Z</time></trkpt><trkpt lat="36.807778880388575" lon="-4.451480475583785"><ele>441.0</ele><time>2026-03-28T11:52:48Z</time></trkpt><trkpt lat="36.807653179618214" lon="-4.45147742459261"><ele>441.0</ele><time>2026-03-28T11:52:49Z</time></trkpt><trkpt lat="36.80753336444993" lon="-4.451456361249332"><ele>443.75</ele><time>2026-03-28T11:52:50Z</time></trkpt><trkpt lat="36.807426934593295" lon="-4.451401663805031"><ele>446.5</ele><time>2026-03-28T11:52:51Z</time></trkpt><trkpt lat="36.80731472791807" lon="-4.451347160421302"><ele>449.25</ele><time>2026-03-28T11:52:52Z</time></trkpt><trkpt lat="36.80721459024631" lon="-4.451284163232008"><ele>452.0</ele><time>2026-03-28T11:52:53Z</time></trkpt><trkpt lat="36.80711859104305" lon="-4.451222057109971"><ele>450.40000000000003</ele><time>2026-03-28T11:52:54Z</time></trkpt><trkpt lat="36.80700731131884" lon="-4.45122277047758"><ele>448.80000000000007</ele><time>2026-03-28T11:52:55Z</time></trkpt><trkpt lat="36.80689324698622" lon="-4.4512435091005536"><ele>447.2</ele><time>2026-03-28T11:52:56Z</time></trkpt><trkpt lat="36.80678407839018" lon="-4.451248984619484"><ele>445.6</ele><time>2026-03-28T11:52:57Z</time></trkpt><trkpt lat="36.8066821050186" lon="-4.45122847314652"><ele>444.0</ele><time>2026-03-28T11:52:58Z</time></trkpt><trkpt lat="36.80659435254773" lon="-4.451188035389546"><ele>444.0</ele><time>2026-03-28T11:52:59Z</time></trkpt><trkpt lat="36.80652048062067" lon="-4.451133368009352"><ele>444.0</ele><time>2026-03-28T11:53:00Z</time></trkpt><trkpt lat="36.806468934758485" lon="-4.451064662671757"><ele>444.0</ele><time>2026-03-28T11:53:01Z</time></trkpt><trkpt lat="36.80642669555265" lon="-4.45098770529094"><ele>444.0</ele><time>2026-03-28T11:53:02Z</time></trkpt><trkpt lat="36.80645083477641" lon="-4.45087698896389"><ele>444.0</ele><time>2026-03-28T11:53:03Z</time></trkpt><trkpt lat="36.806534426487616" lon="-4.450816557111738"><ele>444.0</ele><time>2026-03-28T11:53:04Z</time></trkpt><trkpt lat="36.806598446287" lon="-4.450774098148107"><ele>444.0</ele><time>2026-03-28T11:53:05Z</time></trkpt><trkpt lat="36.80666241418645" lon="-4.450746209362143"><ele>444.0</ele><time>2026-03-28T11:53:06Z</time></trkpt><trkpt lat="36.80674766160261" lon="-4.450656889636058"><ele>444.0</ele><time>2026-03-28T11:53:08Z</time></trkpt><trkpt lat="36.80681278191493" lon="-4.450565154495749"><ele>444.0</ele><time>2026-03-28T11:53:10Z</time></trkpt><trkpt lat="36.80688804447235" lon="-4.450466885695285"><ele>444.0</ele><time>2026-03-28T11:53:12Z</time></trkpt><trkpt lat="36.80697206522877" lon="-4.450375664073529"><ele>439.1666666666667</ele><time>2026-03-28T11:53:14Z</time></trkpt><trkpt lat="36.80704318889075" lon="-4.450310297110563"><ele>434.33333333333337</ele><time>2026-03-28T11:53:16Z</time></trkpt><trkpt lat="36.80711939028992" lon="-4.450248376326231"><ele>429.5</ele><time>2026-03-28T11:53:18Z</time></trkpt><trkpt lat="36.80717158339848" lon="-4.450194901710462"><ele>424.6666666666667</ele><time>2026-03-28T11:53:19Z</time></trkpt><trkpt lat="36.80723685821507" lon="-4.4501496987594535"><ele>419.83333333333337</ele><time>2026-03-28T11:53:20Z</time></trkpt><trkpt lat="36.80730434485102" lon="-4.450098968725498"><ele>415.0</ele><time>2026-03-28T11:53:21Z</time></trkpt><trkpt lat="36.807349568149604" lon="-4.450017332261266"><ele>415.0</ele><time>2026-03-28T11:53:22Z</time></trkpt><trkpt lat="36.8073746252182" lon="-4.449911108950201"><ele>415.0</ele><time>2026-03-28T11:53:23Z</time></trkpt><trkpt lat="36.80736767651889" lon="-4.449789289562311"><ele>415.0</ele><time>2026-03-28T11:53:24Z</time></trkpt><trkpt lat="36.80732730942508" lon="-4.449668504170782"><ele>415.0</ele><time>2026-03-28T11:53:25Z</time></trkpt><trkpt lat="36.807249859799256" lon="-4.449591095120017"><ele>415.0</ele><time>2026-03-28T11:53:26Z</time></trkpt><trkpt lat="36.80717204291411" lon="-4.449502526965991"><ele>413.2</ele><time>2026-03-28T11:53:27Z</time></trkpt><trkpt lat="36.80709713092067" lon="-4.449398761859771"><ele>411.4</ele><time>2026-03-28T11:53:28Z</time></trkpt><trkpt lat="36.80700360228894" lon="-4.449316539645031"><ele>409.6</ele><time>2026-03-28T11:53:29Z</time></trkpt><trkpt lat="36.80693842241993" lon="-4.449205236494614"><ele>407.8</ele><time>2026-03-28T11:53:30Z</time></trkpt><trkpt lat="36.80690102450309" lon="-4.449084933628359"><ele>406.0</ele><time>2026-03-28T11:53:31Z</time></trkpt><trkpt lat="36.80688736232244" lon="-4.448961130462264"><ele>406.00000000000006</ele><time>2026-03-28T11:53:32Z</time></trkpt><trkpt lat="36.80690477163597" lon="-4.448852358425322"><ele>406.0</ele><time>2026-03-28T11:53:33Z</time></trkpt><trkpt lat="36.80690771076296" lon="-4.448760590182163"><ele>406.0</ele><time>2026-03-28T11:53:34Z</time></trkpt><trkpt lat="36.80691226812361" lon="-4.448681621311778"><ele>406.0</ele><time>2026-03-28T11:53:35Z</time></trkpt><trkpt lat="36.80691801112515" lon="-4.448553772208321"><ele>406.00000000000006</ele><time>2026-03-28T11:53:37Z</time></trkpt><trkpt lat="36.806899068221014" lon="-4.448451616737464"><ele>406.0</ele><time>2026-03-28T11:53:39Z</time></trkpt><trkpt lat="36.806819909865595" lon="-4.4483551861082375"><ele>410.25</ele><time>2026-03-28T11:53:41Z</time></trkpt><trkpt lat="36.80672744269881" lon="-4.44831451276151"><ele>414.5</ele><time>2026-03-28T11:53:43Z</time></trkpt><trkpt lat="36.80665347043117" lon="-4.448282759722277"><ele>418.75</ele><time>2026-03-28T11:53:46Z</time></trkpt><trkpt lat="36.80642717802495" lon="-4.448203668622259"><ele>423.0</ele><time>2026-03-28T11:53:50Z</time></trkpt><trkpt lat="36.806788259341765" lon="-4.448310186825264"><ele>420.1666666666667</ele><time>2026-03-28T11:53:51Z</time></trkpt><trkpt lat="36.8068558412763" lon="-4.448354100547973"><ele>417.33333333333337</ele><time>2026-03-28T11:53:52Z</time></trkpt><trkpt lat="36.80691466047816" lon="-4.44841935854165"><ele>414.5</ele><time>2026-03-28T11:53:52.999Z</time></trkpt><trkpt lat="36.806947134817726" lon="-4.448519390411952"><ele>411.6666666666667</ele><time>2026-03-28T11:53:53.999Z</time></trkpt><trkpt lat="36.80694558785764" lon="-4.448642035710437"><ele>408.83333333333337</ele><time>2026-03-28T11:53:54.999Z</time></trkpt><trkpt lat="36.80693463200031" lon="-4.448766946994956"><ele>406.0</ele><time>2026-03-28T11:53:55.999Z</time></trkpt><trkpt lat="36.80692152973623" lon="-4.44890574788057"><ele>406.0</ele><time>2026-03-28T11:53:56.999Z</time></trkpt><trkpt lat="36.80693218604855" lon="-4.449049584725522"><ele>406.0</ele><time>2026-03-28T11:53:57.999Z</time></trkpt><trkpt lat="36.80697228702709" lon="-4.449180231360435"><ele>406.0</ele><time>2026-03-28T11:53:58.999Z</time></trkpt><trkpt lat="36.80704197648593" lon="-4.44929478870016"><ele>406.0</ele><time>2026-03-28T11:53:59.999Z</time></trkpt><trkpt lat="36.80712547860137" lon="-4.4493909613026466"><ele>406.0</ele><time>2026-03-28T11:54:00.999Z</time></trkpt><trkpt lat="36.807214152367806" lon="-4.449477597891619"><ele>406.0</ele><time>2026-03-28T11:54:01.999Z</time></trkpt><trkpt lat="36.807294321285845" lon="-4.44957149028507"><ele>406.0</ele><time>2026-03-28T11:54:02.999Z</time></trkpt><trkpt lat="36.80735517007929" lon="-4.449685474203996"><ele>406.0</ele><time>2026-03-28T11:54:03.999Z</time></trkpt><trkpt lat="36.80739003723067" lon="-4.449809726406651"><ele>406.0</ele><time>2026-03-28T11:54:04.999Z</time></trkpt><trkpt lat="36.80739078187659" lon="-4.449929184569635"><ele>407.8</ele><time>2026-03-28T11:54:05.999Z</time></trkpt><trkpt lat="36.807374058341196" lon="-4.450052859852087"><ele>409.6</ele><time>2026-03-28T11:54:06.999Z</time></trkpt><trkpt lat="36.80728428351391" lon="-4.450142188663835"><ele>411.4</ele><time>2026-03-28T11:54:07.999Z</time></trkpt><trkpt lat="36.80719253718836" lon="-4.450221300014529"><ele>413.2</ele><time>2026-03-28T11:54:08.999Z</time></trkpt><trkpt lat="36.807093095570984" lon="-4.450298247997719"><ele>415.0</ele><time>2026-03-28T11:54:09.999Z</time></trkpt><trkpt lat="36.8069911179312" lon="-4.450392193430683"><ele>417.0</ele><time>2026-03-28T11:54:10.999Z</time></trkpt><trkpt lat="36.80689566051142" lon="-4.450497669279619"><ele>419.0</ele><time>2026-03-28T11:54:11.999Z</time></trkpt><trkpt lat="36.806805569558534" lon="-4.450611222174267"><ele>421.0</ele><time>2026-03-28T11:54:12.999Z</time></trkpt><trkpt lat="36.806724244019726" lon="-4.450730169867682"><ele>423.0</ele><time>2026-03-28T11:54:13.999Z</time></trkpt><trkpt lat="36.80663281728895" lon="-4.450810188082642"><ele>427.2</ele><time>2026-03-28T11:54:14.999Z</time></trkpt><trkpt lat="36.806550295781115" lon="-4.450850615387837"><ele>431.4</ele><time>2026-03-28T11:54:15.999Z</time></trkpt><trkpt lat="36.806485723308825" lon="-4.450906444483777"><ele>435.59999999999997</ele><time>2026-03-28T11:54:16.999Z</time></trkpt><trkpt lat="36.80646785886669" lon="-4.450990171837897"><ele>439.79999999999995</ele><time>2026-03-28T11:54:17.999Z</time></trkpt><trkpt lat="36.80653537538518" lon="-4.451129162205776"><ele>444.0</ele><time>2026-03-28T11:54:19.999Z</time></trkpt><trkpt lat="36.80662431222374" lon="-4.451168457160942"><ele>444.0</ele><time>2026-03-28T11:54:20.999Z</time></trkpt><trkpt lat="36.80672542813082" lon="-4.451194773761927"><ele>444.0</ele><time>2026-03-28T11:54:21.999Z</time></trkpt><trkpt lat="36.8068306964567" lon="-4.4511906143958075"><ele>444.0</ele><time>2026-03-28T11:54:22.999Z</time></trkpt><trkpt lat="36.80693876720135" lon="-4.451169083244374"><ele>444.0</ele><time>2026-03-28T11:54:23.999Z</time></trkpt><trkpt lat="36.807052885771384" lon="-4.45117609187481"><ele>444.0</ele><time>2026-03-28T11:54:24.999Z</time></trkpt><trkpt lat="36.80716162376309" lon="-4.451209954110945"><ele>446.0</ele><time>2026-03-28T11:54:25.999Z</time></trkpt><trkpt lat="36.807274059016216" lon="-4.451274821455921"><ele>448.0</ele><time>2026-03-28T11:54:26.999Z</time></trkpt><trkpt lat="36.807388350194486" lon="-4.45135460134424"><ele>450.0</ele><time>2026-03-28T11:54:27.999Z</time></trkpt><trkpt lat="36.80750557904921" lon="-4.451420006668254"><ele>452.0</ele><time>2026-03-28T11:54:28.999Z</time></trkpt><trkpt lat="36.80763699267502" lon="-4.4514530147261695"><ele>449.25</ele><time>2026-03-28T11:54:29.999Z</time></trkpt><trkpt lat="36.80777331385713" lon="-4.451458958993843"><ele>446.5</ele><time>2026-03-28T11:54:30.999Z</time></trkpt><trkpt lat="36.807914226809444" lon="-4.451448836389065"><ele>443.75</ele><time>2026-03-28T11:54:31.999Z</time></trkpt><trkpt lat="36.808053728824376" lon="-4.45143345686774"><ele>441.0</ele><time>2026-03-28T11:54:33Z</time></trkpt><trkpt lat="36.80817687254435" lon="-4.451417162784222"><ele>441.0</ele><time>2026-03-28T11:54:34Z</time></trkpt><trkpt lat="36.80827425675256" lon="-4.4514121338384465"><ele>441.0</ele><time>2026-03-28T11:54:35Z</time></trkpt><trkpt lat="36.808353042248406" lon="-4.451434510784501"><ele>441.0</ele><time>2026-03-28T11:54:36Z</time></trkpt><trkpt lat="36.80840981456422" lon="-4.451502366031145"><ele>441.0</ele><time>2026-03-28T11:54:37Z</time></trkpt><trkpt lat="36.808422435288904" lon="-4.451604103555206"><ele>441.0</ele><time>2026-03-28T11:54:38Z</time></trkpt><trkpt lat="36.808397229606484" lon="-4.451702281979637"><ele>441.0</ele><time>2026-03-28T11:54:39Z</time></trkpt><trkpt lat="36.808336296102965" lon="-4.451781324368207"><ele>441.0</ele><time>2026-03-28T11:54:40Z</time></trkpt><trkpt lat="36.808248481201325" lon="-4.451842292788686"><ele>441.0</ele><time>2026-03-28T11:54:41Z</time></trkpt><trkpt lat="36.808150347304824" lon="-4.451894935328002"><ele>441.0</ele><time>2026-03-28T11:54:42Z</time></trkpt><trkpt lat="36.80803795135506" lon="-4.451948786744282"><ele>441.0</ele><time>2026-03-28T11:54:43Z</time></trkpt><trkpt lat="36.80792204869386" lon="-4.452009304394955"><ele>441.0</ele><time>2026-03-28T11:54:44Z</time></trkpt><trkpt lat="36.80779348161365" lon="-4.452052066343202"><ele>441.0</ele><time>2026-03-28T11:54:45Z</time></trkpt><trkpt lat="36.807655832767495" lon="-4.452068150818324"><ele>441.0</ele><time>2026-03-28T11:54:46Z</time></trkpt><trkpt lat="36.80752377507705" lon="-4.452078773906063"><ele>441.0</ele><time>2026-03-28T11:54:47Z</time></trkpt><trkpt lat="36.80740283610001" lon="-4.452130452303047"><ele>441.25</ele><time>2026-03-28T11:54:48Z</time></trkpt><trkpt lat="36.807290195061675" lon="-4.45223288429868"><ele>441.5</ele><time>2026-03-28T11:54:49Z</time></trkpt><trkpt lat="36.80717848121461" lon="-4.452342839645481"><ele>441.75</ele><time>2026-03-28T11:54:50Z</time></trkpt><trkpt lat="36.807082026729965" lon="-4.452430306653098"><ele>442.0</ele><time>2026-03-28T11:54:51Z</time></trkpt><trkpt lat="36.806996667861405" lon="-4.452490153624334"><ele>442.0</ele><time>2026-03-28T11:54:52Z</time></trkpt><trkpt lat="36.80690513673145" lon="-4.452529465533787"><ele>442.00000000000006</ele><time>2026-03-28T11:54:53Z</time></trkpt><trkpt lat="36.80679586834137" lon="-4.452514586027432"><ele>442.00000000000006</ele><time>2026-03-28T11:54:54Z</time></trkpt><trkpt lat="36.80668315251111" lon="-4.452482896185592"><ele>442.0</ele><time>2026-03-28T11:54:55Z</time></trkpt><trkpt lat="36.806572462855804" lon="-4.452440433247684"><ele>442.0</ele><time>2026-03-28T11:54:56Z</time></trkpt><trkpt lat="36.80644856737377" lon="-4.452471798869673"><ele>447.75</ele><time>2026-03-28T11:54:57Z</time></trkpt><trkpt lat="36.806331255916" lon="-4.452547459591317"><ele>453.5</ele><time>2026-03-28T11:54:58Z</time></trkpt><trkpt lat="36.8062253843643" lon="-4.452652205707162"><ele>459.25</ele><time>2026-03-28T11:54:59Z</time></trkpt><trkpt lat="36.80612394637863" lon="-4.4527627100486225"><ele>465.0</ele><time>2026-03-28T11:55:00Z</time></trkpt><trkpt lat="36.806015633088215" lon="-4.452877665728859"><ele>465.0</ele><time>2026-03-28T11:55:01Z</time></trkpt><trkpt lat="36.80590285221259" lon="-4.452993669185047"><ele>465.0</ele><time>2026-03-28T11:55:02Z</time></trkpt><trkpt lat="36.80578773265097" lon="-4.453112503060468"><ele>465.0</ele><time>2026-03-28T11:55:03Z</time></trkpt><trkpt lat="36.805672100135425" lon="-4.453240313420229"><ele>465.0</ele><time>2026-03-28T11:55:04Z</time></trkpt><trkpt lat="36.80557001351532" lon="-4.453386654700517"><ele>465.0</ele><time>2026-03-28T11:55:05Z</time></trkpt><trkpt lat="36.80547536629187" lon="-4.453543236759264"><ele>465.0</ele><time>2026-03-28T11:55:06Z</time></trkpt><trkpt lat="36.80538161285151" lon="-4.453694901623824"><ele>461.5</ele><time>2026-03-28T11:55:07Z</time></trkpt><trkpt lat="36.80528181674871" lon="-4.4538195744726226"><ele>458.0</ele><time>2026-03-28T11:55:08Z</time></trkpt><trkpt lat="36.805191290369116" lon="-4.453934808188617"><ele>454.5</ele><time>2026-03-28T11:55:09Z</time></trkpt><trkpt lat="36.80509238265796" lon="-4.453995343809236"><ele>451.0</ele><time>2026-03-28T11:55:10Z</time></trkpt><trkpt lat="36.80500773652757" lon="-4.45405107255191"><ele>458.20000000000005</ele><time>2026-03-28T11:55:11Z</time></trkpt><trkpt lat="36.80496429304327" lon="-4.454152206570511"><ele>465.40000000000003</ele><time>2026-03-28T11:55:12Z</time></trkpt><trkpt lat="36.804951783061576" lon="-4.4542728006448105"><ele>472.6</ele><time>2026-03-28T11:55:13Z</time></trkpt><trkpt lat="36.80498370556281" lon="-4.45439632318104"><ele>479.8</ele><time>2026-03-28T11:55:14Z</time></trkpt><trkpt lat="36.80505196821228" lon="-4.454504874284785"><ele>487.0</ele><time>2026-03-28T11:55:15Z</time></trkpt><trkpt lat="36.8051362694932" lon="-4.454611952766353"><ele>479.5</ele><time>2026-03-28T11:55:16Z</time></trkpt><trkpt lat="36.80520900080549" lon="-4.454719033834418"><ele>472.0</ele><time>2026-03-28T11:55:17Z</time></trkpt><trkpt lat="36.8052586589881" lon="-4.454836571716034"><ele>464.5</ele><time>2026-03-28T11:55:18Z</time></trkpt><trkpt lat="36.80527936095871" lon="-4.454980164730783"><ele>457.0</ele><time>2026-03-28T11:55:19Z</time></trkpt><trkpt lat="36.80527785361031" lon="-4.455137001965816"><ele>457.0</ele><time>2026-03-28T11:55:20Z</time></trkpt><trkpt lat="36.80528449676665" lon="-4.455297419720368"><ele>457.0</ele><time>2026-03-28T11:55:21Z</time></trkpt><trkpt lat="36.80528936187817" lon="-4.455462223358908"><ele>457.0</ele><time>2026-03-28T11:55:22Z</time></trkpt><trkpt lat="36.80528594612573" lon="-4.4556270047058115"><ele>457.0</ele><time>2026-03-28T11:55:23Z</time></trkpt><trkpt lat="36.805267026865415" lon="-4.4557886402427975"><ele>459.0</ele><time>2026-03-28T11:55:24Z</time></trkpt><trkpt lat="36.80526071627864" lon="-4.455946898587093"><ele>461.00000000000006</ele><time>2026-03-28T11:55:25Z</time></trkpt><trkpt lat="36.80524089193696" lon="-4.456077984128398"><ele>463.00000000000006</ele><time>2026-03-28T11:55:26Z</time></trkpt><trkpt lat="36.80527393353684" lon="-4.456198021905306"><ele>465.0</ele><time>2026-03-28T11:55:27Z</time></trkpt><trkpt lat="36.80534132963678" lon="-4.456287976062526"><ele>467.0</ele><time>2026-03-28T11:55:28Z</time></trkpt><trkpt lat="36.80544434115913" lon="-4.456329922861599"><ele>474.25</ele><time>2026-03-28T11:55:29Z</time></trkpt><trkpt lat="36.80556040362098" lon="-4.456329319319215"><ele>481.5</ele><time>2026-03-28T11:55:30Z</time></trkpt><trkpt lat="36.80568195554729" lon="-4.4563231794351195"><ele>488.75</ele><time>2026-03-28T11:55:31Z</time></trkpt><trkpt lat="36.805803748899685" lon="-4.456347696678678"><ele>496.0</ele><time>2026-03-28T11:55:32Z</time></trkpt><trkpt lat="36.805922833653526" lon="-4.456401433507413"><ele>490.5</ele><time>2026-03-28T11:55:33Z</time></trkpt><trkpt lat="36.80602304494855" lon="-4.456471816301565"><ele>485.0</ele><time>2026-03-28T11:55:34Z</time></trkpt><trkpt lat="36.80610558324155" lon="-4.456585316096528"><ele>479.5</ele><time>2026-03-28T11:55:35Z</time></trkpt><trkpt lat="36.80617325448314" lon="-4.456728404125464"><ele>474.0</ele><time>2026-03-28T11:55:36Z</time></trkpt><trkpt lat="36.806262882733314" lon="-4.456848992054667"><ele>474.0</ele><time>2026-03-28T11:55:37Z</time></trkpt><trkpt lat="36.80634141794864" lon="-4.456978262530082"><ele>474.0</ele><time>2026-03-28T11:55:38Z</time></trkpt><trkpt lat="36.80645351154" lon="-4.457070807979146"><ele>474.0</ele><time>2026-03-28T11:55:39Z</time></trkpt><trkpt lat="36.806577111837754" lon="-4.457128401965107"><ele>474.0</ele><time>2026-03-28T11:55:40Z</time></trkpt><trkpt lat="36.80670440842555" lon="-4.457148596763874"><ele>474.0</ele><time>2026-03-28T11:55:41Z</time></trkpt><trkpt lat="36.806825023912275" lon="-4.457115791539919"><ele>474.0</ele><time>2026-03-28T11:55:42Z</time></trkpt><trkpt lat="36.806947659070104" lon="-4.457044495897425"><ele>474.0</ele><time>2026-03-28T11:55:43Z</time></trkpt><trkpt lat="36.807061023790055" lon="-4.456973360811699"><ele>474.0</ele><time>2026-03-28T11:55:44Z</time></trkpt><trkpt lat="36.807164792978384" lon="-4.456922157530102"><ele>473.4</ele><time>2026-03-28T11:55:45Z</time></trkpt><trkpt lat="36.80726094915034" lon="-4.456894778748375"><ele>472.79999999999995</ele><time>2026-03-28T11:55:46Z</time></trkpt><trkpt lat="36.80735374292429" lon="-4.45687239660147"><ele>472.20000000000005</ele><time>2026-03-28T11:55:47Z</time></trkpt><trkpt lat="36.8074476279752" lon="-4.456918812350299"><ele>471.6</ele><time>2026-03-28T11:55:48Z</time></trkpt><trkpt lat="36.80753122319183" lon="-4.457026560412837"><ele>471.0</ele><time>2026-03-28T11:55:49Z</time></trkpt><trkpt lat="36.80759792453226" lon="-4.4571582350853625"><ele>468.25</ele><time>2026-03-28T11:55:50Z</time></trkpt><trkpt lat="36.807676238339106" lon="-4.457284613375349"><ele>465.5</ele><time>2026-03-28T11:55:51Z</time></trkpt><trkpt lat="36.80774679020852" lon="-4.457403959586828"><ele>462.75</ele><time>2026-03-28T11:55:52Z</time></trkpt><trkpt lat="36.80781462341681" lon="-4.457518648343258"><ele>460.0</ele><time>2026-03-28T11:55:52.999Z</time></trkpt><trkpt lat="36.80787293168526" lon="-4.457627967738697"><ele>460.00000000000006</ele><time>2026-03-28T11:55:53.999Z</time></trkpt><trkpt lat="36.80791605072891" lon="-4.457737003459596"><ele>460.0</ele><time>2026-03-28T11:55:54.999Z</time></trkpt><trkpt lat="36.80794813716842" lon="-4.457841151142047"><ele>460.0</ele><time>2026-03-28T11:55:55.999Z</time></trkpt><trkpt lat="36.80797232254798" lon="-4.457944174983974"><ele>460.0</ele><time>2026-03-28T11:55:56.999Z</time></trkpt><trkpt lat="36.80798416058736" lon="-4.45804202761405"><ele>460.00000000000006</ele><time>2026-03-28T11:55:57.999Z</time></trkpt><trkpt lat="36.807978570217905" lon="-4.458145551846328"><ele>460.0</ele><time>2026-03-28T11:55:58.999Z</time></trkpt><trkpt lat="36.807957940528595" lon="-4.45825261474857"><ele>462.6666666666667</ele><time>2026-03-28T11:55:59.999Z</time></trkpt><trkpt lat="36.807927633382796" lon="-4.458351032879778"><ele>465.33333333333337</ele><time>2026-03-28T11:56:00.999Z</time></trkpt><trkpt lat="36.80789897896571" lon="-4.458444304418912"><ele>468.0</ele><time>2026-03-28T11:56:01.999Z</time></trkpt><trkpt lat="36.80788617013372" lon="-4.458529165679208"><ele>470.66666666666663</ele><time>2026-03-28T11:56:02.999Z</time></trkpt><trkpt lat="36.807897184000005" lon="-4.458621884412437"><ele>473.3333333333333</ele><time>2026-03-28T11:56:04.999Z</time></trkpt><trkpt lat="36.80781063760556" lon="-4.458653822789047"><ele>476.0</ele><time>2026-03-28T11:56:08.999Z</time></trkpt><trkpt lat="36.807731226229336" lon="-4.458559771915801"><ele>476.0</ele><time>2026-03-28T11:56:10.999Z</time></trkpt><trkpt lat="36.807773743724645" lon="-4.4584395950837346"><ele>476.0</ele><time>2026-03-28T11:56:11.999Z</time></trkpt><trkpt lat="36.80782084925335" lon="-4.45830272458411"><ele>476.0</ele><time>2026-03-28T11:56:13.999Z</time></trkpt><trkpt lat="36.80784986182829" lon="-4.458158053368315"><ele>476.0</ele><time>2026-03-28T11:56:15.999Z</time></trkpt><trkpt lat="36.80784960874334" lon="-4.458072804295316"><ele>476.0</ele><time>2026-03-28T11:56:16.999Z</time></trkpt><trkpt lat="36.807839857571125" lon="-4.457988933800876"><ele>473.3333333333333</ele><time>2026-03-28T11:56:17.999Z</time></trkpt><trkpt lat="36.807815460508415" lon="-4.4579037446207925"><ele>470.66666666666663</ele><time>2026-03-28T11:56:18.999Z</time></trkpt><trkpt lat="36.80777841783482" lon="-4.457819111321683"><ele>468.0</ele><time>2026-03-28T11:56:19.999Z</time></trkpt><trkpt lat="36.80773282384602" lon="-4.457739797371226"><ele>465.33333333333337</ele><time>2026-03-28T11:56:20.999Z</time></trkpt><trkpt lat="36.80768884843713" lon="-4.457645525560705"><ele>462.6666666666667</ele><time>2026-03-28T11:56:21.999Z</time></trkpt><trkpt lat="36.80762790732682" lon="-4.457569785221736"><ele>460.0</ele><time>2026-03-28T11:56:22.999Z</time></trkpt><trkpt lat="36.807546420248975" lon="-4.457508301159156"><ele>465.50000000000006</ele><time>2026-03-28T11:56:23.999Z</time></trkpt><trkpt lat="36.80747208559477" lon="-4.457432258087578"><ele>471.0</ele><time>2026-03-28T11:56:24.999Z</time></trkpt><trkpt lat="36.80740279112937" lon="-4.457358774628902"><ele>476.5</ele><time>2026-03-28T11:56:25.999Z</time></trkpt><trkpt lat="36.80733878651967" lon="-4.457300260047291"><ele>482.0</ele><time>2026-03-28T11:56:26.999Z</time></trkpt><trkpt lat="36.807278440061474" lon="-4.457256199433759"><ele>487.50000000000006</ele><time>2026-03-28T11:56:27.999Z</time></trkpt><trkpt lat="36.80720046358556" lon="-4.457261229142617"><ele>493.0</ele><time>2026-03-28T11:56:28.999Z</time></trkpt><trkpt lat="36.807120722549435" lon="-4.457295763546521"><ele>493.00000000000006</ele><time>2026-03-28T11:56:29.999Z</time></trkpt><trkpt lat="36.80703944957124" lon="-4.457344553493334"><ele>493.0</ele><time>2026-03-28T11:56:30.999Z</time></trkpt><trkpt lat="36.80696295472515" lon="-4.45739507510185"><ele>493.0</ele><time>2026-03-28T11:56:31.999Z</time></trkpt><trkpt lat="36.806887192351375" lon="-4.457448825770438"><ele>493.0</ele><time>2026-03-28T11:56:32.999Z</time></trkpt><trkpt lat="36.8068068998459" lon="-4.457495116894263"><ele>493.00000000000006</ele><time>2026-03-28T11:56:33.999Z</time></trkpt><trkpt lat="36.80672638051621" lon="-4.457544123355953"><ele>493.0</ele><time>2026-03-28T11:56:34.999Z</time></trkpt><trkpt lat="36.80662076959161" lon="-4.457526901698275"><ele>494.4</ele><time>2026-03-28T11:56:35.999Z</time></trkpt><trkpt lat="36.8065196388202" lon="-4.457538545757817"><ele>495.79999999999995</ele><time>2026-03-28T11:56:36.999Z</time></trkpt><trkpt lat="36.806423924963596" lon="-4.457501444311854"><ele>497.2</ele><time>2026-03-28T11:56:37.999Z</time></trkpt><trkpt lat="36.806333217393" lon="-4.4574833937797775"><ele>498.6</ele><time>2026-03-28T11:56:39Z</time></trkpt><trkpt lat="36.806255968963264" lon="-4.457445250504838"><ele>500.0</ele><time>2026-03-28T11:56:40Z</time></trkpt><trkpt lat="36.80617612325015" lon="-4.457411080665155"><ele>499.99999999999994</ele><time>2026-03-28T11:56:41Z</time></trkpt><trkpt lat="36.80609831882366" lon="-4.457359486295065"><ele>500.0</ele><time>2026-03-28T11:56:42Z</time></trkpt><trkpt lat="36.806032647187784" lon="-4.457276312967879"><ele>500.0</ele><time>2026-03-28T11:56:43Z</time></trkpt><trkpt lat="36.80597873368879" lon="-4.457193528552054"><ele>500.0</ele><time>2026-03-28T11:56:44Z</time></trkpt><trkpt lat="36.805923979453354" lon="-4.4571080466235635"><ele>499.99999999999994</ele><time>2026-03-28T11:56:45Z</time></trkpt><trkpt lat="36.805873484622964" lon="-4.457029214437287"><ele>500.0</ele><time>2026-03-28T11:56:46Z</time></trkpt><trkpt lat="36.80582888695072" lon="-4.456967274550473"><ele>499.3333333333333</ele><time>2026-03-28T11:56:47Z</time></trkpt><trkpt lat="36.805727269113945" lon="-4.456876139288552"><ele>498.66666666666663</ele><time>2026-03-28T11:56:49Z</time></trkpt><trkpt lat="36.8056658843334" lon="-4.456851315503391"><ele>498.0</ele><time>2026-03-28T11:56:50Z</time></trkpt><trkpt lat="36.80560247110043" lon="-4.456840418958557"><ele>497.33333333333337</ele><time>2026-03-28T11:56:51Z</time></trkpt><trkpt lat="36.80553286157021" lon="-4.456823127934358"><ele>496.6666666666667</ele><time>2026-03-28T11:56:52Z</time></trkpt><trkpt lat="36.80545563961811" lon="-4.456829501335826"><ele>496.0</ele><time>2026-03-28T11:56:53Z</time></trkpt><trkpt lat="36.80538013659306" lon="-4.456840185520527"><ele>496.00000000000006</ele><time>2026-03-28T11:56:54Z</time></trkpt><trkpt lat="36.805302505056275" lon="-4.456848305989601"><ele>496.0</ele><time>2026-03-28T11:56:55Z</time></trkpt><trkpt lat="36.80523243992308" lon="-4.45688666713634"><ele>496.0</ele><time>2026-03-28T11:56:56Z</time></trkpt><trkpt lat="36.80516987103002" lon="-4.456844347453829"><ele>496.0</ele><time>2026-03-28T11:56:58Z</time></trkpt><trkpt lat="36.80507073895229" lon="-4.456787757233662"><ele>496.00000000000006</ele><time>2026-03-28T11:57:08Z</time></trkpt><trkpt lat="36.80500854618423" lon="-4.456748673274574"><ele>496.0</ele><time>2026-03-28T11:57:09Z</time></trkpt><trkpt lat="36.80495791679725" lon="-4.456700805916122"><ele>497.00000000000006</ele><time>2026-03-28T11:57:10Z</time></trkpt><trkpt lat="36.804914690897576" lon="-4.456639364144655"><ele>498.0</ele><time>2026-03-28T11:57:11Z</time></trkpt><trkpt lat="36.80488160623889" lon="-4.456561657596546"><ele>499.0</ele><time>2026-03-28T11:57:12Z</time></trkpt><trkpt lat="36.80481363481803" lon="-4.45650205940519"><ele>500.0</ele><time>2026-03-28T11:57:13Z</time></trkpt><trkpt lat="36.80479491691367" lon="-4.456399133028049"><ele>501.00000000000006</ele><time>2026-03-28T11:57:14Z</time></trkpt><trkpt lat="36.80475696058287" lon="-4.456321574302342"><ele>502.0</ele><time>2026-03-28T11:57:15Z</time></trkpt><trkpt lat="36.804737262380776" lon="-4.456160295130425"><ele>502.00000000000006</ele><time>2026-03-28T11:57:17Z</time></trkpt><trkpt lat="36.804737348765165" lon="-4.455992421088438"><ele>502.0</ele><time>2026-03-28T11:57:19Z</time></trkpt><trkpt lat="36.80473066113484" lon="-4.455904015051507"><ele>502.0</ele><time>2026-03-28T11:57:20Z</time></trkpt><trkpt lat="36.80471248938787" lon="-4.455814927036231"><ele>502.0</ele><time>2026-03-28T11:57:21Z</time></trkpt><trkpt lat="36.804684435062505" lon="-4.455729085576248"><ele>502.00000000000006</ele><time>2026-03-28T11:57:22Z</time></trkpt><trkpt lat="36.804649174084105" lon="-4.455640194175316"><ele>502.0</ele><time>2026-03-28T11:57:23Z</time></trkpt><trkpt lat="36.80460738204767" lon="-4.455553542342311"><ele>502.00000000000006</ele><time>2026-03-28T11:57:24Z</time></trkpt><trkpt lat="36.804571340770536" lon="-4.455456047694143"><ele>502.0</ele><time>2026-03-28T11:57:25Z</time></trkpt><trkpt lat="36.80454823734716" lon="-4.455361637396337"><ele>502.0</ele><time>2026-03-28T11:57:26Z</time></trkpt><trkpt lat="36.80453476817969" lon="-4.455264862649831"><ele>502.0</ele><time>2026-03-28T11:57:27Z</time></trkpt><trkpt lat="36.80452243024386" lon="-4.455163703468393"><ele>502.00000000000006</ele><time>2026-03-28T11:57:28Z</time></trkpt><trkpt lat="36.80450629478367" lon="-4.4550729691200095"><ele>502.0</ele><time>2026-03-28T11:57:29Z</time></trkpt><trkpt lat="36.80448462346543" lon="-4.454987817978108"><ele>500.50000000000006</ele><time>2026-03-28T11:57:30Z</time></trkpt><trkpt lat="36.80445363588922" lon="-4.454908688892953"><ele>499.0</ele><time>2026-03-28T11:57:31Z</time></trkpt><trkpt lat="36.80441179017125" lon="-4.454827720292723"><ele>497.5</ele><time>2026-03-28T11:57:32Z</time></trkpt><trkpt lat="36.804355584028116" lon="-4.454758171143544"><ele>496.0</ele><time>2026-03-28T11:57:33Z</time></trkpt><trkpt lat="36.80427130875415" lon="-4.454700169629608"><ele>494.50000000000006</ele><time>2026-03-28T11:57:34Z</time></trkpt><trkpt lat="36.804206446052234" lon="-4.454624543492847"><ele>493.0</ele><time>2026-03-28T11:57:35Z</time></trkpt><trkpt lat="36.80414865287865" lon="-4.454559540011254"><ele>498.33333333333337</ele><time>2026-03-28T11:57:36Z</time></trkpt><trkpt lat="36.80409500864398" lon="-4.454472721364644"><ele>503.6666666666667</ele><time>2026-03-28T11:57:37Z</time></trkpt><trkpt lat="36.804029106401835" lon="-4.454410982396694"><ele>509.0</ele><time>2026-03-28T11:57:38Z</time></trkpt><trkpt lat="36.803963668667606" lon="-4.4543505314063125"><ele>514.3333333333334</ele><time>2026-03-28T11:57:39Z</time></trkpt><trkpt lat="36.80391182335999" lon="-4.454283619272434"><ele>519.6666666666666</ele><time>2026-03-28T11:57:40Z</time></trkpt><trkpt lat="36.80387105929265" lon="-4.454207264668966"><ele>525.0</ele><time>2026-03-28T11:57:41Z</time></trkpt><trkpt lat="36.80382491585747" lon="-4.454136627740295"><ele>525.0</ele><time>2026-03-28T11:57:42Z</time></trkpt><trkpt lat="36.80381682048156" lon="-4.454044355064539"><ele>525.0</ele><time>2026-03-28T11:57:43Z</time></trkpt><trkpt lat="36.803841496832646" lon="-4.453955138531397"><ele>525.0</ele><time>2026-03-28T11:57:44Z</time></trkpt><trkpt lat="36.8038391371771" lon="-4.4538534754925605"><ele>525.0</ele><time>2026-03-28T11:57:45Z</time></trkpt><trkpt lat="36.80386784813077" lon="-4.453755298721247"><ele>525.0</ele><time>2026-03-28T11:57:46Z</time></trkpt><trkpt lat="36.803918941157306" lon="-4.453668187369194"><ele>525.0</ele><time>2026-03-28T11:57:47Z</time></trkpt><trkpt lat="36.80395583063285" lon="-4.453569309742691"><ele>526.3333333333334</ele><time>2026-03-28T11:57:48Z</time></trkpt><trkpt lat="36.80399328303078" lon="-4.453465203327086"><ele>527.6666666666666</ele><time>2026-03-28T11:57:49Z</time></trkpt><trkpt lat="36.804027653172184" lon="-4.453373102720928"><ele>529.0</ele><time>2026-03-28T11:57:50Z</time></trkpt><trkpt lat="36.80405527299874" lon="-4.453285895380483"><ele>530.3333333333333</ele><time>2026-03-28T11:57:51Z</time></trkpt><trkpt lat="36.804095932429554" lon="-4.453167649437085"><ele>531.6666666666666</ele><time>2026-03-28T11:57:53Z</time></trkpt><trkpt lat="36.80404453657061" lon="-4.453117218571322"><ele>533.0</ele><time>2026-03-28T11:57:55Z</time></trkpt><trkpt lat="36.80394887910869" lon="-4.453215579997405"><ele>533.0</ele><time>2026-03-28T11:57:57Z</time></trkpt><trkpt lat="36.80391796401461" lon="-4.453297300939174"><ele>533.0</ele><time>2026-03-28T11:57:58Z</time></trkpt><trkpt lat="36.80385107616079" lon="-4.453430675854389"><ele>533.0</ele><time>2026-03-28T11:58:00Z</time></trkpt><trkpt lat="36.80380919071789" lon="-4.453499326628987"><ele>533.0</ele><time>2026-03-28T11:58:01Z</time></trkpt><trkpt lat="36.803759779682565" lon="-4.453561611652345"><ele>533.0</ele><time>2026-03-28T11:58:02Z</time></trkpt><trkpt lat="36.80371019564196" lon="-4.453628857053416"><ele>533.0</ele><time>2026-03-28T11:58:03Z</time></trkpt><trkpt lat="36.80365570663331" lon="-4.453693900883032"><ele>533.0</ele><time>2026-03-28T11:58:04Z</time></trkpt><trkpt lat="36.80359982090918" lon="-4.453751794431354"><ele>533.0</ele><time>2026-03-28T11:58:04.999Z</time></trkpt><trkpt lat="36.80351961765164" lon="-4.453806665896627"><ele>533.0</ele><time>2026-03-28T11:58:06.999Z</time></trkpt><trkpt lat="36.80344766988954" lon="-4.453776470993406"><ele>533.0</ele><time>2026-03-28T11:58:08.999Z</time></trkpt><trkpt lat="36.8033767143802" lon="-4.453720803128751"><ele>533.0</ele><time>2026-03-28T11:58:10.999Z</time></trkpt><trkpt lat="36.803278098220865" lon="-4.453722105840315"><ele>533.0</ele><time>2026-03-28T11:58:12.999Z</time></trkpt><trkpt lat="36.803172055622326" lon="-4.453804702090703"><ele>536.6666666666666</ele><time>2026-03-28T11:58:14.999Z</time></trkpt><trkpt lat="36.803104630215486" lon="-4.453857950098998"><ele>540.3333333333333</ele><time>2026-03-28T11:58:15.999Z</time></trkpt><trkpt lat="36.8030294118196" lon="-4.453897116578994"><ele>544.0</ele><time>2026-03-28T11:58:16.999Z</time></trkpt><trkpt lat="36.802943067400456" lon="-4.45392550453027"><ele>547.6666666666666</ele><time>2026-03-28T11:58:17.999Z</time></trkpt><trkpt lat="36.802852387745034" lon="-4.453943554613489"><ele>551.3333333333334</ele><time>2026-03-28T11:58:18.999Z</time></trkpt><trkpt lat="36.80276319749938" lon="-4.453967412500969"><ele>555.0</ele><time>2026-03-28T11:58:19.999Z</time></trkpt><trkpt lat="36.80267829684" lon="-4.453986746844144"><ele>553.0</ele><time>2026-03-28T11:58:20.999Z</time></trkpt><trkpt lat="36.802578498808835" lon="-4.45400474147246"><ele>551.0</ele><time>2026-03-28T11:58:21.999Z</time></trkpt><trkpt lat="36.80247961016966" lon="-4.454027258470048"><ele>549.0</ele><time>2026-03-28T11:58:22.999Z</time></trkpt><trkpt lat="36.802390504152484" lon="-4.454059274577995"><ele>547.0</ele><time>2026-03-28T11:58:23.999Z</time></trkpt><trkpt lat="36.802301719167495" lon="-4.454087899933264"><ele>545.0</ele><time>2026-03-28T11:58:24.999Z</time></trkpt><trkpt lat="36.80220553122249" lon="-4.454098608377563"><ele>545.0</ele><time>2026-03-28T11:58:25.999Z</time></trkpt><trkpt lat="36.80210894577146" lon="-4.4540917500236015"><ele>545.0</ele><time>2026-03-28T11:58:26.999Z</time></trkpt><trkpt lat="36.8020152559549" lon="-4.4540877460848165"><ele>545.0</ele><time>2026-03-28T11:58:27.999Z</time></trkpt><trkpt lat="36.80192255901828" lon="-4.454084547375517"><ele>545.0</ele><time>2026-03-28T11:58:28.999Z</time></trkpt><trkpt lat="36.8018280877191" lon="-4.45408156674155"><ele>545.0</ele><time>2026-03-28T11:58:29.999Z</time></trkpt><trkpt lat="36.801736497273914" lon="-4.454077007438016"><ele>543.1666666666666</ele><time>2026-03-28T11:58:30.999Z</time></trkpt><trkpt lat="36.80164869577182" lon="-4.454071090787691"><ele>541.3333333333333</ele><time>2026-03-28T11:58:31.999Z</time></trkpt><trkpt lat="36.80156287317484" lon="-4.454052778426613"><ele>539.5</ele><time>2026-03-28T11:58:32.999Z</time></trkpt><trkpt lat="36.80147401840483" lon="-4.454040782268629"><ele>537.6666666666666</ele><time>2026-03-28T11:58:33.999Z</time></trkpt><trkpt lat="36.801382690448214" lon="-4.454034662826088"><ele>535.8333333333334</ele><time>2026-03-28T11:58:34.999Z</time></trkpt><trkpt lat="36.80129621358196" lon="-4.454038274235332"><ele>534.0</ele><time>2026-03-28T11:58:35.999Z</time></trkpt><trkpt lat="36.8012195267549" lon="-4.454061559127259"><ele>534.0</ele><time>2026-03-28T11:58:36.999Z</time></trkpt><trkpt lat="36.80114154407531" lon="-4.454104285422591"><ele>534.0</ele><time>2026-03-28T11:58:37.999Z</time></trkpt><trkpt lat="36.801065888917634" lon="-4.454165099594387"><ele>534.0</ele><time>2026-03-28T11:58:38.999Z</time></trkpt><trkpt lat="36.8009917836815" lon="-4.454242540957417"><ele>534.0</ele><time>2026-03-28T11:58:39.999Z</time></trkpt><trkpt lat="36.800920636193986" lon="-4.454327765374724"><ele>534.0</ele><time>2026-03-28T11:58:40.999Z</time></trkpt><trkpt lat="36.800848103916515" lon="-4.454410925145521"><ele>535.8</ele><time>2026-03-28T11:58:41.999Z</time></trkpt><trkpt lat="36.800775314220985" lon="-4.454495760087986"><ele>537.5999999999999</ele><time>2026-03-28T11:58:42.999Z</time></trkpt><trkpt lat="36.8007040605111" lon="-4.454576383284551"><ele>539.4</ele><time>2026-03-28T11:58:43.999Z</time></trkpt><trkpt lat="36.80063486015343" lon="-4.454652548387949"><ele>541.1999999999999</ele><time>2026-03-28T11:58:45Z</time></trkpt><trkpt lat="36.80056636509642" lon="-4.454728243969416"><ele>543.0</ele><time>2026-03-28T11:58:46Z</time></trkpt><trkpt lat="36.80050145885433" lon="-4.4548045906349305"><ele>540.6666666666666</ele><time>2026-03-28T11:58:47Z</time></trkpt><trkpt lat="36.800430232774744" lon="-4.454885293856343"><ele>538.3333333333334</ele><time>2026-03-28T11:58:48Z</time></trkpt><trkpt lat="36.800364838211095" lon="-4.454958561143592"><ele>536.0</ele><time>2026-03-28T11:58:49Z</time></trkpt><trkpt lat="36.80030916815933" lon="-4.4550151020700826"><ele>533.6666666666667</ele><time>2026-03-28T11:58:50Z</time></trkpt><trkpt lat="36.80024826257652" lon="-4.455058567855043"><ele>531.3333333333334</ele><time>2026-03-28T11:58:51Z</time></trkpt><trkpt lat="36.80014724133581" lon="-4.455095278445867"><ele>529.0</ele><time>2026-03-28T11:58:53Z</time></trkpt><trkpt lat="36.80008075260995" lon="-4.455036055135736"><ele>529.0</ele><time>2026-03-28T11:58:55Z</time></trkpt><trkpt lat="36.80004410357034" lon="-4.454881699521506"><ele>529.0</ele><time>2026-03-28T11:58:57Z</time></trkpt><trkpt lat="36.80003247156282" lon="-4.454774241717342"><ele>529.0</ele><time>2026-03-28T11:58:58Z</time></trkpt><trkpt lat="36.80000889846084" lon="-4.45467380318748"><ele>529.0</ele><time>2026-03-28T11:58:59Z</time></trkpt><trkpt lat="36.800000134724044" lon="-4.454591718846668"><ele>529.0</ele><time>2026-03-28T11:59:00Z</time></trkpt><trkpt lat="36.799971310554035" lon="-4.454460940285819"><ele>531.5</ele><time>2026-03-28T11:59:02Z</time></trkpt><trkpt lat="36.799914080828536" lon="-4.454387667150071"><ele>534.0</ele><time>2026-03-28T11:59:04Z</time></trkpt><trkpt lat="36.79980128435589" lon="-4.454398616163576"><ele>536.5</ele><time>2026-03-28T11:59:06Z</time></trkpt><trkpt lat="36.79972110503867" lon="-4.45440701202515"><ele>539.0</ele><time>2026-03-28T11:59:07Z</time></trkpt><trkpt lat="36.79964412703994" lon="-4.454432427265401"><ele>541.5</ele><time>2026-03-28T11:59:08Z</time></trkpt><trkpt lat="36.79956201525347" lon="-4.45445044225081"><ele>544.0</ele><time>2026-03-28T11:59:09Z</time></trkpt><trkpt lat="36.799475186291545" lon="-4.454461816064074"><ele>544.0</ele><time>2026-03-28T11:59:10Z</time></trkpt><trkpt lat="36.79938850396329" lon="-4.454469839628065"><ele>544.0</ele><time>2026-03-28T11:59:11Z</time></trkpt><trkpt lat="36.79930548925738" lon="-4.454478419453509"><ele>544.0</ele><time>2026-03-28T11:59:12Z</time></trkpt><trkpt lat="36.79922202885895" lon="-4.454488107791807"><ele>544.0</ele><time>2026-03-28T11:59:13Z</time></trkpt><trkpt lat="36.79914199715561" lon="-4.454491102106237"><ele>544.0</ele><time>2026-03-28T11:59:14Z</time></trkpt><trkpt lat="36.7990624522804" lon="-4.454488575937834"><ele>544.0</ele><time>2026-03-28T11:59:15Z</time></trkpt><trkpt lat="36.79898092549368" lon="-4.45448126246956"><ele>540.6</ele><time>2026-03-28T11:59:16Z</time></trkpt><trkpt lat="36.79890571027309" lon="-4.454478314325359"><ele>537.2</ele><time>2026-03-28T11:59:17Z</time></trkpt><trkpt lat="36.798792840269726" lon="-4.454500448253757"><ele>533.8000000000001</ele><time>2026-03-28T11:59:19Z</time></trkpt><trkpt lat="36.798663736445384" lon="-4.454504693611513"><ele>530.4</ele><time>2026-03-28T11:59:21Z</time></trkpt><trkpt lat="36.79859531638307" lon="-4.454522601581833"><ele>527.0</ele><time>2026-03-28T11:59:22Z</time></trkpt><trkpt lat="36.798518677056826" lon="-4.4545391824197225"><ele>525.8000000000001</ele><time>2026-03-28T11:59:23Z</time></trkpt><trkpt lat="36.79844004057301" lon="-4.454552210994609"><ele>524.6</ele><time>2026-03-28T11:59:24Z</time></trkpt><trkpt lat="36.79836961479002" lon="-4.4545668047796765"><ele>523.4000000000001</ele><time>2026-03-28T11:59:25Z</time></trkpt><trkpt lat="36.79825377383449" lon="-4.454592423407761"><ele>522.2</ele><time>2026-03-28T11:59:27Z</time></trkpt><trkpt lat="36.798147691671836" lon="-4.454615748325063"><ele>521.0</ele><time>2026-03-28T11:59:29Z</time></trkpt><trkpt lat="36.798045655350165" lon="-4.45466370721935"><ele>521.0</ele><time>2026-03-28T11:59:31Z</time></trkpt><trkpt lat="36.79794400514829" lon="-4.4547414602858515"><ele>521.0</ele><time>2026-03-28T11:59:33Z</time></trkpt><trkpt lat="36.79789057747159" lon="-4.4547860604514975"><ele>521.0</ele><time>2026-03-28T11:59:34Z</time></trkpt><trkpt lat="36.79782943224956" lon="-4.454827348894173"><ele>521.0</ele><time>2026-03-28T11:59:35Z</time></trkpt><trkpt lat="36.79775957365173" lon="-4.4548525822670495"><ele>521.0</ele><time>2026-03-28T11:59:36Z</time></trkpt><trkpt lat="36.79768021581063" lon="-4.454854247040548"><ele>521.0</ele><time>2026-03-28T11:59:37Z</time></trkpt><trkpt lat="36.79759153577161" lon="-4.454861539351073"><ele>521.3333333333333</ele><time>2026-03-28T11:59:38Z</time></trkpt><trkpt lat="36.79750225194304" lon="-4.454822512622383"><ele>521.6666666666666</ele><time>2026-03-28T11:59:39Z</time></trkpt><trkpt lat="36.79743191150517" lon="-4.4547818250864974"><ele>522.0</ele><time>2026-03-28T11:59:40Z</time></trkpt><trkpt lat="36.79736379250239" lon="-4.45474619772752"><ele>522.3333333333334</ele><time>2026-03-28T11:59:41Z</time></trkpt><trkpt lat="36.79729904319208" lon="-4.454703485954097"><ele>522.6666666666667</ele><time>2026-03-28T11:59:42Z</time></trkpt><trkpt lat="36.797213909722615" lon="-4.454700344715522"><ele>523.0</ele><time>2026-03-28T11:59:43Z</time></trkpt><trkpt lat="36.79712923189512" lon="-4.454706491372821"><ele>523.0</ele><time>2026-03-28T11:59:44Z</time></trkpt><trkpt lat="36.79705003567438" lon="-4.454725016646959"><ele>523.0</ele><time>2026-03-28T11:59:45Z</time></trkpt><trkpt lat="36.7969659586058" lon="-4.454748428712324"><ele>523.0</ele><time>2026-03-28T11:59:46Z</time></trkpt><trkpt lat="36.79688650566045" lon="-4.454772355330953"><ele>523.0</ele><time>2026-03-28T11:59:47Z</time></trkpt><trkpt lat="36.796808507493125" lon="-4.454792340145335"><ele>523.0</ele><time>2026-03-28T11:59:48Z</time></trkpt><trkpt lat="36.79673116517809" lon="-4.454797774431407"><ele>523.0</ele><time>2026-03-28T11:59:49Z</time></trkpt><trkpt lat="36.796657444104774" lon="-4.454807086141976"><ele>519.8333333333334</ele><time>2026-03-28T11:59:50Z</time></trkpt><trkpt lat="36.79659384954432" lon="-4.454826297396776"><ele>516.6666666666667</ele><time>2026-03-28T11:59:51Z</time></trkpt><trkpt lat="36.79653353477463" lon="-4.454861609811566"><ele>513.5</ele><time>2026-03-28T11:59:52Z</time></trkpt><trkpt lat="36.79646886080445" lon="-4.454917612166738"><ele>510.33333333333337</ele><time>2026-03-28T11:59:53Z</time></trkpt><trkpt lat="36.796409676604675" lon="-4.454984247583441"><ele>507.1666666666667</ele><time>2026-03-28T11:59:54Z</time></trkpt><trkpt lat="36.7963505994208" lon="-4.455062320610404"><ele>504.0</ele><time>2026-03-28T11:59:55Z</time></trkpt><trkpt lat="36.79629990424662" lon="-4.4551426348813665"><ele>504.0</ele><time>2026-03-28T11:59:56Z</time></trkpt><trkpt lat="36.79625096148848" lon="-4.455215198801514"><ele>504.0</ele><time>2026-03-28T11:59:57Z</time></trkpt><trkpt lat="36.796201300977614" lon="-4.455287952854552"><ele>504.0</ele><time>2026-03-28T11:59:58Z</time></trkpt><trkpt lat="36.796144496304436" lon="-4.455359960595237"><ele>504.0</ele><time>2026-03-28T11:59:59Z</time></trkpt><trkpt lat="36.79610002802335" lon="-4.455422440659131"><ele>504.0</ele><time>2026-03-28T12:00:00Z</time></trkpt><trkpt lat="36.796055971807085" lon="-4.455536975080977"><ele>504.0</ele><time>2026-03-28T12:00:02Z</time></trkpt><trkpt lat="36.79608314568615" lon="-4.455666153924257"><ele>503.6</ele><time>2026-03-28T12:00:04Z</time></trkpt><trkpt lat="36.796154908819354" lon="-4.455710022765557"><ele>503.2</ele><time>2026-03-28T12:00:05Z</time></trkpt><trkpt lat="36.79624205776552" lon="-4.455801577817943"><ele>502.80000000000007</ele><time>2026-03-28T12:00:07Z</time></trkpt><trkpt lat="36.79634945234271" lon="-4.45584845003644"><ele>502.40000000000003</ele><time>2026-03-28T12:00:09Z</time></trkpt><trkpt lat="36.796455056219386" lon="-4.455913689310682"><ele>502.0</ele><time>2026-03-28T12:00:11Z</time></trkpt><trkpt lat="36.79649395702034" lon="-4.455989021873984"><ele>502.00000000000006</ele><time>2026-03-28T12:00:12Z</time></trkpt><trkpt lat="36.796503075678295" lon="-4.4560819471225575"><ele>502.0</ele><time>2026-03-28T12:00:12.999Z</time></trkpt><trkpt lat="36.79651451739766" lon="-4.456162250481027"><ele>502.0</ele><time>2026-03-28T12:00:13.999Z</time></trkpt><trkpt lat="36.796521976588984" lon="-4.456249787313703"><ele>502.0</ele><time>2026-03-28T12:00:14.999Z</time></trkpt><trkpt lat="36.7965213075893" lon="-4.456339217176756"><ele>502.00000000000006</ele><time>2026-03-28T12:00:15.999Z</time></trkpt><trkpt lat="36.796485073168846" lon="-4.456409003297743"><ele>502.0</ele><time>2026-03-28T12:00:16.999Z</time></trkpt><trkpt lat="36.79640399311959" lon="-4.45650957251201"><ele>500.50000000000006</ele><time>2026-03-28T12:00:18.999Z</time></trkpt><trkpt lat="36.79634429994603" lon="-4.45655985111659"><ele>499.0</ele><time>2026-03-28T12:00:19.999Z</time></trkpt><trkpt lat="36.7962726481835" lon="-4.456612302086202"><ele>497.5</ele><time>2026-03-28T12:00:20.999Z</time></trkpt><trkpt lat="36.79619736770567" lon="-4.456660437006346"><ele>496.0</ele><time>2026-03-28T12:00:21.999Z</time></trkpt><trkpt lat="36.796117399729404" lon="-4.456696867261694"><ele>494.50000000000006</ele><time>2026-03-28T12:00:22.999Z</time></trkpt><trkpt lat="36.79603646070106" lon="-4.456734250531564"><ele>493.0</ele><time>2026-03-28T12:00:23.999Z</time></trkpt><trkpt lat="36.79594874832803" lon="-4.456779848451271"><ele>489.0</ele><time>2026-03-28T12:00:24.999Z</time></trkpt><trkpt lat="36.79585943074205" lon="-4.45682174873242"><ele>484.99999999999994</ele><time>2026-03-28T12:00:25.999Z</time></trkpt><trkpt lat="36.7957739475791" lon="-4.456846838410272"><ele>480.99999999999994</ele><time>2026-03-28T12:00:26.999Z</time></trkpt><trkpt lat="36.79568199842998" lon="-4.45685400160536"><ele>477.0</ele><time>2026-03-28T12:00:27.999Z</time></trkpt><trkpt lat="36.79558360990515" lon="-4.456851742392468"><ele>473.0</ele><time>2026-03-28T12:00:28.999Z</time></trkpt><trkpt lat="36.795487268744004" lon="-4.456855446854281"><ele>473.0</ele><time>2026-03-28T12:00:29.999Z</time></trkpt><trkpt lat="36.79538911662022" lon="-4.456863712244084"><ele>472.99999999999994</ele><time>2026-03-28T12:00:30.999Z</time></trkpt><trkpt lat="36.79529309479542" lon="-4.4568714758684935"><ele>472.99999999999994</ele><time>2026-03-28T12:00:31.999Z</time></trkpt><trkpt lat="36.79520548214786" lon="-4.456875971816236"><ele>473.0</ele><time>2026-03-28T12:00:32.999Z</time></trkpt><trkpt lat="36.795121795035655" lon="-4.4568848998547566"><ele>473.0</ele><time>2026-03-28T12:00:33.999Z</time></trkpt><trkpt lat="36.79502675420273" lon="-4.456906011248592"><ele>471.79999999999995</ele><time>2026-03-28T12:00:34.999Z</time></trkpt><trkpt lat="36.794942308136775" lon="-4.456944488265446"><ele>470.59999999999997</ele><time>2026-03-28T12:00:35.999Z</time></trkpt><trkpt lat="36.79486358176941" lon="-4.456972065430426"><ele>469.40000000000003</ele><time>2026-03-28T12:00:36.999Z</time></trkpt><trkpt lat="36.794766794581776" lon="-4.456986850701073"><ele>468.20000000000005</ele><time>2026-03-28T12:00:37.999Z</time></trkpt><trkpt lat="36.794659523662666" lon="-4.45701877509536"><ele>467.0</ele><time>2026-03-28T12:00:38.999Z</time></trkpt><trkpt lat="36.794548032573054" lon="-4.457050906543174"><ele>467.0</ele><time>2026-03-28T12:00:39.999Z</time></trkpt><trkpt lat="36.794434246437575" lon="-4.457072015010422"><ele>467.00000000000006</ele><time>2026-03-28T12:00:40.999Z</time></trkpt><trkpt lat="36.79432819868482" lon="-4.457071031692075"><ele>467.00000000000006</ele><time>2026-03-28T12:00:41.999Z</time></trkpt><trkpt lat="36.79422949147519" lon="-4.457044117469933"><ele>467.0</ele><time>2026-03-28T12:00:42.999Z</time></trkpt><trkpt lat="36.794135531807896" lon="-4.457006035864901"><ele>467.0</ele><time>2026-03-28T12:00:43.999Z</time></trkpt><trkpt lat="36.79404482782293" lon="-4.456951773929364"><ele>467.16666666666663</ele><time>2026-03-28T12:00:44.999Z</time></trkpt><trkpt lat="36.793958545006056" lon="-4.456892004436342"><ele>467.3333333333333</ele><time>2026-03-28T12:00:45.999Z</time></trkpt><trkpt lat="36.79386707035098" lon="-4.456845775043516"><ele>467.5</ele><time>2026-03-28T12:00:46.999Z</time></trkpt><trkpt lat="36.79379893641763" lon="-4.456788910775738"><ele>467.66666666666663</ele><time>2026-03-28T12:00:47.999Z</time></trkpt><trkpt lat="36.793712694274795" lon="-4.45673678842111"><ele>467.8333333333333</ele><time>2026-03-28T12:00:49.999Z</time></trkpt><trkpt lat="36.793640414341766" lon="-4.456729735983279"><ele>468.0</ele><time>2026-03-28T12:00:53Z</time></trkpt><trkpt lat="36.79376296499955" lon="-4.45672443499422"><ele>468.0</ele><time>2026-03-28T12:01:11Z</time></trkpt><trkpt lat="36.79383394906859" lon="-4.456781121413231"><ele>467.99999999999994</ele><time>2026-03-28T12:01:12Z</time></trkpt><trkpt lat="36.79391123999049" lon="-4.45685315982154"><ele>467.99999999999994</ele><time>2026-03-28T12:01:13Z</time></trkpt><trkpt lat="36.794008810254624" lon="-4.456925871331218"><ele>468.0</ele><time>2026-03-28T12:01:14Z</time></trkpt><trkpt lat="36.794123221570715" lon="-4.456994367788564"><ele>468.0</ele><time>2026-03-28T12:01:15Z</time></trkpt><trkpt lat="36.794229967851" lon="-4.45703195944789"><ele>467.75</ele><time>2026-03-28T12:01:16Z</time></trkpt><trkpt lat="36.79435206624393" lon="-4.4570670846881155"><ele>467.5</ele><time>2026-03-28T12:01:17Z</time></trkpt><trkpt lat="36.79446908451333" lon="-4.457061303016248"><ele>467.25</ele><time>2026-03-28T12:01:18Z</time></trkpt><trkpt lat="36.794589017958565" lon="-4.457035771714655"><ele>467.0</ele><time>2026-03-28T12:01:19Z</time></trkpt><trkpt lat="36.79468538325924" lon="-4.457002934101353"><ele>467.0</ele><time>2026-03-28T12:01:20Z</time></trkpt><trkpt lat="36.79475690682334" lon="-4.4569709399389135"><ele>467.00000000000006</ele><time>2026-03-28T12:01:21Z</time></trkpt><trkpt lat="36.79484119508769" lon="-4.456951312369196"><ele>467.00000000000006</ele><time>2026-03-28T12:01:23Z</time></trkpt><trkpt lat="36.79484285104962" lon="-4.457052099227137"><ele>467.0</ele><time>2026-03-28T12:01:27Z</time></trkpt><trkpt lat="36.79472260893748" lon="-4.4570827255888075"><ele>467.0</ele><time>2026-03-28T12:01:29Z</time></trkpt><trkpt lat="36.79460747445722" lon="-4.4571531609898045"><ele>468.16666666666663</ele><time>2026-03-28T12:01:31Z</time></trkpt><trkpt lat="36.794547797942705" lon="-4.457184096685895"><ele>469.3333333333333</ele><time>2026-03-28T12:01:32Z</time></trkpt><trkpt lat="36.79447491283165" lon="-4.457220297051851"><ele>470.5</ele><time>2026-03-28T12:01:33Z</time></trkpt><trkpt lat="36.79439877252257" lon="-4.457248709812317"><ele>471.66666666666663</ele><time>2026-03-28T12:01:34Z</time></trkpt><trkpt lat="36.79432667221881" lon="-4.457264550267934"><ele>472.8333333333333</ele><time>2026-03-28T12:01:35Z</time></trkpt><trkpt lat="36.79421752137518" lon="-4.457316789136138"><ele>474.0</ele><time>2026-03-28T12:01:37Z</time></trkpt><trkpt lat="36.79415167382326" lon="-4.4573374984033975"><ele>475.6</ele><time>2026-03-28T12:01:39Z</time></trkpt><trkpt lat="36.79407667998191" lon="-4.457351830129207"><ele>477.2</ele><time>2026-03-28T12:01:42Z</time></trkpt><trkpt lat="36.79395495858928" lon="-4.457392009286175"><ele>478.80000000000007</ele><time>2026-03-28T12:01:44Z</time></trkpt><trkpt lat="36.793879302684765" lon="-4.457420598910621"><ele>480.40000000000003</ele><time>2026-03-28T12:01:45Z</time></trkpt><trkpt lat="36.79379912974899" lon="-4.457478249720265"><ele>482.0</ele><time>2026-03-28T12:01:46Z</time></trkpt><trkpt lat="36.79370670610938" lon="-4.4575133748751545"><ele>481.99999999999994</ele><time>2026-03-28T12:01:47Z</time></trkpt><trkpt lat="36.79362449859738" lon="-4.457585520533249"><ele>482.0</ele><time>2026-03-28T12:01:48Z</time></trkpt><trkpt lat="36.79355029550088" lon="-4.457669253423705"><ele>482.0</ele><time>2026-03-28T12:01:49Z</time></trkpt><trkpt lat="36.79348429602672" lon="-4.4577455649160305"><ele>482.0</ele><time>2026-03-28T12:01:50Z</time></trkpt><trkpt lat="36.793424499994266" lon="-4.457813771108346"><ele>481.99999999999994</ele><time>2026-03-28T12:01:51Z</time></trkpt><trkpt lat="36.793380149688474" lon="-4.457882223685811"><ele>482.0</ele><time>2026-03-28T12:01:52Z</time></trkpt><trkpt lat="36.7933227391514" lon="-4.4579813759957165"><ele>482.8</ele><time>2026-03-28T12:01:54Z</time></trkpt><trkpt lat="36.793335300094185" lon="-4.458073124170612"><ele>483.6</ele><time>2026-03-28T12:01:56Z</time></trkpt><trkpt lat="36.7933228979153" lon="-4.4581954682288965"><ele>484.40000000000003</ele><time>2026-03-28T12:01:58Z</time></trkpt><trkpt lat="36.79330992157011" lon="-4.458322076690048"><ele>485.20000000000005</ele><time>2026-03-28T12:02:00Z</time></trkpt><trkpt lat="36.793290185015834" lon="-4.458453925514694"><ele>486.0</ele><time>2026-03-28T12:02:02Z</time></trkpt><trkpt lat="36.79327215522452" lon="-4.458586026095866"><ele>486.0</ele><time>2026-03-28T12:02:04Z</time></trkpt><trkpt lat="36.79319763930665" lon="-4.45869347833631"><ele>486.0</ele><time>2026-03-28T12:02:06Z</time></trkpt><trkpt lat="36.79313354885161" lon="-4.458723379982913"><ele>486.0</ele><time>2026-03-28T12:02:07Z</time></trkpt><trkpt lat="36.793067629429984" lon="-4.458734725796851"><ele>486.0</ele><time>2026-03-28T12:02:07.999Z</time></trkpt><trkpt lat="36.792989609005396" lon="-4.458745126873317"><ele>486.0</ele><time>2026-03-28T12:02:08.999Z</time></trkpt><trkpt lat="36.792908508318085" lon="-4.4587632024121"><ele>486.0</ele><time>2026-03-28T12:02:09.999Z</time></trkpt><trkpt lat="36.792824800029585" lon="-4.458787141663806"><ele>485.4</ele><time>2026-03-28T12:02:10.999Z</time></trkpt><trkpt lat="36.792741885302895" lon="-4.458817970086125"><ele>484.8</ele><time>2026-03-28T12:02:11.999Z</time></trkpt><trkpt lat="36.7926474435177" lon="-4.458854393152901"><ele>484.19999999999993</ele><time>2026-03-28T12:02:12.999Z</time></trkpt><trkpt lat="36.792548968648994" lon="-4.458895963614326"><ele>483.59999999999997</ele><time>2026-03-28T12:02:13.999Z</time></trkpt><trkpt lat="36.79244806946638" lon="-4.458943041876889"><ele>483.0</ele><time>2026-03-28T12:02:14.999Z</time></trkpt><trkpt lat="36.792345680291916" lon="-4.45899099919328"><ele>486.4</ele><time>2026-03-28T12:02:15.999Z</time></trkpt><trkpt lat="36.792239581079755" lon="-4.459038846595805"><ele>489.79999999999995</ele><time>2026-03-28T12:02:16.999Z</time></trkpt><trkpt lat="36.79214081908206" lon="-4.459082866071536"><ele>493.2</ele><time>2026-03-28T12:02:17.999Z</time></trkpt><trkpt lat="36.79204631595203" lon="-4.459105634341663"><ele>496.6</ele><time>2026-03-28T12:02:18.999Z</time></trkpt><trkpt lat="36.791951115025256" lon="-4.4591055605338"><ele>500.0</ele><time>2026-03-28T12:02:19.999Z</time></trkpt><trkpt lat="36.79186229089985" lon="-4.459099409895373"><ele>500.4</ele><time>2026-03-28T12:02:20.999Z</time></trkpt><trkpt lat="36.79178803686127" lon="-4.459099369125282"><ele>500.8</ele><time>2026-03-28T12:02:21.999Z</time></trkpt><trkpt lat="36.79172460612006" lon="-4.4590991595981535"><ele>501.20000000000005</ele><time>2026-03-28T12:02:22.999Z</time></trkpt><trkpt lat="36.7916064651129" lon="-4.459111606240581"><ele>501.6</ele><time>2026-03-28T12:02:24.999Z</time></trkpt><trkpt lat="36.791492677928616" lon="-4.459114722852316"><ele>502.0</ele><time>2026-03-28T12:02:26.999Z</time></trkpt><trkpt lat="36.7913858782452" lon="-4.459096200227095"><ele>502.00000000000006</ele><time>2026-03-28T12:02:28.999Z</time></trkpt><trkpt lat="36.79128711248891" lon="-4.459078843015429"><ele>502.0</ele><time>2026-03-28T12:02:30.999Z</time></trkpt><trkpt lat="36.79121712321588" lon="-4.459043717602282"><ele>502.0</ele><time>2026-03-28T12:02:32.999Z</time></trkpt><trkpt lat="36.791139487530266" lon="-4.459027671458235"><ele>502.0</ele><time>2026-03-28T12:02:35.999Z</time></trkpt><trkpt lat="36.791073215578415" lon="-4.458966844466981"><ele>502.00000000000006</ele><time>2026-03-28T12:08:43.999Z</time></trkpt><trkpt lat="36.79099040841577" lon="-4.458951266351245"><ele>502.0</ele><time>2026-03-28T12:09:17Z</time></trkpt><trkpt lat="36.79090111482271" lon="-4.458921603601522"><ele>502.1666666666667</ele><time>2026-03-28T12:09:19Z</time></trkpt><trkpt lat="36.79078038882892" lon="-4.458896664109102"><ele>502.33333333333337</ele><time>2026-03-28T12:09:21Z</time></trkpt><trkpt lat="36.79071269849429" lon="-4.458887314625108"><ele>502.5</ele><time>2026-03-28T12:09:22Z</time></trkpt><trkpt lat="36.79064115913396" lon="-4.458881977113633"><ele>502.66666666666663</ele><time>2026-03-28T12:09:23Z</time></trkpt><trkpt lat="36.79056885170588" lon="-4.458873716801443"><ele>502.8333333333333</ele><time>2026-03-28T12:09:24Z</time></trkpt><trkpt lat="36.790487963952565" lon="-4.458863212052832"><ele>503.0</ele><time>2026-03-28T12:09:25Z</time></trkpt><trkpt lat="36.79042474022834" lon="-4.458843680519935"><ele>502.99999999999994</ele><time>2026-03-28T12:09:26Z</time></trkpt><trkpt lat="36.79035624667879" lon="-4.458803759719936"><ele>503.0</ele><time>2026-03-28T12:09:27Z</time></trkpt><trkpt lat="36.790287538069585" lon="-4.458758067257714"><ele>503.0</ele><time>2026-03-28T12:09:28Z</time></trkpt><trkpt lat="36.79021348782485" lon="-4.458716984684539"><ele>503.0</ele><time>2026-03-28T12:09:29Z</time></trkpt><trkpt lat="36.790142223573035" lon="-4.45867187362047"><ele>502.99999999999994</ele><time>2026-03-28T12:09:30Z</time></trkpt><trkpt lat="36.79007058084955" lon="-4.458621653950543"><ele>503.0</ele><time>2026-03-28T12:09:31Z</time></trkpt><trkpt lat="36.790002703873945" lon="-4.4585800644299844"><ele>502.7142857142857</ele><time>2026-03-28T12:09:32Z</time></trkpt><trkpt lat="36.78993412409271" lon="-4.458542169397404"><ele>502.42857142857144</ele><time>2026-03-28T12:09:33Z</time></trkpt><trkpt lat="36.78986554762438" lon="-4.458524233003414"><ele>502.14285714285717</ele><time>2026-03-28T12:09:34Z</time></trkpt><trkpt lat="36.78979618265227" lon="-4.458520691397601"><ele>501.8571428571429</ele><time>2026-03-28T12:09:35Z</time></trkpt><trkpt lat="36.78971872825824" lon="-4.45852540221708"><ele>501.57142857142856</ele><time>2026-03-28T12:09:36Z</time></trkpt><trkpt lat="36.789641061700365" lon="-4.458539816844132"><ele>501.28571428571433</ele><time>2026-03-28T12:09:37Z</time></trkpt><trkpt lat="36.78956993304914" lon="-4.458563685604145"><ele>501.0</ele><time>2026-03-28T12:09:38Z</time></trkpt><trkpt lat="36.789495805246204" lon="-4.45857923116786"><ele>501.0</ele><time>2026-03-28T12:09:39Z</time></trkpt><trkpt lat="36.7894245550218" lon="-4.458579689670174"><ele>501.0</ele><time>2026-03-28T12:09:40Z</time></trkpt><trkpt lat="36.78935532116339" lon="-4.458563599972227"><ele>501.0</ele><time>2026-03-28T12:09:41Z</time></trkpt><trkpt lat="36.78929408201664" lon="-4.458528419788604"><ele>501.0</ele><time>2026-03-28T12:09:42Z</time></trkpt><trkpt lat="36.789224562776816" lon="-4.4584925670454965"><ele>501.0</ele><time>2026-03-28T12:09:43Z</time></trkpt><trkpt lat="36.789159163700866" lon="-4.458436925439444"><ele>501.0</ele><time>2026-03-28T12:09:44Z</time></trkpt><trkpt lat="36.78909986421546" lon="-4.458384106709811"><ele>501.0</ele><time>2026-03-28T12:09:45Z</time></trkpt><trkpt lat="36.78904244495661" lon="-4.4583318915104675"><ele>501.3333333333333</ele><time>2026-03-28T12:09:46Z</time></trkpt><trkpt lat="36.78898572403194" lon="-4.45827712246065"><ele>501.66666666666663</ele><time>2026-03-28T12:09:47Z</time></trkpt><trkpt lat="36.78892257315245" lon="-4.458205130208724"><ele>502.0</ele><time>2026-03-28T12:09:48Z</time></trkpt><trkpt lat="36.788868877360535" lon="-4.458116885293373"><ele>502.3333333333333</ele><time>2026-03-28T12:09:49Z</time></trkpt><trkpt lat="36.78883355673918" lon="-4.458034065765761"><ele>502.66666666666663</ele><time>2026-03-28T12:09:50Z</time></trkpt><trkpt lat="36.7888032817569" lon="-4.457952524467831"><ele>503.0</ele><time>2026-03-28T12:09:51Z</time></trkpt><trkpt lat="36.788736167601925" lon="-4.457910119202669"><ele>503.0</ele><time>2026-03-28T12:09:52Z</time></trkpt><trkpt lat="36.788657775183694" lon="-4.457880096759561"><ele>503.00000000000006</ele><time>2026-03-28T12:09:53Z</time></trkpt><trkpt lat="36.78859358633261" lon="-4.457867761070618"><ele>503.0</ele><time>2026-03-28T12:09:54Z</time></trkpt><trkpt lat="36.78852764699146" lon="-4.4578735364412365"><ele>503.0</ele><time>2026-03-28T12:09:55Z</time></trkpt><trkpt lat="36.78845618868495" lon="-4.457903265570037"><ele>503.00000000000006</ele><time>2026-03-28T12:09:56Z</time></trkpt><trkpt lat="36.78838318229269" lon="-4.457928696969936"><ele>503.0</ele><time>2026-03-28T12:09:57Z</time></trkpt><trkpt lat="36.78829932098103" lon="-4.457948409875281"><ele>503.0</ele><time>2026-03-28T12:09:58Z</time></trkpt><trkpt lat="36.788221764772516" lon="-4.457969431674827"><ele>503.99999999999994</ele><time>2026-03-28T12:09:59Z</time></trkpt><trkpt lat="36.78814935378008" lon="-4.457984861744379"><ele>505.0</ele><time>2026-03-28T12:10:00Z</time></trkpt><trkpt lat="36.78808503361726" lon="-4.457969082169358"><ele>506.0</ele><time>2026-03-28T12:10:01Z</time></trkpt><trkpt lat="36.78802133855693" lon="-4.457918208874061"><ele>507.0</ele><time>2026-03-28T12:10:02Z</time></trkpt><trkpt lat="36.78795563923292" lon="-4.45785852804792"><ele>507.99999999999994</ele><time>2026-03-28T12:10:03Z</time></trkpt><trkpt lat="36.787884772799714" lon="-4.457804684024366"><ele>509.0</ele><time>2026-03-28T12:10:04Z</time></trkpt><trkpt lat="36.78781278611162" lon="-4.457759320895701"><ele>510.2857142857142</ele><time>2026-03-28T12:10:05Z</time></trkpt><trkpt lat="36.7877401076734" lon="-4.457719501919371"><ele>511.57142857142856</ele><time>2026-03-28T12:10:06Z</time></trkpt><trkpt lat="36.787670447599126" lon="-4.457688768212103"><ele>512.8571428571429</ele><time>2026-03-28T12:10:07Z</time></trkpt><trkpt lat="36.787606055608016" lon="-4.457661845328291"><ele>514.1428571428571</ele><time>2026-03-28T12:10:08Z</time></trkpt><trkpt lat="36.78754186202273" lon="-4.4576736964925"><ele>515.4285714285714</ele><time>2026-03-28T12:10:09Z</time></trkpt><trkpt lat="36.78747025304451" lon="-4.457666497754592"><ele>516.7142857142857</ele><time>2026-03-28T12:10:10Z</time></trkpt><trkpt lat="36.78739295841472" lon="-4.457689325498683"><ele>518.0</ele><time>2026-03-28T12:10:11Z</time></trkpt><trkpt lat="36.78731145863244" lon="-4.457706367140331"><ele>518.0</ele><time>2026-03-28T12:10:12Z</time></trkpt><trkpt lat="36.78722660052916" lon="-4.457724639137349"><ele>518.0</ele><time>2026-03-28T12:10:13Z</time></trkpt><trkpt lat="36.787140024429334" lon="-4.457739356035815"><ele>518.0</ele><time>2026-03-28T12:10:14Z</time></trkpt><trkpt lat="36.78704984742238" lon="-4.457754741812862"><ele>518.0</ele><time>2026-03-28T12:10:15Z</time></trkpt><trkpt lat="36.786962146868156" lon="-4.45776940718256"><ele>518.0</ele><time>2026-03-28T12:10:16Z</time></trkpt><trkpt lat="36.78687197641778" lon="-4.457782607438864"><ele>518.0</ele><time>2026-03-28T12:10:17Z</time></trkpt><trkpt lat="36.7867782762549" lon="-4.457798479488653"><ele>518.8</ele><time>2026-03-28T12:10:18Z</time></trkpt><trkpt lat="36.78668671937391" lon="-4.457811709714417"><ele>519.5999999999999</ele><time>2026-03-28T12:10:19Z</time></trkpt><trkpt lat="36.78659062973783" lon="-4.457804267541397"><ele>520.4000000000001</ele><time>2026-03-28T12:10:20Z</time></trkpt><trkpt lat="36.78649651465156" lon="-4.457777015087147"><ele>521.2</ele><time>2026-03-28T12:10:21Z</time></trkpt><trkpt lat="36.78639514397277" lon="-4.457752667875261"><ele>522.0</ele><time>2026-03-28T12:10:22Z</time></trkpt><trkpt lat="36.78630670358348" lon="-4.457693553647917"><ele>522.0</ele><time>2026-03-28T12:10:23Z</time></trkpt><trkpt lat="36.786229460012706" lon="-4.4576223460712"><ele>522.0</ele><time>2026-03-28T12:10:24Z</time></trkpt><trkpt lat="36.786163220331346" lon="-4.457551452651546"><ele>522.0</ele><time>2026-03-28T12:10:25Z</time></trkpt><trkpt lat="36.78608979997564" lon="-4.457489251322334"><ele>522.0</ele><time>2026-03-28T12:10:26Z</time></trkpt><trkpt lat="36.78600415144284" lon="-4.45743414218868"><ele>522.0</ele><time>2026-03-28T12:10:27Z</time></trkpt><trkpt lat="36.785908700095014" lon="-4.457394191329141"><ele>525.0</ele><time>2026-03-28T12:10:28Z</time></trkpt><trkpt lat="36.78580838230039" lon="-4.457348329829044"><ele>528.0</ele><time>2026-03-28T12:10:29Z</time></trkpt><trkpt lat="36.78571499770985" lon="-4.457285421391952"><ele>531.0</ele><time>2026-03-28T12:10:30Z</time></trkpt><trkpt lat="36.785616531088785" lon="-4.457242809718404"><ele>534.0</ele><time>2026-03-28T12:10:31Z</time></trkpt><trkpt lat="36.785528397699665" lon="-4.4571944806602835"><ele>537.0</ele><time>2026-03-28T12:10:32Z</time></trkpt><trkpt lat="36.78544091851216" lon="-4.457158043636622"><ele>537.6</ele><time>2026-03-28T12:10:33Z</time></trkpt><trkpt lat="36.78535866491048" lon="-4.457093475282512"><ele>538.2</ele><time>2026-03-28T12:10:33.999Z</time></trkpt><trkpt lat="36.785278604206006" lon="-4.4570197830122975"><ele>538.8</ele><time>2026-03-28T12:10:34.999Z</time></trkpt><trkpt lat="36.78519866829171" lon="-4.456936150341873"><ele>539.4</ele><time>2026-03-28T12:10:35.999Z</time></trkpt><trkpt lat="36.7851224264452" lon="-4.45685543456002"><ele>540.0</ele><time>2026-03-28T12:10:36.999Z</time></trkpt><trkpt lat="36.78504116510499" lon="-4.456780671576207"><ele>540.0</ele><time>2026-03-28T12:10:37.999Z</time></trkpt><trkpt lat="36.7849625086861" lon="-4.456716482519989"><ele>540.0</ele><time>2026-03-28T12:10:38.999Z</time></trkpt><trkpt lat="36.78489069466693" lon="-4.45664093022579"><ele>540.0</ele><time>2026-03-28T12:10:39.999Z</time></trkpt><trkpt lat="36.784800573712076" lon="-4.4565766064727175"><ele>540.0</ele><time>2026-03-28T12:10:40.999Z</time></trkpt><trkpt lat="36.78470672904394" lon="-4.456510318111833"><ele>540.0</ele><time>2026-03-28T12:10:41.999Z</time></trkpt><trkpt lat="36.784608394410995" lon="-4.456446571791707"><ele>540.0</ele><time>2026-03-28T12:10:42.999Z</time></trkpt><trkpt lat="36.78450362155722" lon="-4.456417441593487"><ele>540.0</ele><time>2026-03-28T12:10:43.999Z</time></trkpt><trkpt lat="36.78440334397811" lon="-4.456418278306015"><ele>540.0</ele><time>2026-03-28T12:10:44.999Z</time></trkpt><trkpt lat="36.78430392681756" lon="-4.456462448941215"><ele>540.0</ele><time>2026-03-28T12:10:45.999Z</time></trkpt><trkpt lat="36.78421160814436" lon="-4.456518342780898"><ele>540.0</ele><time>2026-03-28T12:10:46.999Z</time></trkpt><trkpt lat="36.78411748317711" lon="-4.456560462798152"><ele>540.6</ele><time>2026-03-28T12:10:47.999Z</time></trkpt><trkpt lat="36.78401489961533" lon="-4.456591711316175"><ele>541.2</ele><time>2026-03-28T12:10:48.999Z</time></trkpt><trkpt lat="36.783922793378274" lon="-4.4566174522709305"><ele>541.8</ele><time>2026-03-28T12:10:49.999Z</time></trkpt><trkpt lat="36.783829999764635" lon="-4.456644363475599"><ele>542.4</ele><time>2026-03-28T12:10:50.999Z</time></trkpt><trkpt lat="36.783739315341506" lon="-4.456681797788387"><ele>543.0</ele><time>2026-03-28T12:10:51.999Z</time></trkpt><trkpt lat="36.783649254816936" lon="-4.456712269609099"><ele>543.0</ele><time>2026-03-28T12:10:52.999Z</time></trkpt><trkpt lat="36.78355527812592" lon="-4.456731345768534"><ele>543.0</ele><time>2026-03-28T12:10:53.999Z</time></trkpt><trkpt lat="36.7834592437185" lon="-4.456737461185332"><ele>543.0</ele><time>2026-03-28T12:10:54.999Z</time></trkpt><trkpt lat="36.783360147635214" lon="-4.456733953730747"><ele>543.0</ele><time>2026-03-28T12:10:55.999Z</time></trkpt><trkpt lat="36.78326425234024" lon="-4.456728079416093"><ele>543.0</ele><time>2026-03-28T12:10:56.999Z</time></trkpt><trkpt lat="36.78317028356954" lon="-4.456727474490552"><ele>543.0</ele><time>2026-03-28T12:10:57.999Z</time></trkpt><trkpt lat="36.78308557424835" lon="-4.456732877328995"><ele>543.0</ele><time>2026-03-28T12:10:58.999Z</time></trkpt><trkpt lat="36.783008555456526" lon="-4.45675124188605"><ele>543.0</ele><time>2026-03-28T12:10:59.999Z</time></trkpt><trkpt lat="36.7829335283127" lon="-4.456786211765617"><ele>543.0</ele><time>2026-03-28T12:11:00.999Z</time></trkpt><trkpt lat="36.78286964919811" lon="-4.456825425293322"><ele>543.0</ele><time>2026-03-28T12:11:01.999Z</time></trkpt><trkpt lat="36.78279676672493" lon="-4.456918385277526"><ele>543.0</ele><time>2026-03-28T12:11:03.999Z</time></trkpt><trkpt lat="36.78271977508272" lon="-4.456710409415673"><ele>543.0</ele><time>2026-03-28T12:11:13.999Z</time></trkpt><trkpt lat="36.782734166342976" lon="-4.45662788630472"><ele>543.0</ele><time>2026-03-28T12:11:14.999Z</time></trkpt><trkpt lat="36.78275098838207" lon="-4.456534505016829"><ele>543.0</ele><time>2026-03-28T12:11:15.999Z</time></trkpt><trkpt lat="36.78277085968647" lon="-4.456436112805932"><ele>543.0</ele><time>2026-03-28T12:11:16.999Z</time></trkpt><trkpt lat="36.78279205532264" lon="-4.456344691268847"><ele>543.0</ele><time>2026-03-28T12:11:17.999Z</time></trkpt><trkpt lat="36.78280629138899" lon="-4.456255823329183"><ele>543.0</ele><time>2026-03-28T12:11:18.999Z</time></trkpt><trkpt lat="36.78278372182347" lon="-4.456105484346771"><ele>544.0</ele><time>2026-03-28T12:11:21Z</time></trkpt><trkpt lat="36.78275266612423" lon="-4.456036673823545"><ele>545.0</ele><time>2026-03-28T12:11:22Z</time></trkpt><trkpt lat="36.782708843442144" lon="-4.45595983858846"><ele>546.0</ele><time>2026-03-28T12:11:23Z</time></trkpt><trkpt lat="36.78265176452518" lon="-4.455895128224949"><ele>547.0</ele><time>2026-03-28T12:11:24Z</time></trkpt><trkpt lat="36.78259675757025" lon="-4.4558290294951"><ele>548.0</ele><time>2026-03-28T12:11:25Z</time></trkpt><trkpt lat="36.78252405677669" lon="-4.45578658625548"><ele>549.0</ele><time>2026-03-28T12:11:26Z</time></trkpt><trkpt lat="36.78244237237324" lon="-4.455779629557476"><ele>545.0</ele><time>2026-03-28T12:11:27Z</time></trkpt><trkpt lat="36.782369634419155" lon="-4.455744549172203"><ele>541.0</ele><time>2026-03-28T12:11:28Z</time></trkpt><trkpt lat="36.782253172390966" lon="-4.455727843551979"><ele>537.0</ele><time>2026-03-28T12:11:30Z</time></trkpt><trkpt lat="36.78214382888277" lon="-4.455705144824534"><ele>533.0</ele><time>2026-03-28T12:11:32Z</time></trkpt><trkpt lat="36.78208643661166" lon="-4.45559809813296"><ele>529.0</ele><time>2026-03-28T12:11:34Z</time></trkpt><trkpt lat="36.78210964668709" lon="-4.455457566424704"><ele>526.8571428571429</ele><time>2026-03-28T12:11:36Z</time></trkpt><trkpt lat="36.782136555823534" lon="-4.455383229995663"><ele>524.7142857142857</ele><time>2026-03-28T12:11:37Z</time></trkpt><trkpt lat="36.78218413984567" lon="-4.455325734979228"><ele>522.5714285714286</ele><time>2026-03-28T12:11:38Z</time></trkpt><trkpt lat="36.782211403457765" lon="-4.455251815703411"><ele>520.4285714285714</ele><time>2026-03-28T12:11:39Z</time></trkpt><trkpt lat="36.782256853463565" lon="-4.455190380895742"><ele>518.2857142857143</ele><time>2026-03-28T12:11:40Z</time></trkpt><trkpt lat="36.78230107358896" lon="-4.455133072438549"><ele>516.1428571428571</ele><time>2026-03-28T12:11:41Z</time></trkpt><trkpt lat="36.782369066056404" lon="-4.455047870995833"><ele>514.0</ele><time>2026-03-28T12:11:43Z</time></trkpt><trkpt lat="36.78241234952968" lon="-4.454981708673874"><ele>514.0</ele><time>2026-03-28T12:11:45Z</time></trkpt><trkpt lat="36.782433880551544" lon="-4.454880751959729"><ele>514.0</ele><time>2026-03-28T12:11:48Z</time></trkpt><trkpt lat="36.782402047854944" lon="-4.454758093839982"><ele>514.0</ele><time>2026-03-28T12:11:51Z</time></trkpt><trkpt lat="36.78231899677705" lon="-4.454711491711184"><ele>514.0</ele><time>2026-03-28T12:11:53Z</time></trkpt><trkpt lat="36.78222284799728" lon="-4.454705921499149"><ele>514.0</ele><time>2026-03-28T12:11:55Z</time></trkpt><trkpt lat="36.78213007978634" lon="-4.454669496682641"><ele>514.0</ele><time>2026-03-28T12:11:57Z</time></trkpt><trkpt lat="36.782038346412854" lon="-4.4546517304389965"><ele>514.0</ele><time>2026-03-28T12:11:59Z</time></trkpt><trkpt lat="36.78194083791215" lon="-4.4546020143915275"><ele>514.0</ele><time>2026-03-28T12:12:01Z</time></trkpt><trkpt lat="36.78188045820038" lon="-4.454561301480222"><ele>514.0</ele><time>2026-03-28T12:12:02Z</time></trkpt><trkpt lat="36.78181315573986" lon="-4.454526581558849"><ele>514.0</ele><time>2026-03-28T12:12:03Z</time></trkpt><trkpt lat="36.781740439811614" lon="-4.454508710789229"><ele>514.0</ele><time>2026-03-28T12:12:04Z</time></trkpt><trkpt lat="36.78165313941407" lon="-4.4545019407874085"><ele>509.2</ele><time>2026-03-28T12:12:05Z</time></trkpt><trkpt lat="36.78156199638575" lon="-4.454496126879644"><ele>504.4</ele><time>2026-03-28T12:12:06Z</time></trkpt><trkpt lat="36.78146435401933" lon="-4.454491246320097"><ele>499.6</ele><time>2026-03-28T12:12:07Z</time></trkpt><trkpt lat="36.781369846516014" lon="-4.454482562981159"><ele>494.8</ele><time>2026-03-28T12:12:08Z</time></trkpt><trkpt lat="36.781276603438265" lon="-4.454471397939649"><ele>490.0</ele><time>2026-03-28T12:12:09Z</time></trkpt><trkpt lat="36.78119135748827" lon="-4.45445635809115"><ele>490.00000000000006</ele><time>2026-03-28T12:12:10Z</time></trkpt><trkpt lat="36.78111969069769" lon="-4.454436380964705"><ele>490.0</ele><time>2026-03-28T12:12:11Z</time></trkpt><trkpt lat="36.78105203866545" lon="-4.4544309271929965"><ele>490.0</ele><time>2026-03-28T12:12:12Z</time></trkpt><trkpt lat="36.78098168948642" lon="-4.454455135717856"><ele>490.0</ele><time>2026-03-28T12:12:13Z</time></trkpt><trkpt lat="36.780907624838484" lon="-4.454494228768624"><ele>490.00000000000006</ele><time>2026-03-28T12:12:14Z</time></trkpt><trkpt lat="36.780826504721205" lon="-4.454532977974191"><ele>490.0</ele><time>2026-03-28T12:12:15Z</time></trkpt><trkpt lat="36.78074273182395" lon="-4.454579048859719"><ele>489.1666666666667</ele><time>2026-03-28T12:12:16Z</time></trkpt><trkpt lat="36.78065524497362" lon="-4.45456028885821"><ele>488.33333333333337</ele><time>2026-03-28T12:12:17Z</time></trkpt><trkpt lat="36.780576336406085" lon="-4.454577751207941"><ele>487.5</ele><time>2026-03-28T12:12:18Z</time></trkpt><trkpt lat="36.78049637171898" lon="-4.454580815184653"><ele>486.66666666666663</ele><time>2026-03-28T12:12:19Z</time></trkpt><trkpt lat="36.78042425857278" lon="-4.454575859595704"><ele>485.8333333333333</ele><time>2026-03-28T12:12:20Z</time></trkpt><trkpt lat="36.78031800558644" lon="-4.454602080846"><ele>485.0</ele><time>2026-03-28T12:12:22Z</time></trkpt><trkpt lat="36.78025599031114" lon="-4.454635721452338"><ele>484.99999999999994</ele><time>2026-03-28T12:12:25Z</time></trkpt><trkpt lat="36.78035395463113" lon="-4.454601420451135"><ele>485.0</ele><time>2026-03-28T12:12:29Z</time></trkpt><trkpt lat="36.78039933792823" lon="-4.454448468789243"><ele>485.0</ele><time>2026-03-28T12:12:30Z</time></trkpt><trkpt lat="36.780467109078955" lon="-4.454430422084653"><ele>485.0</ele><time>2026-03-28T12:12:31Z</time></trkpt><trkpt lat="36.78054193519598" lon="-4.454413889816135"><ele>484.99999999999994</ele><time>2026-03-28T12:12:32Z</time></trkpt><trkpt lat="36.780607646405905" lon="-4.454422195296934"><ele>485.0</ele><time>2026-03-28T12:12:33Z</time></trkpt><trkpt lat="36.78067191934271" lon="-4.454420640872602"><ele>485.0</ele><time>2026-03-28T12:12:33.999Z</time></trkpt><trkpt lat="36.780770104128955" lon="-4.454352361246007"><ele>485.0</ele><time>2026-03-28T12:12:35.999Z</time></trkpt><trkpt lat="36.780811967232694" lon="-4.454282322952802"><ele>485.0</ele><time>2026-03-28T12:12:36.999Z</time></trkpt><trkpt lat="36.78084585234741" lon="-4.454212533126524"><ele>485.0</ele><time>2026-03-28T12:12:37.999Z</time></trkpt><trkpt lat="36.78091760994302" lon="-4.454097882051399"><ele>485.0</ele><time>2026-03-28T12:12:39.999Z</time></trkpt><trkpt lat="36.781015566755265" lon="-4.453986256648703"><ele>485.8333333333333</ele><time>2026-03-28T12:12:41.999Z</time></trkpt><trkpt lat="36.78109711654695" lon="-4.4539883769435225"><ele>486.66666666666663</ele><time>2026-03-28T12:12:42.999Z</time></trkpt><trkpt lat="36.78116679809113" lon="-4.4540236935219015"><ele>487.5</ele><time>2026-03-28T12:12:43.999Z</time></trkpt><trkpt lat="36.781267780518654" lon="-4.454041938001558"><ele>488.33333333333337</ele><time>2026-03-28T12:12:45.999Z</time></trkpt><trkpt lat="36.78135556147656" lon="-4.454018562136573"><ele>489.1666666666667</ele><time>2026-03-28T12:12:47.999Z</time></trkpt><trkpt lat="36.78144789732377" lon="-4.453968017920089"><ele>490.0</ele><time>2026-03-28T12:12:49.999Z</time></trkpt><trkpt lat="36.781501979885746" lon="-4.45392405334765"><ele>490.00000000000006</ele><time>2026-03-28T12:12:50.999Z</time></trkpt><trkpt lat="36.7815585513194" lon="-4.453871622005719"><ele>490.0</ele><time>2026-03-28T12:12:51.999Z</time></trkpt><trkpt lat="36.78162515178855" lon="-4.453824833349413"><ele>490.0</ele><time>2026-03-28T12:12:52.999Z</time></trkpt><trkpt lat="36.78166472562577" lon="-4.453744225648587"><ele>490.0</ele><time>2026-03-28T12:12:53.999Z</time></trkpt><trkpt lat="36.78172599630139" lon="-4.453673226999454"><ele>490.00000000000006</ele><time>2026-03-28T12:12:54.999Z</time></trkpt><trkpt lat="36.78177899100073" lon="-4.453599239537393"><ele>490.0</ele><time>2026-03-28T12:12:55.999Z</time></trkpt><trkpt lat="36.78181693252972" lon="-4.453506198921554"><ele>484.83333333333337</ele><time>2026-03-28T12:12:56.999Z</time></trkpt><trkpt lat="36.78186318134308" lon="-4.453424797576031"><ele>479.6666666666667</ele><time>2026-03-28T12:12:57.999Z</time></trkpt><trkpt lat="36.781903589180935" lon="-4.453348276832559"><ele>474.5</ele><time>2026-03-28T12:12:58.999Z</time></trkpt><trkpt lat="36.781944177415355" lon="-4.453275147081914"><ele>469.33333333333337</ele><time>2026-03-28T12:12:59.999Z</time></trkpt><trkpt lat="36.78198591683045" lon="-4.453205336220906"><ele>464.1666666666667</ele><time>2026-03-28T12:13:00.999Z</time></trkpt><trkpt lat="36.78210710348471" lon="-4.453130241912263"><ele>459.0</ele><time>2026-03-28T12:13:02.999Z</time></trkpt><trkpt lat="36.782170917477124" lon="-4.453118129193406"><ele>459.0</ele><time>2026-03-28T12:13:03.999Z</time></trkpt><trkpt lat="36.78227235088656" lon="-4.4531065318737895"><ele>459.0</ele><time>2026-03-28T12:13:05.999Z</time></trkpt><trkpt lat="36.78237191324818" lon="-4.453100999951228"><ele>459.0</ele><time>2026-03-28T12:13:07.999Z</time></trkpt><trkpt lat="36.782392864395774" lon="-4.453020966956214"><ele>459.0</ele><time>2026-03-28T12:13:10.999Z</time></trkpt><trkpt lat="36.78232880750455" lon="-4.4530299103125435"><ele>459.0</ele><time>2026-03-28T12:13:11.999Z</time></trkpt><trkpt lat="36.78222086925856" lon="-4.453042025209193"><ele>459.0</ele><time>2026-03-28T12:13:13.999Z</time></trkpt><trkpt lat="36.78215993946961" lon="-4.453014082044047"><ele>459.0</ele><time>2026-03-28T12:13:14.999Z</time></trkpt><trkpt lat="36.7820360379811" lon="-4.4530131784425855"><ele>459.0</ele><time>2026-03-28T12:13:16.999Z</time></trkpt><trkpt lat="36.78192671528672" lon="-4.45300932228556"><ele>459.0</ele><time>2026-03-28T12:13:18.999Z</time></trkpt><trkpt lat="36.78185772882094" lon="-4.453027075853571"><ele>459.0</ele><time>2026-03-28T12:13:19.999Z</time></trkpt><trkpt lat="36.78180516369396" lon="-4.453088285374322"><ele>459.0</ele><time>2026-03-28T12:13:20.999Z</time></trkpt><trkpt lat="36.781717831865585" lon="-4.453189168221803"><ele>459.0</ele><time>2026-03-28T12:13:22.999Z</time></trkpt><trkpt lat="36.7816264850434" lon="-4.453261578989476"><ele>459.0</ele><time>2026-03-28T12:13:24.999Z</time></trkpt><trkpt lat="36.781548950888364" lon="-4.453316232623623"><ele>459.0</ele><time>2026-03-28T12:13:27Z</time></trkpt><trkpt lat="36.78147714624534" lon="-4.45337986534563"><ele>459.0</ele><time>2026-03-28T12:13:29Z</time></trkpt><trkpt lat="36.781388514129155" lon="-4.453391742765647"><ele>459.0</ele><time>2026-03-28T12:13:31Z</time></trkpt><trkpt lat="36.78132170821555" lon="-4.453351738725362"><ele>459.0</ele><time>2026-03-28T12:13:32Z</time></trkpt><trkpt lat="36.78126988933529" lon="-4.4532796571715"><ele>459.0</ele><time>2026-03-28T12:13:33Z</time></trkpt><trkpt lat="36.78124552019929" lon="-4.4531707960489575"><ele>459.0</ele><time>2026-03-28T12:13:34Z</time></trkpt><trkpt lat="36.78122606652706" lon="-4.453087023871102"><ele>459.0</ele><time>2026-03-28T12:13:35Z</time></trkpt><trkpt lat="36.78119079537826" lon="-4.452949001478516"><ele>459.0</ele><time>2026-03-28T12:13:37Z</time></trkpt><trkpt lat="36.78115693150973" lon="-4.4528689557422805"><ele>459.0</ele><time>2026-03-28T12:13:38Z</time></trkpt><trkpt lat="36.781118225599485" lon="-4.452789596215686"><ele>459.0</ele><time>2026-03-28T12:13:39Z</time></trkpt><trkpt lat="36.78107273453604" lon="-4.452714303435459"><ele>451.4</ele><time>2026-03-28T12:13:40Z</time></trkpt><trkpt lat="36.781024995347465" lon="-4.452646548149897"><ele>443.79999999999995</ele><time>2026-03-28T12:13:41Z</time></trkpt><trkpt lat="36.780964321844834" lon="-4.4525317371620385"><ele>436.20000000000005</ele><time>2026-03-28T12:13:43Z</time></trkpt><trkpt lat="36.78094220590017" lon="-4.452372887676867"><ele>428.6</ele><time>2026-03-28T12:13:45Z</time></trkpt><trkpt lat="36.780939986736165" lon="-4.452292436627539"><ele>421.0</ele><time>2026-03-28T12:13:46Z</time></trkpt><trkpt lat="36.78093784808614" lon="-4.452161168052534"><ele>416.20000000000005</ele><time>2026-03-28T12:13:48Z</time></trkpt><trkpt lat="36.780937447286874" lon="-4.452031138537841"><ele>411.40000000000003</ele><time>2026-03-28T12:13:50Z</time></trkpt><trkpt lat="36.780954719553804" lon="-4.451875846953562"><ele>406.6</ele><time>2026-03-28T12:13:52Z</time></trkpt><trkpt lat="36.780973467563285" lon="-4.451737696995523"><ele>401.8</ele><time>2026-03-28T12:13:54Z</time></trkpt><trkpt lat="36.78098438750748" lon="-4.451649415220592"><ele>397.0</ele><time>2026-03-28T12:13:55Z</time></trkpt><trkpt lat="36.78099404738717" lon="-4.451566197116363"><ele>397.0</ele><time>2026-03-28T12:13:56Z</time></trkpt><trkpt lat="36.78100119336904" lon="-4.451427672891034"><ele>397.0</ele><time>2026-03-28T12:13:58Z</time></trkpt><trkpt lat="36.78100058321082" lon="-4.451293766329857"><ele>397.0</ele><time>2026-03-28T12:14:00Z</time></trkpt><trkpt lat="36.7809985583826" lon="-4.451159777856272"><ele>397.0</ele><time>2026-03-28T12:14:02Z</time></trkpt><trkpt lat="36.781000121826345" lon="-4.451031140035538"><ele>397.0</ele><time>2026-03-28T12:14:04Z</time></trkpt><trkpt lat="36.781042725860544" lon="-4.450942534987295"><ele>395.50000000000006</ele><time>2026-03-28T12:14:06Z</time></trkpt><trkpt lat="36.78113078096365" lon="-4.450964977951386"><ele>394.0</ele><time>2026-03-28T12:14:09Z</time></trkpt><trkpt lat="36.78116604907085" lon="-4.451113040930902"><ele>392.5</ele><time>2026-03-28T12:14:11Z</time></trkpt><trkpt lat="36.781187357789804" lon="-4.451194703787377"><ele>391.0</ele><time>2026-03-28T12:14:12Z</time></trkpt><trkpt lat="36.781206684488325" lon="-4.451284926436604"><ele>389.50000000000006</ele><time>2026-03-28T12:14:13Z</time></trkpt><trkpt lat="36.78125217727294" lon="-4.451361161503864"><ele>388.0</ele><time>2026-03-28T12:14:14Z</time></trkpt><trkpt lat="36.781254864869126" lon="-4.451447025989012"><ele>388.00000000000006</ele><time>2026-03-28T12:14:15Z</time></trkpt><trkpt lat="36.78129927257255" lon="-4.451562130477805"><ele>388.0</ele><time>2026-03-28T12:14:17Z</time></trkpt><trkpt lat="36.781343862603045" lon="-4.451644280291325"><ele>388.0</ele><time>2026-03-28T12:14:19Z</time></trkpt><trkpt lat="36.7813672275317" lon="-4.451567922064977"><ele>388.0</ele><time>2026-03-28T12:14:22Z</time></trkpt><trkpt lat="36.78134309214831" lon="-4.451448045453907"><ele>388.00000000000006</ele><time>2026-03-28T12:14:25Z</time></trkpt><trkpt lat="36.78134870762317" lon="-4.451367340334314"><ele>388.0</ele><time>2026-03-28T12:14:26Z</time></trkpt><trkpt lat="36.78133315357807" lon="-4.451283053505556"><ele>383.83333333333337</ele><time>2026-03-28T12:14:27Z</time></trkpt><trkpt lat="36.78132915658575" lon="-4.451189283099509"><ele>379.6666666666667</ele><time>2026-03-28T12:14:28Z</time></trkpt><trkpt lat="36.78130129565819" lon="-4.451093377791088"><ele>375.5</ele><time>2026-03-28T12:14:29Z</time></trkpt><trkpt lat="36.781332872828614" lon="-4.4509770725038615"><ele>371.33333333333337</ele><time>2026-03-28T12:14:30Z</time></trkpt><trkpt lat="36.78134861962188" lon="-4.450870242228196"><ele>367.1666666666667</ele><time>2026-03-28T12:14:31Z</time></trkpt><trkpt lat="36.781369339256834" lon="-4.450764470296886"><ele>363.0</ele><time>2026-03-28T12:14:32Z</time></trkpt><trkpt lat="36.78139655793596" lon="-4.450671974032282"><ele>363.0</ele><time>2026-03-28T12:14:33Z</time></trkpt><trkpt lat="36.78142619014992" lon="-4.450586394679793"><ele>363.0</ele><time>2026-03-28T12:14:34Z</time></trkpt><trkpt lat="36.78145625616394" lon="-4.450514149503461"><ele>363.0</ele><time>2026-03-28T12:14:35Z</time></trkpt><trkpt lat="36.78148712964664" lon="-4.450437822584178"><ele>363.0</ele><time>2026-03-28T12:14:36Z</time></trkpt><trkpt lat="36.7815350585661" lon="-4.4503137981633865"><ele>363.0</ele><time>2026-03-28T12:14:38Z</time></trkpt><trkpt lat="36.78155556684485" lon="-4.450209641259552"><ele>363.0</ele><time>2026-03-28T12:14:40Z</time></trkpt><trkpt lat="36.781559298308125" lon="-4.450066874065359"><ele>361.4</ele><time>2026-03-28T12:14:42Z</time></trkpt><trkpt lat="36.78157337168672" lon="-4.449937275453871"><ele>359.79999999999995</ele><time>2026-03-28T12:14:44Z</time></trkpt><trkpt lat="36.781600537545444" lon="-4.449818872759396"><ele>358.2</ele><time>2026-03-28T12:14:46Z</time></trkpt><trkpt lat="36.78162896529894" lon="-4.4497085370319045"><ele>356.6</ele><time>2026-03-28T12:14:48Z</time></trkpt><trkpt lat="36.781653101441535" lon="-4.449596305281843"><ele>355.0</ele><time>2026-03-28T12:14:50Z</time></trkpt><trkpt lat="36.78167627441391" lon="-4.44946830985359"><ele>352.0</ele><time>2026-03-28T12:14:52Z</time></trkpt><trkpt lat="36.78169267162614" lon="-4.449357113710978"><ele>349.0</ele><time>2026-03-28T12:14:53.999Z</time></trkpt><trkpt lat="36.7816570635104" lon="-4.449249676250681"><ele>346.0</ele><time>2026-03-28T12:14:55.999Z</time></trkpt><trkpt lat="36.781629254150275" lon="-4.449142606335608"><ele>343.0</ele><time>2026-03-28T12:14:57.999Z</time></trkpt><trkpt lat="36.78157882106898" lon="-4.4490481280994745"><ele>340.0</ele><time>2026-03-28T12:14:59.999Z</time></trkpt><trkpt lat="36.78148634014054" lon="-4.449006085824375"><ele>340.0</ele><time>2026-03-28T12:15:01.999Z</time></trkpt><trkpt lat="36.781413589681286" lon="-4.4489410381733325"><ele>340.0</ele><time>2026-03-28T12:15:03.999Z</time></trkpt><trkpt lat="36.78144964521393" lon="-4.448857142050979"><ele>340.0</ele><time>2026-03-28T12:15:05.999Z</time></trkpt><trkpt lat="36.78154354662267" lon="-4.448830558638367"><ele>340.0</ele><time>2026-03-28T12:15:07.999Z</time></trkpt><trkpt lat="36.781639420144664" lon="-4.4488698147220225"><ele>340.0</ele><time>2026-03-28T12:15:09.999Z</time></trkpt><trkpt lat="36.78170872953466" lon="-4.4489145042193154"><ele>340.0</ele><time>2026-03-28T12:15:11.999Z</time></trkpt><trkpt lat="36.78174256350053" lon="-4.448810854689311"><ele>336.0</ele><time>2026-03-28T12:15:13.999Z</time></trkpt><trkpt lat="36.78168566660821" lon="-4.448686956768954"><ele>332.0</ele><time>2026-03-28T12:15:15.999Z</time></trkpt><trkpt lat="36.78164529092735" lon="-4.448561358132046"><ele>328.0</ele><time>2026-03-28T12:15:17.999Z</time></trkpt><trkpt lat="36.78159515916676" lon="-4.448464424226306"><ele>324.0</ele><time>2026-03-28T12:15:19.999Z</time></trkpt><trkpt lat="36.78158998990505" lon="-4.448385464464643"><ele>320.0</ele><time>2026-03-28T12:15:21.999Z</time></trkpt><trkpt lat="36.781665418880685" lon="-4.4483516018222895"><ele>320.0</ele><time>2026-03-28T12:15:24.999Z</time></trkpt><trkpt lat="36.781721450285964" lon="-4.4484112605537245"><ele>320.0</ele><time>2026-03-28T12:15:26.999Z</time></trkpt><trkpt lat="36.781797556614826" lon="-4.448526319550558"><ele>320.0</ele><time>2026-03-28T12:15:28.999Z</time></trkpt><trkpt lat="36.7818388536157" lon="-4.448593961954955"><ele>320.0</ele><time>2026-03-28T12:15:29.999Z</time></trkpt><trkpt lat="36.78191420615101" lon="-4.44872968578482"><ele>320.0</ele><time>2026-03-28T12:15:31.999Z</time></trkpt><trkpt lat="36.781961042844735" lon="-4.448796756317221"><ele>322.6</ele><time>2026-03-28T12:15:33Z</time></trkpt><trkpt lat="36.782030347534" lon="-4.448903677245951"><ele>325.2</ele><time>2026-03-28T12:15:35Z</time></trkpt><trkpt lat="36.78209515078617" lon="-4.448993202391283"><ele>327.79999999999995</ele><time>2026-03-28T12:15:37Z</time></trkpt><trkpt lat="36.782134559441964" lon="-4.449103009493968"><ele>330.4</ele><time>2026-03-28T12:15:39Z</time></trkpt><trkpt lat="36.78218299062863" lon="-4.449239885200992"><ele>333.0</ele><time>2026-03-28T12:15:41Z</time></trkpt><trkpt lat="36.78225548431762" lon="-4.449329631766808"><ele>333.0</ele><time>2026-03-28T12:15:43Z</time></trkpt><trkpt lat="36.782340675669445" lon="-4.449343811695374"><ele>333.0</ele><time>2026-03-28T12:15:45Z</time></trkpt><trkpt lat="36.782401656270665" lon="-4.449229623123805"><ele>333.0</ele><time>2026-03-28T12:15:47Z</time></trkpt><trkpt lat="36.78244208521908" lon="-4.449085297128614"><ele>333.0</ele><time>2026-03-28T12:15:49Z</time></trkpt><trkpt lat="36.78245770177673" lon="-4.448929175991838"><ele>333.0</ele><time>2026-03-28T12:15:51Z</time></trkpt><trkpt lat="36.782476887292816" lon="-4.4488421451403015"><ele>330.5714285714286</ele><time>2026-03-28T12:15:52Z</time></trkpt><trkpt lat="36.782499960244955" lon="-4.448755825636188"><ele>328.1428571428571</ele><time>2026-03-28T12:15:53Z</time></trkpt><trkpt lat="36.78252492956793" lon="-4.4486784846966465"><ele>325.7142857142857</ele><time>2026-03-28T12:15:54Z</time></trkpt><trkpt lat="36.78255059996684" lon="-4.448605847652997"><ele>323.28571428571433</ele><time>2026-03-28T12:15:55Z</time></trkpt><trkpt lat="36.782570061101836" lon="-4.448526528830816"><ele>320.8571428571429</ele><time>2026-03-28T12:15:56Z</time></trkpt><trkpt lat="36.78257502776702" lon="-4.448441276778752"><ele>318.42857142857144</ele><time>2026-03-28T12:15:57Z</time></trkpt><trkpt lat="36.78258661014491" lon="-4.448362764453037"><ele>316.0</ele><time>2026-03-28T12:15:58Z</time></trkpt><trkpt lat="36.78264388338692" lon="-4.44823740205883"><ele>316.0</ele><time>2026-03-28T12:16:00Z</time></trkpt><trkpt lat="36.78269470538578" lon="-4.4481245714619115"><ele>316.0</ele><time>2026-03-28T12:16:02Z</time></trkpt><trkpt lat="36.78267819982824" lon="-4.448041557622802"><ele>316.0</ele><time>2026-03-28T12:16:03Z</time></trkpt><trkpt lat="36.782634737223596" lon="-4.447967670542219"><ele>316.0</ele><time>2026-03-28T12:16:04Z</time></trkpt><trkpt lat="36.7826017643785" lon="-4.447888326485183"><ele>316.0</ele><time>2026-03-28T12:16:05Z</time></trkpt><trkpt lat="36.78262066699953" lon="-4.44774046478094"><ele>316.0</ele><time>2026-03-28T12:16:07Z</time></trkpt><trkpt lat="36.7826752554225" lon="-4.447618775103672"><ele>316.40000000000003</ele><time>2026-03-28T12:16:09Z</time></trkpt><trkpt lat="36.782737613765505" lon="-4.447499730775838"><ele>316.8</ele><time>2026-03-28T12:16:11Z</time></trkpt><trkpt lat="36.78279350432767" lon="-4.447387648666561"><ele>317.20000000000005</ele><time>2026-03-28T12:16:13Z</time></trkpt><trkpt lat="36.782847070719264" lon="-4.447266668079192"><ele>317.6</ele><time>2026-03-28T12:16:15Z</time></trkpt><trkpt lat="36.78291073248512" lon="-4.447147903957349"><ele>318.0</ele><time>2026-03-28T12:16:17Z</time></trkpt><trkpt lat="36.78298384046359" lon="-4.4470628320530325"><ele>318.0</ele><time>2026-03-28T12:16:19Z</time></trkpt><trkpt lat="36.783016133487365" lon="-4.4469796294936765"><ele>318.0</ele><time>2026-03-28T12:16:21Z</time></trkpt><trkpt lat="36.78295068102013" lon="-4.446950372536292"><ele>318.0</ele><time>2026-03-28T12:16:23Z</time></trkpt><trkpt lat="36.78288917191324" lon="-4.447027625123717"><ele>318.0</ele><time>2026-03-28T12:16:25Z</time></trkpt><trkpt lat="36.78281630299037" lon="-4.447108201548358"><ele>318.0</ele><time>2026-03-28T12:16:27Z</time></trkpt><trkpt lat="36.78270713551937" lon="-4.447187844170253"><ele>315.4285714285714</ele><time>2026-03-28T12:16:29Z</time></trkpt><trkpt lat="36.78264645764086" lon="-4.447228498133098"><ele>312.8571428571429</ele><time>2026-03-28T12:16:30Z</time></trkpt><trkpt lat="36.782585344447924" lon="-4.447286336095584"><ele>310.2857142857143</ele><time>2026-03-28T12:16:31Z</time></trkpt><trkpt lat="36.78252810781063" lon="-4.4473533890423695"><ele>307.71428571428567</ele><time>2026-03-28T12:16:32Z</time></trkpt><trkpt lat="36.782479552159494" lon="-4.447424084221315"><ele>305.1428571428571</ele><time>2026-03-28T12:16:33Z</time></trkpt><trkpt lat="36.78244387910724" lon="-4.447498936588847"><ele>302.57142857142856</ele><time>2026-03-28T12:16:34Z</time></trkpt><trkpt lat="36.78240188490624" lon="-4.447564944594022"><ele>300.0</ele><time>2026-03-28T12:16:35Z</time></trkpt><trkpt lat="36.78229925402396" lon="-4.447625146939013"><ele>300.0</ele><time>2026-03-28T12:16:37Z</time></trkpt><trkpt lat="36.78218878789708" lon="-4.447587482021192"><ele>300.0</ele><time>2026-03-28T12:16:39Z</time></trkpt><trkpt lat="36.78209569644754" lon="-4.447509610536475"><ele>300.0</ele><time>2026-03-28T12:16:41Z</time></trkpt><trkpt lat="36.782096959345935" lon="-4.447383256336508"><ele>300.0</ele><time>2026-03-28T12:16:43Z</time></trkpt><trkpt lat="36.78212668267158" lon="-4.44730276790054"><ele>300.0</ele><time>2026-03-28T12:16:44Z</time></trkpt><trkpt lat="36.78215801178682" lon="-4.447221963320182"><ele>297.5</ele><time>2026-03-28T12:16:45Z</time></trkpt><trkpt lat="36.78217722866625" lon="-4.447123622714997"><ele>295.0</ele><time>2026-03-28T12:16:46Z</time></trkpt><trkpt lat="36.78218958002304" lon="-4.447020576203571"><ele>292.5</ele><time>2026-03-28T12:16:47Z</time></trkpt><trkpt lat="36.782185579554536" lon="-4.446921313276909"><ele>290.0</ele><time>2026-03-28T12:16:48Z</time></trkpt><trkpt lat="36.78216627139068" lon="-4.446828093179019"><ele>287.5</ele><time>2026-03-28T12:16:49Z</time></trkpt><trkpt lat="36.78214092441027" lon="-4.446745067101428"><ele>285.0</ele><time>2026-03-28T12:16:50Z</time></trkpt><trkpt lat="36.782099078888166" lon="-4.446672874904626"><ele>285.0</ele><time>2026-03-28T12:16:51Z</time></trkpt><trkpt lat="36.78204597868762" lon="-4.446604988822342"><ele>285.0</ele><time>2026-03-28T12:16:52Z</time></trkpt><trkpt lat="36.78200985576509" lon="-4.446528271381203"><ele>285.0</ele><time>2026-03-28T12:16:53Z</time></trkpt><trkpt lat="36.78197950778173" lon="-4.446442684261284"><ele>285.0</ele><time>2026-03-28T12:16:54Z</time></trkpt><trkpt lat="36.781949331804505" lon="-4.446330119143862"><ele>285.0</ele><time>2026-03-28T12:16:55Z</time></trkpt><trkpt lat="36.78192440296828" lon="-4.446239593449171"><ele>285.0</ele><time>2026-03-28T12:16:56Z</time></trkpt><trkpt lat="36.781905253313276" lon="-4.446151889143817"><ele>282.8</ele><time>2026-03-28T12:16:57Z</time></trkpt><trkpt lat="36.781896306944425" lon="-4.446070870643214"><ele>280.6</ele><time>2026-03-28T12:16:58Z</time></trkpt><trkpt lat="36.781918188456686" lon="-4.445909567360051"><ele>278.4</ele><time>2026-03-28T12:17:00Z</time></trkpt><trkpt lat="36.781942380673954" lon="-4.445766861431796"><ele>276.2</ele><time>2026-03-28T12:17:02Z</time></trkpt><trkpt lat="36.78194573450368" lon="-4.445629906056824"><ele>274.0</ele><time>2026-03-28T12:17:04Z</time></trkpt><trkpt lat="36.78190458368769" lon="-4.445522990951933"><ele>276.16666666666663</ele><time>2026-03-28T12:17:06Z</time></trkpt><trkpt lat="36.78180618297652" lon="-4.4455040448859755"><ele>278.3333333333333</ele><time>2026-03-28T12:17:07.999Z</time></trkpt><trkpt lat="36.78173368117468" lon="-4.445547184342044"><ele>280.5</ele><time>2026-03-28T12:17:08.999Z</time></trkpt><trkpt lat="36.7816675491128" lon="-4.445603667382635"><ele>282.6666666666667</ele><time>2026-03-28T12:17:09.999Z</time></trkpt><trkpt lat="36.78160067822194" lon="-4.445629810747722"><ele>284.83333333333337</ele><time>2026-03-28T12:17:10.999Z</time></trkpt><trkpt lat="36.78153534170367" lon="-4.445637364920562"><ele>287.0</ele><time>2026-03-28T12:17:11.999Z</time></trkpt><trkpt lat="36.78145233932538" lon="-4.445599218097165"><ele>287.0</ele><time>2026-03-28T12:17:12.999Z</time></trkpt><trkpt lat="36.78137645985755" lon="-4.445550293213375"><ele>287.0</ele><time>2026-03-28T12:17:13.999Z</time></trkpt><trkpt lat="36.7812991791259" lon="-4.445508848454867"><ele>287.0</ele><time>2026-03-28T12:17:14.999Z</time></trkpt><trkpt lat="36.78122399184458" lon="-4.445480450327072"><ele>287.0</ele><time>2026-03-28T12:17:15.999Z</time></trkpt><trkpt lat="36.78115653118927" lon="-4.445455828983353"><ele>287.0</ele><time>2026-03-28T12:17:16.999Z</time></trkpt><trkpt lat="36.78103304378201" lon="-4.445439668950371"><ele>287.0</ele><time>2026-03-28T12:17:18.999Z</time></trkpt><trkpt lat="36.780972807867755" lon="-4.445464044811348"><ele>286.0</ele><time>2026-03-28T12:17:19.999Z</time></trkpt><trkpt lat="36.78086732054672" lon="-4.445536241144035"><ele>285.0</ele><time>2026-03-28T12:17:21.999Z</time></trkpt><trkpt lat="36.78081787346632" lon="-4.445585128234085"><ele>284.0</ele><time>2026-03-28T12:17:22.999Z</time></trkpt><trkpt lat="36.78072823081841" lon="-4.445624697069567"><ele>283.0</ele><time>2026-03-28T12:17:24.999Z</time></trkpt><trkpt lat="36.780668757099846" lon="-4.445552658345194"><ele>282.0</ele><time>2026-03-28T12:17:26.999Z</time></trkpt><trkpt lat="36.780671224700164" lon="-4.445427622499203"><ele>279.8</ele><time>2026-03-28T12:17:28.999Z</time></trkpt><trkpt lat="36.780695750537774" lon="-4.445324854081088"><ele>277.6</ele><time>2026-03-28T12:17:30.999Z</time></trkpt><trkpt lat="36.78071914122965" lon="-4.445226516460455"><ele>275.40000000000003</ele><time>2026-03-28T12:17:32.999Z</time></trkpt><trkpt lat="36.780730652536896" lon="-4.445081209037505"><ele>273.2</ele><time>2026-03-28T12:17:34.999Z</time></trkpt><trkpt lat="36.780768296624835" lon="-4.444958861588459"><ele>271.0</ele><time>2026-03-28T12:17:36.999Z</time></trkpt><trkpt lat="36.78080640683704" lon="-4.444882507432217"><ele>271.0</ele><time>2026-03-28T12:17:37.999Z</time></trkpt><trkpt lat="36.78086391312599" lon="-4.4447831582292965"><ele>271.0</ele><time>2026-03-28T12:17:40Z</time></trkpt><trkpt lat="36.780830339926545" lon="-4.444701595297845"><ele>271.0</ele><time>2026-03-28T12:17:42Z</time></trkpt><trkpt lat="36.78088465345884" lon="-4.444652192080408"><ele>271.0</ele><time>2026-03-28T12:17:55Z</time></trkpt><trkpt lat="36.78096566658816" lon="-4.444620995452068"><ele>271.0</ele><time>2026-03-28T12:17:57Z</time></trkpt><trkpt lat="36.781053726202316" lon="-4.444579932422002"><ele>271.0</ele><time>2026-03-28T12:17:59Z</time></trkpt><trkpt lat="36.78112269344802" lon="-4.444503089699214"><ele>266.5</ele><time>2026-03-28T12:18:01Z</time></trkpt><trkpt lat="36.78112686034529" lon="-4.444361171693415"><ele>262.0</ele><time>2026-03-28T12:18:03Z</time></trkpt><trkpt lat="36.78111635785027" lon="-4.444213605631067"><ele>257.5</ele><time>2026-03-28T12:18:05Z</time></trkpt><trkpt lat="36.78108322499545" lon="-4.444069974252953"><ele>253.0</ele><time>2026-03-28T12:18:07Z</time></trkpt><trkpt lat="36.78102876853225" lon="-4.443922332164782"><ele>254.99999999999997</ele><time>2026-03-28T12:18:09Z</time></trkpt><trkpt lat="36.78099049812358" lon="-4.443854853527434"><ele>257.0</ele><time>2026-03-28T12:18:10Z</time></trkpt><trkpt lat="36.780950597010595" lon="-4.443779143103952"><ele>259.0</ele><time>2026-03-28T12:18:11Z</time></trkpt><trkpt lat="36.780915324515504" lon="-4.443692059027418"><ele>261.0</ele><time>2026-03-28T12:18:12Z</time></trkpt><trkpt lat="36.78090049262776" lon="-4.443591884297973"><ele>263.0</ele><time>2026-03-28T12:18:13Z</time></trkpt><trkpt lat="36.780862369082065" lon="-4.44346531227564"><ele>265.0</ele><time>2026-03-28T12:18:14Z</time></trkpt><trkpt lat="36.78081221753781" lon="-4.443337272873976"><ele>265.0</ele><time>2026-03-28T12:18:15Z</time></trkpt><trkpt lat="36.78074685308577" lon="-4.443216358941089"><ele>265.0</ele><time>2026-03-28T12:18:16Z</time></trkpt><trkpt lat="36.78068645020776" lon="-4.443104082184254"><ele>265.0</ele><time>2026-03-28T12:18:17Z</time></trkpt><trkpt lat="36.780629345246616" lon="-4.442998306775415"><ele>265.0</ele><time>2026-03-28T12:18:18Z</time></trkpt><trkpt lat="36.78057625907945" lon="-4.44289795150396"><ele>265.0</ele><time>2026-03-28T12:18:19Z</time></trkpt><trkpt lat="36.780530989997054" lon="-4.442796647477857"><ele>262.8333333333333</ele><time>2026-03-28T12:18:20Z</time></trkpt><trkpt lat="36.78050565749929" lon="-4.442686653785267"><ele>260.66666666666663</ele><time>2026-03-28T12:18:21Z</time></trkpt><trkpt lat="36.78049232742953" lon="-4.442562607236424"><ele>258.5</ele><time>2026-03-28T12:18:22Z</time></trkpt><trkpt lat="36.78050161638776" lon="-4.442442846355231"><ele>256.3333333333333</ele><time>2026-03-28T12:18:23Z</time></trkpt><trkpt lat="36.780509944073934" lon="-4.442339766979822"><ele>254.16666666666666</ele><time>2026-03-28T12:18:24Z</time></trkpt><trkpt lat="36.78052597320731" lon="-4.442245745747845"><ele>252.0</ele><time>2026-03-28T12:18:25Z</time></trkpt><trkpt lat="36.7805472901295" lon="-4.44216781033314"><ele>249.8</ele><time>2026-03-28T12:18:26Z</time></trkpt><trkpt lat="36.78054749945029" lon="-4.442020060792016"><ele>247.6</ele><time>2026-03-28T12:18:28Z</time></trkpt><trkpt lat="36.780518436850244" lon="-4.441939053428604"><ele>245.40000000000003</ele><time>2026-03-28T12:18:29Z</time></trkpt><trkpt lat="36.78047497097911" lon="-4.441859831397268"><ele>243.20000000000002</ele><time>2026-03-28T12:18:30Z</time></trkpt><trkpt lat="36.78041321740769" lon="-4.441777994667602"><ele>241.0</ele><time>2026-03-28T12:18:31Z</time></trkpt><trkpt lat="36.78034265011213" lon="-4.4416805841210785"><ele>241.0</ele><time>2026-03-28T12:18:32Z</time></trkpt><trkpt lat="36.78027955222267" lon="-4.441577492540534"><ele>241.00000000000003</ele><time>2026-03-28T12:18:33Z</time></trkpt><trkpt lat="36.78021863033762" lon="-4.441476083829405"><ele>241.00000000000003</ele><time>2026-03-28T12:18:34Z</time></trkpt><trkpt lat="36.78016728497334" lon="-4.441368258272006"><ele>241.0</ele><time>2026-03-28T12:18:35Z</time></trkpt><trkpt lat="36.780113866621456" lon="-4.441256010632303"><ele>241.0</ele><time>2026-03-28T12:18:36Z</time></trkpt><trkpt lat="36.78007185040861" lon="-4.441140798448533"><ele>240.0</ele><time>2026-03-28T12:18:37Z</time></trkpt><trkpt lat="36.780038409245" lon="-4.441014070183696"><ele>239.00000000000003</ele><time>2026-03-28T12:18:38Z</time></trkpt><trkpt lat="36.78001437178974" lon="-4.440895921282549"><ele>238.00000000000003</ele><time>2026-03-28T12:18:39Z</time></trkpt><trkpt lat="36.7799991431865" lon="-4.440779107255203"><ele>237.0</ele><time>2026-03-28T12:18:40Z</time></trkpt><trkpt lat="36.77999606340128" lon="-4.44066293676728"><ele>236.0</ele><time>2026-03-28T12:18:41Z</time></trkpt><trkpt lat="36.77999814908182" lon="-4.4405437557777745"><ele>234.0</ele><time>2026-03-28T12:18:42Z</time></trkpt><trkpt lat="36.77999684263369" lon="-4.440422185009289"><ele>232.00000000000003</ele><time>2026-03-28T12:18:43Z</time></trkpt><trkpt lat="36.779994236397414" lon="-4.440298012022177"><ele>230.00000000000003</ele><time>2026-03-28T12:18:44Z</time></trkpt><trkpt lat="36.77999314068318" lon="-4.440168954226197"><ele>228.0</ele><time>2026-03-28T12:18:45Z</time></trkpt><trkpt lat="36.779993449999075" lon="-4.440039325546488"><ele>226.0</ele><time>2026-03-28T12:18:46Z</time></trkpt><trkpt lat="36.78000364176377" lon="-4.439915922959112"><ele>226.0</ele><time>2026-03-28T12:18:47Z</time></trkpt><trkpt lat="36.78001957673269" lon="-4.4397975896810085"><ele>226.00000000000003</ele><time>2026-03-28T12:18:48Z</time></trkpt><trkpt lat="36.78002616034705" lon="-4.43967530829074"><ele>226.00000000000003</ele><time>2026-03-28T12:18:49Z</time></trkpt><trkpt lat="36.78002396446932" lon="-4.439547841525909"><ele>226.0</ele><time>2026-03-28T12:18:50Z</time></trkpt><trkpt lat="36.78001585392921" lon="-4.439406665868281"><ele>226.0</ele><time>2026-03-28T12:18:51Z</time></trkpt><trkpt lat="36.78000426563887" lon="-4.439255995026018"><ele>223.25</ele><time>2026-03-28T12:18:52Z</time></trkpt><trkpt lat="36.779989948465776" lon="-4.439105840368549"><ele>220.5</ele><time>2026-03-28T12:18:53Z</time></trkpt><trkpt lat="36.77996094058502" lon="-4.4389586191902195"><ele>217.75</ele><time>2026-03-28T12:18:54Z</time></trkpt><trkpt lat="36.779928449906144" lon="-4.438812703306984"><ele>215.0</ele><time>2026-03-28T12:18:55Z</time></trkpt><trkpt lat="36.779905964284" lon="-4.438671431503075"><ele>213.6</ele><time>2026-03-28T12:18:56Z</time></trkpt><trkpt lat="36.77989727779443" lon="-4.438536462462742"><ele>212.2</ele><time>2026-03-28T12:18:57Z</time></trkpt><trkpt lat="36.779892459515544" lon="-4.4384131174775865"><ele>210.8</ele><time>2026-03-28T12:18:58Z</time></trkpt><trkpt lat="36.779880426100156" lon="-4.438301292256131"><ele>209.4</ele><time>2026-03-28T12:18:59Z</time></trkpt><trkpt lat="36.77984607517298" lon="-4.4381943534357395"><ele>208.0</ele><time>2026-03-28T12:18:59.999Z</time></trkpt><trkpt lat="36.77978910898598" lon="-4.438101535957476"><ele>208.0</ele><time>2026-03-28T12:19:00.999Z</time></trkpt><trkpt lat="36.7797067703067" lon="-4.438034706980858"><ele>208.0</ele><time>2026-03-28T12:19:01.999Z</time></trkpt><trkpt lat="36.77962100262133" lon="-4.437969401864447"><ele>208.0</ele><time>2026-03-28T12:19:02.999Z</time></trkpt><trkpt lat="36.779549725564294" lon="-4.4378716096871065"><ele>208.0</ele><time>2026-03-28T12:19:03.999Z</time></trkpt><trkpt lat="36.779492186172206" lon="-4.437753963572777"><ele>208.0</ele><time>2026-03-28T12:19:04.999Z</time></trkpt><trkpt lat="36.779438999657906" lon="-4.4376380403316045"><ele>206.2</ele><time>2026-03-28T12:19:05.999Z</time></trkpt><trkpt lat="36.779365360377135" lon="-4.437546908983939"><ele>204.4</ele><time>2026-03-28T12:19:06.999Z</time></trkpt><trkpt lat="36.77928132115822" lon="-4.437478555313202"><ele>202.6</ele><time>2026-03-28T12:19:07.999Z</time></trkpt><trkpt lat="36.77919078016656" lon="-4.437438029399483"><ele>200.79999999999998</ele><time>2026-03-28T12:19:08.999Z</time></trkpt><trkpt lat="36.779110847261336" lon="-4.437407663050612"><ele>199.0</ele><time>2026-03-28T12:19:09.999Z</time></trkpt><trkpt lat="36.77905123512335" lon="-4.437362980662591"><ele>198.33333333333331</ele><time>2026-03-28T12:19:10.999Z</time></trkpt><trkpt lat="36.77902101628589" lon="-4.4372892343895005"><ele>197.66666666666666</ele><time>2026-03-28T12:19:11.999Z</time></trkpt><trkpt lat="36.779023309314724" lon="-4.437193935744617"><ele>197.0</ele><time>2026-03-28T12:19:12.999Z</time></trkpt><trkpt lat="36.779044045779614" lon="-4.437096067013204"><ele>196.33333333333331</ele><time>2026-03-28T12:19:13.999Z</time></trkpt><trkpt lat="36.77909389662732" lon="-4.437016057759023"><ele>195.66666666666666</ele><time>2026-03-28T12:19:14.999Z</time></trkpt><trkpt lat="36.77916324807589" lon="-4.436961099125715"><ele>195.0</ele><time>2026-03-28T12:19:15.999Z</time></trkpt><trkpt lat="36.77923431613324" lon="-4.436924941899674"><ele>193.28571428571428</ele><time>2026-03-28T12:19:16.999Z</time></trkpt><trkpt lat="36.779302018647215" lon="-4.4368792902804195"><ele>191.57142857142856</ele><time>2026-03-28T12:19:17.999Z</time></trkpt><trkpt lat="36.77935360311479" lon="-4.436824577783166"><ele>189.85714285714286</ele><time>2026-03-28T12:19:18.999Z</time></trkpt><trkpt lat="36.77938836666351" lon="-4.436755972592838"><ele>188.14285714285714</ele><time>2026-03-28T12:19:19.999Z</time></trkpt><trkpt lat="36.779408295611745" lon="-4.436667731984888"><ele>186.42857142857144</ele><time>2026-03-28T12:19:20.999Z</time></trkpt><trkpt lat="36.77941445604863" lon="-4.43656700292214"><ele>184.71428571428572</ele><time>2026-03-28T12:19:21.999Z</time></trkpt><trkpt lat="36.77941607648755" lon="-4.436468584594835"><ele>183.0</ele><time>2026-03-28T12:19:22.999Z</time></trkpt><trkpt lat="36.77941379465608" lon="-4.436368635077315"><ele>180.0</ele><time>2026-03-28T12:19:23.999Z</time></trkpt><trkpt lat="36.77941157384459" lon="-4.436269339270964"><ele>177.0</ele><time>2026-03-28T12:19:24.999Z</time></trkpt><trkpt lat="36.7794323997137" lon="-4.4361733794853295"><ele>174.0</ele><time>2026-03-28T12:19:25.999Z</time></trkpt><trkpt lat="36.779485335591794" lon="-4.436083901506302"><ele>171.0</ele><time>2026-03-28T12:19:26.999Z</time></trkpt><trkpt lat="36.779562608671625" lon="-4.43598915698662"><ele>168.0</ele><time>2026-03-28T12:19:27.999Z</time></trkpt><trkpt lat="36.779637359879885" lon="-4.4358924405409335"><ele>168.0</ele><time>2026-03-28T12:19:28.999Z</time></trkpt><trkpt lat="36.779699279605545" lon="-4.435784500265562"><ele>168.0</ele><time>2026-03-28T12:19:29.999Z</time></trkpt><trkpt lat="36.77975233559329" lon="-4.435676725573214"><ele>168.0</ele><time>2026-03-28T12:19:30.999Z</time></trkpt><trkpt lat="36.77980444616979" lon="-4.43556707476696"><ele>168.0</ele><time>2026-03-28T12:19:31.999Z</time></trkpt><trkpt lat="36.7798489377932" lon="-4.4354562038020475"><ele>168.0</ele><time>2026-03-28T12:19:32.999Z</time></trkpt><trkpt lat="36.77988505631252" lon="-4.435334462732755"><ele>165.6</ele><time>2026-03-28T12:19:33.999Z</time></trkpt><trkpt lat="36.7799062622851" lon="-4.435210582487615"><ele>163.20000000000002</ele><time>2026-03-28T12:19:34.999Z</time></trkpt><trkpt lat="36.77991861746978" lon="-4.435083948168658"><ele>160.8</ele><time>2026-03-28T12:19:35.999Z</time></trkpt><trkpt lat="36.77992850351967" lon="-4.434947821222691"><ele>158.4</ele><time>2026-03-28T12:19:36.999Z</time></trkpt><trkpt lat="36.77993608924246" lon="-4.43480815803294"><ele>156.0</ele><time>2026-03-28T12:19:37.999Z</time></trkpt><trkpt lat="36.77993185597703" lon="-4.434669655676453"><ele>156.16666666666666</ele><time>2026-03-28T12:19:38.999Z</time></trkpt><trkpt lat="36.77991887982728" lon="-4.434538899126713"><ele>156.33333333333334</ele><time>2026-03-28T12:19:39.999Z</time></trkpt><trkpt lat="36.77990431470921" lon="-4.434416847684465"><ele>156.5</ele><time>2026-03-28T12:19:40.999Z</time></trkpt><trkpt lat="36.779895598799236" lon="-4.434303230826822"><ele>156.66666666666669</ele><time>2026-03-28T12:19:41.999Z</time></trkpt><trkpt lat="36.779895463715924" lon="-4.43420726008941"><ele>156.83333333333334</ele><time>2026-03-28T12:19:42.999Z</time></trkpt><trkpt lat="36.77989726515991" lon="-4.434121748585546"><ele>157.0</ele><time>2026-03-28T12:19:43.999Z</time></trkpt><trkpt lat="36.7798947424045" lon="-4.434040814947137"><ele>157.0</ele><time>2026-03-28T12:19:45Z</time></trkpt><trkpt lat="36.77989774508733" lon="-4.433900835679363"><ele>157.0</ele><time>2026-03-28T12:19:47Z</time></trkpt><trkpt lat="36.779897561695385" lon="-4.433736000190806"><ele>157.0</ele><time>2026-03-28T12:19:49Z</time></trkpt><trkpt lat="36.77992313652011" lon="-4.433643883659405"><ele>157.0</ele><time>2026-03-28T12:19:50Z</time></trkpt><trkpt lat="36.77996151320536" lon="-4.433545855973287"><ele>157.0</ele><time>2026-03-28T12:19:51Z</time></trkpt><trkpt lat="36.780005145925564" lon="-4.433452469308766"><ele>158.57142857142856</ele><time>2026-03-28T12:19:52Z</time></trkpt><trkpt lat="36.78005918263991" lon="-4.433384775781019"><ele>160.14285714285714</ele><time>2026-03-28T12:19:53Z</time></trkpt><trkpt lat="36.780117567977676" lon="-4.433344540081712"><ele>161.71428571428572</ele><time>2026-03-28T12:19:54Z</time></trkpt><trkpt lat="36.780186534716975" lon="-4.433347462155043"><ele>163.28571428571428</ele><time>2026-03-28T12:19:55Z</time></trkpt><trkpt lat="36.78025562800334" lon="-4.433379852187544"><ele>164.85714285714286</ele><time>2026-03-28T12:19:56Z</time></trkpt><trkpt lat="36.78031304943479" lon="-4.433431635341542"><ele>166.42857142857142</ele><time>2026-03-28T12:19:57Z</time></trkpt><trkpt lat="36.780359959166574" lon="-4.433490175980467"><ele>168.0</ele><time>2026-03-28T12:19:58Z</time></trkpt><trkpt lat="36.78040394017597" lon="-4.4335518501253"><ele>163.16666666666666</ele><time>2026-03-28T12:19:59Z</time></trkpt><trkpt lat="36.78043927393719" lon="-4.433690937998836"><ele>158.33333333333334</ele><time>2026-03-28T12:20:01Z</time></trkpt><trkpt lat="36.78042476234227" lon="-4.433784458533496"><ele>153.5</ele><time>2026-03-28T12:20:02Z</time></trkpt><trkpt lat="36.78039028802173" lon="-4.433874970950431"><ele>148.66666666666669</ele><time>2026-03-28T12:20:03Z</time></trkpt><trkpt lat="36.78034682203455" lon="-4.433953801081794"><ele>143.83333333333334</ele><time>2026-03-28T12:20:04Z</time></trkpt><trkpt lat="36.78031440596465" lon="-4.434037991170905"><ele>139.0</ele><time>2026-03-28T12:20:05Z</time></trkpt><trkpt lat="36.78029492149072" lon="-4.434129863171675"><ele>139.0</ele><time>2026-03-28T12:20:06Z</time></trkpt><trkpt lat="36.780285483590625" lon="-4.434232799096823"><ele>139.0</ele><time>2026-03-28T12:20:07Z</time></trkpt><trkpt lat="36.780301722081006" lon="-4.434331924331166"><ele>139.0</ele><time>2026-03-28T12:20:08Z</time></trkpt><trkpt lat="36.78032525213903" lon="-4.43442820554942"><ele>139.0</ele><time>2026-03-28T12:20:09Z</time></trkpt><trkpt lat="36.78036031571083" lon="-4.434518823163332"><ele>139.0</ele><time>2026-03-28T12:20:10Z</time></trkpt><trkpt lat="36.780394808223164" lon="-4.4346073117571345"><ele>139.0</ele><time>2026-03-28T12:20:11Z</time></trkpt><trkpt lat="36.78042154024221" lon="-4.434692222664182"><ele>140.0</ele><time>2026-03-28T12:20:12Z</time></trkpt><trkpt lat="36.78044061301756" lon="-4.434770568608228"><ele>141.0</ele><time>2026-03-28T12:20:13Z</time></trkpt><trkpt lat="36.780461477144286" lon="-4.43489874364291"><ele>142.0</ele><time>2026-03-28T12:20:15Z</time></trkpt><trkpt lat="36.78046065956229" lon="-4.434981852477327"><ele>143.0</ele><time>2026-03-28T12:20:17Z</time></trkpt><trkpt lat="36.7804080221498" lon="-4.435044884751066"><ele>144.0</ele><time>2026-03-28T12:20:23Z</time></trkpt><trkpt lat="36.78031816508411" lon="-4.435035643177741"><ele>145.0</ele><time>2026-03-28T12:20:25Z</time></trkpt><trkpt lat="36.780203129406765" lon="-4.434992011088846"><ele>146.83333333333334</ele><time>2026-03-28T12:20:27Z</time></trkpt><trkpt lat="36.78013476412974" lon="-4.43497992982109"><ele>148.66666666666669</ele><time>2026-03-28T12:20:28Z</time></trkpt><trkpt lat="36.780057523261206" lon="-4.4349721604575425"><ele>150.5</ele><time>2026-03-28T12:20:29Z</time></trkpt><trkpt lat="36.77998704753812" lon="-4.43496509574908"><ele>152.33333333333334</ele><time>2026-03-28T12:20:30.014Z</time></trkpt><trkpt lat="36.77992230433291" lon="-4.43495747573394"><ele>154.16666666666666</ele><time>2026-03-28T12:20:31.02Z</time></trkpt><trkpt lat="36.77979884217821" lon="-4.434939555988806"><ele>156.0</ele><time>2026-03-28T12:20:33.015Z</time></trkpt><trkpt lat="36.77973020390495" lon="-4.4349119697422035"><ele>156.0</ele><time>2026-03-28T12:20:34Z</time></trkpt><trkpt lat="36.77958667587869" lon="-4.434862673008943"><ele>156.0</ele><time>2026-03-28T12:20:35Z</time></trkpt><trkpt lat="36.77930145433907" lon="-4.4347780123016145"><ele>156.0</ele><time>2026-03-28T12:20:36Z</time></trkpt><trkpt lat="36.77914925001526" lon="-4.434743713585333"><ele>154.25</ele><time>2026-03-28T12:20:37Z</time></trkpt><trkpt lat="36.779009454294965" lon="-4.434711985557946"><ele>152.5</ele><time>2026-03-28T12:20:38Z</time></trkpt><trkpt lat="36.77887562823163" lon="-4.434679004255617"><ele>150.75</ele><time>2026-03-28T12:20:39Z</time></trkpt><trkpt lat="36.77875170826962" lon="-4.434642577869805"><ele>149.0</ele><time>2026-03-28T12:20:40Z</time></trkpt><trkpt lat="36.77864063330453" lon="-4.434616744491891"><ele>147.8</ele><time>2026-03-28T12:20:41Z</time></trkpt><trkpt lat="36.77855039460479" lon="-4.4345741047677505"><ele>146.60000000000002</ele><time>2026-03-28T12:20:42Z</time></trkpt><trkpt lat="36.77846990440355" lon="-4.434503381815481"><ele>145.4</ele><time>2026-03-28T12:20:43Z</time></trkpt><trkpt lat="36.77840056903912" lon="-4.434431320000366"><ele>144.20000000000002</ele><time>2026-03-28T12:20:44Z</time></trkpt><trkpt lat="36.77831745911375" lon="-4.434377157755636"><ele>143.0</ele><time>2026-03-28T12:20:45Z</time></trkpt><trkpt lat="36.77821666785425" lon="-4.434364239404249"><ele>140.4</ele><time>2026-03-28T12:20:46Z</time></trkpt><trkpt lat="36.7781138346086" lon="-4.4343768951908515"><ele>137.8</ele><time>2026-03-28T12:20:47Z</time></trkpt><trkpt lat="36.778014159698145" lon="-4.434398581174545"><ele>135.2</ele><time>2026-03-28T12:20:48Z</time></trkpt><trkpt lat="36.77791730549707" lon="-4.434427631333061"><ele>132.6</ele><time>2026-03-28T12:20:49Z</time></trkpt><trkpt lat="36.77782008426101" lon="-4.434429814708296"><ele>130.0</ele><time>2026-03-28T12:20:50Z</time></trkpt><trkpt lat="36.77771588533903" lon="-4.434387566561111"><ele>128.6</ele><time>2026-03-28T12:20:51Z</time></trkpt><trkpt lat="36.77761262234912" lon="-4.434328498067053"><ele>127.2</ele><time>2026-03-28T12:20:52Z</time></trkpt><trkpt lat="36.777523319755794" lon="-4.434279377486816"><ele>125.80000000000001</ele><time>2026-03-28T12:20:53Z</time></trkpt><trkpt lat="36.77743065720802" lon="-4.434268485375472"><ele>124.4</ele><time>2026-03-28T12:20:54Z</time></trkpt><trkpt lat="36.77734112801521" lon="-4.434289288222437"><ele>123.0</ele><time>2026-03-28T12:20:55Z</time></trkpt><trkpt lat="36.77724445821966" lon="-4.434363898113263"><ele>123.0</ele><time>2026-03-28T12:20:56Z</time></trkpt><trkpt lat="36.77714603864984" lon="-4.434446475257048"><ele>123.00000000000001</ele><time>2026-03-28T12:20:57Z</time></trkpt><trkpt lat="36.77704157054617" lon="-4.434514906221643"><ele>123.00000000000001</ele><time>2026-03-28T12:20:58Z</time></trkpt><trkpt lat="36.77693080351368" lon="-4.434563916676899"><ele>123.0</ele><time>2026-03-28T12:20:59Z</time></trkpt><trkpt lat="36.77684854179283" lon="-4.434593196783568"><ele>123.0</ele><time>2026-03-28T12:21:00Z</time></trkpt><trkpt lat="36.776786628981135" lon="-4.434620353208452"><ele>125.83333333333333</ele><time>2026-03-28T12:21:01Z</time></trkpt><trkpt lat="36.776715196946526" lon="-4.434684068911219"><ele>128.66666666666666</ele><time>2026-03-28T12:21:02Z</time></trkpt><trkpt lat="36.77665729585325" lon="-4.434771581984748"><ele>131.5</ele><time>2026-03-28T12:21:03Z</time></trkpt><trkpt lat="36.77661591429447" lon="-4.434876884856988"><ele>134.33333333333331</ele><time>2026-03-28T12:21:04Z</time></trkpt><trkpt lat="36.77656812024498" lon="-4.434968321926263"><ele>137.16666666666666</ele><time>2026-03-28T12:21:04.999Z</time></trkpt><trkpt lat="36.776495761134875" lon="-4.435015806206757"><ele>140.0</ele><time>2026-03-28T12:21:05.999Z</time></trkpt><trkpt lat="36.77639693889823" lon="-4.43504045752254"><ele>140.0</ele><time>2026-03-28T12:21:06.999Z</time></trkpt><trkpt lat="36.77628662413361" lon="-4.4350204996095455"><ele>140.0</ele><time>2026-03-28T12:21:07.999Z</time></trkpt><trkpt lat="36.7761946999082" lon="-4.434972757377918"><ele>140.0</ele><time>2026-03-28T12:21:08.999Z</time></trkpt><trkpt lat="36.776098159767386" lon="-4.434937367406843"><ele>140.0</ele><time>2026-03-28T12:21:09.999Z</time></trkpt><trkpt lat="36.77599881320846" lon="-4.434938303589424"><ele>140.0</ele><time>2026-03-28T12:21:10.999Z</time></trkpt><trkpt lat="36.775893889793714" lon="-4.434972778317511"><ele>137.0</ele><time>2026-03-28T12:21:11.999Z</time></trkpt><trkpt lat="36.77577910145191" lon="-4.435028312500681"><ele>134.0</ele><time>2026-03-28T12:21:12.999Z</time></trkpt><trkpt lat="36.775655318528045" lon="-4.435094493047337"><ele>131.0</ele><time>2026-03-28T12:21:13.999Z</time></trkpt><trkpt lat="36.77552733722267" lon="-4.435155590166517"><ele>128.0</ele><time>2026-03-28T12:21:14.999Z</time></trkpt><trkpt lat="36.7753915300922" lon="-4.435210585610408"><ele>128.0</ele><time>2026-03-28T12:21:15.999Z</time></trkpt><trkpt lat="36.77524559809376" lon="-4.43525472888402"><ele>128.0</ele><time>2026-03-28T12:21:16.999Z</time></trkpt><trkpt lat="36.77511026014867" lon="-4.435287834103881"><ele>128.0</ele><time>2026-03-28T12:21:17.999Z</time></trkpt><trkpt lat="36.77499124493728" lon="-4.435311600640473"><ele>128.0</ele><time>2026-03-28T12:21:18.999Z</time></trkpt><trkpt lat="36.77488088105969" lon="-4.435353718051383"><ele>129.6</ele><time>2026-03-28T12:21:19.999Z</time></trkpt><trkpt lat="36.7747733350092" lon="-4.435404463863955"><ele>131.20000000000002</ele><time>2026-03-28T12:21:20.999Z</time></trkpt><trkpt lat="36.77468650963426" lon="-4.435479271915338"><ele>132.8</ele><time>2026-03-28T12:21:21.999Z</time></trkpt><trkpt lat="36.774623232097795" lon="-4.4355910452222025"><ele>134.4</ele><time>2026-03-28T12:21:22.999Z</time></trkpt><trkpt lat="36.77456575327731" lon="-4.435715956707362"><ele>136.0</ele><time>2026-03-28T12:21:23.999Z</time></trkpt><trkpt lat="36.774516883300414" lon="-4.435839195280739"><ele>136.0</ele><time>2026-03-28T12:21:24.999Z</time></trkpt><trkpt lat="36.774458440904446" lon="-4.435939869025979"><ele>136.0</ele><time>2026-03-28T12:21:25.999Z</time></trkpt><trkpt lat="36.774392843181424" lon="-4.436022257089223"><ele>136.0</ele><time>2026-03-28T12:21:26.999Z</time></trkpt><trkpt lat="36.77431046859427" lon="-4.436068511077404"><ele>136.0</ele><time>2026-03-28T12:21:27.999Z</time></trkpt><trkpt lat="36.774226511222366" lon="-4.436101391339949"><ele>136.0</ele><time>2026-03-28T12:21:28.999Z</time></trkpt><trkpt lat="36.774145667170735" lon="-4.43610296442238"><ele>132.5</ele><time>2026-03-28T12:21:29.999Z</time></trkpt><trkpt lat="36.77407702608448" lon="-4.436071075649267"><ele>129.0</ele><time>2026-03-28T12:21:30.999Z</time></trkpt><trkpt lat="36.77402474808273" lon="-4.436005480592503"><ele>125.5</ele><time>2026-03-28T12:21:31.999Z</time></trkpt><trkpt lat="36.774010630694136" lon="-4.435923328077601"><ele>122.0</ele><time>2026-03-28T12:21:32.999Z</time></trkpt><trkpt lat="36.7740040366697" lon="-4.4358344670205865"><ele>118.50000000000001</ele><time>2026-03-28T12:21:33.999Z</time></trkpt><trkpt lat="36.77401509619721" lon="-4.435680400123573"><ele>115.0</ele><time>2026-03-28T12:21:35.999Z</time></trkpt><trkpt lat="36.774019577771526" lon="-4.435594645223155"><ele>115.00000000000001</ele><time>2026-03-28T12:21:36.999Z</time></trkpt><trkpt lat="36.77402503499123" lon="-4.435514392229484"><ele>115.0</ele><time>2026-03-28T12:21:37.999Z</time></trkpt><trkpt lat="36.77403328472682" lon="-4.4354273838833915"><ele>115.0</ele><time>2026-03-28T12:21:38.999Z</time></trkpt><trkpt lat="36.77404831445079" lon="-4.435331166736411"><ele>115.0</ele><time>2026-03-28T12:21:39.999Z</time></trkpt><trkpt lat="36.77406828104423" lon="-4.435232762013648"><ele>115.00000000000001</ele><time>2026-03-28T12:21:40.999Z</time></trkpt><trkpt lat="36.77409144527229" lon="-4.435130748617584"><ele>115.0</ele><time>2026-03-28T12:21:41.999Z</time></trkpt><trkpt lat="36.774112264333255" lon="-4.435025943840553"><ele>113.57142857142856</ele><time>2026-03-28T12:21:42.999Z</time></trkpt><trkpt lat="36.77412879289429" lon="-4.434932680710177"><ele>112.14285714285714</ele><time>2026-03-28T12:21:43.999Z</time></trkpt><trkpt lat="36.77414831215904" lon="-4.43484943352745"><ele>110.71428571428571</ele><time>2026-03-28T12:21:44.999Z</time></trkpt><trkpt lat="36.774166047653054" lon="-4.434767996315154"><ele>109.28571428571428</ele><time>2026-03-28T12:21:45.999Z</time></trkpt><trkpt lat="36.77418472795656" lon="-4.434682918212525"><ele>107.85714285714286</ele><time>2026-03-28T12:21:46.999Z</time></trkpt><trkpt lat="36.77420001846561" lon="-4.4345895769855455"><ele>106.42857142857143</ele><time>2026-03-28T12:21:47.999Z</time></trkpt><trkpt lat="36.77421524290599" lon="-4.434490959814304"><ele>105.0</ele><time>2026-03-28T12:21:48.999Z</time></trkpt><trkpt lat="36.77422576125291" lon="-4.434388531941145"><ele>103.16666666666667</ele><time>2026-03-28T12:21:49.999Z</time></trkpt><trkpt lat="36.774232669565336" lon="-4.43427647651632"><ele>101.33333333333333</ele><time>2026-03-28T12:21:51Z</time></trkpt><trkpt lat="36.77423257279678" lon="-4.434167358656528"><ele>99.5</ele><time>2026-03-28T12:21:52Z</time></trkpt><trkpt lat="36.774232587013394" lon="-4.434058369700805"><ele>97.66666666666666</ele><time>2026-03-28T12:21:53Z</time></trkpt><trkpt lat="36.77422590875854" lon="-4.433944998919863"><ele>95.83333333333333</ele><time>2026-03-28T12:21:54Z</time></trkpt><trkpt lat="36.774216041547966" lon="-4.433831131037126"><ele>94.0</ele><time>2026-03-28T12:21:55Z</time></trkpt><trkpt lat="36.77420296922354" lon="-4.4337160078543505"><ele>97.66666666666666</ele><time>2026-03-28T12:21:56Z</time></trkpt><trkpt lat="36.774185505772486" lon="-4.433609482894269"><ele>101.33333333333333</ele><time>2026-03-28T12:21:57Z</time></trkpt><trkpt lat="36.77417406920543" lon="-4.433501027038223"><ele>105.0</ele><time>2026-03-28T12:21:58Z</time></trkpt><trkpt lat="36.774183544039026" lon="-4.4334080050966085"><ele>108.66666666666666</ele><time>2026-03-28T12:21:59Z</time></trkpt><trkpt lat="36.77420380049035" lon="-4.433321718546573"><ele>112.33333333333333</ele><time>2026-03-28T12:22:00Z</time></trkpt><trkpt lat="36.774239923196845" lon="-4.4332383269027895"><ele>116.0</ele><time>2026-03-28T12:22:01Z</time></trkpt><trkpt lat="36.77427153342139" lon="-4.433145419535241"><ele>116.0</ele><time>2026-03-28T12:22:02Z</time></trkpt><trkpt lat="36.77430496925352" lon="-4.433049442484403"><ele>116.0</ele><time>2026-03-28T12:22:03Z</time></trkpt><trkpt lat="36.77431503304527" lon="-4.432946208210846"><ele>116.0</ele><time>2026-03-28T12:22:04Z</time></trkpt><trkpt lat="36.77431530428718" lon="-4.432836977124106"><ele>116.0</ele><time>2026-03-28T12:22:05Z</time></trkpt><trkpt lat="36.7743189783525" lon="-4.43268536770591"><ele>116.0</ele><time>2026-03-28T12:22:06Z</time></trkpt><trkpt lat="36.774306800155415" lon="-4.43256375403341"><ele>118.19999999999999</ele><time>2026-03-28T12:22:07Z</time></trkpt><trkpt lat="36.7742665408823" lon="-4.432448877155761"><ele>120.39999999999999</ele><time>2026-03-28T12:22:08Z</time></trkpt><trkpt lat="36.77422879233272" lon="-4.432341188109506"><ele>122.6</ele><time>2026-03-28T12:22:09Z</time></trkpt><trkpt lat="36.774210948845145" lon="-4.432223058385854"><ele>124.8</ele><time>2026-03-28T12:22:10Z</time></trkpt><trkpt lat="36.77420611091144" lon="-4.432096954474766"><ele>127.0</ele><time>2026-03-28T12:22:11Z</time></trkpt><trkpt lat="36.77421775019446" lon="-4.4319623635254315"><ele>128.2</ele><time>2026-03-28T12:22:12Z</time></trkpt><trkpt lat="36.77424871517234" lon="-4.431831835557986"><ele>129.39999999999998</ele><time>2026-03-28T12:22:13Z</time></trkpt><trkpt lat="36.774301748987945" lon="-4.431711106824165"><ele>130.60000000000002</ele><time>2026-03-28T12:22:14Z</time></trkpt><trkpt lat="36.774379157462384" lon="-4.431609493050082"><ele>131.8</ele><time>2026-03-28T12:22:15Z</time></trkpt><trkpt lat="36.77446286638723" lon="-4.4315162563247"><ele>133.0</ele><time>2026-03-28T12:22:16Z</time></trkpt><trkpt lat="36.77454874199706" lon="-4.431419543739605"><ele>130.0</ele><time>2026-03-28T12:22:17Z</time></trkpt><trkpt lat="36.7746247285064" lon="-4.431312540403869"><ele>127.0</ele><time>2026-03-28T12:22:18Z</time></trkpt><trkpt lat="36.77470930768416" lon="-4.431217194053723"><ele>124.0</ele><time>2026-03-28T12:22:19Z</time></trkpt><trkpt lat="36.77480750605897" lon="-4.4311412512315576"><ele>121.0</ele><time>2026-03-28T12:22:20Z</time></trkpt><trkpt lat="36.77490895673579" lon="-4.4310872195196955"><ele>121.00000000000001</ele><time>2026-03-28T12:22:21Z</time></trkpt><trkpt lat="36.77500336750658" lon="-4.431058318761436"><ele>121.0</ele><time>2026-03-28T12:22:22Z</time></trkpt><trkpt lat="36.77509042399527" lon="-4.431032997739821"><ele>121.0</ele><time>2026-03-28T12:22:23Z</time></trkpt><trkpt lat="36.77516908894028" lon="-4.431001112827309"><ele>121.0</ele><time>2026-03-28T12:22:24Z</time></trkpt><trkpt lat="36.775234032043315" lon="-4.430952829981938"><ele>121.00000000000001</ele><time>2026-03-28T12:22:25Z</time></trkpt><trkpt lat="36.77528607079896" lon="-4.430876930774764"><ele>121.0</ele><time>2026-03-28T12:22:26Z</time></trkpt><trkpt lat="36.77531332583131" lon="-4.43078407560598"><ele>119.6</ele><time>2026-03-28T12:22:27Z</time></trkpt><trkpt lat="36.77530553588179" lon="-4.430677680364877"><ele>118.19999999999999</ele><time>2026-03-28T12:22:28Z</time></trkpt><trkpt lat="36.775274685458385" lon="-4.430570545094786"><ele>116.80000000000001</ele><time>2026-03-28T12:22:29Z</time></trkpt><trkpt lat="36.7752284513137" lon="-4.430450650344529"><ele>115.4</ele><time>2026-03-28T12:22:30Z</time></trkpt><trkpt lat="36.77518560577296" lon="-4.430341613839775"><ele>114.0</ele><time>2026-03-28T12:22:31Z</time></trkpt><trkpt lat="36.77513288964782" lon="-4.430257760054827"><ele>114.0</ele><time>2026-03-28T12:22:32Z</time></trkpt><trkpt lat="36.77505296925589" lon="-4.430210906283631"><ele>114.0</ele><time>2026-03-28T12:22:33Z</time></trkpt><trkpt lat="36.77496440445645" lon="-4.430193517678249"><ele>114.0</ele><time>2026-03-28T12:22:34Z</time></trkpt><trkpt lat="36.774863694433755" lon="-4.430204278499437"><ele>114.0</ele><time>2026-03-28T12:22:35Z</time></trkpt><trkpt lat="36.77476215003858" lon="-4.430213820962297"><ele>114.0</ele><time>2026-03-28T12:22:36Z</time></trkpt><trkpt lat="36.77466658371537" lon="-4.430227907352109"><ele>114.0</ele><time>2026-03-28T12:22:37Z</time></trkpt><trkpt lat="36.77458019000173" lon="-4.43024385631383"><ele>114.0</ele><time>2026-03-28T12:22:38Z</time></trkpt><trkpt lat="36.774498783645456" lon="-4.430254059388075"><ele>114.0</ele><time>2026-03-28T12:22:39Z</time></trkpt><trkpt lat="36.774417162177755" lon="-4.430230879595168"><ele>114.0</ele><time>2026-03-28T12:22:40Z</time></trkpt><trkpt lat="36.77434723280413" lon="-4.430170344650469"><ele>114.0</ele><time>2026-03-28T12:22:41Z</time></trkpt><trkpt lat="36.77430911568664" lon="-4.430072668401557"><ele>114.0</ele><time>2026-03-28T12:22:42Z</time></trkpt><trkpt lat="36.774298011595455" lon="-4.429964522664235"><ele>114.6</ele><time>2026-03-28T12:22:43Z</time></trkpt><trkpt lat="36.774286411442205" lon="-4.429836710017312"><ele>115.2</ele><time>2026-03-28T12:22:44Z</time></trkpt><trkpt lat="36.774258948208995" lon="-4.429710439949776"><ele>115.79999999999998</ele><time>2026-03-28T12:22:45Z</time></trkpt><trkpt lat="36.77421069827955" lon="-4.429587032847155"><ele>116.39999999999999</ele><time>2026-03-28T12:22:46Z</time></trkpt><trkpt lat="36.77415395286676" lon="-4.429465485118102"><ele>117.0</ele><time>2026-03-28T12:22:47Z</time></trkpt><trkpt lat="36.774102903085925" lon="-4.4293625748101935"><ele>117.0</ele><time>2026-03-28T12:22:48Z</time></trkpt><trkpt lat="36.77403339870987" lon="-4.429273632689639"><ele>117.0</ele><time>2026-03-28T12:22:49Z</time></trkpt><trkpt lat="36.773958792102945" lon="-4.42920243886544"><ele>117.0</ele><time>2026-03-28T12:22:50Z</time></trkpt><trkpt lat="36.77389288354684" lon="-4.429139539837871"><ele>117.0</ele><time>2026-03-28T12:22:51Z</time></trkpt><trkpt lat="36.773835288337715" lon="-4.429072678257917"><ele>117.0</ele><time>2026-03-28T12:22:52Z</time></trkpt><trkpt lat="36.7737806497779" lon="-4.428997088861687"><ele>117.0</ele><time>2026-03-28T12:22:53Z</time></trkpt><trkpt lat="36.77372377630169" lon="-4.428907362742946"><ele>117.39999999999999</ele><time>2026-03-28T12:22:54Z</time></trkpt><trkpt lat="36.77366526885888" lon="-4.428804613059893"><ele>117.79999999999998</ele><time>2026-03-28T12:22:55Z</time></trkpt><trkpt lat="36.77361910869027" lon="-4.428691146684772"><ele>118.2</ele><time>2026-03-28T12:22:56Z</time></trkpt><trkpt lat="36.77359609689392" lon="-4.428559712653904"><ele>118.6</ele><time>2026-03-28T12:22:57Z</time></trkpt><trkpt lat="36.773600787653116" lon="-4.428430253766239"><ele>119.0</ele><time>2026-03-28T12:22:58Z</time></trkpt><trkpt lat="36.77364203798213" lon="-4.4283092304825695"><ele>119.0</ele><time>2026-03-28T12:22:59Z</time></trkpt><trkpt lat="36.77369743599877" lon="-4.428201148850067"><ele>119.0</ele><time>2026-03-28T12:23:00Z</time></trkpt><trkpt lat="36.77374467966813" lon="-4.42809271852317"><ele>119.0</ele><time>2026-03-28T12:23:01Z</time></trkpt><trkpt lat="36.773784304429064" lon="-4.427976936028412"><ele>119.0</ele><time>2026-03-28T12:23:02Z</time></trkpt><trkpt lat="36.77379508342317" lon="-4.427858483952262"><ele>119.0</ele><time>2026-03-28T12:23:03Z</time></trkpt><trkpt lat="36.77378531221055" lon="-4.427735358031506"><ele>119.6</ele><time>2026-03-28T12:23:04Z</time></trkpt><trkpt lat="36.77375132067121" lon="-4.427610408455341"><ele>120.2</ele><time>2026-03-28T12:23:05Z</time></trkpt><trkpt lat="36.77368733191434" lon="-4.427499582181961"><ele>120.79999999999998</ele><time>2026-03-28T12:23:06Z</time></trkpt><trkpt lat="36.773610421860276" lon="-4.427413911282081"><ele>121.39999999999999</ele><time>2026-03-28T12:23:07Z</time></trkpt><trkpt lat="36.7735208524384" lon="-4.427350831263315"><ele>122.0</ele><time>2026-03-28T12:23:08Z</time></trkpt><trkpt lat="36.77341245457108" lon="-4.427322998606848"><ele>126.25</ele><time>2026-03-28T12:23:09Z</time></trkpt><trkpt lat="36.77329572234723" lon="-4.4273056083438815"><ele>130.5</ele><time>2026-03-28T12:23:10Z</time></trkpt><trkpt lat="36.77318364639" lon="-4.427278791137357"><ele>134.75</ele><time>2026-03-28T12:23:11Z</time></trkpt><trkpt lat="36.7730764424334" lon="-4.427247335103371"><ele>139.0</ele><time>2026-03-28T12:23:12Z</time></trkpt><trkpt lat="36.77297063337049" lon="-4.427219103389698"><ele>139.0</ele><time>2026-03-28T12:23:13Z</time></trkpt><trkpt lat="36.77286300364508" lon="-4.427191794407552"><ele>139.0</ele><time>2026-03-28T12:23:14Z</time></trkpt><trkpt lat="36.77275183268873" lon="-4.4271679456446025"><ele>139.0</ele><time>2026-03-28T12:23:15Z</time></trkpt><trkpt lat="36.77264335477961" lon="-4.427143025114742"><ele>139.0</ele><time>2026-03-28T12:23:16Z</time></trkpt><trkpt lat="36.77254817003689" lon="-4.4271196465725815"><ele>139.0</ele><time>2026-03-28T12:23:17Z</time></trkpt><trkpt lat="36.772460938849584" lon="-4.427097438838687"><ele>139.16666666666669</ele><time>2026-03-28T12:23:18Z</time></trkpt><trkpt lat="36.772372894454755" lon="-4.427081979080256"><ele>139.33333333333334</ele><time>2026-03-28T12:23:19Z</time></trkpt><trkpt lat="36.77228706731633" lon="-4.427077511637791"><ele>139.5</ele><time>2026-03-28T12:23:20Z</time></trkpt><trkpt lat="36.77220252147236" lon="-4.4270697637740355"><ele>139.66666666666666</ele><time>2026-03-28T12:23:21Z</time></trkpt><trkpt lat="36.77212204093203" lon="-4.427065609921487"><ele>139.83333333333331</ele><time>2026-03-28T12:23:22Z</time></trkpt><trkpt lat="36.77204368928208" lon="-4.427060877370088"><ele>140.0</ele><time>2026-03-28T12:23:23Z</time></trkpt><trkpt lat="36.771970981574356" lon="-4.42705738488773"><ele>140.0</ele><time>2026-03-28T12:23:24Z</time></trkpt><trkpt lat="36.77190435479838" lon="-4.427048050749416"><ele>140.0</ele><time>2026-03-28T12:23:24.999Z</time></trkpt><trkpt lat="36.771789467598666" lon="-4.426994347116594"><ele>140.0</ele><time>2026-03-28T12:23:26.999Z</time></trkpt><trkpt lat="36.77167465491885" lon="-4.426910258460526"><ele>140.0</ele><time>2026-03-28T12:23:28.999Z</time></trkpt><trkpt lat="36.77161851847136" lon="-4.426858006990053"><ele>140.0</ele><time>2026-03-28T12:23:29.999Z</time></trkpt><trkpt lat="36.77154944751494" lon="-4.426803090258452"><ele>137.4</ele><time>2026-03-28T12:23:30.999Z</time></trkpt><trkpt lat="36.77148680687688" lon="-4.4267419634933445"><ele>134.8</ele><time>2026-03-28T12:23:31.999Z</time></trkpt><trkpt lat="36.771417959363944" lon="-4.4266798279145325"><ele>132.2</ele><time>2026-03-28T12:23:32.999Z</time></trkpt><trkpt lat="36.771342758979145" lon="-4.426613722320578"><ele>129.6</ele><time>2026-03-28T12:23:33.999Z</time></trkpt><trkpt lat="36.77126361899393" lon="-4.4265415191729796"><ele>127.0</ele><time>2026-03-28T12:23:34.999Z</time></trkpt><trkpt lat="36.77117914523541" lon="-4.426459443906245"><ele>127.0</ele><time>2026-03-28T12:23:35.999Z</time></trkpt><trkpt lat="36.77109554599924" lon="-4.426376298709185"><ele>126.99999999999999</ele><time>2026-03-28T12:23:36.999Z</time></trkpt><trkpt lat="36.77101071610439" lon="-4.426297688955234"><ele>126.99999999999999</ele><time>2026-03-28T12:23:37.999Z</time></trkpt><trkpt lat="36.770932180476194" lon="-4.426233709115657"><ele>127.0</ele><time>2026-03-28T12:23:38.999Z</time></trkpt><trkpt lat="36.77086211724353" lon="-4.426174647088154"><ele>127.0</ele><time>2026-03-28T12:23:39.999Z</time></trkpt><trkpt lat="36.77079650118555" lon="-4.426125364891468"><ele>126.16666666666667</ele><time>2026-03-28T12:23:40.999Z</time></trkpt><trkpt lat="36.77072856191853" lon="-4.426074141236207"><ele>125.33333333333334</ele><time>2026-03-28T12:23:41.999Z</time></trkpt><trkpt lat="36.77065027274758" lon="-4.42604557373267"><ele>124.5</ele><time>2026-03-28T12:23:42.999Z</time></trkpt><trkpt lat="36.77056540984986" lon="-4.426014700231526"><ele>123.66666666666666</ele><time>2026-03-28T12:23:43.999Z</time></trkpt><trkpt lat="36.770472394029696" lon="-4.42598289476344"><ele>122.83333333333333</ele><time>2026-03-28T12:23:44.999Z</time></trkpt><trkpt lat="36.770371820226785" lon="-4.425953452684872"><ele>122.0</ele><time>2026-03-28T12:23:45.999Z</time></trkpt><trkpt lat="36.770262112476956" lon="-4.425929487059642"><ele>121.75</ele><time>2026-03-28T12:23:46.999Z</time></trkpt><trkpt lat="36.77014513101664" lon="-4.425906803244458"><ele>121.5</ele><time>2026-03-28T12:23:47.999Z</time></trkpt><trkpt lat="36.77002800925075" lon="-4.425883490215102"><ele>121.25</ele><time>2026-03-28T12:23:48.999Z</time></trkpt><trkpt lat="36.7699021962486" lon="-4.425851795737542"><ele>121.0</ele><time>2026-03-28T12:23:49.999Z</time></trkpt><trkpt lat="36.76977656352313" lon="-4.425810378382831"><ele>121.0</ele><time>2026-03-28T12:23:50.999Z</time></trkpt><trkpt lat="36.76965260283944" lon="-4.425763952371374"><ele>121.0</ele><time>2026-03-28T12:23:51.999Z</time></trkpt><trkpt lat="36.76952620816509" lon="-4.425704289619364"><ele>121.0</ele><time>2026-03-28T12:23:52.999Z</time></trkpt><trkpt lat="36.769395155138525" lon="-4.42564190667435"><ele>121.0</ele><time>2026-03-28T12:23:53.999Z</time></trkpt><trkpt lat="36.76926184077677" lon="-4.425575947011024"><ele>121.25</ele><time>2026-03-28T12:23:54.999Z</time></trkpt><trkpt lat="36.76913154064518" lon="-4.425506915272095"><ele>121.5</ele><time>2026-03-28T12:23:55.999Z</time></trkpt><trkpt lat="36.769001797468455" lon="-4.425433259966894"><ele>121.75</ele><time>2026-03-28T12:23:57Z</time></trkpt><trkpt lat="36.76887150910788" lon="-4.425358195902671"><ele>122.0</ele><time>2026-03-28T12:23:58Z</time></trkpt><trkpt lat="36.76874392649431" lon="-4.425281643717346"><ele>118.75</ele><time>2026-03-28T12:23:59Z</time></trkpt><trkpt lat="36.76861619855027" lon="-4.42520816738233"><ele>115.5</ele><time>2026-03-28T12:24:00Z</time></trkpt><trkpt lat="36.768487046651344" lon="-4.425128213421493"><ele>112.25</ele><time>2026-03-28T12:24:01Z</time></trkpt><trkpt lat="36.768361178553235" lon="-4.425053902335359"><ele>109.0</ele><time>2026-03-28T12:24:02Z</time></trkpt><trkpt lat="36.768235223641334" lon="-4.424983001280963"><ele>108.5</ele><time>2026-03-28T12:24:03Z</time></trkpt><trkpt lat="36.76811611277585" lon="-4.424916860198652"><ele>108.0</ele><time>2026-03-28T12:24:04Z</time></trkpt><trkpt lat="36.768001861990456" lon="-4.424856197998512"><ele>107.5</ele><time>2026-03-28T12:24:05Z</time></trkpt><trkpt lat="36.76789053775367" lon="-4.424803452801941"><ele>107.0</ele><time>2026-03-28T12:24:06Z</time></trkpt><trkpt lat="36.76778164986326" lon="-4.424758595997789"><ele>106.0</ele><time>2026-03-28T12:24:07Z</time></trkpt><trkpt lat="36.76767727009826" lon="-4.42471969357014"><ele>104.99999999999999</ele><time>2026-03-28T12:24:08Z</time></trkpt><trkpt lat="36.76757858327073" lon="-4.42468755979815"><ele>104.0</ele><time>2026-03-28T12:24:09Z</time></trkpt><trkpt lat="36.767490861251424" lon="-4.424669235612632"><ele>103.0</ele><time>2026-03-28T12:24:10Z</time></trkpt><trkpt lat="36.767400360837" lon="-4.42465666732485"><ele>102.0</ele><time>2026-03-28T12:24:11Z</time></trkpt><trkpt lat="36.767302179510665" lon="-4.424641822669179"><ele>100.25</ele><time>2026-03-28T12:24:12Z</time></trkpt><trkpt lat="36.767192068504436" lon="-4.4246096632076775"><ele>98.5</ele><time>2026-03-28T12:24:13Z</time></trkpt><trkpt lat="36.76707250431221" lon="-4.424585061973384"><ele>96.75</ele><time>2026-03-28T12:24:14Z</time></trkpt><trkpt lat="36.76693918745573" lon="-4.424559521178367"><ele>95.0</ele><time>2026-03-28T12:24:15Z</time></trkpt><trkpt lat="36.766798668921986" lon="-4.424532544561762"><ele>93.0</ele><time>2026-03-28T12:24:16Z</time></trkpt><trkpt lat="36.7666597027523" lon="-4.4244977073946075"><ele>91.0</ele><time>2026-03-28T12:24:17Z</time></trkpt><trkpt lat="36.76652733148067" lon="-4.4244652411421015"><ele>89.0</ele><time>2026-03-28T12:24:18Z</time></trkpt><trkpt lat="36.76639136649922" lon="-4.424451489933466"><ele>87.0</ele><time>2026-03-28T12:24:19Z</time></trkpt><trkpt lat="36.76625738565249" lon="-4.424443425459058"><ele>87.0</ele><time>2026-03-28T12:24:20Z</time></trkpt><trkpt lat="36.76612621820597" lon="-4.424454959391538"><ele>87.0</ele><time>2026-03-28T12:24:21Z</time></trkpt><trkpt lat="36.765985179763" lon="-4.424482608574102"><ele>87.0</ele><time>2026-03-28T12:24:22Z</time></trkpt><trkpt lat="36.76583398053958" lon="-4.424512246774195"><ele>87.0</ele><time>2026-03-28T12:24:23Z</time></trkpt><trkpt lat="36.76567665617697" lon="-4.424534655894448"><ele>85.33333333333333</ele><time>2026-03-28T12:24:24Z</time></trkpt><trkpt lat="36.76552149543131" lon="-4.424548534818452"><ele>83.66666666666666</ele><time>2026-03-28T12:24:25Z</time></trkpt><trkpt lat="36.765360482060835" lon="-4.424558698438597"><ele>82.0</ele><time>2026-03-28T12:24:26Z</time></trkpt><trkpt lat="36.76520386938747" lon="-4.424555738525214"><ele>81.75</ele><time>2026-03-28T12:24:27Z</time></trkpt><trkpt lat="36.76506240704264" lon="-4.424535807929843"><ele>81.5</ele><time>2026-03-28T12:24:28Z</time></trkpt><trkpt lat="36.764927394161994" lon="-4.424538308164588"><ele>81.25</ele><time>2026-03-28T12:24:29Z</time></trkpt><trkpt lat="36.76480543086755" lon="-4.4245613554806305"><ele>81.0</ele><time>2026-03-28T12:24:30Z</time></trkpt><trkpt lat="36.76468929047136" lon="-4.424583591316855"><ele>81.0</ele><time>2026-03-28T12:24:31Z</time></trkpt><trkpt lat="36.76457850000989" lon="-4.42458812418373"><ele>81.0</ele><time>2026-03-28T12:24:32Z</time></trkpt><trkpt lat="36.764462733030065" lon="-4.424554376364652"><ele>81.0</ele><time>2026-03-28T12:24:33Z</time></trkpt><trkpt lat="36.76433812256314" lon="-4.424526992214286"><ele>81.0</ele><time>2026-03-28T12:24:34Z</time></trkpt><trkpt lat="36.764216180533204" lon="-4.424471080092215"><ele>80.75</ele><time>2026-03-28T12:24:35Z</time></trkpt><trkpt lat="36.76409575539869" lon="-4.424472666601302"><ele>80.5</ele><time>2026-03-28T12:24:36Z</time></trkpt><trkpt lat="36.76398306020749" lon="-4.42449069708984"><ele>80.25</ele><time>2026-03-28T12:24:37Z</time></trkpt><trkpt lat="36.76387174291947" lon="-4.424536150848488"><ele>80.0</ele><time>2026-03-28T12:24:38Z</time></trkpt><trkpt lat="36.76377928695396" lon="-4.424596218649454"><ele>78.4</ele><time>2026-03-28T12:24:39Z</time></trkpt><trkpt lat="36.76370027398678" lon="-4.424661513293702"><ele>76.8</ele><time>2026-03-28T12:24:40Z</time></trkpt><trkpt lat="36.763616025113734" lon="-4.424702491739557"><ele>75.2</ele><time>2026-03-28T12:24:41Z</time></trkpt><trkpt lat="36.763521183978504" lon="-4.424726245796207"><ele>73.6</ele><time>2026-03-28T12:24:42Z</time></trkpt><trkpt lat="36.763415488828066" lon="-4.42474671590172"><ele>72.0</ele><time>2026-03-28T12:24:43Z</time></trkpt><trkpt lat="36.76330265662653" lon="-4.424768434769279"><ele>71.0</ele><time>2026-03-28T12:24:44Z</time></trkpt><trkpt lat="36.76318311968932" lon="-4.424779338480281"><ele>70.0</ele><time>2026-03-28T12:24:45Z</time></trkpt><trkpt lat="36.76306069978537" lon="-4.424784677037067"><ele>69.0</ele><time>2026-03-28T12:24:46Z</time></trkpt><trkpt lat="36.762934788027685" lon="-4.424789572372899"><ele>68.0</ele><time>2026-03-28T12:24:47Z</time></trkpt><trkpt lat="36.76280467832415" lon="-4.424783115163105"><ele>67.75</ele><time>2026-03-28T12:24:48Z</time></trkpt><trkpt lat="36.76268516126848" lon="-4.424798708191714"><ele>67.5</ele><time>2026-03-28T12:24:49Z</time></trkpt><trkpt lat="36.76256598281214" lon="-4.424811287328685"><ele>67.25</ele><time>2026-03-28T12:24:50Z</time></trkpt><trkpt lat="36.762455961882125" lon="-4.42482366054544"><ele>67.0</ele><time>2026-03-28T12:24:51Z</time></trkpt><trkpt lat="36.76235137093296" lon="-4.424836798044762"><ele>67.0</ele><time>2026-03-28T12:24:52Z</time></trkpt><trkpt lat="36.76225583704577" lon="-4.424850982389733"><ele>67.0</ele><time>2026-03-28T12:24:53Z</time></trkpt><trkpt lat="36.762166615889164" lon="-4.4248566441173525"><ele>67.0</ele><time>2026-03-28T12:24:54Z</time></trkpt><trkpt lat="36.762077098123285" lon="-4.424865645936178"><ele>67.0</ele><time>2026-03-28T12:24:55Z</time></trkpt><trkpt lat="36.761989138548145" lon="-4.424875424896036"><ele>67.0</ele><time>2026-03-28T12:24:56Z</time></trkpt><trkpt lat="36.7619193907155" lon="-4.424886694524435"><ele>67.0</ele><time>2026-03-28T12:24:57Z</time></trkpt><trkpt lat="36.76180277034775" lon="-4.424907224364324"><ele>67.0</ele><time>2026-03-28T12:24:59Z</time></trkpt><trkpt lat="36.761682049433034" lon="-4.424765274504145"><ele>67.0</ele><time>2026-03-28T12:25:01Z</time></trkpt><trkpt lat="36.76165346923318" lon="-4.424661223212586"><ele>67.0</ele><time>2026-03-28T12:25:02Z</time></trkpt><trkpt lat="36.76162260528395" lon="-4.424553749975978"><ele>67.0</ele><time>2026-03-28T12:25:03Z</time></trkpt><trkpt lat="36.7615897691273" lon="-4.4244469484069"><ele>67.0</ele><time>2026-03-28T12:25:04Z</time></trkpt><trkpt lat="36.76155866970332" lon="-4.424342976038575"><ele>67.0</ele><time>2026-03-28T12:25:05Z</time></trkpt><trkpt lat="36.76152947378732" lon="-4.424254735945086"><ele>67.0</ele><time>2026-03-28T12:25:06Z</time></trkpt><trkpt lat="36.7614907720852" lon="-4.424136063854381"><ele>67.0</ele><time>2026-03-28T12:25:08Z</time></trkpt><trkpt lat="36.761384757173516" lon="-4.424205057251427"><ele>67.0</ele><time>2026-03-28T12:25:17Z</time></trkpt><trkpt lat="36.76131909588067" lon="-4.424240917721279"><ele>67.0</ele><time>2026-03-28T12:25:18Z</time></trkpt><trkpt lat="36.76122944206222" lon="-4.424287619584197"><ele>67.0</ele><time>2026-03-28T12:25:19Z</time></trkpt><trkpt lat="36.76113318494762" lon="-4.424352322465136"><ele>67.0</ele><time>2026-03-28T12:25:20Z</time></trkpt><trkpt lat="36.76103372026067" lon="-4.424430474947076"><ele>67.0</ele><time>2026-03-28T12:25:21Z</time></trkpt><trkpt lat="36.760932532434346" lon="-4.424511796380892"><ele>67.0</ele><time>2026-03-28T12:25:22Z</time></trkpt><trkpt lat="36.760819657256064" lon="-4.424600185589474"><ele>65.75</ele><time>2026-03-28T12:25:23Z</time></trkpt><trkpt lat="36.760703273483564" lon="-4.424694691909798"><ele>64.5</ele><time>2026-03-28T12:25:24Z</time></trkpt><trkpt lat="36.760589701847024" lon="-4.424793112211208"><ele>63.25</ele><time>2026-03-28T12:25:25Z</time></trkpt><trkpt lat="36.76048125657697" lon="-4.424889838981639"><ele>62.0</ele><time>2026-03-28T12:25:26Z</time></trkpt><trkpt lat="36.76037229831076" lon="-4.42498049206212"><ele>62.0</ele><time>2026-03-28T12:25:27Z</time></trkpt><trkpt lat="36.76025623931864" lon="-4.425059352390112"><ele>62.0</ele><time>2026-03-28T12:25:28Z</time></trkpt><trkpt lat="36.76012942979536" lon="-4.425118856247044"><ele>62.0</ele><time>2026-03-28T12:25:29Z</time></trkpt><trkpt lat="36.75999611266568" lon="-4.425172592829358"><ele>62.0</ele><time>2026-03-28T12:25:29.999Z</time></trkpt><trkpt lat="36.7598668533492" lon="-4.425235259510539"><ele>62.75</ele><time>2026-03-28T12:25:30.999Z</time></trkpt><trkpt lat="36.759735314290374" lon="-4.425301065408728"><ele>63.5</ele><time>2026-03-28T12:25:31.999Z</time></trkpt><trkpt lat="36.75960711202518" lon="-4.4253595148841285"><ele>64.25</ele><time>2026-03-28T12:25:32.999Z</time></trkpt><trkpt lat="36.75948084312275" lon="-4.4254194682915475"><ele>65.0</ele><time>2026-03-28T12:25:33.999Z</time></trkpt><trkpt lat="36.75935659325367" lon="-4.425484467278994"><ele>63.0</ele><time>2026-03-28T12:25:34.999Z</time></trkpt><trkpt lat="36.759236041067325" lon="-4.425551606261602"><ele>61.0</ele><time>2026-03-28T12:25:35.999Z</time></trkpt><trkpt lat="36.759114720881016" lon="-4.425626617522158"><ele>59.0</ele><time>2026-03-28T12:25:36.999Z</time></trkpt><trkpt lat="36.758996786564026" lon="-4.425694290803044"><ele>57.0</ele><time>2026-03-28T12:25:37.999Z</time></trkpt><trkpt lat="36.75888362410513" lon="-4.4257536353068385"><ele>57.0</ele><time>2026-03-28T12:25:38.999Z</time></trkpt><trkpt lat="36.758779040943935" lon="-4.425805615946439"><ele>57.0</ele><time>2026-03-28T12:25:39.999Z</time></trkpt><trkpt lat="36.75868260757153" lon="-4.4258506729437475"><ele>57.0</ele><time>2026-03-28T12:25:40.999Z</time></trkpt><trkpt lat="36.75858262138344" lon="-4.42586958067053"><ele>57.0</ele><time>2026-03-28T12:25:41.999Z</time></trkpt><trkpt lat="36.758475510288434" lon="-4.425874241371179"><ele>57.0</ele><time>2026-03-28T12:25:42.999Z</time></trkpt><trkpt lat="36.7583682674891" lon="-4.425817796184558"><ele>57.0</ele><time>2026-03-28T12:25:43.999Z</time></trkpt><trkpt lat="36.75825553819012" lon="-4.425786831612241"><ele>57.0</ele><time>2026-03-28T12:25:44.999Z</time></trkpt><trkpt lat="36.758130062893954" lon="-4.425796291487331"><ele>57.0</ele><time>2026-03-28T12:25:45.999Z</time></trkpt><trkpt lat="36.7580044007463" lon="-4.42577562465717"><ele>57.0</ele><time>2026-03-28T12:25:46.999Z</time></trkpt><trkpt lat="36.75789102916221" lon="-4.425745316684807"><ele>57.0</ele><time>2026-03-28T12:25:47.999Z</time></trkpt><trkpt lat="36.7577873659157" lon="-4.425700444320431"><ele>57.0</ele><time>2026-03-28T12:25:48.999Z</time></trkpt><trkpt lat="36.75768131325631" lon="-4.42567514688975"><ele>57.0</ele><time>2026-03-28T12:25:49.999Z</time></trkpt><trkpt lat="36.75757293217904" lon="-4.425652153278468"><ele>57.0</ele><time>2026-03-28T12:25:50.999Z</time></trkpt><trkpt lat="36.75746463424963" lon="-4.425623860472921"><ele>57.0</ele><time>2026-03-28T12:25:51.999Z</time></trkpt><trkpt lat="36.7573580798796" lon="-4.425595691403346"><ele>55.400000000000006</ele><time>2026-03-28T12:25:52.999Z</time></trkpt><trkpt lat="36.75725722485571" lon="-4.4255693176940385"><ele>53.800000000000004</ele><time>2026-03-28T12:25:53.999Z</time></trkpt><trkpt lat="36.75715017217272" lon="-4.425544135566935"><ele>52.2</ele><time>2026-03-28T12:25:54.999Z</time></trkpt><trkpt lat="36.75704167624605" lon="-4.42552049572902"><ele>50.6</ele><time>2026-03-28T12:25:55.999Z</time></trkpt><trkpt lat="36.756933479799564" lon="-4.425494739394679"><ele>49.0</ele><time>2026-03-28T12:25:56.999Z</time></trkpt><trkpt lat="36.75682902540374" lon="-4.425469000227485"><ele>48.6</ele><time>2026-03-28T12:25:57.999Z</time></trkpt><trkpt lat="36.75673675440077" lon="-4.425453535834765"><ele>48.2</ele><time>2026-03-28T12:25:58.999Z</time></trkpt><trkpt lat="36.756651954936096" lon="-4.425436889214131"><ele>47.800000000000004</ele><time>2026-03-28T12:25:59.999Z</time></trkpt><trkpt lat="36.756570998234764" lon="-4.425425677882944"><ele>47.400000000000006</ele><time>2026-03-28T12:26:00.999Z</time></trkpt><trkpt lat="36.75647764859782" lon="-4.4254138087792"><ele>47.0</ele><time>2026-03-28T12:26:01.999Z</time></trkpt><trkpt lat="36.75637332040305" lon="-4.425388284302882"><ele>47.0</ele><time>2026-03-28T12:26:03Z</time></trkpt><trkpt lat="36.75626711614328" lon="-4.425375907344153"><ele>47.0</ele><time>2026-03-28T12:26:04Z</time></trkpt><trkpt lat="36.75615391422769" lon="-4.42537318664084"><ele>47.0</ele><time>2026-03-28T12:26:05Z</time></trkpt><trkpt lat="36.75604308385761" lon="-4.4253680715388395"><ele>47.0</ele><time>2026-03-28T12:26:06Z</time></trkpt><trkpt lat="36.755935374549786" lon="-4.425354271657014"><ele>47.0</ele><time>2026-03-28T12:26:07Z</time></trkpt><trkpt lat="36.75583088892499" lon="-4.425334712616445"><ele>46.6</ele><time>2026-03-28T12:26:08Z</time></trkpt><trkpt lat="36.75571867883813" lon="-4.425312220491741"><ele>46.2</ele><time>2026-03-28T12:26:09Z</time></trkpt><trkpt lat="36.75561035022258" lon="-4.425296864464147"><ele>45.8</ele><time>2026-03-28T12:26:10Z</time></trkpt><trkpt lat="36.75550016306431" lon="-4.425279517485127"><ele>45.4</ele><time>2026-03-28T12:26:11Z</time></trkpt><trkpt lat="36.75538754919602" lon="-4.42526033772889"><ele>45.0</ele><time>2026-03-28T12:26:12Z</time></trkpt><trkpt lat="36.75526339645875" lon="-4.42524197775285"><ele>44.75</ele><time>2026-03-28T12:26:13Z</time></trkpt><trkpt lat="36.75513934880787" lon="-4.42521450155264"><ele>44.5</ele><time>2026-03-28T12:26:14Z</time></trkpt><trkpt lat="36.75501394002678" lon="-4.425182596777279"><ele>44.25</ele><time>2026-03-28T12:26:15Z</time></trkpt><trkpt lat="36.754885608405274" lon="-4.42513126122888"><ele>44.0</ele><time>2026-03-28T12:26:16Z</time></trkpt><trkpt lat="36.7547585704928" lon="-4.425095247457541"><ele>44.0</ele><time>2026-03-28T12:26:17Z</time></trkpt><trkpt lat="36.754652961993614" lon="-4.425049325863772"><ele>44.0</ele><time>2026-03-28T12:26:18Z</time></trkpt><trkpt lat="36.75454933482987" lon="-4.425000827204897"><ele>44.0</ele><time>2026-03-28T12:26:19Z</time></trkpt><trkpt lat="36.75444560650193" lon="-4.424950854485282"><ele>44.0</ele><time>2026-03-28T12:26:20Z</time></trkpt><trkpt lat="36.75436053452664" lon="-4.424886278494418"><ele>44.0</ele><time>2026-03-28T12:26:21Z</time></trkpt><trkpt lat="36.754271488086005" lon="-4.424850160580546"><ele>44.0</ele><time>2026-03-28T12:26:22Z</time></trkpt><trkpt lat="36.754200453738584" lon="-4.424815287507258"><ele>44.0</ele><time>2026-03-28T12:26:23Z</time></trkpt><trkpt lat="36.75410707486932" lon="-4.424762322249659"><ele>44.0</ele><time>2026-03-28T12:26:25Z</time></trkpt><trkpt lat="36.75402134968682" lon="-4.424726747673748"><ele>44.0</ele><time>2026-03-28T12:26:32Z</time></trkpt><trkpt lat="36.753962690716655" lon="-4.424680768481016"><ele>44.0</ele><time>2026-03-28T12:26:35Z</time></trkpt><trkpt lat="36.75389234776402" lon="-4.424659849192824"><ele>44.0</ele><time>2026-03-28T12:26:41Z</time></trkpt><trkpt lat="36.75381264319562" lon="-4.424644471113336"><ele>44.400000000000006</ele><time>2026-03-28T12:26:46Z</time></trkpt><trkpt lat="36.75372732637278" lon="-4.424711822820853"><ele>44.8</ele><time>2026-03-28T12:26:48Z</time></trkpt><trkpt lat="36.75361350599131" lon="-4.424742631108184"><ele>45.2</ele><time>2026-03-28T12:26:50Z</time></trkpt><trkpt lat="36.75354272086977" lon="-4.424707889958798"><ele>45.599999999999994</ele><time>2026-03-28T12:26:51Z</time></trkpt><trkpt lat="36.753497238148555" lon="-4.4245994610702555"><ele>46.0</ele><time>2026-03-28T12:26:52Z</time></trkpt><trkpt lat="36.753480550485946" lon="-4.424516367784888"><ele>44.8</ele><time>2026-03-28T12:26:53Z</time></trkpt><trkpt lat="36.75346879044563" lon="-4.424434931951005"><ele>43.599999999999994</ele><time>2026-03-28T12:26:54Z</time></trkpt><trkpt lat="36.75340660220177" lon="-4.424363979918553"><ele>42.4</ele><time>2026-03-28T12:26:55Z</time></trkpt><trkpt lat="36.75327603439563" lon="-4.424299994898493"><ele>41.2</ele><time>2026-03-28T12:26:57Z</time></trkpt><trkpt lat="36.753195631841486" lon="-4.424261550632397"><ele>40.0</ele><time>2026-03-28T12:26:58Z</time></trkpt><trkpt lat="36.75311812723945" lon="-4.424212213860676"><ele>40.0</ele><time>2026-03-28T12:26:59Z</time></trkpt><trkpt lat="36.75303998733781" lon="-4.4241601144260345"><ele>40.0</ele><time>2026-03-28T12:27:00Z</time></trkpt><trkpt lat="36.75295896915277" lon="-4.424121390168673"><ele>40.0</ele><time>2026-03-28T12:27:01Z</time></trkpt><trkpt lat="36.75288404682694" lon="-4.424074562765039"><ele>40.0</ele><time>2026-03-28T12:27:02Z</time></trkpt><trkpt lat="36.75280481973455" lon="-4.424030305312915"><ele>40.0</ele><time>2026-03-28T12:27:03Z</time></trkpt><trkpt lat="36.75272338018878" lon="-4.423980905957365"><ele>40.0</ele><time>2026-03-28T12:27:04Z</time></trkpt><trkpt lat="36.75264181182667" lon="-4.423931958412974"><ele>39.5</ele><time>2026-03-28T12:27:05Z</time></trkpt><trkpt lat="36.752564781569795" lon="-4.423886627694893"><ele>39.0</ele><time>2026-03-28T12:27:06Z</time></trkpt><trkpt lat="36.75249373632225" lon="-4.423842862675896"><ele>38.5</ele><time>2026-03-28T12:27:07Z</time></trkpt><trkpt lat="36.75244108751089" lon="-4.42379874337342"><ele>38.0</ele><time>2026-03-28T12:27:08Z</time></trkpt><trkpt lat="36.75233207918877" lon="-4.423736148412252"><ele>37.5</ele><time>2026-03-28T12:27:10Z</time></trkpt><trkpt lat="36.752263505587145" lon="-4.423696519005864"><ele>37.0</ele><time>2026-03-28T12:27:12Z</time></trkpt><trkpt lat="36.752410363557054" lon="-4.42366676661444"><ele>37.0</ele><time>2026-03-28T12:28:19.967Z</time></trkpt></trkseg></trk></gpx>